<?xml version="1.0" encoding="UTF-8" standalone="no" ?>
<gpx xmlns="http://www.topografix.com/GPX/1/1" xmlns:xsi="http://www.w3.org/2001/XMLSchema-instance" xsi:schemaLocation="http://www.topografix.com/GPX/1/1 http://www.topografix.com/GPX/1/1/gpx.xsd" version="1.1" creator="VisuGPX - https://www.visugpx.com">
  <metadata>
    <name>SE-NE-Breuil La Filée Vertou Basse Goulaine Carquefou Voie Vert St Mars Désert Le Cellier EV6 Nantes</name>
    <desc><![CDATA[SE-NE-Breuil La Filée Vertou Basse Goulaine Carquefou Voie Vert St Mars Désert Le Cellier EV6 Nantes]]></desc>
  </metadata>
  <trk>
    <name><![CDATA[2021-04-22 11:06 +02:00]]></name>
    <trkseg>
      <trkpt lat="47.16779" lon="-1.62649">
        <ele>65</ele>
        <time>2021-04-22T09:06:11.000Z</time>
      </trkpt>
      <trkpt lat="47.16788" lon="-1.62645">
        <ele>79</ele>
        <time>2021-04-22T09:08:45.000Z</time>
      </trkpt>
      <trkpt lat="47.16796" lon="-1.62633">
        <ele>79</ele>
        <time>2021-04-22T09:08:47.000Z</time>
      </trkpt>
      <trkpt lat="47.16805" lon="-1.6262">
        <ele>79</ele>
        <time>2021-04-22T09:08:49.000Z</time>
      </trkpt>
      <trkpt lat="47.16813" lon="-1.62606">
        <ele>78</ele>
        <time>2021-04-22T09:08:51.000Z</time>
      </trkpt>
      <trkpt lat="47.16821" lon="-1.62593">
        <ele>78</ele>
        <time>2021-04-22T09:08:53.000Z</time>
      </trkpt>
      <trkpt lat="47.16828" lon="-1.62577">
        <ele>76</ele>
        <time>2021-04-22T09:08:55.000Z</time>
      </trkpt>
      <trkpt lat="47.16826" lon="-1.62561">
        <ele>77</ele>
        <time>2021-04-22T09:08:57.000Z</time>
      </trkpt>
      <trkpt lat="47.16813" lon="-1.62553">
        <ele>77</ele>
        <time>2021-04-22T09:08:59.000Z</time>
      </trkpt>
      <trkpt lat="47.16801" lon="-1.62545">
        <ele>78</ele>
        <time>2021-04-22T09:09:01.000Z</time>
      </trkpt>
      <trkpt lat="47.16788" lon="-1.62539">
        <ele>77</ele>
        <time>2021-04-22T09:09:03.000Z</time>
      </trkpt>
      <trkpt lat="47.16777" lon="-1.62531">
        <ele>77</ele>
        <time>2021-04-22T09:09:05.000Z</time>
      </trkpt>
      <trkpt lat="47.16765" lon="-1.62523">
        <ele>76</ele>
        <time>2021-04-22T09:09:07.000Z</time>
      </trkpt>
      <trkpt lat="47.16753" lon="-1.62517">
        <ele>77</ele>
        <time>2021-04-22T09:09:09.000Z</time>
      </trkpt>
      <trkpt lat="47.16743" lon="-1.62511">
        <ele>76</ele>
        <time>2021-04-22T09:09:11.000Z</time>
      </trkpt>
      <trkpt lat="47.16731" lon="-1.62505">
        <ele>75</ele>
        <time>2021-04-22T09:09:13.000Z</time>
      </trkpt>
      <trkpt lat="47.16719" lon="-1.625">
        <ele>74</ele>
        <time>2021-04-22T09:09:15.000Z</time>
      </trkpt>
      <trkpt lat="47.16711" lon="-1.62491">
        <ele>74</ele>
        <time>2021-04-22T09:09:17.000Z</time>
      </trkpt>
      <trkpt lat="47.1671" lon="-1.62474">
        <ele>73</ele>
        <time>2021-04-22T09:09:19.000Z</time>
      </trkpt>
      <trkpt lat="47.16712" lon="-1.62455">
        <ele>74</ele>
        <time>2021-04-22T09:09:21.000Z</time>
      </trkpt>
      <trkpt lat="47.16714" lon="-1.62437">
        <ele>74</ele>
        <time>2021-04-22T09:09:23.000Z</time>
      </trkpt>
      <trkpt lat="47.16719" lon="-1.62419">
        <ele>74</ele>
        <time>2021-04-22T09:09:25.000Z</time>
      </trkpt>
      <trkpt lat="47.16724" lon="-1.62401">
        <ele>74</ele>
        <time>2021-04-22T09:09:27.000Z</time>
      </trkpt>
      <trkpt lat="47.16729" lon="-1.62383">
        <ele>74</ele>
        <time>2021-04-22T09:09:29.000Z</time>
      </trkpt>
      <trkpt lat="47.16737" lon="-1.62367">
        <ele>74</ele>
        <time>2021-04-22T09:09:31.000Z</time>
      </trkpt>
      <trkpt lat="47.16746" lon="-1.62355">
        <ele>74</ele>
        <time>2021-04-22T09:09:33.000Z</time>
      </trkpt>
      <trkpt lat="47.16758" lon="-1.62346">
        <ele>74</ele>
        <time>2021-04-22T09:09:35.000Z</time>
      </trkpt>
      <trkpt lat="47.1677" lon="-1.62338">
        <ele>74</ele>
        <time>2021-04-22T09:09:37.000Z</time>
      </trkpt>
      <trkpt lat="47.16782" lon="-1.62332">
        <ele>74</ele>
        <time>2021-04-22T09:09:39.000Z</time>
      </trkpt>
      <trkpt lat="47.16794" lon="-1.62325">
        <ele>74</ele>
        <time>2021-04-22T09:09:41.000Z</time>
      </trkpt>
      <trkpt lat="47.16806" lon="-1.62319">
        <ele>74</ele>
        <time>2021-04-22T09:09:43.000Z</time>
      </trkpt>
      <trkpt lat="47.16818" lon="-1.6231">
        <ele>74</ele>
        <time>2021-04-22T09:09:45.000Z</time>
      </trkpt>
      <trkpt lat="47.16829" lon="-1.62301">
        <ele>74</ele>
        <time>2021-04-22T09:09:47.000Z</time>
      </trkpt>
      <trkpt lat="47.16839" lon="-1.62289">
        <ele>74</ele>
        <time>2021-04-22T09:09:49.000Z</time>
      </trkpt>
      <trkpt lat="47.16848" lon="-1.62277">
        <ele>74</ele>
        <time>2021-04-22T09:09:51.000Z</time>
      </trkpt>
      <trkpt lat="47.16857" lon="-1.62264">
        <ele>73</ele>
        <time>2021-04-22T09:09:53.000Z</time>
      </trkpt>
      <trkpt lat="47.16867" lon="-1.62252">
        <ele>74</ele>
        <time>2021-04-22T09:09:55.000Z</time>
      </trkpt>
      <trkpt lat="47.16877" lon="-1.6224">
        <ele>74</ele>
        <time>2021-04-22T09:09:57.000Z</time>
      </trkpt>
      <trkpt lat="47.16887" lon="-1.62228">
        <ele>73</ele>
        <time>2021-04-22T09:09:59.000Z</time>
      </trkpt>
      <trkpt lat="47.16897" lon="-1.62215">
        <ele>73</ele>
        <time>2021-04-22T09:10:01.000Z</time>
      </trkpt>
      <trkpt lat="47.16906" lon="-1.62201">
        <ele>73</ele>
        <time>2021-04-22T09:10:03.000Z</time>
      </trkpt>
      <trkpt lat="47.16914" lon="-1.62186">
        <ele>73</ele>
        <time>2021-04-22T09:10:05.000Z</time>
      </trkpt>
      <trkpt lat="47.16923" lon="-1.62171">
        <ele>73</ele>
        <time>2021-04-22T09:10:07.000Z</time>
      </trkpt>
      <trkpt lat="47.1693" lon="-1.62156">
        <ele>73</ele>
        <time>2021-04-22T09:10:09.000Z</time>
      </trkpt>
      <trkpt lat="47.16938" lon="-1.62141">
        <ele>72</ele>
        <time>2021-04-22T09:10:11.000Z</time>
      </trkpt>
      <trkpt lat="47.16946" lon="-1.62126">
        <ele>72</ele>
        <time>2021-04-22T09:10:13.000Z</time>
      </trkpt>
      <trkpt lat="47.16954" lon="-1.62111">
        <ele>72</ele>
        <time>2021-04-22T09:10:15.000Z</time>
      </trkpt>
      <trkpt lat="47.16962" lon="-1.62096">
        <ele>72</ele>
        <time>2021-04-22T09:10:17.000Z</time>
      </trkpt>
      <trkpt lat="47.1697" lon="-1.62081">
        <ele>72</ele>
        <time>2021-04-22T09:10:19.000Z</time>
      </trkpt>
      <trkpt lat="47.16978" lon="-1.62066">
        <ele>72</ele>
        <time>2021-04-22T09:10:21.000Z</time>
      </trkpt>
      <trkpt lat="47.16986" lon="-1.62052">
        <ele>72</ele>
        <time>2021-04-22T09:10:23.000Z</time>
      </trkpt>
      <trkpt lat="47.16995" lon="-1.62038">
        <ele>72</ele>
        <time>2021-04-22T09:10:25.000Z</time>
      </trkpt>
      <trkpt lat="47.17003" lon="-1.62024">
        <ele>72</ele>
        <time>2021-04-22T09:10:27.000Z</time>
      </trkpt>
      <trkpt lat="47.17012" lon="-1.62012">
        <ele>72</ele>
        <time>2021-04-22T09:10:29.000Z</time>
      </trkpt>
      <trkpt lat="47.17021" lon="-1.61998">
        <ele>72</ele>
        <time>2021-04-22T09:10:31.000Z</time>
      </trkpt>
      <trkpt lat="47.1703" lon="-1.61985">
        <ele>72</ele>
        <time>2021-04-22T09:10:33.000Z</time>
      </trkpt>
      <trkpt lat="47.17038" lon="-1.61973">
        <ele>72</ele>
        <time>2021-04-22T09:10:35.000Z</time>
      </trkpt>
      <trkpt lat="47.17047" lon="-1.6196">
        <ele>72</ele>
        <time>2021-04-22T09:10:37.000Z</time>
      </trkpt>
      <trkpt lat="47.17055" lon="-1.61948">
        <ele>72</ele>
        <time>2021-04-22T09:10:39.000Z</time>
      </trkpt>
      <trkpt lat="47.17064" lon="-1.61938">
        <ele>72</ele>
        <time>2021-04-22T09:10:41.000Z</time>
      </trkpt>
      <trkpt lat="47.17073" lon="-1.61927">
        <ele>71</ele>
        <time>2021-04-22T09:10:43.000Z</time>
      </trkpt>
      <trkpt lat="47.17083" lon="-1.61917">
        <ele>72</ele>
        <time>2021-04-22T09:10:45.000Z</time>
      </trkpt>
      <trkpt lat="47.17094" lon="-1.61906">
        <ele>71</ele>
        <time>2021-04-22T09:10:47.000Z</time>
      </trkpt>
      <trkpt lat="47.17104" lon="-1.61896">
        <ele>71</ele>
        <time>2021-04-22T09:10:49.000Z</time>
      </trkpt>
      <trkpt lat="47.17115" lon="-1.61887">
        <ele>71</ele>
        <time>2021-04-22T09:10:51.000Z</time>
      </trkpt>
      <trkpt lat="47.17125" lon="-1.61877">
        <ele>71</ele>
        <time>2021-04-22T09:10:53.000Z</time>
      </trkpt>
      <trkpt lat="47.17135" lon="-1.61867">
        <ele>71</ele>
        <time>2021-04-22T09:10:55.000Z</time>
      </trkpt>
      <trkpt lat="47.17145" lon="-1.61857">
        <ele>71</ele>
        <time>2021-04-22T09:10:57.000Z</time>
      </trkpt>
      <trkpt lat="47.17155" lon="-1.61848">
        <ele>71</ele>
        <time>2021-04-22T09:10:59.000Z</time>
      </trkpt>
      <trkpt lat="47.17166" lon="-1.61838">
        <ele>71</ele>
        <time>2021-04-22T09:11:01.000Z</time>
      </trkpt>
      <trkpt lat="47.17176" lon="-1.61829">
        <ele>70</ele>
        <time>2021-04-22T09:11:03.000Z</time>
      </trkpt>
      <trkpt lat="47.17185" lon="-1.61819">
        <ele>70</ele>
        <time>2021-04-22T09:11:05.000Z</time>
      </trkpt>
      <trkpt lat="47.17196" lon="-1.61809">
        <ele>70</ele>
        <time>2021-04-22T09:11:07.000Z</time>
      </trkpt>
      <trkpt lat="47.17206" lon="-1.61799">
        <ele>69</ele>
        <time>2021-04-22T09:11:09.000Z</time>
      </trkpt>
      <trkpt lat="47.17215" lon="-1.61787">
        <ele>69</ele>
        <time>2021-04-22T09:11:11.000Z</time>
      </trkpt>
      <trkpt lat="47.17221" lon="-1.61771">
        <ele>69</ele>
        <time>2021-04-22T09:11:13.000Z</time>
      </trkpt>
      <trkpt lat="47.17227" lon="-1.61755">
        <ele>69</ele>
        <time>2021-04-22T09:11:15.000Z</time>
      </trkpt>
      <trkpt lat="47.17235" lon="-1.61743">
        <ele>69</ele>
        <time>2021-04-22T09:11:17.000Z</time>
      </trkpt>
      <trkpt lat="47.17245" lon="-1.61732">
        <ele>69</ele>
        <time>2021-04-22T09:11:19.000Z</time>
      </trkpt>
      <trkpt lat="47.17253" lon="-1.61717">
        <ele>70</ele>
        <time>2021-04-22T09:11:21.000Z</time>
      </trkpt>
      <trkpt lat="47.17259" lon="-1.61703">
        <ele>70</ele>
        <time>2021-04-22T09:11:23.000Z</time>
      </trkpt>
      <trkpt lat="47.17266" lon="-1.61687">
        <ele>70</ele>
        <time>2021-04-22T09:11:25.000Z</time>
      </trkpt>
      <trkpt lat="47.17273" lon="-1.61673">
        <ele>70</ele>
        <time>2021-04-22T09:11:27.000Z</time>
      </trkpt>
      <trkpt lat="47.1728" lon="-1.61659">
        <ele>70</ele>
        <time>2021-04-22T09:11:29.000Z</time>
      </trkpt>
      <trkpt lat="47.17287" lon="-1.61645">
        <ele>71</ele>
        <time>2021-04-22T09:11:31.000Z</time>
      </trkpt>
      <trkpt lat="47.17296" lon="-1.61631">
        <ele>71</ele>
        <time>2021-04-22T09:11:33.000Z</time>
      </trkpt>
      <trkpt lat="47.17304" lon="-1.61618">
        <ele>72</ele>
        <time>2021-04-22T09:11:35.000Z</time>
      </trkpt>
      <trkpt lat="47.17312" lon="-1.61606">
        <ele>72</ele>
        <time>2021-04-22T09:11:37.000Z</time>
      </trkpt>
      <trkpt lat="47.17321" lon="-1.61591">
        <ele>72</ele>
        <time>2021-04-22T09:11:39.000Z</time>
      </trkpt>
      <trkpt lat="47.1733" lon="-1.61579">
        <ele>73</ele>
        <time>2021-04-22T09:11:41.000Z</time>
      </trkpt>
      <trkpt lat="47.17339" lon="-1.61568">
        <ele>73</ele>
        <time>2021-04-22T09:11:43.000Z</time>
      </trkpt>
      <trkpt lat="47.17349" lon="-1.61557">
        <ele>73</ele>
        <time>2021-04-22T09:11:45.000Z</time>
      </trkpt>
      <trkpt lat="47.17358" lon="-1.61546">
        <ele>73</ele>
        <time>2021-04-22T09:11:47.000Z</time>
      </trkpt>
      <trkpt lat="47.17369" lon="-1.61536">
        <ele>73</ele>
        <time>2021-04-22T09:11:49.000Z</time>
      </trkpt>
      <trkpt lat="47.1738" lon="-1.61527">
        <ele>72</ele>
        <time>2021-04-22T09:11:51.000Z</time>
      </trkpt>
      <trkpt lat="47.17391" lon="-1.61516">
        <ele>71</ele>
        <time>2021-04-22T09:11:53.000Z</time>
      </trkpt>
      <trkpt lat="47.17402" lon="-1.61507">
        <ele>70</ele>
        <time>2021-04-22T09:11:55.000Z</time>
      </trkpt>
      <trkpt lat="47.17414" lon="-1.61499">
        <ele>70</ele>
        <time>2021-04-22T09:11:57.000Z</time>
      </trkpt>
      <trkpt lat="47.17426" lon="-1.61491">
        <ele>69</ele>
        <time>2021-04-22T09:11:59.000Z</time>
      </trkpt>
      <trkpt lat="47.17439" lon="-1.61483">
        <ele>68</ele>
        <time>2021-04-22T09:12:01.000Z</time>
      </trkpt>
      <trkpt lat="47.17452" lon="-1.61477">
        <ele>67</ele>
        <time>2021-04-22T09:12:03.000Z</time>
      </trkpt>
      <trkpt lat="47.17465" lon="-1.61471">
        <ele>66</ele>
        <time>2021-04-22T09:12:05.000Z</time>
      </trkpt>
      <trkpt lat="47.17479" lon="-1.61466">
        <ele>66</ele>
        <time>2021-04-22T09:12:07.000Z</time>
      </trkpt>
      <trkpt lat="47.17492" lon="-1.61461">
        <ele>65</ele>
        <time>2021-04-22T09:12:09.000Z</time>
      </trkpt>
      <trkpt lat="47.17503" lon="-1.61456">
        <ele>64</ele>
        <time>2021-04-22T09:12:11.000Z</time>
      </trkpt>
      <trkpt lat="47.1751" lon="-1.61446">
        <ele>64</ele>
        <time>2021-04-22T09:12:13.000Z</time>
      </trkpt>
      <trkpt lat="47.17513" lon="-1.61429">
        <ele>63</ele>
        <time>2021-04-22T09:12:15.000Z</time>
      </trkpt>
      <trkpt lat="47.17515" lon="-1.6141">
        <ele>62</ele>
        <time>2021-04-22T09:12:17.000Z</time>
      </trkpt>
      <trkpt lat="47.17519" lon="-1.6139">
        <ele>62</ele>
        <time>2021-04-22T09:12:19.000Z</time>
      </trkpt>
      <trkpt lat="47.17523" lon="-1.61374">
        <ele>62</ele>
        <time>2021-04-22T09:12:21.000Z</time>
      </trkpt>
      <trkpt lat="47.17525" lon="-1.6136">
        <ele>62</ele>
        <time>2021-04-22T09:12:23.000Z</time>
      </trkpt>
      <trkpt lat="47.17522" lon="-1.61343">
        <ele>62</ele>
        <time>2021-04-22T09:12:25.000Z</time>
      </trkpt>
      <trkpt lat="47.17518" lon="-1.61326">
        <ele>62</ele>
        <time>2021-04-22T09:12:27.000Z</time>
      </trkpt>
      <trkpt lat="47.17518" lon="-1.61303">
        <ele>61</ele>
        <time>2021-04-22T09:12:29.000Z</time>
      </trkpt>
      <trkpt lat="47.17511" lon="-1.61284">
        <ele>61</ele>
        <time>2021-04-22T09:12:31.000Z</time>
      </trkpt>
      <trkpt lat="47.17502" lon="-1.61267">
        <ele>61</ele>
        <time>2021-04-22T09:12:33.000Z</time>
      </trkpt>
      <trkpt lat="47.17495" lon="-1.6125">
        <ele>60</ele>
        <time>2021-04-22T09:12:35.000Z</time>
      </trkpt>
      <trkpt lat="47.17487" lon="-1.61232">
        <ele>60</ele>
        <time>2021-04-22T09:12:37.000Z</time>
      </trkpt>
      <trkpt lat="47.1748" lon="-1.61215">
        <ele>60</ele>
        <time>2021-04-22T09:12:39.000Z</time>
      </trkpt>
      <trkpt lat="47.17473" lon="-1.61197">
        <ele>60</ele>
        <time>2021-04-22T09:12:41.000Z</time>
      </trkpt>
      <trkpt lat="47.17466" lon="-1.6118">
        <ele>60</ele>
        <time>2021-04-22T09:12:43.000Z</time>
      </trkpt>
      <trkpt lat="47.1746" lon="-1.61162">
        <ele>59</ele>
        <time>2021-04-22T09:12:45.000Z</time>
      </trkpt>
      <trkpt lat="47.17452" lon="-1.61144">
        <ele>59</ele>
        <time>2021-04-22T09:12:47.000Z</time>
      </trkpt>
      <trkpt lat="47.17445" lon="-1.61126">
        <ele>59</ele>
        <time>2021-04-22T09:12:49.000Z</time>
      </trkpt>
      <trkpt lat="47.17437" lon="-1.61108">
        <ele>59</ele>
        <time>2021-04-22T09:12:51.000Z</time>
      </trkpt>
      <trkpt lat="47.17429" lon="-1.61089">
        <ele>59</ele>
        <time>2021-04-22T09:12:53.000Z</time>
      </trkpt>
      <trkpt lat="47.17421" lon="-1.61069">
        <ele>58</ele>
        <time>2021-04-22T09:12:55.000Z</time>
      </trkpt>
      <trkpt lat="47.17413" lon="-1.6105">
        <ele>57</ele>
        <time>2021-04-22T09:12:57.000Z</time>
      </trkpt>
      <trkpt lat="47.17403" lon="-1.61037">
        <ele>57</ele>
        <time>2021-04-22T09:12:59.000Z</time>
      </trkpt>
      <trkpt lat="47.1739" lon="-1.61024">
        <ele>58</ele>
        <time>2021-04-22T09:13:01.000Z</time>
      </trkpt>
      <trkpt lat="47.17385" lon="-1.61003">
        <ele>57</ele>
        <time>2021-04-22T09:13:03.000Z</time>
      </trkpt>
      <trkpt lat="47.17388" lon="-1.60982">
        <ele>56</ele>
        <time>2021-04-22T09:13:05.000Z</time>
      </trkpt>
      <trkpt lat="47.17391" lon="-1.60963">
        <ele>55</ele>
        <time>2021-04-22T09:13:07.000Z</time>
      </trkpt>
      <trkpt lat="47.17391" lon="-1.60942">
        <ele>55</ele>
        <time>2021-04-22T09:13:09.000Z</time>
      </trkpt>
      <trkpt lat="47.17389" lon="-1.60922">
        <ele>56</ele>
        <time>2021-04-22T09:13:11.000Z</time>
      </trkpt>
      <trkpt lat="47.17388" lon="-1.60903">
        <ele>57</ele>
        <time>2021-04-22T09:13:13.000Z</time>
      </trkpt>
      <trkpt lat="47.17388" lon="-1.60885">
        <ele>57</ele>
        <time>2021-04-22T09:13:15.000Z</time>
      </trkpt>
      <trkpt lat="47.17389" lon="-1.60866">
        <ele>57</ele>
        <time>2021-04-22T09:13:17.000Z</time>
      </trkpt>
      <trkpt lat="47.17391" lon="-1.60847">
        <ele>58</ele>
        <time>2021-04-22T09:13:19.000Z</time>
      </trkpt>
      <trkpt lat="47.17394" lon="-1.60828">
        <ele>58</ele>
        <time>2021-04-22T09:13:21.000Z</time>
      </trkpt>
      <trkpt lat="47.17397" lon="-1.60812">
        <ele>59</ele>
        <time>2021-04-22T09:13:23.000Z</time>
      </trkpt>
      <trkpt lat="47.17402" lon="-1.60796">
        <ele>60</ele>
        <time>2021-04-22T09:13:25.000Z</time>
      </trkpt>
      <trkpt lat="47.17406" lon="-1.6078">
        <ele>61</ele>
        <time>2021-04-22T09:13:27.000Z</time>
      </trkpt>
      <trkpt lat="47.17411" lon="-1.60765">
        <ele>61</ele>
        <time>2021-04-22T09:13:29.000Z</time>
      </trkpt>
      <trkpt lat="47.17417" lon="-1.60751">
        <ele>62</ele>
        <time>2021-04-22T09:13:31.000Z</time>
      </trkpt>
      <trkpt lat="47.17424" lon="-1.60738">
        <ele>62</ele>
        <time>2021-04-22T09:13:33.000Z</time>
      </trkpt>
      <trkpt lat="47.17431" lon="-1.60726">
        <ele>63</ele>
        <time>2021-04-22T09:13:35.000Z</time>
      </trkpt>
      <trkpt lat="47.17439" lon="-1.60714">
        <ele>63</ele>
        <time>2021-04-22T09:13:37.000Z</time>
      </trkpt>
      <trkpt lat="47.17446" lon="-1.60701">
        <ele>63</ele>
        <time>2021-04-22T09:13:39.000Z</time>
      </trkpt>
      <trkpt lat="47.17453" lon="-1.60689">
        <ele>64</ele>
        <time>2021-04-22T09:13:41.000Z</time>
      </trkpt>
      <trkpt lat="47.17461" lon="-1.60676">
        <ele>64</ele>
        <time>2021-04-22T09:13:43.000Z</time>
      </trkpt>
      <trkpt lat="47.17467" lon="-1.60664">
        <ele>65</ele>
        <time>2021-04-22T09:13:45.000Z</time>
      </trkpt>
      <trkpt lat="47.17475" lon="-1.60651">
        <ele>65</ele>
        <time>2021-04-22T09:13:47.000Z</time>
      </trkpt>
      <trkpt lat="47.17481" lon="-1.60638">
        <ele>65</ele>
        <time>2021-04-22T09:13:49.000Z</time>
      </trkpt>
      <trkpt lat="47.17489" lon="-1.60625">
        <ele>65</ele>
        <time>2021-04-22T09:13:51.000Z</time>
      </trkpt>
      <trkpt lat="47.17495" lon="-1.60613">
        <ele>65</ele>
        <time>2021-04-22T09:13:53.000Z</time>
      </trkpt>
      <trkpt lat="47.17503" lon="-1.60601">
        <ele>65</ele>
        <time>2021-04-22T09:13:55.000Z</time>
      </trkpt>
      <trkpt lat="47.1751" lon="-1.60589">
        <ele>65</ele>
        <time>2021-04-22T09:13:57.000Z</time>
      </trkpt>
      <trkpt lat="47.17518" lon="-1.60577">
        <ele>65</ele>
        <time>2021-04-22T09:13:59.000Z</time>
      </trkpt>
      <trkpt lat="47.17526" lon="-1.60565">
        <ele>65</ele>
        <time>2021-04-22T09:14:01.000Z</time>
      </trkpt>
      <trkpt lat="47.17533" lon="-1.60553">
        <ele>65</ele>
        <time>2021-04-22T09:14:03.000Z</time>
      </trkpt>
      <trkpt lat="47.17541" lon="-1.6054">
        <ele>65</ele>
        <time>2021-04-22T09:14:05.000Z</time>
      </trkpt>
      <trkpt lat="47.17549" lon="-1.60529">
        <ele>65</ele>
        <time>2021-04-22T09:14:07.000Z</time>
      </trkpt>
      <trkpt lat="47.17556" lon="-1.60517">
        <ele>64</ele>
        <time>2021-04-22T09:14:09.000Z</time>
      </trkpt>
      <trkpt lat="47.17565" lon="-1.60504">
        <ele>65</ele>
        <time>2021-04-22T09:14:11.000Z</time>
      </trkpt>
      <trkpt lat="47.17572" lon="-1.60492">
        <ele>65</ele>
        <time>2021-04-22T09:14:13.000Z</time>
      </trkpt>
      <trkpt lat="47.1758" lon="-1.60479">
        <ele>65</ele>
        <time>2021-04-22T09:14:15.000Z</time>
      </trkpt>
      <trkpt lat="47.17587" lon="-1.60467">
        <ele>65</ele>
        <time>2021-04-22T09:14:17.000Z</time>
      </trkpt>
      <trkpt lat="47.17595" lon="-1.60455">
        <ele>65</ele>
        <time>2021-04-22T09:14:19.000Z</time>
      </trkpt>
      <trkpt lat="47.17602" lon="-1.60443">
        <ele>65</ele>
        <time>2021-04-22T09:14:21.000Z</time>
      </trkpt>
      <trkpt lat="47.17609" lon="-1.6043">
        <ele>65</ele>
        <time>2021-04-22T09:14:23.000Z</time>
      </trkpt>
      <trkpt lat="47.17609" lon="-1.60415">
        <ele>66</ele>
        <time>2021-04-22T09:14:25.000Z</time>
      </trkpt>
      <trkpt lat="47.17601" lon="-1.60406">
        <ele>66</ele>
        <time>2021-04-22T09:14:27.000Z</time>
      </trkpt>
      <trkpt lat="47.17591" lon="-1.60399">
        <ele>66</ele>
        <time>2021-04-22T09:14:29.000Z</time>
      </trkpt>
      <trkpt lat="47.17581" lon="-1.60392">
        <ele>67</ele>
        <time>2021-04-22T09:14:31.000Z</time>
      </trkpt>
      <trkpt lat="47.17572" lon="-1.60384">
        <ele>67</ele>
        <time>2021-04-22T09:14:33.000Z</time>
      </trkpt>
      <trkpt lat="47.17561" lon="-1.60378">
        <ele>67</ele>
        <time>2021-04-22T09:14:35.000Z</time>
      </trkpt>
      <trkpt lat="47.1755" lon="-1.6037">
        <ele>67</ele>
        <time>2021-04-22T09:14:37.000Z</time>
      </trkpt>
      <trkpt lat="47.1754" lon="-1.60362">
        <ele>67</ele>
        <time>2021-04-22T09:14:39.000Z</time>
      </trkpt>
      <trkpt lat="47.1753" lon="-1.60353">
        <ele>68</ele>
        <time>2021-04-22T09:14:41.000Z</time>
      </trkpt>
      <trkpt lat="47.17519" lon="-1.60346">
        <ele>69</ele>
        <time>2021-04-22T09:14:43.000Z</time>
      </trkpt>
      <trkpt lat="47.17509" lon="-1.60338">
        <ele>69</ele>
        <time>2021-04-22T09:14:45.000Z</time>
      </trkpt>
      <trkpt lat="47.17499" lon="-1.6033">
        <ele>69</ele>
        <time>2021-04-22T09:14:47.000Z</time>
      </trkpt>
      <trkpt lat="47.17489" lon="-1.60322">
        <ele>69</ele>
        <time>2021-04-22T09:14:49.000Z</time>
      </trkpt>
      <trkpt lat="47.17478" lon="-1.60314">
        <ele>69</ele>
        <time>2021-04-22T09:14:51.000Z</time>
      </trkpt>
      <trkpt lat="47.17468" lon="-1.60307">
        <ele>70</ele>
        <time>2021-04-22T09:14:53.000Z</time>
      </trkpt>
      <trkpt lat="47.17457" lon="-1.603">
        <ele>70</ele>
        <time>2021-04-22T09:14:55.000Z</time>
      </trkpt>
      <trkpt lat="47.17446" lon="-1.60293">
        <ele>71</ele>
        <time>2021-04-22T09:14:57.000Z</time>
      </trkpt>
      <trkpt lat="47.17435" lon="-1.60287">
        <ele>70</ele>
        <time>2021-04-22T09:14:59.000Z</time>
      </trkpt>
      <trkpt lat="47.17423" lon="-1.60282">
        <ele>71</ele>
        <time>2021-04-22T09:15:01.000Z</time>
      </trkpt>
      <trkpt lat="47.17412" lon="-1.60279">
        <ele>71</ele>
        <time>2021-04-22T09:15:03.000Z</time>
      </trkpt>
      <trkpt lat="47.174" lon="-1.60276">
        <ele>71</ele>
        <time>2021-04-22T09:15:05.000Z</time>
      </trkpt>
      <trkpt lat="47.17389" lon="-1.60274">
        <ele>71</ele>
        <time>2021-04-22T09:15:07.000Z</time>
      </trkpt>
      <trkpt lat="47.17377" lon="-1.60271">
        <ele>71</ele>
        <time>2021-04-22T09:15:09.000Z</time>
      </trkpt>
      <trkpt lat="47.17366" lon="-1.60269">
        <ele>72</ele>
        <time>2021-04-22T09:15:11.000Z</time>
      </trkpt>
      <trkpt lat="47.17354" lon="-1.60267">
        <ele>72</ele>
        <time>2021-04-22T09:15:13.000Z</time>
      </trkpt>
      <trkpt lat="47.17342" lon="-1.60265">
        <ele>73</ele>
        <time>2021-04-22T09:15:15.000Z</time>
      </trkpt>
      <trkpt lat="47.1733" lon="-1.60263">
        <ele>73</ele>
        <time>2021-04-22T09:15:17.000Z</time>
      </trkpt>
      <trkpt lat="47.17318" lon="-1.6026">
        <ele>73</ele>
        <time>2021-04-22T09:15:19.000Z</time>
      </trkpt>
      <trkpt lat="47.17306" lon="-1.60258">
        <ele>73</ele>
        <time>2021-04-22T09:15:21.000Z</time>
      </trkpt>
      <trkpt lat="47.17295" lon="-1.60256">
        <ele>73</ele>
        <time>2021-04-22T09:15:23.000Z</time>
      </trkpt>
      <trkpt lat="47.17283" lon="-1.60255">
        <ele>74</ele>
        <time>2021-04-22T09:15:25.000Z</time>
      </trkpt>
      <trkpt lat="47.17272" lon="-1.60254">
        <ele>73</ele>
        <time>2021-04-22T09:15:27.000Z</time>
      </trkpt>
      <trkpt lat="47.17261" lon="-1.60252">
        <ele>73</ele>
        <time>2021-04-22T09:15:29.000Z</time>
      </trkpt>
      <trkpt lat="47.17249" lon="-1.60252">
        <ele>73</ele>
        <time>2021-04-22T09:15:31.000Z</time>
      </trkpt>
      <trkpt lat="47.17237" lon="-1.60253">
        <ele>73</ele>
        <time>2021-04-22T09:15:33.000Z</time>
      </trkpt>
      <trkpt lat="47.17224" lon="-1.60256">
        <ele>73</ele>
        <time>2021-04-22T09:15:35.000Z</time>
      </trkpt>
      <trkpt lat="47.17211" lon="-1.60258">
        <ele>74</ele>
        <time>2021-04-22T09:15:37.000Z</time>
      </trkpt>
      <trkpt lat="47.17199" lon="-1.60261">
        <ele>74</ele>
        <time>2021-04-22T09:15:39.000Z</time>
      </trkpt>
      <trkpt lat="47.17187" lon="-1.60264">
        <ele>74</ele>
        <time>2021-04-22T09:15:41.000Z</time>
      </trkpt>
      <trkpt lat="47.17174" lon="-1.60269">
        <ele>74</ele>
        <time>2021-04-22T09:15:43.000Z</time>
      </trkpt>
      <trkpt lat="47.17162" lon="-1.60273">
        <ele>75</ele>
        <time>2021-04-22T09:15:45.000Z</time>
      </trkpt>
      <trkpt lat="47.1715" lon="-1.60278">
        <ele>75</ele>
        <time>2021-04-22T09:15:47.000Z</time>
      </trkpt>
      <trkpt lat="47.17138" lon="-1.60283">
        <ele>75</ele>
        <time>2021-04-22T09:15:49.000Z</time>
      </trkpt>
      <trkpt lat="47.17126" lon="-1.60286">
        <ele>75</ele>
        <time>2021-04-22T09:15:51.000Z</time>
      </trkpt>
      <trkpt lat="47.17113" lon="-1.60291">
        <ele>75</ele>
        <time>2021-04-22T09:15:53.000Z</time>
      </trkpt>
      <trkpt lat="47.171" lon="-1.60295">
        <ele>76</ele>
        <time>2021-04-22T09:15:55.000Z</time>
      </trkpt>
      <trkpt lat="47.17087" lon="-1.60299">
        <ele>76</ele>
        <time>2021-04-22T09:15:57.000Z</time>
      </trkpt>
      <trkpt lat="47.17074" lon="-1.60304">
        <ele>75</ele>
        <time>2021-04-22T09:15:59.000Z</time>
      </trkpt>
      <trkpt lat="47.17061" lon="-1.60307">
        <ele>76</ele>
        <time>2021-04-22T09:16:01.000Z</time>
      </trkpt>
      <trkpt lat="47.17048" lon="-1.60311">
        <ele>75</ele>
        <time>2021-04-22T09:16:03.000Z</time>
      </trkpt>
      <trkpt lat="47.17035" lon="-1.60314">
        <ele>75</ele>
        <time>2021-04-22T09:16:05.000Z</time>
      </trkpt>
      <trkpt lat="47.17022" lon="-1.60318">
        <ele>76</ele>
        <time>2021-04-22T09:16:07.000Z</time>
      </trkpt>
      <trkpt lat="47.17009" lon="-1.60321">
        <ele>76</ele>
        <time>2021-04-22T09:16:09.000Z</time>
      </trkpt>
      <trkpt lat="47.16996" lon="-1.60321">
        <ele>75</ele>
        <time>2021-04-22T09:16:11.000Z</time>
      </trkpt>
      <trkpt lat="47.16982" lon="-1.60321">
        <ele>76</ele>
        <time>2021-04-22T09:16:13.000Z</time>
      </trkpt>
      <trkpt lat="47.16969" lon="-1.60319">
        <ele>75</ele>
        <time>2021-04-22T09:16:15.000Z</time>
      </trkpt>
      <trkpt lat="47.16955" lon="-1.60316">
        <ele>76</ele>
        <time>2021-04-22T09:16:17.000Z</time>
      </trkpt>
      <trkpt lat="47.16942" lon="-1.60313">
        <ele>75</ele>
        <time>2021-04-22T09:16:19.000Z</time>
      </trkpt>
      <trkpt lat="47.16929" lon="-1.60309">
        <ele>75</ele>
        <time>2021-04-22T09:16:21.000Z</time>
      </trkpt>
      <trkpt lat="47.16916" lon="-1.60306">
        <ele>75</ele>
        <time>2021-04-22T09:16:23.000Z</time>
      </trkpt>
      <trkpt lat="47.16903" lon="-1.60303">
        <ele>74</ele>
        <time>2021-04-22T09:16:25.000Z</time>
      </trkpt>
      <trkpt lat="47.1689" lon="-1.60301">
        <ele>74</ele>
        <time>2021-04-22T09:16:27.000Z</time>
      </trkpt>
      <trkpt lat="47.16876" lon="-1.60298">
        <ele>75</ele>
        <time>2021-04-22T09:16:29.000Z</time>
      </trkpt>
      <trkpt lat="47.16862" lon="-1.60294">
        <ele>75</ele>
        <time>2021-04-22T09:16:31.000Z</time>
      </trkpt>
      <trkpt lat="47.16848" lon="-1.60291">
        <ele>75</ele>
        <time>2021-04-22T09:16:33.000Z</time>
      </trkpt>
      <trkpt lat="47.16834" lon="-1.60288">
        <ele>76</ele>
        <time>2021-04-22T09:16:35.000Z</time>
      </trkpt>
      <trkpt lat="47.16821" lon="-1.60285">
        <ele>77</ele>
        <time>2021-04-22T09:16:37.000Z</time>
      </trkpt>
      <trkpt lat="47.16808" lon="-1.60277">
        <ele>77</ele>
        <time>2021-04-22T09:16:39.000Z</time>
      </trkpt>
      <trkpt lat="47.16798" lon="-1.60263">
        <ele>77</ele>
        <time>2021-04-22T09:16:41.000Z</time>
      </trkpt>
      <trkpt lat="47.16789" lon="-1.60249">
        <ele>76</ele>
        <time>2021-04-22T09:16:43.000Z</time>
      </trkpt>
      <trkpt lat="47.1678" lon="-1.60233">
        <ele>76</ele>
        <time>2021-04-22T09:16:45.000Z</time>
      </trkpt>
      <trkpt lat="47.16772" lon="-1.60218">
        <ele>75</ele>
        <time>2021-04-22T09:16:47.000Z</time>
      </trkpt>
      <trkpt lat="47.16764" lon="-1.60203">
        <ele>75</ele>
        <time>2021-04-22T09:16:49.000Z</time>
      </trkpt>
      <trkpt lat="47.16755" lon="-1.60188">
        <ele>74</ele>
        <time>2021-04-22T09:16:51.000Z</time>
      </trkpt>
      <trkpt lat="47.16746" lon="-1.60175">
        <ele>74</ele>
        <time>2021-04-22T09:16:53.000Z</time>
      </trkpt>
      <trkpt lat="47.16738" lon="-1.60159">
        <ele>73</ele>
        <time>2021-04-22T09:16:55.000Z</time>
      </trkpt>
      <trkpt lat="47.1673" lon="-1.60145">
        <ele>72</ele>
        <time>2021-04-22T09:16:57.000Z</time>
      </trkpt>
      <trkpt lat="47.16721" lon="-1.60132">
        <ele>73</ele>
        <time>2021-04-22T09:16:59.000Z</time>
      </trkpt>
      <trkpt lat="47.16712" lon="-1.60117">
        <ele>73</ele>
        <time>2021-04-22T09:17:01.000Z</time>
      </trkpt>
      <trkpt lat="47.16705" lon="-1.60103">
        <ele>73</ele>
        <time>2021-04-22T09:17:03.000Z</time>
      </trkpt>
      <trkpt lat="47.16696" lon="-1.6009">
        <ele>73</ele>
        <time>2021-04-22T09:17:05.000Z</time>
      </trkpt>
      <trkpt lat="47.16688" lon="-1.60076">
        <ele>73</ele>
        <time>2021-04-22T09:17:07.000Z</time>
      </trkpt>
      <trkpt lat="47.16681" lon="-1.60063">
        <ele>73</ele>
        <time>2021-04-22T09:17:09.000Z</time>
      </trkpt>
      <trkpt lat="47.16673" lon="-1.60051">
        <ele>73</ele>
        <time>2021-04-22T09:17:11.000Z</time>
      </trkpt>
      <trkpt lat="47.16665" lon="-1.60038">
        <ele>73</ele>
        <time>2021-04-22T09:17:13.000Z</time>
      </trkpt>
      <trkpt lat="47.16657" lon="-1.60025">
        <ele>73</ele>
        <time>2021-04-22T09:17:15.000Z</time>
      </trkpt>
      <trkpt lat="47.16649" lon="-1.60011">
        <ele>73</ele>
        <time>2021-04-22T09:17:17.000Z</time>
      </trkpt>
      <trkpt lat="47.1664" lon="-1.59997">
        <ele>73</ele>
        <time>2021-04-22T09:17:19.000Z</time>
      </trkpt>
      <trkpt lat="47.16632" lon="-1.59983">
        <ele>73</ele>
        <time>2021-04-22T09:17:21.000Z</time>
      </trkpt>
      <trkpt lat="47.16624" lon="-1.5997">
        <ele>74</ele>
        <time>2021-04-22T09:17:23.000Z</time>
      </trkpt>
      <trkpt lat="47.16615" lon="-1.59956">
        <ele>74</ele>
        <time>2021-04-22T09:17:25.000Z</time>
      </trkpt>
      <trkpt lat="47.16607" lon="-1.59943">
        <ele>74</ele>
        <time>2021-04-22T09:17:27.000Z</time>
      </trkpt>
      <trkpt lat="47.16597" lon="-1.5993">
        <ele>74</ele>
        <time>2021-04-22T09:17:29.000Z</time>
      </trkpt>
      <trkpt lat="47.16586" lon="-1.59917">
        <ele>73</ele>
        <time>2021-04-22T09:17:31.000Z</time>
      </trkpt>
      <trkpt lat="47.16575" lon="-1.59904">
        <ele>73</ele>
        <time>2021-04-22T09:17:33.000Z</time>
      </trkpt>
      <trkpt lat="47.16562" lon="-1.59891">
        <ele>72</ele>
        <time>2021-04-22T09:17:35.000Z</time>
      </trkpt>
      <trkpt lat="47.1655" lon="-1.59879">
        <ele>72</ele>
        <time>2021-04-22T09:17:37.000Z</time>
      </trkpt>
      <trkpt lat="47.16537" lon="-1.59868">
        <ele>72</ele>
        <time>2021-04-22T09:17:39.000Z</time>
      </trkpt>
      <trkpt lat="47.16525" lon="-1.59857">
        <ele>71</ele>
        <time>2021-04-22T09:17:41.000Z</time>
      </trkpt>
      <trkpt lat="47.16513" lon="-1.59847">
        <ele>72</ele>
        <time>2021-04-22T09:17:43.000Z</time>
      </trkpt>
      <trkpt lat="47.165" lon="-1.59837">
        <ele>71</ele>
        <time>2021-04-22T09:17:45.000Z</time>
      </trkpt>
      <trkpt lat="47.16488" lon="-1.59827">
        <ele>71</ele>
        <time>2021-04-22T09:17:47.000Z</time>
      </trkpt>
      <trkpt lat="47.16476" lon="-1.59817">
        <ele>71</ele>
        <time>2021-04-22T09:17:49.000Z</time>
      </trkpt>
      <trkpt lat="47.16464" lon="-1.59807">
        <ele>72</ele>
        <time>2021-04-22T09:17:51.000Z</time>
      </trkpt>
      <trkpt lat="47.16452" lon="-1.59797">
        <ele>72</ele>
        <time>2021-04-22T09:17:53.000Z</time>
      </trkpt>
      <trkpt lat="47.16441" lon="-1.59788">
        <ele>72</ele>
        <time>2021-04-22T09:17:55.000Z</time>
      </trkpt>
      <trkpt lat="47.1643" lon="-1.59779">
        <ele>73</ele>
        <time>2021-04-22T09:17:57.000Z</time>
      </trkpt>
      <trkpt lat="47.16419" lon="-1.5977">
        <ele>72</ele>
        <time>2021-04-22T09:17:59.000Z</time>
      </trkpt>
      <trkpt lat="47.16409" lon="-1.5976">
        <ele>71</ele>
        <time>2021-04-22T09:18:01.000Z</time>
      </trkpt>
      <trkpt lat="47.16398" lon="-1.59751">
        <ele>72</ele>
        <time>2021-04-22T09:18:03.000Z</time>
      </trkpt>
      <trkpt lat="47.16387" lon="-1.59742">
        <ele>72</ele>
        <time>2021-04-22T09:18:05.000Z</time>
      </trkpt>
      <trkpt lat="47.16376" lon="-1.59731">
        <ele>72</ele>
        <time>2021-04-22T09:18:07.000Z</time>
      </trkpt>
      <trkpt lat="47.16366" lon="-1.59718">
        <ele>72</ele>
        <time>2021-04-22T09:18:09.000Z</time>
      </trkpt>
      <trkpt lat="47.16356" lon="-1.59704">
        <ele>73</ele>
        <time>2021-04-22T09:18:11.000Z</time>
      </trkpt>
      <trkpt lat="47.16346" lon="-1.5969">
        <ele>73</ele>
        <time>2021-04-22T09:18:13.000Z</time>
      </trkpt>
      <trkpt lat="47.16337" lon="-1.59676">
        <ele>73</ele>
        <time>2021-04-22T09:18:15.000Z</time>
      </trkpt>
      <trkpt lat="47.16329" lon="-1.59662">
        <ele>73</ele>
        <time>2021-04-22T09:18:17.000Z</time>
      </trkpt>
      <trkpt lat="47.16321" lon="-1.59648">
        <ele>73</ele>
        <time>2021-04-22T09:18:19.000Z</time>
      </trkpt>
      <trkpt lat="47.16312" lon="-1.59636">
        <ele>74</ele>
        <time>2021-04-22T09:18:21.000Z</time>
      </trkpt>
      <trkpt lat="47.16304" lon="-1.59627">
        <ele>73</ele>
        <time>2021-04-22T09:18:23.000Z</time>
      </trkpt>
      <trkpt lat="47.16296" lon="-1.59623">
        <ele>74</ele>
        <time>2021-04-22T09:18:25.000Z</time>
      </trkpt>
      <trkpt lat="47.16286" lon="-1.5963">
        <ele>73</ele>
        <time>2021-04-22T09:18:27.000Z</time>
      </trkpt>
      <trkpt lat="47.16274" lon="-1.59637">
        <ele>73</ele>
        <time>2021-04-22T09:18:29.000Z</time>
      </trkpt>
      <trkpt lat="47.16261" lon="-1.59643">
        <ele>73</ele>
        <time>2021-04-22T09:18:31.000Z</time>
      </trkpt>
      <trkpt lat="47.16248" lon="-1.59649">
        <ele>72</ele>
        <time>2021-04-22T09:18:33.000Z</time>
      </trkpt>
      <trkpt lat="47.16234" lon="-1.59656">
        <ele>73</ele>
        <time>2021-04-22T09:18:35.000Z</time>
      </trkpt>
      <trkpt lat="47.16221" lon="-1.59663">
        <ele>72</ele>
        <time>2021-04-22T09:18:37.000Z</time>
      </trkpt>
      <trkpt lat="47.16208" lon="-1.5967">
        <ele>73</ele>
        <time>2021-04-22T09:18:39.000Z</time>
      </trkpt>
      <trkpt lat="47.16195" lon="-1.59677">
        <ele>73</ele>
        <time>2021-04-22T09:18:41.000Z</time>
      </trkpt>
      <trkpt lat="47.16182" lon="-1.59684">
        <ele>74</ele>
        <time>2021-04-22T09:18:43.000Z</time>
      </trkpt>
      <trkpt lat="47.16169" lon="-1.5969">
        <ele>74</ele>
        <time>2021-04-22T09:18:45.000Z</time>
      </trkpt>
      <trkpt lat="47.16157" lon="-1.59697">
        <ele>74</ele>
        <time>2021-04-22T09:18:47.000Z</time>
      </trkpt>
      <trkpt lat="47.16144" lon="-1.59703">
        <ele>74</ele>
        <time>2021-04-22T09:18:49.000Z</time>
      </trkpt>
      <trkpt lat="47.16132" lon="-1.59711">
        <ele>74</ele>
        <time>2021-04-22T09:18:51.000Z</time>
      </trkpt>
      <trkpt lat="47.16119" lon="-1.59717">
        <ele>74</ele>
        <time>2021-04-22T09:18:53.000Z</time>
      </trkpt>
      <trkpt lat="47.16107" lon="-1.59725">
        <ele>74</ele>
        <time>2021-04-22T09:18:55.000Z</time>
      </trkpt>
      <trkpt lat="47.16095" lon="-1.59732">
        <ele>74</ele>
        <time>2021-04-22T09:18:57.000Z</time>
      </trkpt>
      <trkpt lat="47.16083" lon="-1.59741">
        <ele>74</ele>
        <time>2021-04-22T09:18:59.000Z</time>
      </trkpt>
      <trkpt lat="47.16071" lon="-1.59749">
        <ele>74</ele>
        <time>2021-04-22T09:19:01.000Z</time>
      </trkpt>
      <trkpt lat="47.16059" lon="-1.59757">
        <ele>75</ele>
        <time>2021-04-22T09:19:03.000Z</time>
      </trkpt>
      <trkpt lat="47.16047" lon="-1.59764">
        <ele>74</ele>
        <time>2021-04-22T09:19:05.000Z</time>
      </trkpt>
      <trkpt lat="47.16035" lon="-1.59772">
        <ele>74</ele>
        <time>2021-04-22T09:19:07.000Z</time>
      </trkpt>
      <trkpt lat="47.16023" lon="-1.59779">
        <ele>74</ele>
        <time>2021-04-22T09:19:09.000Z</time>
      </trkpt>
      <trkpt lat="47.16011" lon="-1.59786">
        <ele>75</ele>
        <time>2021-04-22T09:19:11.000Z</time>
      </trkpt>
      <trkpt lat="47.15999" lon="-1.59794">
        <ele>75</ele>
        <time>2021-04-22T09:19:13.000Z</time>
      </trkpt>
      <trkpt lat="47.15986" lon="-1.59802">
        <ele>75</ele>
        <time>2021-04-22T09:19:15.000Z</time>
      </trkpt>
      <trkpt lat="47.15974" lon="-1.5981">
        <ele>75</ele>
        <time>2021-04-22T09:19:17.000Z</time>
      </trkpt>
      <trkpt lat="47.15961" lon="-1.59816">
        <ele>76</ele>
        <time>2021-04-22T09:19:19.000Z</time>
      </trkpt>
      <trkpt lat="47.15948" lon="-1.59823">
        <ele>76</ele>
        <time>2021-04-22T09:19:21.000Z</time>
      </trkpt>
      <trkpt lat="47.15935" lon="-1.59829">
        <ele>76</ele>
        <time>2021-04-22T09:19:23.000Z</time>
      </trkpt>
      <trkpt lat="47.15924" lon="-1.59837">
        <ele>76</ele>
        <time>2021-04-22T09:19:25.000Z</time>
      </trkpt>
      <trkpt lat="47.15915" lon="-1.59851">
        <ele>76</ele>
        <time>2021-04-22T09:19:27.000Z</time>
      </trkpt>
      <trkpt lat="47.15906" lon="-1.59866">
        <ele>75</ele>
        <time>2021-04-22T09:19:29.000Z</time>
      </trkpt>
      <trkpt lat="47.15893" lon="-1.59866">
        <ele>75</ele>
        <time>2021-04-22T09:19:31.000Z</time>
      </trkpt>
      <trkpt lat="47.15884" lon="-1.59854">
        <ele>76</ele>
        <time>2021-04-22T09:19:33.000Z</time>
      </trkpt>
      <trkpt lat="47.1588" lon="-1.59838">
        <ele>76</ele>
        <time>2021-04-22T09:19:35.000Z</time>
      </trkpt>
      <trkpt lat="47.15877" lon="-1.59821">
        <ele>76</ele>
        <time>2021-04-22T09:19:37.000Z</time>
      </trkpt>
      <trkpt lat="47.15869" lon="-1.59806">
        <ele>75</ele>
        <time>2021-04-22T09:19:39.000Z</time>
      </trkpt>
      <trkpt lat="47.1586" lon="-1.59794">
        <ele>75</ele>
        <time>2021-04-22T09:19:41.000Z</time>
      </trkpt>
      <trkpt lat="47.15849" lon="-1.59782">
        <ele>75</ele>
        <time>2021-04-22T09:19:43.000Z</time>
      </trkpt>
      <trkpt lat="47.15839" lon="-1.59771">
        <ele>75</ele>
        <time>2021-04-22T09:19:45.000Z</time>
      </trkpt>
      <trkpt lat="47.15827" lon="-1.59761">
        <ele>75</ele>
        <time>2021-04-22T09:19:47.000Z</time>
      </trkpt>
      <trkpt lat="47.15816" lon="-1.59753">
        <ele>75</ele>
        <time>2021-04-22T09:19:49.000Z</time>
      </trkpt>
      <trkpt lat="47.15805" lon="-1.59744">
        <ele>75</ele>
        <time>2021-04-22T09:19:51.000Z</time>
      </trkpt>
      <trkpt lat="47.15795" lon="-1.59738">
        <ele>76</ele>
        <time>2021-04-22T09:19:53.000Z</time>
      </trkpt>
      <trkpt lat="47.15783" lon="-1.59734">
        <ele>76</ele>
        <time>2021-04-22T09:19:55.000Z</time>
      </trkpt>
      <trkpt lat="47.1577" lon="-1.59729">
        <ele>77</ele>
        <time>2021-04-22T09:19:57.000Z</time>
      </trkpt>
      <trkpt lat="47.15761" lon="-1.59715">
        <ele>76</ele>
        <time>2021-04-22T09:19:59.000Z</time>
      </trkpt>
      <trkpt lat="47.15763" lon="-1.59693">
        <ele>76</ele>
        <time>2021-04-22T09:20:01.000Z</time>
      </trkpt>
      <trkpt lat="47.15765" lon="-1.59674">
        <ele>76</ele>
        <time>2021-04-22T09:20:03.000Z</time>
      </trkpt>
      <trkpt lat="47.15766" lon="-1.59656">
        <ele>76</ele>
        <time>2021-04-22T09:20:05.000Z</time>
      </trkpt>
      <trkpt lat="47.15764" lon="-1.59636">
        <ele>76</ele>
        <time>2021-04-22T09:20:07.000Z</time>
      </trkpt>
      <trkpt lat="47.15763" lon="-1.59618">
        <ele>77</ele>
        <time>2021-04-22T09:20:09.000Z</time>
      </trkpt>
      <trkpt lat="47.15762" lon="-1.59599">
        <ele>77</ele>
        <time>2021-04-22T09:20:11.000Z</time>
      </trkpt>
      <trkpt lat="47.1576" lon="-1.59581">
        <ele>76</ele>
        <time>2021-04-22T09:20:13.000Z</time>
      </trkpt>
      <trkpt lat="47.15759" lon="-1.59563">
        <ele>76</ele>
        <time>2021-04-22T09:20:15.000Z</time>
      </trkpt>
      <trkpt lat="47.15759" lon="-1.59546">
        <ele>77</ele>
        <time>2021-04-22T09:20:17.000Z</time>
      </trkpt>
      <trkpt lat="47.15759" lon="-1.59529">
        <ele>77</ele>
        <time>2021-04-22T09:20:19.000Z</time>
      </trkpt>
      <trkpt lat="47.15759" lon="-1.59512">
        <ele>77</ele>
        <time>2021-04-22T09:20:21.000Z</time>
      </trkpt>
      <trkpt lat="47.1576" lon="-1.59494">
        <ele>78</ele>
        <time>2021-04-22T09:20:23.000Z</time>
      </trkpt>
      <trkpt lat="47.15762" lon="-1.59476">
        <ele>78</ele>
        <time>2021-04-22T09:20:25.000Z</time>
      </trkpt>
      <trkpt lat="47.15764" lon="-1.59458">
        <ele>78</ele>
        <time>2021-04-22T09:20:27.000Z</time>
      </trkpt>
      <trkpt lat="47.15767" lon="-1.5944">
        <ele>78</ele>
        <time>2021-04-22T09:20:29.000Z</time>
      </trkpt>
      <trkpt lat="47.1577" lon="-1.59423">
        <ele>78</ele>
        <time>2021-04-22T09:20:31.000Z</time>
      </trkpt>
      <trkpt lat="47.15773" lon="-1.59406">
        <ele>78</ele>
        <time>2021-04-22T09:20:33.000Z</time>
      </trkpt>
      <trkpt lat="47.15776" lon="-1.59388">
        <ele>78</ele>
        <time>2021-04-22T09:20:35.000Z</time>
      </trkpt>
      <trkpt lat="47.15779" lon="-1.59371">
        <ele>78</ele>
        <time>2021-04-22T09:20:37.000Z</time>
      </trkpt>
      <trkpt lat="47.15781" lon="-1.59354">
        <ele>77</ele>
        <time>2021-04-22T09:20:39.000Z</time>
      </trkpt>
      <trkpt lat="47.15784" lon="-1.59337">
        <ele>77</ele>
        <time>2021-04-22T09:20:41.000Z</time>
      </trkpt>
      <trkpt lat="47.15787" lon="-1.5932">
        <ele>77</ele>
        <time>2021-04-22T09:20:43.000Z</time>
      </trkpt>
      <trkpt lat="47.1579" lon="-1.59303">
        <ele>77</ele>
        <time>2021-04-22T09:20:45.000Z</time>
      </trkpt>
      <trkpt lat="47.15793" lon="-1.59288">
        <ele>77</ele>
        <time>2021-04-22T09:20:47.000Z</time>
      </trkpt>
      <trkpt lat="47.15795" lon="-1.59272">
        <ele>77</ele>
        <time>2021-04-22T09:20:49.000Z</time>
      </trkpt>
      <trkpt lat="47.15798" lon="-1.59255">
        <ele>77</ele>
        <time>2021-04-22T09:20:51.000Z</time>
      </trkpt>
      <trkpt lat="47.15801" lon="-1.59238">
        <ele>77</ele>
        <time>2021-04-22T09:20:53.000Z</time>
      </trkpt>
      <trkpt lat="47.15806" lon="-1.59222">
        <ele>77</ele>
        <time>2021-04-22T09:20:55.000Z</time>
      </trkpt>
      <trkpt lat="47.1581" lon="-1.59208">
        <ele>78</ele>
        <time>2021-04-22T09:20:57.000Z</time>
      </trkpt>
      <trkpt lat="47.15813" lon="-1.59192">
        <ele>78</ele>
        <time>2021-04-22T09:20:59.000Z</time>
      </trkpt>
      <trkpt lat="47.15813" lon="-1.59176">
        <ele>77</ele>
        <time>2021-04-22T09:21:01.000Z</time>
      </trkpt>
      <trkpt lat="47.15814" lon="-1.5916">
        <ele>77</ele>
        <time>2021-04-22T09:21:03.000Z</time>
      </trkpt>
      <trkpt lat="47.1582" lon="-1.59145">
        <ele>77</ele>
        <time>2021-04-22T09:21:05.000Z</time>
      </trkpt>
      <trkpt lat="47.1583" lon="-1.5914">
        <ele>77</ele>
        <time>2021-04-22T09:21:07.000Z</time>
      </trkpt>
      <trkpt lat="47.15842" lon="-1.59138">
        <ele>77</ele>
        <time>2021-04-22T09:21:09.000Z</time>
      </trkpt>
      <trkpt lat="47.15852" lon="-1.5913">
        <ele>77</ele>
        <time>2021-04-22T09:21:11.000Z</time>
      </trkpt>
      <trkpt lat="47.15861" lon="-1.59119">
        <ele>77</ele>
        <time>2021-04-22T09:21:13.000Z</time>
      </trkpt>
      <trkpt lat="47.15869" lon="-1.59106">
        <ele>77</ele>
        <time>2021-04-22T09:21:15.000Z</time>
      </trkpt>
      <trkpt lat="47.15877" lon="-1.59093">
        <ele>78</ele>
        <time>2021-04-22T09:21:17.000Z</time>
      </trkpt>
      <trkpt lat="47.15885" lon="-1.59079">
        <ele>79</ele>
        <time>2021-04-22T09:21:19.000Z</time>
      </trkpt>
      <trkpt lat="47.15895" lon="-1.59066">
        <ele>81</ele>
        <time>2021-04-22T09:21:21.000Z</time>
      </trkpt>
      <trkpt lat="47.15905" lon="-1.59053">
        <ele>82</ele>
        <time>2021-04-22T09:21:23.000Z</time>
      </trkpt>
      <trkpt lat="47.15912" lon="-1.5904">
        <ele>82</ele>
        <time>2021-04-22T09:21:25.000Z</time>
      </trkpt>
      <trkpt lat="47.15919" lon="-1.59027">
        <ele>83</ele>
        <time>2021-04-22T09:21:27.000Z</time>
      </trkpt>
      <trkpt lat="47.15926" lon="-1.59013">
        <ele>83</ele>
        <time>2021-04-22T09:21:29.000Z</time>
      </trkpt>
      <trkpt lat="47.15932" lon="-1.58999">
        <ele>82</ele>
        <time>2021-04-22T09:21:31.000Z</time>
      </trkpt>
      <trkpt lat="47.1594" lon="-1.58986">
        <ele>82</ele>
        <time>2021-04-22T09:21:33.000Z</time>
      </trkpt>
      <trkpt lat="47.15948" lon="-1.58972">
        <ele>82</ele>
        <time>2021-04-22T09:21:35.000Z</time>
      </trkpt>
      <trkpt lat="47.15955" lon="-1.58959">
        <ele>82</ele>
        <time>2021-04-22T09:21:37.000Z</time>
      </trkpt>
      <trkpt lat="47.15962" lon="-1.58947">
        <ele>82</ele>
        <time>2021-04-22T09:21:39.000Z</time>
      </trkpt>
      <trkpt lat="47.1597" lon="-1.58934">
        <ele>82</ele>
        <time>2021-04-22T09:21:41.000Z</time>
      </trkpt>
      <trkpt lat="47.15978" lon="-1.58921">
        <ele>82</ele>
        <time>2021-04-22T09:21:43.000Z</time>
      </trkpt>
      <trkpt lat="47.15986" lon="-1.58907">
        <ele>81</ele>
        <time>2021-04-22T09:21:45.000Z</time>
      </trkpt>
      <trkpt lat="47.15993" lon="-1.58895">
        <ele>82</ele>
        <time>2021-04-22T09:21:47.000Z</time>
      </trkpt>
      <trkpt lat="47.16002" lon="-1.58882">
        <ele>82</ele>
        <time>2021-04-22T09:21:49.000Z</time>
      </trkpt>
      <trkpt lat="47.16011" lon="-1.5887">
        <ele>81</ele>
        <time>2021-04-22T09:21:51.000Z</time>
      </trkpt>
      <trkpt lat="47.1602" lon="-1.58859">
        <ele>81</ele>
        <time>2021-04-22T09:21:53.000Z</time>
      </trkpt>
      <trkpt lat="47.16028" lon="-1.58848">
        <ele>81</ele>
        <time>2021-04-22T09:21:55.000Z</time>
      </trkpt>
      <trkpt lat="47.16037" lon="-1.58837">
        <ele>80</ele>
        <time>2021-04-22T09:21:57.000Z</time>
      </trkpt>
      <trkpt lat="47.16046" lon="-1.58825">
        <ele>80</ele>
        <time>2021-04-22T09:21:59.000Z</time>
      </trkpt>
      <trkpt lat="47.16054" lon="-1.58814">
        <ele>80</ele>
        <time>2021-04-22T09:22:01.000Z</time>
      </trkpt>
      <trkpt lat="47.16062" lon="-1.58802">
        <ele>80</ele>
        <time>2021-04-22T09:22:03.000Z</time>
      </trkpt>
      <trkpt lat="47.16071" lon="-1.58792">
        <ele>80</ele>
        <time>2021-04-22T09:22:05.000Z</time>
      </trkpt>
      <trkpt lat="47.1608" lon="-1.5878">
        <ele>79</ele>
        <time>2021-04-22T09:22:07.000Z</time>
      </trkpt>
      <trkpt lat="47.16089" lon="-1.58768">
        <ele>79</ele>
        <time>2021-04-22T09:22:09.000Z</time>
      </trkpt>
      <trkpt lat="47.16098" lon="-1.58757">
        <ele>79</ele>
        <time>2021-04-22T09:22:11.000Z</time>
      </trkpt>
      <trkpt lat="47.16107" lon="-1.58745">
        <ele>79</ele>
        <time>2021-04-22T09:22:13.000Z</time>
      </trkpt>
      <trkpt lat="47.16116" lon="-1.58733">
        <ele>79</ele>
        <time>2021-04-22T09:22:15.000Z</time>
      </trkpt>
      <trkpt lat="47.16126" lon="-1.5872">
        <ele>79</ele>
        <time>2021-04-22T09:22:17.000Z</time>
      </trkpt>
      <trkpt lat="47.16135" lon="-1.58708">
        <ele>79</ele>
        <time>2021-04-22T09:22:19.000Z</time>
      </trkpt>
      <trkpt lat="47.16145" lon="-1.58695">
        <ele>79</ele>
        <time>2021-04-22T09:22:21.000Z</time>
      </trkpt>
      <trkpt lat="47.16154" lon="-1.58682">
        <ele>79</ele>
        <time>2021-04-22T09:22:23.000Z</time>
      </trkpt>
      <trkpt lat="47.16164" lon="-1.58671">
        <ele>79</ele>
        <time>2021-04-22T09:22:25.000Z</time>
      </trkpt>
      <trkpt lat="47.16174" lon="-1.58658">
        <ele>79</ele>
        <time>2021-04-22T09:22:27.000Z</time>
      </trkpt>
      <trkpt lat="47.16183" lon="-1.58645">
        <ele>78</ele>
        <time>2021-04-22T09:22:29.000Z</time>
      </trkpt>
      <trkpt lat="47.16192" lon="-1.58632">
        <ele>79</ele>
        <time>2021-04-22T09:22:31.000Z</time>
      </trkpt>
      <trkpt lat="47.16202" lon="-1.58619">
        <ele>79</ele>
        <time>2021-04-22T09:22:33.000Z</time>
      </trkpt>
      <trkpt lat="47.16212" lon="-1.58607">
        <ele>79</ele>
        <time>2021-04-22T09:22:35.000Z</time>
      </trkpt>
      <trkpt lat="47.16222" lon="-1.58595">
        <ele>79</ele>
        <time>2021-04-22T09:22:37.000Z</time>
      </trkpt>
      <trkpt lat="47.16231" lon="-1.58583">
        <ele>78</ele>
        <time>2021-04-22T09:22:39.000Z</time>
      </trkpt>
      <trkpt lat="47.1624" lon="-1.5857">
        <ele>78</ele>
        <time>2021-04-22T09:22:41.000Z</time>
      </trkpt>
      <trkpt lat="47.16249" lon="-1.58558">
        <ele>78</ele>
        <time>2021-04-22T09:22:43.000Z</time>
      </trkpt>
      <trkpt lat="47.16258" lon="-1.58545">
        <ele>78</ele>
        <time>2021-04-22T09:22:45.000Z</time>
      </trkpt>
      <trkpt lat="47.16268" lon="-1.58533">
        <ele>78</ele>
        <time>2021-04-22T09:22:47.000Z</time>
      </trkpt>
      <trkpt lat="47.16278" lon="-1.5852">
        <ele>78</ele>
        <time>2021-04-22T09:22:49.000Z</time>
      </trkpt>
      <trkpt lat="47.16287" lon="-1.58508">
        <ele>78</ele>
        <time>2021-04-22T09:22:51.000Z</time>
      </trkpt>
      <trkpt lat="47.16296" lon="-1.58497">
        <ele>78</ele>
        <time>2021-04-22T09:22:53.000Z</time>
      </trkpt>
      <trkpt lat="47.16306" lon="-1.58485">
        <ele>77</ele>
        <time>2021-04-22T09:22:55.000Z</time>
      </trkpt>
      <trkpt lat="47.16315" lon="-1.58471">
        <ele>78</ele>
        <time>2021-04-22T09:22:57.000Z</time>
      </trkpt>
      <trkpt lat="47.16324" lon="-1.58458">
        <ele>77</ele>
        <time>2021-04-22T09:22:59.000Z</time>
      </trkpt>
      <trkpt lat="47.16333" lon="-1.58447">
        <ele>77</ele>
        <time>2021-04-22T09:23:01.000Z</time>
      </trkpt>
      <trkpt lat="47.16343" lon="-1.58436">
        <ele>77</ele>
        <time>2021-04-22T09:23:03.000Z</time>
      </trkpt>
      <trkpt lat="47.16351" lon="-1.58424">
        <ele>77</ele>
        <time>2021-04-22T09:23:05.000Z</time>
      </trkpt>
      <trkpt lat="47.1636" lon="-1.58413">
        <ele>77</ele>
        <time>2021-04-22T09:23:07.000Z</time>
      </trkpt>
      <trkpt lat="47.16368" lon="-1.58401">
        <ele>77</ele>
        <time>2021-04-22T09:23:09.000Z</time>
      </trkpt>
      <trkpt lat="47.16378" lon="-1.58389">
        <ele>77</ele>
        <time>2021-04-22T09:23:11.000Z</time>
      </trkpt>
      <trkpt lat="47.16387" lon="-1.58377">
        <ele>78</ele>
        <time>2021-04-22T09:23:13.000Z</time>
      </trkpt>
      <trkpt lat="47.16396" lon="-1.58366">
        <ele>78</ele>
        <time>2021-04-22T09:23:15.000Z</time>
      </trkpt>
      <trkpt lat="47.16405" lon="-1.58354">
        <ele>79</ele>
        <time>2021-04-22T09:23:17.000Z</time>
      </trkpt>
      <trkpt lat="47.16413" lon="-1.58342">
        <ele>79</ele>
        <time>2021-04-22T09:23:19.000Z</time>
      </trkpt>
      <trkpt lat="47.16422" lon="-1.58329">
        <ele>79</ele>
        <time>2021-04-22T09:23:21.000Z</time>
      </trkpt>
      <trkpt lat="47.16431" lon="-1.58318">
        <ele>79</ele>
        <time>2021-04-22T09:23:23.000Z</time>
      </trkpt>
      <trkpt lat="47.1644" lon="-1.58306">
        <ele>80</ele>
        <time>2021-04-22T09:23:25.000Z</time>
      </trkpt>
      <trkpt lat="47.16449" lon="-1.58295">
        <ele>80</ele>
        <time>2021-04-22T09:23:27.000Z</time>
      </trkpt>
      <trkpt lat="47.16459" lon="-1.58283">
        <ele>79</ele>
        <time>2021-04-22T09:23:29.000Z</time>
      </trkpt>
      <trkpt lat="47.16468" lon="-1.58272">
        <ele>79</ele>
        <time>2021-04-22T09:23:31.000Z</time>
      </trkpt>
      <trkpt lat="47.16476" lon="-1.58261">
        <ele>79</ele>
        <time>2021-04-22T09:23:33.000Z</time>
      </trkpt>
      <trkpt lat="47.16485" lon="-1.5825">
        <ele>79</ele>
        <time>2021-04-22T09:23:35.000Z</time>
      </trkpt>
      <trkpt lat="47.16493" lon="-1.58239">
        <ele>79</ele>
        <time>2021-04-22T09:23:37.000Z</time>
      </trkpt>
      <trkpt lat="47.16501" lon="-1.58228">
        <ele>79</ele>
        <time>2021-04-22T09:23:39.000Z</time>
      </trkpt>
      <trkpt lat="47.1651" lon="-1.58216">
        <ele>79</ele>
        <time>2021-04-22T09:23:41.000Z</time>
      </trkpt>
      <trkpt lat="47.16519" lon="-1.58205">
        <ele>80</ele>
        <time>2021-04-22T09:23:43.000Z</time>
      </trkpt>
      <trkpt lat="47.16527" lon="-1.58194">
        <ele>80</ele>
        <time>2021-04-22T09:23:45.000Z</time>
      </trkpt>
      <trkpt lat="47.16536" lon="-1.58183">
        <ele>80</ele>
        <time>2021-04-22T09:23:47.000Z</time>
      </trkpt>
      <trkpt lat="47.16544" lon="-1.58172">
        <ele>80</ele>
        <time>2021-04-22T09:23:49.000Z</time>
      </trkpt>
      <trkpt lat="47.16552" lon="-1.58161">
        <ele>80</ele>
        <time>2021-04-22T09:23:51.000Z</time>
      </trkpt>
      <trkpt lat="47.16561" lon="-1.5815">
        <ele>80</ele>
        <time>2021-04-22T09:23:53.000Z</time>
      </trkpt>
      <trkpt lat="47.1657" lon="-1.58139">
        <ele>80</ele>
        <time>2021-04-22T09:23:55.000Z</time>
      </trkpt>
      <trkpt lat="47.16578" lon="-1.58128">
        <ele>81</ele>
        <time>2021-04-22T09:23:57.000Z</time>
      </trkpt>
      <trkpt lat="47.16587" lon="-1.58116">
        <ele>80</ele>
        <time>2021-04-22T09:23:59.000Z</time>
      </trkpt>
      <trkpt lat="47.16597" lon="-1.58103">
        <ele>80</ele>
        <time>2021-04-22T09:24:01.000Z</time>
      </trkpt>
      <trkpt lat="47.16605" lon="-1.58091">
        <ele>80</ele>
        <time>2021-04-22T09:24:03.000Z</time>
      </trkpt>
      <trkpt lat="47.16614" lon="-1.5808">
        <ele>80</ele>
        <time>2021-04-22T09:24:05.000Z</time>
      </trkpt>
      <trkpt lat="47.1662" lon="-1.58066">
        <ele>80</ele>
        <time>2021-04-22T09:24:07.000Z</time>
      </trkpt>
      <trkpt lat="47.16619" lon="-1.58052">
        <ele>80</ele>
        <time>2021-04-22T09:24:09.000Z</time>
      </trkpt>
      <trkpt lat="47.16608" lon="-1.58041">
        <ele>79</ele>
        <time>2021-04-22T09:24:11.000Z</time>
      </trkpt>
      <trkpt lat="47.16597" lon="-1.58032">
        <ele>80</ele>
        <time>2021-04-22T09:24:13.000Z</time>
      </trkpt>
      <trkpt lat="47.16586" lon="-1.58025">
        <ele>80</ele>
        <time>2021-04-22T09:24:15.000Z</time>
      </trkpt>
      <trkpt lat="47.16574" lon="-1.58015">
        <ele>80</ele>
        <time>2021-04-22T09:24:17.000Z</time>
      </trkpt>
      <trkpt lat="47.16564" lon="-1.58004">
        <ele>81</ele>
        <time>2021-04-22T09:24:19.000Z</time>
      </trkpt>
      <trkpt lat="47.16553" lon="-1.57994">
        <ele>80</ele>
        <time>2021-04-22T09:24:21.000Z</time>
      </trkpt>
      <trkpt lat="47.16543" lon="-1.57983">
        <ele>80</ele>
        <time>2021-04-22T09:24:23.000Z</time>
      </trkpt>
      <trkpt lat="47.16532" lon="-1.57973">
        <ele>81</ele>
        <time>2021-04-22T09:24:25.000Z</time>
      </trkpt>
      <trkpt lat="47.16522" lon="-1.57962">
        <ele>81</ele>
        <time>2021-04-22T09:24:27.000Z</time>
      </trkpt>
      <trkpt lat="47.16512" lon="-1.57952">
        <ele>82</ele>
        <time>2021-04-22T09:24:29.000Z</time>
      </trkpt>
      <trkpt lat="47.16501" lon="-1.57941">
        <ele>82</ele>
        <time>2021-04-22T09:24:31.000Z</time>
      </trkpt>
      <trkpt lat="47.16491" lon="-1.57931">
        <ele>83</ele>
        <time>2021-04-22T09:24:33.000Z</time>
      </trkpt>
      <trkpt lat="47.1648" lon="-1.57921">
        <ele>84</ele>
        <time>2021-04-22T09:24:35.000Z</time>
      </trkpt>
      <trkpt lat="47.16471" lon="-1.57912">
        <ele>84</ele>
        <time>2021-04-22T09:24:37.000Z</time>
      </trkpt>
      <trkpt lat="47.16461" lon="-1.57902">
        <ele>84</ele>
        <time>2021-04-22T09:24:39.000Z</time>
      </trkpt>
      <trkpt lat="47.16451" lon="-1.57894">
        <ele>83</ele>
        <time>2021-04-22T09:24:41.000Z</time>
      </trkpt>
      <trkpt lat="47.16441" lon="-1.57885">
        <ele>82</ele>
        <time>2021-04-22T09:24:43.000Z</time>
      </trkpt>
      <trkpt lat="47.1643" lon="-1.57878">
        <ele>82</ele>
        <time>2021-04-22T09:24:45.000Z</time>
      </trkpt>
      <trkpt lat="47.1642" lon="-1.57869">
        <ele>83</ele>
        <time>2021-04-22T09:24:47.000Z</time>
      </trkpt>
      <trkpt lat="47.16409" lon="-1.57861">
        <ele>83</ele>
        <time>2021-04-22T09:24:49.000Z</time>
      </trkpt>
      <trkpt lat="47.16397" lon="-1.57853">
        <ele>84</ele>
        <time>2021-04-22T09:24:51.000Z</time>
      </trkpt>
      <trkpt lat="47.16386" lon="-1.57845">
        <ele>84</ele>
        <time>2021-04-22T09:24:53.000Z</time>
      </trkpt>
      <trkpt lat="47.16375" lon="-1.57837">
        <ele>83</ele>
        <time>2021-04-22T09:24:55.000Z</time>
      </trkpt>
      <trkpt lat="47.16364" lon="-1.57827">
        <ele>83</ele>
        <time>2021-04-22T09:24:57.000Z</time>
      </trkpt>
      <trkpt lat="47.16354" lon="-1.57816">
        <ele>83</ele>
        <time>2021-04-22T09:24:59.000Z</time>
      </trkpt>
      <trkpt lat="47.16345" lon="-1.57803">
        <ele>83</ele>
        <time>2021-04-22T09:25:01.000Z</time>
      </trkpt>
      <trkpt lat="47.16337" lon="-1.57788">
        <ele>82</ele>
        <time>2021-04-22T09:25:03.000Z</time>
      </trkpt>
      <trkpt lat="47.16327" lon="-1.57773">
        <ele>82</ele>
        <time>2021-04-22T09:25:05.000Z</time>
      </trkpt>
      <trkpt lat="47.16318" lon="-1.57759">
        <ele>82</ele>
        <time>2021-04-22T09:25:07.000Z</time>
      </trkpt>
      <trkpt lat="47.16308" lon="-1.57744">
        <ele>82</ele>
        <time>2021-04-22T09:25:09.000Z</time>
      </trkpt>
      <trkpt lat="47.16297" lon="-1.5773">
        <ele>82</ele>
        <time>2021-04-22T09:25:11.000Z</time>
      </trkpt>
      <trkpt lat="47.16288" lon="-1.57715">
        <ele>82</ele>
        <time>2021-04-22T09:25:13.000Z</time>
      </trkpt>
      <trkpt lat="47.16279" lon="-1.577">
        <ele>81</ele>
        <time>2021-04-22T09:25:15.000Z</time>
      </trkpt>
      <trkpt lat="47.16269" lon="-1.57688">
        <ele>81</ele>
        <time>2021-04-22T09:25:17.000Z</time>
      </trkpt>
      <trkpt lat="47.16256" lon="-1.57677">
        <ele>81</ele>
        <time>2021-04-22T09:25:19.000Z</time>
      </trkpt>
      <trkpt lat="47.16244" lon="-1.57665">
        <ele>80</ele>
        <time>2021-04-22T09:25:21.000Z</time>
      </trkpt>
      <trkpt lat="47.16228" lon="-1.57646">
        <ele>81</ele>
        <time>2021-04-22T09:25:24.000Z</time>
      </trkpt>
      <trkpt lat="47.16217" lon="-1.57633">
        <ele>81</ele>
        <time>2021-04-22T09:25:26.000Z</time>
      </trkpt>
      <trkpt lat="47.16206" lon="-1.57619">
        <ele>81</ele>
        <time>2021-04-22T09:25:28.000Z</time>
      </trkpt>
      <trkpt lat="47.16194" lon="-1.57595">
        <ele>80</ele>
        <time>2021-04-22T09:25:31.000Z</time>
      </trkpt>
      <trkpt lat="47.16186" lon="-1.57578">
        <ele>80</ele>
        <time>2021-04-22T09:25:33.000Z</time>
      </trkpt>
      <trkpt lat="47.16178" lon="-1.57561">
        <ele>80</ele>
        <time>2021-04-22T09:25:35.000Z</time>
      </trkpt>
      <trkpt lat="47.16173" lon="-1.57543">
        <ele>80</ele>
        <time>2021-04-22T09:25:37.000Z</time>
      </trkpt>
      <trkpt lat="47.1617" lon="-1.57522">
        <ele>79</ele>
        <time>2021-04-22T09:25:39.000Z</time>
      </trkpt>
      <trkpt lat="47.1617" lon="-1.57501">
        <ele>79</ele>
        <time>2021-04-22T09:25:41.000Z</time>
      </trkpt>
      <trkpt lat="47.1617" lon="-1.57481">
        <ele>79</ele>
        <time>2021-04-22T09:25:43.000Z</time>
      </trkpt>
      <trkpt lat="47.1617" lon="-1.57461">
        <ele>79</ele>
        <time>2021-04-22T09:25:45.000Z</time>
      </trkpt>
      <trkpt lat="47.1617" lon="-1.57432">
        <ele>79</ele>
        <time>2021-04-22T09:25:48.000Z</time>
      </trkpt>
      <trkpt lat="47.16169" lon="-1.57413">
        <ele>79</ele>
        <time>2021-04-22T09:25:50.000Z</time>
      </trkpt>
      <trkpt lat="47.16167" lon="-1.57387">
        <ele>79</ele>
        <time>2021-04-22T09:25:53.000Z</time>
      </trkpt>
      <trkpt lat="47.16165" lon="-1.57365">
        <ele>79</ele>
        <time>2021-04-22T09:25:56.000Z</time>
      </trkpt>
      <trkpt lat="47.16163" lon="-1.57337">
        <ele>80</ele>
        <time>2021-04-22T09:26:01.000Z</time>
      </trkpt>
      <trkpt lat="47.16161" lon="-1.57319">
        <ele>80</ele>
        <time>2021-04-22T09:26:03.000Z</time>
      </trkpt>
      <trkpt lat="47.16161" lon="-1.57299">
        <ele>80</ele>
        <time>2021-04-22T09:26:05.000Z</time>
      </trkpt>
      <trkpt lat="47.1616" lon="-1.57279">
        <ele>81</ele>
        <time>2021-04-22T09:26:07.000Z</time>
      </trkpt>
      <trkpt lat="47.1616" lon="-1.57259">
        <ele>81</ele>
        <time>2021-04-22T09:26:09.000Z</time>
      </trkpt>
      <trkpt lat="47.16161" lon="-1.5724">
        <ele>82</ele>
        <time>2021-04-22T09:26:11.000Z</time>
      </trkpt>
      <trkpt lat="47.16162" lon="-1.5722">
        <ele>83</ele>
        <time>2021-04-22T09:26:13.000Z</time>
      </trkpt>
      <trkpt lat="47.16164" lon="-1.57201">
        <ele>83</ele>
        <time>2021-04-22T09:26:15.000Z</time>
      </trkpt>
      <trkpt lat="47.16166" lon="-1.57174">
        <ele>82</ele>
        <time>2021-04-22T09:26:18.000Z</time>
      </trkpt>
      <trkpt lat="47.16168" lon="-1.57156">
        <ele>81</ele>
        <time>2021-04-22T09:26:20.000Z</time>
      </trkpt>
      <trkpt lat="47.1617" lon="-1.57138">
        <ele>80</ele>
        <time>2021-04-22T09:26:22.000Z</time>
      </trkpt>
      <trkpt lat="47.16173" lon="-1.57119">
        <ele>79</ele>
        <time>2021-04-22T09:26:24.000Z</time>
      </trkpt>
      <trkpt lat="47.16176" lon="-1.571">
        <ele>79</ele>
        <time>2021-04-22T09:26:26.000Z</time>
      </trkpt>
      <trkpt lat="47.1618" lon="-1.57072">
        <ele>79</ele>
        <time>2021-04-22T09:26:29.000Z</time>
      </trkpt>
      <trkpt lat="47.16183" lon="-1.57054">
        <ele>79</ele>
        <time>2021-04-22T09:26:31.000Z</time>
      </trkpt>
      <trkpt lat="47.16186" lon="-1.57036">
        <ele>79</ele>
        <time>2021-04-22T09:26:33.000Z</time>
      </trkpt>
      <trkpt lat="47.16189" lon="-1.57018">
        <ele>79</ele>
        <time>2021-04-22T09:26:35.000Z</time>
      </trkpt>
      <trkpt lat="47.16192" lon="-1.57001">
        <ele>79</ele>
        <time>2021-04-22T09:26:37.000Z</time>
      </trkpt>
      <trkpt lat="47.16195" lon="-1.56984">
        <ele>80</ele>
        <time>2021-04-22T09:26:39.000Z</time>
      </trkpt>
      <trkpt lat="47.16198" lon="-1.56967">
        <ele>80</ele>
        <time>2021-04-22T09:26:41.000Z</time>
      </trkpt>
      <trkpt lat="47.16201" lon="-1.5695">
        <ele>80</ele>
        <time>2021-04-22T09:26:43.000Z</time>
      </trkpt>
      <trkpt lat="47.16204" lon="-1.56932">
        <ele>80</ele>
        <time>2021-04-22T09:26:45.000Z</time>
      </trkpt>
      <trkpt lat="47.16208" lon="-1.56914">
        <ele>79</ele>
        <time>2021-04-22T09:26:47.000Z</time>
      </trkpt>
      <trkpt lat="47.16211" lon="-1.56896">
        <ele>80</ele>
        <time>2021-04-22T09:26:49.000Z</time>
      </trkpt>
      <trkpt lat="47.16214" lon="-1.56878">
        <ele>80</ele>
        <time>2021-04-22T09:26:51.000Z</time>
      </trkpt>
      <trkpt lat="47.16218" lon="-1.5686">
        <ele>80</ele>
        <time>2021-04-22T09:26:53.000Z</time>
      </trkpt>
      <trkpt lat="47.16221" lon="-1.56843">
        <ele>80</ele>
        <time>2021-04-22T09:26:55.000Z</time>
      </trkpt>
      <trkpt lat="47.16224" lon="-1.56826">
        <ele>80</ele>
        <time>2021-04-22T09:26:57.000Z</time>
      </trkpt>
      <trkpt lat="47.16227" lon="-1.56807">
        <ele>79</ele>
        <time>2021-04-22T09:26:59.000Z</time>
      </trkpt>
      <trkpt lat="47.16232" lon="-1.56782">
        <ele>79</ele>
        <time>2021-04-22T09:27:02.000Z</time>
      </trkpt>
      <trkpt lat="47.16237" lon="-1.56756">
        <ele>79</ele>
        <time>2021-04-22T09:27:05.000Z</time>
      </trkpt>
      <trkpt lat="47.16239" lon="-1.5674">
        <ele>79</ele>
        <time>2021-04-22T09:27:07.000Z</time>
      </trkpt>
      <trkpt lat="47.16234" lon="-1.56725">
        <ele>80</ele>
        <time>2021-04-22T09:27:09.000Z</time>
      </trkpt>
      <trkpt lat="47.16223" lon="-1.56715">
        <ele>78</ele>
        <time>2021-04-22T09:27:11.000Z</time>
      </trkpt>
      <trkpt lat="47.16209" lon="-1.56718">
        <ele>78</ele>
        <time>2021-04-22T09:27:13.000Z</time>
      </trkpt>
      <trkpt lat="47.16196" lon="-1.5672">
        <ele>79</ele>
        <time>2021-04-22T09:27:15.000Z</time>
      </trkpt>
      <trkpt lat="47.16183" lon="-1.5672">
        <ele>79</ele>
        <time>2021-04-22T09:27:17.000Z</time>
      </trkpt>
      <trkpt lat="47.16165" lon="-1.56718">
        <ele>78</ele>
        <time>2021-04-22T09:27:20.000Z</time>
      </trkpt>
      <trkpt lat="47.16153" lon="-1.56716">
        <ele>78</ele>
        <time>2021-04-22T09:27:22.000Z</time>
      </trkpt>
      <trkpt lat="47.1614" lon="-1.56715">
        <ele>78</ele>
        <time>2021-04-22T09:27:24.000Z</time>
      </trkpt>
      <trkpt lat="47.16127" lon="-1.56714">
        <ele>78</ele>
        <time>2021-04-22T09:27:26.000Z</time>
      </trkpt>
      <trkpt lat="47.16115" lon="-1.56713">
        <ele>78</ele>
        <time>2021-04-22T09:27:28.000Z</time>
      </trkpt>
      <trkpt lat="47.16103" lon="-1.56712">
        <ele>78</ele>
        <time>2021-04-22T09:27:30.000Z</time>
      </trkpt>
      <trkpt lat="47.1609" lon="-1.56713">
        <ele>78</ele>
        <time>2021-04-22T09:27:32.000Z</time>
      </trkpt>
      <trkpt lat="47.16077" lon="-1.56714">
        <ele>77</ele>
        <time>2021-04-22T09:27:34.000Z</time>
      </trkpt>
      <trkpt lat="47.16063" lon="-1.56713">
        <ele>77</ele>
        <time>2021-04-22T09:27:36.000Z</time>
      </trkpt>
      <trkpt lat="47.1605" lon="-1.56711">
        <ele>77</ele>
        <time>2021-04-22T09:27:38.000Z</time>
      </trkpt>
      <trkpt lat="47.16036" lon="-1.56709">
        <ele>77</ele>
        <time>2021-04-22T09:27:40.000Z</time>
      </trkpt>
      <trkpt lat="47.16023" lon="-1.56706">
        <ele>77</ele>
        <time>2021-04-22T09:27:42.000Z</time>
      </trkpt>
      <trkpt lat="47.16009" lon="-1.56701">
        <ele>77</ele>
        <time>2021-04-22T09:27:44.000Z</time>
      </trkpt>
      <trkpt lat="47.15996" lon="-1.56696">
        <ele>77</ele>
        <time>2021-04-22T09:27:46.000Z</time>
      </trkpt>
      <trkpt lat="47.15984" lon="-1.56687">
        <ele>77</ele>
        <time>2021-04-22T09:27:48.000Z</time>
      </trkpt>
      <trkpt lat="47.15976" lon="-1.56673">
        <ele>76</ele>
        <time>2021-04-22T09:27:50.000Z</time>
      </trkpt>
      <trkpt lat="47.15973" lon="-1.56654">
        <ele>76</ele>
        <time>2021-04-22T09:27:52.000Z</time>
      </trkpt>
      <trkpt lat="47.15972" lon="-1.56635">
        <ele>77</ele>
        <time>2021-04-22T09:27:54.000Z</time>
      </trkpt>
      <trkpt lat="47.15971" lon="-1.56618">
        <ele>77</ele>
        <time>2021-04-22T09:27:56.000Z</time>
      </trkpt>
      <trkpt lat="47.15969" lon="-1.56601">
        <ele>76</ele>
        <time>2021-04-22T09:27:58.000Z</time>
      </trkpt>
      <trkpt lat="47.15967" lon="-1.56582">
        <ele>76</ele>
        <time>2021-04-22T09:28:00.000Z</time>
      </trkpt>
      <trkpt lat="47.15966" lon="-1.56564">
        <ele>76</ele>
        <time>2021-04-22T09:28:02.000Z</time>
      </trkpt>
      <trkpt lat="47.15966" lon="-1.56546">
        <ele>76</ele>
        <time>2021-04-22T09:28:04.000Z</time>
      </trkpt>
      <trkpt lat="47.15966" lon="-1.56527">
        <ele>76</ele>
        <time>2021-04-22T09:28:06.000Z</time>
      </trkpt>
      <trkpt lat="47.15967" lon="-1.56507">
        <ele>76</ele>
        <time>2021-04-22T09:28:08.000Z</time>
      </trkpt>
      <trkpt lat="47.15967" lon="-1.56489">
        <ele>76</ele>
        <time>2021-04-22T09:28:10.000Z</time>
      </trkpt>
      <trkpt lat="47.15967" lon="-1.56471">
        <ele>77</ele>
        <time>2021-04-22T09:28:12.000Z</time>
      </trkpt>
      <trkpt lat="47.15968" lon="-1.56453">
        <ele>77</ele>
        <time>2021-04-22T09:28:14.000Z</time>
      </trkpt>
      <trkpt lat="47.15968" lon="-1.56435">
        <ele>77</ele>
        <time>2021-04-22T09:28:16.000Z</time>
      </trkpt>
      <trkpt lat="47.1597" lon="-1.56417">
        <ele>77</ele>
        <time>2021-04-22T09:28:18.000Z</time>
      </trkpt>
      <trkpt lat="47.15973" lon="-1.56399">
        <ele>78</ele>
        <time>2021-04-22T09:28:20.000Z</time>
      </trkpt>
      <trkpt lat="47.15977" lon="-1.56381">
        <ele>77</ele>
        <time>2021-04-22T09:28:22.000Z</time>
      </trkpt>
      <trkpt lat="47.15982" lon="-1.56364">
        <ele>78</ele>
        <time>2021-04-22T09:28:24.000Z</time>
      </trkpt>
      <trkpt lat="47.15988" lon="-1.56346">
        <ele>78</ele>
        <time>2021-04-22T09:28:26.000Z</time>
      </trkpt>
      <trkpt lat="47.15993" lon="-1.5633">
        <ele>78</ele>
        <time>2021-04-22T09:28:28.000Z</time>
      </trkpt>
      <trkpt lat="47.15998" lon="-1.56313">
        <ele>79</ele>
        <time>2021-04-22T09:28:30.000Z</time>
      </trkpt>
      <trkpt lat="47.16003" lon="-1.56297">
        <ele>79</ele>
        <time>2021-04-22T09:28:32.000Z</time>
      </trkpt>
      <trkpt lat="47.16008" lon="-1.56281">
        <ele>79</ele>
        <time>2021-04-22T09:28:34.000Z</time>
      </trkpt>
      <trkpt lat="47.16013" lon="-1.56266">
        <ele>79</ele>
        <time>2021-04-22T09:28:36.000Z</time>
      </trkpt>
      <trkpt lat="47.16016" lon="-1.5625">
        <ele>79</ele>
        <time>2021-04-22T09:28:38.000Z</time>
      </trkpt>
      <trkpt lat="47.16011" lon="-1.56236">
        <ele>80</ele>
        <time>2021-04-22T09:28:40.000Z</time>
      </trkpt>
      <trkpt lat="47.16" lon="-1.56231">
        <ele>80</ele>
        <time>2021-04-22T09:28:42.000Z</time>
      </trkpt>
      <trkpt lat="47.15989" lon="-1.56227">
        <ele>79</ele>
        <time>2021-04-22T09:28:44.000Z</time>
      </trkpt>
      <trkpt lat="47.15978" lon="-1.56222">
        <ele>78</ele>
        <time>2021-04-22T09:28:46.000Z</time>
      </trkpt>
      <trkpt lat="47.15966" lon="-1.56218">
        <ele>79</ele>
        <time>2021-04-22T09:28:48.000Z</time>
      </trkpt>
      <trkpt lat="47.15953" lon="-1.56213">
        <ele>78</ele>
        <time>2021-04-22T09:28:50.000Z</time>
      </trkpt>
      <trkpt lat="47.15941" lon="-1.56207">
        <ele>78</ele>
        <time>2021-04-22T09:28:52.000Z</time>
      </trkpt>
      <trkpt lat="47.15929" lon="-1.56202">
        <ele>78</ele>
        <time>2021-04-22T09:28:54.000Z</time>
      </trkpt>
      <trkpt lat="47.15918" lon="-1.56198">
        <ele>78</ele>
        <time>2021-04-22T09:28:56.000Z</time>
      </trkpt>
      <trkpt lat="47.15904" lon="-1.56192">
        <ele>78</ele>
        <time>2021-04-22T09:28:58.000Z</time>
      </trkpt>
      <trkpt lat="47.15892" lon="-1.56186">
        <ele>78</ele>
        <time>2021-04-22T09:29:00.000Z</time>
      </trkpt>
      <trkpt lat="47.1588" lon="-1.56182">
        <ele>78</ele>
        <time>2021-04-22T09:29:02.000Z</time>
      </trkpt>
      <trkpt lat="47.15867" lon="-1.56176">
        <ele>78</ele>
        <time>2021-04-22T09:29:04.000Z</time>
      </trkpt>
      <trkpt lat="47.15853" lon="-1.5617">
        <ele>78</ele>
        <time>2021-04-22T09:29:06.000Z</time>
      </trkpt>
      <trkpt lat="47.15841" lon="-1.56165">
        <ele>78</ele>
        <time>2021-04-22T09:29:08.000Z</time>
      </trkpt>
      <trkpt lat="47.15828" lon="-1.56159">
        <ele>78</ele>
        <time>2021-04-22T09:29:10.000Z</time>
      </trkpt>
      <trkpt lat="47.15816" lon="-1.56154">
        <ele>78</ele>
        <time>2021-04-22T09:29:12.000Z</time>
      </trkpt>
      <trkpt lat="47.15803" lon="-1.56148">
        <ele>78</ele>
        <time>2021-04-22T09:29:14.000Z</time>
      </trkpt>
      <trkpt lat="47.1579" lon="-1.56142">
        <ele>78</ele>
        <time>2021-04-22T09:29:16.000Z</time>
      </trkpt>
      <trkpt lat="47.15778" lon="-1.56137">
        <ele>78</ele>
        <time>2021-04-22T09:29:18.000Z</time>
      </trkpt>
      <trkpt lat="47.15766" lon="-1.56131">
        <ele>79</ele>
        <time>2021-04-22T09:29:20.000Z</time>
      </trkpt>
      <trkpt lat="47.15754" lon="-1.56126">
        <ele>80</ele>
        <time>2021-04-22T09:29:22.000Z</time>
      </trkpt>
      <trkpt lat="47.15742" lon="-1.5612">
        <ele>80</ele>
        <time>2021-04-22T09:29:24.000Z</time>
      </trkpt>
      <trkpt lat="47.15729" lon="-1.56115">
        <ele>80</ele>
        <time>2021-04-22T09:29:26.000Z</time>
      </trkpt>
      <trkpt lat="47.15717" lon="-1.5611">
        <ele>80</ele>
        <time>2021-04-22T09:29:28.000Z</time>
      </trkpt>
      <trkpt lat="47.15706" lon="-1.56106">
        <ele>80</ele>
        <time>2021-04-22T09:29:30.000Z</time>
      </trkpt>
      <trkpt lat="47.15694" lon="-1.561">
        <ele>80</ele>
        <time>2021-04-22T09:29:32.000Z</time>
      </trkpt>
      <trkpt lat="47.15683" lon="-1.56096">
        <ele>80</ele>
        <time>2021-04-22T09:29:34.000Z</time>
      </trkpt>
      <trkpt lat="47.15672" lon="-1.56091">
        <ele>80</ele>
        <time>2021-04-22T09:29:36.000Z</time>
      </trkpt>
      <trkpt lat="47.1566" lon="-1.56086">
        <ele>80</ele>
        <time>2021-04-22T09:29:38.000Z</time>
      </trkpt>
      <trkpt lat="47.15648" lon="-1.56081">
        <ele>80</ele>
        <time>2021-04-22T09:29:40.000Z</time>
      </trkpt>
      <trkpt lat="47.15637" lon="-1.56076">
        <ele>80</ele>
        <time>2021-04-22T09:29:42.000Z</time>
      </trkpt>
      <trkpt lat="47.15625" lon="-1.5607">
        <ele>79</ele>
        <time>2021-04-22T09:29:44.000Z</time>
      </trkpt>
      <trkpt lat="47.15614" lon="-1.56063">
        <ele>79</ele>
        <time>2021-04-22T09:29:46.000Z</time>
      </trkpt>
      <trkpt lat="47.15602" lon="-1.56054">
        <ele>78</ele>
        <time>2021-04-22T09:29:48.000Z</time>
      </trkpt>
      <trkpt lat="47.15589" lon="-1.56045">
        <ele>78</ele>
        <time>2021-04-22T09:29:50.000Z</time>
      </trkpt>
      <trkpt lat="47.15576" lon="-1.56034">
        <ele>78</ele>
        <time>2021-04-22T09:29:52.000Z</time>
      </trkpt>
      <trkpt lat="47.15563" lon="-1.56023">
        <ele>79</ele>
        <time>2021-04-22T09:29:54.000Z</time>
      </trkpt>
      <trkpt lat="47.15551" lon="-1.56013">
        <ele>80</ele>
        <time>2021-04-22T09:29:56.000Z</time>
      </trkpt>
      <trkpt lat="47.15539" lon="-1.56004">
        <ele>80</ele>
        <time>2021-04-22T09:29:58.000Z</time>
      </trkpt>
      <trkpt lat="47.15527" lon="-1.55995">
        <ele>81</ele>
        <time>2021-04-22T09:30:00.000Z</time>
      </trkpt>
      <trkpt lat="47.15517" lon="-1.55986">
        <ele>81</ele>
        <time>2021-04-22T09:30:02.000Z</time>
      </trkpt>
      <trkpt lat="47.15506" lon="-1.55977">
        <ele>81</ele>
        <time>2021-04-22T09:30:04.000Z</time>
      </trkpt>
      <trkpt lat="47.15496" lon="-1.55969">
        <ele>81</ele>
        <time>2021-04-22T09:30:06.000Z</time>
      </trkpt>
      <trkpt lat="47.15484" lon="-1.5596">
        <ele>82</ele>
        <time>2021-04-22T09:30:08.000Z</time>
      </trkpt>
      <trkpt lat="47.15474" lon="-1.55952">
        <ele>82</ele>
        <time>2021-04-22T09:30:10.000Z</time>
      </trkpt>
      <trkpt lat="47.15463" lon="-1.55945">
        <ele>82</ele>
        <time>2021-04-22T09:30:12.000Z</time>
      </trkpt>
      <trkpt lat="47.15453" lon="-1.55937">
        <ele>82</ele>
        <time>2021-04-22T09:30:14.000Z</time>
      </trkpt>
      <trkpt lat="47.15442" lon="-1.55927">
        <ele>82</ele>
        <time>2021-04-22T09:30:16.000Z</time>
      </trkpt>
      <trkpt lat="47.1543" lon="-1.55918">
        <ele>82</ele>
        <time>2021-04-22T09:30:18.000Z</time>
      </trkpt>
      <trkpt lat="47.15418" lon="-1.5591">
        <ele>81</ele>
        <time>2021-04-22T09:30:20.000Z</time>
      </trkpt>
      <trkpt lat="47.15406" lon="-1.55904">
        <ele>81</ele>
        <time>2021-04-22T09:30:22.000Z</time>
      </trkpt>
      <trkpt lat="47.15396" lon="-1.55897">
        <ele>80</ele>
        <time>2021-04-22T09:30:24.000Z</time>
      </trkpt>
      <trkpt lat="47.15389" lon="-1.55887">
        <ele>79</ele>
        <time>2021-04-22T09:30:27.000Z</time>
      </trkpt>
      <trkpt lat="47.15383" lon="-1.55877">
        <ele>79</ele>
        <time>2021-04-22T09:30:29.000Z</time>
      </trkpt>
      <trkpt lat="47.15378" lon="-1.55862">
        <ele>80</ele>
        <time>2021-04-22T09:30:31.000Z</time>
      </trkpt>
      <trkpt lat="47.15374" lon="-1.55847">
        <ele>80</ele>
        <time>2021-04-22T09:30:33.000Z</time>
      </trkpt>
      <trkpt lat="47.15368" lon="-1.55833">
        <ele>80</ele>
        <time>2021-04-22T09:30:35.000Z</time>
      </trkpt>
      <trkpt lat="47.15361" lon="-1.55818">
        <ele>79</ele>
        <time>2021-04-22T09:30:37.000Z</time>
      </trkpt>
      <trkpt lat="47.15353" lon="-1.55804">
        <ele>80</ele>
        <time>2021-04-22T09:30:39.000Z</time>
      </trkpt>
      <trkpt lat="47.15345" lon="-1.55789">
        <ele>80</ele>
        <time>2021-04-22T09:30:41.000Z</time>
      </trkpt>
      <trkpt lat="47.15337" lon="-1.55775">
        <ele>80</ele>
        <time>2021-04-22T09:30:43.000Z</time>
      </trkpt>
      <trkpt lat="47.1533" lon="-1.55761">
        <ele>80</ele>
        <time>2021-04-22T09:30:45.000Z</time>
      </trkpt>
      <trkpt lat="47.15323" lon="-1.55746">
        <ele>80</ele>
        <time>2021-04-22T09:30:47.000Z</time>
      </trkpt>
      <trkpt lat="47.15315" lon="-1.5573">
        <ele>79</ele>
        <time>2021-04-22T09:30:49.000Z</time>
      </trkpt>
      <trkpt lat="47.15309" lon="-1.55714">
        <ele>79</ele>
        <time>2021-04-22T09:30:51.000Z</time>
      </trkpt>
      <trkpt lat="47.15301" lon="-1.55699">
        <ele>79</ele>
        <time>2021-04-22T09:30:53.000Z</time>
      </trkpt>
      <trkpt lat="47.15293" lon="-1.55684">
        <ele>78</ele>
        <time>2021-04-22T09:30:55.000Z</time>
      </trkpt>
      <trkpt lat="47.15285" lon="-1.55668">
        <ele>78</ele>
        <time>2021-04-22T09:30:57.000Z</time>
      </trkpt>
      <trkpt lat="47.15277" lon="-1.55651">
        <ele>78</ele>
        <time>2021-04-22T09:30:59.000Z</time>
      </trkpt>
      <trkpt lat="47.15269" lon="-1.55634">
        <ele>78</ele>
        <time>2021-04-22T09:31:01.000Z</time>
      </trkpt>
      <trkpt lat="47.15263" lon="-1.55617">
        <ele>77</ele>
        <time>2021-04-22T09:31:03.000Z</time>
      </trkpt>
      <trkpt lat="47.15256" lon="-1.556">
        <ele>77</ele>
        <time>2021-04-22T09:31:05.000Z</time>
      </trkpt>
      <trkpt lat="47.1525" lon="-1.55583">
        <ele>76</ele>
        <time>2021-04-22T09:31:07.000Z</time>
      </trkpt>
      <trkpt lat="47.15245" lon="-1.55565">
        <ele>76</ele>
        <time>2021-04-22T09:31:09.000Z</time>
      </trkpt>
      <trkpt lat="47.15239" lon="-1.55547">
        <ele>76</ele>
        <time>2021-04-22T09:31:11.000Z</time>
      </trkpt>
      <trkpt lat="47.15232" lon="-1.55529">
        <ele>76</ele>
        <time>2021-04-22T09:31:13.000Z</time>
      </trkpt>
      <trkpt lat="47.15224" lon="-1.55512">
        <ele>76</ele>
        <time>2021-04-22T09:31:15.000Z</time>
      </trkpt>
      <trkpt lat="47.15216" lon="-1.55495">
        <ele>76</ele>
        <time>2021-04-22T09:31:17.000Z</time>
      </trkpt>
      <trkpt lat="47.15207" lon="-1.5548">
        <ele>76</ele>
        <time>2021-04-22T09:31:19.000Z</time>
      </trkpt>
      <trkpt lat="47.15196" lon="-1.55469">
        <ele>77</ele>
        <time>2021-04-22T09:31:21.000Z</time>
      </trkpt>
      <trkpt lat="47.15183" lon="-1.55465">
        <ele>76</ele>
        <time>2021-04-22T09:31:23.000Z</time>
      </trkpt>
      <trkpt lat="47.15168" lon="-1.55465">
        <ele>76</ele>
        <time>2021-04-22T09:31:25.000Z</time>
      </trkpt>
      <trkpt lat="47.15154" lon="-1.55468">
        <ele>76</ele>
        <time>2021-04-22T09:31:27.000Z</time>
      </trkpt>
      <trkpt lat="47.15141" lon="-1.55472">
        <ele>76</ele>
        <time>2021-04-22T09:31:29.000Z</time>
      </trkpt>
      <trkpt lat="47.15128" lon="-1.55476">
        <ele>76</ele>
        <time>2021-04-22T09:31:31.000Z</time>
      </trkpt>
      <trkpt lat="47.15114" lon="-1.5548">
        <ele>76</ele>
        <time>2021-04-22T09:31:33.000Z</time>
      </trkpt>
      <trkpt lat="47.15101" lon="-1.55483">
        <ele>76</ele>
        <time>2021-04-22T09:31:35.000Z</time>
      </trkpt>
      <trkpt lat="47.15088" lon="-1.55487">
        <ele>75</ele>
        <time>2021-04-22T09:31:37.000Z</time>
      </trkpt>
      <trkpt lat="47.15074" lon="-1.5549">
        <ele>75</ele>
        <time>2021-04-22T09:31:39.000Z</time>
      </trkpt>
      <trkpt lat="47.1506" lon="-1.55494">
        <ele>75</ele>
        <time>2021-04-22T09:31:41.000Z</time>
      </trkpt>
      <trkpt lat="47.15045" lon="-1.55497">
        <ele>74</ele>
        <time>2021-04-22T09:31:43.000Z</time>
      </trkpt>
      <trkpt lat="47.15031" lon="-1.55502">
        <ele>74</ele>
        <time>2021-04-22T09:31:45.000Z</time>
      </trkpt>
      <trkpt lat="47.15017" lon="-1.55505">
        <ele>74</ele>
        <time>2021-04-22T09:31:47.000Z</time>
      </trkpt>
      <trkpt lat="47.15002" lon="-1.55509">
        <ele>74</ele>
        <time>2021-04-22T09:31:49.000Z</time>
      </trkpt>
      <trkpt lat="47.14988" lon="-1.55513">
        <ele>73</ele>
        <time>2021-04-22T09:31:51.000Z</time>
      </trkpt>
      <trkpt lat="47.14974" lon="-1.55517">
        <ele>73</ele>
        <time>2021-04-22T09:31:53.000Z</time>
      </trkpt>
      <trkpt lat="47.1496" lon="-1.55521">
        <ele>73</ele>
        <time>2021-04-22T09:31:55.000Z</time>
      </trkpt>
      <trkpt lat="47.14946" lon="-1.55525">
        <ele>73</ele>
        <time>2021-04-22T09:31:57.000Z</time>
      </trkpt>
      <trkpt lat="47.14932" lon="-1.55529">
        <ele>72</ele>
        <time>2021-04-22T09:31:59.000Z</time>
      </trkpt>
      <trkpt lat="47.14918" lon="-1.55532">
        <ele>73</ele>
        <time>2021-04-22T09:32:01.000Z</time>
      </trkpt>
      <trkpt lat="47.14904" lon="-1.55536">
        <ele>73</ele>
        <time>2021-04-22T09:32:03.000Z</time>
      </trkpt>
      <trkpt lat="47.14891" lon="-1.55539">
        <ele>73</ele>
        <time>2021-04-22T09:32:05.000Z</time>
      </trkpt>
      <trkpt lat="47.14877" lon="-1.55538">
        <ele>73</ele>
        <time>2021-04-22T09:32:07.000Z</time>
      </trkpt>
      <trkpt lat="47.14864" lon="-1.55532">
        <ele>74</ele>
        <time>2021-04-22T09:32:09.000Z</time>
      </trkpt>
      <trkpt lat="47.14852" lon="-1.55523">
        <ele>73</ele>
        <time>2021-04-22T09:32:11.000Z</time>
      </trkpt>
      <trkpt lat="47.14841" lon="-1.5551">
        <ele>73</ele>
        <time>2021-04-22T09:32:13.000Z</time>
      </trkpt>
      <trkpt lat="47.1483" lon="-1.55497">
        <ele>73</ele>
        <time>2021-04-22T09:32:15.000Z</time>
      </trkpt>
      <trkpt lat="47.14819" lon="-1.55485">
        <ele>73</ele>
        <time>2021-04-22T09:32:17.000Z</time>
      </trkpt>
      <trkpt lat="47.14809" lon="-1.55473">
        <ele>73</ele>
        <time>2021-04-22T09:32:19.000Z</time>
      </trkpt>
      <trkpt lat="47.14798" lon="-1.55462">
        <ele>73</ele>
        <time>2021-04-22T09:32:21.000Z</time>
      </trkpt>
      <trkpt lat="47.14788" lon="-1.55452">
        <ele>72</ele>
        <time>2021-04-22T09:32:23.000Z</time>
      </trkpt>
      <trkpt lat="47.14776" lon="-1.55442">
        <ele>72</ele>
        <time>2021-04-22T09:32:25.000Z</time>
      </trkpt>
      <trkpt lat="47.14765" lon="-1.55432">
        <ele>72</ele>
        <time>2021-04-22T09:32:27.000Z</time>
      </trkpt>
      <trkpt lat="47.14754" lon="-1.55421">
        <ele>72</ele>
        <time>2021-04-22T09:32:29.000Z</time>
      </trkpt>
      <trkpt lat="47.14743" lon="-1.55411">
        <ele>72</ele>
        <time>2021-04-22T09:32:31.000Z</time>
      </trkpt>
      <trkpt lat="47.14731" lon="-1.55401">
        <ele>72</ele>
        <time>2021-04-22T09:32:33.000Z</time>
      </trkpt>
      <trkpt lat="47.1472" lon="-1.5539">
        <ele>72</ele>
        <time>2021-04-22T09:32:35.000Z</time>
      </trkpt>
      <trkpt lat="47.14709" lon="-1.55379">
        <ele>72</ele>
        <time>2021-04-22T09:32:37.000Z</time>
      </trkpt>
      <trkpt lat="47.14698" lon="-1.55366">
        <ele>72</ele>
        <time>2021-04-22T09:32:39.000Z</time>
      </trkpt>
      <trkpt lat="47.14688" lon="-1.55354">
        <ele>71</ele>
        <time>2021-04-22T09:32:41.000Z</time>
      </trkpt>
      <trkpt lat="47.14678" lon="-1.55342">
        <ele>72</ele>
        <time>2021-04-22T09:32:43.000Z</time>
      </trkpt>
      <trkpt lat="47.14668" lon="-1.55329">
        <ele>72</ele>
        <time>2021-04-22T09:32:45.000Z</time>
      </trkpt>
      <trkpt lat="47.14659" lon="-1.55316">
        <ele>71</ele>
        <time>2021-04-22T09:32:47.000Z</time>
      </trkpt>
      <trkpt lat="47.14649" lon="-1.55302">
        <ele>71</ele>
        <time>2021-04-22T09:32:49.000Z</time>
      </trkpt>
      <trkpt lat="47.14639" lon="-1.55289">
        <ele>71</ele>
        <time>2021-04-22T09:32:51.000Z</time>
      </trkpt>
      <trkpt lat="47.14631" lon="-1.55276">
        <ele>71</ele>
        <time>2021-04-22T09:32:53.000Z</time>
      </trkpt>
      <trkpt lat="47.14621" lon="-1.55262">
        <ele>71</ele>
        <time>2021-04-22T09:32:55.000Z</time>
      </trkpt>
      <trkpt lat="47.14613" lon="-1.55248">
        <ele>71</ele>
        <time>2021-04-22T09:32:57.000Z</time>
      </trkpt>
      <trkpt lat="47.14604" lon="-1.55233">
        <ele>70</ele>
        <time>2021-04-22T09:32:59.000Z</time>
      </trkpt>
      <trkpt lat="47.14596" lon="-1.55218">
        <ele>70</ele>
        <time>2021-04-22T09:33:01.000Z</time>
      </trkpt>
      <trkpt lat="47.14587" lon="-1.55203">
        <ele>69</ele>
        <time>2021-04-22T09:33:03.000Z</time>
      </trkpt>
      <trkpt lat="47.14579" lon="-1.55188">
        <ele>69</ele>
        <time>2021-04-22T09:33:05.000Z</time>
      </trkpt>
      <trkpt lat="47.14571" lon="-1.55171">
        <ele>68</ele>
        <time>2021-04-22T09:33:07.000Z</time>
      </trkpt>
      <trkpt lat="47.14562" lon="-1.55155">
        <ele>68</ele>
        <time>2021-04-22T09:33:09.000Z</time>
      </trkpt>
      <trkpt lat="47.14554" lon="-1.5514">
        <ele>67</ele>
        <time>2021-04-22T09:33:11.000Z</time>
      </trkpt>
      <trkpt lat="47.14545" lon="-1.55123">
        <ele>67</ele>
        <time>2021-04-22T09:33:13.000Z</time>
      </trkpt>
      <trkpt lat="47.14535" lon="-1.55106">
        <ele>66</ele>
        <time>2021-04-22T09:33:15.000Z</time>
      </trkpt>
      <trkpt lat="47.14527" lon="-1.55089">
        <ele>66</ele>
        <time>2021-04-22T09:33:17.000Z</time>
      </trkpt>
      <trkpt lat="47.14519" lon="-1.55071">
        <ele>65</ele>
        <time>2021-04-22T09:33:19.000Z</time>
      </trkpt>
      <trkpt lat="47.14511" lon="-1.55053">
        <ele>65</ele>
        <time>2021-04-22T09:33:21.000Z</time>
      </trkpt>
      <trkpt lat="47.14503" lon="-1.55036">
        <ele>65</ele>
        <time>2021-04-22T09:33:23.000Z</time>
      </trkpt>
      <trkpt lat="47.14496" lon="-1.5502">
        <ele>65</ele>
        <time>2021-04-22T09:33:25.000Z</time>
      </trkpt>
      <trkpt lat="47.14488" lon="-1.55005">
        <ele>65</ele>
        <time>2021-04-22T09:33:27.000Z</time>
      </trkpt>
      <trkpt lat="47.14479" lon="-1.54993">
        <ele>65</ele>
        <time>2021-04-22T09:33:29.000Z</time>
      </trkpt>
      <trkpt lat="47.14469" lon="-1.54982">
        <ele>65</ele>
        <time>2021-04-22T09:33:31.000Z</time>
      </trkpt>
      <trkpt lat="47.14459" lon="-1.5497">
        <ele>64</ele>
        <time>2021-04-22T09:33:33.000Z</time>
      </trkpt>
      <trkpt lat="47.14447" lon="-1.5496">
        <ele>63</ele>
        <time>2021-04-22T09:33:35.000Z</time>
      </trkpt>
      <trkpt lat="47.14436" lon="-1.54948">
        <ele>64</ele>
        <time>2021-04-22T09:33:37.000Z</time>
      </trkpt>
      <trkpt lat="47.14425" lon="-1.54937">
        <ele>65</ele>
        <time>2021-04-22T09:33:39.000Z</time>
      </trkpt>
      <trkpt lat="47.14414" lon="-1.54925">
        <ele>66</ele>
        <time>2021-04-22T09:33:41.000Z</time>
      </trkpt>
      <trkpt lat="47.14402" lon="-1.54914">
        <ele>67</ele>
        <time>2021-04-22T09:33:43.000Z</time>
      </trkpt>
      <trkpt lat="47.14391" lon="-1.54903">
        <ele>67</ele>
        <time>2021-04-22T09:33:45.000Z</time>
      </trkpt>
      <trkpt lat="47.1438" lon="-1.54892">
        <ele>68</ele>
        <time>2021-04-22T09:33:47.000Z</time>
      </trkpt>
      <trkpt lat="47.1437" lon="-1.54881">
        <ele>68</ele>
        <time>2021-04-22T09:33:49.000Z</time>
      </trkpt>
      <trkpt lat="47.14357" lon="-1.5487">
        <ele>67</ele>
        <time>2021-04-22T09:33:51.000Z</time>
      </trkpt>
      <trkpt lat="47.14346" lon="-1.54859">
        <ele>67</ele>
        <time>2021-04-22T09:33:53.000Z</time>
      </trkpt>
      <trkpt lat="47.14336" lon="-1.54849">
        <ele>67</ele>
        <time>2021-04-22T09:33:55.000Z</time>
      </trkpt>
      <trkpt lat="47.14324" lon="-1.54838">
        <ele>67</ele>
        <time>2021-04-22T09:33:57.000Z</time>
      </trkpt>
      <trkpt lat="47.14312" lon="-1.54827">
        <ele>67</ele>
        <time>2021-04-22T09:33:59.000Z</time>
      </trkpt>
      <trkpt lat="47.143" lon="-1.54818">
        <ele>67</ele>
        <time>2021-04-22T09:34:01.000Z</time>
      </trkpt>
      <trkpt lat="47.14289" lon="-1.5481">
        <ele>68</ele>
        <time>2021-04-22T09:34:03.000Z</time>
      </trkpt>
      <trkpt lat="47.14277" lon="-1.54802">
        <ele>68</ele>
        <time>2021-04-22T09:34:05.000Z</time>
      </trkpt>
      <trkpt lat="47.14265" lon="-1.54792">
        <ele>68</ele>
        <time>2021-04-22T09:34:07.000Z</time>
      </trkpt>
      <trkpt lat="47.14253" lon="-1.54783">
        <ele>68</ele>
        <time>2021-04-22T09:34:09.000Z</time>
      </trkpt>
      <trkpt lat="47.14242" lon="-1.54774">
        <ele>68</ele>
        <time>2021-04-22T09:34:11.000Z</time>
      </trkpt>
      <trkpt lat="47.14231" lon="-1.54766">
        <ele>68</ele>
        <time>2021-04-22T09:34:13.000Z</time>
      </trkpt>
      <trkpt lat="47.1422" lon="-1.54757">
        <ele>68</ele>
        <time>2021-04-22T09:34:15.000Z</time>
      </trkpt>
      <trkpt lat="47.14209" lon="-1.5475">
        <ele>68</ele>
        <time>2021-04-22T09:34:17.000Z</time>
      </trkpt>
      <trkpt lat="47.14199" lon="-1.54741">
        <ele>69</ele>
        <time>2021-04-22T09:34:19.000Z</time>
      </trkpt>
      <trkpt lat="47.1419" lon="-1.54734">
        <ele>69</ele>
        <time>2021-04-22T09:34:22.000Z</time>
      </trkpt>
      <trkpt lat="47.14187" lon="-1.54718">
        <ele>70</ele>
        <time>2021-04-22T09:34:25.000Z</time>
      </trkpt>
      <trkpt lat="47.1419" lon="-1.54702">
        <ele>70</ele>
        <time>2021-04-22T09:34:27.000Z</time>
      </trkpt>
      <trkpt lat="47.14194" lon="-1.54685">
        <ele>70</ele>
        <time>2021-04-22T09:34:29.000Z</time>
      </trkpt>
      <trkpt lat="47.14195" lon="-1.54669">
        <ele>69</ele>
        <time>2021-04-22T09:34:31.000Z</time>
      </trkpt>
      <trkpt lat="47.14189" lon="-1.54654">
        <ele>69</ele>
        <time>2021-04-22T09:34:33.000Z</time>
      </trkpt>
      <trkpt lat="47.14178" lon="-1.54644">
        <ele>70</ele>
        <time>2021-04-22T09:34:35.000Z</time>
      </trkpt>
      <trkpt lat="47.14168" lon="-1.54633">
        <ele>70</ele>
        <time>2021-04-22T09:34:37.000Z</time>
      </trkpt>
      <trkpt lat="47.14158" lon="-1.54622">
        <ele>70</ele>
        <time>2021-04-22T09:34:39.000Z</time>
      </trkpt>
      <trkpt lat="47.14149" lon="-1.5461">
        <ele>70</ele>
        <time>2021-04-22T09:34:41.000Z</time>
      </trkpt>
      <trkpt lat="47.14139" lon="-1.54598">
        <ele>69</ele>
        <time>2021-04-22T09:34:43.000Z</time>
      </trkpt>
      <trkpt lat="47.14129" lon="-1.54586">
        <ele>69</ele>
        <time>2021-04-22T09:34:45.000Z</time>
      </trkpt>
      <trkpt lat="47.1412" lon="-1.54575">
        <ele>69</ele>
        <time>2021-04-22T09:34:47.000Z</time>
      </trkpt>
      <trkpt lat="47.14111" lon="-1.54564">
        <ele>69</ele>
        <time>2021-04-22T09:34:49.000Z</time>
      </trkpt>
      <trkpt lat="47.14102" lon="-1.54554">
        <ele>69</ele>
        <time>2021-04-22T09:34:51.000Z</time>
      </trkpt>
      <trkpt lat="47.14094" lon="-1.54544">
        <ele>69</ele>
        <time>2021-04-22T09:34:53.000Z</time>
      </trkpt>
      <trkpt lat="47.14085" lon="-1.54533">
        <ele>69</ele>
        <time>2021-04-22T09:34:55.000Z</time>
      </trkpt>
      <trkpt lat="47.14075" lon="-1.54522">
        <ele>68</ele>
        <time>2021-04-22T09:34:57.000Z</time>
      </trkpt>
      <trkpt lat="47.14065" lon="-1.5451">
        <ele>68</ele>
        <time>2021-04-22T09:34:59.000Z</time>
      </trkpt>
      <trkpt lat="47.14054" lon="-1.54501">
        <ele>68</ele>
        <time>2021-04-22T09:35:01.000Z</time>
      </trkpt>
      <trkpt lat="47.14043" lon="-1.54493">
        <ele>68</ele>
        <time>2021-04-22T09:35:03.000Z</time>
      </trkpt>
      <trkpt lat="47.14032" lon="-1.54484">
        <ele>68</ele>
        <time>2021-04-22T09:35:05.000Z</time>
      </trkpt>
      <trkpt lat="47.14021" lon="-1.54474">
        <ele>68</ele>
        <time>2021-04-22T09:35:07.000Z</time>
      </trkpt>
      <trkpt lat="47.1401" lon="-1.54464">
        <ele>69</ele>
        <time>2021-04-22T09:35:09.000Z</time>
      </trkpt>
      <trkpt lat="47.14" lon="-1.54456">
        <ele>70</ele>
        <time>2021-04-22T09:35:11.000Z</time>
      </trkpt>
      <trkpt lat="47.1399" lon="-1.54448">
        <ele>70</ele>
        <time>2021-04-22T09:35:13.000Z</time>
      </trkpt>
      <trkpt lat="47.1398" lon="-1.54439">
        <ele>70</ele>
        <time>2021-04-22T09:35:15.000Z</time>
      </trkpt>
      <trkpt lat="47.1397" lon="-1.5443">
        <ele>70</ele>
        <time>2021-04-22T09:35:17.000Z</time>
      </trkpt>
      <trkpt lat="47.13959" lon="-1.54421">
        <ele>71</ele>
        <time>2021-04-22T09:35:19.000Z</time>
      </trkpt>
      <trkpt lat="47.13949" lon="-1.54412">
        <ele>71</ele>
        <time>2021-04-22T09:35:21.000Z</time>
      </trkpt>
      <trkpt lat="47.13939" lon="-1.54403">
        <ele>72</ele>
        <time>2021-04-22T09:35:23.000Z</time>
      </trkpt>
      <trkpt lat="47.13929" lon="-1.54395">
        <ele>72</ele>
        <time>2021-04-22T09:35:25.000Z</time>
      </trkpt>
      <trkpt lat="47.1392" lon="-1.54387">
        <ele>72</ele>
        <time>2021-04-22T09:35:27.000Z</time>
      </trkpt>
      <trkpt lat="47.1391" lon="-1.54378">
        <ele>73</ele>
        <time>2021-04-22T09:35:29.000Z</time>
      </trkpt>
      <trkpt lat="47.139" lon="-1.54371">
        <ele>73</ele>
        <time>2021-04-22T09:35:31.000Z</time>
      </trkpt>
      <trkpt lat="47.1389" lon="-1.54362">
        <ele>73</ele>
        <time>2021-04-22T09:35:33.000Z</time>
      </trkpt>
      <trkpt lat="47.1388" lon="-1.54354">
        <ele>73</ele>
        <time>2021-04-22T09:35:35.000Z</time>
      </trkpt>
      <trkpt lat="47.1387" lon="-1.54346">
        <ele>73</ele>
        <time>2021-04-22T09:35:37.000Z</time>
      </trkpt>
      <trkpt lat="47.1386" lon="-1.54337">
        <ele>74</ele>
        <time>2021-04-22T09:35:39.000Z</time>
      </trkpt>
      <trkpt lat="47.13849" lon="-1.5433">
        <ele>74</ele>
        <time>2021-04-22T09:35:41.000Z</time>
      </trkpt>
      <trkpt lat="47.13839" lon="-1.54323">
        <ele>74</ele>
        <time>2021-04-22T09:35:43.000Z</time>
      </trkpt>
      <trkpt lat="47.13829" lon="-1.54316">
        <ele>74</ele>
        <time>2021-04-22T09:35:45.000Z</time>
      </trkpt>
      <trkpt lat="47.13818" lon="-1.54311">
        <ele>74</ele>
        <time>2021-04-22T09:35:47.000Z</time>
      </trkpt>
      <trkpt lat="47.13806" lon="-1.54306">
        <ele>74</ele>
        <time>2021-04-22T09:35:49.000Z</time>
      </trkpt>
      <trkpt lat="47.13794" lon="-1.543">
        <ele>74</ele>
        <time>2021-04-22T09:35:51.000Z</time>
      </trkpt>
      <trkpt lat="47.13783" lon="-1.54295">
        <ele>75</ele>
        <time>2021-04-22T09:35:53.000Z</time>
      </trkpt>
      <trkpt lat="47.13773" lon="-1.5429">
        <ele>75</ele>
        <time>2021-04-22T09:35:55.000Z</time>
      </trkpt>
      <trkpt lat="47.13762" lon="-1.54286">
        <ele>75</ele>
        <time>2021-04-22T09:35:57.000Z</time>
      </trkpt>
      <trkpt lat="47.13751" lon="-1.54281">
        <ele>75</ele>
        <time>2021-04-22T09:35:59.000Z</time>
      </trkpt>
      <trkpt lat="47.13739" lon="-1.54275">
        <ele>75</ele>
        <time>2021-04-22T09:36:01.000Z</time>
      </trkpt>
      <trkpt lat="47.13727" lon="-1.5427">
        <ele>74</ele>
        <time>2021-04-22T09:36:03.000Z</time>
      </trkpt>
      <trkpt lat="47.13715" lon="-1.54264">
        <ele>74</ele>
        <time>2021-04-22T09:36:05.000Z</time>
      </trkpt>
      <trkpt lat="47.13701" lon="-1.54258">
        <ele>74</ele>
        <time>2021-04-22T09:36:07.000Z</time>
      </trkpt>
      <trkpt lat="47.13688" lon="-1.54251">
        <ele>74</ele>
        <time>2021-04-22T09:36:09.000Z</time>
      </trkpt>
      <trkpt lat="47.13675" lon="-1.54244">
        <ele>75</ele>
        <time>2021-04-22T09:36:11.000Z</time>
      </trkpt>
      <trkpt lat="47.13663" lon="-1.54237">
        <ele>74</ele>
        <time>2021-04-22T09:36:13.000Z</time>
      </trkpt>
      <trkpt lat="47.1365" lon="-1.54231">
        <ele>75</ele>
        <time>2021-04-22T09:36:15.000Z</time>
      </trkpt>
      <trkpt lat="47.13638" lon="-1.54224">
        <ele>75</ele>
        <time>2021-04-22T09:36:17.000Z</time>
      </trkpt>
      <trkpt lat="47.13626" lon="-1.54218">
        <ele>75</ele>
        <time>2021-04-22T09:36:19.000Z</time>
      </trkpt>
      <trkpt lat="47.13613" lon="-1.54211">
        <ele>75</ele>
        <time>2021-04-22T09:36:21.000Z</time>
      </trkpt>
      <trkpt lat="47.13602" lon="-1.54203">
        <ele>75</ele>
        <time>2021-04-22T09:36:23.000Z</time>
      </trkpt>
      <trkpt lat="47.13592" lon="-1.54195">
        <ele>75</ele>
        <time>2021-04-22T09:36:25.000Z</time>
      </trkpt>
      <trkpt lat="47.1358" lon="-1.54184">
        <ele>75</ele>
        <time>2021-04-22T09:36:27.000Z</time>
      </trkpt>
      <trkpt lat="47.1357" lon="-1.54171">
        <ele>75</ele>
        <time>2021-04-22T09:36:29.000Z</time>
      </trkpt>
      <trkpt lat="47.1356" lon="-1.54156">
        <ele>75</ele>
        <time>2021-04-22T09:36:31.000Z</time>
      </trkpt>
      <trkpt lat="47.13551" lon="-1.54142">
        <ele>75</ele>
        <time>2021-04-22T09:36:33.000Z</time>
      </trkpt>
      <trkpt lat="47.13542" lon="-1.54128">
        <ele>75</ele>
        <time>2021-04-22T09:36:35.000Z</time>
      </trkpt>
      <trkpt lat="47.13533" lon="-1.54115">
        <ele>74</ele>
        <time>2021-04-22T09:36:37.000Z</time>
      </trkpt>
      <trkpt lat="47.13524" lon="-1.54102">
        <ele>74</ele>
        <time>2021-04-22T09:36:39.000Z</time>
      </trkpt>
      <trkpt lat="47.13516" lon="-1.54089">
        <ele>74</ele>
        <time>2021-04-22T09:36:41.000Z</time>
      </trkpt>
      <trkpt lat="47.13508" lon="-1.54076">
        <ele>74</ele>
        <time>2021-04-22T09:36:43.000Z</time>
      </trkpt>
      <trkpt lat="47.13499" lon="-1.54063">
        <ele>74</ele>
        <time>2021-04-22T09:36:45.000Z</time>
      </trkpt>
      <trkpt lat="47.13489" lon="-1.5405">
        <ele>74</ele>
        <time>2021-04-22T09:36:47.000Z</time>
      </trkpt>
      <trkpt lat="47.13481" lon="-1.54037">
        <ele>74</ele>
        <time>2021-04-22T09:36:49.000Z</time>
      </trkpt>
      <trkpt lat="47.13473" lon="-1.54023">
        <ele>74</ele>
        <time>2021-04-22T09:36:51.000Z</time>
      </trkpt>
      <trkpt lat="47.13465" lon="-1.54009">
        <ele>74</ele>
        <time>2021-04-22T09:36:53.000Z</time>
      </trkpt>
      <trkpt lat="47.13457" lon="-1.53994">
        <ele>74</ele>
        <time>2021-04-22T09:36:55.000Z</time>
      </trkpt>
      <trkpt lat="47.1345" lon="-1.5398">
        <ele>73</ele>
        <time>2021-04-22T09:36:57.000Z</time>
      </trkpt>
      <trkpt lat="47.13442" lon="-1.53965">
        <ele>73</ele>
        <time>2021-04-22T09:36:59.000Z</time>
      </trkpt>
      <trkpt lat="47.13435" lon="-1.53951">
        <ele>72</ele>
        <time>2021-04-22T09:37:01.000Z</time>
      </trkpt>
      <trkpt lat="47.13427" lon="-1.53936">
        <ele>72</ele>
        <time>2021-04-22T09:37:03.000Z</time>
      </trkpt>
      <trkpt lat="47.13419" lon="-1.53921">
        <ele>72</ele>
        <time>2021-04-22T09:37:05.000Z</time>
      </trkpt>
      <trkpt lat="47.1341" lon="-1.53906">
        <ele>72</ele>
        <time>2021-04-22T09:37:07.000Z</time>
      </trkpt>
      <trkpt lat="47.13402" lon="-1.53891">
        <ele>71</ele>
        <time>2021-04-22T09:37:09.000Z</time>
      </trkpt>
      <trkpt lat="47.13395" lon="-1.53876">
        <ele>71</ele>
        <time>2021-04-22T09:37:11.000Z</time>
      </trkpt>
      <trkpt lat="47.13387" lon="-1.53861">
        <ele>71</ele>
        <time>2021-04-22T09:37:13.000Z</time>
      </trkpt>
      <trkpt lat="47.1338" lon="-1.53845">
        <ele>71</ele>
        <time>2021-04-22T09:37:15.000Z</time>
      </trkpt>
      <trkpt lat="47.13372" lon="-1.53831">
        <ele>71</ele>
        <time>2021-04-22T09:37:17.000Z</time>
      </trkpt>
      <trkpt lat="47.13365" lon="-1.53817">
        <ele>71</ele>
        <time>2021-04-22T09:37:19.000Z</time>
      </trkpt>
      <trkpt lat="47.13356" lon="-1.53803">
        <ele>71</ele>
        <time>2021-04-22T09:37:21.000Z</time>
      </trkpt>
      <trkpt lat="47.13349" lon="-1.53789">
        <ele>71</ele>
        <time>2021-04-22T09:37:23.000Z</time>
      </trkpt>
      <trkpt lat="47.13342" lon="-1.53774">
        <ele>71</ele>
        <time>2021-04-22T09:37:25.000Z</time>
      </trkpt>
      <trkpt lat="47.13334" lon="-1.5376">
        <ele>72</ele>
        <time>2021-04-22T09:37:27.000Z</time>
      </trkpt>
      <trkpt lat="47.13327" lon="-1.53745">
        <ele>72</ele>
        <time>2021-04-22T09:37:29.000Z</time>
      </trkpt>
      <trkpt lat="47.1332" lon="-1.5373">
        <ele>72</ele>
        <time>2021-04-22T09:37:31.000Z</time>
      </trkpt>
      <trkpt lat="47.13314" lon="-1.53715">
        <ele>72</ele>
        <time>2021-04-22T09:37:33.000Z</time>
      </trkpt>
      <trkpt lat="47.13308" lon="-1.53699">
        <ele>74</ele>
        <time>2021-04-22T09:37:35.000Z</time>
      </trkpt>
      <trkpt lat="47.13302" lon="-1.53684">
        <ele>74</ele>
        <time>2021-04-22T09:37:37.000Z</time>
      </trkpt>
      <trkpt lat="47.13296" lon="-1.53669">
        <ele>74</ele>
        <time>2021-04-22T09:37:39.000Z</time>
      </trkpt>
      <trkpt lat="47.13291" lon="-1.53653">
        <ele>74</ele>
        <time>2021-04-22T09:37:41.000Z</time>
      </trkpt>
      <trkpt lat="47.13286" lon="-1.53637">
        <ele>74</ele>
        <time>2021-04-22T09:37:43.000Z</time>
      </trkpt>
      <trkpt lat="47.1328" lon="-1.5362">
        <ele>73</ele>
        <time>2021-04-22T09:37:45.000Z</time>
      </trkpt>
      <trkpt lat="47.13274" lon="-1.53604">
        <ele>74</ele>
        <time>2021-04-22T09:37:47.000Z</time>
      </trkpt>
      <trkpt lat="47.13269" lon="-1.53587">
        <ele>73</ele>
        <time>2021-04-22T09:37:49.000Z</time>
      </trkpt>
      <trkpt lat="47.13263" lon="-1.53571">
        <ele>74</ele>
        <time>2021-04-22T09:37:51.000Z</time>
      </trkpt>
      <trkpt lat="47.13258" lon="-1.53555">
        <ele>74</ele>
        <time>2021-04-22T09:37:53.000Z</time>
      </trkpt>
      <trkpt lat="47.13254" lon="-1.5354">
        <ele>74</ele>
        <time>2021-04-22T09:37:55.000Z</time>
      </trkpt>
      <trkpt lat="47.13248" lon="-1.53524">
        <ele>74</ele>
        <time>2021-04-22T09:37:57.000Z</time>
      </trkpt>
      <trkpt lat="47.13243" lon="-1.53507">
        <ele>75</ele>
        <time>2021-04-22T09:37:59.000Z</time>
      </trkpt>
      <trkpt lat="47.13238" lon="-1.53491">
        <ele>74</ele>
        <time>2021-04-22T09:38:01.000Z</time>
      </trkpt>
      <trkpt lat="47.13232" lon="-1.53474">
        <ele>75</ele>
        <time>2021-04-22T09:38:03.000Z</time>
      </trkpt>
      <trkpt lat="47.13227" lon="-1.53458">
        <ele>74</ele>
        <time>2021-04-22T09:38:05.000Z</time>
      </trkpt>
      <trkpt lat="47.13222" lon="-1.53442">
        <ele>74</ele>
        <time>2021-04-22T09:38:07.000Z</time>
      </trkpt>
      <trkpt lat="47.13217" lon="-1.53426">
        <ele>74</ele>
        <time>2021-04-22T09:38:09.000Z</time>
      </trkpt>
      <trkpt lat="47.13212" lon="-1.53409">
        <ele>74</ele>
        <time>2021-04-22T09:38:11.000Z</time>
      </trkpt>
      <trkpt lat="47.13206" lon="-1.53393">
        <ele>74</ele>
        <time>2021-04-22T09:38:13.000Z</time>
      </trkpt>
      <trkpt lat="47.13201" lon="-1.53376">
        <ele>74</ele>
        <time>2021-04-22T09:38:15.000Z</time>
      </trkpt>
      <trkpt lat="47.13196" lon="-1.5336">
        <ele>74</ele>
        <time>2021-04-22T09:38:17.000Z</time>
      </trkpt>
      <trkpt lat="47.1319" lon="-1.53344">
        <ele>74</ele>
        <time>2021-04-22T09:38:19.000Z</time>
      </trkpt>
      <trkpt lat="47.13185" lon="-1.53327">
        <ele>74</ele>
        <time>2021-04-22T09:38:21.000Z</time>
      </trkpt>
      <trkpt lat="47.1318" lon="-1.53311">
        <ele>74</ele>
        <time>2021-04-22T09:38:23.000Z</time>
      </trkpt>
      <trkpt lat="47.13175" lon="-1.53295">
        <ele>74</ele>
        <time>2021-04-22T09:38:25.000Z</time>
      </trkpt>
      <trkpt lat="47.1317" lon="-1.53279">
        <ele>74</ele>
        <time>2021-04-22T09:38:27.000Z</time>
      </trkpt>
      <trkpt lat="47.13165" lon="-1.53264">
        <ele>74</ele>
        <time>2021-04-22T09:38:29.000Z</time>
      </trkpt>
      <trkpt lat="47.13162" lon="-1.5325">
        <ele>74</ele>
        <time>2021-04-22T09:38:31.000Z</time>
      </trkpt>
      <trkpt lat="47.13158" lon="-1.53237">
        <ele>74</ele>
        <time>2021-04-22T09:38:33.000Z</time>
      </trkpt>
      <trkpt lat="47.13157" lon="-1.53221">
        <ele>75</ele>
        <time>2021-04-22T09:38:36.000Z</time>
      </trkpt>
      <trkpt lat="47.13166" lon="-1.53212">
        <ele>74</ele>
        <time>2021-04-22T09:38:38.000Z</time>
      </trkpt>
      <trkpt lat="47.13176" lon="-1.5321">
        <ele>75</ele>
        <time>2021-04-22T09:38:40.000Z</time>
      </trkpt>
      <trkpt lat="47.13187" lon="-1.53206">
        <ele>74</ele>
        <time>2021-04-22T09:38:42.000Z</time>
      </trkpt>
      <trkpt lat="47.13198" lon="-1.53201">
        <ele>75</ele>
        <time>2021-04-22T09:38:44.000Z</time>
      </trkpt>
      <trkpt lat="47.13209" lon="-1.53196">
        <ele>75</ele>
        <time>2021-04-22T09:38:46.000Z</time>
      </trkpt>
      <trkpt lat="47.1322" lon="-1.53192">
        <ele>75</ele>
        <time>2021-04-22T09:38:48.000Z</time>
      </trkpt>
      <trkpt lat="47.13231" lon="-1.53187">
        <ele>75</ele>
        <time>2021-04-22T09:38:50.000Z</time>
      </trkpt>
      <trkpt lat="47.13243" lon="-1.53182">
        <ele>75</ele>
        <time>2021-04-22T09:38:52.000Z</time>
      </trkpt>
      <trkpt lat="47.13254" lon="-1.53178">
        <ele>75</ele>
        <time>2021-04-22T09:38:54.000Z</time>
      </trkpt>
      <trkpt lat="47.13266" lon="-1.53173">
        <ele>76</ele>
        <time>2021-04-22T09:38:56.000Z</time>
      </trkpt>
      <trkpt lat="47.13277" lon="-1.53168">
        <ele>76</ele>
        <time>2021-04-22T09:38:58.000Z</time>
      </trkpt>
      <trkpt lat="47.13289" lon="-1.53162">
        <ele>76</ele>
        <time>2021-04-22T09:39:00.000Z</time>
      </trkpt>
      <trkpt lat="47.133" lon="-1.53157">
        <ele>76</ele>
        <time>2021-04-22T09:39:02.000Z</time>
      </trkpt>
      <trkpt lat="47.13312" lon="-1.53154">
        <ele>76</ele>
        <time>2021-04-22T09:39:04.000Z</time>
      </trkpt>
      <trkpt lat="47.13324" lon="-1.53151">
        <ele>76</ele>
        <time>2021-04-22T09:39:06.000Z</time>
      </trkpt>
      <trkpt lat="47.13335" lon="-1.53147">
        <ele>77</ele>
        <time>2021-04-22T09:39:08.000Z</time>
      </trkpt>
      <trkpt lat="47.13347" lon="-1.53144">
        <ele>77</ele>
        <time>2021-04-22T09:39:10.000Z</time>
      </trkpt>
      <trkpt lat="47.13358" lon="-1.53141">
        <ele>78</ele>
        <time>2021-04-22T09:39:12.000Z</time>
      </trkpt>
      <trkpt lat="47.13369" lon="-1.5314">
        <ele>79</ele>
        <time>2021-04-22T09:39:14.000Z</time>
      </trkpt>
      <trkpt lat="47.13379" lon="-1.53139">
        <ele>80</ele>
        <time>2021-04-22T09:39:16.000Z</time>
      </trkpt>
      <trkpt lat="47.13391" lon="-1.53139">
        <ele>80</ele>
        <time>2021-04-22T09:39:18.000Z</time>
      </trkpt>
      <trkpt lat="47.13403" lon="-1.53139">
        <ele>79</ele>
        <time>2021-04-22T09:39:20.000Z</time>
      </trkpt>
      <trkpt lat="47.13414" lon="-1.53139">
        <ele>80</ele>
        <time>2021-04-22T09:39:22.000Z</time>
      </trkpt>
      <trkpt lat="47.13425" lon="-1.53138">
        <ele>80</ele>
        <time>2021-04-22T09:39:24.000Z</time>
      </trkpt>
      <trkpt lat="47.13433" lon="-1.53125">
        <ele>79</ele>
        <time>2021-04-22T09:39:26.000Z</time>
      </trkpt>
      <trkpt lat="47.1344" lon="-1.5311">
        <ele>79</ele>
        <time>2021-04-22T09:39:28.000Z</time>
      </trkpt>
      <trkpt lat="47.13446" lon="-1.53096">
        <ele>80</ele>
        <time>2021-04-22T09:39:30.000Z</time>
      </trkpt>
      <trkpt lat="47.13452" lon="-1.53081">
        <ele>80</ele>
        <time>2021-04-22T09:39:32.000Z</time>
      </trkpt>
      <trkpt lat="47.13458" lon="-1.53067">
        <ele>80</ele>
        <time>2021-04-22T09:39:34.000Z</time>
      </trkpt>
      <trkpt lat="47.13465" lon="-1.53053">
        <ele>80</ele>
        <time>2021-04-22T09:39:36.000Z</time>
      </trkpt>
      <trkpt lat="47.13471" lon="-1.53039">
        <ele>80</ele>
        <time>2021-04-22T09:39:38.000Z</time>
      </trkpt>
      <trkpt lat="47.13477" lon="-1.53025">
        <ele>80</ele>
        <time>2021-04-22T09:39:40.000Z</time>
      </trkpt>
      <trkpt lat="47.13483" lon="-1.53012">
        <ele>80</ele>
        <time>2021-04-22T09:39:42.000Z</time>
      </trkpt>
      <trkpt lat="47.13489" lon="-1.52999">
        <ele>81</ele>
        <time>2021-04-22T09:39:44.000Z</time>
      </trkpt>
      <trkpt lat="47.13496" lon="-1.52986">
        <ele>80</ele>
        <time>2021-04-22T09:39:46.000Z</time>
      </trkpt>
      <trkpt lat="47.13502" lon="-1.52973">
        <ele>80</ele>
        <time>2021-04-22T09:39:48.000Z</time>
      </trkpt>
      <trkpt lat="47.13508" lon="-1.5296">
        <ele>80</ele>
        <time>2021-04-22T09:39:50.000Z</time>
      </trkpt>
      <trkpt lat="47.13514" lon="-1.52947">
        <ele>80</ele>
        <time>2021-04-22T09:39:52.000Z</time>
      </trkpt>
      <trkpt lat="47.1352" lon="-1.52933">
        <ele>80</ele>
        <time>2021-04-22T09:39:54.000Z</time>
      </trkpt>
      <trkpt lat="47.13525" lon="-1.5292">
        <ele>81</ele>
        <time>2021-04-22T09:39:56.000Z</time>
      </trkpt>
      <trkpt lat="47.13531" lon="-1.52906">
        <ele>81</ele>
        <time>2021-04-22T09:39:58.000Z</time>
      </trkpt>
      <trkpt lat="47.13537" lon="-1.52893">
        <ele>81</ele>
        <time>2021-04-22T09:40:00.000Z</time>
      </trkpt>
      <trkpt lat="47.13544" lon="-1.52879">
        <ele>81</ele>
        <time>2021-04-22T09:40:02.000Z</time>
      </trkpt>
      <trkpt lat="47.1355" lon="-1.52865">
        <ele>82</ele>
        <time>2021-04-22T09:40:04.000Z</time>
      </trkpt>
      <trkpt lat="47.13556" lon="-1.52852">
        <ele>82</ele>
        <time>2021-04-22T09:40:06.000Z</time>
      </trkpt>
      <trkpt lat="47.13562" lon="-1.52838">
        <ele>82</ele>
        <time>2021-04-22T09:40:08.000Z</time>
      </trkpt>
      <trkpt lat="47.13569" lon="-1.52825">
        <ele>81</ele>
        <time>2021-04-22T09:40:10.000Z</time>
      </trkpt>
      <trkpt lat="47.13575" lon="-1.52812">
        <ele>81</ele>
        <time>2021-04-22T09:40:12.000Z</time>
      </trkpt>
      <trkpt lat="47.13581" lon="-1.52798">
        <ele>81</ele>
        <time>2021-04-22T09:40:14.000Z</time>
      </trkpt>
      <trkpt lat="47.13587" lon="-1.52785">
        <ele>81</ele>
        <time>2021-04-22T09:40:16.000Z</time>
      </trkpt>
      <trkpt lat="47.13593" lon="-1.52771">
        <ele>81</ele>
        <time>2021-04-22T09:40:18.000Z</time>
      </trkpt>
      <trkpt lat="47.136" lon="-1.52758">
        <ele>82</ele>
        <time>2021-04-22T09:40:20.000Z</time>
      </trkpt>
      <trkpt lat="47.13607" lon="-1.52745">
        <ele>82</ele>
        <time>2021-04-22T09:40:22.000Z</time>
      </trkpt>
      <trkpt lat="47.13615" lon="-1.52733">
        <ele>82</ele>
        <time>2021-04-22T09:40:24.000Z</time>
      </trkpt>
      <trkpt lat="47.13622" lon="-1.52721">
        <ele>82</ele>
        <time>2021-04-22T09:40:26.000Z</time>
      </trkpt>
      <trkpt lat="47.1363" lon="-1.52709">
        <ele>83</ele>
        <time>2021-04-22T09:40:28.000Z</time>
      </trkpt>
      <trkpt lat="47.13637" lon="-1.52696">
        <ele>83</ele>
        <time>2021-04-22T09:40:30.000Z</time>
      </trkpt>
      <trkpt lat="47.13644" lon="-1.52684">
        <ele>83</ele>
        <time>2021-04-22T09:40:32.000Z</time>
      </trkpt>
      <trkpt lat="47.13652" lon="-1.52671">
        <ele>83</ele>
        <time>2021-04-22T09:40:34.000Z</time>
      </trkpt>
      <trkpt lat="47.13659" lon="-1.52659">
        <ele>84</ele>
        <time>2021-04-22T09:40:36.000Z</time>
      </trkpt>
      <trkpt lat="47.13667" lon="-1.52647">
        <ele>84</ele>
        <time>2021-04-22T09:40:38.000Z</time>
      </trkpt>
      <trkpt lat="47.13675" lon="-1.52635">
        <ele>84</ele>
        <time>2021-04-22T09:40:40.000Z</time>
      </trkpt>
      <trkpt lat="47.13683" lon="-1.52623">
        <ele>84</ele>
        <time>2021-04-22T09:40:42.000Z</time>
      </trkpt>
      <trkpt lat="47.1369" lon="-1.5261">
        <ele>84</ele>
        <time>2021-04-22T09:40:44.000Z</time>
      </trkpt>
      <trkpt lat="47.13697" lon="-1.52598">
        <ele>84</ele>
        <time>2021-04-22T09:40:46.000Z</time>
      </trkpt>
      <trkpt lat="47.13705" lon="-1.52585">
        <ele>84</ele>
        <time>2021-04-22T09:40:48.000Z</time>
      </trkpt>
      <trkpt lat="47.13712" lon="-1.52572">
        <ele>84</ele>
        <time>2021-04-22T09:40:50.000Z</time>
      </trkpt>
      <trkpt lat="47.1372" lon="-1.5256">
        <ele>84</ele>
        <time>2021-04-22T09:40:52.000Z</time>
      </trkpt>
      <trkpt lat="47.13728" lon="-1.52548">
        <ele>85</ele>
        <time>2021-04-22T09:40:54.000Z</time>
      </trkpt>
      <trkpt lat="47.13735" lon="-1.52535">
        <ele>85</ele>
        <time>2021-04-22T09:40:56.000Z</time>
      </trkpt>
      <trkpt lat="47.13743" lon="-1.52522">
        <ele>85</ele>
        <time>2021-04-22T09:40:58.000Z</time>
      </trkpt>
      <trkpt lat="47.13751" lon="-1.5251">
        <ele>85</ele>
        <time>2021-04-22T09:41:00.000Z</time>
      </trkpt>
      <trkpt lat="47.13758" lon="-1.52497">
        <ele>86</ele>
        <time>2021-04-22T09:41:02.000Z</time>
      </trkpt>
      <trkpt lat="47.13766" lon="-1.52485">
        <ele>86</ele>
        <time>2021-04-22T09:41:04.000Z</time>
      </trkpt>
      <trkpt lat="47.13773" lon="-1.52473">
        <ele>86</ele>
        <time>2021-04-22T09:41:06.000Z</time>
      </trkpt>
      <trkpt lat="47.13782" lon="-1.52461">
        <ele>85</ele>
        <time>2021-04-22T09:41:08.000Z</time>
      </trkpt>
      <trkpt lat="47.13791" lon="-1.52449">
        <ele>85</ele>
        <time>2021-04-22T09:41:10.000Z</time>
      </trkpt>
      <trkpt lat="47.13799" lon="-1.52436">
        <ele>85</ele>
        <time>2021-04-22T09:41:12.000Z</time>
      </trkpt>
      <trkpt lat="47.13808" lon="-1.52423">
        <ele>84</ele>
        <time>2021-04-22T09:41:14.000Z</time>
      </trkpt>
      <trkpt lat="47.13816" lon="-1.52411">
        <ele>85</ele>
        <time>2021-04-22T09:41:16.000Z</time>
      </trkpt>
      <trkpt lat="47.13825" lon="-1.52399">
        <ele>85</ele>
        <time>2021-04-22T09:41:18.000Z</time>
      </trkpt>
      <trkpt lat="47.13833" lon="-1.52387">
        <ele>85</ele>
        <time>2021-04-22T09:41:20.000Z</time>
      </trkpt>
      <trkpt lat="47.13841" lon="-1.52374">
        <ele>85</ele>
        <time>2021-04-22T09:41:22.000Z</time>
      </trkpt>
      <trkpt lat="47.13849" lon="-1.52361">
        <ele>85</ele>
        <time>2021-04-22T09:41:24.000Z</time>
      </trkpt>
      <trkpt lat="47.13856" lon="-1.52349">
        <ele>84</ele>
        <time>2021-04-22T09:41:26.000Z</time>
      </trkpt>
      <trkpt lat="47.13862" lon="-1.52335">
        <ele>84</ele>
        <time>2021-04-22T09:41:28.000Z</time>
      </trkpt>
      <trkpt lat="47.13866" lon="-1.5232">
        <ele>84</ele>
        <time>2021-04-22T09:41:30.000Z</time>
      </trkpt>
      <trkpt lat="47.13875" lon="-1.5231">
        <ele>84</ele>
        <time>2021-04-22T09:41:32.000Z</time>
      </trkpt>
      <trkpt lat="47.13886" lon="-1.52302">
        <ele>83</ele>
        <time>2021-04-22T09:41:34.000Z</time>
      </trkpt>
      <trkpt lat="47.13896" lon="-1.52292">
        <ele>83</ele>
        <time>2021-04-22T09:41:36.000Z</time>
      </trkpt>
      <trkpt lat="47.13904" lon="-1.52279">
        <ele>84</ele>
        <time>2021-04-22T09:41:38.000Z</time>
      </trkpt>
      <trkpt lat="47.13912" lon="-1.52267">
        <ele>84</ele>
        <time>2021-04-22T09:41:40.000Z</time>
      </trkpt>
      <trkpt lat="47.1392" lon="-1.52255">
        <ele>84</ele>
        <time>2021-04-22T09:41:42.000Z</time>
      </trkpt>
      <trkpt lat="47.13928" lon="-1.52244">
        <ele>85</ele>
        <time>2021-04-22T09:41:44.000Z</time>
      </trkpt>
      <trkpt lat="47.13935" lon="-1.52233">
        <ele>85</ele>
        <time>2021-04-22T09:41:46.000Z</time>
      </trkpt>
      <trkpt lat="47.13944" lon="-1.52223">
        <ele>85</ele>
        <time>2021-04-22T09:41:48.000Z</time>
      </trkpt>
      <trkpt lat="47.13952" lon="-1.52211">
        <ele>85</ele>
        <time>2021-04-22T09:41:50.000Z</time>
      </trkpt>
      <trkpt lat="47.1396" lon="-1.522">
        <ele>85</ele>
        <time>2021-04-22T09:41:52.000Z</time>
      </trkpt>
      <trkpt lat="47.13969" lon="-1.52189">
        <ele>85</ele>
        <time>2021-04-22T09:41:54.000Z</time>
      </trkpt>
      <trkpt lat="47.13977" lon="-1.52178">
        <ele>84</ele>
        <time>2021-04-22T09:41:56.000Z</time>
      </trkpt>
      <trkpt lat="47.13985" lon="-1.52168">
        <ele>84</ele>
        <time>2021-04-22T09:41:58.000Z</time>
      </trkpt>
      <trkpt lat="47.13994" lon="-1.52158">
        <ele>84</ele>
        <time>2021-04-22T09:42:00.000Z</time>
      </trkpt>
      <trkpt lat="47.14003" lon="-1.5215">
        <ele>84</ele>
        <time>2021-04-22T09:42:02.000Z</time>
      </trkpt>
      <trkpt lat="47.14012" lon="-1.52142">
        <ele>84</ele>
        <time>2021-04-22T09:42:04.000Z</time>
      </trkpt>
      <trkpt lat="47.14019" lon="-1.52132">
        <ele>85</ele>
        <time>2021-04-22T09:42:06.000Z</time>
      </trkpt>
      <trkpt lat="47.14024" lon="-1.52121">
        <ele>85</ele>
        <time>2021-04-22T09:42:08.000Z</time>
      </trkpt>
      <trkpt lat="47.1403" lon="-1.52109">
        <ele>85</ele>
        <time>2021-04-22T09:42:12.000Z</time>
      </trkpt>
      <trkpt lat="47.14041" lon="-1.52098">
        <ele>85</ele>
        <time>2021-04-22T09:42:16.000Z</time>
      </trkpt>
      <trkpt lat="47.14049" lon="-1.52091">
        <ele>86</ele>
        <time>2021-04-22T09:42:18.000Z</time>
      </trkpt>
      <trkpt lat="47.1406" lon="-1.52083">
        <ele>85</ele>
        <time>2021-04-22T09:42:20.000Z</time>
      </trkpt>
      <trkpt lat="47.1407" lon="-1.52071">
        <ele>85</ele>
        <time>2021-04-22T09:42:22.000Z</time>
      </trkpt>
      <trkpt lat="47.14079" lon="-1.5206">
        <ele>85</ele>
        <time>2021-04-22T09:42:24.000Z</time>
      </trkpt>
      <trkpt lat="47.14089" lon="-1.52049">
        <ele>85</ele>
        <time>2021-04-22T09:42:26.000Z</time>
      </trkpt>
      <trkpt lat="47.14099" lon="-1.5204">
        <ele>85</ele>
        <time>2021-04-22T09:42:28.000Z</time>
      </trkpt>
      <trkpt lat="47.14109" lon="-1.5203">
        <ele>84</ele>
        <time>2021-04-22T09:42:30.000Z</time>
      </trkpt>
      <trkpt lat="47.14119" lon="-1.5202">
        <ele>85</ele>
        <time>2021-04-22T09:42:32.000Z</time>
      </trkpt>
      <trkpt lat="47.1413" lon="-1.52011">
        <ele>85</ele>
        <time>2021-04-22T09:42:34.000Z</time>
      </trkpt>
      <trkpt lat="47.1414" lon="-1.52002">
        <ele>85</ele>
        <time>2021-04-22T09:42:36.000Z</time>
      </trkpt>
      <trkpt lat="47.1415" lon="-1.51992">
        <ele>86</ele>
        <time>2021-04-22T09:42:38.000Z</time>
      </trkpt>
      <trkpt lat="47.1416" lon="-1.51982">
        <ele>86</ele>
        <time>2021-04-22T09:42:40.000Z</time>
      </trkpt>
      <trkpt lat="47.1417" lon="-1.51973">
        <ele>86</ele>
        <time>2021-04-22T09:42:42.000Z</time>
      </trkpt>
      <trkpt lat="47.1418" lon="-1.51964">
        <ele>86</ele>
        <time>2021-04-22T09:42:44.000Z</time>
      </trkpt>
      <trkpt lat="47.1419" lon="-1.51955">
        <ele>85</ele>
        <time>2021-04-22T09:42:46.000Z</time>
      </trkpt>
      <trkpt lat="47.142" lon="-1.51946">
        <ele>85</ele>
        <time>2021-04-22T09:42:48.000Z</time>
      </trkpt>
      <trkpt lat="47.1421" lon="-1.51936">
        <ele>85</ele>
        <time>2021-04-22T09:42:50.000Z</time>
      </trkpt>
      <trkpt lat="47.1422" lon="-1.51926">
        <ele>86</ele>
        <time>2021-04-22T09:42:52.000Z</time>
      </trkpt>
      <trkpt lat="47.14229" lon="-1.51917">
        <ele>86</ele>
        <time>2021-04-22T09:42:54.000Z</time>
      </trkpt>
      <trkpt lat="47.14238" lon="-1.51907">
        <ele>85</ele>
        <time>2021-04-22T09:42:56.000Z</time>
      </trkpt>
      <trkpt lat="47.14248" lon="-1.51898">
        <ele>85</ele>
        <time>2021-04-22T09:42:58.000Z</time>
      </trkpt>
      <trkpt lat="47.14258" lon="-1.51888">
        <ele>85</ele>
        <time>2021-04-22T09:43:00.000Z</time>
      </trkpt>
      <trkpt lat="47.14268" lon="-1.51878">
        <ele>85</ele>
        <time>2021-04-22T09:43:02.000Z</time>
      </trkpt>
      <trkpt lat="47.14278" lon="-1.51868">
        <ele>85</ele>
        <time>2021-04-22T09:43:04.000Z</time>
      </trkpt>
      <trkpt lat="47.14288" lon="-1.51858">
        <ele>85</ele>
        <time>2021-04-22T09:43:06.000Z</time>
      </trkpt>
      <trkpt lat="47.14297" lon="-1.51848">
        <ele>85</ele>
        <time>2021-04-22T09:43:08.000Z</time>
      </trkpt>
      <trkpt lat="47.14307" lon="-1.51839">
        <ele>85</ele>
        <time>2021-04-22T09:43:10.000Z</time>
      </trkpt>
      <trkpt lat="47.14316" lon="-1.5183">
        <ele>85</ele>
        <time>2021-04-22T09:43:12.000Z</time>
      </trkpt>
      <trkpt lat="47.14325" lon="-1.5182">
        <ele>85</ele>
        <time>2021-04-22T09:43:14.000Z</time>
      </trkpt>
      <trkpt lat="47.14335" lon="-1.5181">
        <ele>84</ele>
        <time>2021-04-22T09:43:16.000Z</time>
      </trkpt>
      <trkpt lat="47.14345" lon="-1.518">
        <ele>84</ele>
        <time>2021-04-22T09:43:18.000Z</time>
      </trkpt>
      <trkpt lat="47.14355" lon="-1.51789">
        <ele>84</ele>
        <time>2021-04-22T09:43:20.000Z</time>
      </trkpt>
      <trkpt lat="47.14365" lon="-1.5178">
        <ele>84</ele>
        <time>2021-04-22T09:43:22.000Z</time>
      </trkpt>
      <trkpt lat="47.14375" lon="-1.5177">
        <ele>84</ele>
        <time>2021-04-22T09:43:24.000Z</time>
      </trkpt>
      <trkpt lat="47.14384" lon="-1.5176">
        <ele>84</ele>
        <time>2021-04-22T09:43:26.000Z</time>
      </trkpt>
      <trkpt lat="47.14393" lon="-1.51749">
        <ele>84</ele>
        <time>2021-04-22T09:43:28.000Z</time>
      </trkpt>
      <trkpt lat="47.14403" lon="-1.51738">
        <ele>84</ele>
        <time>2021-04-22T09:43:30.000Z</time>
      </trkpt>
      <trkpt lat="47.14413" lon="-1.51727">
        <ele>84</ele>
        <time>2021-04-22T09:43:32.000Z</time>
      </trkpt>
      <trkpt lat="47.14423" lon="-1.51717">
        <ele>84</ele>
        <time>2021-04-22T09:43:34.000Z</time>
      </trkpt>
      <trkpt lat="47.14433" lon="-1.51707">
        <ele>84</ele>
        <time>2021-04-22T09:43:36.000Z</time>
      </trkpt>
      <trkpt lat="47.14444" lon="-1.51696">
        <ele>84</ele>
        <time>2021-04-22T09:43:38.000Z</time>
      </trkpt>
      <trkpt lat="47.14454" lon="-1.51685">
        <ele>84</ele>
        <time>2021-04-22T09:43:40.000Z</time>
      </trkpt>
      <trkpt lat="47.14465" lon="-1.51675">
        <ele>84</ele>
        <time>2021-04-22T09:43:42.000Z</time>
      </trkpt>
      <trkpt lat="47.14475" lon="-1.51664">
        <ele>84</ele>
        <time>2021-04-22T09:43:44.000Z</time>
      </trkpt>
      <trkpt lat="47.14486" lon="-1.51654">
        <ele>84</ele>
        <time>2021-04-22T09:43:46.000Z</time>
      </trkpt>
      <trkpt lat="47.14496" lon="-1.51643">
        <ele>84</ele>
        <time>2021-04-22T09:43:48.000Z</time>
      </trkpt>
      <trkpt lat="47.14506" lon="-1.51631">
        <ele>84</ele>
        <time>2021-04-22T09:43:50.000Z</time>
      </trkpt>
      <trkpt lat="47.14516" lon="-1.51619">
        <ele>84</ele>
        <time>2021-04-22T09:43:52.000Z</time>
      </trkpt>
      <trkpt lat="47.14526" lon="-1.51608">
        <ele>83</ele>
        <time>2021-04-22T09:43:54.000Z</time>
      </trkpt>
      <trkpt lat="47.14536" lon="-1.51596">
        <ele>82</ele>
        <time>2021-04-22T09:43:56.000Z</time>
      </trkpt>
      <trkpt lat="47.14545" lon="-1.51584">
        <ele>82</ele>
        <time>2021-04-22T09:43:58.000Z</time>
      </trkpt>
      <trkpt lat="47.14554" lon="-1.51572">
        <ele>82</ele>
        <time>2021-04-22T09:44:00.000Z</time>
      </trkpt>
      <trkpt lat="47.14563" lon="-1.5156">
        <ele>81</ele>
        <time>2021-04-22T09:44:02.000Z</time>
      </trkpt>
      <trkpt lat="47.14571" lon="-1.51548">
        <ele>82</ele>
        <time>2021-04-22T09:44:04.000Z</time>
      </trkpt>
      <trkpt lat="47.14578" lon="-1.51535">
        <ele>82</ele>
        <time>2021-04-22T09:44:06.000Z</time>
      </trkpt>
      <trkpt lat="47.14585" lon="-1.51522">
        <ele>83</ele>
        <time>2021-04-22T09:44:08.000Z</time>
      </trkpt>
      <trkpt lat="47.14591" lon="-1.51509">
        <ele>83</ele>
        <time>2021-04-22T09:44:10.000Z</time>
      </trkpt>
      <trkpt lat="47.14598" lon="-1.51497">
        <ele>83</ele>
        <time>2021-04-22T09:44:12.000Z</time>
      </trkpt>
      <trkpt lat="47.14604" lon="-1.51483">
        <ele>83</ele>
        <time>2021-04-22T09:44:14.000Z</time>
      </trkpt>
      <trkpt lat="47.14611" lon="-1.51471">
        <ele>83</ele>
        <time>2021-04-22T09:44:16.000Z</time>
      </trkpt>
      <trkpt lat="47.14617" lon="-1.51457">
        <ele>83</ele>
        <time>2021-04-22T09:44:18.000Z</time>
      </trkpt>
      <trkpt lat="47.14624" lon="-1.51444">
        <ele>83</ele>
        <time>2021-04-22T09:44:20.000Z</time>
      </trkpt>
      <trkpt lat="47.14631" lon="-1.5143">
        <ele>83</ele>
        <time>2021-04-22T09:44:22.000Z</time>
      </trkpt>
      <trkpt lat="47.14638" lon="-1.51417">
        <ele>83</ele>
        <time>2021-04-22T09:44:24.000Z</time>
      </trkpt>
      <trkpt lat="47.14645" lon="-1.51402">
        <ele>83</ele>
        <time>2021-04-22T09:44:26.000Z</time>
      </trkpt>
      <trkpt lat="47.14652" lon="-1.51388">
        <ele>82</ele>
        <time>2021-04-22T09:44:28.000Z</time>
      </trkpt>
      <trkpt lat="47.1466" lon="-1.51372">
        <ele>82</ele>
        <time>2021-04-22T09:44:30.000Z</time>
      </trkpt>
      <trkpt lat="47.14668" lon="-1.51356">
        <ele>81</ele>
        <time>2021-04-22T09:44:32.000Z</time>
      </trkpt>
      <trkpt lat="47.14676" lon="-1.5134">
        <ele>81</ele>
        <time>2021-04-22T09:44:34.000Z</time>
      </trkpt>
      <trkpt lat="47.14685" lon="-1.51324">
        <ele>80</ele>
        <time>2021-04-22T09:44:36.000Z</time>
      </trkpt>
      <trkpt lat="47.14692" lon="-1.51308">
        <ele>80</ele>
        <time>2021-04-22T09:44:38.000Z</time>
      </trkpt>
      <trkpt lat="47.147" lon="-1.51292">
        <ele>80</ele>
        <time>2021-04-22T09:44:40.000Z</time>
      </trkpt>
      <trkpt lat="47.14708" lon="-1.51277">
        <ele>80</ele>
        <time>2021-04-22T09:44:42.000Z</time>
      </trkpt>
      <trkpt lat="47.14716" lon="-1.51261">
        <ele>80</ele>
        <time>2021-04-22T09:44:44.000Z</time>
      </trkpt>
      <trkpt lat="47.14724" lon="-1.51245">
        <ele>80</ele>
        <time>2021-04-22T09:44:46.000Z</time>
      </trkpt>
      <trkpt lat="47.14732" lon="-1.5123">
        <ele>79</ele>
        <time>2021-04-22T09:44:48.000Z</time>
      </trkpt>
      <trkpt lat="47.1474" lon="-1.51214">
        <ele>79</ele>
        <time>2021-04-22T09:44:50.000Z</time>
      </trkpt>
      <trkpt lat="47.14748" lon="-1.51199">
        <ele>79</ele>
        <time>2021-04-22T09:44:52.000Z</time>
      </trkpt>
      <trkpt lat="47.14756" lon="-1.51183">
        <ele>79</ele>
        <time>2021-04-22T09:44:54.000Z</time>
      </trkpt>
      <trkpt lat="47.14764" lon="-1.51168">
        <ele>78</ele>
        <time>2021-04-22T09:44:56.000Z</time>
      </trkpt>
      <trkpt lat="47.14771" lon="-1.51154">
        <ele>78</ele>
        <time>2021-04-22T09:44:58.000Z</time>
      </trkpt>
      <trkpt lat="47.14779" lon="-1.51139">
        <ele>78</ele>
        <time>2021-04-22T09:45:00.000Z</time>
      </trkpt>
      <trkpt lat="47.14788" lon="-1.51124">
        <ele>78</ele>
        <time>2021-04-22T09:45:02.000Z</time>
      </trkpt>
      <trkpt lat="47.14796" lon="-1.51109">
        <ele>78</ele>
        <time>2021-04-22T09:45:04.000Z</time>
      </trkpt>
      <trkpt lat="47.14804" lon="-1.51095">
        <ele>77</ele>
        <time>2021-04-22T09:45:06.000Z</time>
      </trkpt>
      <trkpt lat="47.14812" lon="-1.5108">
        <ele>77</ele>
        <time>2021-04-22T09:45:08.000Z</time>
      </trkpt>
      <trkpt lat="47.1482" lon="-1.51066">
        <ele>77</ele>
        <time>2021-04-22T09:45:10.000Z</time>
      </trkpt>
      <trkpt lat="47.14828" lon="-1.51051">
        <ele>78</ele>
        <time>2021-04-22T09:45:12.000Z</time>
      </trkpt>
      <trkpt lat="47.14837" lon="-1.51038">
        <ele>78</ele>
        <time>2021-04-22T09:45:14.000Z</time>
      </trkpt>
      <trkpt lat="47.14845" lon="-1.51024">
        <ele>78</ele>
        <time>2021-04-22T09:45:16.000Z</time>
      </trkpt>
      <trkpt lat="47.14853" lon="-1.5101">
        <ele>78</ele>
        <time>2021-04-22T09:45:18.000Z</time>
      </trkpt>
      <trkpt lat="47.14861" lon="-1.50997">
        <ele>79</ele>
        <time>2021-04-22T09:45:20.000Z</time>
      </trkpt>
      <trkpt lat="47.1487" lon="-1.50983">
        <ele>79</ele>
        <time>2021-04-22T09:45:22.000Z</time>
      </trkpt>
      <trkpt lat="47.14879" lon="-1.50969">
        <ele>78</ele>
        <time>2021-04-22T09:45:24.000Z</time>
      </trkpt>
      <trkpt lat="47.14888" lon="-1.50955">
        <ele>78</ele>
        <time>2021-04-22T09:45:26.000Z</time>
      </trkpt>
      <trkpt lat="47.14897" lon="-1.50941">
        <ele>78</ele>
        <time>2021-04-22T09:45:28.000Z</time>
      </trkpt>
      <trkpt lat="47.14906" lon="-1.50928">
        <ele>78</ele>
        <time>2021-04-22T09:45:30.000Z</time>
      </trkpt>
      <trkpt lat="47.14915" lon="-1.50914">
        <ele>77</ele>
        <time>2021-04-22T09:45:32.000Z</time>
      </trkpt>
      <trkpt lat="47.14924" lon="-1.50901">
        <ele>77</ele>
        <time>2021-04-22T09:45:34.000Z</time>
      </trkpt>
      <trkpt lat="47.14932" lon="-1.50888">
        <ele>77</ele>
        <time>2021-04-22T09:45:36.000Z</time>
      </trkpt>
      <trkpt lat="47.14942" lon="-1.50874">
        <ele>76</ele>
        <time>2021-04-22T09:45:38.000Z</time>
      </trkpt>
      <trkpt lat="47.14951" lon="-1.5086">
        <ele>76</ele>
        <time>2021-04-22T09:45:40.000Z</time>
      </trkpt>
      <trkpt lat="47.1496" lon="-1.50848">
        <ele>76</ele>
        <time>2021-04-22T09:45:42.000Z</time>
      </trkpt>
      <trkpt lat="47.1497" lon="-1.50835">
        <ele>76</ele>
        <time>2021-04-22T09:45:44.000Z</time>
      </trkpt>
      <trkpt lat="47.14979" lon="-1.50822">
        <ele>76</ele>
        <time>2021-04-22T09:45:46.000Z</time>
      </trkpt>
      <trkpt lat="47.14989" lon="-1.50809">
        <ele>75</ele>
        <time>2021-04-22T09:45:48.000Z</time>
      </trkpt>
      <trkpt lat="47.14999" lon="-1.50796">
        <ele>75</ele>
        <time>2021-04-22T09:45:50.000Z</time>
      </trkpt>
      <trkpt lat="47.15009" lon="-1.50784">
        <ele>75</ele>
        <time>2021-04-22T09:45:52.000Z</time>
      </trkpt>
      <trkpt lat="47.15019" lon="-1.5077">
        <ele>74</ele>
        <time>2021-04-22T09:45:54.000Z</time>
      </trkpt>
      <trkpt lat="47.15029" lon="-1.50758">
        <ele>74</ele>
        <time>2021-04-22T09:45:56.000Z</time>
      </trkpt>
      <trkpt lat="47.15039" lon="-1.50745">
        <ele>74</ele>
        <time>2021-04-22T09:45:58.000Z</time>
      </trkpt>
      <trkpt lat="47.15049" lon="-1.50733">
        <ele>74</ele>
        <time>2021-04-22T09:46:00.000Z</time>
      </trkpt>
      <trkpt lat="47.15059" lon="-1.50721">
        <ele>74</ele>
        <time>2021-04-22T09:46:02.000Z</time>
      </trkpt>
      <trkpt lat="47.15069" lon="-1.50708">
        <ele>74</ele>
        <time>2021-04-22T09:46:04.000Z</time>
      </trkpt>
      <trkpt lat="47.15079" lon="-1.50696">
        <ele>74</ele>
        <time>2021-04-22T09:46:06.000Z</time>
      </trkpt>
      <trkpt lat="47.15089" lon="-1.50684">
        <ele>74</ele>
        <time>2021-04-22T09:46:08.000Z</time>
      </trkpt>
      <trkpt lat="47.15099" lon="-1.50673">
        <ele>74</ele>
        <time>2021-04-22T09:46:10.000Z</time>
      </trkpt>
      <trkpt lat="47.15109" lon="-1.50661">
        <ele>74</ele>
        <time>2021-04-22T09:46:12.000Z</time>
      </trkpt>
      <trkpt lat="47.15119" lon="-1.5065">
        <ele>74</ele>
        <time>2021-04-22T09:46:14.000Z</time>
      </trkpt>
      <trkpt lat="47.15128" lon="-1.50639">
        <ele>74</ele>
        <time>2021-04-22T09:46:16.000Z</time>
      </trkpt>
      <trkpt lat="47.15137" lon="-1.50628">
        <ele>74</ele>
        <time>2021-04-22T09:46:18.000Z</time>
      </trkpt>
      <trkpt lat="47.15147" lon="-1.50618">
        <ele>74</ele>
        <time>2021-04-22T09:46:20.000Z</time>
      </trkpt>
      <trkpt lat="47.15156" lon="-1.50608">
        <ele>74</ele>
        <time>2021-04-22T09:46:22.000Z</time>
      </trkpt>
      <trkpt lat="47.15165" lon="-1.50598">
        <ele>74</ele>
        <time>2021-04-22T09:46:24.000Z</time>
      </trkpt>
      <trkpt lat="47.15174" lon="-1.50587">
        <ele>75</ele>
        <time>2021-04-22T09:46:26.000Z</time>
      </trkpt>
      <trkpt lat="47.15183" lon="-1.50577">
        <ele>75</ele>
        <time>2021-04-22T09:46:28.000Z</time>
      </trkpt>
      <trkpt lat="47.15191" lon="-1.50566">
        <ele>75</ele>
        <time>2021-04-22T09:46:30.000Z</time>
      </trkpt>
      <trkpt lat="47.15201" lon="-1.50555">
        <ele>76</ele>
        <time>2021-04-22T09:46:32.000Z</time>
      </trkpt>
      <trkpt lat="47.1521" lon="-1.50545">
        <ele>76</ele>
        <time>2021-04-22T09:46:34.000Z</time>
      </trkpt>
      <trkpt lat="47.15219" lon="-1.50534">
        <ele>77</ele>
        <time>2021-04-22T09:46:36.000Z</time>
      </trkpt>
      <trkpt lat="47.15229" lon="-1.50523">
        <ele>77</ele>
        <time>2021-04-22T09:46:38.000Z</time>
      </trkpt>
      <trkpt lat="47.15238" lon="-1.50512">
        <ele>77</ele>
        <time>2021-04-22T09:46:40.000Z</time>
      </trkpt>
      <trkpt lat="47.15247" lon="-1.50502">
        <ele>77</ele>
        <time>2021-04-22T09:46:42.000Z</time>
      </trkpt>
      <trkpt lat="47.15257" lon="-1.5049">
        <ele>77</ele>
        <time>2021-04-22T09:46:44.000Z</time>
      </trkpt>
      <trkpt lat="47.15266" lon="-1.5048">
        <ele>77</ele>
        <time>2021-04-22T09:46:46.000Z</time>
      </trkpt>
      <trkpt lat="47.15276" lon="-1.50468">
        <ele>77</ele>
        <time>2021-04-22T09:46:48.000Z</time>
      </trkpt>
      <trkpt lat="47.15285" lon="-1.50456">
        <ele>76</ele>
        <time>2021-04-22T09:46:50.000Z</time>
      </trkpt>
      <trkpt lat="47.15295" lon="-1.50446">
        <ele>76</ele>
        <time>2021-04-22T09:46:52.000Z</time>
      </trkpt>
      <trkpt lat="47.15304" lon="-1.50435">
        <ele>76</ele>
        <time>2021-04-22T09:46:54.000Z</time>
      </trkpt>
      <trkpt lat="47.15314" lon="-1.50425">
        <ele>76</ele>
        <time>2021-04-22T09:46:56.000Z</time>
      </trkpt>
      <trkpt lat="47.15323" lon="-1.50414">
        <ele>76</ele>
        <time>2021-04-22T09:46:58.000Z</time>
      </trkpt>
      <trkpt lat="47.15333" lon="-1.50403">
        <ele>76</ele>
        <time>2021-04-22T09:47:00.000Z</time>
      </trkpt>
      <trkpt lat="47.15343" lon="-1.50391">
        <ele>77</ele>
        <time>2021-04-22T09:47:02.000Z</time>
      </trkpt>
      <trkpt lat="47.15352" lon="-1.5038">
        <ele>77</ele>
        <time>2021-04-22T09:47:04.000Z</time>
      </trkpt>
      <trkpt lat="47.15362" lon="-1.50368">
        <ele>77</ele>
        <time>2021-04-22T09:47:06.000Z</time>
      </trkpt>
      <trkpt lat="47.15373" lon="-1.50357">
        <ele>77</ele>
        <time>2021-04-22T09:47:08.000Z</time>
      </trkpt>
      <trkpt lat="47.15382" lon="-1.50346">
        <ele>77</ele>
        <time>2021-04-22T09:47:10.000Z</time>
      </trkpt>
      <trkpt lat="47.15392" lon="-1.50335">
        <ele>78</ele>
        <time>2021-04-22T09:47:12.000Z</time>
      </trkpt>
      <trkpt lat="47.15403" lon="-1.50325">
        <ele>78</ele>
        <time>2021-04-22T09:47:14.000Z</time>
      </trkpt>
      <trkpt lat="47.15413" lon="-1.50316">
        <ele>78</ele>
        <time>2021-04-22T09:47:16.000Z</time>
      </trkpt>
      <trkpt lat="47.15424" lon="-1.50308">
        <ele>78</ele>
        <time>2021-04-22T09:47:18.000Z</time>
      </trkpt>
      <trkpt lat="47.15435" lon="-1.503">
        <ele>78</ele>
        <time>2021-04-22T09:47:20.000Z</time>
      </trkpt>
      <trkpt lat="47.15448" lon="-1.50293">
        <ele>78</ele>
        <time>2021-04-22T09:47:22.000Z</time>
      </trkpt>
      <trkpt lat="47.1546" lon="-1.50288">
        <ele>78</ele>
        <time>2021-04-22T09:47:24.000Z</time>
      </trkpt>
      <trkpt lat="47.15472" lon="-1.50282">
        <ele>78</ele>
        <time>2021-04-22T09:47:26.000Z</time>
      </trkpt>
      <trkpt lat="47.15484" lon="-1.50276">
        <ele>77</ele>
        <time>2021-04-22T09:47:28.000Z</time>
      </trkpt>
      <trkpt lat="47.15497" lon="-1.50271">
        <ele>77</ele>
        <time>2021-04-22T09:47:30.000Z</time>
      </trkpt>
      <trkpt lat="47.15509" lon="-1.50266">
        <ele>77</ele>
        <time>2021-04-22T09:47:32.000Z</time>
      </trkpt>
      <trkpt lat="47.15521" lon="-1.5026">
        <ele>77</ele>
        <time>2021-04-22T09:47:34.000Z</time>
      </trkpt>
      <trkpt lat="47.15534" lon="-1.50252">
        <ele>77</ele>
        <time>2021-04-22T09:47:36.000Z</time>
      </trkpt>
      <trkpt lat="47.15546" lon="-1.50244">
        <ele>77</ele>
        <time>2021-04-22T09:47:38.000Z</time>
      </trkpt>
      <trkpt lat="47.15558" lon="-1.50234">
        <ele>76</ele>
        <time>2021-04-22T09:47:40.000Z</time>
      </trkpt>
      <trkpt lat="47.15569" lon="-1.50223">
        <ele>76</ele>
        <time>2021-04-22T09:47:42.000Z</time>
      </trkpt>
      <trkpt lat="47.15579" lon="-1.50213">
        <ele>76</ele>
        <time>2021-04-22T09:47:44.000Z</time>
      </trkpt>
      <trkpt lat="47.15589" lon="-1.50202">
        <ele>76</ele>
        <time>2021-04-22T09:47:46.000Z</time>
      </trkpt>
      <trkpt lat="47.156" lon="-1.50193">
        <ele>76</ele>
        <time>2021-04-22T09:47:48.000Z</time>
      </trkpt>
      <trkpt lat="47.1561" lon="-1.50183">
        <ele>76</ele>
        <time>2021-04-22T09:47:50.000Z</time>
      </trkpt>
      <trkpt lat="47.1562" lon="-1.50172">
        <ele>76</ele>
        <time>2021-04-22T09:47:52.000Z</time>
      </trkpt>
      <trkpt lat="47.15631" lon="-1.50162">
        <ele>76</ele>
        <time>2021-04-22T09:47:54.000Z</time>
      </trkpt>
      <trkpt lat="47.15641" lon="-1.50152">
        <ele>75</ele>
        <time>2021-04-22T09:47:56.000Z</time>
      </trkpt>
      <trkpt lat="47.15651" lon="-1.50142">
        <ele>75</ele>
        <time>2021-04-22T09:47:58.000Z</time>
      </trkpt>
      <trkpt lat="47.15662" lon="-1.50131">
        <ele>75</ele>
        <time>2021-04-22T09:48:00.000Z</time>
      </trkpt>
      <trkpt lat="47.15672" lon="-1.5012">
        <ele>75</ele>
        <time>2021-04-22T09:48:02.000Z</time>
      </trkpt>
      <trkpt lat="47.15682" lon="-1.50108">
        <ele>75</ele>
        <time>2021-04-22T09:48:04.000Z</time>
      </trkpt>
      <trkpt lat="47.1569" lon="-1.50096">
        <ele>76</ele>
        <time>2021-04-22T09:48:06.000Z</time>
      </trkpt>
      <trkpt lat="47.15698" lon="-1.50083">
        <ele>76</ele>
        <time>2021-04-22T09:48:08.000Z</time>
      </trkpt>
      <trkpt lat="47.15706" lon="-1.50069">
        <ele>76</ele>
        <time>2021-04-22T09:48:10.000Z</time>
      </trkpt>
      <trkpt lat="47.15715" lon="-1.50054">
        <ele>76</ele>
        <time>2021-04-22T09:48:12.000Z</time>
      </trkpt>
      <trkpt lat="47.15723" lon="-1.50036">
        <ele>75</ele>
        <time>2021-04-22T09:48:14.000Z</time>
      </trkpt>
      <trkpt lat="47.15731" lon="-1.50019">
        <ele>76</ele>
        <time>2021-04-22T09:48:16.000Z</time>
      </trkpt>
      <trkpt lat="47.15739" lon="-1.50003">
        <ele>75</ele>
        <time>2021-04-22T09:48:18.000Z</time>
      </trkpt>
      <trkpt lat="47.15748" lon="-1.49986">
        <ele>76</ele>
        <time>2021-04-22T09:48:20.000Z</time>
      </trkpt>
      <trkpt lat="47.15757" lon="-1.49969">
        <ele>76</ele>
        <time>2021-04-22T09:48:22.000Z</time>
      </trkpt>
      <trkpt lat="47.15765" lon="-1.49953">
        <ele>77</ele>
        <time>2021-04-22T09:48:24.000Z</time>
      </trkpt>
      <trkpt lat="47.15773" lon="-1.49936">
        <ele>76</ele>
        <time>2021-04-22T09:48:26.000Z</time>
      </trkpt>
      <trkpt lat="47.15782" lon="-1.4992">
        <ele>76</ele>
        <time>2021-04-22T09:48:28.000Z</time>
      </trkpt>
      <trkpt lat="47.1579" lon="-1.49904">
        <ele>76</ele>
        <time>2021-04-22T09:48:30.000Z</time>
      </trkpt>
      <trkpt lat="47.15799" lon="-1.49889">
        <ele>76</ele>
        <time>2021-04-22T09:48:32.000Z</time>
      </trkpt>
      <trkpt lat="47.15807" lon="-1.49873">
        <ele>76</ele>
        <time>2021-04-22T09:48:34.000Z</time>
      </trkpt>
      <trkpt lat="47.15815" lon="-1.49857">
        <ele>76</ele>
        <time>2021-04-22T09:48:36.000Z</time>
      </trkpt>
      <trkpt lat="47.15824" lon="-1.4984">
        <ele>76</ele>
        <time>2021-04-22T09:48:38.000Z</time>
      </trkpt>
      <trkpt lat="47.15832" lon="-1.49824">
        <ele>76</ele>
        <time>2021-04-22T09:48:40.000Z</time>
      </trkpt>
      <trkpt lat="47.1584" lon="-1.49808">
        <ele>75</ele>
        <time>2021-04-22T09:48:42.000Z</time>
      </trkpt>
      <trkpt lat="47.15849" lon="-1.49792">
        <ele>76</ele>
        <time>2021-04-22T09:48:44.000Z</time>
      </trkpt>
      <trkpt lat="47.15857" lon="-1.49775">
        <ele>76</ele>
        <time>2021-04-22T09:48:46.000Z</time>
      </trkpt>
      <trkpt lat="47.15865" lon="-1.49759">
        <ele>75</ele>
        <time>2021-04-22T09:48:48.000Z</time>
      </trkpt>
      <trkpt lat="47.15873" lon="-1.49742">
        <ele>76</ele>
        <time>2021-04-22T09:48:50.000Z</time>
      </trkpt>
      <trkpt lat="47.15882" lon="-1.49725">
        <ele>76</ele>
        <time>2021-04-22T09:48:52.000Z</time>
      </trkpt>
      <trkpt lat="47.15891" lon="-1.49709">
        <ele>76</ele>
        <time>2021-04-22T09:48:54.000Z</time>
      </trkpt>
      <trkpt lat="47.15899" lon="-1.49691">
        <ele>75</ele>
        <time>2021-04-22T09:48:56.000Z</time>
      </trkpt>
      <trkpt lat="47.15908" lon="-1.49672">
        <ele>74</ele>
        <time>2021-04-22T09:48:58.000Z</time>
      </trkpt>
      <trkpt lat="47.15918" lon="-1.49655">
        <ele>74</ele>
        <time>2021-04-22T09:49:00.000Z</time>
      </trkpt>
      <trkpt lat="47.15928" lon="-1.49637">
        <ele>74</ele>
        <time>2021-04-22T09:49:02.000Z</time>
      </trkpt>
      <trkpt lat="47.15937" lon="-1.49619">
        <ele>74</ele>
        <time>2021-04-22T09:49:04.000Z</time>
      </trkpt>
      <trkpt lat="47.15946" lon="-1.49601">
        <ele>73</ele>
        <time>2021-04-22T09:49:06.000Z</time>
      </trkpt>
      <trkpt lat="47.15956" lon="-1.49583">
        <ele>72</ele>
        <time>2021-04-22T09:49:08.000Z</time>
      </trkpt>
      <trkpt lat="47.15965" lon="-1.49566">
        <ele>72</ele>
        <time>2021-04-22T09:49:10.000Z</time>
      </trkpt>
      <trkpt lat="47.15974" lon="-1.49549">
        <ele>72</ele>
        <time>2021-04-22T09:49:12.000Z</time>
      </trkpt>
      <trkpt lat="47.15984" lon="-1.49531">
        <ele>71</ele>
        <time>2021-04-22T09:49:14.000Z</time>
      </trkpt>
      <trkpt lat="47.15993" lon="-1.49513">
        <ele>70</ele>
        <time>2021-04-22T09:49:16.000Z</time>
      </trkpt>
      <trkpt lat="47.16002" lon="-1.49495">
        <ele>70</ele>
        <time>2021-04-22T09:49:18.000Z</time>
      </trkpt>
      <trkpt lat="47.16011" lon="-1.49477">
        <ele>70</ele>
        <time>2021-04-22T09:49:20.000Z</time>
      </trkpt>
      <trkpt lat="47.1602" lon="-1.4946">
        <ele>70</ele>
        <time>2021-04-22T09:49:22.000Z</time>
      </trkpt>
      <trkpt lat="47.16029" lon="-1.49444">
        <ele>71</ele>
        <time>2021-04-22T09:49:24.000Z</time>
      </trkpt>
      <trkpt lat="47.16038" lon="-1.49428">
        <ele>71</ele>
        <time>2021-04-22T09:49:26.000Z</time>
      </trkpt>
      <trkpt lat="47.16046" lon="-1.49412">
        <ele>71</ele>
        <time>2021-04-22T09:49:28.000Z</time>
      </trkpt>
      <trkpt lat="47.16053" lon="-1.49395">
        <ele>71</ele>
        <time>2021-04-22T09:49:30.000Z</time>
      </trkpt>
      <trkpt lat="47.16064" lon="-1.49381">
        <ele>71</ele>
        <time>2021-04-22T09:49:32.000Z</time>
      </trkpt>
      <trkpt lat="47.16076" lon="-1.49368">
        <ele>72</ele>
        <time>2021-04-22T09:49:34.000Z</time>
      </trkpt>
      <trkpt lat="47.16087" lon="-1.49355">
        <ele>72</ele>
        <time>2021-04-22T09:49:36.000Z</time>
      </trkpt>
      <trkpt lat="47.16098" lon="-1.49341">
        <ele>72</ele>
        <time>2021-04-22T09:49:38.000Z</time>
      </trkpt>
      <trkpt lat="47.16109" lon="-1.49328">
        <ele>72</ele>
        <time>2021-04-22T09:49:40.000Z</time>
      </trkpt>
      <trkpt lat="47.16119" lon="-1.49315">
        <ele>71</ele>
        <time>2021-04-22T09:49:42.000Z</time>
      </trkpt>
      <trkpt lat="47.16129" lon="-1.49302">
        <ele>71</ele>
        <time>2021-04-22T09:49:44.000Z</time>
      </trkpt>
      <trkpt lat="47.16139" lon="-1.49287">
        <ele>71</ele>
        <time>2021-04-22T09:49:46.000Z</time>
      </trkpt>
      <trkpt lat="47.16149" lon="-1.49271">
        <ele>71</ele>
        <time>2021-04-22T09:49:48.000Z</time>
      </trkpt>
      <trkpt lat="47.16157" lon="-1.49253">
        <ele>71</ele>
        <time>2021-04-22T09:49:50.000Z</time>
      </trkpt>
      <trkpt lat="47.16165" lon="-1.49236">
        <ele>71</ele>
        <time>2021-04-22T09:49:52.000Z</time>
      </trkpt>
      <trkpt lat="47.16173" lon="-1.49219">
        <ele>72</ele>
        <time>2021-04-22T09:49:54.000Z</time>
      </trkpt>
      <trkpt lat="47.16184" lon="-1.49205">
        <ele>72</ele>
        <time>2021-04-22T09:49:56.000Z</time>
      </trkpt>
      <trkpt lat="47.16195" lon="-1.49193">
        <ele>73</ele>
        <time>2021-04-22T09:49:58.000Z</time>
      </trkpt>
      <trkpt lat="47.16205" lon="-1.49181">
        <ele>73</ele>
        <time>2021-04-22T09:50:00.000Z</time>
      </trkpt>
      <trkpt lat="47.16217" lon="-1.49169">
        <ele>73</ele>
        <time>2021-04-22T09:50:02.000Z</time>
      </trkpt>
      <trkpt lat="47.16228" lon="-1.49158">
        <ele>73</ele>
        <time>2021-04-22T09:50:04.000Z</time>
      </trkpt>
      <trkpt lat="47.16239" lon="-1.49146">
        <ele>73</ele>
        <time>2021-04-22T09:50:06.000Z</time>
      </trkpt>
      <trkpt lat="47.16252" lon="-1.49135">
        <ele>73</ele>
        <time>2021-04-22T09:50:08.000Z</time>
      </trkpt>
      <trkpt lat="47.16264" lon="-1.49123">
        <ele>72</ele>
        <time>2021-04-22T09:50:10.000Z</time>
      </trkpt>
      <trkpt lat="47.16276" lon="-1.4911">
        <ele>71</ele>
        <time>2021-04-22T09:50:12.000Z</time>
      </trkpt>
      <trkpt lat="47.16289" lon="-1.49098">
        <ele>70</ele>
        <time>2021-04-22T09:50:14.000Z</time>
      </trkpt>
      <trkpt lat="47.16301" lon="-1.49085">
        <ele>70</ele>
        <time>2021-04-22T09:50:16.000Z</time>
      </trkpt>
      <trkpt lat="47.16314" lon="-1.49072">
        <ele>69</ele>
        <time>2021-04-22T09:50:18.000Z</time>
      </trkpt>
      <trkpt lat="47.16327" lon="-1.49059">
        <ele>68</ele>
        <time>2021-04-22T09:50:20.000Z</time>
      </trkpt>
      <trkpt lat="47.1634" lon="-1.49046">
        <ele>68</ele>
        <time>2021-04-22T09:50:22.000Z</time>
      </trkpt>
      <trkpt lat="47.16352" lon="-1.49033">
        <ele>68</ele>
        <time>2021-04-22T09:50:24.000Z</time>
      </trkpt>
      <trkpt lat="47.16364" lon="-1.49019">
        <ele>67</ele>
        <time>2021-04-22T09:50:26.000Z</time>
      </trkpt>
      <trkpt lat="47.16374" lon="-1.49003">
        <ele>67</ele>
        <time>2021-04-22T09:50:28.000Z</time>
      </trkpt>
      <trkpt lat="47.16384" lon="-1.48986">
        <ele>68</ele>
        <time>2021-04-22T09:50:30.000Z</time>
      </trkpt>
      <trkpt lat="47.16394" lon="-1.48969">
        <ele>68</ele>
        <time>2021-04-22T09:50:32.000Z</time>
      </trkpt>
      <trkpt lat="47.16404" lon="-1.48955">
        <ele>68</ele>
        <time>2021-04-22T09:50:34.000Z</time>
      </trkpt>
      <trkpt lat="47.16415" lon="-1.48942">
        <ele>69</ele>
        <time>2021-04-22T09:50:36.000Z</time>
      </trkpt>
      <trkpt lat="47.16426" lon="-1.4893">
        <ele>69</ele>
        <time>2021-04-22T09:50:38.000Z</time>
      </trkpt>
      <trkpt lat="47.16436" lon="-1.48917">
        <ele>69</ele>
        <time>2021-04-22T09:50:40.000Z</time>
      </trkpt>
      <trkpt lat="47.16446" lon="-1.48903">
        <ele>70</ele>
        <time>2021-04-22T09:50:42.000Z</time>
      </trkpt>
      <trkpt lat="47.16457" lon="-1.48889">
        <ele>70</ele>
        <time>2021-04-22T09:50:44.000Z</time>
      </trkpt>
      <trkpt lat="47.16467" lon="-1.48872">
        <ele>70</ele>
        <time>2021-04-22T09:50:46.000Z</time>
      </trkpt>
      <trkpt lat="47.16474" lon="-1.48854">
        <ele>70</ele>
        <time>2021-04-22T09:50:48.000Z</time>
      </trkpt>
      <trkpt lat="47.16482" lon="-1.48835">
        <ele>69</ele>
        <time>2021-04-22T09:50:50.000Z</time>
      </trkpt>
      <trkpt lat="47.16488" lon="-1.48817">
        <ele>69</ele>
        <time>2021-04-22T09:50:52.000Z</time>
      </trkpt>
      <trkpt lat="47.16496" lon="-1.488">
        <ele>68</ele>
        <time>2021-04-22T09:50:54.000Z</time>
      </trkpt>
      <trkpt lat="47.16503" lon="-1.48783">
        <ele>68</ele>
        <time>2021-04-22T09:50:56.000Z</time>
      </trkpt>
      <trkpt lat="47.16509" lon="-1.48764">
        <ele>68</ele>
        <time>2021-04-22T09:50:58.000Z</time>
      </trkpt>
      <trkpt lat="47.16515" lon="-1.48745">
        <ele>67</ele>
        <time>2021-04-22T09:51:00.000Z</time>
      </trkpt>
      <trkpt lat="47.16518" lon="-1.48725">
        <ele>67</ele>
        <time>2021-04-22T09:51:02.000Z</time>
      </trkpt>
      <trkpt lat="47.16521" lon="-1.48704">
        <ele>67</ele>
        <time>2021-04-22T09:51:04.000Z</time>
      </trkpt>
      <trkpt lat="47.16525" lon="-1.48684">
        <ele>67</ele>
        <time>2021-04-22T09:51:06.000Z</time>
      </trkpt>
      <trkpt lat="47.16528" lon="-1.48663">
        <ele>67</ele>
        <time>2021-04-22T09:51:08.000Z</time>
      </trkpt>
      <trkpt lat="47.16532" lon="-1.48642">
        <ele>67</ele>
        <time>2021-04-22T09:51:10.000Z</time>
      </trkpt>
      <trkpt lat="47.16535" lon="-1.48623">
        <ele>67</ele>
        <time>2021-04-22T09:51:12.000Z</time>
      </trkpt>
      <trkpt lat="47.16538" lon="-1.48603">
        <ele>66</ele>
        <time>2021-04-22T09:51:14.000Z</time>
      </trkpt>
      <trkpt lat="47.1654" lon="-1.48583">
        <ele>66</ele>
        <time>2021-04-22T09:51:16.000Z</time>
      </trkpt>
      <trkpt lat="47.1654" lon="-1.48561">
        <ele>66</ele>
        <time>2021-04-22T09:51:18.000Z</time>
      </trkpt>
      <trkpt lat="47.16539" lon="-1.48539">
        <ele>65</ele>
        <time>2021-04-22T09:51:20.000Z</time>
      </trkpt>
      <trkpt lat="47.16536" lon="-1.48518">
        <ele>65</ele>
        <time>2021-04-22T09:51:22.000Z</time>
      </trkpt>
      <trkpt lat="47.16533" lon="-1.48497">
        <ele>64</ele>
        <time>2021-04-22T09:51:24.000Z</time>
      </trkpt>
      <trkpt lat="47.16529" lon="-1.48476">
        <ele>64</ele>
        <time>2021-04-22T09:51:26.000Z</time>
      </trkpt>
      <trkpt lat="47.16526" lon="-1.48456">
        <ele>63</ele>
        <time>2021-04-22T09:51:28.000Z</time>
      </trkpt>
      <trkpt lat="47.16523" lon="-1.48435">
        <ele>63</ele>
        <time>2021-04-22T09:51:30.000Z</time>
      </trkpt>
      <trkpt lat="47.1652" lon="-1.48414">
        <ele>63</ele>
        <time>2021-04-22T09:51:32.000Z</time>
      </trkpt>
      <trkpt lat="47.16516" lon="-1.48398">
        <ele>63</ele>
        <time>2021-04-22T09:51:34.000Z</time>
      </trkpt>
      <trkpt lat="47.1651" lon="-1.48382">
        <ele>63</ele>
        <time>2021-04-22T09:51:39.000Z</time>
      </trkpt>
      <trkpt lat="47.16508" lon="-1.48368">
        <ele>62</ele>
        <time>2021-04-22T09:51:41.000Z</time>
      </trkpt>
      <trkpt lat="47.16507" lon="-1.48349">
        <ele>62</ele>
        <time>2021-04-22T09:51:43.000Z</time>
      </trkpt>
      <trkpt lat="47.1651" lon="-1.48327">
        <ele>61</ele>
        <time>2021-04-22T09:51:45.000Z</time>
      </trkpt>
      <trkpt lat="47.16513" lon="-1.48306">
        <ele>60</ele>
        <time>2021-04-22T09:51:47.000Z</time>
      </trkpt>
      <trkpt lat="47.16516" lon="-1.48286">
        <ele>60</ele>
        <time>2021-04-22T09:51:49.000Z</time>
      </trkpt>
      <trkpt lat="47.16518" lon="-1.48267">
        <ele>61</ele>
        <time>2021-04-22T09:51:51.000Z</time>
      </trkpt>
      <trkpt lat="47.1652" lon="-1.48247">
        <ele>61</ele>
        <time>2021-04-22T09:51:53.000Z</time>
      </trkpt>
      <trkpt lat="47.16516" lon="-1.48229">
        <ele>60</ele>
        <time>2021-04-22T09:51:55.000Z</time>
      </trkpt>
      <trkpt lat="47.16511" lon="-1.48211">
        <ele>61</ele>
        <time>2021-04-22T09:51:57.000Z</time>
      </trkpt>
      <trkpt lat="47.16507" lon="-1.48192">
        <ele>60</ele>
        <time>2021-04-22T09:51:59.000Z</time>
      </trkpt>
      <trkpt lat="47.16502" lon="-1.48174">
        <ele>60</ele>
        <time>2021-04-22T09:52:01.000Z</time>
      </trkpt>
      <trkpt lat="47.16498" lon="-1.48156">
        <ele>60</ele>
        <time>2021-04-22T09:52:03.000Z</time>
      </trkpt>
      <trkpt lat="47.16495" lon="-1.48136">
        <ele>60</ele>
        <time>2021-04-22T09:52:05.000Z</time>
      </trkpt>
      <trkpt lat="47.16494" lon="-1.48116">
        <ele>60</ele>
        <time>2021-04-22T09:52:07.000Z</time>
      </trkpt>
      <trkpt lat="47.16491" lon="-1.481">
        <ele>60</ele>
        <time>2021-04-22T09:52:09.000Z</time>
      </trkpt>
      <trkpt lat="47.16488" lon="-1.48087">
        <ele>60</ele>
        <time>2021-04-22T09:52:11.000Z</time>
      </trkpt>
      <trkpt lat="47.16498" lon="-1.48087">
        <ele>58</ele>
        <time>2021-04-22T09:52:18.000Z</time>
      </trkpt>
      <trkpt lat="47.16501" lon="-1.48105">
        <ele>57</ele>
        <time>2021-04-22T09:52:20.000Z</time>
      </trkpt>
      <trkpt lat="47.16505" lon="-1.48123">
        <ele>56</ele>
        <time>2021-04-22T09:52:22.000Z</time>
      </trkpt>
      <trkpt lat="47.16513" lon="-1.48133">
        <ele>56</ele>
        <time>2021-04-22T09:52:24.000Z</time>
      </trkpt>
      <trkpt lat="47.16526" lon="-1.48132">
        <ele>55</ele>
        <time>2021-04-22T09:52:26.000Z</time>
      </trkpt>
      <trkpt lat="47.16536" lon="-1.48125">
        <ele>55</ele>
        <time>2021-04-22T09:52:28.000Z</time>
      </trkpt>
      <trkpt lat="47.16547" lon="-1.48119">
        <ele>54</ele>
        <time>2021-04-22T09:52:30.000Z</time>
      </trkpt>
      <trkpt lat="47.16558" lon="-1.48111">
        <ele>54</ele>
        <time>2021-04-22T09:52:32.000Z</time>
      </trkpt>
      <trkpt lat="47.16568" lon="-1.48103">
        <ele>54</ele>
        <time>2021-04-22T09:52:34.000Z</time>
      </trkpt>
      <trkpt lat="47.16579" lon="-1.48096">
        <ele>54</ele>
        <time>2021-04-22T09:52:36.000Z</time>
      </trkpt>
      <trkpt lat="47.1659" lon="-1.48089">
        <ele>54</ele>
        <time>2021-04-22T09:52:38.000Z</time>
      </trkpt>
      <trkpt lat="47.16601" lon="-1.48082">
        <ele>54</ele>
        <time>2021-04-22T09:52:40.000Z</time>
      </trkpt>
      <trkpt lat="47.16612" lon="-1.48074">
        <ele>54</ele>
        <time>2021-04-22T09:52:42.000Z</time>
      </trkpt>
      <trkpt lat="47.16623" lon="-1.48066">
        <ele>54</ele>
        <time>2021-04-22T09:52:44.000Z</time>
      </trkpt>
      <trkpt lat="47.16634" lon="-1.48058">
        <ele>53</ele>
        <time>2021-04-22T09:52:46.000Z</time>
      </trkpt>
      <trkpt lat="47.16645" lon="-1.4805">
        <ele>53</ele>
        <time>2021-04-22T09:52:48.000Z</time>
      </trkpt>
      <trkpt lat="47.16655" lon="-1.48043">
        <ele>54</ele>
        <time>2021-04-22T09:52:50.000Z</time>
      </trkpt>
      <trkpt lat="47.16666" lon="-1.48036">
        <ele>54</ele>
        <time>2021-04-22T09:52:52.000Z</time>
      </trkpt>
      <trkpt lat="47.16677" lon="-1.48026">
        <ele>55</ele>
        <time>2021-04-22T09:52:54.000Z</time>
      </trkpt>
      <trkpt lat="47.16687" lon="-1.48019">
        <ele>55</ele>
        <time>2021-04-22T09:52:56.000Z</time>
      </trkpt>
      <trkpt lat="47.16698" lon="-1.48013">
        <ele>55</ele>
        <time>2021-04-22T09:52:58.000Z</time>
      </trkpt>
      <trkpt lat="47.16709" lon="-1.48008">
        <ele>55</ele>
        <time>2021-04-22T09:53:00.000Z</time>
      </trkpt>
      <trkpt lat="47.1672" lon="-1.48004">
        <ele>55</ele>
        <time>2021-04-22T09:53:02.000Z</time>
      </trkpt>
      <trkpt lat="47.1673" lon="-1.48001">
        <ele>55</ele>
        <time>2021-04-22T09:53:04.000Z</time>
      </trkpt>
      <trkpt lat="47.1674" lon="-1.47999">
        <ele>55</ele>
        <time>2021-04-22T09:53:06.000Z</time>
      </trkpt>
      <trkpt lat="47.16751" lon="-1.47996">
        <ele>55</ele>
        <time>2021-04-22T09:53:09.000Z</time>
      </trkpt>
      <trkpt lat="47.16762" lon="-1.47996">
        <ele>56</ele>
        <time>2021-04-22T09:53:12.000Z</time>
      </trkpt>
      <trkpt lat="47.1677" lon="-1.48001">
        <ele>56</ele>
        <time>2021-04-22T09:53:15.000Z</time>
      </trkpt>
      <trkpt lat="47.16781" lon="-1.48004">
        <ele>56</ele>
        <time>2021-04-22T09:53:19.000Z</time>
      </trkpt>
      <trkpt lat="47.16791" lon="-1.48006">
        <ele>57</ele>
        <time>2021-04-22T09:53:23.000Z</time>
      </trkpt>
      <trkpt lat="47.168" lon="-1.48013">
        <ele>58</ele>
        <time>2021-04-22T09:53:28.000Z</time>
      </trkpt>
      <trkpt lat="47.16807" lon="-1.48026">
        <ele>58</ele>
        <time>2021-04-22T09:53:32.000Z</time>
      </trkpt>
      <trkpt lat="47.16813" lon="-1.48037">
        <ele>58</ele>
        <time>2021-04-22T09:53:36.000Z</time>
      </trkpt>
      <trkpt lat="47.16817" lon="-1.48053">
        <ele>58</ele>
        <time>2021-04-22T09:53:43.000Z</time>
      </trkpt>
      <trkpt lat="47.16823" lon="-1.48065">
        <ele>58</ele>
        <time>2021-04-22T09:53:48.000Z</time>
      </trkpt>
      <trkpt lat="47.16831" lon="-1.48077">
        <ele>58</ele>
        <time>2021-04-22T09:53:53.000Z</time>
      </trkpt>
      <trkpt lat="47.16836" lon="-1.48089">
        <ele>59</ele>
        <time>2021-04-22T09:53:57.000Z</time>
      </trkpt>
      <trkpt lat="47.16847" lon="-1.48087">
        <ele>57</ele>
        <time>2021-04-22T09:54:03.000Z</time>
      </trkpt>
      <trkpt lat="47.16857" lon="-1.48093">
        <ele>57</ele>
        <time>2021-04-22T09:54:06.000Z</time>
      </trkpt>
      <trkpt lat="47.16867" lon="-1.48106">
        <ele>57</ele>
        <time>2021-04-22T09:54:09.000Z</time>
      </trkpt>
      <trkpt lat="47.16873" lon="-1.48117">
        <ele>57</ele>
        <time>2021-04-22T09:54:11.000Z</time>
      </trkpt>
      <trkpt lat="47.16879" lon="-1.48129">
        <ele>58</ele>
        <time>2021-04-22T09:54:13.000Z</time>
      </trkpt>
      <trkpt lat="47.16885" lon="-1.48142">
        <ele>57</ele>
        <time>2021-04-22T09:54:15.000Z</time>
      </trkpt>
      <trkpt lat="47.16892" lon="-1.48155">
        <ele>58</ele>
        <time>2021-04-22T09:54:17.000Z</time>
      </trkpt>
      <trkpt lat="47.16897" lon="-1.48168">
        <ele>57</ele>
        <time>2021-04-22T09:54:19.000Z</time>
      </trkpt>
      <trkpt lat="47.16902" lon="-1.4818">
        <ele>57</ele>
        <time>2021-04-22T09:54:21.000Z</time>
      </trkpt>
      <trkpt lat="47.16911" lon="-1.48195">
        <ele>58</ele>
        <time>2021-04-22T09:54:24.000Z</time>
      </trkpt>
      <trkpt lat="47.16917" lon="-1.48204">
        <ele>58</ele>
        <time>2021-04-22T09:54:26.000Z</time>
      </trkpt>
      <trkpt lat="47.16925" lon="-1.48213">
        <ele>58</ele>
        <time>2021-04-22T09:54:28.000Z</time>
      </trkpt>
      <trkpt lat="47.16936" lon="-1.48219">
        <ele>58</ele>
        <time>2021-04-22T09:54:30.000Z</time>
      </trkpt>
      <trkpt lat="47.1695" lon="-1.48218">
        <ele>58</ele>
        <time>2021-04-22T09:54:32.000Z</time>
      </trkpt>
      <trkpt lat="47.16963" lon="-1.48215">
        <ele>58</ele>
        <time>2021-04-22T09:54:34.000Z</time>
      </trkpt>
      <trkpt lat="47.16975" lon="-1.48212">
        <ele>59</ele>
        <time>2021-04-22T09:54:36.000Z</time>
      </trkpt>
      <trkpt lat="47.16988" lon="-1.48209">
        <ele>58</ele>
        <time>2021-04-22T09:54:38.000Z</time>
      </trkpt>
      <trkpt lat="47.17002" lon="-1.48206">
        <ele>58</ele>
        <time>2021-04-22T09:54:40.000Z</time>
      </trkpt>
      <trkpt lat="47.17015" lon="-1.48203">
        <ele>57</ele>
        <time>2021-04-22T09:54:42.000Z</time>
      </trkpt>
      <trkpt lat="47.17027" lon="-1.482">
        <ele>58</ele>
        <time>2021-04-22T09:54:44.000Z</time>
      </trkpt>
      <trkpt lat="47.17039" lon="-1.48196">
        <ele>59</ele>
        <time>2021-04-22T09:54:46.000Z</time>
      </trkpt>
      <trkpt lat="47.17047" lon="-1.48183">
        <ele>58</ele>
        <time>2021-04-22T09:54:48.000Z</time>
      </trkpt>
      <trkpt lat="47.17057" lon="-1.48173">
        <ele>58</ele>
        <time>2021-04-22T09:54:50.000Z</time>
      </trkpt>
      <trkpt lat="47.17068" lon="-1.48164">
        <ele>58</ele>
        <time>2021-04-22T09:54:52.000Z</time>
      </trkpt>
      <trkpt lat="47.17078" lon="-1.48155">
        <ele>59</ele>
        <time>2021-04-22T09:54:54.000Z</time>
      </trkpt>
      <trkpt lat="47.17087" lon="-1.48147">
        <ele>59</ele>
        <time>2021-04-22T09:54:56.000Z</time>
      </trkpt>
      <trkpt lat="47.17095" lon="-1.48138">
        <ele>60</ele>
        <time>2021-04-22T09:54:58.000Z</time>
      </trkpt>
      <trkpt lat="47.17102" lon="-1.48128">
        <ele>60</ele>
        <time>2021-04-22T09:55:00.000Z</time>
      </trkpt>
      <trkpt lat="47.17112" lon="-1.48121">
        <ele>59</ele>
        <time>2021-04-22T09:55:02.000Z</time>
      </trkpt>
      <trkpt lat="47.17123" lon="-1.48115">
        <ele>58</ele>
        <time>2021-04-22T09:55:04.000Z</time>
      </trkpt>
      <trkpt lat="47.17132" lon="-1.48103">
        <ele>58</ele>
        <time>2021-04-22T09:55:06.000Z</time>
      </trkpt>
      <trkpt lat="47.17142" lon="-1.48091">
        <ele>58</ele>
        <time>2021-04-22T09:55:08.000Z</time>
      </trkpt>
      <trkpt lat="47.17152" lon="-1.48078">
        <ele>57</ele>
        <time>2021-04-22T09:55:10.000Z</time>
      </trkpt>
      <trkpt lat="47.17162" lon="-1.48065">
        <ele>56</ele>
        <time>2021-04-22T09:55:12.000Z</time>
      </trkpt>
      <trkpt lat="47.17172" lon="-1.48052">
        <ele>56</ele>
        <time>2021-04-22T09:55:14.000Z</time>
      </trkpt>
      <trkpt lat="47.17182" lon="-1.4804">
        <ele>57</ele>
        <time>2021-04-22T09:55:16.000Z</time>
      </trkpt>
      <trkpt lat="47.17192" lon="-1.48028">
        <ele>57</ele>
        <time>2021-04-22T09:55:18.000Z</time>
      </trkpt>
      <trkpt lat="47.17202" lon="-1.48016">
        <ele>57</ele>
        <time>2021-04-22T09:55:20.000Z</time>
      </trkpt>
      <trkpt lat="47.17213" lon="-1.48005">
        <ele>57</ele>
        <time>2021-04-22T09:55:22.000Z</time>
      </trkpt>
      <trkpt lat="47.17222" lon="-1.47994">
        <ele>57</ele>
        <time>2021-04-22T09:55:24.000Z</time>
      </trkpt>
      <trkpt lat="47.17231" lon="-1.47983">
        <ele>58</ele>
        <time>2021-04-22T09:55:26.000Z</time>
      </trkpt>
      <trkpt lat="47.1724" lon="-1.47972">
        <ele>58</ele>
        <time>2021-04-22T09:55:28.000Z</time>
      </trkpt>
      <trkpt lat="47.17248" lon="-1.47961">
        <ele>58</ele>
        <time>2021-04-22T09:55:30.000Z</time>
      </trkpt>
      <trkpt lat="47.17254" lon="-1.47947">
        <ele>58</ele>
        <time>2021-04-22T09:55:32.000Z</time>
      </trkpt>
      <trkpt lat="47.17259" lon="-1.47932">
        <ele>58</ele>
        <time>2021-04-22T09:55:34.000Z</time>
      </trkpt>
      <trkpt lat="47.17262" lon="-1.47915">
        <ele>59</ele>
        <time>2021-04-22T09:55:36.000Z</time>
      </trkpt>
      <trkpt lat="47.17263" lon="-1.47897">
        <ele>60</ele>
        <time>2021-04-22T09:55:38.000Z</time>
      </trkpt>
      <trkpt lat="47.17264" lon="-1.4788">
        <ele>60</ele>
        <time>2021-04-22T09:55:40.000Z</time>
      </trkpt>
      <trkpt lat="47.17265" lon="-1.47862">
        <ele>61</ele>
        <time>2021-04-22T09:55:42.000Z</time>
      </trkpt>
      <trkpt lat="47.17267" lon="-1.47845">
        <ele>61</ele>
        <time>2021-04-22T09:55:44.000Z</time>
      </trkpt>
      <trkpt lat="47.1727" lon="-1.47829">
        <ele>61</ele>
        <time>2021-04-22T09:55:46.000Z</time>
      </trkpt>
      <trkpt lat="47.17272" lon="-1.47813">
        <ele>62</ele>
        <time>2021-04-22T09:55:48.000Z</time>
      </trkpt>
      <trkpt lat="47.17275" lon="-1.47796">
        <ele>62</ele>
        <time>2021-04-22T09:55:50.000Z</time>
      </trkpt>
      <trkpt lat="47.17278" lon="-1.47781">
        <ele>62</ele>
        <time>2021-04-22T09:55:52.000Z</time>
      </trkpt>
      <trkpt lat="47.17281" lon="-1.47766">
        <ele>62</ele>
        <time>2021-04-22T09:55:54.000Z</time>
      </trkpt>
      <trkpt lat="47.17283" lon="-1.47751">
        <ele>62</ele>
        <time>2021-04-22T09:55:56.000Z</time>
      </trkpt>
      <trkpt lat="47.17287" lon="-1.47735">
        <ele>61</ele>
        <time>2021-04-22T09:55:58.000Z</time>
      </trkpt>
      <trkpt lat="47.17289" lon="-1.47719">
        <ele>62</ele>
        <time>2021-04-22T09:56:00.000Z</time>
      </trkpt>
      <trkpt lat="47.17291" lon="-1.47703">
        <ele>62</ele>
        <time>2021-04-22T09:56:02.000Z</time>
      </trkpt>
      <trkpt lat="47.17294" lon="-1.47687">
        <ele>63</ele>
        <time>2021-04-22T09:56:04.000Z</time>
      </trkpt>
      <trkpt lat="47.17296" lon="-1.47671">
        <ele>63</ele>
        <time>2021-04-22T09:56:06.000Z</time>
      </trkpt>
      <trkpt lat="47.17298" lon="-1.47655">
        <ele>64</ele>
        <time>2021-04-22T09:56:08.000Z</time>
      </trkpt>
      <trkpt lat="47.17299" lon="-1.47639">
        <ele>65</ele>
        <time>2021-04-22T09:56:10.000Z</time>
      </trkpt>
      <trkpt lat="47.17299" lon="-1.47623">
        <ele>66</ele>
        <time>2021-04-22T09:56:12.000Z</time>
      </trkpt>
      <trkpt lat="47.173" lon="-1.47606">
        <ele>67</ele>
        <time>2021-04-22T09:56:14.000Z</time>
      </trkpt>
      <trkpt lat="47.17302" lon="-1.4759">
        <ele>67</ele>
        <time>2021-04-22T09:56:16.000Z</time>
      </trkpt>
      <trkpt lat="47.17303" lon="-1.47574">
        <ele>67</ele>
        <time>2021-04-22T09:56:18.000Z</time>
      </trkpt>
      <trkpt lat="47.17305" lon="-1.47558">
        <ele>67</ele>
        <time>2021-04-22T09:56:20.000Z</time>
      </trkpt>
      <trkpt lat="47.17306" lon="-1.47542">
        <ele>66</ele>
        <time>2021-04-22T09:56:22.000Z</time>
      </trkpt>
      <trkpt lat="47.17307" lon="-1.47526">
        <ele>66</ele>
        <time>2021-04-22T09:56:24.000Z</time>
      </trkpt>
      <trkpt lat="47.17306" lon="-1.47509">
        <ele>65</ele>
        <time>2021-04-22T09:56:26.000Z</time>
      </trkpt>
      <trkpt lat="47.17306" lon="-1.47492">
        <ele>66</ele>
        <time>2021-04-22T09:56:28.000Z</time>
      </trkpt>
      <trkpt lat="47.17305" lon="-1.47476">
        <ele>65</ele>
        <time>2021-04-22T09:56:30.000Z</time>
      </trkpt>
      <trkpt lat="47.17305" lon="-1.47459">
        <ele>65</ele>
        <time>2021-04-22T09:56:32.000Z</time>
      </trkpt>
      <trkpt lat="47.17303" lon="-1.47444">
        <ele>65</ele>
        <time>2021-04-22T09:56:34.000Z</time>
      </trkpt>
      <trkpt lat="47.17302" lon="-1.47428">
        <ele>64</ele>
        <time>2021-04-22T09:56:36.000Z</time>
      </trkpt>
      <trkpt lat="47.173" lon="-1.47413">
        <ele>64</ele>
        <time>2021-04-22T09:56:38.000Z</time>
      </trkpt>
      <trkpt lat="47.17296" lon="-1.47399">
        <ele>63</ele>
        <time>2021-04-22T09:56:40.000Z</time>
      </trkpt>
      <trkpt lat="47.17293" lon="-1.47384">
        <ele>64</ele>
        <time>2021-04-22T09:56:42.000Z</time>
      </trkpt>
      <trkpt lat="47.17298" lon="-1.4737">
        <ele>64</ele>
        <time>2021-04-22T09:56:44.000Z</time>
      </trkpt>
      <trkpt lat="47.17309" lon="-1.47365">
        <ele>63</ele>
        <time>2021-04-22T09:56:46.000Z</time>
      </trkpt>
      <trkpt lat="47.17321" lon="-1.47367">
        <ele>63</ele>
        <time>2021-04-22T09:56:48.000Z</time>
      </trkpt>
      <trkpt lat="47.17334" lon="-1.47365">
        <ele>63</ele>
        <time>2021-04-22T09:56:50.000Z</time>
      </trkpt>
      <trkpt lat="47.17347" lon="-1.4736">
        <ele>63</ele>
        <time>2021-04-22T09:56:52.000Z</time>
      </trkpt>
      <trkpt lat="47.17359" lon="-1.47357">
        <ele>63</ele>
        <time>2021-04-22T09:56:54.000Z</time>
      </trkpt>
      <trkpt lat="47.17372" lon="-1.47355">
        <ele>62</ele>
        <time>2021-04-22T09:56:56.000Z</time>
      </trkpt>
      <trkpt lat="47.17384" lon="-1.47354">
        <ele>62</ele>
        <time>2021-04-22T09:56:58.000Z</time>
      </trkpt>
      <trkpt lat="47.17396" lon="-1.47352">
        <ele>61</ele>
        <time>2021-04-22T09:57:00.000Z</time>
      </trkpt>
      <trkpt lat="47.17408" lon="-1.4735">
        <ele>61</ele>
        <time>2021-04-22T09:57:02.000Z</time>
      </trkpt>
      <trkpt lat="47.17421" lon="-1.47349">
        <ele>61</ele>
        <time>2021-04-22T09:57:04.000Z</time>
      </trkpt>
      <trkpt lat="47.17433" lon="-1.4735">
        <ele>60</ele>
        <time>2021-04-22T09:57:06.000Z</time>
      </trkpt>
      <trkpt lat="47.17446" lon="-1.47349">
        <ele>60</ele>
        <time>2021-04-22T09:57:08.000Z</time>
      </trkpt>
      <trkpt lat="47.17459" lon="-1.4735">
        <ele>59</ele>
        <time>2021-04-22T09:57:10.000Z</time>
      </trkpt>
      <trkpt lat="47.17472" lon="-1.4735">
        <ele>59</ele>
        <time>2021-04-22T09:57:12.000Z</time>
      </trkpt>
      <trkpt lat="47.17486" lon="-1.47351">
        <ele>58</ele>
        <time>2021-04-22T09:57:14.000Z</time>
      </trkpt>
      <trkpt lat="47.17499" lon="-1.47352">
        <ele>58</ele>
        <time>2021-04-22T09:57:16.000Z</time>
      </trkpt>
      <trkpt lat="47.17513" lon="-1.47352">
        <ele>57</ele>
        <time>2021-04-22T09:57:18.000Z</time>
      </trkpt>
      <trkpt lat="47.17527" lon="-1.47353">
        <ele>57</ele>
        <time>2021-04-22T09:57:20.000Z</time>
      </trkpt>
      <trkpt lat="47.17542" lon="-1.47353">
        <ele>56</ele>
        <time>2021-04-22T09:57:22.000Z</time>
      </trkpt>
      <trkpt lat="47.17556" lon="-1.47354">
        <ele>56</ele>
        <time>2021-04-22T09:57:24.000Z</time>
      </trkpt>
      <trkpt lat="47.1757" lon="-1.47356">
        <ele>56</ele>
        <time>2021-04-22T09:57:26.000Z</time>
      </trkpt>
      <trkpt lat="47.17584" lon="-1.47358">
        <ele>56</ele>
        <time>2021-04-22T09:57:28.000Z</time>
      </trkpt>
      <trkpt lat="47.17598" lon="-1.47362">
        <ele>55</ele>
        <time>2021-04-22T09:57:30.000Z</time>
      </trkpt>
      <trkpt lat="47.17612" lon="-1.47365">
        <ele>55</ele>
        <time>2021-04-22T09:57:32.000Z</time>
      </trkpt>
      <trkpt lat="47.17626" lon="-1.47368">
        <ele>55</ele>
        <time>2021-04-22T09:57:34.000Z</time>
      </trkpt>
      <trkpt lat="47.17639" lon="-1.47373">
        <ele>55</ele>
        <time>2021-04-22T09:57:36.000Z</time>
      </trkpt>
      <trkpt lat="47.17652" lon="-1.4738">
        <ele>55</ele>
        <time>2021-04-22T09:57:38.000Z</time>
      </trkpt>
      <trkpt lat="47.17664" lon="-1.47388">
        <ele>55</ele>
        <time>2021-04-22T09:57:40.000Z</time>
      </trkpt>
      <trkpt lat="47.17677" lon="-1.47394">
        <ele>56</ele>
        <time>2021-04-22T09:57:42.000Z</time>
      </trkpt>
      <trkpt lat="47.17689" lon="-1.47401">
        <ele>56</ele>
        <time>2021-04-22T09:57:44.000Z</time>
      </trkpt>
      <trkpt lat="47.17701" lon="-1.47406">
        <ele>57</ele>
        <time>2021-04-22T09:57:46.000Z</time>
      </trkpt>
      <trkpt lat="47.17713" lon="-1.4741">
        <ele>57</ele>
        <time>2021-04-22T09:57:48.000Z</time>
      </trkpt>
      <trkpt lat="47.17725" lon="-1.47416">
        <ele>57</ele>
        <time>2021-04-22T09:57:50.000Z</time>
      </trkpt>
      <trkpt lat="47.17737" lon="-1.47422">
        <ele>57</ele>
        <time>2021-04-22T09:57:52.000Z</time>
      </trkpt>
      <trkpt lat="47.1775" lon="-1.47428">
        <ele>58</ele>
        <time>2021-04-22T09:57:54.000Z</time>
      </trkpt>
      <trkpt lat="47.17763" lon="-1.47435">
        <ele>58</ele>
        <time>2021-04-22T09:57:56.000Z</time>
      </trkpt>
      <trkpt lat="47.17776" lon="-1.47442">
        <ele>58</ele>
        <time>2021-04-22T09:57:58.000Z</time>
      </trkpt>
      <trkpt lat="47.17789" lon="-1.47448">
        <ele>58</ele>
        <time>2021-04-22T09:58:00.000Z</time>
      </trkpt>
      <trkpt lat="47.17803" lon="-1.47454">
        <ele>58</ele>
        <time>2021-04-22T09:58:02.000Z</time>
      </trkpt>
      <trkpt lat="47.17816" lon="-1.47458">
        <ele>59</ele>
        <time>2021-04-22T09:58:04.000Z</time>
      </trkpt>
      <trkpt lat="47.17829" lon="-1.47462">
        <ele>59</ele>
        <time>2021-04-22T09:58:06.000Z</time>
      </trkpt>
      <trkpt lat="47.17842" lon="-1.47466">
        <ele>60</ele>
        <time>2021-04-22T09:58:08.000Z</time>
      </trkpt>
      <trkpt lat="47.17855" lon="-1.4747">
        <ele>59</ele>
        <time>2021-04-22T09:58:10.000Z</time>
      </trkpt>
      <trkpt lat="47.17868" lon="-1.47473">
        <ele>59</ele>
        <time>2021-04-22T09:58:12.000Z</time>
      </trkpt>
      <trkpt lat="47.1788" lon="-1.47473">
        <ele>58</ele>
        <time>2021-04-22T09:58:14.000Z</time>
      </trkpt>
      <trkpt lat="47.17892" lon="-1.4747">
        <ele>57</ele>
        <time>2021-04-22T09:58:16.000Z</time>
      </trkpt>
      <trkpt lat="47.17904" lon="-1.47465">
        <ele>57</ele>
        <time>2021-04-22T09:58:18.000Z</time>
      </trkpt>
      <trkpt lat="47.17917" lon="-1.47471">
        <ele>57</ele>
        <time>2021-04-22T09:58:20.000Z</time>
      </trkpt>
      <trkpt lat="47.17926" lon="-1.47484">
        <ele>58</ele>
        <time>2021-04-22T09:58:22.000Z</time>
      </trkpt>
      <trkpt lat="47.17938" lon="-1.47492">
        <ele>57</ele>
        <time>2021-04-22T09:58:24.000Z</time>
      </trkpt>
      <trkpt lat="47.17951" lon="-1.47494">
        <ele>57</ele>
        <time>2021-04-22T09:58:26.000Z</time>
      </trkpt>
      <trkpt lat="47.17964" lon="-1.47497">
        <ele>57</ele>
        <time>2021-04-22T09:58:28.000Z</time>
      </trkpt>
      <trkpt lat="47.17977" lon="-1.475">
        <ele>58</ele>
        <time>2021-04-22T09:58:30.000Z</time>
      </trkpt>
      <trkpt lat="47.1799" lon="-1.47504">
        <ele>58</ele>
        <time>2021-04-22T09:58:32.000Z</time>
      </trkpt>
      <trkpt lat="47.18002" lon="-1.47508">
        <ele>58</ele>
        <time>2021-04-22T09:58:34.000Z</time>
      </trkpt>
      <trkpt lat="47.18015" lon="-1.47511">
        <ele>58</ele>
        <time>2021-04-22T09:58:36.000Z</time>
      </trkpt>
      <trkpt lat="47.18027" lon="-1.47514">
        <ele>59</ele>
        <time>2021-04-22T09:58:38.000Z</time>
      </trkpt>
      <trkpt lat="47.1804" lon="-1.47517">
        <ele>59</ele>
        <time>2021-04-22T09:58:40.000Z</time>
      </trkpt>
      <trkpt lat="47.18052" lon="-1.4752">
        <ele>59</ele>
        <time>2021-04-22T09:58:42.000Z</time>
      </trkpt>
      <trkpt lat="47.18065" lon="-1.47523">
        <ele>59</ele>
        <time>2021-04-22T09:58:44.000Z</time>
      </trkpt>
      <trkpt lat="47.18077" lon="-1.47526">
        <ele>60</ele>
        <time>2021-04-22T09:58:46.000Z</time>
      </trkpt>
      <trkpt lat="47.18089" lon="-1.47529">
        <ele>59</ele>
        <time>2021-04-22T09:58:48.000Z</time>
      </trkpt>
      <trkpt lat="47.18101" lon="-1.47532">
        <ele>60</ele>
        <time>2021-04-22T09:58:50.000Z</time>
      </trkpt>
      <trkpt lat="47.18114" lon="-1.47535">
        <ele>60</ele>
        <time>2021-04-22T09:58:52.000Z</time>
      </trkpt>
      <trkpt lat="47.18126" lon="-1.47538">
        <ele>61</ele>
        <time>2021-04-22T09:58:54.000Z</time>
      </trkpt>
      <trkpt lat="47.18137" lon="-1.47542">
        <ele>61</ele>
        <time>2021-04-22T09:58:56.000Z</time>
      </trkpt>
      <trkpt lat="47.1815" lon="-1.47545">
        <ele>62</ele>
        <time>2021-04-22T09:58:58.000Z</time>
      </trkpt>
      <trkpt lat="47.18161" lon="-1.47548">
        <ele>62</ele>
        <time>2021-04-22T09:59:00.000Z</time>
      </trkpt>
      <trkpt lat="47.18173" lon="-1.4755">
        <ele>62</ele>
        <time>2021-04-22T09:59:02.000Z</time>
      </trkpt>
      <trkpt lat="47.18184" lon="-1.47553">
        <ele>62</ele>
        <time>2021-04-22T09:59:04.000Z</time>
      </trkpt>
      <trkpt lat="47.18195" lon="-1.47555">
        <ele>62</ele>
        <time>2021-04-22T09:59:06.000Z</time>
      </trkpt>
      <trkpt lat="47.18207" lon="-1.47557">
        <ele>63</ele>
        <time>2021-04-22T09:59:08.000Z</time>
      </trkpt>
      <trkpt lat="47.18219" lon="-1.47561">
        <ele>64</ele>
        <time>2021-04-22T09:59:10.000Z</time>
      </trkpt>
      <trkpt lat="47.18229" lon="-1.47565">
        <ele>64</ele>
        <time>2021-04-22T09:59:12.000Z</time>
      </trkpt>
      <trkpt lat="47.1824" lon="-1.47568">
        <ele>64</ele>
        <time>2021-04-22T09:59:14.000Z</time>
      </trkpt>
      <trkpt lat="47.18251" lon="-1.47571">
        <ele>63</ele>
        <time>2021-04-22T09:59:16.000Z</time>
      </trkpt>
      <trkpt lat="47.18262" lon="-1.47574">
        <ele>64</ele>
        <time>2021-04-22T09:59:18.000Z</time>
      </trkpt>
      <trkpt lat="47.18273" lon="-1.47577">
        <ele>64</ele>
        <time>2021-04-22T09:59:20.000Z</time>
      </trkpt>
      <trkpt lat="47.18284" lon="-1.47581">
        <ele>65</ele>
        <time>2021-04-22T09:59:22.000Z</time>
      </trkpt>
      <trkpt lat="47.18295" lon="-1.47586">
        <ele>65</ele>
        <time>2021-04-22T09:59:24.000Z</time>
      </trkpt>
      <trkpt lat="47.18305" lon="-1.47588">
        <ele>65</ele>
        <time>2021-04-22T09:59:26.000Z</time>
      </trkpt>
      <trkpt lat="47.18316" lon="-1.47591">
        <ele>65</ele>
        <time>2021-04-22T09:59:28.000Z</time>
      </trkpt>
      <trkpt lat="47.18326" lon="-1.47593">
        <ele>65</ele>
        <time>2021-04-22T09:59:30.000Z</time>
      </trkpt>
      <trkpt lat="47.18337" lon="-1.47596">
        <ele>66</ele>
        <time>2021-04-22T09:59:32.000Z</time>
      </trkpt>
      <trkpt lat="47.18348" lon="-1.47599">
        <ele>66</ele>
        <time>2021-04-22T09:59:34.000Z</time>
      </trkpt>
      <trkpt lat="47.1836" lon="-1.47602">
        <ele>67</ele>
        <time>2021-04-22T09:59:36.000Z</time>
      </trkpt>
      <trkpt lat="47.18372" lon="-1.47604">
        <ele>67</ele>
        <time>2021-04-22T09:59:38.000Z</time>
      </trkpt>
      <trkpt lat="47.18383" lon="-1.47606">
        <ele>68</ele>
        <time>2021-04-22T09:59:40.000Z</time>
      </trkpt>
      <trkpt lat="47.18395" lon="-1.47609">
        <ele>68</ele>
        <time>2021-04-22T09:59:42.000Z</time>
      </trkpt>
      <trkpt lat="47.18408" lon="-1.47612">
        <ele>68</ele>
        <time>2021-04-22T09:59:44.000Z</time>
      </trkpt>
      <trkpt lat="47.18419" lon="-1.47614">
        <ele>69</ele>
        <time>2021-04-22T09:59:46.000Z</time>
      </trkpt>
      <trkpt lat="47.18431" lon="-1.47618">
        <ele>68</ele>
        <time>2021-04-22T09:59:48.000Z</time>
      </trkpt>
      <trkpt lat="47.18442" lon="-1.47621">
        <ele>68</ele>
        <time>2021-04-22T09:59:50.000Z</time>
      </trkpt>
      <trkpt lat="47.18453" lon="-1.47625">
        <ele>69</ele>
        <time>2021-04-22T09:59:52.000Z</time>
      </trkpt>
      <trkpt lat="47.18464" lon="-1.47627">
        <ele>70</ele>
        <time>2021-04-22T09:59:54.000Z</time>
      </trkpt>
      <trkpt lat="47.18475" lon="-1.4763">
        <ele>70</ele>
        <time>2021-04-22T09:59:56.000Z</time>
      </trkpt>
      <trkpt lat="47.18486" lon="-1.47633">
        <ele>71</ele>
        <time>2021-04-22T09:59:58.000Z</time>
      </trkpt>
      <trkpt lat="47.18495" lon="-1.47636">
        <ele>72</ele>
        <time>2021-04-22T10:00:00.000Z</time>
      </trkpt>
      <trkpt lat="47.18506" lon="-1.47639">
        <ele>73</ele>
        <time>2021-04-22T10:00:02.000Z</time>
      </trkpt>
      <trkpt lat="47.18516" lon="-1.47641">
        <ele>73</ele>
        <time>2021-04-22T10:00:04.000Z</time>
      </trkpt>
      <trkpt lat="47.18527" lon="-1.47644">
        <ele>73</ele>
        <time>2021-04-22T10:00:06.000Z</time>
      </trkpt>
      <trkpt lat="47.18537" lon="-1.47648">
        <ele>73</ele>
        <time>2021-04-22T10:00:08.000Z</time>
      </trkpt>
      <trkpt lat="47.18546" lon="-1.4765">
        <ele>74</ele>
        <time>2021-04-22T10:00:10.000Z</time>
      </trkpt>
      <trkpt lat="47.18558" lon="-1.47653">
        <ele>76</ele>
        <time>2021-04-22T10:00:13.000Z</time>
      </trkpt>
      <trkpt lat="47.18571" lon="-1.47657">
        <ele>77</ele>
        <time>2021-04-22T10:00:16.000Z</time>
      </trkpt>
      <trkpt lat="47.18581" lon="-1.4766">
        <ele>77</ele>
        <time>2021-04-22T10:00:18.000Z</time>
      </trkpt>
      <trkpt lat="47.18592" lon="-1.47663">
        <ele>78</ele>
        <time>2021-04-22T10:00:21.000Z</time>
      </trkpt>
      <trkpt lat="47.18602" lon="-1.47664">
        <ele>79</ele>
        <time>2021-04-22T10:00:26.000Z</time>
      </trkpt>
      <trkpt lat="47.18613" lon="-1.4767">
        <ele>79</ele>
        <time>2021-04-22T10:00:29.000Z</time>
      </trkpt>
      <trkpt lat="47.18623" lon="-1.47671">
        <ele>79</ele>
        <time>2021-04-22T10:00:31.000Z</time>
      </trkpt>
      <trkpt lat="47.18633" lon="-1.4767">
        <ele>79</ele>
        <time>2021-04-22T10:00:33.000Z</time>
      </trkpt>
      <trkpt lat="47.18646" lon="-1.47676">
        <ele>79</ele>
        <time>2021-04-22T10:00:36.000Z</time>
      </trkpt>
      <trkpt lat="47.18659" lon="-1.47678">
        <ele>79</ele>
        <time>2021-04-22T10:00:39.000Z</time>
      </trkpt>
      <trkpt lat="47.18669" lon="-1.47681">
        <ele>80</ele>
        <time>2021-04-22T10:00:43.000Z</time>
      </trkpt>
      <trkpt lat="47.1868" lon="-1.47681">
        <ele>81</ele>
        <time>2021-04-22T10:00:53.000Z</time>
      </trkpt>
      <trkpt lat="47.1869" lon="-1.47681">
        <ele>81</ele>
        <time>2021-04-22T10:00:55.000Z</time>
      </trkpt>
      <trkpt lat="47.18699" lon="-1.47678">
        <ele>81</ele>
        <time>2021-04-22T10:00:57.000Z</time>
      </trkpt>
      <trkpt lat="47.18707" lon="-1.47668">
        <ele>81</ele>
        <time>2021-04-22T10:00:59.000Z</time>
      </trkpt>
      <trkpt lat="47.18712" lon="-1.47655">
        <ele>82</ele>
        <time>2021-04-22T10:01:01.000Z</time>
      </trkpt>
      <trkpt lat="47.18719" lon="-1.47641">
        <ele>81</ele>
        <time>2021-04-22T10:01:03.000Z</time>
      </trkpt>
      <trkpt lat="47.18726" lon="-1.47628">
        <ele>81</ele>
        <time>2021-04-22T10:01:05.000Z</time>
      </trkpt>
      <trkpt lat="47.18734" lon="-1.47615">
        <ele>81</ele>
        <time>2021-04-22T10:01:07.000Z</time>
      </trkpt>
      <trkpt lat="47.1874" lon="-1.47603">
        <ele>82</ele>
        <time>2021-04-22T10:01:09.000Z</time>
      </trkpt>
      <trkpt lat="47.18747" lon="-1.4759">
        <ele>82</ele>
        <time>2021-04-22T10:01:11.000Z</time>
      </trkpt>
      <trkpt lat="47.18753" lon="-1.47577">
        <ele>82</ele>
        <time>2021-04-22T10:01:13.000Z</time>
      </trkpt>
      <trkpt lat="47.18759" lon="-1.47564">
        <ele>82</ele>
        <time>2021-04-22T10:01:15.000Z</time>
      </trkpt>
      <trkpt lat="47.18765" lon="-1.47551">
        <ele>83</ele>
        <time>2021-04-22T10:01:17.000Z</time>
      </trkpt>
      <trkpt lat="47.18771" lon="-1.47538">
        <ele>83</ele>
        <time>2021-04-22T10:01:19.000Z</time>
      </trkpt>
      <trkpt lat="47.18778" lon="-1.47524">
        <ele>83</ele>
        <time>2021-04-22T10:01:21.000Z</time>
      </trkpt>
      <trkpt lat="47.18784" lon="-1.47509">
        <ele>83</ele>
        <time>2021-04-22T10:01:23.000Z</time>
      </trkpt>
      <trkpt lat="47.18791" lon="-1.47496">
        <ele>83</ele>
        <time>2021-04-22T10:01:25.000Z</time>
      </trkpt>
      <trkpt lat="47.18796" lon="-1.47483">
        <ele>83</ele>
        <time>2021-04-22T10:01:27.000Z</time>
      </trkpt>
      <trkpt lat="47.18803" lon="-1.4747">
        <ele>83</ele>
        <time>2021-04-22T10:01:29.000Z</time>
      </trkpt>
      <trkpt lat="47.18809" lon="-1.47458">
        <ele>83</ele>
        <time>2021-04-22T10:01:31.000Z</time>
      </trkpt>
      <trkpt lat="47.18815" lon="-1.47445">
        <ele>83</ele>
        <time>2021-04-22T10:01:33.000Z</time>
      </trkpt>
      <trkpt lat="47.18821" lon="-1.47433">
        <ele>83</ele>
        <time>2021-04-22T10:01:35.000Z</time>
      </trkpt>
      <trkpt lat="47.18827" lon="-1.47421">
        <ele>83</ele>
        <time>2021-04-22T10:01:37.000Z</time>
      </trkpt>
      <trkpt lat="47.18833" lon="-1.47408">
        <ele>84</ele>
        <time>2021-04-22T10:01:39.000Z</time>
      </trkpt>
      <trkpt lat="47.18839" lon="-1.47395">
        <ele>83</ele>
        <time>2021-04-22T10:01:41.000Z</time>
      </trkpt>
      <trkpt lat="47.18844" lon="-1.47382">
        <ele>83</ele>
        <time>2021-04-22T10:01:43.000Z</time>
      </trkpt>
      <trkpt lat="47.1885" lon="-1.47369">
        <ele>83</ele>
        <time>2021-04-22T10:01:45.000Z</time>
      </trkpt>
      <trkpt lat="47.18857" lon="-1.47357">
        <ele>84</ele>
        <time>2021-04-22T10:01:47.000Z</time>
      </trkpt>
      <trkpt lat="47.18863" lon="-1.47343">
        <ele>85</ele>
        <time>2021-04-22T10:01:49.000Z</time>
      </trkpt>
      <trkpt lat="47.18869" lon="-1.47331">
        <ele>85</ele>
        <time>2021-04-22T10:01:51.000Z</time>
      </trkpt>
      <trkpt lat="47.18875" lon="-1.47318">
        <ele>85</ele>
        <time>2021-04-22T10:01:53.000Z</time>
      </trkpt>
      <trkpt lat="47.18881" lon="-1.47305">
        <ele>86</ele>
        <time>2021-04-22T10:01:55.000Z</time>
      </trkpt>
      <trkpt lat="47.18887" lon="-1.47293">
        <ele>86</ele>
        <time>2021-04-22T10:01:57.000Z</time>
      </trkpt>
      <trkpt lat="47.18894" lon="-1.47282">
        <ele>86</ele>
        <time>2021-04-22T10:01:59.000Z</time>
      </trkpt>
      <trkpt lat="47.189" lon="-1.47269">
        <ele>85</ele>
        <time>2021-04-22T10:02:01.000Z</time>
      </trkpt>
      <trkpt lat="47.18906" lon="-1.47257">
        <ele>85</ele>
        <time>2021-04-22T10:02:03.000Z</time>
      </trkpt>
      <trkpt lat="47.18912" lon="-1.47245">
        <ele>85</ele>
        <time>2021-04-22T10:02:05.000Z</time>
      </trkpt>
      <trkpt lat="47.18917" lon="-1.47233">
        <ele>84</ele>
        <time>2021-04-22T10:02:07.000Z</time>
      </trkpt>
      <trkpt lat="47.18922" lon="-1.47222">
        <ele>84</ele>
        <time>2021-04-22T10:02:09.000Z</time>
      </trkpt>
      <trkpt lat="47.18927" lon="-1.47206">
        <ele>84</ele>
        <time>2021-04-22T10:02:12.000Z</time>
      </trkpt>
      <trkpt lat="47.18927" lon="-1.47193">
        <ele>84</ele>
        <time>2021-04-22T10:02:14.000Z</time>
      </trkpt>
      <trkpt lat="47.18933" lon="-1.47178">
        <ele>84</ele>
        <time>2021-04-22T10:02:16.000Z</time>
      </trkpt>
      <trkpt lat="47.18943" lon="-1.47168">
        <ele>85</ele>
        <time>2021-04-22T10:02:18.000Z</time>
      </trkpt>
      <trkpt lat="47.18952" lon="-1.47158">
        <ele>85</ele>
        <time>2021-04-22T10:02:20.000Z</time>
      </trkpt>
      <trkpt lat="47.18959" lon="-1.47145">
        <ele>85</ele>
        <time>2021-04-22T10:02:22.000Z</time>
      </trkpt>
      <trkpt lat="47.18965" lon="-1.47131">
        <ele>85</ele>
        <time>2021-04-22T10:02:24.000Z</time>
      </trkpt>
      <trkpt lat="47.18971" lon="-1.47117">
        <ele>85</ele>
        <time>2021-04-22T10:02:26.000Z</time>
      </trkpt>
      <trkpt lat="47.18978" lon="-1.47101">
        <ele>85</ele>
        <time>2021-04-22T10:02:28.000Z</time>
      </trkpt>
      <trkpt lat="47.18986" lon="-1.47084">
        <ele>84</ele>
        <time>2021-04-22T10:02:30.000Z</time>
      </trkpt>
      <trkpt lat="47.18994" lon="-1.47068">
        <ele>83</ele>
        <time>2021-04-22T10:02:32.000Z</time>
      </trkpt>
      <trkpt lat="47.19002" lon="-1.47052">
        <ele>83</ele>
        <time>2021-04-22T10:02:34.000Z</time>
      </trkpt>
      <trkpt lat="47.1901" lon="-1.47037">
        <ele>82</ele>
        <time>2021-04-22T10:02:36.000Z</time>
      </trkpt>
      <trkpt lat="47.19018" lon="-1.47021">
        <ele>82</ele>
        <time>2021-04-22T10:02:38.000Z</time>
      </trkpt>
      <trkpt lat="47.19026" lon="-1.47005">
        <ele>82</ele>
        <time>2021-04-22T10:02:40.000Z</time>
      </trkpt>
      <trkpt lat="47.19034" lon="-1.46989">
        <ele>82</ele>
        <time>2021-04-22T10:02:42.000Z</time>
      </trkpt>
      <trkpt lat="47.19042" lon="-1.46973">
        <ele>82</ele>
        <time>2021-04-22T10:02:44.000Z</time>
      </trkpt>
      <trkpt lat="47.19049" lon="-1.46956">
        <ele>82</ele>
        <time>2021-04-22T10:02:46.000Z</time>
      </trkpt>
      <trkpt lat="47.19057" lon="-1.4694">
        <ele>81</ele>
        <time>2021-04-22T10:02:48.000Z</time>
      </trkpt>
      <trkpt lat="47.19064" lon="-1.46924">
        <ele>81</ele>
        <time>2021-04-22T10:02:50.000Z</time>
      </trkpt>
      <trkpt lat="47.19071" lon="-1.46909">
        <ele>80</ele>
        <time>2021-04-22T10:02:52.000Z</time>
      </trkpt>
      <trkpt lat="47.19078" lon="-1.46894">
        <ele>80</ele>
        <time>2021-04-22T10:02:54.000Z</time>
      </trkpt>
      <trkpt lat="47.19086" lon="-1.4688">
        <ele>80</ele>
        <time>2021-04-22T10:02:56.000Z</time>
      </trkpt>
      <trkpt lat="47.19093" lon="-1.46866">
        <ele>80</ele>
        <time>2021-04-22T10:02:58.000Z</time>
      </trkpt>
      <trkpt lat="47.191" lon="-1.4685">
        <ele>80</ele>
        <time>2021-04-22T10:03:00.000Z</time>
      </trkpt>
      <trkpt lat="47.1911" lon="-1.46829">
        <ele>80</ele>
        <time>2021-04-22T10:03:03.000Z</time>
      </trkpt>
      <trkpt lat="47.19117" lon="-1.46814">
        <ele>79</ele>
        <time>2021-04-22T10:03:05.000Z</time>
      </trkpt>
      <trkpt lat="47.19124" lon="-1.468">
        <ele>80</ele>
        <time>2021-04-22T10:03:07.000Z</time>
      </trkpt>
      <trkpt lat="47.19131" lon="-1.46786">
        <ele>80</ele>
        <time>2021-04-22T10:03:09.000Z</time>
      </trkpt>
      <trkpt lat="47.19137" lon="-1.46771">
        <ele>81</ele>
        <time>2021-04-22T10:03:11.000Z</time>
      </trkpt>
      <trkpt lat="47.19144" lon="-1.46757">
        <ele>81</ele>
        <time>2021-04-22T10:03:13.000Z</time>
      </trkpt>
      <trkpt lat="47.19151" lon="-1.46743">
        <ele>82</ele>
        <time>2021-04-22T10:03:15.000Z</time>
      </trkpt>
      <trkpt lat="47.19161" lon="-1.46723">
        <ele>82</ele>
        <time>2021-04-22T10:03:18.000Z</time>
      </trkpt>
      <trkpt lat="47.19168" lon="-1.46708">
        <ele>82</ele>
        <time>2021-04-22T10:03:20.000Z</time>
      </trkpt>
      <trkpt lat="47.19174" lon="-1.46694">
        <ele>82</ele>
        <time>2021-04-22T10:03:22.000Z</time>
      </trkpt>
      <trkpt lat="47.1918" lon="-1.4668">
        <ele>82</ele>
        <time>2021-04-22T10:03:24.000Z</time>
      </trkpt>
      <trkpt lat="47.19188" lon="-1.46666">
        <ele>82</ele>
        <time>2021-04-22T10:03:26.000Z</time>
      </trkpt>
      <trkpt lat="47.19194" lon="-1.46652">
        <ele>81</ele>
        <time>2021-04-22T10:03:28.000Z</time>
      </trkpt>
      <trkpt lat="47.19201" lon="-1.46638">
        <ele>82</ele>
        <time>2021-04-22T10:03:30.000Z</time>
      </trkpt>
      <trkpt lat="47.19211" lon="-1.46617">
        <ele>82</ele>
        <time>2021-04-22T10:03:33.000Z</time>
      </trkpt>
      <trkpt lat="47.19218" lon="-1.46602">
        <ele>82</ele>
        <time>2021-04-22T10:03:35.000Z</time>
      </trkpt>
      <trkpt lat="47.19224" lon="-1.46589">
        <ele>83</ele>
        <time>2021-04-22T10:03:37.000Z</time>
      </trkpt>
      <trkpt lat="47.1923" lon="-1.46575">
        <ele>83</ele>
        <time>2021-04-22T10:03:39.000Z</time>
      </trkpt>
      <trkpt lat="47.19237" lon="-1.46561">
        <ele>83</ele>
        <time>2021-04-22T10:03:41.000Z</time>
      </trkpt>
      <trkpt lat="47.19244" lon="-1.46547">
        <ele>83</ele>
        <time>2021-04-22T10:03:43.000Z</time>
      </trkpt>
      <trkpt lat="47.19251" lon="-1.46533">
        <ele>83</ele>
        <time>2021-04-22T10:03:45.000Z</time>
      </trkpt>
      <trkpt lat="47.19258" lon="-1.46519">
        <ele>83</ele>
        <time>2021-04-22T10:03:47.000Z</time>
      </trkpt>
      <trkpt lat="47.19264" lon="-1.46505">
        <ele>83</ele>
        <time>2021-04-22T10:03:49.000Z</time>
      </trkpt>
      <trkpt lat="47.19271" lon="-1.4649">
        <ele>83</ele>
        <time>2021-04-22T10:03:51.000Z</time>
      </trkpt>
      <trkpt lat="47.19278" lon="-1.46477">
        <ele>83</ele>
        <time>2021-04-22T10:03:53.000Z</time>
      </trkpt>
      <trkpt lat="47.19288" lon="-1.46456">
        <ele>84</ele>
        <time>2021-04-22T10:03:56.000Z</time>
      </trkpt>
      <trkpt lat="47.19295" lon="-1.46442">
        <ele>83</ele>
        <time>2021-04-22T10:03:58.000Z</time>
      </trkpt>
      <trkpt lat="47.19302" lon="-1.46427">
        <ele>83</ele>
        <time>2021-04-22T10:04:00.000Z</time>
      </trkpt>
      <trkpt lat="47.19309" lon="-1.46413">
        <ele>83</ele>
        <time>2021-04-22T10:04:02.000Z</time>
      </trkpt>
      <trkpt lat="47.19315" lon="-1.46399">
        <ele>84</ele>
        <time>2021-04-22T10:04:04.000Z</time>
      </trkpt>
      <trkpt lat="47.19322" lon="-1.46385">
        <ele>84</ele>
        <time>2021-04-22T10:04:06.000Z</time>
      </trkpt>
      <trkpt lat="47.19328" lon="-1.46371">
        <ele>83</ele>
        <time>2021-04-22T10:04:08.000Z</time>
      </trkpt>
      <trkpt lat="47.19334" lon="-1.46356">
        <ele>83</ele>
        <time>2021-04-22T10:04:10.000Z</time>
      </trkpt>
      <trkpt lat="47.1934" lon="-1.46342">
        <ele>83</ele>
        <time>2021-04-22T10:04:12.000Z</time>
      </trkpt>
      <trkpt lat="47.19347" lon="-1.46327">
        <ele>83</ele>
        <time>2021-04-22T10:04:14.000Z</time>
      </trkpt>
      <trkpt lat="47.19352" lon="-1.46312">
        <ele>83</ele>
        <time>2021-04-22T10:04:16.000Z</time>
      </trkpt>
      <trkpt lat="47.19357" lon="-1.46296">
        <ele>82</ele>
        <time>2021-04-22T10:04:18.000Z</time>
      </trkpt>
      <trkpt lat="47.19367" lon="-1.46288">
        <ele>82</ele>
        <time>2021-04-22T10:04:20.000Z</time>
      </trkpt>
      <trkpt lat="47.19378" lon="-1.46297">
        <ele>81</ele>
        <time>2021-04-22T10:04:22.000Z</time>
      </trkpt>
      <trkpt lat="47.19389" lon="-1.46309">
        <ele>81</ele>
        <time>2021-04-22T10:04:24.000Z</time>
      </trkpt>
      <trkpt lat="47.19401" lon="-1.46318">
        <ele>81</ele>
        <time>2021-04-22T10:04:26.000Z</time>
      </trkpt>
      <trkpt lat="47.19413" lon="-1.46325">
        <ele>81</ele>
        <time>2021-04-22T10:04:28.000Z</time>
      </trkpt>
      <trkpt lat="47.19425" lon="-1.46331">
        <ele>80</ele>
        <time>2021-04-22T10:04:30.000Z</time>
      </trkpt>
      <trkpt lat="47.19437" lon="-1.46337">
        <ele>80</ele>
        <time>2021-04-22T10:04:32.000Z</time>
      </trkpt>
      <trkpt lat="47.19455" lon="-1.46346">
        <ele>80</ele>
        <time>2021-04-22T10:04:35.000Z</time>
      </trkpt>
      <trkpt lat="47.19474" lon="-1.46356">
        <ele>81</ele>
        <time>2021-04-22T10:04:38.000Z</time>
      </trkpt>
      <trkpt lat="47.19486" lon="-1.46361">
        <ele>81</ele>
        <time>2021-04-22T10:04:40.000Z</time>
      </trkpt>
      <trkpt lat="47.19498" lon="-1.46367">
        <ele>81</ele>
        <time>2021-04-22T10:04:42.000Z</time>
      </trkpt>
      <trkpt lat="47.19511" lon="-1.46372">
        <ele>81</ele>
        <time>2021-04-22T10:04:44.000Z</time>
      </trkpt>
      <trkpt lat="47.19524" lon="-1.46378">
        <ele>80</ele>
        <time>2021-04-22T10:04:46.000Z</time>
      </trkpt>
      <trkpt lat="47.19536" lon="-1.46383">
        <ele>80</ele>
        <time>2021-04-22T10:04:48.000Z</time>
      </trkpt>
      <trkpt lat="47.19548" lon="-1.46389">
        <ele>80</ele>
        <time>2021-04-22T10:04:50.000Z</time>
      </trkpt>
      <trkpt lat="47.19561" lon="-1.46395">
        <ele>80</ele>
        <time>2021-04-22T10:04:52.000Z</time>
      </trkpt>
      <trkpt lat="47.19573" lon="-1.464">
        <ele>80</ele>
        <time>2021-04-22T10:04:54.000Z</time>
      </trkpt>
      <trkpt lat="47.19585" lon="-1.46407">
        <ele>80</ele>
        <time>2021-04-22T10:04:56.000Z</time>
      </trkpt>
      <trkpt lat="47.19598" lon="-1.46413">
        <ele>79</ele>
        <time>2021-04-22T10:04:58.000Z</time>
      </trkpt>
      <trkpt lat="47.19611" lon="-1.4642">
        <ele>78</ele>
        <time>2021-04-22T10:05:00.000Z</time>
      </trkpt>
      <trkpt lat="47.19623" lon="-1.46425">
        <ele>78</ele>
        <time>2021-04-22T10:05:02.000Z</time>
      </trkpt>
      <trkpt lat="47.19635" lon="-1.46431">
        <ele>78</ele>
        <time>2021-04-22T10:05:04.000Z</time>
      </trkpt>
      <trkpt lat="47.19654" lon="-1.4644">
        <ele>78</ele>
        <time>2021-04-22T10:05:07.000Z</time>
      </trkpt>
      <trkpt lat="47.19667" lon="-1.46446">
        <ele>79</ele>
        <time>2021-04-22T10:05:09.000Z</time>
      </trkpt>
      <trkpt lat="47.19679" lon="-1.46453">
        <ele>78</ele>
        <time>2021-04-22T10:05:11.000Z</time>
      </trkpt>
      <trkpt lat="47.19692" lon="-1.46458">
        <ele>78</ele>
        <time>2021-04-22T10:05:13.000Z</time>
      </trkpt>
      <trkpt lat="47.19705" lon="-1.46466">
        <ele>78</ele>
        <time>2021-04-22T10:05:15.000Z</time>
      </trkpt>
      <trkpt lat="47.19717" lon="-1.46472">
        <ele>78</ele>
        <time>2021-04-22T10:05:17.000Z</time>
      </trkpt>
      <trkpt lat="47.1973" lon="-1.46477">
        <ele>79</ele>
        <time>2021-04-22T10:05:19.000Z</time>
      </trkpt>
      <trkpt lat="47.19742" lon="-1.46484">
        <ele>79</ele>
        <time>2021-04-22T10:05:21.000Z</time>
      </trkpt>
      <trkpt lat="47.19755" lon="-1.4649">
        <ele>78</ele>
        <time>2021-04-22T10:05:23.000Z</time>
      </trkpt>
      <trkpt lat="47.19768" lon="-1.46495">
        <ele>77</ele>
        <time>2021-04-22T10:05:25.000Z</time>
      </trkpt>
      <trkpt lat="47.19781" lon="-1.46501">
        <ele>77</ele>
        <time>2021-04-22T10:05:27.000Z</time>
      </trkpt>
      <trkpt lat="47.19794" lon="-1.46507">
        <ele>77</ele>
        <time>2021-04-22T10:05:29.000Z</time>
      </trkpt>
      <trkpt lat="47.19807" lon="-1.46514">
        <ele>77</ele>
        <time>2021-04-22T10:05:31.000Z</time>
      </trkpt>
      <trkpt lat="47.1982" lon="-1.4652">
        <ele>76</ele>
        <time>2021-04-22T10:05:33.000Z</time>
      </trkpt>
      <trkpt lat="47.19833" lon="-1.46527">
        <ele>76</ele>
        <time>2021-04-22T10:05:35.000Z</time>
      </trkpt>
      <trkpt lat="47.19846" lon="-1.46533">
        <ele>76</ele>
        <time>2021-04-22T10:05:37.000Z</time>
      </trkpt>
      <trkpt lat="47.19859" lon="-1.4654">
        <ele>75</ele>
        <time>2021-04-22T10:05:39.000Z</time>
      </trkpt>
      <trkpt lat="47.19872" lon="-1.46545">
        <ele>76</ele>
        <time>2021-04-22T10:05:41.000Z</time>
      </trkpt>
      <trkpt lat="47.19885" lon="-1.4655">
        <ele>75</ele>
        <time>2021-04-22T10:05:43.000Z</time>
      </trkpt>
      <trkpt lat="47.19897" lon="-1.46556">
        <ele>74</ele>
        <time>2021-04-22T10:05:45.000Z</time>
      </trkpt>
      <trkpt lat="47.1991" lon="-1.46562">
        <ele>74</ele>
        <time>2021-04-22T10:05:47.000Z</time>
      </trkpt>
      <trkpt lat="47.19923" lon="-1.46568">
        <ele>73</ele>
        <time>2021-04-22T10:05:49.000Z</time>
      </trkpt>
      <trkpt lat="47.19936" lon="-1.46574">
        <ele>73</ele>
        <time>2021-04-22T10:05:51.000Z</time>
      </trkpt>
      <trkpt lat="47.19955" lon="-1.46581">
        <ele>73</ele>
        <time>2021-04-22T10:05:54.000Z</time>
      </trkpt>
      <trkpt lat="47.19967" lon="-1.46587">
        <ele>73</ele>
        <time>2021-04-22T10:05:56.000Z</time>
      </trkpt>
      <trkpt lat="47.1998" lon="-1.46592">
        <ele>73</ele>
        <time>2021-04-22T10:05:58.000Z</time>
      </trkpt>
      <trkpt lat="47.19992" lon="-1.46597">
        <ele>73</ele>
        <time>2021-04-22T10:06:00.000Z</time>
      </trkpt>
      <trkpt lat="47.20005" lon="-1.46603">
        <ele>73</ele>
        <time>2021-04-22T10:06:02.000Z</time>
      </trkpt>
      <trkpt lat="47.20018" lon="-1.46608">
        <ele>72</ele>
        <time>2021-04-22T10:06:04.000Z</time>
      </trkpt>
      <trkpt lat="47.20031" lon="-1.46613">
        <ele>72</ele>
        <time>2021-04-22T10:06:06.000Z</time>
      </trkpt>
      <trkpt lat="47.20044" lon="-1.46618">
        <ele>72</ele>
        <time>2021-04-22T10:06:08.000Z</time>
      </trkpt>
      <trkpt lat="47.20055" lon="-1.46623">
        <ele>72</ele>
        <time>2021-04-22T10:06:10.000Z</time>
      </trkpt>
      <trkpt lat="47.20066" lon="-1.46627">
        <ele>73</ele>
        <time>2021-04-22T10:06:12.000Z</time>
      </trkpt>
      <trkpt lat="47.20077" lon="-1.46633">
        <ele>73</ele>
        <time>2021-04-22T10:06:14.000Z</time>
      </trkpt>
      <trkpt lat="47.20089" lon="-1.46638">
        <ele>73</ele>
        <time>2021-04-22T10:06:16.000Z</time>
      </trkpt>
      <trkpt lat="47.20101" lon="-1.46646">
        <ele>73</ele>
        <time>2021-04-22T10:06:18.000Z</time>
      </trkpt>
      <trkpt lat="47.20113" lon="-1.46652">
        <ele>73</ele>
        <time>2021-04-22T10:06:20.000Z</time>
      </trkpt>
      <trkpt lat="47.20125" lon="-1.46657">
        <ele>73</ele>
        <time>2021-04-22T10:06:22.000Z</time>
      </trkpt>
      <trkpt lat="47.2014" lon="-1.46667">
        <ele>72</ele>
        <time>2021-04-22T10:06:24.000Z</time>
      </trkpt>
      <trkpt lat="47.20153" lon="-1.46666">
        <ele>72</ele>
        <time>2021-04-22T10:06:26.000Z</time>
      </trkpt>
      <trkpt lat="47.20166" lon="-1.46669">
        <ele>72</ele>
        <time>2021-04-22T10:06:28.000Z</time>
      </trkpt>
      <trkpt lat="47.20179" lon="-1.46673">
        <ele>70</ele>
        <time>2021-04-22T10:06:30.000Z</time>
      </trkpt>
      <trkpt lat="47.20192" lon="-1.46678">
        <ele>70</ele>
        <time>2021-04-22T10:06:32.000Z</time>
      </trkpt>
      <trkpt lat="47.20205" lon="-1.46682">
        <ele>70</ele>
        <time>2021-04-22T10:06:34.000Z</time>
      </trkpt>
      <trkpt lat="47.20219" lon="-1.46684">
        <ele>69</ele>
        <time>2021-04-22T10:06:36.000Z</time>
      </trkpt>
      <trkpt lat="47.20232" lon="-1.46686">
        <ele>69</ele>
        <time>2021-04-22T10:06:38.000Z</time>
      </trkpt>
      <trkpt lat="47.20245" lon="-1.46691">
        <ele>69</ele>
        <time>2021-04-22T10:06:40.000Z</time>
      </trkpt>
      <trkpt lat="47.20257" lon="-1.46694">
        <ele>69</ele>
        <time>2021-04-22T10:06:42.000Z</time>
      </trkpt>
      <trkpt lat="47.2027" lon="-1.46696">
        <ele>69</ele>
        <time>2021-04-22T10:06:44.000Z</time>
      </trkpt>
      <trkpt lat="47.20283" lon="-1.46699">
        <ele>69</ele>
        <time>2021-04-22T10:06:46.000Z</time>
      </trkpt>
      <trkpt lat="47.20296" lon="-1.467">
        <ele>69</ele>
        <time>2021-04-22T10:06:48.000Z</time>
      </trkpt>
      <trkpt lat="47.20309" lon="-1.46702">
        <ele>69</ele>
        <time>2021-04-22T10:06:50.000Z</time>
      </trkpt>
      <trkpt lat="47.20321" lon="-1.46705">
        <ele>69</ele>
        <time>2021-04-22T10:06:52.000Z</time>
      </trkpt>
      <trkpt lat="47.20334" lon="-1.46707">
        <ele>70</ele>
        <time>2021-04-22T10:06:54.000Z</time>
      </trkpt>
      <trkpt lat="47.20347" lon="-1.46708">
        <ele>69</ele>
        <time>2021-04-22T10:06:56.000Z</time>
      </trkpt>
      <trkpt lat="47.20359" lon="-1.4671">
        <ele>70</ele>
        <time>2021-04-22T10:06:58.000Z</time>
      </trkpt>
      <trkpt lat="47.20372" lon="-1.46712">
        <ele>70</ele>
        <time>2021-04-22T10:07:00.000Z</time>
      </trkpt>
      <trkpt lat="47.20384" lon="-1.46713">
        <ele>70</ele>
        <time>2021-04-22T10:07:02.000Z</time>
      </trkpt>
      <trkpt lat="47.20396" lon="-1.46715">
        <ele>70</ele>
        <time>2021-04-22T10:07:04.000Z</time>
      </trkpt>
      <trkpt lat="47.20408" lon="-1.46717">
        <ele>71</ele>
        <time>2021-04-22T10:07:06.000Z</time>
      </trkpt>
      <trkpt lat="47.20421" lon="-1.46718">
        <ele>71</ele>
        <time>2021-04-22T10:07:08.000Z</time>
      </trkpt>
      <trkpt lat="47.20432" lon="-1.4672">
        <ele>71</ele>
        <time>2021-04-22T10:07:10.000Z</time>
      </trkpt>
      <trkpt lat="47.20445" lon="-1.46722">
        <ele>72</ele>
        <time>2021-04-22T10:07:12.000Z</time>
      </trkpt>
      <trkpt lat="47.20457" lon="-1.46724">
        <ele>71</ele>
        <time>2021-04-22T10:07:14.000Z</time>
      </trkpt>
      <trkpt lat="47.20469" lon="-1.46726">
        <ele>72</ele>
        <time>2021-04-22T10:07:16.000Z</time>
      </trkpt>
      <trkpt lat="47.20481" lon="-1.46727">
        <ele>71</ele>
        <time>2021-04-22T10:07:18.000Z</time>
      </trkpt>
      <trkpt lat="47.20494" lon="-1.4673">
        <ele>71</ele>
        <time>2021-04-22T10:07:20.000Z</time>
      </trkpt>
      <trkpt lat="47.20506" lon="-1.46732">
        <ele>71</ele>
        <time>2021-04-22T10:07:22.000Z</time>
      </trkpt>
      <trkpt lat="47.20518" lon="-1.46733">
        <ele>71</ele>
        <time>2021-04-22T10:07:24.000Z</time>
      </trkpt>
      <trkpt lat="47.2053" lon="-1.46735">
        <ele>71</ele>
        <time>2021-04-22T10:07:26.000Z</time>
      </trkpt>
      <trkpt lat="47.20541" lon="-1.46736">
        <ele>71</ele>
        <time>2021-04-22T10:07:28.000Z</time>
      </trkpt>
      <trkpt lat="47.20553" lon="-1.46736">
        <ele>71</ele>
        <time>2021-04-22T10:07:30.000Z</time>
      </trkpt>
      <trkpt lat="47.20564" lon="-1.46735">
        <ele>71</ele>
        <time>2021-04-22T10:07:32.000Z</time>
      </trkpt>
      <trkpt lat="47.20575" lon="-1.46733">
        <ele>71</ele>
        <time>2021-04-22T10:07:34.000Z</time>
      </trkpt>
      <trkpt lat="47.20586" lon="-1.46731">
        <ele>72</ele>
        <time>2021-04-22T10:07:36.000Z</time>
      </trkpt>
      <trkpt lat="47.20598" lon="-1.4673">
        <ele>72</ele>
        <time>2021-04-22T10:07:38.000Z</time>
      </trkpt>
      <trkpt lat="47.20609" lon="-1.46726">
        <ele>72</ele>
        <time>2021-04-22T10:07:40.000Z</time>
      </trkpt>
      <trkpt lat="47.20621" lon="-1.46723">
        <ele>72</ele>
        <time>2021-04-22T10:07:42.000Z</time>
      </trkpt>
      <trkpt lat="47.20633" lon="-1.46722">
        <ele>72</ele>
        <time>2021-04-22T10:07:44.000Z</time>
      </trkpt>
      <trkpt lat="47.20645" lon="-1.4672">
        <ele>72</ele>
        <time>2021-04-22T10:07:46.000Z</time>
      </trkpt>
      <trkpt lat="47.20656" lon="-1.46717">
        <ele>73</ele>
        <time>2021-04-22T10:07:48.000Z</time>
      </trkpt>
      <trkpt lat="47.20668" lon="-1.46714">
        <ele>74</ele>
        <time>2021-04-22T10:07:50.000Z</time>
      </trkpt>
      <trkpt lat="47.2068" lon="-1.46712">
        <ele>74</ele>
        <time>2021-04-22T10:07:52.000Z</time>
      </trkpt>
      <trkpt lat="47.20692" lon="-1.4671">
        <ele>73</ele>
        <time>2021-04-22T10:07:54.000Z</time>
      </trkpt>
      <trkpt lat="47.20704" lon="-1.46708">
        <ele>74</ele>
        <time>2021-04-22T10:07:56.000Z</time>
      </trkpt>
      <trkpt lat="47.20716" lon="-1.46706">
        <ele>74</ele>
        <time>2021-04-22T10:07:58.000Z</time>
      </trkpt>
      <trkpt lat="47.20727" lon="-1.46705">
        <ele>74</ele>
        <time>2021-04-22T10:08:00.000Z</time>
      </trkpt>
      <trkpt lat="47.2074" lon="-1.46703">
        <ele>74</ele>
        <time>2021-04-22T10:08:02.000Z</time>
      </trkpt>
      <trkpt lat="47.20752" lon="-1.46701">
        <ele>74</ele>
        <time>2021-04-22T10:08:04.000Z</time>
      </trkpt>
      <trkpt lat="47.20764" lon="-1.46699">
        <ele>74</ele>
        <time>2021-04-22T10:08:06.000Z</time>
      </trkpt>
      <trkpt lat="47.20776" lon="-1.46697">
        <ele>74</ele>
        <time>2021-04-22T10:08:08.000Z</time>
      </trkpt>
      <trkpt lat="47.20788" lon="-1.46695">
        <ele>74</ele>
        <time>2021-04-22T10:08:10.000Z</time>
      </trkpt>
      <trkpt lat="47.208" lon="-1.46694">
        <ele>74</ele>
        <time>2021-04-22T10:08:12.000Z</time>
      </trkpt>
      <trkpt lat="47.20812" lon="-1.46694">
        <ele>74</ele>
        <time>2021-04-22T10:08:14.000Z</time>
      </trkpt>
      <trkpt lat="47.20824" lon="-1.46691">
        <ele>74</ele>
        <time>2021-04-22T10:08:16.000Z</time>
      </trkpt>
      <trkpt lat="47.20836" lon="-1.46688">
        <ele>74</ele>
        <time>2021-04-22T10:08:18.000Z</time>
      </trkpt>
      <trkpt lat="47.20848" lon="-1.46684">
        <ele>74</ele>
        <time>2021-04-22T10:08:20.000Z</time>
      </trkpt>
      <trkpt lat="47.2086" lon="-1.4668">
        <ele>74</ele>
        <time>2021-04-22T10:08:22.000Z</time>
      </trkpt>
      <trkpt lat="47.20873" lon="-1.4668">
        <ele>73</ele>
        <time>2021-04-22T10:08:24.000Z</time>
      </trkpt>
      <trkpt lat="47.20885" lon="-1.46675">
        <ele>73</ele>
        <time>2021-04-22T10:08:26.000Z</time>
      </trkpt>
      <trkpt lat="47.20896" lon="-1.46667">
        <ele>73</ele>
        <time>2021-04-22T10:08:28.000Z</time>
      </trkpt>
      <trkpt lat="47.20907" lon="-1.46662">
        <ele>73</ele>
        <time>2021-04-22T10:08:30.000Z</time>
      </trkpt>
      <trkpt lat="47.20918" lon="-1.46654">
        <ele>74</ele>
        <time>2021-04-22T10:08:32.000Z</time>
      </trkpt>
      <trkpt lat="47.20929" lon="-1.46647">
        <ele>74</ele>
        <time>2021-04-22T10:08:34.000Z</time>
      </trkpt>
      <trkpt lat="47.2094" lon="-1.46639">
        <ele>74</ele>
        <time>2021-04-22T10:08:36.000Z</time>
      </trkpt>
      <trkpt lat="47.20952" lon="-1.46633">
        <ele>74</ele>
        <time>2021-04-22T10:08:38.000Z</time>
      </trkpt>
      <trkpt lat="47.20963" lon="-1.46627">
        <ele>74</ele>
        <time>2021-04-22T10:08:40.000Z</time>
      </trkpt>
      <trkpt lat="47.20976" lon="-1.46623">
        <ele>74</ele>
        <time>2021-04-22T10:08:42.000Z</time>
      </trkpt>
      <trkpt lat="47.20988" lon="-1.4662">
        <ele>75</ele>
        <time>2021-04-22T10:08:44.000Z</time>
      </trkpt>
      <trkpt lat="47.21001" lon="-1.46616">
        <ele>76</ele>
        <time>2021-04-22T10:08:46.000Z</time>
      </trkpt>
      <trkpt lat="47.21013" lon="-1.46613">
        <ele>75</ele>
        <time>2021-04-22T10:08:48.000Z</time>
      </trkpt>
      <trkpt lat="47.21025" lon="-1.46608">
        <ele>75</ele>
        <time>2021-04-22T10:08:50.000Z</time>
      </trkpt>
      <trkpt lat="47.21037" lon="-1.46603">
        <ele>74</ele>
        <time>2021-04-22T10:08:52.000Z</time>
      </trkpt>
      <trkpt lat="47.21048" lon="-1.46596">
        <ele>74</ele>
        <time>2021-04-22T10:08:54.000Z</time>
      </trkpt>
      <trkpt lat="47.21054" lon="-1.4658">
        <ele>74</ele>
        <time>2021-04-22T10:08:56.000Z</time>
      </trkpt>
      <trkpt lat="47.2106" lon="-1.46565">
        <ele>73</ele>
        <time>2021-04-22T10:08:58.000Z</time>
      </trkpt>
      <trkpt lat="47.21067" lon="-1.46553">
        <ele>73</ele>
        <time>2021-04-22T10:09:00.000Z</time>
      </trkpt>
      <trkpt lat="47.21076" lon="-1.4654">
        <ele>73</ele>
        <time>2021-04-22T10:09:02.000Z</time>
      </trkpt>
      <trkpt lat="47.21087" lon="-1.46535">
        <ele>72</ele>
        <time>2021-04-22T10:09:04.000Z</time>
      </trkpt>
      <trkpt lat="47.21098" lon="-1.46541">
        <ele>72</ele>
        <time>2021-04-22T10:09:06.000Z</time>
      </trkpt>
      <trkpt lat="47.21108" lon="-1.46551">
        <ele>71</ele>
        <time>2021-04-22T10:09:08.000Z</time>
      </trkpt>
      <trkpt lat="47.21119" lon="-1.46561">
        <ele>70</ele>
        <time>2021-04-22T10:09:10.000Z</time>
      </trkpt>
      <trkpt lat="47.21128" lon="-1.46573">
        <ele>70</ele>
        <time>2021-04-22T10:09:12.000Z</time>
      </trkpt>
      <trkpt lat="47.21138" lon="-1.46584">
        <ele>69</ele>
        <time>2021-04-22T10:09:14.000Z</time>
      </trkpt>
      <trkpt lat="47.2115" lon="-1.4659">
        <ele>69</ele>
        <time>2021-04-22T10:09:16.000Z</time>
      </trkpt>
      <trkpt lat="47.21162" lon="-1.46595">
        <ele>70</ele>
        <time>2021-04-22T10:09:18.000Z</time>
      </trkpt>
      <trkpt lat="47.21173" lon="-1.466">
        <ele>71</ele>
        <time>2021-04-22T10:09:20.000Z</time>
      </trkpt>
      <trkpt lat="47.21185" lon="-1.46606">
        <ele>72</ele>
        <time>2021-04-22T10:09:22.000Z</time>
      </trkpt>
      <trkpt lat="47.21196" lon="-1.46612">
        <ele>73</ele>
        <time>2021-04-22T10:09:24.000Z</time>
      </trkpt>
      <trkpt lat="47.21208" lon="-1.46618">
        <ele>73</ele>
        <time>2021-04-22T10:09:26.000Z</time>
      </trkpt>
      <trkpt lat="47.2122" lon="-1.46623">
        <ele>71</ele>
        <time>2021-04-22T10:09:28.000Z</time>
      </trkpt>
      <trkpt lat="47.21232" lon="-1.46626">
        <ele>71</ele>
        <time>2021-04-22T10:09:30.000Z</time>
      </trkpt>
      <trkpt lat="47.21244" lon="-1.46628">
        <ele>71</ele>
        <time>2021-04-22T10:09:32.000Z</time>
      </trkpt>
      <trkpt lat="47.21256" lon="-1.4663">
        <ele>71</ele>
        <time>2021-04-22T10:09:34.000Z</time>
      </trkpt>
      <trkpt lat="47.21268" lon="-1.46631">
        <ele>72</ele>
        <time>2021-04-22T10:09:36.000Z</time>
      </trkpt>
      <trkpt lat="47.2128" lon="-1.46631">
        <ele>73</ele>
        <time>2021-04-22T10:09:38.000Z</time>
      </trkpt>
      <trkpt lat="47.21292" lon="-1.46632">
        <ele>73</ele>
        <time>2021-04-22T10:09:40.000Z</time>
      </trkpt>
      <trkpt lat="47.21304" lon="-1.46633">
        <ele>73</ele>
        <time>2021-04-22T10:09:42.000Z</time>
      </trkpt>
      <trkpt lat="47.21316" lon="-1.46634">
        <ele>73</ele>
        <time>2021-04-22T10:09:44.000Z</time>
      </trkpt>
      <trkpt lat="47.21328" lon="-1.46635">
        <ele>73</ele>
        <time>2021-04-22T10:09:46.000Z</time>
      </trkpt>
      <trkpt lat="47.2134" lon="-1.46635">
        <ele>72</ele>
        <time>2021-04-22T10:09:48.000Z</time>
      </trkpt>
      <trkpt lat="47.21353" lon="-1.46635">
        <ele>72</ele>
        <time>2021-04-22T10:09:50.000Z</time>
      </trkpt>
      <trkpt lat="47.21365" lon="-1.46635">
        <ele>71</ele>
        <time>2021-04-22T10:09:52.000Z</time>
      </trkpt>
      <trkpt lat="47.21377" lon="-1.46636">
        <ele>72</ele>
        <time>2021-04-22T10:09:54.000Z</time>
      </trkpt>
      <trkpt lat="47.21389" lon="-1.46636">
        <ele>72</ele>
        <time>2021-04-22T10:09:56.000Z</time>
      </trkpt>
      <trkpt lat="47.21401" lon="-1.46636">
        <ele>72</ele>
        <time>2021-04-22T10:09:58.000Z</time>
      </trkpt>
      <trkpt lat="47.21413" lon="-1.46637">
        <ele>71</ele>
        <time>2021-04-22T10:10:00.000Z</time>
      </trkpt>
      <trkpt lat="47.21425" lon="-1.46637">
        <ele>71</ele>
        <time>2021-04-22T10:10:02.000Z</time>
      </trkpt>
      <trkpt lat="47.21438" lon="-1.46635">
        <ele>71</ele>
        <time>2021-04-22T10:10:04.000Z</time>
      </trkpt>
      <trkpt lat="47.2145" lon="-1.46629">
        <ele>71</ele>
        <time>2021-04-22T10:10:06.000Z</time>
      </trkpt>
      <trkpt lat="47.21463" lon="-1.46622">
        <ele>70</ele>
        <time>2021-04-22T10:10:08.000Z</time>
      </trkpt>
      <trkpt lat="47.21476" lon="-1.46612">
        <ele>69</ele>
        <time>2021-04-22T10:10:10.000Z</time>
      </trkpt>
      <trkpt lat="47.21487" lon="-1.46602">
        <ele>69</ele>
        <time>2021-04-22T10:10:12.000Z</time>
      </trkpt>
      <trkpt lat="47.21498" lon="-1.46591">
        <ele>68</ele>
        <time>2021-04-22T10:10:14.000Z</time>
      </trkpt>
      <trkpt lat="47.21507" lon="-1.46578">
        <ele>68</ele>
        <time>2021-04-22T10:10:16.000Z</time>
      </trkpt>
      <trkpt lat="47.21517" lon="-1.46564">
        <ele>66</ele>
        <time>2021-04-22T10:10:18.000Z</time>
      </trkpt>
      <trkpt lat="47.21529" lon="-1.46552">
        <ele>65</ele>
        <time>2021-04-22T10:10:20.000Z</time>
      </trkpt>
      <trkpt lat="47.21541" lon="-1.46542">
        <ele>64</ele>
        <time>2021-04-22T10:10:22.000Z</time>
      </trkpt>
      <trkpt lat="47.21555" lon="-1.46538">
        <ele>62</ele>
        <time>2021-04-22T10:10:24.000Z</time>
      </trkpt>
      <trkpt lat="47.21569" lon="-1.46537">
        <ele>62</ele>
        <time>2021-04-22T10:10:26.000Z</time>
      </trkpt>
      <trkpt lat="47.21584" lon="-1.46536">
        <ele>62</ele>
        <time>2021-04-22T10:10:28.000Z</time>
      </trkpt>
      <trkpt lat="47.216" lon="-1.46535">
        <ele>62</ele>
        <time>2021-04-22T10:10:30.000Z</time>
      </trkpt>
      <trkpt lat="47.21615" lon="-1.46532">
        <ele>61</ele>
        <time>2021-04-22T10:10:32.000Z</time>
      </trkpt>
      <trkpt lat="47.21629" lon="-1.46531">
        <ele>59</ele>
        <time>2021-04-22T10:10:34.000Z</time>
      </trkpt>
      <trkpt lat="47.21639" lon="-1.46527">
        <ele>58</ele>
        <time>2021-04-22T10:10:37.000Z</time>
      </trkpt>
      <trkpt lat="47.21643" lon="-1.46513">
        <ele>58</ele>
        <time>2021-04-22T10:10:40.000Z</time>
      </trkpt>
      <trkpt lat="47.21645" lon="-1.46497">
        <ele>59</ele>
        <time>2021-04-22T10:10:42.000Z</time>
      </trkpt>
      <trkpt lat="47.21646" lon="-1.4648">
        <ele>59</ele>
        <time>2021-04-22T10:10:44.000Z</time>
      </trkpt>
      <trkpt lat="47.21649" lon="-1.46462">
        <ele>59</ele>
        <time>2021-04-22T10:10:46.000Z</time>
      </trkpt>
      <trkpt lat="47.21656" lon="-1.46444">
        <ele>58</ele>
        <time>2021-04-22T10:10:48.000Z</time>
      </trkpt>
      <trkpt lat="47.21657" lon="-1.46424">
        <ele>57</ele>
        <time>2021-04-22T10:10:50.000Z</time>
      </trkpt>
      <trkpt lat="47.21659" lon="-1.46405">
        <ele>56</ele>
        <time>2021-04-22T10:10:52.000Z</time>
      </trkpt>
      <trkpt lat="47.21661" lon="-1.46387">
        <ele>57</ele>
        <time>2021-04-22T10:10:54.000Z</time>
      </trkpt>
      <trkpt lat="47.21662" lon="-1.46368">
        <ele>56</ele>
        <time>2021-04-22T10:10:56.000Z</time>
      </trkpt>
      <trkpt lat="47.21664" lon="-1.46351">
        <ele>56</ele>
        <time>2021-04-22T10:10:58.000Z</time>
      </trkpt>
      <trkpt lat="47.21665" lon="-1.46333">
        <ele>55</ele>
        <time>2021-04-22T10:11:00.000Z</time>
      </trkpt>
      <trkpt lat="47.21667" lon="-1.46315">
        <ele>55</ele>
        <time>2021-04-22T10:11:02.000Z</time>
      </trkpt>
      <trkpt lat="47.2167" lon="-1.46296">
        <ele>55</ele>
        <time>2021-04-22T10:11:04.000Z</time>
      </trkpt>
      <trkpt lat="47.21672" lon="-1.46277">
        <ele>55</ele>
        <time>2021-04-22T10:11:06.000Z</time>
      </trkpt>
      <trkpt lat="47.21673" lon="-1.46257">
        <ele>55</ele>
        <time>2021-04-22T10:11:08.000Z</time>
      </trkpt>
      <trkpt lat="47.21673" lon="-1.46239">
        <ele>55</ele>
        <time>2021-04-22T10:11:10.000Z</time>
      </trkpt>
      <trkpt lat="47.21672" lon="-1.4622">
        <ele>55</ele>
        <time>2021-04-22T10:11:12.000Z</time>
      </trkpt>
      <trkpt lat="47.21668" lon="-1.46203">
        <ele>55</ele>
        <time>2021-04-22T10:11:14.000Z</time>
      </trkpt>
      <trkpt lat="47.21667" lon="-1.46186">
        <ele>55</ele>
        <time>2021-04-22T10:11:16.000Z</time>
      </trkpt>
      <trkpt lat="47.21678" lon="-1.46181">
        <ele>55</ele>
        <time>2021-04-22T10:11:18.000Z</time>
      </trkpt>
      <trkpt lat="47.21688" lon="-1.46177">
        <ele>55</ele>
        <time>2021-04-22T10:11:20.000Z</time>
      </trkpt>
      <trkpt lat="47.21695" lon="-1.46161">
        <ele>54</ele>
        <time>2021-04-22T10:11:22.000Z</time>
      </trkpt>
      <trkpt lat="47.217" lon="-1.46145">
        <ele>55</ele>
        <time>2021-04-22T10:11:24.000Z</time>
      </trkpt>
      <trkpt lat="47.21706" lon="-1.4613">
        <ele>55</ele>
        <time>2021-04-22T10:11:26.000Z</time>
      </trkpt>
      <trkpt lat="47.21716" lon="-1.46125">
        <ele>54</ele>
        <time>2021-04-22T10:11:28.000Z</time>
      </trkpt>
      <trkpt lat="47.21727" lon="-1.46131">
        <ele>53</ele>
        <time>2021-04-22T10:11:30.000Z</time>
      </trkpt>
      <trkpt lat="47.21738" lon="-1.46137">
        <ele>52</ele>
        <time>2021-04-22T10:11:32.000Z</time>
      </trkpt>
      <trkpt lat="47.21749" lon="-1.46144">
        <ele>52</ele>
        <time>2021-04-22T10:11:34.000Z</time>
      </trkpt>
      <trkpt lat="47.2176" lon="-1.4615">
        <ele>52</ele>
        <time>2021-04-22T10:11:36.000Z</time>
      </trkpt>
      <trkpt lat="47.21772" lon="-1.46158">
        <ele>52</ele>
        <time>2021-04-22T10:11:38.000Z</time>
      </trkpt>
      <trkpt lat="47.21783" lon="-1.46165">
        <ele>52</ele>
        <time>2021-04-22T10:11:40.000Z</time>
      </trkpt>
      <trkpt lat="47.21794" lon="-1.46168">
        <ele>51</ele>
        <time>2021-04-22T10:11:42.000Z</time>
      </trkpt>
      <trkpt lat="47.21806" lon="-1.46172">
        <ele>51</ele>
        <time>2021-04-22T10:11:44.000Z</time>
      </trkpt>
      <trkpt lat="47.21819" lon="-1.46179">
        <ele>51</ele>
        <time>2021-04-22T10:11:46.000Z</time>
      </trkpt>
      <trkpt lat="47.21832" lon="-1.46187">
        <ele>51</ele>
        <time>2021-04-22T10:11:48.000Z</time>
      </trkpt>
      <trkpt lat="47.21845" lon="-1.46193">
        <ele>52</ele>
        <time>2021-04-22T10:11:50.000Z</time>
      </trkpt>
      <trkpt lat="47.21858" lon="-1.462">
        <ele>51</ele>
        <time>2021-04-22T10:11:52.000Z</time>
      </trkpt>
      <trkpt lat="47.21871" lon="-1.46207">
        <ele>51</ele>
        <time>2021-04-22T10:11:54.000Z</time>
      </trkpt>
      <trkpt lat="47.21884" lon="-1.46214">
        <ele>51</ele>
        <time>2021-04-22T10:11:56.000Z</time>
      </trkpt>
      <trkpt lat="47.21897" lon="-1.4622">
        <ele>51</ele>
        <time>2021-04-22T10:11:58.000Z</time>
      </trkpt>
      <trkpt lat="47.2191" lon="-1.46227">
        <ele>51</ele>
        <time>2021-04-22T10:12:00.000Z</time>
      </trkpt>
      <trkpt lat="47.21923" lon="-1.46234">
        <ele>51</ele>
        <time>2021-04-22T10:12:02.000Z</time>
      </trkpt>
      <trkpt lat="47.21935" lon="-1.46241">
        <ele>51</ele>
        <time>2021-04-22T10:12:04.000Z</time>
      </trkpt>
      <trkpt lat="47.21948" lon="-1.46248">
        <ele>51</ele>
        <time>2021-04-22T10:12:06.000Z</time>
      </trkpt>
      <trkpt lat="47.2196" lon="-1.46254">
        <ele>52</ele>
        <time>2021-04-22T10:12:08.000Z</time>
      </trkpt>
      <trkpt lat="47.21972" lon="-1.4626">
        <ele>52</ele>
        <time>2021-04-22T10:12:10.000Z</time>
      </trkpt>
      <trkpt lat="47.21985" lon="-1.46266">
        <ele>53</ele>
        <time>2021-04-22T10:12:12.000Z</time>
      </trkpt>
      <trkpt lat="47.21998" lon="-1.46272">
        <ele>51</ele>
        <time>2021-04-22T10:12:14.000Z</time>
      </trkpt>
      <trkpt lat="47.22012" lon="-1.4628">
        <ele>51</ele>
        <time>2021-04-22T10:12:16.000Z</time>
      </trkpt>
      <trkpt lat="47.22025" lon="-1.46286">
        <ele>51</ele>
        <time>2021-04-22T10:12:18.000Z</time>
      </trkpt>
      <trkpt lat="47.22038" lon="-1.46293">
        <ele>51</ele>
        <time>2021-04-22T10:12:20.000Z</time>
      </trkpt>
      <trkpt lat="47.22051" lon="-1.463">
        <ele>51</ele>
        <time>2021-04-22T10:12:22.000Z</time>
      </trkpt>
      <trkpt lat="47.22064" lon="-1.46307">
        <ele>51</ele>
        <time>2021-04-22T10:12:24.000Z</time>
      </trkpt>
      <trkpt lat="47.22077" lon="-1.46314">
        <ele>51</ele>
        <time>2021-04-22T10:12:26.000Z</time>
      </trkpt>
      <trkpt lat="47.2209" lon="-1.4632">
        <ele>50</ele>
        <time>2021-04-22T10:12:28.000Z</time>
      </trkpt>
      <trkpt lat="47.22103" lon="-1.46327">
        <ele>50</ele>
        <time>2021-04-22T10:12:30.000Z</time>
      </trkpt>
      <trkpt lat="47.22116" lon="-1.46333">
        <ele>50</ele>
        <time>2021-04-22T10:12:32.000Z</time>
      </trkpt>
      <trkpt lat="47.22128" lon="-1.4634">
        <ele>50</ele>
        <time>2021-04-22T10:12:34.000Z</time>
      </trkpt>
      <trkpt lat="47.22141" lon="-1.46347">
        <ele>50</ele>
        <time>2021-04-22T10:12:36.000Z</time>
      </trkpt>
      <trkpt lat="47.22154" lon="-1.46353">
        <ele>51</ele>
        <time>2021-04-22T10:12:38.000Z</time>
      </trkpt>
      <trkpt lat="47.22167" lon="-1.4636">
        <ele>51</ele>
        <time>2021-04-22T10:12:40.000Z</time>
      </trkpt>
      <trkpt lat="47.22179" lon="-1.46367">
        <ele>50</ele>
        <time>2021-04-22T10:12:42.000Z</time>
      </trkpt>
      <trkpt lat="47.22192" lon="-1.46373">
        <ele>51</ele>
        <time>2021-04-22T10:12:44.000Z</time>
      </trkpt>
      <trkpt lat="47.22204" lon="-1.46379">
        <ele>50</ele>
        <time>2021-04-22T10:12:46.000Z</time>
      </trkpt>
      <trkpt lat="47.22218" lon="-1.46386">
        <ele>51</ele>
        <time>2021-04-22T10:12:48.000Z</time>
      </trkpt>
      <trkpt lat="47.22232" lon="-1.46394">
        <ele>51</ele>
        <time>2021-04-22T10:12:50.000Z</time>
      </trkpt>
      <trkpt lat="47.22245" lon="-1.46402">
        <ele>51</ele>
        <time>2021-04-22T10:12:52.000Z</time>
      </trkpt>
      <trkpt lat="47.22259" lon="-1.46408">
        <ele>51</ele>
        <time>2021-04-22T10:12:54.000Z</time>
      </trkpt>
      <trkpt lat="47.22273" lon="-1.46414">
        <ele>51</ele>
        <time>2021-04-22T10:12:56.000Z</time>
      </trkpt>
      <trkpt lat="47.22285" lon="-1.4642">
        <ele>51</ele>
        <time>2021-04-22T10:12:58.000Z</time>
      </trkpt>
      <trkpt lat="47.22298" lon="-1.46425">
        <ele>51</ele>
        <time>2021-04-22T10:13:00.000Z</time>
      </trkpt>
      <trkpt lat="47.22311" lon="-1.46431">
        <ele>51</ele>
        <time>2021-04-22T10:13:02.000Z</time>
      </trkpt>
      <trkpt lat="47.22323" lon="-1.46437">
        <ele>51</ele>
        <time>2021-04-22T10:13:04.000Z</time>
      </trkpt>
      <trkpt lat="47.22334" lon="-1.46446">
        <ele>51</ele>
        <time>2021-04-22T10:13:06.000Z</time>
      </trkpt>
      <trkpt lat="47.22346" lon="-1.46457">
        <ele>52</ele>
        <time>2021-04-22T10:13:08.000Z</time>
      </trkpt>
      <trkpt lat="47.22357" lon="-1.46469">
        <ele>52</ele>
        <time>2021-04-22T10:13:10.000Z</time>
      </trkpt>
      <trkpt lat="47.22366" lon="-1.46482">
        <ele>53</ele>
        <time>2021-04-22T10:13:12.000Z</time>
      </trkpt>
      <trkpt lat="47.22376" lon="-1.46496">
        <ele>53</ele>
        <time>2021-04-22T10:13:14.000Z</time>
      </trkpt>
      <trkpt lat="47.22385" lon="-1.46508">
        <ele>53</ele>
        <time>2021-04-22T10:13:16.000Z</time>
      </trkpt>
      <trkpt lat="47.22395" lon="-1.46521">
        <ele>53</ele>
        <time>2021-04-22T10:13:18.000Z</time>
      </trkpt>
      <trkpt lat="47.22404" lon="-1.46534">
        <ele>53</ele>
        <time>2021-04-22T10:13:20.000Z</time>
      </trkpt>
      <trkpt lat="47.22414" lon="-1.46548">
        <ele>53</ele>
        <time>2021-04-22T10:13:22.000Z</time>
      </trkpt>
      <trkpt lat="47.22424" lon="-1.46561">
        <ele>53</ele>
        <time>2021-04-22T10:13:24.000Z</time>
      </trkpt>
      <trkpt lat="47.22433" lon="-1.46574">
        <ele>53</ele>
        <time>2021-04-22T10:13:26.000Z</time>
      </trkpt>
      <trkpt lat="47.22442" lon="-1.46586">
        <ele>53</ele>
        <time>2021-04-22T10:13:28.000Z</time>
      </trkpt>
      <trkpt lat="47.22451" lon="-1.46598">
        <ele>53</ele>
        <time>2021-04-22T10:13:30.000Z</time>
      </trkpt>
      <trkpt lat="47.22461" lon="-1.46611">
        <ele>54</ele>
        <time>2021-04-22T10:13:32.000Z</time>
      </trkpt>
      <trkpt lat="47.22469" lon="-1.46623">
        <ele>54</ele>
        <time>2021-04-22T10:13:34.000Z</time>
      </trkpt>
      <trkpt lat="47.22477" lon="-1.46634">
        <ele>54</ele>
        <time>2021-04-22T10:13:36.000Z</time>
      </trkpt>
      <trkpt lat="47.22484" lon="-1.46644">
        <ele>54</ele>
        <time>2021-04-22T10:13:38.000Z</time>
      </trkpt>
      <trkpt lat="47.22492" lon="-1.46657">
        <ele>55</ele>
        <time>2021-04-22T10:13:41.000Z</time>
      </trkpt>
      <trkpt lat="47.22504" lon="-1.46666">
        <ele>55</ele>
        <time>2021-04-22T10:13:44.000Z</time>
      </trkpt>
      <trkpt lat="47.22512" lon="-1.46675">
        <ele>55</ele>
        <time>2021-04-22T10:13:46.000Z</time>
      </trkpt>
      <trkpt lat="47.22523" lon="-1.46684">
        <ele>55</ele>
        <time>2021-04-22T10:13:48.000Z</time>
      </trkpt>
      <trkpt lat="47.22534" lon="-1.46689">
        <ele>55</ele>
        <time>2021-04-22T10:13:50.000Z</time>
      </trkpt>
      <trkpt lat="47.22543" lon="-1.46699">
        <ele>55</ele>
        <time>2021-04-22T10:13:52.000Z</time>
      </trkpt>
      <trkpt lat="47.22547" lon="-1.46714">
        <ele>55</ele>
        <time>2021-04-22T10:13:54.000Z</time>
      </trkpt>
      <trkpt lat="47.22556" lon="-1.46729">
        <ele>54</ele>
        <time>2021-04-22T10:13:56.000Z</time>
      </trkpt>
      <trkpt lat="47.22567" lon="-1.46743">
        <ele>54</ele>
        <time>2021-04-22T10:13:58.000Z</time>
      </trkpt>
      <trkpt lat="47.22578" lon="-1.46754">
        <ele>53</ele>
        <time>2021-04-22T10:14:00.000Z</time>
      </trkpt>
      <trkpt lat="47.2259" lon="-1.46763">
        <ele>53</ele>
        <time>2021-04-22T10:14:02.000Z</time>
      </trkpt>
      <trkpt lat="47.22603" lon="-1.46772">
        <ele>53</ele>
        <time>2021-04-22T10:14:04.000Z</time>
      </trkpt>
      <trkpt lat="47.2262" lon="-1.46786">
        <ele>53</ele>
        <time>2021-04-22T10:14:07.000Z</time>
      </trkpt>
      <trkpt lat="47.22628" lon="-1.46797">
        <ele>54</ele>
        <time>2021-04-22T10:14:09.000Z</time>
      </trkpt>
      <trkpt lat="47.22632" lon="-1.46815">
        <ele>54</ele>
        <time>2021-04-22T10:14:11.000Z</time>
      </trkpt>
      <trkpt lat="47.22626" lon="-1.46832">
        <ele>56</ele>
        <time>2021-04-22T10:14:13.000Z</time>
      </trkpt>
      <trkpt lat="47.22618" lon="-1.46847">
        <ele>56</ele>
        <time>2021-04-22T10:14:15.000Z</time>
      </trkpt>
      <trkpt lat="47.2261" lon="-1.46863">
        <ele>56</ele>
        <time>2021-04-22T10:14:17.000Z</time>
      </trkpt>
      <trkpt lat="47.22606" lon="-1.46882">
        <ele>56</ele>
        <time>2021-04-22T10:14:19.000Z</time>
      </trkpt>
      <trkpt lat="47.22606" lon="-1.46903">
        <ele>55</ele>
        <time>2021-04-22T10:14:21.000Z</time>
      </trkpt>
      <trkpt lat="47.22607" lon="-1.46926">
        <ele>55</ele>
        <time>2021-04-22T10:14:23.000Z</time>
      </trkpt>
      <trkpt lat="47.22606" lon="-1.46961">
        <ele>55</ele>
        <time>2021-04-22T10:14:26.000Z</time>
      </trkpt>
      <trkpt lat="47.22607" lon="-1.46982">
        <ele>55</ele>
        <time>2021-04-22T10:14:28.000Z</time>
      </trkpt>
      <trkpt lat="47.22606" lon="-1.47004">
        <ele>55</ele>
        <time>2021-04-22T10:14:30.000Z</time>
      </trkpt>
      <trkpt lat="47.22602" lon="-1.47025">
        <ele>55</ele>
        <time>2021-04-22T10:14:32.000Z</time>
      </trkpt>
      <trkpt lat="47.22597" lon="-1.47044">
        <ele>56</ele>
        <time>2021-04-22T10:14:34.000Z</time>
      </trkpt>
      <trkpt lat="47.22589" lon="-1.47061">
        <ele>55</ele>
        <time>2021-04-22T10:14:36.000Z</time>
      </trkpt>
      <trkpt lat="47.2258" lon="-1.47075">
        <ele>55</ele>
        <time>2021-04-22T10:14:38.000Z</time>
      </trkpt>
      <trkpt lat="47.2257" lon="-1.47086">
        <ele>56</ele>
        <time>2021-04-22T10:14:40.000Z</time>
      </trkpt>
      <trkpt lat="47.22559" lon="-1.47096">
        <ele>56</ele>
        <time>2021-04-22T10:14:42.000Z</time>
      </trkpt>
      <trkpt lat="47.22549" lon="-1.47104">
        <ele>56</ele>
        <time>2021-04-22T10:14:44.000Z</time>
      </trkpt>
      <trkpt lat="47.22538" lon="-1.4711">
        <ele>56</ele>
        <time>2021-04-22T10:14:46.000Z</time>
      </trkpt>
      <trkpt lat="47.22528" lon="-1.47117">
        <ele>56</ele>
        <time>2021-04-22T10:14:48.000Z</time>
      </trkpt>
      <trkpt lat="47.22537" lon="-1.47126">
        <ele>55</ele>
        <time>2021-04-22T10:14:52.000Z</time>
      </trkpt>
      <trkpt lat="47.22548" lon="-1.4712">
        <ele>55</ele>
        <time>2021-04-22T10:14:54.000Z</time>
      </trkpt>
      <trkpt lat="47.22561" lon="-1.47116">
        <ele>54</ele>
        <time>2021-04-22T10:14:56.000Z</time>
      </trkpt>
      <trkpt lat="47.22574" lon="-1.4711">
        <ele>54</ele>
        <time>2021-04-22T10:14:58.000Z</time>
      </trkpt>
      <trkpt lat="47.22585" lon="-1.47102">
        <ele>54</ele>
        <time>2021-04-22T10:15:00.000Z</time>
      </trkpt>
      <trkpt lat="47.22596" lon="-1.4709">
        <ele>53</ele>
        <time>2021-04-22T10:15:02.000Z</time>
      </trkpt>
      <trkpt lat="47.22605" lon="-1.47076">
        <ele>53</ele>
        <time>2021-04-22T10:15:04.000Z</time>
      </trkpt>
      <trkpt lat="47.22613" lon="-1.4706">
        <ele>53</ele>
        <time>2021-04-22T10:15:06.000Z</time>
      </trkpt>
      <trkpt lat="47.22621" lon="-1.47044">
        <ele>53</ele>
        <time>2021-04-22T10:15:08.000Z</time>
      </trkpt>
      <trkpt lat="47.22631" lon="-1.4703">
        <ele>53</ele>
        <time>2021-04-22T10:15:10.000Z</time>
      </trkpt>
      <trkpt lat="47.2264" lon="-1.47017">
        <ele>53</ele>
        <time>2021-04-22T10:15:12.000Z</time>
      </trkpt>
      <trkpt lat="47.2265" lon="-1.47005">
        <ele>54</ele>
        <time>2021-04-22T10:15:14.000Z</time>
      </trkpt>
      <trkpt lat="47.22661" lon="-1.46993">
        <ele>53</ele>
        <time>2021-04-22T10:15:16.000Z</time>
      </trkpt>
      <trkpt lat="47.22672" lon="-1.46983">
        <ele>53</ele>
        <time>2021-04-22T10:15:18.000Z</time>
      </trkpt>
      <trkpt lat="47.22684" lon="-1.46975">
        <ele>53</ele>
        <time>2021-04-22T10:15:20.000Z</time>
      </trkpt>
      <trkpt lat="47.22696" lon="-1.46968">
        <ele>53</ele>
        <time>2021-04-22T10:15:22.000Z</time>
      </trkpt>
      <trkpt lat="47.22708" lon="-1.46962">
        <ele>53</ele>
        <time>2021-04-22T10:15:24.000Z</time>
      </trkpt>
      <trkpt lat="47.22721" lon="-1.46957">
        <ele>53</ele>
        <time>2021-04-22T10:15:26.000Z</time>
      </trkpt>
      <trkpt lat="47.22734" lon="-1.46954">
        <ele>53</ele>
        <time>2021-04-22T10:15:28.000Z</time>
      </trkpt>
      <trkpt lat="47.22745" lon="-1.46952">
        <ele>53</ele>
        <time>2021-04-22T10:15:30.000Z</time>
      </trkpt>
      <trkpt lat="47.22757" lon="-1.46947">
        <ele>53</ele>
        <time>2021-04-22T10:15:32.000Z</time>
      </trkpt>
      <trkpt lat="47.22766" lon="-1.46934">
        <ele>53</ele>
        <time>2021-04-22T10:15:34.000Z</time>
      </trkpt>
      <trkpt lat="47.22778" lon="-1.46927">
        <ele>54</ele>
        <time>2021-04-22T10:15:36.000Z</time>
      </trkpt>
      <trkpt lat="47.22791" lon="-1.4693">
        <ele>54</ele>
        <time>2021-04-22T10:15:38.000Z</time>
      </trkpt>
      <trkpt lat="47.22803" lon="-1.46936">
        <ele>54</ele>
        <time>2021-04-22T10:15:40.000Z</time>
      </trkpt>
      <trkpt lat="47.22815" lon="-1.46942">
        <ele>53</ele>
        <time>2021-04-22T10:15:42.000Z</time>
      </trkpt>
      <trkpt lat="47.22827" lon="-1.46947">
        <ele>53</ele>
        <time>2021-04-22T10:15:44.000Z</time>
      </trkpt>
      <trkpt lat="47.2284" lon="-1.46952">
        <ele>53</ele>
        <time>2021-04-22T10:15:46.000Z</time>
      </trkpt>
      <trkpt lat="47.22852" lon="-1.46958">
        <ele>53</ele>
        <time>2021-04-22T10:15:48.000Z</time>
      </trkpt>
      <trkpt lat="47.22864" lon="-1.46963">
        <ele>54</ele>
        <time>2021-04-22T10:15:50.000Z</time>
      </trkpt>
      <trkpt lat="47.22876" lon="-1.46969">
        <ele>54</ele>
        <time>2021-04-22T10:15:52.000Z</time>
      </trkpt>
      <trkpt lat="47.22887" lon="-1.46972">
        <ele>54</ele>
        <time>2021-04-22T10:15:54.000Z</time>
      </trkpt>
      <trkpt lat="47.22898" lon="-1.46976">
        <ele>55</ele>
        <time>2021-04-22T10:15:56.000Z</time>
      </trkpt>
      <trkpt lat="47.2291" lon="-1.46978">
        <ele>55</ele>
        <time>2021-04-22T10:15:58.000Z</time>
      </trkpt>
      <trkpt lat="47.22923" lon="-1.4698">
        <ele>55</ele>
        <time>2021-04-22T10:16:00.000Z</time>
      </trkpt>
      <trkpt lat="47.22935" lon="-1.46981">
        <ele>55</ele>
        <time>2021-04-22T10:16:02.000Z</time>
      </trkpt>
      <trkpt lat="47.22947" lon="-1.46982">
        <ele>55</ele>
        <time>2021-04-22T10:16:04.000Z</time>
      </trkpt>
      <trkpt lat="47.22959" lon="-1.46983">
        <ele>55</ele>
        <time>2021-04-22T10:16:06.000Z</time>
      </trkpt>
      <trkpt lat="47.2297" lon="-1.46986">
        <ele>55</ele>
        <time>2021-04-22T10:16:08.000Z</time>
      </trkpt>
      <trkpt lat="47.22982" lon="-1.46989">
        <ele>56</ele>
        <time>2021-04-22T10:16:10.000Z</time>
      </trkpt>
      <trkpt lat="47.22994" lon="-1.46994">
        <ele>56</ele>
        <time>2021-04-22T10:16:12.000Z</time>
      </trkpt>
      <trkpt lat="47.23006" lon="-1.46999">
        <ele>56</ele>
        <time>2021-04-22T10:16:14.000Z</time>
      </trkpt>
      <trkpt lat="47.23017" lon="-1.47007">
        <ele>56</ele>
        <time>2021-04-22T10:16:16.000Z</time>
      </trkpt>
      <trkpt lat="47.23028" lon="-1.47016">
        <ele>56</ele>
        <time>2021-04-22T10:16:18.000Z</time>
      </trkpt>
      <trkpt lat="47.23038" lon="-1.47025">
        <ele>56</ele>
        <time>2021-04-22T10:16:20.000Z</time>
      </trkpt>
      <trkpt lat="47.23048" lon="-1.47036">
        <ele>56</ele>
        <time>2021-04-22T10:16:22.000Z</time>
      </trkpt>
      <trkpt lat="47.23056" lon="-1.4705">
        <ele>56</ele>
        <time>2021-04-22T10:16:24.000Z</time>
      </trkpt>
      <trkpt lat="47.23064" lon="-1.47064">
        <ele>55</ele>
        <time>2021-04-22T10:16:26.000Z</time>
      </trkpt>
      <trkpt lat="47.23073" lon="-1.47078">
        <ele>55</ele>
        <time>2021-04-22T10:16:28.000Z</time>
      </trkpt>
      <trkpt lat="47.23081" lon="-1.47093">
        <ele>55</ele>
        <time>2021-04-22T10:16:30.000Z</time>
      </trkpt>
      <trkpt lat="47.2309" lon="-1.47108">
        <ele>55</ele>
        <time>2021-04-22T10:16:32.000Z</time>
      </trkpt>
      <trkpt lat="47.23098" lon="-1.47123">
        <ele>54</ele>
        <time>2021-04-22T10:16:34.000Z</time>
      </trkpt>
      <trkpt lat="47.23112" lon="-1.47126">
        <ele>54</ele>
        <time>2021-04-22T10:16:36.000Z</time>
      </trkpt>
      <trkpt lat="47.23122" lon="-1.47116">
        <ele>54</ele>
        <time>2021-04-22T10:16:38.000Z</time>
      </trkpt>
      <trkpt lat="47.23131" lon="-1.471">
        <ele>54</ele>
        <time>2021-04-22T10:16:40.000Z</time>
      </trkpt>
      <trkpt lat="47.23135" lon="-1.47084">
        <ele>54</ele>
        <time>2021-04-22T10:16:42.000Z</time>
      </trkpt>
      <trkpt lat="47.23129" lon="-1.47067">
        <ele>55</ele>
        <time>2021-04-22T10:16:44.000Z</time>
      </trkpt>
      <trkpt lat="47.23121" lon="-1.47052">
        <ele>54</ele>
        <time>2021-04-22T10:16:46.000Z</time>
      </trkpt>
      <trkpt lat="47.23113" lon="-1.47039">
        <ele>55</ele>
        <time>2021-04-22T10:16:48.000Z</time>
      </trkpt>
      <trkpt lat="47.23106" lon="-1.47025">
        <ele>55</ele>
        <time>2021-04-22T10:16:50.000Z</time>
      </trkpt>
      <trkpt lat="47.23099" lon="-1.47011">
        <ele>56</ele>
        <time>2021-04-22T10:16:52.000Z</time>
      </trkpt>
      <trkpt lat="47.23092" lon="-1.46997">
        <ele>56</ele>
        <time>2021-04-22T10:16:54.000Z</time>
      </trkpt>
      <trkpt lat="47.23082" lon="-1.46987">
        <ele>56</ele>
        <time>2021-04-22T10:16:56.000Z</time>
      </trkpt>
      <trkpt lat="47.23074" lon="-1.46994">
        <ele>56</ele>
        <time>2021-04-22T10:16:58.000Z</time>
      </trkpt>
      <trkpt lat="47.23079" lon="-1.47008">
        <ele>57</ele>
        <time>2021-04-22T10:17:00.000Z</time>
      </trkpt>
      <trkpt lat="47.23086" lon="-1.4702">
        <ele>58</ele>
        <time>2021-04-22T10:17:02.000Z</time>
      </trkpt>
      <trkpt lat="47.23095" lon="-1.47035">
        <ele>58</ele>
        <time>2021-04-22T10:17:04.000Z</time>
      </trkpt>
      <trkpt lat="47.23103" lon="-1.4705">
        <ele>58</ele>
        <time>2021-04-22T10:17:06.000Z</time>
      </trkpt>
      <trkpt lat="47.23112" lon="-1.47065">
        <ele>59</ele>
        <time>2021-04-22T10:17:08.000Z</time>
      </trkpt>
      <trkpt lat="47.23119" lon="-1.47079">
        <ele>60</ele>
        <time>2021-04-22T10:17:10.000Z</time>
      </trkpt>
      <trkpt lat="47.23127" lon="-1.47095">
        <ele>60</ele>
        <time>2021-04-22T10:17:12.000Z</time>
      </trkpt>
      <trkpt lat="47.23135" lon="-1.47109">
        <ele>61</ele>
        <time>2021-04-22T10:17:14.000Z</time>
      </trkpt>
      <trkpt lat="47.23143" lon="-1.47123">
        <ele>62</ele>
        <time>2021-04-22T10:17:16.000Z</time>
      </trkpt>
      <trkpt lat="47.23151" lon="-1.47138">
        <ele>62</ele>
        <time>2021-04-22T10:17:18.000Z</time>
      </trkpt>
      <trkpt lat="47.23159" lon="-1.47151">
        <ele>62</ele>
        <time>2021-04-22T10:17:20.000Z</time>
      </trkpt>
      <trkpt lat="47.23167" lon="-1.47165">
        <ele>61</ele>
        <time>2021-04-22T10:17:22.000Z</time>
      </trkpt>
      <trkpt lat="47.23175" lon="-1.47179">
        <ele>62</ele>
        <time>2021-04-22T10:17:24.000Z</time>
      </trkpt>
      <trkpt lat="47.23184" lon="-1.47193">
        <ele>62</ele>
        <time>2021-04-22T10:17:26.000Z</time>
      </trkpt>
      <trkpt lat="47.23192" lon="-1.47206">
        <ele>62</ele>
        <time>2021-04-22T10:17:28.000Z</time>
      </trkpt>
      <trkpt lat="47.232" lon="-1.4722">
        <ele>62</ele>
        <time>2021-04-22T10:17:30.000Z</time>
      </trkpt>
      <trkpt lat="47.23207" lon="-1.47234">
        <ele>62</ele>
        <time>2021-04-22T10:17:32.000Z</time>
      </trkpt>
      <trkpt lat="47.23215" lon="-1.47247">
        <ele>62</ele>
        <time>2021-04-22T10:17:34.000Z</time>
      </trkpt>
      <trkpt lat="47.23223" lon="-1.4726">
        <ele>62</ele>
        <time>2021-04-22T10:17:36.000Z</time>
      </trkpt>
      <trkpt lat="47.23231" lon="-1.47273">
        <ele>62</ele>
        <time>2021-04-22T10:17:38.000Z</time>
      </trkpt>
      <trkpt lat="47.23239" lon="-1.47287">
        <ele>63</ele>
        <time>2021-04-22T10:17:40.000Z</time>
      </trkpt>
      <trkpt lat="47.23247" lon="-1.473">
        <ele>63</ele>
        <time>2021-04-22T10:17:42.000Z</time>
      </trkpt>
      <trkpt lat="47.23255" lon="-1.47314">
        <ele>63</ele>
        <time>2021-04-22T10:17:44.000Z</time>
      </trkpt>
      <trkpt lat="47.23262" lon="-1.47328">
        <ele>63</ele>
        <time>2021-04-22T10:17:46.000Z</time>
      </trkpt>
      <trkpt lat="47.2327" lon="-1.47341">
        <ele>62</ele>
        <time>2021-04-22T10:17:48.000Z</time>
      </trkpt>
      <trkpt lat="47.23279" lon="-1.47355">
        <ele>62</ele>
        <time>2021-04-22T10:17:50.000Z</time>
      </trkpt>
      <trkpt lat="47.23286" lon="-1.47368">
        <ele>61</ele>
        <time>2021-04-22T10:17:52.000Z</time>
      </trkpt>
      <trkpt lat="47.23294" lon="-1.47382">
        <ele>61</ele>
        <time>2021-04-22T10:17:54.000Z</time>
      </trkpt>
      <trkpt lat="47.23303" lon="-1.47395">
        <ele>61</ele>
        <time>2021-04-22T10:17:56.000Z</time>
      </trkpt>
      <trkpt lat="47.23311" lon="-1.47409">
        <ele>61</ele>
        <time>2021-04-22T10:17:58.000Z</time>
      </trkpt>
      <trkpt lat="47.23319" lon="-1.47424">
        <ele>60</ele>
        <time>2021-04-22T10:18:00.000Z</time>
      </trkpt>
      <trkpt lat="47.23327" lon="-1.47439">
        <ele>60</ele>
        <time>2021-04-22T10:18:02.000Z</time>
      </trkpt>
      <trkpt lat="47.23336" lon="-1.47453">
        <ele>59</ele>
        <time>2021-04-22T10:18:04.000Z</time>
      </trkpt>
      <trkpt lat="47.23344" lon="-1.47469">
        <ele>59</ele>
        <time>2021-04-22T10:18:06.000Z</time>
      </trkpt>
      <trkpt lat="47.23353" lon="-1.47483">
        <ele>59</ele>
        <time>2021-04-22T10:18:08.000Z</time>
      </trkpt>
      <trkpt lat="47.23363" lon="-1.47498">
        <ele>59</ele>
        <time>2021-04-22T10:18:10.000Z</time>
      </trkpt>
      <trkpt lat="47.23373" lon="-1.47513">
        <ele>58</ele>
        <time>2021-04-22T10:18:12.000Z</time>
      </trkpt>
      <trkpt lat="47.23384" lon="-1.47528">
        <ele>58</ele>
        <time>2021-04-22T10:18:14.000Z</time>
      </trkpt>
      <trkpt lat="47.23394" lon="-1.47542">
        <ele>58</ele>
        <time>2021-04-22T10:18:16.000Z</time>
      </trkpt>
      <trkpt lat="47.23404" lon="-1.47558">
        <ele>57</ele>
        <time>2021-04-22T10:18:18.000Z</time>
      </trkpt>
      <trkpt lat="47.23414" lon="-1.47573">
        <ele>57</ele>
        <time>2021-04-22T10:18:20.000Z</time>
      </trkpt>
      <trkpt lat="47.23425" lon="-1.47588">
        <ele>57</ele>
        <time>2021-04-22T10:18:22.000Z</time>
      </trkpt>
      <trkpt lat="47.23434" lon="-1.47603">
        <ele>56</ele>
        <time>2021-04-22T10:18:24.000Z</time>
      </trkpt>
      <trkpt lat="47.23445" lon="-1.47618">
        <ele>56</ele>
        <time>2021-04-22T10:18:26.000Z</time>
      </trkpt>
      <trkpt lat="47.23455" lon="-1.47632">
        <ele>56</ele>
        <time>2021-04-22T10:18:28.000Z</time>
      </trkpt>
      <trkpt lat="47.23465" lon="-1.47646">
        <ele>56</ele>
        <time>2021-04-22T10:18:30.000Z</time>
      </trkpt>
      <trkpt lat="47.23477" lon="-1.47657">
        <ele>56</ele>
        <time>2021-04-22T10:18:32.000Z</time>
      </trkpt>
      <trkpt lat="47.23489" lon="-1.47667">
        <ele>56</ele>
        <time>2021-04-22T10:18:34.000Z</time>
      </trkpt>
      <trkpt lat="47.23502" lon="-1.47675">
        <ele>56</ele>
        <time>2021-04-22T10:18:36.000Z</time>
      </trkpt>
      <trkpt lat="47.23514" lon="-1.47684">
        <ele>55</ele>
        <time>2021-04-22T10:18:38.000Z</time>
      </trkpt>
      <trkpt lat="47.23527" lon="-1.47691">
        <ele>55</ele>
        <time>2021-04-22T10:18:40.000Z</time>
      </trkpt>
      <trkpt lat="47.23539" lon="-1.47698">
        <ele>55</ele>
        <time>2021-04-22T10:18:42.000Z</time>
      </trkpt>
      <trkpt lat="47.23551" lon="-1.47699">
        <ele>55</ele>
        <time>2021-04-22T10:18:44.000Z</time>
      </trkpt>
      <trkpt lat="47.2356" lon="-1.47691">
        <ele>54</ele>
        <time>2021-04-22T10:18:46.000Z</time>
      </trkpt>
      <trkpt lat="47.23569" lon="-1.47683">
        <ele>54</ele>
        <time>2021-04-22T10:18:49.000Z</time>
      </trkpt>
      <trkpt lat="47.23578" lon="-1.47686">
        <ele>54</ele>
        <time>2021-04-22T10:18:51.000Z</time>
      </trkpt>
      <trkpt lat="47.23589" lon="-1.47694">
        <ele>54</ele>
        <time>2021-04-22T10:18:53.000Z</time>
      </trkpt>
      <trkpt lat="47.23601" lon="-1.47701">
        <ele>54</ele>
        <time>2021-04-22T10:18:55.000Z</time>
      </trkpt>
      <trkpt lat="47.23612" lon="-1.47708">
        <ele>54</ele>
        <time>2021-04-22T10:18:57.000Z</time>
      </trkpt>
      <trkpt lat="47.23624" lon="-1.47716">
        <ele>53</ele>
        <time>2021-04-22T10:18:59.000Z</time>
      </trkpt>
      <trkpt lat="47.23637" lon="-1.47723">
        <ele>53</ele>
        <time>2021-04-22T10:19:01.000Z</time>
      </trkpt>
      <trkpt lat="47.2365" lon="-1.47731">
        <ele>53</ele>
        <time>2021-04-22T10:19:03.000Z</time>
      </trkpt>
      <trkpt lat="47.23662" lon="-1.47739">
        <ele>52</ele>
        <time>2021-04-22T10:19:05.000Z</time>
      </trkpt>
      <trkpt lat="47.23675" lon="-1.47744">
        <ele>53</ele>
        <time>2021-04-22T10:19:07.000Z</time>
      </trkpt>
      <trkpt lat="47.23688" lon="-1.47747">
        <ele>53</ele>
        <time>2021-04-22T10:19:09.000Z</time>
      </trkpt>
      <trkpt lat="47.23701" lon="-1.47743">
        <ele>53</ele>
        <time>2021-04-22T10:19:11.000Z</time>
      </trkpt>
      <trkpt lat="47.23713" lon="-1.47737">
        <ele>52</ele>
        <time>2021-04-22T10:19:13.000Z</time>
      </trkpt>
      <trkpt lat="47.23723" lon="-1.47729">
        <ele>53</ele>
        <time>2021-04-22T10:19:15.000Z</time>
      </trkpt>
      <trkpt lat="47.23733" lon="-1.47717">
        <ele>53</ele>
        <time>2021-04-22T10:19:17.000Z</time>
      </trkpt>
      <trkpt lat="47.23743" lon="-1.47706">
        <ele>53</ele>
        <time>2021-04-22T10:19:19.000Z</time>
      </trkpt>
      <trkpt lat="47.23754" lon="-1.47695">
        <ele>53</ele>
        <time>2021-04-22T10:19:21.000Z</time>
      </trkpt>
      <trkpt lat="47.23764" lon="-1.47684">
        <ele>53</ele>
        <time>2021-04-22T10:19:23.000Z</time>
      </trkpt>
      <trkpt lat="47.23776" lon="-1.47676">
        <ele>52</ele>
        <time>2021-04-22T10:19:25.000Z</time>
      </trkpt>
      <trkpt lat="47.23787" lon="-1.4767">
        <ele>53</ele>
        <time>2021-04-22T10:19:27.000Z</time>
      </trkpt>
      <trkpt lat="47.23798" lon="-1.47661">
        <ele>53</ele>
        <time>2021-04-22T10:19:29.000Z</time>
      </trkpt>
      <trkpt lat="47.23808" lon="-1.47653">
        <ele>53</ele>
        <time>2021-04-22T10:19:31.000Z</time>
      </trkpt>
      <trkpt lat="47.2382" lon="-1.47648">
        <ele>53</ele>
        <time>2021-04-22T10:19:33.000Z</time>
      </trkpt>
      <trkpt lat="47.23833" lon="-1.47645">
        <ele>53</ele>
        <time>2021-04-22T10:19:35.000Z</time>
      </trkpt>
      <trkpt lat="47.23844" lon="-1.4764">
        <ele>53</ele>
        <time>2021-04-22T10:19:37.000Z</time>
      </trkpt>
      <trkpt lat="47.23856" lon="-1.47635">
        <ele>53</ele>
        <time>2021-04-22T10:19:39.000Z</time>
      </trkpt>
      <trkpt lat="47.23867" lon="-1.4763">
        <ele>53</ele>
        <time>2021-04-22T10:19:41.000Z</time>
      </trkpt>
      <trkpt lat="47.23879" lon="-1.47626">
        <ele>53</ele>
        <time>2021-04-22T10:19:43.000Z</time>
      </trkpt>
      <trkpt lat="47.23892" lon="-1.47625">
        <ele>53</ele>
        <time>2021-04-22T10:19:45.000Z</time>
      </trkpt>
      <trkpt lat="47.23906" lon="-1.47627">
        <ele>54</ele>
        <time>2021-04-22T10:19:47.000Z</time>
      </trkpt>
      <trkpt lat="47.23919" lon="-1.47631">
        <ele>54</ele>
        <time>2021-04-22T10:19:49.000Z</time>
      </trkpt>
      <trkpt lat="47.23932" lon="-1.47638">
        <ele>53</ele>
        <time>2021-04-22T10:19:51.000Z</time>
      </trkpt>
      <trkpt lat="47.23943" lon="-1.47648">
        <ele>53</ele>
        <time>2021-04-22T10:19:53.000Z</time>
      </trkpt>
      <trkpt lat="47.23954" lon="-1.4766">
        <ele>53</ele>
        <time>2021-04-22T10:19:55.000Z</time>
      </trkpt>
      <trkpt lat="47.23963" lon="-1.47674">
        <ele>53</ele>
        <time>2021-04-22T10:19:57.000Z</time>
      </trkpt>
      <trkpt lat="47.23972" lon="-1.47689">
        <ele>53</ele>
        <time>2021-04-22T10:19:59.000Z</time>
      </trkpt>
      <trkpt lat="47.2398" lon="-1.47705">
        <ele>53</ele>
        <time>2021-04-22T10:20:01.000Z</time>
      </trkpt>
      <trkpt lat="47.23987" lon="-1.47721">
        <ele>53</ele>
        <time>2021-04-22T10:20:03.000Z</time>
      </trkpt>
      <trkpt lat="47.23994" lon="-1.47737">
        <ele>54</ele>
        <time>2021-04-22T10:20:05.000Z</time>
      </trkpt>
      <trkpt lat="47.2402" lon="-1.47777">
        <ele>49</ele>
        <time>2021-04-22T10:20:11.000Z</time>
      </trkpt>
      <trkpt lat="47.24021" lon="-1.47797">
        <ele>53</ele>
        <time>2021-04-22T10:20:13.000Z</time>
      </trkpt>
      <trkpt lat="47.24027" lon="-1.47814">
        <ele>53</ele>
        <time>2021-04-22T10:20:15.000Z</time>
      </trkpt>
      <trkpt lat="47.24033" lon="-1.47829">
        <ele>53</ele>
        <time>2021-04-22T10:20:17.000Z</time>
      </trkpt>
      <trkpt lat="47.24038" lon="-1.47845">
        <ele>55</ele>
        <time>2021-04-22T10:20:19.000Z</time>
      </trkpt>
      <trkpt lat="47.24044" lon="-1.47863">
        <ele>54</ele>
        <time>2021-04-22T10:20:21.000Z</time>
      </trkpt>
      <trkpt lat="47.2405" lon="-1.4788">
        <ele>54</ele>
        <time>2021-04-22T10:20:23.000Z</time>
      </trkpt>
      <trkpt lat="47.24055" lon="-1.47897">
        <ele>55</ele>
        <time>2021-04-22T10:20:25.000Z</time>
      </trkpt>
      <trkpt lat="47.2406" lon="-1.47916">
        <ele>55</ele>
        <time>2021-04-22T10:20:27.000Z</time>
      </trkpt>
      <trkpt lat="47.24066" lon="-1.47934">
        <ele>55</ele>
        <time>2021-04-22T10:20:29.000Z</time>
      </trkpt>
      <trkpt lat="47.24072" lon="-1.47952">
        <ele>54</ele>
        <time>2021-04-22T10:20:31.000Z</time>
      </trkpt>
      <trkpt lat="47.24078" lon="-1.47971">
        <ele>54</ele>
        <time>2021-04-22T10:20:33.000Z</time>
      </trkpt>
      <trkpt lat="47.24085" lon="-1.47991">
        <ele>53</ele>
        <time>2021-04-22T10:20:35.000Z</time>
      </trkpt>
      <trkpt lat="47.24093" lon="-1.48011">
        <ele>52</ele>
        <time>2021-04-22T10:20:37.000Z</time>
      </trkpt>
      <trkpt lat="47.24102" lon="-1.4803">
        <ele>52</ele>
        <time>2021-04-22T10:20:39.000Z</time>
      </trkpt>
      <trkpt lat="47.24111" lon="-1.48048">
        <ele>52</ele>
        <time>2021-04-22T10:20:41.000Z</time>
      </trkpt>
      <trkpt lat="47.2412" lon="-1.48063">
        <ele>52</ele>
        <time>2021-04-22T10:20:43.000Z</time>
      </trkpt>
      <trkpt lat="47.2413" lon="-1.48078">
        <ele>52</ele>
        <time>2021-04-22T10:20:45.000Z</time>
      </trkpt>
      <trkpt lat="47.24141" lon="-1.48091">
        <ele>53</ele>
        <time>2021-04-22T10:20:47.000Z</time>
      </trkpt>
      <trkpt lat="47.24151" lon="-1.48103">
        <ele>54</ele>
        <time>2021-04-22T10:20:49.000Z</time>
      </trkpt>
      <trkpt lat="47.24161" lon="-1.48115">
        <ele>55</ele>
        <time>2021-04-22T10:20:51.000Z</time>
      </trkpt>
      <trkpt lat="47.24172" lon="-1.48125">
        <ele>55</ele>
        <time>2021-04-22T10:20:53.000Z</time>
      </trkpt>
      <trkpt lat="47.24183" lon="-1.48133">
        <ele>55</ele>
        <time>2021-04-22T10:20:55.000Z</time>
      </trkpt>
      <trkpt lat="47.24194" lon="-1.48143">
        <ele>55</ele>
        <time>2021-04-22T10:20:57.000Z</time>
      </trkpt>
      <trkpt lat="47.24205" lon="-1.48152">
        <ele>55</ele>
        <time>2021-04-22T10:20:59.000Z</time>
      </trkpt>
      <trkpt lat="47.24217" lon="-1.4816">
        <ele>56</ele>
        <time>2021-04-22T10:21:01.000Z</time>
      </trkpt>
      <trkpt lat="47.24228" lon="-1.48168">
        <ele>55</ele>
        <time>2021-04-22T10:21:03.000Z</time>
      </trkpt>
      <trkpt lat="47.2424" lon="-1.48174">
        <ele>55</ele>
        <time>2021-04-22T10:21:05.000Z</time>
      </trkpt>
      <trkpt lat="47.24252" lon="-1.48178">
        <ele>55</ele>
        <time>2021-04-22T10:21:07.000Z</time>
      </trkpt>
      <trkpt lat="47.24264" lon="-1.48186">
        <ele>54</ele>
        <time>2021-04-22T10:21:09.000Z</time>
      </trkpt>
      <trkpt lat="47.24276" lon="-1.48193">
        <ele>54</ele>
        <time>2021-04-22T10:21:11.000Z</time>
      </trkpt>
      <trkpt lat="47.24287" lon="-1.48202">
        <ele>54</ele>
        <time>2021-04-22T10:21:13.000Z</time>
      </trkpt>
      <trkpt lat="47.24298" lon="-1.4821">
        <ele>53</ele>
        <time>2021-04-22T10:21:15.000Z</time>
      </trkpt>
      <trkpt lat="47.24308" lon="-1.4822">
        <ele>53</ele>
        <time>2021-04-22T10:21:17.000Z</time>
      </trkpt>
      <trkpt lat="47.24318" lon="-1.4823">
        <ele>54</ele>
        <time>2021-04-22T10:21:19.000Z</time>
      </trkpt>
      <trkpt lat="47.24329" lon="-1.48239">
        <ele>54</ele>
        <time>2021-04-22T10:21:21.000Z</time>
      </trkpt>
      <trkpt lat="47.24341" lon="-1.48244">
        <ele>54</ele>
        <time>2021-04-22T10:21:23.000Z</time>
      </trkpt>
      <trkpt lat="47.24351" lon="-1.48252">
        <ele>55</ele>
        <time>2021-04-22T10:21:25.000Z</time>
      </trkpt>
      <trkpt lat="47.2436" lon="-1.48266">
        <ele>55</ele>
        <time>2021-04-22T10:21:27.000Z</time>
      </trkpt>
      <trkpt lat="47.24366" lon="-1.48279">
        <ele>55</ele>
        <time>2021-04-22T10:21:29.000Z</time>
      </trkpt>
      <trkpt lat="47.24376" lon="-1.48294">
        <ele>55</ele>
        <time>2021-04-22T10:21:32.000Z</time>
      </trkpt>
      <trkpt lat="47.24386" lon="-1.48307">
        <ele>55</ele>
        <time>2021-04-22T10:21:34.000Z</time>
      </trkpt>
      <trkpt lat="47.24396" lon="-1.48321">
        <ele>55</ele>
        <time>2021-04-22T10:21:36.000Z</time>
      </trkpt>
      <trkpt lat="47.24407" lon="-1.48334">
        <ele>55</ele>
        <time>2021-04-22T10:21:38.000Z</time>
      </trkpt>
      <trkpt lat="47.24418" lon="-1.48346">
        <ele>55</ele>
        <time>2021-04-22T10:21:40.000Z</time>
      </trkpt>
      <trkpt lat="47.24431" lon="-1.48354">
        <ele>55</ele>
        <time>2021-04-22T10:21:42.000Z</time>
      </trkpt>
      <trkpt lat="47.24443" lon="-1.48361">
        <ele>55</ele>
        <time>2021-04-22T10:21:44.000Z</time>
      </trkpt>
      <trkpt lat="47.24456" lon="-1.48368">
        <ele>55</ele>
        <time>2021-04-22T10:21:46.000Z</time>
      </trkpt>
      <trkpt lat="47.24468" lon="-1.48376">
        <ele>55</ele>
        <time>2021-04-22T10:21:48.000Z</time>
      </trkpt>
      <trkpt lat="47.2448" lon="-1.48386">
        <ele>55</ele>
        <time>2021-04-22T10:21:50.000Z</time>
      </trkpt>
      <trkpt lat="47.24493" lon="-1.48393">
        <ele>55</ele>
        <time>2021-04-22T10:21:52.000Z</time>
      </trkpt>
      <trkpt lat="47.24505" lon="-1.48401">
        <ele>55</ele>
        <time>2021-04-22T10:21:54.000Z</time>
      </trkpt>
      <trkpt lat="47.24517" lon="-1.4841">
        <ele>55</ele>
        <time>2021-04-22T10:21:56.000Z</time>
      </trkpt>
      <trkpt lat="47.24529" lon="-1.48421">
        <ele>54</ele>
        <time>2021-04-22T10:21:58.000Z</time>
      </trkpt>
      <trkpt lat="47.2454" lon="-1.48431">
        <ele>54</ele>
        <time>2021-04-22T10:22:00.000Z</time>
      </trkpt>
      <trkpt lat="47.24551" lon="-1.48443">
        <ele>53</ele>
        <time>2021-04-22T10:22:02.000Z</time>
      </trkpt>
      <trkpt lat="47.24561" lon="-1.48455">
        <ele>53</ele>
        <time>2021-04-22T10:22:04.000Z</time>
      </trkpt>
      <trkpt lat="47.24572" lon="-1.48466">
        <ele>53</ele>
        <time>2021-04-22T10:22:06.000Z</time>
      </trkpt>
      <trkpt lat="47.24582" lon="-1.48479">
        <ele>53</ele>
        <time>2021-04-22T10:22:08.000Z</time>
      </trkpt>
      <trkpt lat="47.24593" lon="-1.48492">
        <ele>53</ele>
        <time>2021-04-22T10:22:10.000Z</time>
      </trkpt>
      <trkpt lat="47.24603" lon="-1.48504">
        <ele>53</ele>
        <time>2021-04-22T10:22:12.000Z</time>
      </trkpt>
      <trkpt lat="47.24613" lon="-1.48516">
        <ele>54</ele>
        <time>2021-04-22T10:22:14.000Z</time>
      </trkpt>
      <trkpt lat="47.24623" lon="-1.48527">
        <ele>54</ele>
        <time>2021-04-22T10:22:16.000Z</time>
      </trkpt>
      <trkpt lat="47.24634" lon="-1.4854">
        <ele>54</ele>
        <time>2021-04-22T10:22:18.000Z</time>
      </trkpt>
      <trkpt lat="47.24644" lon="-1.48551">
        <ele>55</ele>
        <time>2021-04-22T10:22:20.000Z</time>
      </trkpt>
      <trkpt lat="47.24654" lon="-1.48561">
        <ele>55</ele>
        <time>2021-04-22T10:22:22.000Z</time>
      </trkpt>
      <trkpt lat="47.24664" lon="-1.48571">
        <ele>55</ele>
        <time>2021-04-22T10:22:24.000Z</time>
      </trkpt>
      <trkpt lat="47.24674" lon="-1.48581">
        <ele>55</ele>
        <time>2021-04-22T10:22:26.000Z</time>
      </trkpt>
      <trkpt lat="47.24685" lon="-1.48591">
        <ele>55</ele>
        <time>2021-04-22T10:22:28.000Z</time>
      </trkpt>
      <trkpt lat="47.24695" lon="-1.486">
        <ele>55</ele>
        <time>2021-04-22T10:22:30.000Z</time>
      </trkpt>
      <trkpt lat="47.24706" lon="-1.48611">
        <ele>55</ele>
        <time>2021-04-22T10:22:32.000Z</time>
      </trkpt>
      <trkpt lat="47.24716" lon="-1.4862">
        <ele>55</ele>
        <time>2021-04-22T10:22:34.000Z</time>
      </trkpt>
      <trkpt lat="47.24726" lon="-1.48627">
        <ele>55</ele>
        <time>2021-04-22T10:22:36.000Z</time>
      </trkpt>
      <trkpt lat="47.24735" lon="-1.4863">
        <ele>56</ele>
        <time>2021-04-22T10:22:38.000Z</time>
      </trkpt>
      <trkpt lat="47.24746" lon="-1.48624">
        <ele>56</ele>
        <time>2021-04-22T10:22:40.000Z</time>
      </trkpt>
      <trkpt lat="47.24758" lon="-1.48628">
        <ele>57</ele>
        <time>2021-04-22T10:22:42.000Z</time>
      </trkpt>
      <trkpt lat="47.24768" lon="-1.48639">
        <ele>57</ele>
        <time>2021-04-22T10:22:44.000Z</time>
      </trkpt>
      <trkpt lat="47.24778" lon="-1.48646">
        <ele>58</ele>
        <time>2021-04-22T10:22:46.000Z</time>
      </trkpt>
      <trkpt lat="47.2479" lon="-1.48647">
        <ele>58</ele>
        <time>2021-04-22T10:22:48.000Z</time>
      </trkpt>
      <trkpt lat="47.24802" lon="-1.48648">
        <ele>59</ele>
        <time>2021-04-22T10:22:50.000Z</time>
      </trkpt>
      <trkpt lat="47.24813" lon="-1.48649">
        <ele>59</ele>
        <time>2021-04-22T10:22:52.000Z</time>
      </trkpt>
      <trkpt lat="47.24825" lon="-1.48649">
        <ele>59</ele>
        <time>2021-04-22T10:22:54.000Z</time>
      </trkpt>
      <trkpt lat="47.24836" lon="-1.4865">
        <ele>59</ele>
        <time>2021-04-22T10:22:56.000Z</time>
      </trkpt>
      <trkpt lat="47.24846" lon="-1.48651">
        <ele>60</ele>
        <time>2021-04-22T10:22:58.000Z</time>
      </trkpt>
      <trkpt lat="47.24856" lon="-1.48653">
        <ele>60</ele>
        <time>2021-04-22T10:23:00.000Z</time>
      </trkpt>
      <trkpt lat="47.24865" lon="-1.48657">
        <ele>61</ele>
        <time>2021-04-22T10:23:02.000Z</time>
      </trkpt>
      <trkpt lat="47.24875" lon="-1.48659">
        <ele>61</ele>
        <time>2021-04-22T10:23:04.000Z</time>
      </trkpt>
      <trkpt lat="47.24885" lon="-1.48661">
        <ele>62</ele>
        <time>2021-04-22T10:23:06.000Z</time>
      </trkpt>
      <trkpt lat="47.24895" lon="-1.48663">
        <ele>63</ele>
        <time>2021-04-22T10:23:08.000Z</time>
      </trkpt>
      <trkpt lat="47.24904" lon="-1.48665">
        <ele>63</ele>
        <time>2021-04-22T10:23:10.000Z</time>
      </trkpt>
      <trkpt lat="47.24913" lon="-1.48667">
        <ele>64</ele>
        <time>2021-04-22T10:23:12.000Z</time>
      </trkpt>
      <trkpt lat="47.24923" lon="-1.48671">
        <ele>64</ele>
        <time>2021-04-22T10:23:14.000Z</time>
      </trkpt>
      <trkpt lat="47.24933" lon="-1.48676">
        <ele>65</ele>
        <time>2021-04-22T10:23:16.000Z</time>
      </trkpt>
      <trkpt lat="47.24942" lon="-1.48678">
        <ele>65</ele>
        <time>2021-04-22T10:23:18.000Z</time>
      </trkpt>
      <trkpt lat="47.24954" lon="-1.48683">
        <ele>65</ele>
        <time>2021-04-22T10:23:21.000Z</time>
      </trkpt>
      <trkpt lat="47.24963" lon="-1.48694">
        <ele>65</ele>
        <time>2021-04-22T10:23:23.000Z</time>
      </trkpt>
      <trkpt lat="47.24972" lon="-1.48702">
        <ele>66</ele>
        <time>2021-04-22T10:23:25.000Z</time>
      </trkpt>
      <trkpt lat="47.24983" lon="-1.48706">
        <ele>67</ele>
        <time>2021-04-22T10:23:27.000Z</time>
      </trkpt>
      <trkpt lat="47.24993" lon="-1.48711">
        <ele>67</ele>
        <time>2021-04-22T10:23:29.000Z</time>
      </trkpt>
      <trkpt lat="47.25003" lon="-1.48716">
        <ele>67</ele>
        <time>2021-04-22T10:23:31.000Z</time>
      </trkpt>
      <trkpt lat="47.25013" lon="-1.48722">
        <ele>68</ele>
        <time>2021-04-22T10:23:33.000Z</time>
      </trkpt>
      <trkpt lat="47.25024" lon="-1.48727">
        <ele>69</ele>
        <time>2021-04-22T10:23:35.000Z</time>
      </trkpt>
      <trkpt lat="47.25035" lon="-1.48729">
        <ele>69</ele>
        <time>2021-04-22T10:23:37.000Z</time>
      </trkpt>
      <trkpt lat="47.25046" lon="-1.48734">
        <ele>68</ele>
        <time>2021-04-22T10:23:39.000Z</time>
      </trkpt>
      <trkpt lat="47.25056" lon="-1.48738">
        <ele>69</ele>
        <time>2021-04-22T10:23:41.000Z</time>
      </trkpt>
      <trkpt lat="47.25067" lon="-1.48739">
        <ele>68</ele>
        <time>2021-04-22T10:23:43.000Z</time>
      </trkpt>
      <trkpt lat="47.25077" lon="-1.4874">
        <ele>69</ele>
        <time>2021-04-22T10:23:45.000Z</time>
      </trkpt>
      <trkpt lat="47.25089" lon="-1.48743">
        <ele>68</ele>
        <time>2021-04-22T10:23:47.000Z</time>
      </trkpt>
      <trkpt lat="47.251" lon="-1.48746">
        <ele>68</ele>
        <time>2021-04-22T10:23:49.000Z</time>
      </trkpt>
      <trkpt lat="47.25113" lon="-1.48747">
        <ele>69</ele>
        <time>2021-04-22T10:23:51.000Z</time>
      </trkpt>
      <trkpt lat="47.25125" lon="-1.48748">
        <ele>69</ele>
        <time>2021-04-22T10:23:53.000Z</time>
      </trkpt>
      <trkpt lat="47.25136" lon="-1.48747">
        <ele>70</ele>
        <time>2021-04-22T10:23:55.000Z</time>
      </trkpt>
      <trkpt lat="47.25147" lon="-1.48745">
        <ele>70</ele>
        <time>2021-04-22T10:23:57.000Z</time>
      </trkpt>
      <trkpt lat="47.25157" lon="-1.48743">
        <ele>69</ele>
        <time>2021-04-22T10:23:59.000Z</time>
      </trkpt>
      <trkpt lat="47.25169" lon="-1.48741">
        <ele>69</ele>
        <time>2021-04-22T10:24:01.000Z</time>
      </trkpt>
      <trkpt lat="47.2518" lon="-1.48739">
        <ele>69</ele>
        <time>2021-04-22T10:24:03.000Z</time>
      </trkpt>
      <trkpt lat="47.25192" lon="-1.48738">
        <ele>69</ele>
        <time>2021-04-22T10:24:05.000Z</time>
      </trkpt>
      <trkpt lat="47.25204" lon="-1.48736">
        <ele>69</ele>
        <time>2021-04-22T10:24:07.000Z</time>
      </trkpt>
      <trkpt lat="47.25215" lon="-1.48735">
        <ele>69</ele>
        <time>2021-04-22T10:24:09.000Z</time>
      </trkpt>
      <trkpt lat="47.25227" lon="-1.48734">
        <ele>69</ele>
        <time>2021-04-22T10:24:11.000Z</time>
      </trkpt>
      <trkpt lat="47.25238" lon="-1.48734">
        <ele>69</ele>
        <time>2021-04-22T10:24:13.000Z</time>
      </trkpt>
      <trkpt lat="47.25248" lon="-1.48734">
        <ele>68</ele>
        <time>2021-04-22T10:24:15.000Z</time>
      </trkpt>
      <trkpt lat="47.25258" lon="-1.48735">
        <ele>68</ele>
        <time>2021-04-22T10:24:17.000Z</time>
      </trkpt>
      <trkpt lat="47.25269" lon="-1.48734">
        <ele>68</ele>
        <time>2021-04-22T10:24:19.000Z</time>
      </trkpt>
      <trkpt lat="47.25279" lon="-1.48728">
        <ele>68</ele>
        <time>2021-04-22T10:24:21.000Z</time>
      </trkpt>
      <trkpt lat="47.2529" lon="-1.48737">
        <ele>68</ele>
        <time>2021-04-22T10:24:24.000Z</time>
      </trkpt>
      <trkpt lat="47.25301" lon="-1.48747">
        <ele>68</ele>
        <time>2021-04-22T10:24:27.000Z</time>
      </trkpt>
      <trkpt lat="47.25311" lon="-1.48751">
        <ele>68</ele>
        <time>2021-04-22T10:24:29.000Z</time>
      </trkpt>
      <trkpt lat="47.25321" lon="-1.48756">
        <ele>68</ele>
        <time>2021-04-22T10:24:31.000Z</time>
      </trkpt>
      <trkpt lat="47.25331" lon="-1.48759">
        <ele>68</ele>
        <time>2021-04-22T10:24:33.000Z</time>
      </trkpt>
      <trkpt lat="47.25343" lon="-1.48762">
        <ele>68</ele>
        <time>2021-04-22T10:24:35.000Z</time>
      </trkpt>
      <trkpt lat="47.25355" lon="-1.48765">
        <ele>69</ele>
        <time>2021-04-22T10:24:37.000Z</time>
      </trkpt>
      <trkpt lat="47.25367" lon="-1.48768">
        <ele>69</ele>
        <time>2021-04-22T10:24:39.000Z</time>
      </trkpt>
      <trkpt lat="47.25378" lon="-1.4877">
        <ele>70</ele>
        <time>2021-04-22T10:24:41.000Z</time>
      </trkpt>
      <trkpt lat="47.2539" lon="-1.48772">
        <ele>70</ele>
        <time>2021-04-22T10:24:43.000Z</time>
      </trkpt>
      <trkpt lat="47.25401" lon="-1.48774">
        <ele>70</ele>
        <time>2021-04-22T10:24:45.000Z</time>
      </trkpt>
      <trkpt lat="47.25413" lon="-1.48774">
        <ele>71</ele>
        <time>2021-04-22T10:24:47.000Z</time>
      </trkpt>
      <trkpt lat="47.25425" lon="-1.48774">
        <ele>71</ele>
        <time>2021-04-22T10:24:49.000Z</time>
      </trkpt>
      <trkpt lat="47.25437" lon="-1.48774">
        <ele>71</ele>
        <time>2021-04-22T10:24:51.000Z</time>
      </trkpt>
      <trkpt lat="47.25448" lon="-1.48774">
        <ele>71</ele>
        <time>2021-04-22T10:24:53.000Z</time>
      </trkpt>
      <trkpt lat="47.2546" lon="-1.48773">
        <ele>71</ele>
        <time>2021-04-22T10:24:55.000Z</time>
      </trkpt>
      <trkpt lat="47.25472" lon="-1.48771">
        <ele>71</ele>
        <time>2021-04-22T10:24:57.000Z</time>
      </trkpt>
      <trkpt lat="47.25483" lon="-1.4877">
        <ele>71</ele>
        <time>2021-04-22T10:24:59.000Z</time>
      </trkpt>
      <trkpt lat="47.25494" lon="-1.48768">
        <ele>71</ele>
        <time>2021-04-22T10:25:01.000Z</time>
      </trkpt>
      <trkpt lat="47.25505" lon="-1.48766">
        <ele>71</ele>
        <time>2021-04-22T10:25:03.000Z</time>
      </trkpt>
      <trkpt lat="47.25516" lon="-1.48762">
        <ele>71</ele>
        <time>2021-04-22T10:25:05.000Z</time>
      </trkpt>
      <trkpt lat="47.25527" lon="-1.48759">
        <ele>71</ele>
        <time>2021-04-22T10:25:07.000Z</time>
      </trkpt>
      <trkpt lat="47.25538" lon="-1.48755">
        <ele>72</ele>
        <time>2021-04-22T10:25:09.000Z</time>
      </trkpt>
      <trkpt lat="47.25548" lon="-1.48753">
        <ele>72</ele>
        <time>2021-04-22T10:25:11.000Z</time>
      </trkpt>
      <trkpt lat="47.25559" lon="-1.48749">
        <ele>73</ele>
        <time>2021-04-22T10:25:13.000Z</time>
      </trkpt>
      <trkpt lat="47.2557" lon="-1.48746">
        <ele>73</ele>
        <time>2021-04-22T10:25:15.000Z</time>
      </trkpt>
      <trkpt lat="47.25581" lon="-1.48744">
        <ele>73</ele>
        <time>2021-04-22T10:25:17.000Z</time>
      </trkpt>
      <trkpt lat="47.25592" lon="-1.48742">
        <ele>73</ele>
        <time>2021-04-22T10:25:19.000Z</time>
      </trkpt>
      <trkpt lat="47.25602" lon="-1.48743">
        <ele>73</ele>
        <time>2021-04-22T10:25:21.000Z</time>
      </trkpt>
      <trkpt lat="47.25614" lon="-1.48744">
        <ele>73</ele>
        <time>2021-04-22T10:25:23.000Z</time>
      </trkpt>
      <trkpt lat="47.25625" lon="-1.48746">
        <ele>73</ele>
        <time>2021-04-22T10:25:25.000Z</time>
      </trkpt>
      <trkpt lat="47.25635" lon="-1.48747">
        <ele>73</ele>
        <time>2021-04-22T10:25:27.000Z</time>
      </trkpt>
      <trkpt lat="47.25646" lon="-1.48749">
        <ele>73</ele>
        <time>2021-04-22T10:25:29.000Z</time>
      </trkpt>
      <trkpt lat="47.25656" lon="-1.48752">
        <ele>74</ele>
        <time>2021-04-22T10:25:31.000Z</time>
      </trkpt>
      <trkpt lat="47.25667" lon="-1.48751">
        <ele>73</ele>
        <time>2021-04-22T10:25:33.000Z</time>
      </trkpt>
      <trkpt lat="47.25678" lon="-1.48752">
        <ele>74</ele>
        <time>2021-04-22T10:25:35.000Z</time>
      </trkpt>
      <trkpt lat="47.25688" lon="-1.48756">
        <ele>74</ele>
        <time>2021-04-22T10:25:37.000Z</time>
      </trkpt>
      <trkpt lat="47.25699" lon="-1.48756">
        <ele>75</ele>
        <time>2021-04-22T10:25:39.000Z</time>
      </trkpt>
      <trkpt lat="47.25711" lon="-1.48756">
        <ele>75</ele>
        <time>2021-04-22T10:25:41.000Z</time>
      </trkpt>
      <trkpt lat="47.25722" lon="-1.48755">
        <ele>76</ele>
        <time>2021-04-22T10:25:43.000Z</time>
      </trkpt>
      <trkpt lat="47.25733" lon="-1.48753">
        <ele>77</ele>
        <time>2021-04-22T10:25:45.000Z</time>
      </trkpt>
      <trkpt lat="47.25745" lon="-1.4875">
        <ele>77</ele>
        <time>2021-04-22T10:25:47.000Z</time>
      </trkpt>
      <trkpt lat="47.25756" lon="-1.48747">
        <ele>78</ele>
        <time>2021-04-22T10:25:49.000Z</time>
      </trkpt>
      <trkpt lat="47.25767" lon="-1.48745">
        <ele>78</ele>
        <time>2021-04-22T10:25:51.000Z</time>
      </trkpt>
      <trkpt lat="47.25777" lon="-1.48742">
        <ele>78</ele>
        <time>2021-04-22T10:25:53.000Z</time>
      </trkpt>
      <trkpt lat="47.25787" lon="-1.4874">
        <ele>78</ele>
        <time>2021-04-22T10:25:55.000Z</time>
      </trkpt>
      <trkpt lat="47.25797" lon="-1.4874">
        <ele>77</ele>
        <time>2021-04-22T10:25:57.000Z</time>
      </trkpt>
      <trkpt lat="47.25808" lon="-1.4874">
        <ele>77</ele>
        <time>2021-04-22T10:25:59.000Z</time>
      </trkpt>
      <trkpt lat="47.25818" lon="-1.48739">
        <ele>76</ele>
        <time>2021-04-22T10:26:01.000Z</time>
      </trkpt>
      <trkpt lat="47.25829" lon="-1.48741">
        <ele>76</ele>
        <time>2021-04-22T10:26:03.000Z</time>
      </trkpt>
      <trkpt lat="47.2584" lon="-1.48742">
        <ele>76</ele>
        <time>2021-04-22T10:26:05.000Z</time>
      </trkpt>
      <trkpt lat="47.25851" lon="-1.48742">
        <ele>76</ele>
        <time>2021-04-22T10:26:07.000Z</time>
      </trkpt>
      <trkpt lat="47.25862" lon="-1.48743">
        <ele>76</ele>
        <time>2021-04-22T10:26:09.000Z</time>
      </trkpt>
      <trkpt lat="47.25873" lon="-1.48744">
        <ele>76</ele>
        <time>2021-04-22T10:26:11.000Z</time>
      </trkpt>
      <trkpt lat="47.25883" lon="-1.48744">
        <ele>76</ele>
        <time>2021-04-22T10:26:13.000Z</time>
      </trkpt>
      <trkpt lat="47.25895" lon="-1.48745">
        <ele>76</ele>
        <time>2021-04-22T10:26:15.000Z</time>
      </trkpt>
      <trkpt lat="47.25906" lon="-1.48745">
        <ele>75</ele>
        <time>2021-04-22T10:26:17.000Z</time>
      </trkpt>
      <trkpt lat="47.25918" lon="-1.48745">
        <ele>75</ele>
        <time>2021-04-22T10:26:19.000Z</time>
      </trkpt>
      <trkpt lat="47.25929" lon="-1.48746">
        <ele>75</ele>
        <time>2021-04-22T10:26:21.000Z</time>
      </trkpt>
      <trkpt lat="47.25941" lon="-1.48747">
        <ele>75</ele>
        <time>2021-04-22T10:26:23.000Z</time>
      </trkpt>
      <trkpt lat="47.25953" lon="-1.48748">
        <ele>75</ele>
        <time>2021-04-22T10:26:25.000Z</time>
      </trkpt>
      <trkpt lat="47.25965" lon="-1.48748">
        <ele>75</ele>
        <time>2021-04-22T10:26:27.000Z</time>
      </trkpt>
      <trkpt lat="47.25977" lon="-1.48748">
        <ele>74</ele>
        <time>2021-04-22T10:26:29.000Z</time>
      </trkpt>
      <trkpt lat="47.25989" lon="-1.48748">
        <ele>74</ele>
        <time>2021-04-22T10:26:31.000Z</time>
      </trkpt>
      <trkpt lat="47.26" lon="-1.48748">
        <ele>75</ele>
        <time>2021-04-22T10:26:33.000Z</time>
      </trkpt>
      <trkpt lat="47.26013" lon="-1.48746">
        <ele>75</ele>
        <time>2021-04-22T10:26:35.000Z</time>
      </trkpt>
      <trkpt lat="47.26025" lon="-1.48746">
        <ele>74</ele>
        <time>2021-04-22T10:26:37.000Z</time>
      </trkpt>
      <trkpt lat="47.26037" lon="-1.48744">
        <ele>74</ele>
        <time>2021-04-22T10:26:39.000Z</time>
      </trkpt>
      <trkpt lat="47.2605" lon="-1.48741">
        <ele>74</ele>
        <time>2021-04-22T10:26:41.000Z</time>
      </trkpt>
      <trkpt lat="47.26062" lon="-1.48739">
        <ele>74</ele>
        <time>2021-04-22T10:26:43.000Z</time>
      </trkpt>
      <trkpt lat="47.26075" lon="-1.48736">
        <ele>74</ele>
        <time>2021-04-22T10:26:45.000Z</time>
      </trkpt>
      <trkpt lat="47.26087" lon="-1.48734">
        <ele>74</ele>
        <time>2021-04-22T10:26:47.000Z</time>
      </trkpt>
      <trkpt lat="47.26099" lon="-1.4873">
        <ele>75</ele>
        <time>2021-04-22T10:26:49.000Z</time>
      </trkpt>
      <trkpt lat="47.26111" lon="-1.48727">
        <ele>74</ele>
        <time>2021-04-22T10:26:51.000Z</time>
      </trkpt>
      <trkpt lat="47.26123" lon="-1.48724">
        <ele>75</ele>
        <time>2021-04-22T10:26:53.000Z</time>
      </trkpt>
      <trkpt lat="47.26134" lon="-1.48718">
        <ele>75</ele>
        <time>2021-04-22T10:26:55.000Z</time>
      </trkpt>
      <trkpt lat="47.26145" lon="-1.48712">
        <ele>76</ele>
        <time>2021-04-22T10:26:57.000Z</time>
      </trkpt>
      <trkpt lat="47.26157" lon="-1.48708">
        <ele>76</ele>
        <time>2021-04-22T10:26:59.000Z</time>
      </trkpt>
      <trkpt lat="47.26168" lon="-1.48703">
        <ele>76</ele>
        <time>2021-04-22T10:27:01.000Z</time>
      </trkpt>
      <trkpt lat="47.26179" lon="-1.48698">
        <ele>76</ele>
        <time>2021-04-22T10:27:03.000Z</time>
      </trkpt>
      <trkpt lat="47.26191" lon="-1.48693">
        <ele>76</ele>
        <time>2021-04-22T10:27:05.000Z</time>
      </trkpt>
      <trkpt lat="47.26202" lon="-1.48688">
        <ele>76</ele>
        <time>2021-04-22T10:27:07.000Z</time>
      </trkpt>
      <trkpt lat="47.26213" lon="-1.48683">
        <ele>77</ele>
        <time>2021-04-22T10:27:09.000Z</time>
      </trkpt>
      <trkpt lat="47.26224" lon="-1.48677">
        <ele>77</ele>
        <time>2021-04-22T10:27:11.000Z</time>
      </trkpt>
      <trkpt lat="47.26235" lon="-1.48672">
        <ele>77</ele>
        <time>2021-04-22T10:27:13.000Z</time>
      </trkpt>
      <trkpt lat="47.26246" lon="-1.48669">
        <ele>77</ele>
        <time>2021-04-22T10:27:15.000Z</time>
      </trkpt>
      <trkpt lat="47.26258" lon="-1.48668">
        <ele>77</ele>
        <time>2021-04-22T10:27:17.000Z</time>
      </trkpt>
      <trkpt lat="47.26269" lon="-1.48666">
        <ele>77</ele>
        <time>2021-04-22T10:27:19.000Z</time>
      </trkpt>
      <trkpt lat="47.2628" lon="-1.48664">
        <ele>77</ele>
        <time>2021-04-22T10:27:21.000Z</time>
      </trkpt>
      <trkpt lat="47.26291" lon="-1.48663">
        <ele>77</ele>
        <time>2021-04-22T10:27:23.000Z</time>
      </trkpt>
      <trkpt lat="47.26302" lon="-1.48662">
        <ele>77</ele>
        <time>2021-04-22T10:27:25.000Z</time>
      </trkpt>
      <trkpt lat="47.26314" lon="-1.48661">
        <ele>77</ele>
        <time>2021-04-22T10:27:27.000Z</time>
      </trkpt>
      <trkpt lat="47.26325" lon="-1.48662">
        <ele>77</ele>
        <time>2021-04-22T10:27:29.000Z</time>
      </trkpt>
      <trkpt lat="47.26335" lon="-1.48662">
        <ele>78</ele>
        <time>2021-04-22T10:27:31.000Z</time>
      </trkpt>
      <trkpt lat="47.26348" lon="-1.48664">
        <ele>77</ele>
        <time>2021-04-22T10:27:33.000Z</time>
      </trkpt>
      <trkpt lat="47.2636" lon="-1.48666">
        <ele>77</ele>
        <time>2021-04-22T10:27:35.000Z</time>
      </trkpt>
      <trkpt lat="47.26372" lon="-1.48667">
        <ele>77</ele>
        <time>2021-04-22T10:27:37.000Z</time>
      </trkpt>
      <trkpt lat="47.26384" lon="-1.48668">
        <ele>78</ele>
        <time>2021-04-22T10:27:39.000Z</time>
      </trkpt>
      <trkpt lat="47.26395" lon="-1.48668">
        <ele>78</ele>
        <time>2021-04-22T10:27:41.000Z</time>
      </trkpt>
      <trkpt lat="47.26406" lon="-1.48669">
        <ele>78</ele>
        <time>2021-04-22T10:27:43.000Z</time>
      </trkpt>
      <trkpt lat="47.26417" lon="-1.4867">
        <ele>78</ele>
        <time>2021-04-22T10:27:45.000Z</time>
      </trkpt>
      <trkpt lat="47.26428" lon="-1.48671">
        <ele>79</ele>
        <time>2021-04-22T10:27:47.000Z</time>
      </trkpt>
      <trkpt lat="47.2644" lon="-1.48673">
        <ele>79</ele>
        <time>2021-04-22T10:27:49.000Z</time>
      </trkpt>
      <trkpt lat="47.26451" lon="-1.48676">
        <ele>79</ele>
        <time>2021-04-22T10:27:51.000Z</time>
      </trkpt>
      <trkpt lat="47.26462" lon="-1.48679">
        <ele>79</ele>
        <time>2021-04-22T10:27:53.000Z</time>
      </trkpt>
      <trkpt lat="47.26474" lon="-1.48682">
        <ele>79</ele>
        <time>2021-04-22T10:27:55.000Z</time>
      </trkpt>
      <trkpt lat="47.26485" lon="-1.48685">
        <ele>79</ele>
        <time>2021-04-22T10:27:57.000Z</time>
      </trkpt>
      <trkpt lat="47.26496" lon="-1.48689">
        <ele>79</ele>
        <time>2021-04-22T10:27:59.000Z</time>
      </trkpt>
      <trkpt lat="47.26507" lon="-1.48692">
        <ele>80</ele>
        <time>2021-04-22T10:28:01.000Z</time>
      </trkpt>
      <trkpt lat="47.26519" lon="-1.48695">
        <ele>80</ele>
        <time>2021-04-22T10:28:03.000Z</time>
      </trkpt>
      <trkpt lat="47.2653" lon="-1.48699">
        <ele>80</ele>
        <time>2021-04-22T10:28:05.000Z</time>
      </trkpt>
      <trkpt lat="47.26541" lon="-1.48703">
        <ele>81</ele>
        <time>2021-04-22T10:28:07.000Z</time>
      </trkpt>
      <trkpt lat="47.26551" lon="-1.48708">
        <ele>80</ele>
        <time>2021-04-22T10:28:09.000Z</time>
      </trkpt>
      <trkpt lat="47.26563" lon="-1.48713">
        <ele>80</ele>
        <time>2021-04-22T10:28:11.000Z</time>
      </trkpt>
      <trkpt lat="47.26574" lon="-1.48715">
        <ele>80</ele>
        <time>2021-04-22T10:28:13.000Z</time>
      </trkpt>
      <trkpt lat="47.26586" lon="-1.48712">
        <ele>80</ele>
        <time>2021-04-22T10:28:15.000Z</time>
      </trkpt>
      <trkpt lat="47.26598" lon="-1.48713">
        <ele>81</ele>
        <time>2021-04-22T10:28:17.000Z</time>
      </trkpt>
      <trkpt lat="47.2661" lon="-1.48722">
        <ele>81</ele>
        <time>2021-04-22T10:28:19.000Z</time>
      </trkpt>
      <trkpt lat="47.26622" lon="-1.48734">
        <ele>81</ele>
        <time>2021-04-22T10:28:21.000Z</time>
      </trkpt>
      <trkpt lat="47.2663" lon="-1.48751">
        <ele>81</ele>
        <time>2021-04-22T10:28:23.000Z</time>
      </trkpt>
      <trkpt lat="47.26637" lon="-1.48769">
        <ele>81</ele>
        <time>2021-04-22T10:28:25.000Z</time>
      </trkpt>
      <trkpt lat="47.26646" lon="-1.48783">
        <ele>82</ele>
        <time>2021-04-22T10:28:27.000Z</time>
      </trkpt>
      <trkpt lat="47.26657" lon="-1.48792">
        <ele>83</ele>
        <time>2021-04-22T10:28:29.000Z</time>
      </trkpt>
      <trkpt lat="47.26668" lon="-1.48802">
        <ele>84</ele>
        <time>2021-04-22T10:28:31.000Z</time>
      </trkpt>
      <trkpt lat="47.26677" lon="-1.48811">
        <ele>84</ele>
        <time>2021-04-22T10:28:33.000Z</time>
      </trkpt>
      <trkpt lat="47.26687" lon="-1.48821">
        <ele>85</ele>
        <time>2021-04-22T10:28:35.000Z</time>
      </trkpt>
      <trkpt lat="47.26696" lon="-1.48832">
        <ele>86</ele>
        <time>2021-04-22T10:28:37.000Z</time>
      </trkpt>
      <trkpt lat="47.26704" lon="-1.48844">
        <ele>86</ele>
        <time>2021-04-22T10:28:39.000Z</time>
      </trkpt>
      <trkpt lat="47.26714" lon="-1.48857">
        <ele>86</ele>
        <time>2021-04-22T10:28:42.000Z</time>
      </trkpt>
      <trkpt lat="47.26726" lon="-1.48866">
        <ele>85</ele>
        <time>2021-04-22T10:28:45.000Z</time>
      </trkpt>
      <trkpt lat="47.26736" lon="-1.48865">
        <ele>83</ele>
        <time>2021-04-22T10:28:47.000Z</time>
      </trkpt>
      <trkpt lat="47.26747" lon="-1.48856">
        <ele>83</ele>
        <time>2021-04-22T10:28:49.000Z</time>
      </trkpt>
      <trkpt lat="47.26756" lon="-1.48845">
        <ele>83</ele>
        <time>2021-04-22T10:28:51.000Z</time>
      </trkpt>
      <trkpt lat="47.26765" lon="-1.48832">
        <ele>82</ele>
        <time>2021-04-22T10:28:53.000Z</time>
      </trkpt>
      <trkpt lat="47.26775" lon="-1.4882">
        <ele>82</ele>
        <time>2021-04-22T10:28:55.000Z</time>
      </trkpt>
      <trkpt lat="47.26784" lon="-1.48807">
        <ele>82</ele>
        <time>2021-04-22T10:28:57.000Z</time>
      </trkpt>
      <trkpt lat="47.26793" lon="-1.48795">
        <ele>81</ele>
        <time>2021-04-22T10:28:59.000Z</time>
      </trkpt>
      <trkpt lat="47.26802" lon="-1.48783">
        <ele>81</ele>
        <time>2021-04-22T10:29:01.000Z</time>
      </trkpt>
      <trkpt lat="47.26812" lon="-1.4877">
        <ele>82</ele>
        <time>2021-04-22T10:29:03.000Z</time>
      </trkpt>
      <trkpt lat="47.26821" lon="-1.48759">
        <ele>82</ele>
        <time>2021-04-22T10:29:05.000Z</time>
      </trkpt>
      <trkpt lat="47.26829" lon="-1.48746">
        <ele>82</ele>
        <time>2021-04-22T10:29:07.000Z</time>
      </trkpt>
      <trkpt lat="47.26838" lon="-1.48734">
        <ele>82</ele>
        <time>2021-04-22T10:29:09.000Z</time>
      </trkpt>
      <trkpt lat="47.26847" lon="-1.48722">
        <ele>82</ele>
        <time>2021-04-22T10:29:11.000Z</time>
      </trkpt>
      <trkpt lat="47.26857" lon="-1.48711">
        <ele>83</ele>
        <time>2021-04-22T10:29:13.000Z</time>
      </trkpt>
      <trkpt lat="47.26866" lon="-1.48699">
        <ele>83</ele>
        <time>2021-04-22T10:29:15.000Z</time>
      </trkpt>
      <trkpt lat="47.26875" lon="-1.48688">
        <ele>84</ele>
        <time>2021-04-22T10:29:17.000Z</time>
      </trkpt>
      <trkpt lat="47.26884" lon="-1.48678">
        <ele>84</ele>
        <time>2021-04-22T10:29:19.000Z</time>
      </trkpt>
      <trkpt lat="47.26893" lon="-1.48669">
        <ele>83</ele>
        <time>2021-04-22T10:29:21.000Z</time>
      </trkpt>
      <trkpt lat="47.26903" lon="-1.4866">
        <ele>84</ele>
        <time>2021-04-22T10:29:23.000Z</time>
      </trkpt>
      <trkpt lat="47.26913" lon="-1.48651">
        <ele>84</ele>
        <time>2021-04-22T10:29:25.000Z</time>
      </trkpt>
      <trkpt lat="47.26922" lon="-1.48642">
        <ele>84</ele>
        <time>2021-04-22T10:29:27.000Z</time>
      </trkpt>
      <trkpt lat="47.26932" lon="-1.48634">
        <ele>84</ele>
        <time>2021-04-22T10:29:29.000Z</time>
      </trkpt>
      <trkpt lat="47.26942" lon="-1.48626">
        <ele>83</ele>
        <time>2021-04-22T10:29:31.000Z</time>
      </trkpt>
      <trkpt lat="47.26952" lon="-1.48618">
        <ele>83</ele>
        <time>2021-04-22T10:29:33.000Z</time>
      </trkpt>
      <trkpt lat="47.26962" lon="-1.4861">
        <ele>83</ele>
        <time>2021-04-22T10:29:35.000Z</time>
      </trkpt>
      <trkpt lat="47.26972" lon="-1.48603">
        <ele>83</ele>
        <time>2021-04-22T10:29:37.000Z</time>
      </trkpt>
      <trkpt lat="47.26983" lon="-1.48596">
        <ele>84</ele>
        <time>2021-04-22T10:29:39.000Z</time>
      </trkpt>
      <trkpt lat="47.26993" lon="-1.48587">
        <ele>83</ele>
        <time>2021-04-22T10:29:41.000Z</time>
      </trkpt>
      <trkpt lat="47.27004" lon="-1.48579">
        <ele>84</ele>
        <time>2021-04-22T10:29:43.000Z</time>
      </trkpt>
      <trkpt lat="47.27015" lon="-1.48571">
        <ele>84</ele>
        <time>2021-04-22T10:29:45.000Z</time>
      </trkpt>
      <trkpt lat="47.27026" lon="-1.48564">
        <ele>84</ele>
        <time>2021-04-22T10:29:47.000Z</time>
      </trkpt>
      <trkpt lat="47.27036" lon="-1.48557">
        <ele>84</ele>
        <time>2021-04-22T10:29:49.000Z</time>
      </trkpt>
      <trkpt lat="47.27046" lon="-1.48551">
        <ele>84</ele>
        <time>2021-04-22T10:29:51.000Z</time>
      </trkpt>
      <trkpt lat="47.27056" lon="-1.48543">
        <ele>84</ele>
        <time>2021-04-22T10:29:53.000Z</time>
      </trkpt>
      <trkpt lat="47.27066" lon="-1.48535">
        <ele>84</ele>
        <time>2021-04-22T10:29:55.000Z</time>
      </trkpt>
      <trkpt lat="47.27076" lon="-1.48532">
        <ele>84</ele>
        <time>2021-04-22T10:29:57.000Z</time>
      </trkpt>
      <trkpt lat="47.27086" lon="-1.48524">
        <ele>85</ele>
        <time>2021-04-22T10:29:59.000Z</time>
      </trkpt>
      <trkpt lat="47.27095" lon="-1.48515">
        <ele>84</ele>
        <time>2021-04-22T10:30:01.000Z</time>
      </trkpt>
      <trkpt lat="47.27106" lon="-1.48506">
        <ele>84</ele>
        <time>2021-04-22T10:30:03.000Z</time>
      </trkpt>
      <trkpt lat="47.27115" lon="-1.48497">
        <ele>85</ele>
        <time>2021-04-22T10:30:05.000Z</time>
      </trkpt>
      <trkpt lat="47.27125" lon="-1.48488">
        <ele>85</ele>
        <time>2021-04-22T10:30:07.000Z</time>
      </trkpt>
      <trkpt lat="47.27135" lon="-1.48481">
        <ele>85</ele>
        <time>2021-04-22T10:30:09.000Z</time>
      </trkpt>
      <trkpt lat="47.27145" lon="-1.48473">
        <ele>85</ele>
        <time>2021-04-22T10:30:11.000Z</time>
      </trkpt>
      <trkpt lat="47.27155" lon="-1.48466">
        <ele>85</ele>
        <time>2021-04-22T10:30:13.000Z</time>
      </trkpt>
      <trkpt lat="47.27165" lon="-1.48458">
        <ele>85</ele>
        <time>2021-04-22T10:30:15.000Z</time>
      </trkpt>
      <trkpt lat="47.27175" lon="-1.4845">
        <ele>85</ele>
        <time>2021-04-22T10:30:17.000Z</time>
      </trkpt>
      <trkpt lat="47.27185" lon="-1.48442">
        <ele>85</ele>
        <time>2021-04-22T10:30:19.000Z</time>
      </trkpt>
      <trkpt lat="47.27195" lon="-1.48435">
        <ele>84</ele>
        <time>2021-04-22T10:30:21.000Z</time>
      </trkpt>
      <trkpt lat="47.27204" lon="-1.48426">
        <ele>85</ele>
        <time>2021-04-22T10:30:23.000Z</time>
      </trkpt>
      <trkpt lat="47.27213" lon="-1.48418">
        <ele>85</ele>
        <time>2021-04-22T10:30:25.000Z</time>
      </trkpt>
      <trkpt lat="47.27223" lon="-1.4841">
        <ele>85</ele>
        <time>2021-04-22T10:30:27.000Z</time>
      </trkpt>
      <trkpt lat="47.27233" lon="-1.48403">
        <ele>85</ele>
        <time>2021-04-22T10:30:29.000Z</time>
      </trkpt>
      <trkpt lat="47.27243" lon="-1.48396">
        <ele>85</ele>
        <time>2021-04-22T10:30:31.000Z</time>
      </trkpt>
      <trkpt lat="47.27252" lon="-1.48389">
        <ele>85</ele>
        <time>2021-04-22T10:30:33.000Z</time>
      </trkpt>
      <trkpt lat="47.27261" lon="-1.48381">
        <ele>85</ele>
        <time>2021-04-22T10:30:35.000Z</time>
      </trkpt>
      <trkpt lat="47.2727" lon="-1.48375">
        <ele>85</ele>
        <time>2021-04-22T10:30:37.000Z</time>
      </trkpt>
      <trkpt lat="47.27279" lon="-1.48369">
        <ele>85</ele>
        <time>2021-04-22T10:30:39.000Z</time>
      </trkpt>
      <trkpt lat="47.27288" lon="-1.48362">
        <ele>85</ele>
        <time>2021-04-22T10:30:41.000Z</time>
      </trkpt>
      <trkpt lat="47.27298" lon="-1.48355">
        <ele>85</ele>
        <time>2021-04-22T10:30:43.000Z</time>
      </trkpt>
      <trkpt lat="47.27308" lon="-1.48348">
        <ele>85</ele>
        <time>2021-04-22T10:30:45.000Z</time>
      </trkpt>
      <trkpt lat="47.27318" lon="-1.48342">
        <ele>85</ele>
        <time>2021-04-22T10:30:47.000Z</time>
      </trkpt>
      <trkpt lat="47.27329" lon="-1.48336">
        <ele>85</ele>
        <time>2021-04-22T10:30:49.000Z</time>
      </trkpt>
      <trkpt lat="47.2734" lon="-1.48332">
        <ele>85</ele>
        <time>2021-04-22T10:30:51.000Z</time>
      </trkpt>
      <trkpt lat="47.27351" lon="-1.48329">
        <ele>85</ele>
        <time>2021-04-22T10:30:53.000Z</time>
      </trkpt>
      <trkpt lat="47.27363" lon="-1.48327">
        <ele>85</ele>
        <time>2021-04-22T10:30:55.000Z</time>
      </trkpt>
      <trkpt lat="47.27375" lon="-1.48326">
        <ele>85</ele>
        <time>2021-04-22T10:30:57.000Z</time>
      </trkpt>
      <trkpt lat="47.27386" lon="-1.48326">
        <ele>85</ele>
        <time>2021-04-22T10:30:59.000Z</time>
      </trkpt>
      <trkpt lat="47.27397" lon="-1.48326">
        <ele>85</ele>
        <time>2021-04-22T10:31:01.000Z</time>
      </trkpt>
      <trkpt lat="47.27408" lon="-1.48326">
        <ele>85</ele>
        <time>2021-04-22T10:31:03.000Z</time>
      </trkpt>
      <trkpt lat="47.27419" lon="-1.48328">
        <ele>85</ele>
        <time>2021-04-22T10:31:05.000Z</time>
      </trkpt>
      <trkpt lat="47.2743" lon="-1.4833">
        <ele>85</ele>
        <time>2021-04-22T10:31:07.000Z</time>
      </trkpt>
      <trkpt lat="47.2744" lon="-1.48332">
        <ele>85</ele>
        <time>2021-04-22T10:31:09.000Z</time>
      </trkpt>
      <trkpt lat="47.27451" lon="-1.48333">
        <ele>85</ele>
        <time>2021-04-22T10:31:11.000Z</time>
      </trkpt>
      <trkpt lat="47.27461" lon="-1.48336">
        <ele>85</ele>
        <time>2021-04-22T10:31:13.000Z</time>
      </trkpt>
      <trkpt lat="47.27471" lon="-1.48336">
        <ele>85</ele>
        <time>2021-04-22T10:31:15.000Z</time>
      </trkpt>
      <trkpt lat="47.27481" lon="-1.48338">
        <ele>85</ele>
        <time>2021-04-22T10:31:17.000Z</time>
      </trkpt>
      <trkpt lat="47.27491" lon="-1.48339">
        <ele>85</ele>
        <time>2021-04-22T10:31:19.000Z</time>
      </trkpt>
      <trkpt lat="47.27502" lon="-1.48341">
        <ele>86</ele>
        <time>2021-04-22T10:31:21.000Z</time>
      </trkpt>
      <trkpt lat="47.27514" lon="-1.48342">
        <ele>86</ele>
        <time>2021-04-22T10:31:23.000Z</time>
      </trkpt>
      <trkpt lat="47.27526" lon="-1.48344">
        <ele>86</ele>
        <time>2021-04-22T10:31:25.000Z</time>
      </trkpt>
      <trkpt lat="47.27537" lon="-1.48345">
        <ele>86</ele>
        <time>2021-04-22T10:31:27.000Z</time>
      </trkpt>
      <trkpt lat="47.27549" lon="-1.48347">
        <ele>86</ele>
        <time>2021-04-22T10:31:29.000Z</time>
      </trkpt>
      <trkpt lat="47.2756" lon="-1.48348">
        <ele>86</ele>
        <time>2021-04-22T10:31:31.000Z</time>
      </trkpt>
      <trkpt lat="47.27573" lon="-1.48348">
        <ele>85</ele>
        <time>2021-04-22T10:31:33.000Z</time>
      </trkpt>
      <trkpt lat="47.27584" lon="-1.48347">
        <ele>85</ele>
        <time>2021-04-22T10:31:35.000Z</time>
      </trkpt>
      <trkpt lat="47.27595" lon="-1.48344">
        <ele>85</ele>
        <time>2021-04-22T10:31:37.000Z</time>
      </trkpt>
      <trkpt lat="47.27606" lon="-1.48341">
        <ele>85</ele>
        <time>2021-04-22T10:31:39.000Z</time>
      </trkpt>
      <trkpt lat="47.27617" lon="-1.48339">
        <ele>85</ele>
        <time>2021-04-22T10:31:41.000Z</time>
      </trkpt>
      <trkpt lat="47.27628" lon="-1.48337">
        <ele>85</ele>
        <time>2021-04-22T10:31:43.000Z</time>
      </trkpt>
      <trkpt lat="47.2764" lon="-1.48337">
        <ele>84</ele>
        <time>2021-04-22T10:31:45.000Z</time>
      </trkpt>
      <trkpt lat="47.2765" lon="-1.48329">
        <ele>84</ele>
        <time>2021-04-22T10:31:47.000Z</time>
      </trkpt>
      <trkpt lat="47.27659" lon="-1.48335">
        <ele>83</ele>
        <time>2021-04-22T10:31:49.000Z</time>
      </trkpt>
      <trkpt lat="47.27672" lon="-1.48335">
        <ele>82</ele>
        <time>2021-04-22T10:31:51.000Z</time>
      </trkpt>
      <trkpt lat="47.27684" lon="-1.48338">
        <ele>82</ele>
        <time>2021-04-22T10:31:53.000Z</time>
      </trkpt>
      <trkpt lat="47.27697" lon="-1.48343">
        <ele>81</ele>
        <time>2021-04-22T10:31:55.000Z</time>
      </trkpt>
      <trkpt lat="47.2771" lon="-1.48349">
        <ele>81</ele>
        <time>2021-04-22T10:31:57.000Z</time>
      </trkpt>
      <trkpt lat="47.27722" lon="-1.48357">
        <ele>81</ele>
        <time>2021-04-22T10:31:59.000Z</time>
      </trkpt>
      <trkpt lat="47.27734" lon="-1.48368">
        <ele>80</ele>
        <time>2021-04-22T10:32:01.000Z</time>
      </trkpt>
      <trkpt lat="47.27745" lon="-1.4838">
        <ele>80</ele>
        <time>2021-04-22T10:32:03.000Z</time>
      </trkpt>
      <trkpt lat="47.27757" lon="-1.48391">
        <ele>80</ele>
        <time>2021-04-22T10:32:05.000Z</time>
      </trkpt>
      <trkpt lat="47.27769" lon="-1.48402">
        <ele>79</ele>
        <time>2021-04-22T10:32:07.000Z</time>
      </trkpt>
      <trkpt lat="47.27782" lon="-1.48414">
        <ele>79</ele>
        <time>2021-04-22T10:32:09.000Z</time>
      </trkpt>
      <trkpt lat="47.27796" lon="-1.48425">
        <ele>78</ele>
        <time>2021-04-22T10:32:11.000Z</time>
      </trkpt>
      <trkpt lat="47.27809" lon="-1.48436">
        <ele>78</ele>
        <time>2021-04-22T10:32:13.000Z</time>
      </trkpt>
      <trkpt lat="47.27822" lon="-1.48446">
        <ele>77</ele>
        <time>2021-04-22T10:32:15.000Z</time>
      </trkpt>
      <trkpt lat="47.27837" lon="-1.48453">
        <ele>77</ele>
        <time>2021-04-22T10:32:17.000Z</time>
      </trkpt>
      <trkpt lat="47.27851" lon="-1.48459">
        <ele>77</ele>
        <time>2021-04-22T10:32:19.000Z</time>
      </trkpt>
      <trkpt lat="47.27865" lon="-1.48465">
        <ele>77</ele>
        <time>2021-04-22T10:32:21.000Z</time>
      </trkpt>
      <trkpt lat="47.27879" lon="-1.48472">
        <ele>76</ele>
        <time>2021-04-22T10:32:23.000Z</time>
      </trkpt>
      <trkpt lat="47.27893" lon="-1.48478">
        <ele>76</ele>
        <time>2021-04-22T10:32:25.000Z</time>
      </trkpt>
      <trkpt lat="47.27907" lon="-1.48484">
        <ele>76</ele>
        <time>2021-04-22T10:32:27.000Z</time>
      </trkpt>
      <trkpt lat="47.27921" lon="-1.4849">
        <ele>75</ele>
        <time>2021-04-22T10:32:29.000Z</time>
      </trkpt>
      <trkpt lat="47.27935" lon="-1.48496">
        <ele>75</ele>
        <time>2021-04-22T10:32:31.000Z</time>
      </trkpt>
      <trkpt lat="47.27949" lon="-1.48502">
        <ele>75</ele>
        <time>2021-04-22T10:32:33.000Z</time>
      </trkpt>
      <trkpt lat="47.27963" lon="-1.48509">
        <ele>74</ele>
        <time>2021-04-22T10:32:35.000Z</time>
      </trkpt>
      <trkpt lat="47.27977" lon="-1.48516">
        <ele>73</ele>
        <time>2021-04-22T10:32:37.000Z</time>
      </trkpt>
      <trkpt lat="47.2799" lon="-1.48523">
        <ele>73</ele>
        <time>2021-04-22T10:32:39.000Z</time>
      </trkpt>
      <trkpt lat="47.28004" lon="-1.48528">
        <ele>73</ele>
        <time>2021-04-22T10:32:41.000Z</time>
      </trkpt>
      <trkpt lat="47.28018" lon="-1.48533">
        <ele>72</ele>
        <time>2021-04-22T10:32:43.000Z</time>
      </trkpt>
      <trkpt lat="47.28033" lon="-1.48537">
        <ele>71</ele>
        <time>2021-04-22T10:32:45.000Z</time>
      </trkpt>
      <trkpt lat="47.28047" lon="-1.48539">
        <ele>71</ele>
        <time>2021-04-22T10:32:47.000Z</time>
      </trkpt>
      <trkpt lat="47.28062" lon="-1.4854">
        <ele>71</ele>
        <time>2021-04-22T10:32:49.000Z</time>
      </trkpt>
      <trkpt lat="47.28077" lon="-1.48539">
        <ele>70</ele>
        <time>2021-04-22T10:32:51.000Z</time>
      </trkpt>
      <trkpt lat="47.28092" lon="-1.48538">
        <ele>70</ele>
        <time>2021-04-22T10:32:53.000Z</time>
      </trkpt>
      <trkpt lat="47.28107" lon="-1.48537">
        <ele>70</ele>
        <time>2021-04-22T10:32:55.000Z</time>
      </trkpt>
      <trkpt lat="47.28122" lon="-1.48536">
        <ele>69</ele>
        <time>2021-04-22T10:32:57.000Z</time>
      </trkpt>
      <trkpt lat="47.28137" lon="-1.48535">
        <ele>69</ele>
        <time>2021-04-22T10:32:59.000Z</time>
      </trkpt>
      <trkpt lat="47.28151" lon="-1.48535">
        <ele>69</ele>
        <time>2021-04-22T10:33:01.000Z</time>
      </trkpt>
      <trkpt lat="47.28167" lon="-1.48534">
        <ele>68</ele>
        <time>2021-04-22T10:33:03.000Z</time>
      </trkpt>
      <trkpt lat="47.28181" lon="-1.48533">
        <ele>68</ele>
        <time>2021-04-22T10:33:05.000Z</time>
      </trkpt>
      <trkpt lat="47.28194" lon="-1.48533">
        <ele>69</ele>
        <time>2021-04-22T10:33:07.000Z</time>
      </trkpt>
      <trkpt lat="47.28206" lon="-1.48529">
        <ele>69</ele>
        <time>2021-04-22T10:33:09.000Z</time>
      </trkpt>
      <trkpt lat="47.28218" lon="-1.48523">
        <ele>69</ele>
        <time>2021-04-22T10:33:11.000Z</time>
      </trkpt>
      <trkpt lat="47.28232" lon="-1.48529">
        <ele>68</ele>
        <time>2021-04-22T10:33:13.000Z</time>
      </trkpt>
      <trkpt lat="47.28244" lon="-1.48537">
        <ele>68</ele>
        <time>2021-04-22T10:33:15.000Z</time>
      </trkpt>
      <trkpt lat="47.28257" lon="-1.48538">
        <ele>68</ele>
        <time>2021-04-22T10:33:17.000Z</time>
      </trkpt>
      <trkpt lat="47.28269" lon="-1.48542">
        <ele>67</ele>
        <time>2021-04-22T10:33:19.000Z</time>
      </trkpt>
      <trkpt lat="47.2828" lon="-1.48551">
        <ele>68</ele>
        <time>2021-04-22T10:33:21.000Z</time>
      </trkpt>
      <trkpt lat="47.28289" lon="-1.48563">
        <ele>68</ele>
        <time>2021-04-22T10:33:23.000Z</time>
      </trkpt>
      <trkpt lat="47.28297" lon="-1.48578">
        <ele>68</ele>
        <time>2021-04-22T10:33:25.000Z</time>
      </trkpt>
      <trkpt lat="47.28308" lon="-1.48596">
        <ele>67</ele>
        <time>2021-04-22T10:33:27.000Z</time>
      </trkpt>
      <trkpt lat="47.28321" lon="-1.48607">
        <ele>67</ele>
        <time>2021-04-22T10:33:29.000Z</time>
      </trkpt>
      <trkpt lat="47.28333" lon="-1.4861">
        <ele>67</ele>
        <time>2021-04-22T10:33:31.000Z</time>
      </trkpt>
      <trkpt lat="47.28347" lon="-1.48614">
        <ele>68</ele>
        <time>2021-04-22T10:33:33.000Z</time>
      </trkpt>
      <trkpt lat="47.28357" lon="-1.48625">
        <ele>69</ele>
        <time>2021-04-22T10:33:35.000Z</time>
      </trkpt>
      <trkpt lat="47.28369" lon="-1.48635">
        <ele>69</ele>
        <time>2021-04-22T10:33:37.000Z</time>
      </trkpt>
      <trkpt lat="47.2838" lon="-1.48643">
        <ele>69</ele>
        <time>2021-04-22T10:33:39.000Z</time>
      </trkpt>
      <trkpt lat="47.28393" lon="-1.48643">
        <ele>69</ele>
        <time>2021-04-22T10:33:41.000Z</time>
      </trkpt>
      <trkpt lat="47.28406" lon="-1.48638">
        <ele>70</ele>
        <time>2021-04-22T10:33:43.000Z</time>
      </trkpt>
      <trkpt lat="47.28416" lon="-1.48633">
        <ele>71</ele>
        <time>2021-04-22T10:33:45.000Z</time>
      </trkpt>
      <trkpt lat="47.28427" lon="-1.48626">
        <ele>71</ele>
        <time>2021-04-22T10:33:47.000Z</time>
      </trkpt>
      <trkpt lat="47.28437" lon="-1.48617">
        <ele>72</ele>
        <time>2021-04-22T10:33:49.000Z</time>
      </trkpt>
      <trkpt lat="47.28446" lon="-1.48609">
        <ele>72</ele>
        <time>2021-04-22T10:33:51.000Z</time>
      </trkpt>
      <trkpt lat="47.28456" lon="-1.486">
        <ele>73</ele>
        <time>2021-04-22T10:33:53.000Z</time>
      </trkpt>
      <trkpt lat="47.28466" lon="-1.48592">
        <ele>73</ele>
        <time>2021-04-22T10:33:55.000Z</time>
      </trkpt>
      <trkpt lat="47.28476" lon="-1.48583">
        <ele>74</ele>
        <time>2021-04-22T10:33:57.000Z</time>
      </trkpt>
      <trkpt lat="47.28486" lon="-1.48575">
        <ele>74</ele>
        <time>2021-04-22T10:33:59.000Z</time>
      </trkpt>
      <trkpt lat="47.28496" lon="-1.48567">
        <ele>75</ele>
        <time>2021-04-22T10:34:01.000Z</time>
      </trkpt>
      <trkpt lat="47.28505" lon="-1.48558">
        <ele>76</ele>
        <time>2021-04-22T10:34:03.000Z</time>
      </trkpt>
      <trkpt lat="47.28514" lon="-1.4855">
        <ele>76</ele>
        <time>2021-04-22T10:34:05.000Z</time>
      </trkpt>
      <trkpt lat="47.28525" lon="-1.48541">
        <ele>76</ele>
        <time>2021-04-22T10:34:07.000Z</time>
      </trkpt>
      <trkpt lat="47.28534" lon="-1.48533">
        <ele>76</ele>
        <time>2021-04-22T10:34:09.000Z</time>
      </trkpt>
      <trkpt lat="47.28545" lon="-1.48524">
        <ele>76</ele>
        <time>2021-04-22T10:34:11.000Z</time>
      </trkpt>
      <trkpt lat="47.28556" lon="-1.48517">
        <ele>75</ele>
        <time>2021-04-22T10:34:13.000Z</time>
      </trkpt>
      <trkpt lat="47.28566" lon="-1.48509">
        <ele>75</ele>
        <time>2021-04-22T10:34:15.000Z</time>
      </trkpt>
      <trkpt lat="47.28576" lon="-1.48501">
        <ele>75</ele>
        <time>2021-04-22T10:34:17.000Z</time>
      </trkpt>
      <trkpt lat="47.28586" lon="-1.48493">
        <ele>76</ele>
        <time>2021-04-22T10:34:19.000Z</time>
      </trkpt>
      <trkpt lat="47.28596" lon="-1.48485">
        <ele>76</ele>
        <time>2021-04-22T10:34:21.000Z</time>
      </trkpt>
      <trkpt lat="47.28607" lon="-1.48477">
        <ele>76</ele>
        <time>2021-04-22T10:34:23.000Z</time>
      </trkpt>
      <trkpt lat="47.28617" lon="-1.48468">
        <ele>77</ele>
        <time>2021-04-22T10:34:25.000Z</time>
      </trkpt>
      <trkpt lat="47.28627" lon="-1.4846">
        <ele>77</ele>
        <time>2021-04-22T10:34:27.000Z</time>
      </trkpt>
      <trkpt lat="47.28638" lon="-1.48454">
        <ele>77</ele>
        <time>2021-04-22T10:34:29.000Z</time>
      </trkpt>
      <trkpt lat="47.28648" lon="-1.48447">
        <ele>77</ele>
        <time>2021-04-22T10:34:31.000Z</time>
      </trkpt>
      <trkpt lat="47.28658" lon="-1.48442">
        <ele>77</ele>
        <time>2021-04-22T10:34:33.000Z</time>
      </trkpt>
      <trkpt lat="47.28668" lon="-1.48436">
        <ele>78</ele>
        <time>2021-04-22T10:34:35.000Z</time>
      </trkpt>
      <trkpt lat="47.28679" lon="-1.48431">
        <ele>78</ele>
        <time>2021-04-22T10:34:37.000Z</time>
      </trkpt>
      <trkpt lat="47.28689" lon="-1.48427">
        <ele>78</ele>
        <time>2021-04-22T10:34:39.000Z</time>
      </trkpt>
      <trkpt lat="47.28699" lon="-1.48422">
        <ele>78</ele>
        <time>2021-04-22T10:34:41.000Z</time>
      </trkpt>
      <trkpt lat="47.28709" lon="-1.48418">
        <ele>79</ele>
        <time>2021-04-22T10:34:43.000Z</time>
      </trkpt>
      <trkpt lat="47.28719" lon="-1.48414">
        <ele>79</ele>
        <time>2021-04-22T10:34:45.000Z</time>
      </trkpt>
      <trkpt lat="47.2873" lon="-1.4841">
        <ele>79</ele>
        <time>2021-04-22T10:34:47.000Z</time>
      </trkpt>
      <trkpt lat="47.28741" lon="-1.48406">
        <ele>79</ele>
        <time>2021-04-22T10:34:49.000Z</time>
      </trkpt>
      <trkpt lat="47.28751" lon="-1.48403">
        <ele>79</ele>
        <time>2021-04-22T10:34:51.000Z</time>
      </trkpt>
      <trkpt lat="47.2876" lon="-1.48396">
        <ele>78</ele>
        <time>2021-04-22T10:34:53.000Z</time>
      </trkpt>
      <trkpt lat="47.28767" lon="-1.48384">
        <ele>78</ele>
        <time>2021-04-22T10:34:55.000Z</time>
      </trkpt>
      <trkpt lat="47.28776" lon="-1.48376">
        <ele>77</ele>
        <time>2021-04-22T10:34:57.000Z</time>
      </trkpt>
      <trkpt lat="47.28788" lon="-1.48377">
        <ele>77</ele>
        <time>2021-04-22T10:34:59.000Z</time>
      </trkpt>
      <trkpt lat="47.28798" lon="-1.48381">
        <ele>77</ele>
        <time>2021-04-22T10:35:01.000Z</time>
      </trkpt>
      <trkpt lat="47.28807" lon="-1.48389">
        <ele>78</ele>
        <time>2021-04-22T10:35:03.000Z</time>
      </trkpt>
      <trkpt lat="47.28817" lon="-1.48399">
        <ele>78</ele>
        <time>2021-04-22T10:35:05.000Z</time>
      </trkpt>
      <trkpt lat="47.28827" lon="-1.48403">
        <ele>78</ele>
        <time>2021-04-22T10:35:07.000Z</time>
      </trkpt>
      <trkpt lat="47.28838" lon="-1.48407">
        <ele>78</ele>
        <time>2021-04-22T10:35:09.000Z</time>
      </trkpt>
      <trkpt lat="47.28848" lon="-1.48411">
        <ele>79</ele>
        <time>2021-04-22T10:35:11.000Z</time>
      </trkpt>
      <trkpt lat="47.2886" lon="-1.48415">
        <ele>79</ele>
        <time>2021-04-22T10:35:13.000Z</time>
      </trkpt>
      <trkpt lat="47.28872" lon="-1.4842">
        <ele>79</ele>
        <time>2021-04-22T10:35:15.000Z</time>
      </trkpt>
      <trkpt lat="47.28883" lon="-1.48426">
        <ele>79</ele>
        <time>2021-04-22T10:35:17.000Z</time>
      </trkpt>
      <trkpt lat="47.28895" lon="-1.48433">
        <ele>78</ele>
        <time>2021-04-22T10:35:19.000Z</time>
      </trkpt>
      <trkpt lat="47.28906" lon="-1.48439">
        <ele>78</ele>
        <time>2021-04-22T10:35:21.000Z</time>
      </trkpt>
      <trkpt lat="47.28917" lon="-1.48446">
        <ele>77</ele>
        <time>2021-04-22T10:35:23.000Z</time>
      </trkpt>
      <trkpt lat="47.28928" lon="-1.48454">
        <ele>78</ele>
        <time>2021-04-22T10:35:25.000Z</time>
      </trkpt>
      <trkpt lat="47.28939" lon="-1.48462">
        <ele>78</ele>
        <time>2021-04-22T10:35:27.000Z</time>
      </trkpt>
      <trkpt lat="47.2895" lon="-1.48468">
        <ele>78</ele>
        <time>2021-04-22T10:35:29.000Z</time>
      </trkpt>
      <trkpt lat="47.2896" lon="-1.48478">
        <ele>78</ele>
        <time>2021-04-22T10:35:31.000Z</time>
      </trkpt>
      <trkpt lat="47.28971" lon="-1.48487">
        <ele>78</ele>
        <time>2021-04-22T10:35:33.000Z</time>
      </trkpt>
      <trkpt lat="47.28983" lon="-1.48494">
        <ele>77</ele>
        <time>2021-04-22T10:35:35.000Z</time>
      </trkpt>
      <trkpt lat="47.28994" lon="-1.48503">
        <ele>78</ele>
        <time>2021-04-22T10:35:37.000Z</time>
      </trkpt>
      <trkpt lat="47.29006" lon="-1.48512">
        <ele>77</ele>
        <time>2021-04-22T10:35:39.000Z</time>
      </trkpt>
      <trkpt lat="47.29018" lon="-1.48519">
        <ele>77</ele>
        <time>2021-04-22T10:35:41.000Z</time>
      </trkpt>
      <trkpt lat="47.29029" lon="-1.48528">
        <ele>78</ele>
        <time>2021-04-22T10:35:43.000Z</time>
      </trkpt>
      <trkpt lat="47.29041" lon="-1.48536">
        <ele>78</ele>
        <time>2021-04-22T10:35:45.000Z</time>
      </trkpt>
      <trkpt lat="47.29051" lon="-1.48544">
        <ele>77</ele>
        <time>2021-04-22T10:35:47.000Z</time>
      </trkpt>
      <trkpt lat="47.29062" lon="-1.48549">
        <ele>77</ele>
        <time>2021-04-22T10:35:49.000Z</time>
      </trkpt>
      <trkpt lat="47.29073" lon="-1.48559">
        <ele>77</ele>
        <time>2021-04-22T10:35:51.000Z</time>
      </trkpt>
      <trkpt lat="47.29084" lon="-1.48569">
        <ele>76</ele>
        <time>2021-04-22T10:35:53.000Z</time>
      </trkpt>
      <trkpt lat="47.29095" lon="-1.48578">
        <ele>76</ele>
        <time>2021-04-22T10:35:55.000Z</time>
      </trkpt>
      <trkpt lat="47.29106" lon="-1.48586">
        <ele>76</ele>
        <time>2021-04-22T10:35:57.000Z</time>
      </trkpt>
      <trkpt lat="47.29117" lon="-1.48595">
        <ele>75</ele>
        <time>2021-04-22T10:35:59.000Z</time>
      </trkpt>
      <trkpt lat="47.29129" lon="-1.48603">
        <ele>75</ele>
        <time>2021-04-22T10:36:01.000Z</time>
      </trkpt>
      <trkpt lat="47.2914" lon="-1.48611">
        <ele>74</ele>
        <time>2021-04-22T10:36:03.000Z</time>
      </trkpt>
      <trkpt lat="47.29152" lon="-1.48619">
        <ele>74</ele>
        <time>2021-04-22T10:36:05.000Z</time>
      </trkpt>
      <trkpt lat="47.29163" lon="-1.48627">
        <ele>74</ele>
        <time>2021-04-22T10:36:07.000Z</time>
      </trkpt>
      <trkpt lat="47.29174" lon="-1.48636">
        <ele>74</ele>
        <time>2021-04-22T10:36:09.000Z</time>
      </trkpt>
      <trkpt lat="47.29186" lon="-1.48644">
        <ele>73</ele>
        <time>2021-04-22T10:36:11.000Z</time>
      </trkpt>
      <trkpt lat="47.29197" lon="-1.48653">
        <ele>73</ele>
        <time>2021-04-22T10:36:13.000Z</time>
      </trkpt>
      <trkpt lat="47.29208" lon="-1.48662">
        <ele>72</ele>
        <time>2021-04-22T10:36:15.000Z</time>
      </trkpt>
      <trkpt lat="47.29219" lon="-1.48671">
        <ele>72</ele>
        <time>2021-04-22T10:36:17.000Z</time>
      </trkpt>
      <trkpt lat="47.29229" lon="-1.4868">
        <ele>71</ele>
        <time>2021-04-22T10:36:19.000Z</time>
      </trkpt>
      <trkpt lat="47.2924" lon="-1.48686">
        <ele>71</ele>
        <time>2021-04-22T10:36:21.000Z</time>
      </trkpt>
      <trkpt lat="47.29251" lon="-1.48681">
        <ele>72</ele>
        <time>2021-04-22T10:36:23.000Z</time>
      </trkpt>
      <trkpt lat="47.29263" lon="-1.48682">
        <ele>72</ele>
        <time>2021-04-22T10:36:26.000Z</time>
      </trkpt>
      <trkpt lat="47.29273" lon="-1.48683">
        <ele>72</ele>
        <time>2021-04-22T10:36:28.000Z</time>
      </trkpt>
      <trkpt lat="47.29286" lon="-1.48682">
        <ele>72</ele>
        <time>2021-04-22T10:36:31.000Z</time>
      </trkpt>
      <trkpt lat="47.29295" lon="-1.48678">
        <ele>72</ele>
        <time>2021-04-22T10:36:33.000Z</time>
      </trkpt>
      <trkpt lat="47.29303" lon="-1.48672">
        <ele>72</ele>
        <time>2021-04-22T10:36:35.000Z</time>
      </trkpt>
      <trkpt lat="47.29313" lon="-1.48669">
        <ele>73</ele>
        <time>2021-04-22T10:36:37.000Z</time>
      </trkpt>
      <trkpt lat="47.29325" lon="-1.48665">
        <ele>73</ele>
        <time>2021-04-22T10:36:40.000Z</time>
      </trkpt>
      <trkpt lat="47.29337" lon="-1.48662">
        <ele>74</ele>
        <time>2021-04-22T10:36:43.000Z</time>
      </trkpt>
      <trkpt lat="47.29348" lon="-1.48657">
        <ele>75</ele>
        <time>2021-04-22T10:36:45.000Z</time>
      </trkpt>
      <trkpt lat="47.29359" lon="-1.48654">
        <ele>75</ele>
        <time>2021-04-22T10:36:47.000Z</time>
      </trkpt>
      <trkpt lat="47.29369" lon="-1.48652">
        <ele>76</ele>
        <time>2021-04-22T10:36:49.000Z</time>
      </trkpt>
      <trkpt lat="47.2938" lon="-1.48651">
        <ele>76</ele>
        <time>2021-04-22T10:36:51.000Z</time>
      </trkpt>
      <trkpt lat="47.29389" lon="-1.48649">
        <ele>76</ele>
        <time>2021-04-22T10:36:53.000Z</time>
      </trkpt>
      <trkpt lat="47.294" lon="-1.48657">
        <ele>77</ele>
        <time>2021-04-22T10:36:56.000Z</time>
      </trkpt>
      <trkpt lat="47.29405" lon="-1.48671">
        <ele>77</ele>
        <time>2021-04-22T10:36:58.000Z</time>
      </trkpt>
      <trkpt lat="47.29411" lon="-1.48685">
        <ele>77</ele>
        <time>2021-04-22T10:37:00.000Z</time>
      </trkpt>
      <trkpt lat="47.29416" lon="-1.48699">
        <ele>78</ele>
        <time>2021-04-22T10:37:02.000Z</time>
      </trkpt>
      <trkpt lat="47.29422" lon="-1.48713">
        <ele>78</ele>
        <time>2021-04-22T10:37:04.000Z</time>
      </trkpt>
      <trkpt lat="47.29429" lon="-1.48725">
        <ele>78</ele>
        <time>2021-04-22T10:37:06.000Z</time>
      </trkpt>
      <trkpt lat="47.29435" lon="-1.48736">
        <ele>78</ele>
        <time>2021-04-22T10:37:08.000Z</time>
      </trkpt>
      <trkpt lat="47.29443" lon="-1.48749">
        <ele>78</ele>
        <time>2021-04-22T10:37:11.000Z</time>
      </trkpt>
      <trkpt lat="47.29456" lon="-1.48743">
        <ele>78</ele>
        <time>2021-04-22T10:37:14.000Z</time>
      </trkpt>
      <trkpt lat="47.29466" lon="-1.48734">
        <ele>78</ele>
        <time>2021-04-22T10:37:16.000Z</time>
      </trkpt>
      <trkpt lat="47.29476" lon="-1.48725">
        <ele>78</ele>
        <time>2021-04-22T10:37:18.000Z</time>
      </trkpt>
      <trkpt lat="47.29486" lon="-1.48717">
        <ele>78</ele>
        <time>2021-04-22T10:37:20.000Z</time>
      </trkpt>
      <trkpt lat="47.29495" lon="-1.48708">
        <ele>78</ele>
        <time>2021-04-22T10:37:22.000Z</time>
      </trkpt>
      <trkpt lat="47.29505" lon="-1.487">
        <ele>78</ele>
        <time>2021-04-22T10:37:24.000Z</time>
      </trkpt>
      <trkpt lat="47.29514" lon="-1.48692">
        <ele>78</ele>
        <time>2021-04-22T10:37:26.000Z</time>
      </trkpt>
      <trkpt lat="47.29524" lon="-1.48686">
        <ele>78</ele>
        <time>2021-04-22T10:37:28.000Z</time>
      </trkpt>
      <trkpt lat="47.29534" lon="-1.48679">
        <ele>78</ele>
        <time>2021-04-22T10:37:30.000Z</time>
      </trkpt>
      <trkpt lat="47.29544" lon="-1.48674">
        <ele>78</ele>
        <time>2021-04-22T10:37:32.000Z</time>
      </trkpt>
      <trkpt lat="47.29556" lon="-1.48669">
        <ele>77</ele>
        <time>2021-04-22T10:37:34.000Z</time>
      </trkpt>
      <trkpt lat="47.29569" lon="-1.48665">
        <ele>77</ele>
        <time>2021-04-22T10:37:36.000Z</time>
      </trkpt>
      <trkpt lat="47.2958" lon="-1.48661">
        <ele>77</ele>
        <time>2021-04-22T10:37:38.000Z</time>
      </trkpt>
      <trkpt lat="47.29591" lon="-1.48656">
        <ele>77</ele>
        <time>2021-04-22T10:37:40.000Z</time>
      </trkpt>
      <trkpt lat="47.29604" lon="-1.48652">
        <ele>77</ele>
        <time>2021-04-22T10:37:42.000Z</time>
      </trkpt>
      <trkpt lat="47.29615" lon="-1.48648">
        <ele>76</ele>
        <time>2021-04-22T10:37:44.000Z</time>
      </trkpt>
      <trkpt lat="47.29627" lon="-1.48641">
        <ele>76</ele>
        <time>2021-04-22T10:37:46.000Z</time>
      </trkpt>
      <trkpt lat="47.29634" lon="-1.48628">
        <ele>76</ele>
        <time>2021-04-22T10:37:48.000Z</time>
      </trkpt>
      <trkpt lat="47.29643" lon="-1.48618">
        <ele>76</ele>
        <time>2021-04-22T10:37:50.000Z</time>
      </trkpt>
      <trkpt lat="47.29654" lon="-1.48612">
        <ele>75</ele>
        <time>2021-04-22T10:37:52.000Z</time>
      </trkpt>
      <trkpt lat="47.29665" lon="-1.48611">
        <ele>75</ele>
        <time>2021-04-22T10:37:54.000Z</time>
      </trkpt>
      <trkpt lat="47.29677" lon="-1.48602">
        <ele>75</ele>
        <time>2021-04-22T10:37:57.000Z</time>
      </trkpt>
      <trkpt lat="47.29686" lon="-1.48598">
        <ele>76</ele>
        <time>2021-04-22T10:37:59.000Z</time>
      </trkpt>
      <trkpt lat="47.29697" lon="-1.486">
        <ele>76</ele>
        <time>2021-04-22T10:38:01.000Z</time>
      </trkpt>
      <trkpt lat="47.29708" lon="-1.48603">
        <ele>75</ele>
        <time>2021-04-22T10:38:03.000Z</time>
      </trkpt>
      <trkpt lat="47.29719" lon="-1.48607">
        <ele>76</ele>
        <time>2021-04-22T10:38:05.000Z</time>
      </trkpt>
      <trkpt lat="47.29731" lon="-1.4861">
        <ele>75</ele>
        <time>2021-04-22T10:38:07.000Z</time>
      </trkpt>
      <trkpt lat="47.29743" lon="-1.48614">
        <ele>75</ele>
        <time>2021-04-22T10:38:09.000Z</time>
      </trkpt>
      <trkpt lat="47.29754" lon="-1.48616">
        <ele>75</ele>
        <time>2021-04-22T10:38:11.000Z</time>
      </trkpt>
      <trkpt lat="47.29764" lon="-1.48617">
        <ele>75</ele>
        <time>2021-04-22T10:38:13.000Z</time>
      </trkpt>
      <trkpt lat="47.29775" lon="-1.48619">
        <ele>75</ele>
        <time>2021-04-22T10:38:16.000Z</time>
      </trkpt>
      <trkpt lat="47.29784" lon="-1.48618">
        <ele>75</ele>
        <time>2021-04-22T10:38:18.000Z</time>
      </trkpt>
      <trkpt lat="47.29795" lon="-1.48618">
        <ele>76</ele>
        <time>2021-04-22T10:38:20.000Z</time>
      </trkpt>
      <trkpt lat="47.29808" lon="-1.4862">
        <ele>76</ele>
        <time>2021-04-22T10:38:22.000Z</time>
      </trkpt>
      <trkpt lat="47.29822" lon="-1.48622">
        <ele>76</ele>
        <time>2021-04-22T10:38:24.000Z</time>
      </trkpt>
      <trkpt lat="47.29835" lon="-1.48624">
        <ele>76</ele>
        <time>2021-04-22T10:38:26.000Z</time>
      </trkpt>
      <trkpt lat="47.29847" lon="-1.48625">
        <ele>76</ele>
        <time>2021-04-22T10:38:28.000Z</time>
      </trkpt>
      <trkpt lat="47.2986" lon="-1.48625">
        <ele>76</ele>
        <time>2021-04-22T10:38:30.000Z</time>
      </trkpt>
      <trkpt lat="47.29872" lon="-1.48626">
        <ele>76</ele>
        <time>2021-04-22T10:38:32.000Z</time>
      </trkpt>
      <trkpt lat="47.29884" lon="-1.48626">
        <ele>76</ele>
        <time>2021-04-22T10:38:34.000Z</time>
      </trkpt>
      <trkpt lat="47.29897" lon="-1.48626">
        <ele>76</ele>
        <time>2021-04-22T10:38:36.000Z</time>
      </trkpt>
      <trkpt lat="47.2991" lon="-1.48626">
        <ele>76</ele>
        <time>2021-04-22T10:38:38.000Z</time>
      </trkpt>
      <trkpt lat="47.29923" lon="-1.48626">
        <ele>76</ele>
        <time>2021-04-22T10:38:40.000Z</time>
      </trkpt>
      <trkpt lat="47.29936" lon="-1.48626">
        <ele>75</ele>
        <time>2021-04-22T10:38:42.000Z</time>
      </trkpt>
      <trkpt lat="47.29949" lon="-1.48625">
        <ele>74</ele>
        <time>2021-04-22T10:38:44.000Z</time>
      </trkpt>
      <trkpt lat="47.29963" lon="-1.48623">
        <ele>73</ele>
        <time>2021-04-22T10:38:46.000Z</time>
      </trkpt>
      <trkpt lat="47.29977" lon="-1.48622">
        <ele>73</ele>
        <time>2021-04-22T10:38:48.000Z</time>
      </trkpt>
      <trkpt lat="47.29991" lon="-1.48619">
        <ele>72</ele>
        <time>2021-04-22T10:38:50.000Z</time>
      </trkpt>
      <trkpt lat="47.30005" lon="-1.48616">
        <ele>72</ele>
        <time>2021-04-22T10:38:52.000Z</time>
      </trkpt>
      <trkpt lat="47.3002" lon="-1.48613">
        <ele>73</ele>
        <time>2021-04-22T10:38:54.000Z</time>
      </trkpt>
      <trkpt lat="47.30034" lon="-1.48609">
        <ele>73</ele>
        <time>2021-04-22T10:38:56.000Z</time>
      </trkpt>
      <trkpt lat="47.30048" lon="-1.48605">
        <ele>73</ele>
        <time>2021-04-22T10:38:58.000Z</time>
      </trkpt>
      <trkpt lat="47.30061" lon="-1.48601">
        <ele>73</ele>
        <time>2021-04-22T10:39:00.000Z</time>
      </trkpt>
      <trkpt lat="47.30075" lon="-1.48596">
        <ele>73</ele>
        <time>2021-04-22T10:39:02.000Z</time>
      </trkpt>
      <trkpt lat="47.30089" lon="-1.48591">
        <ele>73</ele>
        <time>2021-04-22T10:39:04.000Z</time>
      </trkpt>
      <trkpt lat="47.30102" lon="-1.48586">
        <ele>73</ele>
        <time>2021-04-22T10:39:06.000Z</time>
      </trkpt>
      <trkpt lat="47.30115" lon="-1.48581">
        <ele>73</ele>
        <time>2021-04-22T10:39:08.000Z</time>
      </trkpt>
      <trkpt lat="47.30128" lon="-1.48575">
        <ele>72</ele>
        <time>2021-04-22T10:39:10.000Z</time>
      </trkpt>
      <trkpt lat="47.30141" lon="-1.48569">
        <ele>72</ele>
        <time>2021-04-22T10:39:12.000Z</time>
      </trkpt>
      <trkpt lat="47.30154" lon="-1.48564">
        <ele>70</ele>
        <time>2021-04-22T10:39:14.000Z</time>
      </trkpt>
      <trkpt lat="47.30167" lon="-1.48557">
        <ele>70</ele>
        <time>2021-04-22T10:39:16.000Z</time>
      </trkpt>
      <trkpt lat="47.30182" lon="-1.48551">
        <ele>70</ele>
        <time>2021-04-22T10:39:18.000Z</time>
      </trkpt>
      <trkpt lat="47.30197" lon="-1.48545">
        <ele>70</ele>
        <time>2021-04-22T10:39:20.000Z</time>
      </trkpt>
      <trkpt lat="47.30212" lon="-1.48538">
        <ele>70</ele>
        <time>2021-04-22T10:39:22.000Z</time>
      </trkpt>
      <trkpt lat="47.30226" lon="-1.48529">
        <ele>70</ele>
        <time>2021-04-22T10:39:24.000Z</time>
      </trkpt>
      <trkpt lat="47.30239" lon="-1.48521">
        <ele>71</ele>
        <time>2021-04-22T10:39:26.000Z</time>
      </trkpt>
      <trkpt lat="47.30252" lon="-1.48511">
        <ele>70</ele>
        <time>2021-04-22T10:39:28.000Z</time>
      </trkpt>
      <trkpt lat="47.30264" lon="-1.48501">
        <ele>70</ele>
        <time>2021-04-22T10:39:30.000Z</time>
      </trkpt>
      <trkpt lat="47.30277" lon="-1.4849">
        <ele>70</ele>
        <time>2021-04-22T10:39:32.000Z</time>
      </trkpt>
      <trkpt lat="47.3029" lon="-1.4848">
        <ele>70</ele>
        <time>2021-04-22T10:39:34.000Z</time>
      </trkpt>
      <trkpt lat="47.30303" lon="-1.48471">
        <ele>69</ele>
        <time>2021-04-22T10:39:36.000Z</time>
      </trkpt>
      <trkpt lat="47.30315" lon="-1.48461">
        <ele>69</ele>
        <time>2021-04-22T10:39:38.000Z</time>
      </trkpt>
      <trkpt lat="47.30327" lon="-1.48452">
        <ele>69</ele>
        <time>2021-04-22T10:39:40.000Z</time>
      </trkpt>
      <trkpt lat="47.30339" lon="-1.48445">
        <ele>68</ele>
        <time>2021-04-22T10:39:42.000Z</time>
      </trkpt>
      <trkpt lat="47.30348" lon="-1.48439">
        <ele>69</ele>
        <time>2021-04-22T10:39:44.000Z</time>
      </trkpt>
      <trkpt lat="47.30357" lon="-1.4843">
        <ele>68</ele>
        <time>2021-04-22T10:39:48.000Z</time>
      </trkpt>
      <trkpt lat="47.30366" lon="-1.48421">
        <ele>67</ele>
        <time>2021-04-22T10:39:51.000Z</time>
      </trkpt>
      <trkpt lat="47.30378" lon="-1.48417">
        <ele>68</ele>
        <time>2021-04-22T10:39:54.000Z</time>
      </trkpt>
      <trkpt lat="47.30386" lon="-1.48408">
        <ele>67</ele>
        <time>2021-04-22T10:39:56.000Z</time>
      </trkpt>
      <trkpt lat="47.30393" lon="-1.48396">
        <ele>66</ele>
        <time>2021-04-22T10:39:58.000Z</time>
      </trkpt>
      <trkpt lat="47.30402" lon="-1.48385">
        <ele>66</ele>
        <time>2021-04-22T10:40:00.000Z</time>
      </trkpt>
      <trkpt lat="47.30414" lon="-1.48373">
        <ele>65</ele>
        <time>2021-04-22T10:40:02.000Z</time>
      </trkpt>
      <trkpt lat="47.30425" lon="-1.48362">
        <ele>64</ele>
        <time>2021-04-22T10:40:04.000Z</time>
      </trkpt>
      <trkpt lat="47.30437" lon="-1.4835">
        <ele>64</ele>
        <time>2021-04-22T10:40:06.000Z</time>
      </trkpt>
      <trkpt lat="47.30448" lon="-1.48338">
        <ele>64</ele>
        <time>2021-04-22T10:40:08.000Z</time>
      </trkpt>
      <trkpt lat="47.30459" lon="-1.48326">
        <ele>64</ele>
        <time>2021-04-22T10:40:10.000Z</time>
      </trkpt>
      <trkpt lat="47.30469" lon="-1.48314">
        <ele>64</ele>
        <time>2021-04-22T10:40:12.000Z</time>
      </trkpt>
      <trkpt lat="47.30479" lon="-1.48302">
        <ele>64</ele>
        <time>2021-04-22T10:40:14.000Z</time>
      </trkpt>
      <trkpt lat="47.30489" lon="-1.48289">
        <ele>64</ele>
        <time>2021-04-22T10:40:16.000Z</time>
      </trkpt>
      <trkpt lat="47.30499" lon="-1.48276">
        <ele>64</ele>
        <time>2021-04-22T10:40:18.000Z</time>
      </trkpt>
      <trkpt lat="47.3051" lon="-1.48263">
        <ele>64</ele>
        <time>2021-04-22T10:40:20.000Z</time>
      </trkpt>
      <trkpt lat="47.30519" lon="-1.4825">
        <ele>64</ele>
        <time>2021-04-22T10:40:22.000Z</time>
      </trkpt>
      <trkpt lat="47.30528" lon="-1.48237">
        <ele>64</ele>
        <time>2021-04-22T10:40:24.000Z</time>
      </trkpt>
      <trkpt lat="47.30538" lon="-1.48221">
        <ele>63</ele>
        <time>2021-04-22T10:40:26.000Z</time>
      </trkpt>
      <trkpt lat="47.30547" lon="-1.48206">
        <ele>63</ele>
        <time>2021-04-22T10:40:28.000Z</time>
      </trkpt>
      <trkpt lat="47.30556" lon="-1.4819">
        <ele>62</ele>
        <time>2021-04-22T10:40:30.000Z</time>
      </trkpt>
      <trkpt lat="47.30565" lon="-1.48175">
        <ele>62</ele>
        <time>2021-04-22T10:40:32.000Z</time>
      </trkpt>
      <trkpt lat="47.30574" lon="-1.48159">
        <ele>61</ele>
        <time>2021-04-22T10:40:34.000Z</time>
      </trkpt>
      <trkpt lat="47.30582" lon="-1.48144">
        <ele>61</ele>
        <time>2021-04-22T10:40:36.000Z</time>
      </trkpt>
      <trkpt lat="47.30591" lon="-1.48129">
        <ele>60</ele>
        <time>2021-04-22T10:40:38.000Z</time>
      </trkpt>
      <trkpt lat="47.306" lon="-1.48115">
        <ele>61</ele>
        <time>2021-04-22T10:40:40.000Z</time>
      </trkpt>
      <trkpt lat="47.30608" lon="-1.481">
        <ele>62</ele>
        <time>2021-04-22T10:40:42.000Z</time>
      </trkpt>
      <trkpt lat="47.30617" lon="-1.48086">
        <ele>62</ele>
        <time>2021-04-22T10:40:44.000Z</time>
      </trkpt>
      <trkpt lat="47.30628" lon="-1.48077">
        <ele>62</ele>
        <time>2021-04-22T10:40:46.000Z</time>
      </trkpt>
      <trkpt lat="47.30641" lon="-1.48082">
        <ele>61</ele>
        <time>2021-04-22T10:40:48.000Z</time>
      </trkpt>
      <trkpt lat="47.30653" lon="-1.4809">
        <ele>62</ele>
        <time>2021-04-22T10:40:50.000Z</time>
      </trkpt>
      <trkpt lat="47.30662" lon="-1.481">
        <ele>62</ele>
        <time>2021-04-22T10:40:52.000Z</time>
      </trkpt>
      <trkpt lat="47.30673" lon="-1.48112">
        <ele>62</ele>
        <time>2021-04-22T10:40:54.000Z</time>
      </trkpt>
      <trkpt lat="47.30683" lon="-1.48122">
        <ele>62</ele>
        <time>2021-04-22T10:40:56.000Z</time>
      </trkpt>
      <trkpt lat="47.30698" lon="-1.48139">
        <ele>63</ele>
        <time>2021-04-22T10:40:59.000Z</time>
      </trkpt>
      <trkpt lat="47.30708" lon="-1.48157">
        <ele>63</ele>
        <time>2021-04-22T10:41:02.000Z</time>
      </trkpt>
      <trkpt lat="47.30712" lon="-1.48172">
        <ele>63</ele>
        <time>2021-04-22T10:41:04.000Z</time>
      </trkpt>
      <trkpt lat="47.30715" lon="-1.48187">
        <ele>62</ele>
        <time>2021-04-22T10:41:06.000Z</time>
      </trkpt>
      <trkpt lat="47.30719" lon="-1.48201">
        <ele>63</ele>
        <time>2021-04-22T10:41:08.000Z</time>
      </trkpt>
      <trkpt lat="47.30727" lon="-1.48209">
        <ele>62</ele>
        <time>2021-04-22T10:41:10.000Z</time>
      </trkpt>
      <trkpt lat="47.30738" lon="-1.48207">
        <ele>62</ele>
        <time>2021-04-22T10:41:12.000Z</time>
      </trkpt>
      <trkpt lat="47.30751" lon="-1.48193">
        <ele>62</ele>
        <time>2021-04-22T10:41:15.000Z</time>
      </trkpt>
      <trkpt lat="47.30757" lon="-1.48181">
        <ele>62</ele>
        <time>2021-04-22T10:41:17.000Z</time>
      </trkpt>
      <trkpt lat="47.30746" lon="-1.48162">
        <ele>62</ele>
        <time>2021-04-22T10:41:21.000Z</time>
      </trkpt>
      <trkpt lat="47.30736" lon="-1.48156">
        <ele>62</ele>
        <time>2021-04-22T10:41:23.000Z</time>
      </trkpt>
      <trkpt lat="47.30727" lon="-1.48155">
        <ele>62</ele>
        <time>2021-04-22T10:41:26.000Z</time>
      </trkpt>
      <trkpt lat="47.30732" lon="-1.48169">
        <ele>62</ele>
        <time>2021-04-22T10:41:29.000Z</time>
      </trkpt>
      <trkpt lat="47.3074" lon="-1.48186">
        <ele>64</ele>
        <time>2021-04-22T10:41:32.000Z</time>
      </trkpt>
      <trkpt lat="47.30746" lon="-1.48199">
        <ele>64</ele>
        <time>2021-04-22T10:41:34.000Z</time>
      </trkpt>
      <trkpt lat="47.30757" lon="-1.48211">
        <ele>65</ele>
        <time>2021-04-22T10:41:37.000Z</time>
      </trkpt>
      <trkpt lat="47.30767" lon="-1.48199">
        <ele>66</ele>
        <time>2021-04-22T10:41:40.000Z</time>
      </trkpt>
      <trkpt lat="47.30772" lon="-1.48174">
        <ele>65</ele>
        <time>2021-04-22T10:41:43.000Z</time>
      </trkpt>
      <trkpt lat="47.30776" lon="-1.48158">
        <ele>65</ele>
        <time>2021-04-22T10:41:45.000Z</time>
      </trkpt>
      <trkpt lat="47.3078" lon="-1.48141">
        <ele>64</ele>
        <time>2021-04-22T10:41:47.000Z</time>
      </trkpt>
      <trkpt lat="47.30785" lon="-1.48123">
        <ele>64</ele>
        <time>2021-04-22T10:41:49.000Z</time>
      </trkpt>
      <trkpt lat="47.3079" lon="-1.48106">
        <ele>63</ele>
        <time>2021-04-22T10:41:51.000Z</time>
      </trkpt>
      <trkpt lat="47.30796" lon="-1.48078">
        <ele>62</ele>
        <time>2021-04-22T10:41:54.000Z</time>
      </trkpt>
      <trkpt lat="47.30797" lon="-1.48061">
        <ele>62</ele>
        <time>2021-04-22T10:41:56.000Z</time>
      </trkpt>
      <trkpt lat="47.30793" lon="-1.48048">
        <ele>61</ele>
        <time>2021-04-22T10:41:58.000Z</time>
      </trkpt>
      <trkpt lat="47.30788" lon="-1.48037">
        <ele>61</ele>
        <time>2021-04-22T10:42:00.000Z</time>
      </trkpt>
      <trkpt lat="47.30784" lon="-1.48023">
        <ele>61</ele>
        <time>2021-04-22T10:42:03.000Z</time>
      </trkpt>
      <trkpt lat="47.30782" lon="-1.48005">
        <ele>58</ele>
        <time>2021-04-22T10:42:06.000Z</time>
      </trkpt>
      <trkpt lat="47.30791" lon="-1.47989">
        <ele>58</ele>
        <time>2021-04-22T10:42:09.000Z</time>
      </trkpt>
      <trkpt lat="47.30796" lon="-1.47971">
        <ele>58</ele>
        <time>2021-04-22T10:42:12.000Z</time>
      </trkpt>
      <trkpt lat="47.30793" lon="-1.47955">
        <ele>56</ele>
        <time>2021-04-22T10:42:15.000Z</time>
      </trkpt>
      <trkpt lat="47.30775" lon="-1.47949">
        <ele>55</ele>
        <time>2021-04-22T10:42:18.000Z</time>
      </trkpt>
      <trkpt lat="47.30762" lon="-1.47947">
        <ele>54</ele>
        <time>2021-04-22T10:42:20.000Z</time>
      </trkpt>
      <trkpt lat="47.30748" lon="-1.47948">
        <ele>54</ele>
        <time>2021-04-22T10:42:22.000Z</time>
      </trkpt>
      <trkpt lat="47.30736" lon="-1.47949">
        <ele>54</ele>
        <time>2021-04-22T10:42:24.000Z</time>
      </trkpt>
      <trkpt lat="47.30724" lon="-1.4795">
        <ele>55</ele>
        <time>2021-04-22T10:42:26.000Z</time>
      </trkpt>
      <trkpt lat="47.30714" lon="-1.47947">
        <ele>57</ele>
        <time>2021-04-22T10:42:28.000Z</time>
      </trkpt>
      <trkpt lat="47.30708" lon="-1.47935">
        <ele>58</ele>
        <time>2021-04-22T10:42:31.000Z</time>
      </trkpt>
      <trkpt lat="47.30715" lon="-1.47919">
        <ele>58</ele>
        <time>2021-04-22T10:42:34.000Z</time>
      </trkpt>
      <trkpt lat="47.30723" lon="-1.47906">
        <ele>58</ele>
        <time>2021-04-22T10:42:36.000Z</time>
      </trkpt>
      <trkpt lat="47.30731" lon="-1.47892">
        <ele>59</ele>
        <time>2021-04-22T10:42:38.000Z</time>
      </trkpt>
      <trkpt lat="47.30738" lon="-1.47879">
        <ele>59</ele>
        <time>2021-04-22T10:42:40.000Z</time>
      </trkpt>
      <trkpt lat="47.30746" lon="-1.47864">
        <ele>58</ele>
        <time>2021-04-22T10:42:42.000Z</time>
      </trkpt>
      <trkpt lat="47.30754" lon="-1.47849">
        <ele>59</ele>
        <time>2021-04-22T10:42:44.000Z</time>
      </trkpt>
      <trkpt lat="47.30761" lon="-1.47835">
        <ele>59</ele>
        <time>2021-04-22T10:42:46.000Z</time>
      </trkpt>
      <trkpt lat="47.30771" lon="-1.47822">
        <ele>58</ele>
        <time>2021-04-22T10:42:48.000Z</time>
      </trkpt>
      <trkpt lat="47.30781" lon="-1.47809">
        <ele>57</ele>
        <time>2021-04-22T10:42:50.000Z</time>
      </trkpt>
      <trkpt lat="47.3079" lon="-1.47796">
        <ele>56</ele>
        <time>2021-04-22T10:42:52.000Z</time>
      </trkpt>
      <trkpt lat="47.30799" lon="-1.47782">
        <ele>56</ele>
        <time>2021-04-22T10:42:54.000Z</time>
      </trkpt>
      <trkpt lat="47.30807" lon="-1.47768">
        <ele>56</ele>
        <time>2021-04-22T10:42:56.000Z</time>
      </trkpt>
      <trkpt lat="47.30815" lon="-1.47754">
        <ele>56</ele>
        <time>2021-04-22T10:42:58.000Z</time>
      </trkpt>
      <trkpt lat="47.30823" lon="-1.47741">
        <ele>56</ele>
        <time>2021-04-22T10:43:00.000Z</time>
      </trkpt>
      <trkpt lat="47.30831" lon="-1.47727">
        <ele>56</ele>
        <time>2021-04-22T10:43:02.000Z</time>
      </trkpt>
      <trkpt lat="47.30839" lon="-1.47713">
        <ele>57</ele>
        <time>2021-04-22T10:43:04.000Z</time>
      </trkpt>
      <trkpt lat="47.30847" lon="-1.477">
        <ele>57</ele>
        <time>2021-04-22T10:43:06.000Z</time>
      </trkpt>
      <trkpt lat="47.30859" lon="-1.47679">
        <ele>57</ele>
        <time>2021-04-22T10:43:09.000Z</time>
      </trkpt>
      <trkpt lat="47.30867" lon="-1.47667">
        <ele>57</ele>
        <time>2021-04-22T10:43:11.000Z</time>
      </trkpt>
      <trkpt lat="47.30876" lon="-1.47653">
        <ele>57</ele>
        <time>2021-04-22T10:43:13.000Z</time>
      </trkpt>
      <trkpt lat="47.30884" lon="-1.4764">
        <ele>57</ele>
        <time>2021-04-22T10:43:15.000Z</time>
      </trkpt>
      <trkpt lat="47.30892" lon="-1.47626">
        <ele>57</ele>
        <time>2021-04-22T10:43:17.000Z</time>
      </trkpt>
      <trkpt lat="47.309" lon="-1.47611">
        <ele>58</ele>
        <time>2021-04-22T10:43:19.000Z</time>
      </trkpt>
      <trkpt lat="47.30907" lon="-1.47597">
        <ele>58</ele>
        <time>2021-04-22T10:43:21.000Z</time>
      </trkpt>
      <trkpt lat="47.30914" lon="-1.47584">
        <ele>57</ele>
        <time>2021-04-22T10:43:23.000Z</time>
      </trkpt>
      <trkpt lat="47.3092" lon="-1.4757">
        <ele>57</ele>
        <time>2021-04-22T10:43:25.000Z</time>
      </trkpt>
      <trkpt lat="47.30928" lon="-1.47556">
        <ele>56</ele>
        <time>2021-04-22T10:43:27.000Z</time>
      </trkpt>
      <trkpt lat="47.30935" lon="-1.47542">
        <ele>56</ele>
        <time>2021-04-22T10:43:29.000Z</time>
      </trkpt>
      <trkpt lat="47.30943" lon="-1.4753">
        <ele>56</ele>
        <time>2021-04-22T10:43:31.000Z</time>
      </trkpt>
      <trkpt lat="47.30953" lon="-1.47514">
        <ele>56</ele>
        <time>2021-04-22T10:43:33.000Z</time>
      </trkpt>
      <trkpt lat="47.30963" lon="-1.47501">
        <ele>57</ele>
        <time>2021-04-22T10:43:35.000Z</time>
      </trkpt>
      <trkpt lat="47.30972" lon="-1.47487">
        <ele>57</ele>
        <time>2021-04-22T10:43:37.000Z</time>
      </trkpt>
      <trkpt lat="47.3098" lon="-1.47472">
        <ele>56</ele>
        <time>2021-04-22T10:43:39.000Z</time>
      </trkpt>
      <trkpt lat="47.30989" lon="-1.4746">
        <ele>57</ele>
        <time>2021-04-22T10:43:41.000Z</time>
      </trkpt>
      <trkpt lat="47.30997" lon="-1.47447">
        <ele>58</ele>
        <time>2021-04-22T10:43:43.000Z</time>
      </trkpt>
      <trkpt lat="47.31005" lon="-1.47434">
        <ele>57</ele>
        <time>2021-04-22T10:43:45.000Z</time>
      </trkpt>
      <trkpt lat="47.31014" lon="-1.4742">
        <ele>58</ele>
        <time>2021-04-22T10:43:47.000Z</time>
      </trkpt>
      <trkpt lat="47.31022" lon="-1.47406">
        <ele>58</ele>
        <time>2021-04-22T10:43:49.000Z</time>
      </trkpt>
      <trkpt lat="47.31029" lon="-1.47393">
        <ele>58</ele>
        <time>2021-04-22T10:43:51.000Z</time>
      </trkpt>
      <trkpt lat="47.31038" lon="-1.47381">
        <ele>58</ele>
        <time>2021-04-22T10:43:53.000Z</time>
      </trkpt>
      <trkpt lat="47.31046" lon="-1.47369">
        <ele>58</ele>
        <time>2021-04-22T10:43:55.000Z</time>
      </trkpt>
      <trkpt lat="47.31053" lon="-1.47356">
        <ele>59</ele>
        <time>2021-04-22T10:43:57.000Z</time>
      </trkpt>
      <trkpt lat="47.31059" lon="-1.47342">
        <ele>59</ele>
        <time>2021-04-22T10:43:59.000Z</time>
      </trkpt>
      <trkpt lat="47.31066" lon="-1.47329">
        <ele>60</ele>
        <time>2021-04-22T10:44:01.000Z</time>
      </trkpt>
      <trkpt lat="47.31073" lon="-1.47316">
        <ele>61</ele>
        <time>2021-04-22T10:44:03.000Z</time>
      </trkpt>
      <trkpt lat="47.31079" lon="-1.47302">
        <ele>61</ele>
        <time>2021-04-22T10:44:05.000Z</time>
      </trkpt>
      <trkpt lat="47.31085" lon="-1.4729">
        <ele>61</ele>
        <time>2021-04-22T10:44:07.000Z</time>
      </trkpt>
      <trkpt lat="47.31093" lon="-1.47276">
        <ele>61</ele>
        <time>2021-04-22T10:44:10.000Z</time>
      </trkpt>
      <trkpt lat="47.31101" lon="-1.47267">
        <ele>61</ele>
        <time>2021-04-22T10:44:14.000Z</time>
      </trkpt>
      <trkpt lat="47.31111" lon="-1.4726">
        <ele>62</ele>
        <time>2021-04-22T10:44:17.000Z</time>
      </trkpt>
      <trkpt lat="47.31117" lon="-1.47249">
        <ele>61</ele>
        <time>2021-04-22T10:44:19.000Z</time>
      </trkpt>
      <trkpt lat="47.31124" lon="-1.47237">
        <ele>61</ele>
        <time>2021-04-22T10:44:21.000Z</time>
      </trkpt>
      <trkpt lat="47.3113" lon="-1.47225">
        <ele>61</ele>
        <time>2021-04-22T10:44:23.000Z</time>
      </trkpt>
      <trkpt lat="47.31137" lon="-1.47212">
        <ele>61</ele>
        <time>2021-04-22T10:44:26.000Z</time>
      </trkpt>
      <trkpt lat="47.31144" lon="-1.472">
        <ele>61</ele>
        <time>2021-04-22T10:44:29.000Z</time>
      </trkpt>
      <trkpt lat="47.31152" lon="-1.47185">
        <ele>61</ele>
        <time>2021-04-22T10:44:31.000Z</time>
      </trkpt>
      <trkpt lat="47.3116" lon="-1.47171">
        <ele>61</ele>
        <time>2021-04-22T10:44:33.000Z</time>
      </trkpt>
      <trkpt lat="47.31169" lon="-1.47158">
        <ele>61</ele>
        <time>2021-04-22T10:44:35.000Z</time>
      </trkpt>
      <trkpt lat="47.31177" lon="-1.47145">
        <ele>62</ele>
        <time>2021-04-22T10:44:37.000Z</time>
      </trkpt>
      <trkpt lat="47.31185" lon="-1.4713">
        <ele>62</ele>
        <time>2021-04-22T10:44:39.000Z</time>
      </trkpt>
      <trkpt lat="47.31192" lon="-1.47117">
        <ele>63</ele>
        <time>2021-04-22T10:44:41.000Z</time>
      </trkpt>
      <trkpt lat="47.312" lon="-1.47105">
        <ele>62</ele>
        <time>2021-04-22T10:44:43.000Z</time>
      </trkpt>
      <trkpt lat="47.31207" lon="-1.47092">
        <ele>62</ele>
        <time>2021-04-22T10:44:45.000Z</time>
      </trkpt>
      <trkpt lat="47.31215" lon="-1.47078">
        <ele>62</ele>
        <time>2021-04-22T10:44:47.000Z</time>
      </trkpt>
      <trkpt lat="47.31222" lon="-1.47066">
        <ele>63</ele>
        <time>2021-04-22T10:44:49.000Z</time>
      </trkpt>
      <trkpt lat="47.3123" lon="-1.47053">
        <ele>63</ele>
        <time>2021-04-22T10:44:51.000Z</time>
      </trkpt>
      <trkpt lat="47.31238" lon="-1.4704">
        <ele>63</ele>
        <time>2021-04-22T10:44:53.000Z</time>
      </trkpt>
      <trkpt lat="47.31245" lon="-1.47027">
        <ele>64</ele>
        <time>2021-04-22T10:44:55.000Z</time>
      </trkpt>
      <trkpt lat="47.31252" lon="-1.47014">
        <ele>64</ele>
        <time>2021-04-22T10:44:57.000Z</time>
      </trkpt>
      <trkpt lat="47.31259" lon="-1.47002">
        <ele>65</ele>
        <time>2021-04-22T10:44:59.000Z</time>
      </trkpt>
      <trkpt lat="47.31267" lon="-1.4699">
        <ele>65</ele>
        <time>2021-04-22T10:45:01.000Z</time>
      </trkpt>
      <trkpt lat="47.31274" lon="-1.46977">
        <ele>65</ele>
        <time>2021-04-22T10:45:03.000Z</time>
      </trkpt>
      <trkpt lat="47.31281" lon="-1.46964">
        <ele>65</ele>
        <time>2021-04-22T10:45:05.000Z</time>
      </trkpt>
      <trkpt lat="47.31288" lon="-1.46952">
        <ele>65</ele>
        <time>2021-04-22T10:45:07.000Z</time>
      </trkpt>
      <trkpt lat="47.31297" lon="-1.46939">
        <ele>65</ele>
        <time>2021-04-22T10:45:09.000Z</time>
      </trkpt>
      <trkpt lat="47.31305" lon="-1.46926">
        <ele>65</ele>
        <time>2021-04-22T10:45:11.000Z</time>
      </trkpt>
      <trkpt lat="47.31313" lon="-1.46913">
        <ele>65</ele>
        <time>2021-04-22T10:45:13.000Z</time>
      </trkpt>
      <trkpt lat="47.3132" lon="-1.469">
        <ele>65</ele>
        <time>2021-04-22T10:45:15.000Z</time>
      </trkpt>
      <trkpt lat="47.31328" lon="-1.46888">
        <ele>65</ele>
        <time>2021-04-22T10:45:17.000Z</time>
      </trkpt>
      <trkpt lat="47.31336" lon="-1.46875">
        <ele>65</ele>
        <time>2021-04-22T10:45:19.000Z</time>
      </trkpt>
      <trkpt lat="47.31343" lon="-1.46863">
        <ele>65</ele>
        <time>2021-04-22T10:45:21.000Z</time>
      </trkpt>
      <trkpt lat="47.3135" lon="-1.46851">
        <ele>65</ele>
        <time>2021-04-22T10:45:23.000Z</time>
      </trkpt>
      <trkpt lat="47.31358" lon="-1.46839">
        <ele>65</ele>
        <time>2021-04-22T10:45:25.000Z</time>
      </trkpt>
      <trkpt lat="47.31366" lon="-1.46827">
        <ele>65</ele>
        <time>2021-04-22T10:45:27.000Z</time>
      </trkpt>
      <trkpt lat="47.31373" lon="-1.46814">
        <ele>65</ele>
        <time>2021-04-22T10:45:29.000Z</time>
      </trkpt>
      <trkpt lat="47.3138" lon="-1.46803">
        <ele>64</ele>
        <time>2021-04-22T10:45:31.000Z</time>
      </trkpt>
      <trkpt lat="47.31388" lon="-1.4679">
        <ele>64</ele>
        <time>2021-04-22T10:45:33.000Z</time>
      </trkpt>
      <trkpt lat="47.31396" lon="-1.46778">
        <ele>64</ele>
        <time>2021-04-22T10:45:35.000Z</time>
      </trkpt>
      <trkpt lat="47.31403" lon="-1.46765">
        <ele>64</ele>
        <time>2021-04-22T10:45:37.000Z</time>
      </trkpt>
      <trkpt lat="47.31412" lon="-1.46753">
        <ele>64</ele>
        <time>2021-04-22T10:45:39.000Z</time>
      </trkpt>
      <trkpt lat="47.31419" lon="-1.46742">
        <ele>64</ele>
        <time>2021-04-22T10:45:41.000Z</time>
      </trkpt>
      <trkpt lat="47.31426" lon="-1.46731">
        <ele>63</ele>
        <time>2021-04-22T10:45:43.000Z</time>
      </trkpt>
      <trkpt lat="47.31433" lon="-1.46719">
        <ele>64</ele>
        <time>2021-04-22T10:45:45.000Z</time>
      </trkpt>
      <trkpt lat="47.3144" lon="-1.46706">
        <ele>63</ele>
        <time>2021-04-22T10:45:47.000Z</time>
      </trkpt>
      <trkpt lat="47.31449" lon="-1.46694">
        <ele>63</ele>
        <time>2021-04-22T10:45:49.000Z</time>
      </trkpt>
      <trkpt lat="47.31457" lon="-1.46681">
        <ele>63</ele>
        <time>2021-04-22T10:45:51.000Z</time>
      </trkpt>
      <trkpt lat="47.31466" lon="-1.46668">
        <ele>64</ele>
        <time>2021-04-22T10:45:53.000Z</time>
      </trkpt>
      <trkpt lat="47.31473" lon="-1.46656">
        <ele>64</ele>
        <time>2021-04-22T10:45:55.000Z</time>
      </trkpt>
      <trkpt lat="47.31481" lon="-1.46643">
        <ele>64</ele>
        <time>2021-04-22T10:45:57.000Z</time>
      </trkpt>
      <trkpt lat="47.31488" lon="-1.46629">
        <ele>64</ele>
        <time>2021-04-22T10:45:59.000Z</time>
      </trkpt>
      <trkpt lat="47.31495" lon="-1.46616">
        <ele>63</ele>
        <time>2021-04-22T10:46:01.000Z</time>
      </trkpt>
      <trkpt lat="47.31503" lon="-1.46602">
        <ele>64</ele>
        <time>2021-04-22T10:46:03.000Z</time>
      </trkpt>
      <trkpt lat="47.3151" lon="-1.46589">
        <ele>65</ele>
        <time>2021-04-22T10:46:05.000Z</time>
      </trkpt>
      <trkpt lat="47.31517" lon="-1.46576">
        <ele>65</ele>
        <time>2021-04-22T10:46:07.000Z</time>
      </trkpt>
      <trkpt lat="47.31524" lon="-1.46564">
        <ele>66</ele>
        <time>2021-04-22T10:46:09.000Z</time>
      </trkpt>
      <trkpt lat="47.31532" lon="-1.46551">
        <ele>66</ele>
        <time>2021-04-22T10:46:11.000Z</time>
      </trkpt>
      <trkpt lat="47.3154" lon="-1.4654">
        <ele>66</ele>
        <time>2021-04-22T10:46:13.000Z</time>
      </trkpt>
      <trkpt lat="47.31547" lon="-1.46528">
        <ele>66</ele>
        <time>2021-04-22T10:46:15.000Z</time>
      </trkpt>
      <trkpt lat="47.31555" lon="-1.46515">
        <ele>67</ele>
        <time>2021-04-22T10:46:17.000Z</time>
      </trkpt>
      <trkpt lat="47.31562" lon="-1.46502">
        <ele>67</ele>
        <time>2021-04-22T10:46:19.000Z</time>
      </trkpt>
      <trkpt lat="47.31569" lon="-1.46489">
        <ele>68</ele>
        <time>2021-04-22T10:46:21.000Z</time>
      </trkpt>
      <trkpt lat="47.31577" lon="-1.46476">
        <ele>68</ele>
        <time>2021-04-22T10:46:23.000Z</time>
      </trkpt>
      <trkpt lat="47.31584" lon="-1.46463">
        <ele>68</ele>
        <time>2021-04-22T10:46:25.000Z</time>
      </trkpt>
      <trkpt lat="47.31592" lon="-1.46451">
        <ele>68</ele>
        <time>2021-04-22T10:46:27.000Z</time>
      </trkpt>
      <trkpt lat="47.31601" lon="-1.46439">
        <ele>69</ele>
        <time>2021-04-22T10:46:29.000Z</time>
      </trkpt>
      <trkpt lat="47.31609" lon="-1.46426">
        <ele>69</ele>
        <time>2021-04-22T10:46:31.000Z</time>
      </trkpt>
      <trkpt lat="47.31617" lon="-1.46413">
        <ele>69</ele>
        <time>2021-04-22T10:46:33.000Z</time>
      </trkpt>
      <trkpt lat="47.31625" lon="-1.46401">
        <ele>69</ele>
        <time>2021-04-22T10:46:35.000Z</time>
      </trkpt>
      <trkpt lat="47.31634" lon="-1.46388">
        <ele>70</ele>
        <time>2021-04-22T10:46:37.000Z</time>
      </trkpt>
      <trkpt lat="47.31642" lon="-1.46377">
        <ele>69</ele>
        <time>2021-04-22T10:46:39.000Z</time>
      </trkpt>
      <trkpt lat="47.3165" lon="-1.46366">
        <ele>70</ele>
        <time>2021-04-22T10:46:41.000Z</time>
      </trkpt>
      <trkpt lat="47.31659" lon="-1.46355">
        <ele>70</ele>
        <time>2021-04-22T10:46:43.000Z</time>
      </trkpt>
      <trkpt lat="47.31668" lon="-1.46345">
        <ele>70</ele>
        <time>2021-04-22T10:46:45.000Z</time>
      </trkpt>
      <trkpt lat="47.31678" lon="-1.46335">
        <ele>70</ele>
        <time>2021-04-22T10:46:47.000Z</time>
      </trkpt>
      <trkpt lat="47.31688" lon="-1.46326">
        <ele>71</ele>
        <time>2021-04-22T10:46:49.000Z</time>
      </trkpt>
      <trkpt lat="47.31697" lon="-1.46316">
        <ele>71</ele>
        <time>2021-04-22T10:46:51.000Z</time>
      </trkpt>
      <trkpt lat="47.31706" lon="-1.46307">
        <ele>72</ele>
        <time>2021-04-22T10:46:53.000Z</time>
      </trkpt>
      <trkpt lat="47.31715" lon="-1.46296">
        <ele>72</ele>
        <time>2021-04-22T10:46:55.000Z</time>
      </trkpt>
      <trkpt lat="47.31724" lon="-1.46287">
        <ele>72</ele>
        <time>2021-04-22T10:46:57.000Z</time>
      </trkpt>
      <trkpt lat="47.31732" lon="-1.46278">
        <ele>72</ele>
        <time>2021-04-22T10:46:59.000Z</time>
      </trkpt>
      <trkpt lat="47.31741" lon="-1.4627">
        <ele>72</ele>
        <time>2021-04-22T10:47:01.000Z</time>
      </trkpt>
      <trkpt lat="47.31751" lon="-1.46262">
        <ele>72</ele>
        <time>2021-04-22T10:47:03.000Z</time>
      </trkpt>
      <trkpt lat="47.3176" lon="-1.46256">
        <ele>73</ele>
        <time>2021-04-22T10:47:05.000Z</time>
      </trkpt>
      <trkpt lat="47.3177" lon="-1.46249">
        <ele>73</ele>
        <time>2021-04-22T10:47:07.000Z</time>
      </trkpt>
      <trkpt lat="47.3178" lon="-1.46243">
        <ele>73</ele>
        <time>2021-04-22T10:47:09.000Z</time>
      </trkpt>
      <trkpt lat="47.31791" lon="-1.46236">
        <ele>73</ele>
        <time>2021-04-22T10:47:11.000Z</time>
      </trkpt>
      <trkpt lat="47.318" lon="-1.46229">
        <ele>73</ele>
        <time>2021-04-22T10:47:13.000Z</time>
      </trkpt>
      <trkpt lat="47.3181" lon="-1.46223">
        <ele>74</ele>
        <time>2021-04-22T10:47:15.000Z</time>
      </trkpt>
      <trkpt lat="47.3182" lon="-1.46216">
        <ele>73</ele>
        <time>2021-04-22T10:47:17.000Z</time>
      </trkpt>
      <trkpt lat="47.31832" lon="-1.46211">
        <ele>73</ele>
        <time>2021-04-22T10:47:19.000Z</time>
      </trkpt>
      <trkpt lat="47.31843" lon="-1.46207">
        <ele>73</ele>
        <time>2021-04-22T10:47:21.000Z</time>
      </trkpt>
      <trkpt lat="47.31854" lon="-1.46202">
        <ele>73</ele>
        <time>2021-04-22T10:47:23.000Z</time>
      </trkpt>
      <trkpt lat="47.31865" lon="-1.46197">
        <ele>73</ele>
        <time>2021-04-22T10:47:25.000Z</time>
      </trkpt>
      <trkpt lat="47.31875" lon="-1.46193">
        <ele>73</ele>
        <time>2021-04-22T10:47:27.000Z</time>
      </trkpt>
      <trkpt lat="47.31886" lon="-1.46188">
        <ele>73</ele>
        <time>2021-04-22T10:47:29.000Z</time>
      </trkpt>
      <trkpt lat="47.31896" lon="-1.46183">
        <ele>73</ele>
        <time>2021-04-22T10:47:31.000Z</time>
      </trkpt>
      <trkpt lat="47.31907" lon="-1.4618">
        <ele>73</ele>
        <time>2021-04-22T10:47:33.000Z</time>
      </trkpt>
      <trkpt lat="47.31915" lon="-1.46176">
        <ele>73</ele>
        <time>2021-04-22T10:47:35.000Z</time>
      </trkpt>
      <trkpt lat="47.31927" lon="-1.46171">
        <ele>73</ele>
        <time>2021-04-22T10:47:38.000Z</time>
      </trkpt>
      <trkpt lat="47.31936" lon="-1.46169">
        <ele>73</ele>
        <time>2021-04-22T10:47:40.000Z</time>
      </trkpt>
      <trkpt lat="47.31946" lon="-1.46167">
        <ele>73</ele>
        <time>2021-04-22T10:47:42.000Z</time>
      </trkpt>
      <trkpt lat="47.31958" lon="-1.46161">
        <ele>74</ele>
        <time>2021-04-22T10:47:45.000Z</time>
      </trkpt>
      <trkpt lat="47.31968" lon="-1.46155">
        <ele>74</ele>
        <time>2021-04-22T10:47:48.000Z</time>
      </trkpt>
      <trkpt lat="47.31978" lon="-1.46155">
        <ele>74</ele>
        <time>2021-04-22T10:47:51.000Z</time>
      </trkpt>
      <trkpt lat="47.31988" lon="-1.46154">
        <ele>75</ele>
        <time>2021-04-22T10:47:53.000Z</time>
      </trkpt>
      <trkpt lat="47.31998" lon="-1.46152">
        <ele>75</ele>
        <time>2021-04-22T10:47:55.000Z</time>
      </trkpt>
      <trkpt lat="47.3201" lon="-1.4615">
        <ele>76</ele>
        <time>2021-04-22T10:47:57.000Z</time>
      </trkpt>
      <trkpt lat="47.32021" lon="-1.46148">
        <ele>77</ele>
        <time>2021-04-22T10:47:59.000Z</time>
      </trkpt>
      <trkpt lat="47.32033" lon="-1.46148">
        <ele>77</ele>
        <time>2021-04-22T10:48:01.000Z</time>
      </trkpt>
      <trkpt lat="47.32044" lon="-1.46148">
        <ele>77</ele>
        <time>2021-04-22T10:48:03.000Z</time>
      </trkpt>
      <trkpt lat="47.32056" lon="-1.46149">
        <ele>77</ele>
        <time>2021-04-22T10:48:05.000Z</time>
      </trkpt>
      <trkpt lat="47.32068" lon="-1.46149">
        <ele>77</ele>
        <time>2021-04-22T10:48:07.000Z</time>
      </trkpt>
      <trkpt lat="47.32079" lon="-1.46148">
        <ele>77</ele>
        <time>2021-04-22T10:48:09.000Z</time>
      </trkpt>
      <trkpt lat="47.32092" lon="-1.46149">
        <ele>78</ele>
        <time>2021-04-22T10:48:11.000Z</time>
      </trkpt>
      <trkpt lat="47.32103" lon="-1.4615">
        <ele>79</ele>
        <time>2021-04-22T10:48:13.000Z</time>
      </trkpt>
      <trkpt lat="47.32115" lon="-1.46153">
        <ele>78</ele>
        <time>2021-04-22T10:48:15.000Z</time>
      </trkpt>
      <trkpt lat="47.32127" lon="-1.46156">
        <ele>78</ele>
        <time>2021-04-22T10:48:17.000Z</time>
      </trkpt>
      <trkpt lat="47.32138" lon="-1.46158">
        <ele>78</ele>
        <time>2021-04-22T10:48:19.000Z</time>
      </trkpt>
      <trkpt lat="47.32149" lon="-1.4616">
        <ele>79</ele>
        <time>2021-04-22T10:48:21.000Z</time>
      </trkpt>
      <trkpt lat="47.3216" lon="-1.46162">
        <ele>79</ele>
        <time>2021-04-22T10:48:23.000Z</time>
      </trkpt>
      <trkpt lat="47.32172" lon="-1.46163">
        <ele>79</ele>
        <time>2021-04-22T10:48:25.000Z</time>
      </trkpt>
      <trkpt lat="47.32183" lon="-1.46164">
        <ele>79</ele>
        <time>2021-04-22T10:48:27.000Z</time>
      </trkpt>
      <trkpt lat="47.32195" lon="-1.46164">
        <ele>80</ele>
        <time>2021-04-22T10:48:29.000Z</time>
      </trkpt>
      <trkpt lat="47.32205" lon="-1.46165">
        <ele>80</ele>
        <time>2021-04-22T10:48:31.000Z</time>
      </trkpt>
      <trkpt lat="47.32215" lon="-1.46166">
        <ele>81</ele>
        <time>2021-04-22T10:48:33.000Z</time>
      </trkpt>
      <trkpt lat="47.32226" lon="-1.46166">
        <ele>80</ele>
        <time>2021-04-22T10:48:35.000Z</time>
      </trkpt>
      <trkpt lat="47.32237" lon="-1.46167">
        <ele>81</ele>
        <time>2021-04-22T10:48:37.000Z</time>
      </trkpt>
      <trkpt lat="47.32249" lon="-1.4617">
        <ele>80</ele>
        <time>2021-04-22T10:48:39.000Z</time>
      </trkpt>
      <trkpt lat="47.3226" lon="-1.46173">
        <ele>80</ele>
        <time>2021-04-22T10:48:41.000Z</time>
      </trkpt>
      <trkpt lat="47.3227" lon="-1.46174">
        <ele>80</ele>
        <time>2021-04-22T10:48:43.000Z</time>
      </trkpt>
      <trkpt lat="47.32281" lon="-1.46175">
        <ele>80</ele>
        <time>2021-04-22T10:48:45.000Z</time>
      </trkpt>
      <trkpt lat="47.32292" lon="-1.46176">
        <ele>80</ele>
        <time>2021-04-22T10:48:47.000Z</time>
      </trkpt>
      <trkpt lat="47.32302" lon="-1.46178">
        <ele>81</ele>
        <time>2021-04-22T10:48:49.000Z</time>
      </trkpt>
      <trkpt lat="47.32314" lon="-1.46179">
        <ele>81</ele>
        <time>2021-04-22T10:48:51.000Z</time>
      </trkpt>
      <trkpt lat="47.32327" lon="-1.46181">
        <ele>81</ele>
        <time>2021-04-22T10:48:53.000Z</time>
      </trkpt>
      <trkpt lat="47.32338" lon="-1.46182">
        <ele>81</ele>
        <time>2021-04-22T10:48:55.000Z</time>
      </trkpt>
      <trkpt lat="47.3235" lon="-1.46184">
        <ele>82</ele>
        <time>2021-04-22T10:48:57.000Z</time>
      </trkpt>
      <trkpt lat="47.32361" lon="-1.46185">
        <ele>82</ele>
        <time>2021-04-22T10:48:59.000Z</time>
      </trkpt>
      <trkpt lat="47.32373" lon="-1.46187">
        <ele>82</ele>
        <time>2021-04-22T10:49:01.000Z</time>
      </trkpt>
      <trkpt lat="47.32385" lon="-1.46188">
        <ele>82</ele>
        <time>2021-04-22T10:49:03.000Z</time>
      </trkpt>
      <trkpt lat="47.32397" lon="-1.46189">
        <ele>83</ele>
        <time>2021-04-22T10:49:05.000Z</time>
      </trkpt>
      <trkpt lat="47.32409" lon="-1.46189">
        <ele>83</ele>
        <time>2021-04-22T10:49:07.000Z</time>
      </trkpt>
      <trkpt lat="47.3242" lon="-1.46189">
        <ele>84</ele>
        <time>2021-04-22T10:49:09.000Z</time>
      </trkpt>
      <trkpt lat="47.32432" lon="-1.46189">
        <ele>84</ele>
        <time>2021-04-22T10:49:11.000Z</time>
      </trkpt>
      <trkpt lat="47.32443" lon="-1.46189">
        <ele>83</ele>
        <time>2021-04-22T10:49:13.000Z</time>
      </trkpt>
      <trkpt lat="47.32454" lon="-1.46189">
        <ele>83</ele>
        <time>2021-04-22T10:49:15.000Z</time>
      </trkpt>
      <trkpt lat="47.32466" lon="-1.46188">
        <ele>84</ele>
        <time>2021-04-22T10:49:17.000Z</time>
      </trkpt>
      <trkpt lat="47.32477" lon="-1.46186">
        <ele>84</ele>
        <time>2021-04-22T10:49:19.000Z</time>
      </trkpt>
      <trkpt lat="47.32488" lon="-1.46185">
        <ele>84</ele>
        <time>2021-04-22T10:49:21.000Z</time>
      </trkpt>
      <trkpt lat="47.32499" lon="-1.46184">
        <ele>84</ele>
        <time>2021-04-22T10:49:23.000Z</time>
      </trkpt>
      <trkpt lat="47.3251" lon="-1.46181">
        <ele>83</ele>
        <time>2021-04-22T10:49:25.000Z</time>
      </trkpt>
      <trkpt lat="47.32522" lon="-1.46179">
        <ele>82</ele>
        <time>2021-04-22T10:49:27.000Z</time>
      </trkpt>
      <trkpt lat="47.32532" lon="-1.46177">
        <ele>82</ele>
        <time>2021-04-22T10:49:29.000Z</time>
      </trkpt>
      <trkpt lat="47.32542" lon="-1.46175">
        <ele>83</ele>
        <time>2021-04-22T10:49:31.000Z</time>
      </trkpt>
      <trkpt lat="47.32552" lon="-1.46172">
        <ele>83</ele>
        <time>2021-04-22T10:49:33.000Z</time>
      </trkpt>
      <trkpt lat="47.32563" lon="-1.46169">
        <ele>82</ele>
        <time>2021-04-22T10:49:35.000Z</time>
      </trkpt>
      <trkpt lat="47.32573" lon="-1.46167">
        <ele>83</ele>
        <time>2021-04-22T10:49:37.000Z</time>
      </trkpt>
      <trkpt lat="47.32584" lon="-1.46163">
        <ele>83</ele>
        <time>2021-04-22T10:49:39.000Z</time>
      </trkpt>
      <trkpt lat="47.32595" lon="-1.4616">
        <ele>84</ele>
        <time>2021-04-22T10:49:41.000Z</time>
      </trkpt>
      <trkpt lat="47.32607" lon="-1.46156">
        <ele>84</ele>
        <time>2021-04-22T10:49:43.000Z</time>
      </trkpt>
      <trkpt lat="47.32619" lon="-1.46153">
        <ele>85</ele>
        <time>2021-04-22T10:49:45.000Z</time>
      </trkpt>
      <trkpt lat="47.3263" lon="-1.4615">
        <ele>85</ele>
        <time>2021-04-22T10:49:47.000Z</time>
      </trkpt>
      <trkpt lat="47.32641" lon="-1.46146">
        <ele>85</ele>
        <time>2021-04-22T10:49:49.000Z</time>
      </trkpt>
      <trkpt lat="47.32652" lon="-1.46143">
        <ele>84</ele>
        <time>2021-04-22T10:49:51.000Z</time>
      </trkpt>
      <trkpt lat="47.32664" lon="-1.46138">
        <ele>84</ele>
        <time>2021-04-22T10:49:53.000Z</time>
      </trkpt>
      <trkpt lat="47.32676" lon="-1.46133">
        <ele>85</ele>
        <time>2021-04-22T10:49:55.000Z</time>
      </trkpt>
      <trkpt lat="47.32688" lon="-1.46129">
        <ele>85</ele>
        <time>2021-04-22T10:49:57.000Z</time>
      </trkpt>
      <trkpt lat="47.32699" lon="-1.46125">
        <ele>85</ele>
        <time>2021-04-22T10:49:59.000Z</time>
      </trkpt>
      <trkpt lat="47.32711" lon="-1.4612">
        <ele>85</ele>
        <time>2021-04-22T10:50:01.000Z</time>
      </trkpt>
      <trkpt lat="47.32722" lon="-1.46116">
        <ele>85</ele>
        <time>2021-04-22T10:50:03.000Z</time>
      </trkpt>
      <trkpt lat="47.32732" lon="-1.46112">
        <ele>85</ele>
        <time>2021-04-22T10:50:05.000Z</time>
      </trkpt>
      <trkpt lat="47.32741" lon="-1.46109">
        <ele>85</ele>
        <time>2021-04-22T10:50:07.000Z</time>
      </trkpt>
      <trkpt lat="47.32752" lon="-1.46108">
        <ele>85</ele>
        <time>2021-04-22T10:50:10.000Z</time>
      </trkpt>
      <trkpt lat="47.32761" lon="-1.46101">
        <ele>85</ele>
        <time>2021-04-22T10:50:14.000Z</time>
      </trkpt>
      <trkpt lat="47.32772" lon="-1.46096">
        <ele>86</ele>
        <time>2021-04-22T10:50:17.000Z</time>
      </trkpt>
      <trkpt lat="47.32781" lon="-1.46094">
        <ele>85</ele>
        <time>2021-04-22T10:50:19.000Z</time>
      </trkpt>
      <trkpt lat="47.32792" lon="-1.46091">
        <ele>85</ele>
        <time>2021-04-22T10:50:21.000Z</time>
      </trkpt>
      <trkpt lat="47.32803" lon="-1.46087">
        <ele>84</ele>
        <time>2021-04-22T10:50:23.000Z</time>
      </trkpt>
      <trkpt lat="47.32814" lon="-1.46082">
        <ele>84</ele>
        <time>2021-04-22T10:50:25.000Z</time>
      </trkpt>
      <trkpt lat="47.32825" lon="-1.46077">
        <ele>85</ele>
        <time>2021-04-22T10:50:27.000Z</time>
      </trkpt>
      <trkpt lat="47.32835" lon="-1.46073">
        <ele>86</ele>
        <time>2021-04-22T10:50:29.000Z</time>
      </trkpt>
      <trkpt lat="47.32845" lon="-1.46068">
        <ele>86</ele>
        <time>2021-04-22T10:50:31.000Z</time>
      </trkpt>
      <trkpt lat="47.32856" lon="-1.46064">
        <ele>86</ele>
        <time>2021-04-22T10:50:33.000Z</time>
      </trkpt>
      <trkpt lat="47.32867" lon="-1.4606">
        <ele>86</ele>
        <time>2021-04-22T10:50:35.000Z</time>
      </trkpt>
      <trkpt lat="47.32878" lon="-1.46055">
        <ele>86</ele>
        <time>2021-04-22T10:50:37.000Z</time>
      </trkpt>
      <trkpt lat="47.32889" lon="-1.4605">
        <ele>87</ele>
        <time>2021-04-22T10:50:39.000Z</time>
      </trkpt>
      <trkpt lat="47.32899" lon="-1.46045">
        <ele>87</ele>
        <time>2021-04-22T10:50:41.000Z</time>
      </trkpt>
      <trkpt lat="47.3291" lon="-1.4604">
        <ele>87</ele>
        <time>2021-04-22T10:50:43.000Z</time>
      </trkpt>
      <trkpt lat="47.32921" lon="-1.46037">
        <ele>88</ele>
        <time>2021-04-22T10:50:45.000Z</time>
      </trkpt>
      <trkpt lat="47.32933" lon="-1.46033">
        <ele>88</ele>
        <time>2021-04-22T10:50:47.000Z</time>
      </trkpt>
      <trkpt lat="47.32944" lon="-1.46029">
        <ele>88</ele>
        <time>2021-04-22T10:50:49.000Z</time>
      </trkpt>
      <trkpt lat="47.32955" lon="-1.46025">
        <ele>88</ele>
        <time>2021-04-22T10:50:51.000Z</time>
      </trkpt>
      <trkpt lat="47.32966" lon="-1.4602">
        <ele>88</ele>
        <time>2021-04-22T10:50:53.000Z</time>
      </trkpt>
      <trkpt lat="47.32976" lon="-1.46015">
        <ele>87</ele>
        <time>2021-04-22T10:50:55.000Z</time>
      </trkpt>
      <trkpt lat="47.32987" lon="-1.46011">
        <ele>88</ele>
        <time>2021-04-22T10:50:57.000Z</time>
      </trkpt>
      <trkpt lat="47.32999" lon="-1.46007">
        <ele>87</ele>
        <time>2021-04-22T10:50:59.000Z</time>
      </trkpt>
      <trkpt lat="47.33009" lon="-1.46002">
        <ele>88</ele>
        <time>2021-04-22T10:51:01.000Z</time>
      </trkpt>
      <trkpt lat="47.33018" lon="-1.45998">
        <ele>88</ele>
        <time>2021-04-22T10:51:03.000Z</time>
      </trkpt>
      <trkpt lat="47.33027" lon="-1.45992">
        <ele>87</ele>
        <time>2021-04-22T10:51:06.000Z</time>
      </trkpt>
      <trkpt lat="47.33037" lon="-1.45985">
        <ele>89</ele>
        <time>2021-04-22T10:51:09.000Z</time>
      </trkpt>
      <trkpt lat="47.3305" lon="-1.45984">
        <ele>89</ele>
        <time>2021-04-22T10:51:12.000Z</time>
      </trkpt>
      <trkpt lat="47.33061" lon="-1.45978">
        <ele>90</ele>
        <time>2021-04-22T10:51:14.000Z</time>
      </trkpt>
      <trkpt lat="47.33074" lon="-1.45973">
        <ele>89</ele>
        <time>2021-04-22T10:51:16.000Z</time>
      </trkpt>
      <trkpt lat="47.33085" lon="-1.45968">
        <ele>89</ele>
        <time>2021-04-22T10:51:18.000Z</time>
      </trkpt>
      <trkpt lat="47.33097" lon="-1.45965">
        <ele>89</ele>
        <time>2021-04-22T10:51:20.000Z</time>
      </trkpt>
      <trkpt lat="47.33108" lon="-1.45961">
        <ele>90</ele>
        <time>2021-04-22T10:51:22.000Z</time>
      </trkpt>
      <trkpt lat="47.33119" lon="-1.45956">
        <ele>90</ele>
        <time>2021-04-22T10:51:24.000Z</time>
      </trkpt>
      <trkpt lat="47.3313" lon="-1.45951">
        <ele>90</ele>
        <time>2021-04-22T10:51:26.000Z</time>
      </trkpt>
      <trkpt lat="47.33141" lon="-1.45946">
        <ele>91</ele>
        <time>2021-04-22T10:51:28.000Z</time>
      </trkpt>
      <trkpt lat="47.33152" lon="-1.45941">
        <ele>91</ele>
        <time>2021-04-22T10:51:30.000Z</time>
      </trkpt>
      <trkpt lat="47.33163" lon="-1.45936">
        <ele>91</ele>
        <time>2021-04-22T10:51:32.000Z</time>
      </trkpt>
      <trkpt lat="47.33174" lon="-1.45929">
        <ele>92</ele>
        <time>2021-04-22T10:51:34.000Z</time>
      </trkpt>
      <trkpt lat="47.33184" lon="-1.45923">
        <ele>93</ele>
        <time>2021-04-22T10:51:36.000Z</time>
      </trkpt>
      <trkpt lat="47.33195" lon="-1.45917">
        <ele>92</ele>
        <time>2021-04-22T10:51:38.000Z</time>
      </trkpt>
      <trkpt lat="47.33206" lon="-1.45911">
        <ele>92</ele>
        <time>2021-04-22T10:51:40.000Z</time>
      </trkpt>
      <trkpt lat="47.33217" lon="-1.45906">
        <ele>91</ele>
        <time>2021-04-22T10:51:42.000Z</time>
      </trkpt>
      <trkpt lat="47.33227" lon="-1.45899">
        <ele>91</ele>
        <time>2021-04-22T10:51:44.000Z</time>
      </trkpt>
      <trkpt lat="47.33238" lon="-1.45892">
        <ele>91</ele>
        <time>2021-04-22T10:51:46.000Z</time>
      </trkpt>
      <trkpt lat="47.3325" lon="-1.45886">
        <ele>91</ele>
        <time>2021-04-22T10:51:48.000Z</time>
      </trkpt>
      <trkpt lat="47.3326" lon="-1.45879">
        <ele>91</ele>
        <time>2021-04-22T10:51:50.000Z</time>
      </trkpt>
      <trkpt lat="47.33271" lon="-1.45871">
        <ele>91</ele>
        <time>2021-04-22T10:51:52.000Z</time>
      </trkpt>
      <trkpt lat="47.33282" lon="-1.45863">
        <ele>91</ele>
        <time>2021-04-22T10:51:54.000Z</time>
      </trkpt>
      <trkpt lat="47.33293" lon="-1.45854">
        <ele>91</ele>
        <time>2021-04-22T10:51:56.000Z</time>
      </trkpt>
      <trkpt lat="47.33304" lon="-1.45845">
        <ele>91</ele>
        <time>2021-04-22T10:51:58.000Z</time>
      </trkpt>
      <trkpt lat="47.33315" lon="-1.45836">
        <ele>91</ele>
        <time>2021-04-22T10:52:00.000Z</time>
      </trkpt>
      <trkpt lat="47.33326" lon="-1.45828">
        <ele>92</ele>
        <time>2021-04-22T10:52:02.000Z</time>
      </trkpt>
      <trkpt lat="47.33337" lon="-1.4582">
        <ele>92</ele>
        <time>2021-04-22T10:52:04.000Z</time>
      </trkpt>
      <trkpt lat="47.33347" lon="-1.45811">
        <ele>92</ele>
        <time>2021-04-22T10:52:06.000Z</time>
      </trkpt>
      <trkpt lat="47.33358" lon="-1.45802">
        <ele>91</ele>
        <time>2021-04-22T10:52:08.000Z</time>
      </trkpt>
      <trkpt lat="47.33368" lon="-1.45792">
        <ele>91</ele>
        <time>2021-04-22T10:52:10.000Z</time>
      </trkpt>
      <trkpt lat="47.33378" lon="-1.45783">
        <ele>90</ele>
        <time>2021-04-22T10:52:12.000Z</time>
      </trkpt>
      <trkpt lat="47.33388" lon="-1.45772">
        <ele>90</ele>
        <time>2021-04-22T10:52:14.000Z</time>
      </trkpt>
      <trkpt lat="47.33398" lon="-1.45763">
        <ele>90</ele>
        <time>2021-04-22T10:52:16.000Z</time>
      </trkpt>
      <trkpt lat="47.33407" lon="-1.45752">
        <ele>91</ele>
        <time>2021-04-22T10:52:18.000Z</time>
      </trkpt>
      <trkpt lat="47.33416" lon="-1.45741">
        <ele>92</ele>
        <time>2021-04-22T10:52:20.000Z</time>
      </trkpt>
      <trkpt lat="47.33425" lon="-1.45731">
        <ele>92</ele>
        <time>2021-04-22T10:52:22.000Z</time>
      </trkpt>
      <trkpt lat="47.33434" lon="-1.45721">
        <ele>93</ele>
        <time>2021-04-22T10:52:24.000Z</time>
      </trkpt>
      <trkpt lat="47.33443" lon="-1.45709">
        <ele>94</ele>
        <time>2021-04-22T10:52:26.000Z</time>
      </trkpt>
      <trkpt lat="47.33452" lon="-1.45697">
        <ele>94</ele>
        <time>2021-04-22T10:52:28.000Z</time>
      </trkpt>
      <trkpt lat="47.33461" lon="-1.45685">
        <ele>95</ele>
        <time>2021-04-22T10:52:30.000Z</time>
      </trkpt>
      <trkpt lat="47.3347" lon="-1.45674">
        <ele>95</ele>
        <time>2021-04-22T10:52:32.000Z</time>
      </trkpt>
      <trkpt lat="47.33478" lon="-1.45663">
        <ele>95</ele>
        <time>2021-04-22T10:52:34.000Z</time>
      </trkpt>
      <trkpt lat="47.33486" lon="-1.4565">
        <ele>95</ele>
        <time>2021-04-22T10:52:36.000Z</time>
      </trkpt>
      <trkpt lat="47.33495" lon="-1.45638">
        <ele>94</ele>
        <time>2021-04-22T10:52:38.000Z</time>
      </trkpt>
      <trkpt lat="47.33504" lon="-1.45627">
        <ele>95</ele>
        <time>2021-04-22T10:52:40.000Z</time>
      </trkpt>
      <trkpt lat="47.33512" lon="-1.45616">
        <ele>95</ele>
        <time>2021-04-22T10:52:42.000Z</time>
      </trkpt>
      <trkpt lat="47.3352" lon="-1.45606">
        <ele>95</ele>
        <time>2021-04-22T10:52:44.000Z</time>
      </trkpt>
      <trkpt lat="47.33528" lon="-1.45595">
        <ele>95</ele>
        <time>2021-04-22T10:52:46.000Z</time>
      </trkpt>
      <trkpt lat="47.33536" lon="-1.45584">
        <ele>95</ele>
        <time>2021-04-22T10:52:48.000Z</time>
      </trkpt>
      <trkpt lat="47.33544" lon="-1.45573">
        <ele>94</ele>
        <time>2021-04-22T10:52:50.000Z</time>
      </trkpt>
      <trkpt lat="47.33553" lon="-1.45561">
        <ele>95</ele>
        <time>2021-04-22T10:52:52.000Z</time>
      </trkpt>
      <trkpt lat="47.33561" lon="-1.45548">
        <ele>96</ele>
        <time>2021-04-22T10:52:54.000Z</time>
      </trkpt>
      <trkpt lat="47.3357" lon="-1.45537">
        <ele>95</ele>
        <time>2021-04-22T10:52:56.000Z</time>
      </trkpt>
      <trkpt lat="47.33579" lon="-1.45526">
        <ele>96</ele>
        <time>2021-04-22T10:52:58.000Z</time>
      </trkpt>
      <trkpt lat="47.33587" lon="-1.45514">
        <ele>96</ele>
        <time>2021-04-22T10:53:00.000Z</time>
      </trkpt>
      <trkpt lat="47.33597" lon="-1.45501">
        <ele>97</ele>
        <time>2021-04-22T10:53:02.000Z</time>
      </trkpt>
      <trkpt lat="47.33606" lon="-1.4549">
        <ele>97</ele>
        <time>2021-04-22T10:53:04.000Z</time>
      </trkpt>
      <trkpt lat="47.33614" lon="-1.45479">
        <ele>97</ele>
        <time>2021-04-22T10:53:06.000Z</time>
      </trkpt>
      <trkpt lat="47.33622" lon="-1.45466">
        <ele>98</ele>
        <time>2021-04-22T10:53:08.000Z</time>
      </trkpt>
      <trkpt lat="47.3363" lon="-1.45455">
        <ele>98</ele>
        <time>2021-04-22T10:53:10.000Z</time>
      </trkpt>
      <trkpt lat="47.33639" lon="-1.45444">
        <ele>99</ele>
        <time>2021-04-22T10:53:12.000Z</time>
      </trkpt>
      <trkpt lat="47.33647" lon="-1.45431">
        <ele>99</ele>
        <time>2021-04-22T10:53:14.000Z</time>
      </trkpt>
      <trkpt lat="47.33655" lon="-1.4542">
        <ele>99</ele>
        <time>2021-04-22T10:53:16.000Z</time>
      </trkpt>
      <trkpt lat="47.33664" lon="-1.45408">
        <ele>100</ele>
        <time>2021-04-22T10:53:18.000Z</time>
      </trkpt>
      <trkpt lat="47.33673" lon="-1.45395">
        <ele>100</ele>
        <time>2021-04-22T10:53:20.000Z</time>
      </trkpt>
      <trkpt lat="47.33681" lon="-1.45383">
        <ele>100</ele>
        <time>2021-04-22T10:53:22.000Z</time>
      </trkpt>
      <trkpt lat="47.3369" lon="-1.45372">
        <ele>100</ele>
        <time>2021-04-22T10:53:24.000Z</time>
      </trkpt>
      <trkpt lat="47.33698" lon="-1.4536">
        <ele>100</ele>
        <time>2021-04-22T10:53:26.000Z</time>
      </trkpt>
      <trkpt lat="47.33707" lon="-1.45348">
        <ele>100</ele>
        <time>2021-04-22T10:53:28.000Z</time>
      </trkpt>
      <trkpt lat="47.33715" lon="-1.45336">
        <ele>100</ele>
        <time>2021-04-22T10:53:30.000Z</time>
      </trkpt>
      <trkpt lat="47.33724" lon="-1.45324">
        <ele>100</ele>
        <time>2021-04-22T10:53:32.000Z</time>
      </trkpt>
      <trkpt lat="47.33732" lon="-1.45313">
        <ele>101</ele>
        <time>2021-04-22T10:53:34.000Z</time>
      </trkpt>
      <trkpt lat="47.33741" lon="-1.45301">
        <ele>101</ele>
        <time>2021-04-22T10:53:36.000Z</time>
      </trkpt>
      <trkpt lat="47.33749" lon="-1.45289">
        <ele>101</ele>
        <time>2021-04-22T10:53:38.000Z</time>
      </trkpt>
      <trkpt lat="47.33757" lon="-1.45276">
        <ele>101</ele>
        <time>2021-04-22T10:53:40.000Z</time>
      </trkpt>
      <trkpt lat="47.33766" lon="-1.45264">
        <ele>101</ele>
        <time>2021-04-22T10:53:42.000Z</time>
      </trkpt>
      <trkpt lat="47.33774" lon="-1.45252">
        <ele>101</ele>
        <time>2021-04-22T10:53:44.000Z</time>
      </trkpt>
      <trkpt lat="47.33783" lon="-1.45239">
        <ele>101</ele>
        <time>2021-04-22T10:53:46.000Z</time>
      </trkpt>
      <trkpt lat="47.33792" lon="-1.45228">
        <ele>100</ele>
        <time>2021-04-22T10:53:48.000Z</time>
      </trkpt>
      <trkpt lat="47.33799" lon="-1.45217">
        <ele>100</ele>
        <time>2021-04-22T10:53:50.000Z</time>
      </trkpt>
      <trkpt lat="47.33807" lon="-1.45206">
        <ele>100</ele>
        <time>2021-04-22T10:53:52.000Z</time>
      </trkpt>
      <trkpt lat="47.33814" lon="-1.45198">
        <ele>99</ele>
        <time>2021-04-22T10:53:54.000Z</time>
      </trkpt>
      <trkpt lat="47.33822" lon="-1.45183">
        <ele>99</ele>
        <time>2021-04-22T10:53:57.000Z</time>
      </trkpt>
      <trkpt lat="47.33831" lon="-1.45173">
        <ele>99</ele>
        <time>2021-04-22T10:54:01.000Z</time>
      </trkpt>
      <trkpt lat="47.33838" lon="-1.45161">
        <ele>99</ele>
        <time>2021-04-22T10:54:04.000Z</time>
      </trkpt>
      <trkpt lat="47.33845" lon="-1.4515">
        <ele>99</ele>
        <time>2021-04-22T10:54:07.000Z</time>
      </trkpt>
      <trkpt lat="47.33852" lon="-1.45139">
        <ele>99</ele>
        <time>2021-04-22T10:54:09.000Z</time>
      </trkpt>
      <trkpt lat="47.33861" lon="-1.45126">
        <ele>99</ele>
        <time>2021-04-22T10:54:11.000Z</time>
      </trkpt>
      <trkpt lat="47.33872" lon="-1.45112">
        <ele>98</ele>
        <time>2021-04-22T10:54:13.000Z</time>
      </trkpt>
      <trkpt lat="47.33883" lon="-1.45099">
        <ele>97</ele>
        <time>2021-04-22T10:54:15.000Z</time>
      </trkpt>
      <trkpt lat="47.33893" lon="-1.45085">
        <ele>97</ele>
        <time>2021-04-22T10:54:17.000Z</time>
      </trkpt>
      <trkpt lat="47.33904" lon="-1.45072">
        <ele>97</ele>
        <time>2021-04-22T10:54:19.000Z</time>
      </trkpt>
      <trkpt lat="47.33914" lon="-1.45059">
        <ele>97</ele>
        <time>2021-04-22T10:54:21.000Z</time>
      </trkpt>
      <trkpt lat="47.33924" lon="-1.45046">
        <ele>97</ele>
        <time>2021-04-22T10:54:23.000Z</time>
      </trkpt>
      <trkpt lat="47.33934" lon="-1.45033">
        <ele>97</ele>
        <time>2021-04-22T10:54:25.000Z</time>
      </trkpt>
      <trkpt lat="47.33944" lon="-1.45019">
        <ele>96</ele>
        <time>2021-04-22T10:54:27.000Z</time>
      </trkpt>
      <trkpt lat="47.33953" lon="-1.45005">
        <ele>96</ele>
        <time>2021-04-22T10:54:29.000Z</time>
      </trkpt>
      <trkpt lat="47.33963" lon="-1.44992">
        <ele>96</ele>
        <time>2021-04-22T10:54:31.000Z</time>
      </trkpt>
      <trkpt lat="47.33973" lon="-1.44978">
        <ele>96</ele>
        <time>2021-04-22T10:54:33.000Z</time>
      </trkpt>
      <trkpt lat="47.33983" lon="-1.44965">
        <ele>96</ele>
        <time>2021-04-22T10:54:35.000Z</time>
      </trkpt>
      <trkpt lat="47.33993" lon="-1.44951">
        <ele>95</ele>
        <time>2021-04-22T10:54:37.000Z</time>
      </trkpt>
      <trkpt lat="47.34003" lon="-1.44937">
        <ele>95</ele>
        <time>2021-04-22T10:54:39.000Z</time>
      </trkpt>
      <trkpt lat="47.34012" lon="-1.44924">
        <ele>95</ele>
        <time>2021-04-22T10:54:41.000Z</time>
      </trkpt>
      <trkpt lat="47.34022" lon="-1.4491">
        <ele>96</ele>
        <time>2021-04-22T10:54:43.000Z</time>
      </trkpt>
      <trkpt lat="47.34032" lon="-1.44897">
        <ele>96</ele>
        <time>2021-04-22T10:54:45.000Z</time>
      </trkpt>
      <trkpt lat="47.34042" lon="-1.44884">
        <ele>96</ele>
        <time>2021-04-22T10:54:47.000Z</time>
      </trkpt>
      <trkpt lat="47.34051" lon="-1.44871">
        <ele>96</ele>
        <time>2021-04-22T10:54:49.000Z</time>
      </trkpt>
      <trkpt lat="47.3406" lon="-1.44858">
        <ele>97</ele>
        <time>2021-04-22T10:54:51.000Z</time>
      </trkpt>
      <trkpt lat="47.3407" lon="-1.44844">
        <ele>96</ele>
        <time>2021-04-22T10:54:53.000Z</time>
      </trkpt>
      <trkpt lat="47.34079" lon="-1.44832">
        <ele>96</ele>
        <time>2021-04-22T10:54:55.000Z</time>
      </trkpt>
      <trkpt lat="47.3409" lon="-1.44819">
        <ele>95</ele>
        <time>2021-04-22T10:54:57.000Z</time>
      </trkpt>
      <trkpt lat="47.341" lon="-1.44805">
        <ele>96</ele>
        <time>2021-04-22T10:54:59.000Z</time>
      </trkpt>
      <trkpt lat="47.34111" lon="-1.44792">
        <ele>96</ele>
        <time>2021-04-22T10:55:01.000Z</time>
      </trkpt>
      <trkpt lat="47.3412" lon="-1.44778">
        <ele>95</ele>
        <time>2021-04-22T10:55:03.000Z</time>
      </trkpt>
      <trkpt lat="47.3413" lon="-1.44765">
        <ele>95</ele>
        <time>2021-04-22T10:55:05.000Z</time>
      </trkpt>
      <trkpt lat="47.3414" lon="-1.44752">
        <ele>95</ele>
        <time>2021-04-22T10:55:07.000Z</time>
      </trkpt>
      <trkpt lat="47.3415" lon="-1.44737">
        <ele>95</ele>
        <time>2021-04-22T10:55:09.000Z</time>
      </trkpt>
      <trkpt lat="47.34159" lon="-1.44724">
        <ele>95</ele>
        <time>2021-04-22T10:55:11.000Z</time>
      </trkpt>
      <trkpt lat="47.34169" lon="-1.4471">
        <ele>95</ele>
        <time>2021-04-22T10:55:13.000Z</time>
      </trkpt>
      <trkpt lat="47.34178" lon="-1.44697">
        <ele>95</ele>
        <time>2021-04-22T10:55:15.000Z</time>
      </trkpt>
      <trkpt lat="47.34188" lon="-1.44684">
        <ele>94</ele>
        <time>2021-04-22T10:55:17.000Z</time>
      </trkpt>
      <trkpt lat="47.34198" lon="-1.44671">
        <ele>94</ele>
        <time>2021-04-22T10:55:19.000Z</time>
      </trkpt>
      <trkpt lat="47.34208" lon="-1.44658">
        <ele>94</ele>
        <time>2021-04-22T10:55:21.000Z</time>
      </trkpt>
      <trkpt lat="47.34217" lon="-1.44645">
        <ele>95</ele>
        <time>2021-04-22T10:55:23.000Z</time>
      </trkpt>
      <trkpt lat="47.34226" lon="-1.44631">
        <ele>94</ele>
        <time>2021-04-22T10:55:25.000Z</time>
      </trkpt>
      <trkpt lat="47.34236" lon="-1.44618">
        <ele>95</ele>
        <time>2021-04-22T10:55:27.000Z</time>
      </trkpt>
      <trkpt lat="47.34245" lon="-1.44604">
        <ele>95</ele>
        <time>2021-04-22T10:55:29.000Z</time>
      </trkpt>
      <trkpt lat="47.34254" lon="-1.44592">
        <ele>95</ele>
        <time>2021-04-22T10:55:31.000Z</time>
      </trkpt>
      <trkpt lat="47.34264" lon="-1.44579">
        <ele>95</ele>
        <time>2021-04-22T10:55:33.000Z</time>
      </trkpt>
      <trkpt lat="47.34274" lon="-1.44566">
        <ele>95</ele>
        <time>2021-04-22T10:55:35.000Z</time>
      </trkpt>
      <trkpt lat="47.34282" lon="-1.44553">
        <ele>95</ele>
        <time>2021-04-22T10:55:37.000Z</time>
      </trkpt>
      <trkpt lat="47.34292" lon="-1.4454">
        <ele>94</ele>
        <time>2021-04-22T10:55:39.000Z</time>
      </trkpt>
      <trkpt lat="47.34302" lon="-1.44527">
        <ele>94</ele>
        <time>2021-04-22T10:55:41.000Z</time>
      </trkpt>
      <trkpt lat="47.34311" lon="-1.44514">
        <ele>94</ele>
        <time>2021-04-22T10:55:43.000Z</time>
      </trkpt>
      <trkpt lat="47.3432" lon="-1.44502">
        <ele>94</ele>
        <time>2021-04-22T10:55:45.000Z</time>
      </trkpt>
      <trkpt lat="47.3433" lon="-1.44489">
        <ele>94</ele>
        <time>2021-04-22T10:55:47.000Z</time>
      </trkpt>
      <trkpt lat="47.3434" lon="-1.44476">
        <ele>95</ele>
        <time>2021-04-22T10:55:49.000Z</time>
      </trkpt>
      <trkpt lat="47.3435" lon="-1.44463">
        <ele>95</ele>
        <time>2021-04-22T10:55:51.000Z</time>
      </trkpt>
      <trkpt lat="47.3436" lon="-1.4445">
        <ele>95</ele>
        <time>2021-04-22T10:55:53.000Z</time>
      </trkpt>
      <trkpt lat="47.3437" lon="-1.44437">
        <ele>95</ele>
        <time>2021-04-22T10:55:55.000Z</time>
      </trkpt>
      <trkpt lat="47.3438" lon="-1.44424">
        <ele>95</ele>
        <time>2021-04-22T10:55:57.000Z</time>
      </trkpt>
      <trkpt lat="47.34389" lon="-1.4441">
        <ele>96</ele>
        <time>2021-04-22T10:55:59.000Z</time>
      </trkpt>
      <trkpt lat="47.34399" lon="-1.44395">
        <ele>95</ele>
        <time>2021-04-22T10:56:01.000Z</time>
      </trkpt>
      <trkpt lat="47.34408" lon="-1.44381">
        <ele>95</ele>
        <time>2021-04-22T10:56:03.000Z</time>
      </trkpt>
      <trkpt lat="47.34418" lon="-1.44366">
        <ele>95</ele>
        <time>2021-04-22T10:56:05.000Z</time>
      </trkpt>
      <trkpt lat="47.34428" lon="-1.4435">
        <ele>95</ele>
        <time>2021-04-22T10:56:07.000Z</time>
      </trkpt>
      <trkpt lat="47.34437" lon="-1.44335">
        <ele>95</ele>
        <time>2021-04-22T10:56:09.000Z</time>
      </trkpt>
      <trkpt lat="47.34446" lon="-1.44319">
        <ele>95</ele>
        <time>2021-04-22T10:56:11.000Z</time>
      </trkpt>
      <trkpt lat="47.34455" lon="-1.44303">
        <ele>95</ele>
        <time>2021-04-22T10:56:13.000Z</time>
      </trkpt>
      <trkpt lat="47.34463" lon="-1.44288">
        <ele>95</ele>
        <time>2021-04-22T10:56:15.000Z</time>
      </trkpt>
      <trkpt lat="47.34471" lon="-1.44271">
        <ele>95</ele>
        <time>2021-04-22T10:56:17.000Z</time>
      </trkpt>
      <trkpt lat="47.34479" lon="-1.44256">
        <ele>95</ele>
        <time>2021-04-22T10:56:19.000Z</time>
      </trkpt>
      <trkpt lat="47.34487" lon="-1.44239">
        <ele>95</ele>
        <time>2021-04-22T10:56:21.000Z</time>
      </trkpt>
      <trkpt lat="47.34494" lon="-1.44224">
        <ele>95</ele>
        <time>2021-04-22T10:56:23.000Z</time>
      </trkpt>
      <trkpt lat="47.34501" lon="-1.44208">
        <ele>96</ele>
        <time>2021-04-22T10:56:25.000Z</time>
      </trkpt>
      <trkpt lat="47.34509" lon="-1.44192">
        <ele>96</ele>
        <time>2021-04-22T10:56:27.000Z</time>
      </trkpt>
      <trkpt lat="47.34516" lon="-1.44176">
        <ele>96</ele>
        <time>2021-04-22T10:56:29.000Z</time>
      </trkpt>
      <trkpt lat="47.34523" lon="-1.4416">
        <ele>97</ele>
        <time>2021-04-22T10:56:31.000Z</time>
      </trkpt>
      <trkpt lat="47.34529" lon="-1.44143">
        <ele>97</ele>
        <time>2021-04-22T10:56:33.000Z</time>
      </trkpt>
      <trkpt lat="47.34536" lon="-1.44126">
        <ele>98</ele>
        <time>2021-04-22T10:56:35.000Z</time>
      </trkpt>
      <trkpt lat="47.34542" lon="-1.44109">
        <ele>98</ele>
        <time>2021-04-22T10:56:37.000Z</time>
      </trkpt>
      <trkpt lat="47.34548" lon="-1.44092">
        <ele>98</ele>
        <time>2021-04-22T10:56:39.000Z</time>
      </trkpt>
      <trkpt lat="47.34554" lon="-1.44075">
        <ele>98</ele>
        <time>2021-04-22T10:56:41.000Z</time>
      </trkpt>
      <trkpt lat="47.3456" lon="-1.44058">
        <ele>98</ele>
        <time>2021-04-22T10:56:43.000Z</time>
      </trkpt>
      <trkpt lat="47.34566" lon="-1.44041">
        <ele>98</ele>
        <time>2021-04-22T10:56:45.000Z</time>
      </trkpt>
      <trkpt lat="47.34571" lon="-1.44024">
        <ele>98</ele>
        <time>2021-04-22T10:56:47.000Z</time>
      </trkpt>
      <trkpt lat="47.34577" lon="-1.44007">
        <ele>98</ele>
        <time>2021-04-22T10:56:49.000Z</time>
      </trkpt>
      <trkpt lat="47.34582" lon="-1.43991">
        <ele>99</ele>
        <time>2021-04-22T10:56:51.000Z</time>
      </trkpt>
      <trkpt lat="47.34586" lon="-1.43973">
        <ele>99</ele>
        <time>2021-04-22T10:56:53.000Z</time>
      </trkpt>
      <trkpt lat="47.34591" lon="-1.43955">
        <ele>99</ele>
        <time>2021-04-22T10:56:55.000Z</time>
      </trkpt>
      <trkpt lat="47.34595" lon="-1.43937">
        <ele>99</ele>
        <time>2021-04-22T10:56:57.000Z</time>
      </trkpt>
      <trkpt lat="47.34599" lon="-1.43919">
        <ele>99</ele>
        <time>2021-04-22T10:56:59.000Z</time>
      </trkpt>
      <trkpt lat="47.34603" lon="-1.43902">
        <ele>100</ele>
        <time>2021-04-22T10:57:01.000Z</time>
      </trkpt>
      <trkpt lat="47.34606" lon="-1.43884">
        <ele>100</ele>
        <time>2021-04-22T10:57:03.000Z</time>
      </trkpt>
      <trkpt lat="47.34608" lon="-1.43866">
        <ele>100</ele>
        <time>2021-04-22T10:57:05.000Z</time>
      </trkpt>
      <trkpt lat="47.34611" lon="-1.43849">
        <ele>100</ele>
        <time>2021-04-22T10:57:07.000Z</time>
      </trkpt>
      <trkpt lat="47.34616" lon="-1.43832">
        <ele>99</ele>
        <time>2021-04-22T10:57:09.000Z</time>
      </trkpt>
      <trkpt lat="47.34619" lon="-1.43814">
        <ele>100</ele>
        <time>2021-04-22T10:57:11.000Z</time>
      </trkpt>
      <trkpt lat="47.34623" lon="-1.43796">
        <ele>100</ele>
        <time>2021-04-22T10:57:13.000Z</time>
      </trkpt>
      <trkpt lat="47.34625" lon="-1.43778">
        <ele>99</ele>
        <time>2021-04-22T10:57:15.000Z</time>
      </trkpt>
      <trkpt lat="47.34627" lon="-1.43759">
        <ele>99</ele>
        <time>2021-04-22T10:57:17.000Z</time>
      </trkpt>
      <trkpt lat="47.34629" lon="-1.43741">
        <ele>99</ele>
        <time>2021-04-22T10:57:19.000Z</time>
      </trkpt>
      <trkpt lat="47.3463" lon="-1.43722">
        <ele>99</ele>
        <time>2021-04-22T10:57:21.000Z</time>
      </trkpt>
      <trkpt lat="47.34631" lon="-1.43703">
        <ele>99</ele>
        <time>2021-04-22T10:57:23.000Z</time>
      </trkpt>
      <trkpt lat="47.34633" lon="-1.43685">
        <ele>100</ele>
        <time>2021-04-22T10:57:25.000Z</time>
      </trkpt>
      <trkpt lat="47.34634" lon="-1.43667">
        <ele>100</ele>
        <time>2021-04-22T10:57:27.000Z</time>
      </trkpt>
      <trkpt lat="47.34635" lon="-1.43649">
        <ele>100</ele>
        <time>2021-04-22T10:57:29.000Z</time>
      </trkpt>
      <trkpt lat="47.34636" lon="-1.43631">
        <ele>100</ele>
        <time>2021-04-22T10:57:31.000Z</time>
      </trkpt>
      <trkpt lat="47.34637" lon="-1.43614">
        <ele>100</ele>
        <time>2021-04-22T10:57:33.000Z</time>
      </trkpt>
      <trkpt lat="47.34638" lon="-1.43597">
        <ele>101</ele>
        <time>2021-04-22T10:57:35.000Z</time>
      </trkpt>
      <trkpt lat="47.34638" lon="-1.43581">
        <ele>100</ele>
        <time>2021-04-22T10:57:37.000Z</time>
      </trkpt>
      <trkpt lat="47.34638" lon="-1.43566">
        <ele>100</ele>
        <time>2021-04-22T10:57:39.000Z</time>
      </trkpt>
      <trkpt lat="47.34638" lon="-1.43551">
        <ele>100</ele>
        <time>2021-04-22T10:57:41.000Z</time>
      </trkpt>
      <trkpt lat="47.34638" lon="-1.43537">
        <ele>101</ele>
        <time>2021-04-22T10:57:43.000Z</time>
      </trkpt>
      <trkpt lat="47.34636" lon="-1.4352">
        <ele>101</ele>
        <time>2021-04-22T10:57:46.000Z</time>
      </trkpt>
      <trkpt lat="47.34636" lon="-1.43504">
        <ele>101</ele>
        <time>2021-04-22T10:57:49.000Z</time>
      </trkpt>
      <trkpt lat="47.34636" lon="-1.43485">
        <ele>101</ele>
        <time>2021-04-22T10:57:52.000Z</time>
      </trkpt>
      <trkpt lat="47.34636" lon="-1.43469">
        <ele>101</ele>
        <time>2021-04-22T10:57:55.000Z</time>
      </trkpt>
      <trkpt lat="47.34632" lon="-1.43453">
        <ele>102</ele>
        <time>2021-04-22T10:57:58.000Z</time>
      </trkpt>
      <trkpt lat="47.34632" lon="-1.43437">
        <ele>103</ele>
        <time>2021-04-22T10:58:00.000Z</time>
      </trkpt>
      <trkpt lat="47.34631" lon="-1.43422">
        <ele>103</ele>
        <time>2021-04-22T10:58:02.000Z</time>
      </trkpt>
      <trkpt lat="47.34631" lon="-1.43405">
        <ele>103</ele>
        <time>2021-04-22T10:58:04.000Z</time>
      </trkpt>
      <trkpt lat="47.3463" lon="-1.43386">
        <ele>103</ele>
        <time>2021-04-22T10:58:06.000Z</time>
      </trkpt>
      <trkpt lat="47.34629" lon="-1.43367">
        <ele>102</ele>
        <time>2021-04-22T10:58:08.000Z</time>
      </trkpt>
      <trkpt lat="47.34628" lon="-1.43348">
        <ele>103</ele>
        <time>2021-04-22T10:58:10.000Z</time>
      </trkpt>
      <trkpt lat="47.34627" lon="-1.43331">
        <ele>103</ele>
        <time>2021-04-22T10:58:12.000Z</time>
      </trkpt>
      <trkpt lat="47.34626" lon="-1.43313">
        <ele>103</ele>
        <time>2021-04-22T10:58:14.000Z</time>
      </trkpt>
      <trkpt lat="47.34625" lon="-1.43295">
        <ele>103</ele>
        <time>2021-04-22T10:58:16.000Z</time>
      </trkpt>
      <trkpt lat="47.34623" lon="-1.43277">
        <ele>103</ele>
        <time>2021-04-22T10:58:18.000Z</time>
      </trkpt>
      <trkpt lat="47.34622" lon="-1.43259">
        <ele>103</ele>
        <time>2021-04-22T10:58:20.000Z</time>
      </trkpt>
      <trkpt lat="47.34621" lon="-1.4324">
        <ele>102</ele>
        <time>2021-04-22T10:58:22.000Z</time>
      </trkpt>
      <trkpt lat="47.3462" lon="-1.43223">
        <ele>102</ele>
        <time>2021-04-22T10:58:24.000Z</time>
      </trkpt>
      <trkpt lat="47.34618" lon="-1.43205">
        <ele>103</ele>
        <time>2021-04-22T10:58:26.000Z</time>
      </trkpt>
      <trkpt lat="47.34617" lon="-1.43186">
        <ele>102</ele>
        <time>2021-04-22T10:58:28.000Z</time>
      </trkpt>
      <trkpt lat="47.34616" lon="-1.43168">
        <ele>102</ele>
        <time>2021-04-22T10:58:30.000Z</time>
      </trkpt>
      <trkpt lat="47.34615" lon="-1.4315">
        <ele>102</ele>
        <time>2021-04-22T10:58:32.000Z</time>
      </trkpt>
      <trkpt lat="47.34614" lon="-1.43131">
        <ele>102</ele>
        <time>2021-04-22T10:58:34.000Z</time>
      </trkpt>
      <trkpt lat="47.34613" lon="-1.43113">
        <ele>102</ele>
        <time>2021-04-22T10:58:36.000Z</time>
      </trkpt>
      <trkpt lat="47.34611" lon="-1.43095">
        <ele>103</ele>
        <time>2021-04-22T10:58:38.000Z</time>
      </trkpt>
      <trkpt lat="47.3461" lon="-1.43079">
        <ele>103</ele>
        <time>2021-04-22T10:58:40.000Z</time>
      </trkpt>
      <trkpt lat="47.34608" lon="-1.43061">
        <ele>103</ele>
        <time>2021-04-22T10:58:42.000Z</time>
      </trkpt>
      <trkpt lat="47.34607" lon="-1.43043">
        <ele>103</ele>
        <time>2021-04-22T10:58:44.000Z</time>
      </trkpt>
      <trkpt lat="47.34606" lon="-1.43024">
        <ele>103</ele>
        <time>2021-04-22T10:58:46.000Z</time>
      </trkpt>
      <trkpt lat="47.34605" lon="-1.43004">
        <ele>103</ele>
        <time>2021-04-22T10:58:48.000Z</time>
      </trkpt>
      <trkpt lat="47.34603" lon="-1.42985">
        <ele>103</ele>
        <time>2021-04-22T10:58:50.000Z</time>
      </trkpt>
      <trkpt lat="47.34601" lon="-1.42966">
        <ele>105</ele>
        <time>2021-04-22T10:58:52.000Z</time>
      </trkpt>
      <trkpt lat="47.346" lon="-1.42949">
        <ele>105</ele>
        <time>2021-04-22T10:58:54.000Z</time>
      </trkpt>
      <trkpt lat="47.34599" lon="-1.42932">
        <ele>105</ele>
        <time>2021-04-22T10:58:56.000Z</time>
      </trkpt>
      <trkpt lat="47.34598" lon="-1.42916">
        <ele>105</ele>
        <time>2021-04-22T10:58:58.000Z</time>
      </trkpt>
      <trkpt lat="47.34596" lon="-1.429">
        <ele>105</ele>
        <time>2021-04-22T10:59:00.000Z</time>
      </trkpt>
      <trkpt lat="47.34595" lon="-1.42883">
        <ele>104</ele>
        <time>2021-04-22T10:59:02.000Z</time>
      </trkpt>
      <trkpt lat="47.34595" lon="-1.42866">
        <ele>104</ele>
        <time>2021-04-22T10:59:04.000Z</time>
      </trkpt>
      <trkpt lat="47.34593" lon="-1.42848">
        <ele>103</ele>
        <time>2021-04-22T10:59:06.000Z</time>
      </trkpt>
      <trkpt lat="47.34592" lon="-1.42831">
        <ele>103</ele>
        <time>2021-04-22T10:59:08.000Z</time>
      </trkpt>
      <trkpt lat="47.34592" lon="-1.42812">
        <ele>103</ele>
        <time>2021-04-22T10:59:10.000Z</time>
      </trkpt>
      <trkpt lat="47.3459" lon="-1.42793">
        <ele>103</ele>
        <time>2021-04-22T10:59:12.000Z</time>
      </trkpt>
      <trkpt lat="47.34588" lon="-1.42775">
        <ele>103</ele>
        <time>2021-04-22T10:59:14.000Z</time>
      </trkpt>
      <trkpt lat="47.34587" lon="-1.42759">
        <ele>103</ele>
        <time>2021-04-22T10:59:16.000Z</time>
      </trkpt>
      <trkpt lat="47.34588" lon="-1.42745">
        <ele>104</ele>
        <time>2021-04-22T10:59:18.000Z</time>
      </trkpt>
      <trkpt lat="47.34586" lon="-1.42732">
        <ele>104</ele>
        <time>2021-04-22T10:59:21.000Z</time>
      </trkpt>
      <trkpt lat="47.34584" lon="-1.42713">
        <ele>104</ele>
        <time>2021-04-22T10:59:25.000Z</time>
      </trkpt>
      <trkpt lat="47.34581" lon="-1.42695">
        <ele>103</ele>
        <time>2021-04-22T10:59:28.000Z</time>
      </trkpt>
      <trkpt lat="47.3458" lon="-1.42674">
        <ele>104</ele>
        <time>2021-04-22T10:59:31.000Z</time>
      </trkpt>
      <trkpt lat="47.34579" lon="-1.42658">
        <ele>104</ele>
        <time>2021-04-22T10:59:33.000Z</time>
      </trkpt>
      <trkpt lat="47.34578" lon="-1.42643">
        <ele>103</ele>
        <time>2021-04-22T10:59:35.000Z</time>
      </trkpt>
      <trkpt lat="47.34577" lon="-1.42626">
        <ele>103</ele>
        <time>2021-04-22T10:59:37.000Z</time>
      </trkpt>
      <trkpt lat="47.34576" lon="-1.42608">
        <ele>103</ele>
        <time>2021-04-22T10:59:39.000Z</time>
      </trkpt>
      <trkpt lat="47.34575" lon="-1.4259">
        <ele>104</ele>
        <time>2021-04-22T10:59:41.000Z</time>
      </trkpt>
      <trkpt lat="47.34574" lon="-1.42573">
        <ele>104</ele>
        <time>2021-04-22T10:59:43.000Z</time>
      </trkpt>
      <trkpt lat="47.34573" lon="-1.42555">
        <ele>104</ele>
        <time>2021-04-22T10:59:45.000Z</time>
      </trkpt>
      <trkpt lat="47.34572" lon="-1.42538">
        <ele>104</ele>
        <time>2021-04-22T10:59:47.000Z</time>
      </trkpt>
      <trkpt lat="47.3457" lon="-1.4252">
        <ele>104</ele>
        <time>2021-04-22T10:59:49.000Z</time>
      </trkpt>
      <trkpt lat="47.3457" lon="-1.42502">
        <ele>103</ele>
        <time>2021-04-22T10:59:51.000Z</time>
      </trkpt>
      <trkpt lat="47.34569" lon="-1.42484">
        <ele>103</ele>
        <time>2021-04-22T10:59:53.000Z</time>
      </trkpt>
      <trkpt lat="47.34568" lon="-1.42466">
        <ele>103</ele>
        <time>2021-04-22T10:59:55.000Z</time>
      </trkpt>
      <trkpt lat="47.34567" lon="-1.42448">
        <ele>103</ele>
        <time>2021-04-22T10:59:57.000Z</time>
      </trkpt>
      <trkpt lat="47.34566" lon="-1.42429">
        <ele>103</ele>
        <time>2021-04-22T10:59:59.000Z</time>
      </trkpt>
      <trkpt lat="47.34565" lon="-1.42411">
        <ele>103</ele>
        <time>2021-04-22T11:00:01.000Z</time>
      </trkpt>
      <trkpt lat="47.34563" lon="-1.42393">
        <ele>103</ele>
        <time>2021-04-22T11:00:03.000Z</time>
      </trkpt>
      <trkpt lat="47.34562" lon="-1.42375">
        <ele>103</ele>
        <time>2021-04-22T11:00:05.000Z</time>
      </trkpt>
      <trkpt lat="47.3456" lon="-1.42357">
        <ele>103</ele>
        <time>2021-04-22T11:00:07.000Z</time>
      </trkpt>
      <trkpt lat="47.34559" lon="-1.42339">
        <ele>103</ele>
        <time>2021-04-22T11:00:09.000Z</time>
      </trkpt>
      <trkpt lat="47.34558" lon="-1.42321">
        <ele>103</ele>
        <time>2021-04-22T11:00:11.000Z</time>
      </trkpt>
      <trkpt lat="47.34556" lon="-1.42303">
        <ele>104</ele>
        <time>2021-04-22T11:00:13.000Z</time>
      </trkpt>
      <trkpt lat="47.34555" lon="-1.42286">
        <ele>104</ele>
        <time>2021-04-22T11:00:15.000Z</time>
      </trkpt>
      <trkpt lat="47.34553" lon="-1.42268">
        <ele>104</ele>
        <time>2021-04-22T11:00:17.000Z</time>
      </trkpt>
      <trkpt lat="47.34552" lon="-1.42249">
        <ele>104</ele>
        <time>2021-04-22T11:00:19.000Z</time>
      </trkpt>
      <trkpt lat="47.34551" lon="-1.42231">
        <ele>104</ele>
        <time>2021-04-22T11:00:21.000Z</time>
      </trkpt>
      <trkpt lat="47.34549" lon="-1.42215">
        <ele>104</ele>
        <time>2021-04-22T11:00:23.000Z</time>
      </trkpt>
      <trkpt lat="47.34548" lon="-1.42198">
        <ele>105</ele>
        <time>2021-04-22T11:00:25.000Z</time>
      </trkpt>
      <trkpt lat="47.34546" lon="-1.4218">
        <ele>105</ele>
        <time>2021-04-22T11:00:27.000Z</time>
      </trkpt>
      <trkpt lat="47.34545" lon="-1.42162">
        <ele>105</ele>
        <time>2021-04-22T11:00:29.000Z</time>
      </trkpt>
      <trkpt lat="47.34544" lon="-1.42144">
        <ele>104</ele>
        <time>2021-04-22T11:00:31.000Z</time>
      </trkpt>
      <trkpt lat="47.34543" lon="-1.42124">
        <ele>105</ele>
        <time>2021-04-22T11:00:33.000Z</time>
      </trkpt>
      <trkpt lat="47.34542" lon="-1.42106">
        <ele>105</ele>
        <time>2021-04-22T11:00:35.000Z</time>
      </trkpt>
      <trkpt lat="47.34541" lon="-1.4209">
        <ele>106</ele>
        <time>2021-04-22T11:00:37.000Z</time>
      </trkpt>
      <trkpt lat="47.34541" lon="-1.42074">
        <ele>106</ele>
        <time>2021-04-22T11:00:39.000Z</time>
      </trkpt>
      <trkpt lat="47.34542" lon="-1.4206">
        <ele>106</ele>
        <time>2021-04-22T11:00:41.000Z</time>
      </trkpt>
      <trkpt lat="47.34544" lon="-1.42042">
        <ele>106</ele>
        <time>2021-04-22T11:00:44.000Z</time>
      </trkpt>
      <trkpt lat="47.34543" lon="-1.42022">
        <ele>107</ele>
        <time>2021-04-22T11:00:47.000Z</time>
      </trkpt>
      <trkpt lat="47.34544" lon="-1.42005">
        <ele>108</ele>
        <time>2021-04-22T11:00:50.000Z</time>
      </trkpt>
      <trkpt lat="47.34544" lon="-1.41986">
        <ele>108</ele>
        <time>2021-04-22T11:00:53.000Z</time>
      </trkpt>
      <trkpt lat="47.34545" lon="-1.4197">
        <ele>108</ele>
        <time>2021-04-22T11:00:55.000Z</time>
      </trkpt>
      <trkpt lat="47.34546" lon="-1.41954">
        <ele>108</ele>
        <time>2021-04-22T11:00:57.000Z</time>
      </trkpt>
      <trkpt lat="47.34546" lon="-1.41937">
        <ele>109</ele>
        <time>2021-04-22T11:00:59.000Z</time>
      </trkpt>
      <trkpt lat="47.34548" lon="-1.41922">
        <ele>109</ele>
        <time>2021-04-22T11:01:01.000Z</time>
      </trkpt>
      <trkpt lat="47.34549" lon="-1.41906">
        <ele>109</ele>
        <time>2021-04-22T11:01:03.000Z</time>
      </trkpt>
      <trkpt lat="47.3455" lon="-1.4189">
        <ele>108</ele>
        <time>2021-04-22T11:01:05.000Z</time>
      </trkpt>
      <trkpt lat="47.34551" lon="-1.41874">
        <ele>108</ele>
        <time>2021-04-22T11:01:07.000Z</time>
      </trkpt>
      <trkpt lat="47.34552" lon="-1.41856">
        <ele>108</ele>
        <time>2021-04-22T11:01:09.000Z</time>
      </trkpt>
      <trkpt lat="47.34555" lon="-1.41839">
        <ele>108</ele>
        <time>2021-04-22T11:01:11.000Z</time>
      </trkpt>
      <trkpt lat="47.34557" lon="-1.41823">
        <ele>108</ele>
        <time>2021-04-22T11:01:13.000Z</time>
      </trkpt>
      <trkpt lat="47.34558" lon="-1.41805">
        <ele>108</ele>
        <time>2021-04-22T11:01:15.000Z</time>
      </trkpt>
      <trkpt lat="47.3456" lon="-1.41788">
        <ele>108</ele>
        <time>2021-04-22T11:01:17.000Z</time>
      </trkpt>
      <trkpt lat="47.34563" lon="-1.41772">
        <ele>109</ele>
        <time>2021-04-22T11:01:19.000Z</time>
      </trkpt>
      <trkpt lat="47.34565" lon="-1.41755">
        <ele>109</ele>
        <time>2021-04-22T11:01:21.000Z</time>
      </trkpt>
      <trkpt lat="47.34568" lon="-1.41739">
        <ele>109</ele>
        <time>2021-04-22T11:01:23.000Z</time>
      </trkpt>
      <trkpt lat="47.3457" lon="-1.41722">
        <ele>109</ele>
        <time>2021-04-22T11:01:25.000Z</time>
      </trkpt>
      <trkpt lat="47.34573" lon="-1.41705">
        <ele>109</ele>
        <time>2021-04-22T11:01:27.000Z</time>
      </trkpt>
      <trkpt lat="47.34577" lon="-1.41688">
        <ele>109</ele>
        <time>2021-04-22T11:01:29.000Z</time>
      </trkpt>
      <trkpt lat="47.3458" lon="-1.41672">
        <ele>110</ele>
        <time>2021-04-22T11:01:31.000Z</time>
      </trkpt>
      <trkpt lat="47.34583" lon="-1.41655">
        <ele>110</ele>
        <time>2021-04-22T11:01:33.000Z</time>
      </trkpt>
      <trkpt lat="47.34587" lon="-1.41638">
        <ele>110</ele>
        <time>2021-04-22T11:01:35.000Z</time>
      </trkpt>
      <trkpt lat="47.3459" lon="-1.41621">
        <ele>110</ele>
        <time>2021-04-22T11:01:37.000Z</time>
      </trkpt>
      <trkpt lat="47.34594" lon="-1.41605">
        <ele>110</ele>
        <time>2021-04-22T11:01:39.000Z</time>
      </trkpt>
      <trkpt lat="47.34598" lon="-1.41588">
        <ele>110</ele>
        <time>2021-04-22T11:01:41.000Z</time>
      </trkpt>
      <trkpt lat="47.34603" lon="-1.41571">
        <ele>110</ele>
        <time>2021-04-22T11:01:43.000Z</time>
      </trkpt>
      <trkpt lat="47.34607" lon="-1.41555">
        <ele>110</ele>
        <time>2021-04-22T11:01:45.000Z</time>
      </trkpt>
      <trkpt lat="47.3461" lon="-1.41539">
        <ele>110</ele>
        <time>2021-04-22T11:01:47.000Z</time>
      </trkpt>
      <trkpt lat="47.34614" lon="-1.41524">
        <ele>110</ele>
        <time>2021-04-22T11:01:49.000Z</time>
      </trkpt>
      <trkpt lat="47.34619" lon="-1.41508">
        <ele>110</ele>
        <time>2021-04-22T11:01:51.000Z</time>
      </trkpt>
      <trkpt lat="47.34625" lon="-1.41491">
        <ele>110</ele>
        <time>2021-04-22T11:01:53.000Z</time>
      </trkpt>
      <trkpt lat="47.34631" lon="-1.41475">
        <ele>109</ele>
        <time>2021-04-22T11:01:55.000Z</time>
      </trkpt>
      <trkpt lat="47.34636" lon="-1.41458">
        <ele>109</ele>
        <time>2021-04-22T11:01:57.000Z</time>
      </trkpt>
      <trkpt lat="47.34642" lon="-1.41441">
        <ele>109</ele>
        <time>2021-04-22T11:01:59.000Z</time>
      </trkpt>
      <trkpt lat="47.34648" lon="-1.41424">
        <ele>110</ele>
        <time>2021-04-22T11:02:01.000Z</time>
      </trkpt>
      <trkpt lat="47.34653" lon="-1.41409">
        <ele>110</ele>
        <time>2021-04-22T11:02:03.000Z</time>
      </trkpt>
      <trkpt lat="47.3466" lon="-1.41395">
        <ele>111</ele>
        <time>2021-04-22T11:02:05.000Z</time>
      </trkpt>
      <trkpt lat="47.34666" lon="-1.41381">
        <ele>110</ele>
        <time>2021-04-22T11:02:07.000Z</time>
      </trkpt>
      <trkpt lat="47.34672" lon="-1.41366">
        <ele>111</ele>
        <time>2021-04-22T11:02:09.000Z</time>
      </trkpt>
      <trkpt lat="47.34679" lon="-1.41352">
        <ele>110</ele>
        <time>2021-04-22T11:02:11.000Z</time>
      </trkpt>
      <trkpt lat="47.34684" lon="-1.41337">
        <ele>110</ele>
        <time>2021-04-22T11:02:13.000Z</time>
      </trkpt>
      <trkpt lat="47.3469" lon="-1.41322">
        <ele>110</ele>
        <time>2021-04-22T11:02:15.000Z</time>
      </trkpt>
      <trkpt lat="47.34697" lon="-1.41308">
        <ele>110</ele>
        <time>2021-04-22T11:02:17.000Z</time>
      </trkpt>
      <trkpt lat="47.34703" lon="-1.41294">
        <ele>110</ele>
        <time>2021-04-22T11:02:19.000Z</time>
      </trkpt>
      <trkpt lat="47.3471" lon="-1.4128">
        <ele>111</ele>
        <time>2021-04-22T11:02:21.000Z</time>
      </trkpt>
      <trkpt lat="47.34716" lon="-1.41268">
        <ele>111</ele>
        <time>2021-04-22T11:02:23.000Z</time>
      </trkpt>
      <trkpt lat="47.34723" lon="-1.41257">
        <ele>111</ele>
        <time>2021-04-22T11:02:25.000Z</time>
      </trkpt>
      <trkpt lat="47.34728" lon="-1.41245">
        <ele>111</ele>
        <time>2021-04-22T11:02:27.000Z</time>
      </trkpt>
      <trkpt lat="47.34734" lon="-1.41232">
        <ele>111</ele>
        <time>2021-04-22T11:02:29.000Z</time>
      </trkpt>
      <trkpt lat="47.34741" lon="-1.41218">
        <ele>111</ele>
        <time>2021-04-22T11:02:31.000Z</time>
      </trkpt>
      <trkpt lat="47.34748" lon="-1.41208">
        <ele>111</ele>
        <time>2021-04-22T11:02:33.000Z</time>
      </trkpt>
      <trkpt lat="47.34753" lon="-1.41195">
        <ele>111</ele>
        <time>2021-04-22T11:02:35.000Z</time>
      </trkpt>
      <trkpt lat="47.34763" lon="-1.4118">
        <ele>112</ele>
        <time>2021-04-22T11:02:38.000Z</time>
      </trkpt>
      <trkpt lat="47.3477" lon="-1.41168">
        <ele>113</ele>
        <time>2021-04-22T11:02:40.000Z</time>
      </trkpt>
      <trkpt lat="47.34779" lon="-1.41154">
        <ele>114</ele>
        <time>2021-04-22T11:02:42.000Z</time>
      </trkpt>
      <trkpt lat="47.34788" lon="-1.41138">
        <ele>114</ele>
        <time>2021-04-22T11:02:44.000Z</time>
      </trkpt>
      <trkpt lat="47.34797" lon="-1.41124">
        <ele>113</ele>
        <time>2021-04-22T11:02:46.000Z</time>
      </trkpt>
      <trkpt lat="47.34807" lon="-1.4111">
        <ele>113</ele>
        <time>2021-04-22T11:02:48.000Z</time>
      </trkpt>
      <trkpt lat="47.34817" lon="-1.41097">
        <ele>113</ele>
        <time>2021-04-22T11:02:50.000Z</time>
      </trkpt>
      <trkpt lat="47.34826" lon="-1.41084">
        <ele>112</ele>
        <time>2021-04-22T11:02:52.000Z</time>
      </trkpt>
      <trkpt lat="47.34835" lon="-1.41071">
        <ele>112</ele>
        <time>2021-04-22T11:02:54.000Z</time>
      </trkpt>
      <trkpt lat="47.34844" lon="-1.41058">
        <ele>112</ele>
        <time>2021-04-22T11:02:56.000Z</time>
      </trkpt>
      <trkpt lat="47.34854" lon="-1.41047">
        <ele>111</ele>
        <time>2021-04-22T11:02:58.000Z</time>
      </trkpt>
      <trkpt lat="47.34864" lon="-1.41035">
        <ele>111</ele>
        <time>2021-04-22T11:03:00.000Z</time>
      </trkpt>
      <trkpt lat="47.34873" lon="-1.41022">
        <ele>111</ele>
        <time>2021-04-22T11:03:02.000Z</time>
      </trkpt>
      <trkpt lat="47.34883" lon="-1.4101">
        <ele>112</ele>
        <time>2021-04-22T11:03:04.000Z</time>
      </trkpt>
      <trkpt lat="47.34893" lon="-1.40999">
        <ele>112</ele>
        <time>2021-04-22T11:03:06.000Z</time>
      </trkpt>
      <trkpt lat="47.34903" lon="-1.40987">
        <ele>111</ele>
        <time>2021-04-22T11:03:08.000Z</time>
      </trkpt>
      <trkpt lat="47.34912" lon="-1.40974">
        <ele>111</ele>
        <time>2021-04-22T11:03:10.000Z</time>
      </trkpt>
      <trkpt lat="47.34923" lon="-1.40964">
        <ele>110</ele>
        <time>2021-04-22T11:03:12.000Z</time>
      </trkpt>
      <trkpt lat="47.34933" lon="-1.40952">
        <ele>111</ele>
        <time>2021-04-22T11:03:14.000Z</time>
      </trkpt>
      <trkpt lat="47.34944" lon="-1.40941">
        <ele>111</ele>
        <time>2021-04-22T11:03:16.000Z</time>
      </trkpt>
      <trkpt lat="47.34954" lon="-1.40929">
        <ele>112</ele>
        <time>2021-04-22T11:03:18.000Z</time>
      </trkpt>
      <trkpt lat="47.34965" lon="-1.40918">
        <ele>112</ele>
        <time>2021-04-22T11:03:20.000Z</time>
      </trkpt>
      <trkpt lat="47.34975" lon="-1.40906">
        <ele>112</ele>
        <time>2021-04-22T11:03:22.000Z</time>
      </trkpt>
      <trkpt lat="47.34985" lon="-1.40895">
        <ele>112</ele>
        <time>2021-04-22T11:03:24.000Z</time>
      </trkpt>
      <trkpt lat="47.34994" lon="-1.40884">
        <ele>112</ele>
        <time>2021-04-22T11:03:26.000Z</time>
      </trkpt>
      <trkpt lat="47.35004" lon="-1.40872">
        <ele>111</ele>
        <time>2021-04-22T11:03:28.000Z</time>
      </trkpt>
      <trkpt lat="47.35014" lon="-1.40861">
        <ele>112</ele>
        <time>2021-04-22T11:03:30.000Z</time>
      </trkpt>
      <trkpt lat="47.35023" lon="-1.40849">
        <ele>112</ele>
        <time>2021-04-22T11:03:32.000Z</time>
      </trkpt>
      <trkpt lat="47.35033" lon="-1.40838">
        <ele>112</ele>
        <time>2021-04-22T11:03:34.000Z</time>
      </trkpt>
      <trkpt lat="47.35043" lon="-1.40826">
        <ele>113</ele>
        <time>2021-04-22T11:03:36.000Z</time>
      </trkpt>
      <trkpt lat="47.35053" lon="-1.40814">
        <ele>113</ele>
        <time>2021-04-22T11:03:38.000Z</time>
      </trkpt>
      <trkpt lat="47.35063" lon="-1.40802">
        <ele>113</ele>
        <time>2021-04-22T11:03:40.000Z</time>
      </trkpt>
      <trkpt lat="47.35072" lon="-1.40791">
        <ele>113</ele>
        <time>2021-04-22T11:03:42.000Z</time>
      </trkpt>
      <trkpt lat="47.35082" lon="-1.4078">
        <ele>113</ele>
        <time>2021-04-22T11:03:44.000Z</time>
      </trkpt>
      <trkpt lat="47.35092" lon="-1.40769">
        <ele>114</ele>
        <time>2021-04-22T11:03:46.000Z</time>
      </trkpt>
      <trkpt lat="47.35101" lon="-1.40758">
        <ele>114</ele>
        <time>2021-04-22T11:03:48.000Z</time>
      </trkpt>
      <trkpt lat="47.35111" lon="-1.40746">
        <ele>114</ele>
        <time>2021-04-22T11:03:50.000Z</time>
      </trkpt>
      <trkpt lat="47.35121" lon="-1.40735">
        <ele>114</ele>
        <time>2021-04-22T11:03:52.000Z</time>
      </trkpt>
      <trkpt lat="47.35131" lon="-1.40725">
        <ele>114</ele>
        <time>2021-04-22T11:03:54.000Z</time>
      </trkpt>
      <trkpt lat="47.35141" lon="-1.40714">
        <ele>114</ele>
        <time>2021-04-22T11:03:56.000Z</time>
      </trkpt>
      <trkpt lat="47.35151" lon="-1.40703">
        <ele>114</ele>
        <time>2021-04-22T11:03:58.000Z</time>
      </trkpt>
      <trkpt lat="47.35161" lon="-1.40693">
        <ele>113</ele>
        <time>2021-04-22T11:04:00.000Z</time>
      </trkpt>
      <trkpt lat="47.3517" lon="-1.4068">
        <ele>114</ele>
        <time>2021-04-22T11:04:02.000Z</time>
      </trkpt>
      <trkpt lat="47.3518" lon="-1.40667">
        <ele>114</ele>
        <time>2021-04-22T11:04:04.000Z</time>
      </trkpt>
      <trkpt lat="47.3519" lon="-1.40655">
        <ele>114</ele>
        <time>2021-04-22T11:04:06.000Z</time>
      </trkpt>
      <trkpt lat="47.352" lon="-1.40643">
        <ele>114</ele>
        <time>2021-04-22T11:04:08.000Z</time>
      </trkpt>
      <trkpt lat="47.3521" lon="-1.40631">
        <ele>115</ele>
        <time>2021-04-22T11:04:10.000Z</time>
      </trkpt>
      <trkpt lat="47.3522" lon="-1.40619">
        <ele>116</ele>
        <time>2021-04-22T11:04:12.000Z</time>
      </trkpt>
      <trkpt lat="47.3523" lon="-1.40606">
        <ele>115</ele>
        <time>2021-04-22T11:04:14.000Z</time>
      </trkpt>
      <trkpt lat="47.3524" lon="-1.40594">
        <ele>114</ele>
        <time>2021-04-22T11:04:16.000Z</time>
      </trkpt>
      <trkpt lat="47.3525" lon="-1.40584">
        <ele>114</ele>
        <time>2021-04-22T11:04:18.000Z</time>
      </trkpt>
      <trkpt lat="47.35258" lon="-1.40573">
        <ele>113</ele>
        <time>2021-04-22T11:04:20.000Z</time>
      </trkpt>
      <trkpt lat="47.35266" lon="-1.40564">
        <ele>114</ele>
        <time>2021-04-22T11:04:22.000Z</time>
      </trkpt>
      <trkpt lat="47.35275" lon="-1.40555">
        <ele>114</ele>
        <time>2021-04-22T11:04:24.000Z</time>
      </trkpt>
      <trkpt lat="47.35283" lon="-1.40546">
        <ele>113</ele>
        <time>2021-04-22T11:04:26.000Z</time>
      </trkpt>
      <trkpt lat="47.3529" lon="-1.40536">
        <ele>114</ele>
        <time>2021-04-22T11:04:28.000Z</time>
      </trkpt>
      <trkpt lat="47.35298" lon="-1.40528">
        <ele>113</ele>
        <time>2021-04-22T11:04:30.000Z</time>
      </trkpt>
      <trkpt lat="47.35308" lon="-1.40518">
        <ele>113</ele>
        <time>2021-04-22T11:04:32.000Z</time>
      </trkpt>
      <trkpt lat="47.35318" lon="-1.40507">
        <ele>113</ele>
        <time>2021-04-22T11:04:34.000Z</time>
      </trkpt>
      <trkpt lat="47.35328" lon="-1.40495">
        <ele>113</ele>
        <time>2021-04-22T11:04:36.000Z</time>
      </trkpt>
      <trkpt lat="47.35338" lon="-1.40483">
        <ele>113</ele>
        <time>2021-04-22T11:04:38.000Z</time>
      </trkpt>
      <trkpt lat="47.35347" lon="-1.40472">
        <ele>112</ele>
        <time>2021-04-22T11:04:40.000Z</time>
      </trkpt>
      <trkpt lat="47.35358" lon="-1.40461">
        <ele>112</ele>
        <time>2021-04-22T11:04:42.000Z</time>
      </trkpt>
      <trkpt lat="47.35367" lon="-1.40448">
        <ele>112</ele>
        <time>2021-04-22T11:04:44.000Z</time>
      </trkpt>
      <trkpt lat="47.35377" lon="-1.40436">
        <ele>112</ele>
        <time>2021-04-22T11:04:46.000Z</time>
      </trkpt>
      <trkpt lat="47.35386" lon="-1.40424">
        <ele>112</ele>
        <time>2021-04-22T11:04:48.000Z</time>
      </trkpt>
      <trkpt lat="47.35396" lon="-1.40413">
        <ele>112</ele>
        <time>2021-04-22T11:04:50.000Z</time>
      </trkpt>
      <trkpt lat="47.35405" lon="-1.40402">
        <ele>112</ele>
        <time>2021-04-22T11:04:52.000Z</time>
      </trkpt>
      <trkpt lat="47.35414" lon="-1.4039">
        <ele>112</ele>
        <time>2021-04-22T11:04:54.000Z</time>
      </trkpt>
      <trkpt lat="47.35423" lon="-1.40379">
        <ele>112</ele>
        <time>2021-04-22T11:04:56.000Z</time>
      </trkpt>
      <trkpt lat="47.35432" lon="-1.40368">
        <ele>112</ele>
        <time>2021-04-22T11:04:58.000Z</time>
      </trkpt>
      <trkpt lat="47.35443" lon="-1.40357">
        <ele>113</ele>
        <time>2021-04-22T11:05:00.000Z</time>
      </trkpt>
      <trkpt lat="47.35454" lon="-1.40346">
        <ele>113</ele>
        <time>2021-04-22T11:05:02.000Z</time>
      </trkpt>
      <trkpt lat="47.35465" lon="-1.40334">
        <ele>114</ele>
        <time>2021-04-22T11:05:04.000Z</time>
      </trkpt>
      <trkpt lat="47.35475" lon="-1.40321">
        <ele>114</ele>
        <time>2021-04-22T11:05:06.000Z</time>
      </trkpt>
      <trkpt lat="47.35485" lon="-1.4031">
        <ele>113</ele>
        <time>2021-04-22T11:05:08.000Z</time>
      </trkpt>
      <trkpt lat="47.35495" lon="-1.40299">
        <ele>113</ele>
        <time>2021-04-22T11:05:10.000Z</time>
      </trkpt>
      <trkpt lat="47.35503" lon="-1.40289">
        <ele>113</ele>
        <time>2021-04-22T11:05:12.000Z</time>
      </trkpt>
      <trkpt lat="47.35512" lon="-1.40279">
        <ele>113</ele>
        <time>2021-04-22T11:05:14.000Z</time>
      </trkpt>
      <trkpt lat="47.3552" lon="-1.40269">
        <ele>113</ele>
        <time>2021-04-22T11:05:16.000Z</time>
      </trkpt>
      <trkpt lat="47.35526" lon="-1.4026">
        <ele>113</ele>
        <time>2021-04-22T11:05:18.000Z</time>
      </trkpt>
      <trkpt lat="47.35534" lon="-1.40253">
        <ele>113</ele>
        <time>2021-04-22T11:05:20.000Z</time>
      </trkpt>
      <trkpt lat="47.35543" lon="-1.40241">
        <ele>113</ele>
        <time>2021-04-22T11:05:23.000Z</time>
      </trkpt>
      <trkpt lat="47.35553" lon="-1.40233">
        <ele>113</ele>
        <time>2021-04-22T11:05:26.000Z</time>
      </trkpt>
      <trkpt lat="47.35561" lon="-1.40219">
        <ele>114</ele>
        <time>2021-04-22T11:05:29.000Z</time>
      </trkpt>
      <trkpt lat="47.35572" lon="-1.40208">
        <ele>113</ele>
        <time>2021-04-22T11:05:32.000Z</time>
      </trkpt>
      <trkpt lat="47.35581" lon="-1.40197">
        <ele>114</ele>
        <time>2021-04-22T11:05:34.000Z</time>
      </trkpt>
      <trkpt lat="47.35592" lon="-1.40185">
        <ele>114</ele>
        <time>2021-04-22T11:05:36.000Z</time>
      </trkpt>
      <trkpt lat="47.35602" lon="-1.40173">
        <ele>114</ele>
        <time>2021-04-22T11:05:38.000Z</time>
      </trkpt>
      <trkpt lat="47.35612" lon="-1.40162">
        <ele>114</ele>
        <time>2021-04-22T11:05:40.000Z</time>
      </trkpt>
      <trkpt lat="47.35621" lon="-1.4015">
        <ele>114</ele>
        <time>2021-04-22T11:05:42.000Z</time>
      </trkpt>
      <trkpt lat="47.35631" lon="-1.40139">
        <ele>114</ele>
        <time>2021-04-22T11:05:44.000Z</time>
      </trkpt>
      <trkpt lat="47.35641" lon="-1.40128">
        <ele>113</ele>
        <time>2021-04-22T11:05:46.000Z</time>
      </trkpt>
      <trkpt lat="47.35651" lon="-1.40116">
        <ele>113</ele>
        <time>2021-04-22T11:05:48.000Z</time>
      </trkpt>
      <trkpt lat="47.35661" lon="-1.40105">
        <ele>113</ele>
        <time>2021-04-22T11:05:50.000Z</time>
      </trkpt>
      <trkpt lat="47.35671" lon="-1.40094">
        <ele>114</ele>
        <time>2021-04-22T11:05:52.000Z</time>
      </trkpt>
      <trkpt lat="47.35681" lon="-1.40082">
        <ele>114</ele>
        <time>2021-04-22T11:05:54.000Z</time>
      </trkpt>
      <trkpt lat="47.3569" lon="-1.4007">
        <ele>114</ele>
        <time>2021-04-22T11:05:56.000Z</time>
      </trkpt>
      <trkpt lat="47.35699" lon="-1.40059">
        <ele>114</ele>
        <time>2021-04-22T11:05:58.000Z</time>
      </trkpt>
      <trkpt lat="47.35709" lon="-1.40047">
        <ele>114</ele>
        <time>2021-04-22T11:06:00.000Z</time>
      </trkpt>
      <trkpt lat="47.35719" lon="-1.40036">
        <ele>114</ele>
        <time>2021-04-22T11:06:02.000Z</time>
      </trkpt>
      <trkpt lat="47.35728" lon="-1.40024">
        <ele>114</ele>
        <time>2021-04-22T11:06:04.000Z</time>
      </trkpt>
      <trkpt lat="47.35738" lon="-1.40012">
        <ele>113</ele>
        <time>2021-04-22T11:06:06.000Z</time>
      </trkpt>
      <trkpt lat="47.35747" lon="-1.40002">
        <ele>114</ele>
        <time>2021-04-22T11:06:08.000Z</time>
      </trkpt>
      <trkpt lat="47.35757" lon="-1.3999">
        <ele>114</ele>
        <time>2021-04-22T11:06:10.000Z</time>
      </trkpt>
      <trkpt lat="47.35766" lon="-1.39979">
        <ele>113</ele>
        <time>2021-04-22T11:06:12.000Z</time>
      </trkpt>
      <trkpt lat="47.35776" lon="-1.39968">
        <ele>113</ele>
        <time>2021-04-22T11:06:14.000Z</time>
      </trkpt>
      <trkpt lat="47.35787" lon="-1.39957">
        <ele>114</ele>
        <time>2021-04-22T11:06:16.000Z</time>
      </trkpt>
      <trkpt lat="47.35796" lon="-1.39945">
        <ele>114</ele>
        <time>2021-04-22T11:06:18.000Z</time>
      </trkpt>
      <trkpt lat="47.35806" lon="-1.39933">
        <ele>114</ele>
        <time>2021-04-22T11:06:20.000Z</time>
      </trkpt>
      <trkpt lat="47.35816" lon="-1.39921">
        <ele>114</ele>
        <time>2021-04-22T11:06:22.000Z</time>
      </trkpt>
      <trkpt lat="47.35826" lon="-1.3991">
        <ele>115</ele>
        <time>2021-04-22T11:06:24.000Z</time>
      </trkpt>
      <trkpt lat="47.35836" lon="-1.39898">
        <ele>115</ele>
        <time>2021-04-22T11:06:26.000Z</time>
      </trkpt>
      <trkpt lat="47.35847" lon="-1.39886">
        <ele>115</ele>
        <time>2021-04-22T11:06:28.000Z</time>
      </trkpt>
      <trkpt lat="47.35857" lon="-1.39874">
        <ele>115</ele>
        <time>2021-04-22T11:06:30.000Z</time>
      </trkpt>
      <trkpt lat="47.35867" lon="-1.39862">
        <ele>115</ele>
        <time>2021-04-22T11:06:32.000Z</time>
      </trkpt>
      <trkpt lat="47.35877" lon="-1.3985">
        <ele>115</ele>
        <time>2021-04-22T11:06:34.000Z</time>
      </trkpt>
      <trkpt lat="47.35888" lon="-1.39839">
        <ele>115</ele>
        <time>2021-04-22T11:06:36.000Z</time>
      </trkpt>
      <trkpt lat="47.35897" lon="-1.39826">
        <ele>114</ele>
        <time>2021-04-22T11:06:38.000Z</time>
      </trkpt>
      <trkpt lat="47.35907" lon="-1.39815">
        <ele>114</ele>
        <time>2021-04-22T11:06:40.000Z</time>
      </trkpt>
      <trkpt lat="47.35917" lon="-1.39804">
        <ele>114</ele>
        <time>2021-04-22T11:06:42.000Z</time>
      </trkpt>
      <trkpt lat="47.35927" lon="-1.39792">
        <ele>114</ele>
        <time>2021-04-22T11:06:44.000Z</time>
      </trkpt>
      <trkpt lat="47.35937" lon="-1.39781">
        <ele>113</ele>
        <time>2021-04-22T11:06:46.000Z</time>
      </trkpt>
      <trkpt lat="47.35947" lon="-1.3977">
        <ele>113</ele>
        <time>2021-04-22T11:06:48.000Z</time>
      </trkpt>
      <trkpt lat="47.35956" lon="-1.3976">
        <ele>113</ele>
        <time>2021-04-22T11:06:50.000Z</time>
      </trkpt>
      <trkpt lat="47.35966" lon="-1.39748">
        <ele>114</ele>
        <time>2021-04-22T11:06:52.000Z</time>
      </trkpt>
      <trkpt lat="47.35976" lon="-1.39737">
        <ele>114</ele>
        <time>2021-04-22T11:06:54.000Z</time>
      </trkpt>
      <trkpt lat="47.35986" lon="-1.39725">
        <ele>114</ele>
        <time>2021-04-22T11:06:56.000Z</time>
      </trkpt>
      <trkpt lat="47.35997" lon="-1.39713">
        <ele>114</ele>
        <time>2021-04-22T11:06:58.000Z</time>
      </trkpt>
      <trkpt lat="47.36006" lon="-1.397">
        <ele>114</ele>
        <time>2021-04-22T11:07:00.000Z</time>
      </trkpt>
      <trkpt lat="47.36015" lon="-1.39688">
        <ele>113</ele>
        <time>2021-04-22T11:07:02.000Z</time>
      </trkpt>
      <trkpt lat="47.36025" lon="-1.39677">
        <ele>113</ele>
        <time>2021-04-22T11:07:04.000Z</time>
      </trkpt>
      <trkpt lat="47.36034" lon="-1.39667">
        <ele>113</ele>
        <time>2021-04-22T11:07:06.000Z</time>
      </trkpt>
      <trkpt lat="47.36042" lon="-1.39656">
        <ele>113</ele>
        <time>2021-04-22T11:07:08.000Z</time>
      </trkpt>
      <trkpt lat="47.3605" lon="-1.39649">
        <ele>112</ele>
        <time>2021-04-22T11:07:10.000Z</time>
      </trkpt>
      <trkpt lat="47.36056" lon="-1.39639">
        <ele>112</ele>
        <time>2021-04-22T11:07:12.000Z</time>
      </trkpt>
      <trkpt lat="47.36065" lon="-1.39627">
        <ele>112</ele>
        <time>2021-04-22T11:07:15.000Z</time>
      </trkpt>
      <trkpt lat="47.36075" lon="-1.39616">
        <ele>112</ele>
        <time>2021-04-22T11:07:17.000Z</time>
      </trkpt>
      <trkpt lat="47.36087" lon="-1.39603">
        <ele>111</ele>
        <time>2021-04-22T11:07:19.000Z</time>
      </trkpt>
      <trkpt lat="47.36098" lon="-1.3959">
        <ele>111</ele>
        <time>2021-04-22T11:07:21.000Z</time>
      </trkpt>
      <trkpt lat="47.36109" lon="-1.39576">
        <ele>110</ele>
        <time>2021-04-22T11:07:23.000Z</time>
      </trkpt>
      <trkpt lat="47.36122" lon="-1.39563">
        <ele>111</ele>
        <time>2021-04-22T11:07:25.000Z</time>
      </trkpt>
      <trkpt lat="47.36133" lon="-1.39551">
        <ele>111</ele>
        <time>2021-04-22T11:07:27.000Z</time>
      </trkpt>
      <trkpt lat="47.36144" lon="-1.39538">
        <ele>111</ele>
        <time>2021-04-22T11:07:29.000Z</time>
      </trkpt>
      <trkpt lat="47.36155" lon="-1.39526">
        <ele>111</ele>
        <time>2021-04-22T11:07:31.000Z</time>
      </trkpt>
      <trkpt lat="47.36166" lon="-1.39513">
        <ele>111</ele>
        <time>2021-04-22T11:07:33.000Z</time>
      </trkpt>
      <trkpt lat="47.36177" lon="-1.395">
        <ele>111</ele>
        <time>2021-04-22T11:07:35.000Z</time>
      </trkpt>
      <trkpt lat="47.36188" lon="-1.39488">
        <ele>111</ele>
        <time>2021-04-22T11:07:37.000Z</time>
      </trkpt>
      <trkpt lat="47.36198" lon="-1.39474">
        <ele>111</ele>
        <time>2021-04-22T11:07:39.000Z</time>
      </trkpt>
      <trkpt lat="47.3621" lon="-1.39462">
        <ele>110</ele>
        <time>2021-04-22T11:07:41.000Z</time>
      </trkpt>
      <trkpt lat="47.36221" lon="-1.3945">
        <ele>110</ele>
        <time>2021-04-22T11:07:43.000Z</time>
      </trkpt>
      <trkpt lat="47.36231" lon="-1.39437">
        <ele>110</ele>
        <time>2021-04-22T11:07:45.000Z</time>
      </trkpt>
      <trkpt lat="47.36242" lon="-1.39425">
        <ele>110</ele>
        <time>2021-04-22T11:07:47.000Z</time>
      </trkpt>
      <trkpt lat="47.36253" lon="-1.39414">
        <ele>110</ele>
        <time>2021-04-22T11:07:49.000Z</time>
      </trkpt>
      <trkpt lat="47.36264" lon="-1.39402">
        <ele>109</ele>
        <time>2021-04-22T11:07:51.000Z</time>
      </trkpt>
      <trkpt lat="47.36274" lon="-1.3939">
        <ele>110</ele>
        <time>2021-04-22T11:07:53.000Z</time>
      </trkpt>
      <trkpt lat="47.36283" lon="-1.39378">
        <ele>109</ele>
        <time>2021-04-22T11:07:55.000Z</time>
      </trkpt>
      <trkpt lat="47.36293" lon="-1.39366">
        <ele>109</ele>
        <time>2021-04-22T11:07:57.000Z</time>
      </trkpt>
      <trkpt lat="47.36302" lon="-1.39355">
        <ele>109</ele>
        <time>2021-04-22T11:07:59.000Z</time>
      </trkpt>
      <trkpt lat="47.36312" lon="-1.39342">
        <ele>109</ele>
        <time>2021-04-22T11:08:02.000Z</time>
      </trkpt>
      <trkpt lat="47.36321" lon="-1.39332">
        <ele>109</ele>
        <time>2021-04-22T11:08:05.000Z</time>
      </trkpt>
      <trkpt lat="47.3633" lon="-1.39322">
        <ele>108</ele>
        <time>2021-04-22T11:08:07.000Z</time>
      </trkpt>
      <trkpt lat="47.3634" lon="-1.39311">
        <ele>108</ele>
        <time>2021-04-22T11:08:09.000Z</time>
      </trkpt>
      <trkpt lat="47.3635" lon="-1.39299">
        <ele>108</ele>
        <time>2021-04-22T11:08:11.000Z</time>
      </trkpt>
      <trkpt lat="47.36361" lon="-1.39286">
        <ele>108</ele>
        <time>2021-04-22T11:08:13.000Z</time>
      </trkpt>
      <trkpt lat="47.36371" lon="-1.39274">
        <ele>108</ele>
        <time>2021-04-22T11:08:15.000Z</time>
      </trkpt>
      <trkpt lat="47.36382" lon="-1.39261">
        <ele>107</ele>
        <time>2021-04-22T11:08:17.000Z</time>
      </trkpt>
      <trkpt lat="47.36392" lon="-1.39248">
        <ele>107</ele>
        <time>2021-04-22T11:08:19.000Z</time>
      </trkpt>
      <trkpt lat="47.36403" lon="-1.39236">
        <ele>107</ele>
        <time>2021-04-22T11:08:21.000Z</time>
      </trkpt>
      <trkpt lat="47.36413" lon="-1.39225">
        <ele>107</ele>
        <time>2021-04-22T11:08:23.000Z</time>
      </trkpt>
      <trkpt lat="47.36423" lon="-1.39213">
        <ele>107</ele>
        <time>2021-04-22T11:08:25.000Z</time>
      </trkpt>
      <trkpt lat="47.36434" lon="-1.39201">
        <ele>107</ele>
        <time>2021-04-22T11:08:27.000Z</time>
      </trkpt>
      <trkpt lat="47.36445" lon="-1.3919">
        <ele>107</ele>
        <time>2021-04-22T11:08:29.000Z</time>
      </trkpt>
      <trkpt lat="47.36455" lon="-1.39179">
        <ele>107</ele>
        <time>2021-04-22T11:08:31.000Z</time>
      </trkpt>
      <trkpt lat="47.36465" lon="-1.39168">
        <ele>108</ele>
        <time>2021-04-22T11:08:33.000Z</time>
      </trkpt>
      <trkpt lat="47.36474" lon="-1.39156">
        <ele>108</ele>
        <time>2021-04-22T11:08:35.000Z</time>
      </trkpt>
      <trkpt lat="47.36485" lon="-1.39144">
        <ele>108</ele>
        <time>2021-04-22T11:08:37.000Z</time>
      </trkpt>
      <trkpt lat="47.36496" lon="-1.39131">
        <ele>108</ele>
        <time>2021-04-22T11:08:39.000Z</time>
      </trkpt>
      <trkpt lat="47.36507" lon="-1.39118">
        <ele>108</ele>
        <time>2021-04-22T11:08:41.000Z</time>
      </trkpt>
      <trkpt lat="47.36517" lon="-1.39105">
        <ele>108</ele>
        <time>2021-04-22T11:08:43.000Z</time>
      </trkpt>
      <trkpt lat="47.36527" lon="-1.39092">
        <ele>108</ele>
        <time>2021-04-22T11:08:45.000Z</time>
      </trkpt>
      <trkpt lat="47.36536" lon="-1.39079">
        <ele>109</ele>
        <time>2021-04-22T11:08:47.000Z</time>
      </trkpt>
      <trkpt lat="47.36546" lon="-1.39067">
        <ele>108</ele>
        <time>2021-04-22T11:08:49.000Z</time>
      </trkpt>
      <trkpt lat="47.36555" lon="-1.39055">
        <ele>108</ele>
        <time>2021-04-22T11:08:51.000Z</time>
      </trkpt>
      <trkpt lat="47.36565" lon="-1.39044">
        <ele>109</ele>
        <time>2021-04-22T11:08:53.000Z</time>
      </trkpt>
      <trkpt lat="47.36574" lon="-1.39034">
        <ele>108</ele>
        <time>2021-04-22T11:08:55.000Z</time>
      </trkpt>
      <trkpt lat="47.36583" lon="-1.39023">
        <ele>108</ele>
        <time>2021-04-22T11:08:57.000Z</time>
      </trkpt>
      <trkpt lat="47.3659" lon="-1.39015">
        <ele>108</ele>
        <time>2021-04-22T11:08:59.000Z</time>
      </trkpt>
      <trkpt lat="47.36598" lon="-1.39006">
        <ele>109</ele>
        <time>2021-04-22T11:09:01.000Z</time>
      </trkpt>
      <trkpt lat="47.36605" lon="-1.38994">
        <ele>109</ele>
        <time>2021-04-22T11:09:04.000Z</time>
      </trkpt>
      <trkpt lat="47.36613" lon="-1.38984">
        <ele>109</ele>
        <time>2021-04-22T11:09:08.000Z</time>
      </trkpt>
      <trkpt lat="47.36607" lon="-1.3897">
        <ele>109</ele>
        <time>2021-04-22T11:09:11.000Z</time>
      </trkpt>
      <trkpt lat="47.366" lon="-1.38958">
        <ele>109</ele>
        <time>2021-04-22T11:09:13.000Z</time>
      </trkpt>
      <trkpt lat="47.36593" lon="-1.38943">
        <ele>109</ele>
        <time>2021-04-22T11:09:15.000Z</time>
      </trkpt>
      <trkpt lat="47.36586" lon="-1.38928">
        <ele>110</ele>
        <time>2021-04-22T11:09:17.000Z</time>
      </trkpt>
      <trkpt lat="47.36579" lon="-1.38912">
        <ele>109</ele>
        <time>2021-04-22T11:09:19.000Z</time>
      </trkpt>
      <trkpt lat="47.36571" lon="-1.38897">
        <ele>110</ele>
        <time>2021-04-22T11:09:21.000Z</time>
      </trkpt>
      <trkpt lat="47.36564" lon="-1.38881">
        <ele>110</ele>
        <time>2021-04-22T11:09:23.000Z</time>
      </trkpt>
      <trkpt lat="47.36556" lon="-1.38866">
        <ele>110</ele>
        <time>2021-04-22T11:09:25.000Z</time>
      </trkpt>
      <trkpt lat="47.36549" lon="-1.38851">
        <ele>109</ele>
        <time>2021-04-22T11:09:27.000Z</time>
      </trkpt>
      <trkpt lat="47.36543" lon="-1.38837">
        <ele>109</ele>
        <time>2021-04-22T11:09:29.000Z</time>
      </trkpt>
      <trkpt lat="47.36537" lon="-1.38823">
        <ele>109</ele>
        <time>2021-04-22T11:09:31.000Z</time>
      </trkpt>
      <trkpt lat="47.3653" lon="-1.38808">
        <ele>109</ele>
        <time>2021-04-22T11:09:33.000Z</time>
      </trkpt>
      <trkpt lat="47.36523" lon="-1.38794">
        <ele>109</ele>
        <time>2021-04-22T11:09:35.000Z</time>
      </trkpt>
      <trkpt lat="47.36516" lon="-1.38779">
        <ele>110</ele>
        <time>2021-04-22T11:09:37.000Z</time>
      </trkpt>
      <trkpt lat="47.36509" lon="-1.38764">
        <ele>110</ele>
        <time>2021-04-22T11:09:39.000Z</time>
      </trkpt>
      <trkpt lat="47.36502" lon="-1.38751">
        <ele>110</ele>
        <time>2021-04-22T11:09:41.000Z</time>
      </trkpt>
      <trkpt lat="47.36495" lon="-1.38736">
        <ele>110</ele>
        <time>2021-04-22T11:09:43.000Z</time>
      </trkpt>
      <trkpt lat="47.36488" lon="-1.38722">
        <ele>110</ele>
        <time>2021-04-22T11:09:45.000Z</time>
      </trkpt>
      <trkpt lat="47.36481" lon="-1.38708">
        <ele>110</ele>
        <time>2021-04-22T11:09:47.000Z</time>
      </trkpt>
      <trkpt lat="47.36475" lon="-1.38694">
        <ele>110</ele>
        <time>2021-04-22T11:09:49.000Z</time>
      </trkpt>
      <trkpt lat="47.36468" lon="-1.38679">
        <ele>110</ele>
        <time>2021-04-22T11:09:51.000Z</time>
      </trkpt>
      <trkpt lat="47.36461" lon="-1.38664">
        <ele>110</ele>
        <time>2021-04-22T11:09:53.000Z</time>
      </trkpt>
      <trkpt lat="47.36454" lon="-1.3865">
        <ele>110</ele>
        <time>2021-04-22T11:09:55.000Z</time>
      </trkpt>
      <trkpt lat="47.36447" lon="-1.38634">
        <ele>110</ele>
        <time>2021-04-22T11:09:57.000Z</time>
      </trkpt>
      <trkpt lat="47.3644" lon="-1.3862">
        <ele>110</ele>
        <time>2021-04-22T11:09:59.000Z</time>
      </trkpt>
      <trkpt lat="47.36433" lon="-1.38604">
        <ele>110</ele>
        <time>2021-04-22T11:10:01.000Z</time>
      </trkpt>
      <trkpt lat="47.36425" lon="-1.3859">
        <ele>110</ele>
        <time>2021-04-22T11:10:03.000Z</time>
      </trkpt>
      <trkpt lat="47.36418" lon="-1.38575">
        <ele>111</ele>
        <time>2021-04-22T11:10:05.000Z</time>
      </trkpt>
      <trkpt lat="47.36411" lon="-1.38561">
        <ele>111</ele>
        <time>2021-04-22T11:10:07.000Z</time>
      </trkpt>
      <trkpt lat="47.36402" lon="-1.38547">
        <ele>111</ele>
        <time>2021-04-22T11:10:09.000Z</time>
      </trkpt>
      <trkpt lat="47.36394" lon="-1.38535">
        <ele>111</ele>
        <time>2021-04-22T11:10:11.000Z</time>
      </trkpt>
      <trkpt lat="47.36385" lon="-1.38522">
        <ele>112</ele>
        <time>2021-04-22T11:10:13.000Z</time>
      </trkpt>
      <trkpt lat="47.36377" lon="-1.38509">
        <ele>112</ele>
        <time>2021-04-22T11:10:15.000Z</time>
      </trkpt>
      <trkpt lat="47.36368" lon="-1.38496">
        <ele>112</ele>
        <time>2021-04-22T11:10:17.000Z</time>
      </trkpt>
      <trkpt lat="47.3636" lon="-1.38483">
        <ele>113</ele>
        <time>2021-04-22T11:10:19.000Z</time>
      </trkpt>
      <trkpt lat="47.36353" lon="-1.3847">
        <ele>113</ele>
        <time>2021-04-22T11:10:21.000Z</time>
      </trkpt>
      <trkpt lat="47.36344" lon="-1.38457">
        <ele>113</ele>
        <time>2021-04-22T11:10:23.000Z</time>
      </trkpt>
      <trkpt lat="47.36336" lon="-1.38444">
        <ele>113</ele>
        <time>2021-04-22T11:10:25.000Z</time>
      </trkpt>
      <trkpt lat="47.36327" lon="-1.38431">
        <ele>113</ele>
        <time>2021-04-22T11:10:27.000Z</time>
      </trkpt>
      <trkpt lat="47.36318" lon="-1.38417">
        <ele>113</ele>
        <time>2021-04-22T11:10:29.000Z</time>
      </trkpt>
      <trkpt lat="47.36309" lon="-1.38404">
        <ele>113</ele>
        <time>2021-04-22T11:10:31.000Z</time>
      </trkpt>
      <trkpt lat="47.363" lon="-1.3839">
        <ele>113</ele>
        <time>2021-04-22T11:10:33.000Z</time>
      </trkpt>
      <trkpt lat="47.36291" lon="-1.38377">
        <ele>113</ele>
        <time>2021-04-22T11:10:35.000Z</time>
      </trkpt>
      <trkpt lat="47.36282" lon="-1.38364">
        <ele>113</ele>
        <time>2021-04-22T11:10:37.000Z</time>
      </trkpt>
      <trkpt lat="47.36273" lon="-1.38351">
        <ele>113</ele>
        <time>2021-04-22T11:10:39.000Z</time>
      </trkpt>
      <trkpt lat="47.36264" lon="-1.38337">
        <ele>113</ele>
        <time>2021-04-22T11:10:41.000Z</time>
      </trkpt>
      <trkpt lat="47.36256" lon="-1.38324">
        <ele>113</ele>
        <time>2021-04-22T11:10:43.000Z</time>
      </trkpt>
      <trkpt lat="47.36247" lon="-1.38311">
        <ele>113</ele>
        <time>2021-04-22T11:10:45.000Z</time>
      </trkpt>
      <trkpt lat="47.36238" lon="-1.38297">
        <ele>113</ele>
        <time>2021-04-22T11:10:47.000Z</time>
      </trkpt>
      <trkpt lat="47.36229" lon="-1.38283">
        <ele>114</ele>
        <time>2021-04-22T11:10:49.000Z</time>
      </trkpt>
      <trkpt lat="47.3622" lon="-1.38269">
        <ele>114</ele>
        <time>2021-04-22T11:10:51.000Z</time>
      </trkpt>
      <trkpt lat="47.3621" lon="-1.38256">
        <ele>114</ele>
        <time>2021-04-22T11:10:53.000Z</time>
      </trkpt>
      <trkpt lat="47.36201" lon="-1.38243">
        <ele>114</ele>
        <time>2021-04-22T11:10:55.000Z</time>
      </trkpt>
      <trkpt lat="47.36192" lon="-1.3823">
        <ele>114</ele>
        <time>2021-04-22T11:10:57.000Z</time>
      </trkpt>
      <trkpt lat="47.36183" lon="-1.38217">
        <ele>114</ele>
        <time>2021-04-22T11:10:59.000Z</time>
      </trkpt>
      <trkpt lat="47.36174" lon="-1.38204">
        <ele>114</ele>
        <time>2021-04-22T11:11:01.000Z</time>
      </trkpt>
      <trkpt lat="47.36166" lon="-1.3819">
        <ele>114</ele>
        <time>2021-04-22T11:11:03.000Z</time>
      </trkpt>
      <trkpt lat="47.36157" lon="-1.38177">
        <ele>114</ele>
        <time>2021-04-22T11:11:05.000Z</time>
      </trkpt>
      <trkpt lat="47.36148" lon="-1.38163">
        <ele>114</ele>
        <time>2021-04-22T11:11:07.000Z</time>
      </trkpt>
      <trkpt lat="47.36139" lon="-1.38149">
        <ele>114</ele>
        <time>2021-04-22T11:11:09.000Z</time>
      </trkpt>
      <trkpt lat="47.3613" lon="-1.38135">
        <ele>115</ele>
        <time>2021-04-22T11:11:11.000Z</time>
      </trkpt>
      <trkpt lat="47.36121" lon="-1.38122">
        <ele>115</ele>
        <time>2021-04-22T11:11:13.000Z</time>
      </trkpt>
      <trkpt lat="47.36112" lon="-1.38109">
        <ele>114</ele>
        <time>2021-04-22T11:11:15.000Z</time>
      </trkpt>
      <trkpt lat="47.36104" lon="-1.38096">
        <ele>115</ele>
        <time>2021-04-22T11:11:17.000Z</time>
      </trkpt>
      <trkpt lat="47.36095" lon="-1.38084">
        <ele>115</ele>
        <time>2021-04-22T11:11:19.000Z</time>
      </trkpt>
      <trkpt lat="47.36087" lon="-1.38071">
        <ele>115</ele>
        <time>2021-04-22T11:11:21.000Z</time>
      </trkpt>
      <trkpt lat="47.36079" lon="-1.38059">
        <ele>115</ele>
        <time>2021-04-22T11:11:23.000Z</time>
      </trkpt>
      <trkpt lat="47.3607" lon="-1.38046">
        <ele>116</ele>
        <time>2021-04-22T11:11:25.000Z</time>
      </trkpt>
      <trkpt lat="47.36061" lon="-1.38032">
        <ele>116</ele>
        <time>2021-04-22T11:11:27.000Z</time>
      </trkpt>
      <trkpt lat="47.36053" lon="-1.38018">
        <ele>116</ele>
        <time>2021-04-22T11:11:29.000Z</time>
      </trkpt>
      <trkpt lat="47.36044" lon="-1.38006">
        <ele>116</ele>
        <time>2021-04-22T11:11:31.000Z</time>
      </trkpt>
      <trkpt lat="47.36034" lon="-1.37993">
        <ele>116</ele>
        <time>2021-04-22T11:11:33.000Z</time>
      </trkpt>
      <trkpt lat="47.36026" lon="-1.37979">
        <ele>117</ele>
        <time>2021-04-22T11:11:35.000Z</time>
      </trkpt>
      <trkpt lat="47.36017" lon="-1.37966">
        <ele>117</ele>
        <time>2021-04-22T11:11:37.000Z</time>
      </trkpt>
      <trkpt lat="47.36008" lon="-1.37953">
        <ele>117</ele>
        <time>2021-04-22T11:11:39.000Z</time>
      </trkpt>
      <trkpt lat="47.35999" lon="-1.37939">
        <ele>117</ele>
        <time>2021-04-22T11:11:41.000Z</time>
      </trkpt>
      <trkpt lat="47.3599" lon="-1.37926">
        <ele>118</ele>
        <time>2021-04-22T11:11:43.000Z</time>
      </trkpt>
      <trkpt lat="47.35982" lon="-1.37913">
        <ele>118</ele>
        <time>2021-04-22T11:11:45.000Z</time>
      </trkpt>
      <trkpt lat="47.35974" lon="-1.379">
        <ele>118</ele>
        <time>2021-04-22T11:11:47.000Z</time>
      </trkpt>
      <trkpt lat="47.35965" lon="-1.37887">
        <ele>119</ele>
        <time>2021-04-22T11:11:49.000Z</time>
      </trkpt>
      <trkpt lat="47.35956" lon="-1.37874">
        <ele>119</ele>
        <time>2021-04-22T11:11:51.000Z</time>
      </trkpt>
      <trkpt lat="47.35948" lon="-1.37861">
        <ele>119</ele>
        <time>2021-04-22T11:11:53.000Z</time>
      </trkpt>
      <trkpt lat="47.35939" lon="-1.37849">
        <ele>120</ele>
        <time>2021-04-22T11:11:55.000Z</time>
      </trkpt>
      <trkpt lat="47.35931" lon="-1.37836">
        <ele>120</ele>
        <time>2021-04-22T11:11:57.000Z</time>
      </trkpt>
      <trkpt lat="47.35923" lon="-1.37824">
        <ele>120</ele>
        <time>2021-04-22T11:11:59.000Z</time>
      </trkpt>
      <trkpt lat="47.35914" lon="-1.37812">
        <ele>120</ele>
        <time>2021-04-22T11:12:01.000Z</time>
      </trkpt>
      <trkpt lat="47.35905" lon="-1.37799">
        <ele>120</ele>
        <time>2021-04-22T11:12:03.000Z</time>
      </trkpt>
      <trkpt lat="47.35897" lon="-1.37786">
        <ele>120</ele>
        <time>2021-04-22T11:12:05.000Z</time>
      </trkpt>
      <trkpt lat="47.35888" lon="-1.37773">
        <ele>120</ele>
        <time>2021-04-22T11:12:07.000Z</time>
      </trkpt>
      <trkpt lat="47.35881" lon="-1.37761">
        <ele>121</ele>
        <time>2021-04-22T11:12:09.000Z</time>
      </trkpt>
      <trkpt lat="47.35872" lon="-1.37748">
        <ele>121</ele>
        <time>2021-04-22T11:12:11.000Z</time>
      </trkpt>
      <trkpt lat="47.35864" lon="-1.37736">
        <ele>121</ele>
        <time>2021-04-22T11:12:13.000Z</time>
      </trkpt>
      <trkpt lat="47.35856" lon="-1.37723">
        <ele>121</ele>
        <time>2021-04-22T11:12:15.000Z</time>
      </trkpt>
      <trkpt lat="47.35847" lon="-1.37711">
        <ele>121</ele>
        <time>2021-04-22T11:12:17.000Z</time>
      </trkpt>
      <trkpt lat="47.35839" lon="-1.37699">
        <ele>121</ele>
        <time>2021-04-22T11:12:19.000Z</time>
      </trkpt>
      <trkpt lat="47.35831" lon="-1.37687">
        <ele>121</ele>
        <time>2021-04-22T11:12:21.000Z</time>
      </trkpt>
      <trkpt lat="47.35823" lon="-1.37675">
        <ele>121</ele>
        <time>2021-04-22T11:12:23.000Z</time>
      </trkpt>
      <trkpt lat="47.35815" lon="-1.37663">
        <ele>121</ele>
        <time>2021-04-22T11:12:25.000Z</time>
      </trkpt>
      <trkpt lat="47.35807" lon="-1.37651">
        <ele>122</ele>
        <time>2021-04-22T11:12:27.000Z</time>
      </trkpt>
      <trkpt lat="47.35798" lon="-1.37638">
        <ele>122</ele>
        <time>2021-04-22T11:12:29.000Z</time>
      </trkpt>
      <trkpt lat="47.3579" lon="-1.37626">
        <ele>123</ele>
        <time>2021-04-22T11:12:31.000Z</time>
      </trkpt>
      <trkpt lat="47.35781" lon="-1.37613">
        <ele>123</ele>
        <time>2021-04-22T11:12:33.000Z</time>
      </trkpt>
      <trkpt lat="47.35773" lon="-1.376">
        <ele>123</ele>
        <time>2021-04-22T11:12:35.000Z</time>
      </trkpt>
      <trkpt lat="47.35764" lon="-1.37588">
        <ele>123</ele>
        <time>2021-04-22T11:12:37.000Z</time>
      </trkpt>
      <trkpt lat="47.35756" lon="-1.37575">
        <ele>124</ele>
        <time>2021-04-22T11:12:39.000Z</time>
      </trkpt>
      <trkpt lat="47.35748" lon="-1.37563">
        <ele>124</ele>
        <time>2021-04-22T11:12:41.000Z</time>
      </trkpt>
      <trkpt lat="47.3574" lon="-1.3755">
        <ele>125</ele>
        <time>2021-04-22T11:12:43.000Z</time>
      </trkpt>
      <trkpt lat="47.35731" lon="-1.37537">
        <ele>124</ele>
        <time>2021-04-22T11:12:45.000Z</time>
      </trkpt>
      <trkpt lat="47.35723" lon="-1.37525">
        <ele>124</ele>
        <time>2021-04-22T11:12:47.000Z</time>
      </trkpt>
      <trkpt lat="47.35714" lon="-1.37512">
        <ele>124</ele>
        <time>2021-04-22T11:12:49.000Z</time>
      </trkpt>
      <trkpt lat="47.35706" lon="-1.375">
        <ele>123</ele>
        <time>2021-04-22T11:12:51.000Z</time>
      </trkpt>
      <trkpt lat="47.35698" lon="-1.37487">
        <ele>123</ele>
        <time>2021-04-22T11:12:53.000Z</time>
      </trkpt>
      <trkpt lat="47.3569" lon="-1.37475">
        <ele>123</ele>
        <time>2021-04-22T11:12:55.000Z</time>
      </trkpt>
      <trkpt lat="47.35681" lon="-1.37462">
        <ele>124</ele>
        <time>2021-04-22T11:12:57.000Z</time>
      </trkpt>
      <trkpt lat="47.35673" lon="-1.3745">
        <ele>124</ele>
        <time>2021-04-22T11:12:59.000Z</time>
      </trkpt>
      <trkpt lat="47.35665" lon="-1.37438">
        <ele>124</ele>
        <time>2021-04-22T11:13:01.000Z</time>
      </trkpt>
      <trkpt lat="47.35657" lon="-1.37425">
        <ele>124</ele>
        <time>2021-04-22T11:13:03.000Z</time>
      </trkpt>
      <trkpt lat="47.35648" lon="-1.37412">
        <ele>123</ele>
        <time>2021-04-22T11:13:05.000Z</time>
      </trkpt>
      <trkpt lat="47.3564" lon="-1.374">
        <ele>123</ele>
        <time>2021-04-22T11:13:07.000Z</time>
      </trkpt>
      <trkpt lat="47.35632" lon="-1.37387">
        <ele>123</ele>
        <time>2021-04-22T11:13:09.000Z</time>
      </trkpt>
      <trkpt lat="47.35623" lon="-1.37374">
        <ele>123</ele>
        <time>2021-04-22T11:13:11.000Z</time>
      </trkpt>
      <trkpt lat="47.35615" lon="-1.37361">
        <ele>123</ele>
        <time>2021-04-22T11:13:13.000Z</time>
      </trkpt>
      <trkpt lat="47.35606" lon="-1.37348">
        <ele>123</ele>
        <time>2021-04-22T11:13:15.000Z</time>
      </trkpt>
      <trkpt lat="47.35597" lon="-1.37335">
        <ele>123</ele>
        <time>2021-04-22T11:13:17.000Z</time>
      </trkpt>
      <trkpt lat="47.35589" lon="-1.37322">
        <ele>123</ele>
        <time>2021-04-22T11:13:19.000Z</time>
      </trkpt>
      <trkpt lat="47.3558" lon="-1.37309">
        <ele>123</ele>
        <time>2021-04-22T11:13:21.000Z</time>
      </trkpt>
      <trkpt lat="47.35571" lon="-1.37296">
        <ele>123</ele>
        <time>2021-04-22T11:13:23.000Z</time>
      </trkpt>
      <trkpt lat="47.35562" lon="-1.37283">
        <ele>123</ele>
        <time>2021-04-22T11:13:25.000Z</time>
      </trkpt>
      <trkpt lat="47.35553" lon="-1.37271">
        <ele>123</ele>
        <time>2021-04-22T11:13:27.000Z</time>
      </trkpt>
      <trkpt lat="47.35544" lon="-1.37258">
        <ele>123</ele>
        <time>2021-04-22T11:13:29.000Z</time>
      </trkpt>
      <trkpt lat="47.35534" lon="-1.37243">
        <ele>123</ele>
        <time>2021-04-22T11:13:31.000Z</time>
      </trkpt>
      <trkpt lat="47.35525" lon="-1.37229">
        <ele>123</ele>
        <time>2021-04-22T11:13:33.000Z</time>
      </trkpt>
      <trkpt lat="47.35517" lon="-1.37216">
        <ele>124</ele>
        <time>2021-04-22T11:13:35.000Z</time>
      </trkpt>
      <trkpt lat="47.35508" lon="-1.37204">
        <ele>124</ele>
        <time>2021-04-22T11:13:37.000Z</time>
      </trkpt>
      <trkpt lat="47.35499" lon="-1.37191">
        <ele>124</ele>
        <time>2021-04-22T11:13:39.000Z</time>
      </trkpt>
      <trkpt lat="47.3549" lon="-1.37178">
        <ele>124</ele>
        <time>2021-04-22T11:13:41.000Z</time>
      </trkpt>
      <trkpt lat="47.35482" lon="-1.37166">
        <ele>124</ele>
        <time>2021-04-22T11:13:43.000Z</time>
      </trkpt>
      <trkpt lat="47.35473" lon="-1.37154">
        <ele>124</ele>
        <time>2021-04-22T11:13:45.000Z</time>
      </trkpt>
      <trkpt lat="47.35463" lon="-1.3714">
        <ele>125</ele>
        <time>2021-04-22T11:13:47.000Z</time>
      </trkpt>
      <trkpt lat="47.35454" lon="-1.37125">
        <ele>125</ele>
        <time>2021-04-22T11:13:49.000Z</time>
      </trkpt>
      <trkpt lat="47.35444" lon="-1.37111">
        <ele>125</ele>
        <time>2021-04-22T11:13:51.000Z</time>
      </trkpt>
      <trkpt lat="47.35435" lon="-1.37098">
        <ele>125</ele>
        <time>2021-04-22T11:13:53.000Z</time>
      </trkpt>
      <trkpt lat="47.35425" lon="-1.37083">
        <ele>125</ele>
        <time>2021-04-22T11:13:55.000Z</time>
      </trkpt>
      <trkpt lat="47.35416" lon="-1.37068">
        <ele>126</ele>
        <time>2021-04-22T11:13:57.000Z</time>
      </trkpt>
      <trkpt lat="47.35407" lon="-1.37054">
        <ele>126</ele>
        <time>2021-04-22T11:13:59.000Z</time>
      </trkpt>
      <trkpt lat="47.35398" lon="-1.37039">
        <ele>126</ele>
        <time>2021-04-22T11:14:01.000Z</time>
      </trkpt>
      <trkpt lat="47.35389" lon="-1.37025">
        <ele>127</ele>
        <time>2021-04-22T11:14:03.000Z</time>
      </trkpt>
      <trkpt lat="47.35381" lon="-1.3701">
        <ele>127</ele>
        <time>2021-04-22T11:14:05.000Z</time>
      </trkpt>
      <trkpt lat="47.35372" lon="-1.36996">
        <ele>126</ele>
        <time>2021-04-22T11:14:07.000Z</time>
      </trkpt>
      <trkpt lat="47.35363" lon="-1.36981">
        <ele>126</ele>
        <time>2021-04-22T11:14:09.000Z</time>
      </trkpt>
      <trkpt lat="47.35355" lon="-1.36968">
        <ele>126</ele>
        <time>2021-04-22T11:14:11.000Z</time>
      </trkpt>
      <trkpt lat="47.35346" lon="-1.36954">
        <ele>125</ele>
        <time>2021-04-22T11:14:13.000Z</time>
      </trkpt>
      <trkpt lat="47.35338" lon="-1.36942">
        <ele>125</ele>
        <time>2021-04-22T11:14:15.000Z</time>
      </trkpt>
      <trkpt lat="47.3533" lon="-1.36928">
        <ele>124</ele>
        <time>2021-04-22T11:14:17.000Z</time>
      </trkpt>
      <trkpt lat="47.35321" lon="-1.36915">
        <ele>124</ele>
        <time>2021-04-22T11:14:19.000Z</time>
      </trkpt>
      <trkpt lat="47.35312" lon="-1.36901">
        <ele>125</ele>
        <time>2021-04-22T11:14:21.000Z</time>
      </trkpt>
      <trkpt lat="47.35304" lon="-1.36889">
        <ele>125</ele>
        <time>2021-04-22T11:14:23.000Z</time>
      </trkpt>
      <trkpt lat="47.35295" lon="-1.36876">
        <ele>125</ele>
        <time>2021-04-22T11:14:25.000Z</time>
      </trkpt>
      <trkpt lat="47.35286" lon="-1.36862">
        <ele>125</ele>
        <time>2021-04-22T11:14:27.000Z</time>
      </trkpt>
      <trkpt lat="47.35277" lon="-1.36848">
        <ele>125</ele>
        <time>2021-04-22T11:14:29.000Z</time>
      </trkpt>
      <trkpt lat="47.35268" lon="-1.36835">
        <ele>126</ele>
        <time>2021-04-22T11:14:31.000Z</time>
      </trkpt>
      <trkpt lat="47.35258" lon="-1.36822">
        <ele>126</ele>
        <time>2021-04-22T11:14:33.000Z</time>
      </trkpt>
      <trkpt lat="47.35248" lon="-1.36809">
        <ele>126</ele>
        <time>2021-04-22T11:14:35.000Z</time>
      </trkpt>
      <trkpt lat="47.35239" lon="-1.36794">
        <ele>126</ele>
        <time>2021-04-22T11:14:37.000Z</time>
      </trkpt>
      <trkpt lat="47.3523" lon="-1.3678">
        <ele>126</ele>
        <time>2021-04-22T11:14:39.000Z</time>
      </trkpt>
      <trkpt lat="47.35221" lon="-1.36765">
        <ele>126</ele>
        <time>2021-04-22T11:14:41.000Z</time>
      </trkpt>
      <trkpt lat="47.35211" lon="-1.36751">
        <ele>126</ele>
        <time>2021-04-22T11:14:43.000Z</time>
      </trkpt>
      <trkpt lat="47.35202" lon="-1.36737">
        <ele>126</ele>
        <time>2021-04-22T11:14:45.000Z</time>
      </trkpt>
      <trkpt lat="47.35193" lon="-1.36724">
        <ele>126</ele>
        <time>2021-04-22T11:14:47.000Z</time>
      </trkpt>
      <trkpt lat="47.35184" lon="-1.3671">
        <ele>126</ele>
        <time>2021-04-22T11:14:49.000Z</time>
      </trkpt>
      <trkpt lat="47.35174" lon="-1.36696">
        <ele>127</ele>
        <time>2021-04-22T11:14:51.000Z</time>
      </trkpt>
      <trkpt lat="47.35165" lon="-1.36682">
        <ele>127</ele>
        <time>2021-04-22T11:14:53.000Z</time>
      </trkpt>
      <trkpt lat="47.35156" lon="-1.36668">
        <ele>127</ele>
        <time>2021-04-22T11:14:55.000Z</time>
      </trkpt>
      <trkpt lat="47.35146" lon="-1.36654">
        <ele>127</ele>
        <time>2021-04-22T11:14:57.000Z</time>
      </trkpt>
      <trkpt lat="47.35136" lon="-1.3664">
        <ele>127</ele>
        <time>2021-04-22T11:14:59.000Z</time>
      </trkpt>
      <trkpt lat="47.35127" lon="-1.36626">
        <ele>127</ele>
        <time>2021-04-22T11:15:01.000Z</time>
      </trkpt>
      <trkpt lat="47.35117" lon="-1.36613">
        <ele>128</ele>
        <time>2021-04-22T11:15:03.000Z</time>
      </trkpt>
      <trkpt lat="47.35108" lon="-1.36599">
        <ele>128</ele>
        <time>2021-04-22T11:15:05.000Z</time>
      </trkpt>
      <trkpt lat="47.35098" lon="-1.36584">
        <ele>128</ele>
        <time>2021-04-22T11:15:07.000Z</time>
      </trkpt>
      <trkpt lat="47.35089" lon="-1.3657">
        <ele>129</ele>
        <time>2021-04-22T11:15:09.000Z</time>
      </trkpt>
      <trkpt lat="47.35079" lon="-1.36557">
        <ele>129</ele>
        <time>2021-04-22T11:15:11.000Z</time>
      </trkpt>
      <trkpt lat="47.35071" lon="-1.36542">
        <ele>128</ele>
        <time>2021-04-22T11:15:13.000Z</time>
      </trkpt>
      <trkpt lat="47.35062" lon="-1.36529">
        <ele>128</ele>
        <time>2021-04-22T11:15:15.000Z</time>
      </trkpt>
      <trkpt lat="47.35054" lon="-1.36516">
        <ele>128</ele>
        <time>2021-04-22T11:15:17.000Z</time>
      </trkpt>
      <trkpt lat="47.35045" lon="-1.36501">
        <ele>128</ele>
        <time>2021-04-22T11:15:19.000Z</time>
      </trkpt>
      <trkpt lat="47.35037" lon="-1.36486">
        <ele>127</ele>
        <time>2021-04-22T11:15:21.000Z</time>
      </trkpt>
      <trkpt lat="47.35028" lon="-1.36471">
        <ele>127</ele>
        <time>2021-04-22T11:15:23.000Z</time>
      </trkpt>
      <trkpt lat="47.35018" lon="-1.36458">
        <ele>127</ele>
        <time>2021-04-22T11:15:25.000Z</time>
      </trkpt>
      <trkpt lat="47.35008" lon="-1.36446">
        <ele>127</ele>
        <time>2021-04-22T11:15:27.000Z</time>
      </trkpt>
      <trkpt lat="47.34998" lon="-1.36433">
        <ele>127</ele>
        <time>2021-04-22T11:15:29.000Z</time>
      </trkpt>
      <trkpt lat="47.34989" lon="-1.36422">
        <ele>128</ele>
        <time>2021-04-22T11:15:31.000Z</time>
      </trkpt>
      <trkpt lat="47.34979" lon="-1.3641">
        <ele>128</ele>
        <time>2021-04-22T11:15:33.000Z</time>
      </trkpt>
      <trkpt lat="47.34969" lon="-1.36397">
        <ele>127</ele>
        <time>2021-04-22T11:15:35.000Z</time>
      </trkpt>
      <trkpt lat="47.34959" lon="-1.36385">
        <ele>127</ele>
        <time>2021-04-22T11:15:37.000Z</time>
      </trkpt>
      <trkpt lat="47.34948" lon="-1.36372">
        <ele>127</ele>
        <time>2021-04-22T11:15:39.000Z</time>
      </trkpt>
      <trkpt lat="47.34938" lon="-1.36359">
        <ele>127</ele>
        <time>2021-04-22T11:15:41.000Z</time>
      </trkpt>
      <trkpt lat="47.34928" lon="-1.36347">
        <ele>127</ele>
        <time>2021-04-22T11:15:43.000Z</time>
      </trkpt>
      <trkpt lat="47.34919" lon="-1.36334">
        <ele>127</ele>
        <time>2021-04-22T11:15:45.000Z</time>
      </trkpt>
      <trkpt lat="47.34909" lon="-1.36321">
        <ele>127</ele>
        <time>2021-04-22T11:15:47.000Z</time>
      </trkpt>
      <trkpt lat="47.349" lon="-1.36307">
        <ele>127</ele>
        <time>2021-04-22T11:15:49.000Z</time>
      </trkpt>
      <trkpt lat="47.34892" lon="-1.36293">
        <ele>126</ele>
        <time>2021-04-22T11:15:51.000Z</time>
      </trkpt>
      <trkpt lat="47.34883" lon="-1.36279">
        <ele>126</ele>
        <time>2021-04-22T11:15:53.000Z</time>
      </trkpt>
      <trkpt lat="47.34875" lon="-1.36265">
        <ele>126</ele>
        <time>2021-04-22T11:15:55.000Z</time>
      </trkpt>
      <trkpt lat="47.34867" lon="-1.36253">
        <ele>126</ele>
        <time>2021-04-22T11:15:57.000Z</time>
      </trkpt>
      <trkpt lat="47.34859" lon="-1.3624">
        <ele>126</ele>
        <time>2021-04-22T11:15:59.000Z</time>
      </trkpt>
      <trkpt lat="47.34851" lon="-1.36226">
        <ele>127</ele>
        <time>2021-04-22T11:16:01.000Z</time>
      </trkpt>
      <trkpt lat="47.34842" lon="-1.36214">
        <ele>127</ele>
        <time>2021-04-22T11:16:03.000Z</time>
      </trkpt>
      <trkpt lat="47.34834" lon="-1.36201">
        <ele>127</ele>
        <time>2021-04-22T11:16:05.000Z</time>
      </trkpt>
      <trkpt lat="47.34826" lon="-1.36189">
        <ele>127</ele>
        <time>2021-04-22T11:16:07.000Z</time>
      </trkpt>
      <trkpt lat="47.34818" lon="-1.36176">
        <ele>128</ele>
        <time>2021-04-22T11:16:09.000Z</time>
      </trkpt>
      <trkpt lat="47.3481" lon="-1.36164">
        <ele>128</ele>
        <time>2021-04-22T11:16:11.000Z</time>
      </trkpt>
      <trkpt lat="47.34801" lon="-1.36152">
        <ele>127</ele>
        <time>2021-04-22T11:16:13.000Z</time>
      </trkpt>
      <trkpt lat="47.34793" lon="-1.36141">
        <ele>128</ele>
        <time>2021-04-22T11:16:15.000Z</time>
      </trkpt>
      <trkpt lat="47.34785" lon="-1.3613">
        <ele>128</ele>
        <time>2021-04-22T11:16:17.000Z</time>
      </trkpt>
      <trkpt lat="47.34776" lon="-1.3612">
        <ele>128</ele>
        <time>2021-04-22T11:16:19.000Z</time>
      </trkpt>
      <trkpt lat="47.34767" lon="-1.36109">
        <ele>128</ele>
        <time>2021-04-22T11:16:21.000Z</time>
      </trkpt>
      <trkpt lat="47.34757" lon="-1.36098">
        <ele>128</ele>
        <time>2021-04-22T11:16:23.000Z</time>
      </trkpt>
      <trkpt lat="47.34748" lon="-1.36087">
        <ele>128</ele>
        <time>2021-04-22T11:16:25.000Z</time>
      </trkpt>
      <trkpt lat="47.34739" lon="-1.36077">
        <ele>128</ele>
        <time>2021-04-22T11:16:27.000Z</time>
      </trkpt>
      <trkpt lat="47.3473" lon="-1.36065">
        <ele>128</ele>
        <time>2021-04-22T11:16:29.000Z</time>
      </trkpt>
      <trkpt lat="47.34721" lon="-1.36055">
        <ele>128</ele>
        <time>2021-04-22T11:16:31.000Z</time>
      </trkpt>
      <trkpt lat="47.34712" lon="-1.36044">
        <ele>128</ele>
        <time>2021-04-22T11:16:33.000Z</time>
      </trkpt>
      <trkpt lat="47.34702" lon="-1.36033">
        <ele>127</ele>
        <time>2021-04-22T11:16:35.000Z</time>
      </trkpt>
      <trkpt lat="47.34692" lon="-1.36022">
        <ele>127</ele>
        <time>2021-04-22T11:16:37.000Z</time>
      </trkpt>
      <trkpt lat="47.34682" lon="-1.36011">
        <ele>127</ele>
        <time>2021-04-22T11:16:39.000Z</time>
      </trkpt>
      <trkpt lat="47.34671" lon="-1.35999">
        <ele>126</ele>
        <time>2021-04-22T11:16:41.000Z</time>
      </trkpt>
      <trkpt lat="47.34654" lon="-1.3598">
        <ele>125</ele>
        <time>2021-04-22T11:16:44.000Z</time>
      </trkpt>
      <trkpt lat="47.34643" lon="-1.35968">
        <ele>125</ele>
        <time>2021-04-22T11:16:46.000Z</time>
      </trkpt>
      <trkpt lat="47.34631" lon="-1.35955">
        <ele>124</ele>
        <time>2021-04-22T11:16:48.000Z</time>
      </trkpt>
      <trkpt lat="47.34619" lon="-1.35943">
        <ele>124</ele>
        <time>2021-04-22T11:16:50.000Z</time>
      </trkpt>
      <trkpt lat="47.34608" lon="-1.35929">
        <ele>124</ele>
        <time>2021-04-22T11:16:52.000Z</time>
      </trkpt>
      <trkpt lat="47.34598" lon="-1.35917">
        <ele>124</ele>
        <time>2021-04-22T11:16:54.000Z</time>
      </trkpt>
      <trkpt lat="47.34588" lon="-1.35905">
        <ele>124</ele>
        <time>2021-04-22T11:16:56.000Z</time>
      </trkpt>
      <trkpt lat="47.34578" lon="-1.35893">
        <ele>123</ele>
        <time>2021-04-22T11:16:58.000Z</time>
      </trkpt>
      <trkpt lat="47.34569" lon="-1.3588">
        <ele>124</ele>
        <time>2021-04-22T11:17:00.000Z</time>
      </trkpt>
      <trkpt lat="47.3456" lon="-1.35867">
        <ele>124</ele>
        <time>2021-04-22T11:17:02.000Z</time>
      </trkpt>
      <trkpt lat="47.34551" lon="-1.35853">
        <ele>124</ele>
        <time>2021-04-22T11:17:04.000Z</time>
      </trkpt>
      <trkpt lat="47.34542" lon="-1.3584">
        <ele>124</ele>
        <time>2021-04-22T11:17:06.000Z</time>
      </trkpt>
      <trkpt lat="47.34533" lon="-1.35826">
        <ele>124</ele>
        <time>2021-04-22T11:17:08.000Z</time>
      </trkpt>
      <trkpt lat="47.34525" lon="-1.35812">
        <ele>125</ele>
        <time>2021-04-22T11:17:10.000Z</time>
      </trkpt>
      <trkpt lat="47.34517" lon="-1.35799">
        <ele>125</ele>
        <time>2021-04-22T11:17:12.000Z</time>
      </trkpt>
      <trkpt lat="47.34509" lon="-1.35785">
        <ele>126</ele>
        <time>2021-04-22T11:17:14.000Z</time>
      </trkpt>
      <trkpt lat="47.34498" lon="-1.35765">
        <ele>126</ele>
        <time>2021-04-22T11:17:17.000Z</time>
      </trkpt>
      <trkpt lat="47.3449" lon="-1.35751">
        <ele>127</ele>
        <time>2021-04-22T11:17:19.000Z</time>
      </trkpt>
      <trkpt lat="47.34482" lon="-1.35736">
        <ele>127</ele>
        <time>2021-04-22T11:17:21.000Z</time>
      </trkpt>
      <trkpt lat="47.34475" lon="-1.35723">
        <ele>127</ele>
        <time>2021-04-22T11:17:23.000Z</time>
      </trkpt>
      <trkpt lat="47.34468" lon="-1.35709">
        <ele>127</ele>
        <time>2021-04-22T11:17:25.000Z</time>
      </trkpt>
      <trkpt lat="47.34461" lon="-1.35695">
        <ele>127</ele>
        <time>2021-04-22T11:17:27.000Z</time>
      </trkpt>
      <trkpt lat="47.34453" lon="-1.35683">
        <ele>128</ele>
        <time>2021-04-22T11:17:29.000Z</time>
      </trkpt>
      <trkpt lat="47.34443" lon="-1.3567">
        <ele>128</ele>
        <time>2021-04-22T11:17:31.000Z</time>
      </trkpt>
      <trkpt lat="47.34431" lon="-1.35653">
        <ele>128</ele>
        <time>2021-04-22T11:17:34.000Z</time>
      </trkpt>
      <trkpt lat="47.34424" lon="-1.35641">
        <ele>128</ele>
        <time>2021-04-22T11:17:36.000Z</time>
      </trkpt>
      <trkpt lat="47.34413" lon="-1.3562">
        <ele>129</ele>
        <time>2021-04-22T11:17:39.000Z</time>
      </trkpt>
      <trkpt lat="47.34406" lon="-1.35606">
        <ele>128</ele>
        <time>2021-04-22T11:17:41.000Z</time>
      </trkpt>
      <trkpt lat="47.34398" lon="-1.35591">
        <ele>128</ele>
        <time>2021-04-22T11:17:43.000Z</time>
      </trkpt>
      <trkpt lat="47.34386" lon="-1.35571">
        <ele>127</ele>
        <time>2021-04-22T11:17:46.000Z</time>
      </trkpt>
      <trkpt lat="47.34378" lon="-1.35557">
        <ele>127</ele>
        <time>2021-04-22T11:17:48.000Z</time>
      </trkpt>
      <trkpt lat="47.3437" lon="-1.35543">
        <ele>127</ele>
        <time>2021-04-22T11:17:50.000Z</time>
      </trkpt>
      <trkpt lat="47.34363" lon="-1.3553">
        <ele>127</ele>
        <time>2021-04-22T11:17:52.000Z</time>
      </trkpt>
      <trkpt lat="47.34355" lon="-1.35516">
        <ele>127</ele>
        <time>2021-04-22T11:17:54.000Z</time>
      </trkpt>
      <trkpt lat="47.34347" lon="-1.35502">
        <ele>127</ele>
        <time>2021-04-22T11:17:56.000Z</time>
      </trkpt>
      <trkpt lat="47.34339" lon="-1.35488">
        <ele>128</ele>
        <time>2021-04-22T11:17:58.000Z</time>
      </trkpt>
      <trkpt lat="47.3433" lon="-1.35474">
        <ele>129</ele>
        <time>2021-04-22T11:18:00.000Z</time>
      </trkpt>
      <trkpt lat="47.34322" lon="-1.35461">
        <ele>129</ele>
        <time>2021-04-22T11:18:02.000Z</time>
      </trkpt>
      <trkpt lat="47.34314" lon="-1.35446">
        <ele>129</ele>
        <time>2021-04-22T11:18:04.000Z</time>
      </trkpt>
      <trkpt lat="47.34306" lon="-1.35432">
        <ele>129</ele>
        <time>2021-04-22T11:18:06.000Z</time>
      </trkpt>
      <trkpt lat="47.34297" lon="-1.35418">
        <ele>129</ele>
        <time>2021-04-22T11:18:08.000Z</time>
      </trkpt>
      <trkpt lat="47.34289" lon="-1.35405">
        <ele>129</ele>
        <time>2021-04-22T11:18:10.000Z</time>
      </trkpt>
      <trkpt lat="47.34281" lon="-1.35391">
        <ele>129</ele>
        <time>2021-04-22T11:18:12.000Z</time>
      </trkpt>
      <trkpt lat="47.34273" lon="-1.35377">
        <ele>129</ele>
        <time>2021-04-22T11:18:14.000Z</time>
      </trkpt>
      <trkpt lat="47.34265" lon="-1.35363">
        <ele>129</ele>
        <time>2021-04-22T11:18:16.000Z</time>
      </trkpt>
      <trkpt lat="47.34257" lon="-1.35349">
        <ele>129</ele>
        <time>2021-04-22T11:18:18.000Z</time>
      </trkpt>
      <trkpt lat="47.34249" lon="-1.35335">
        <ele>129</ele>
        <time>2021-04-22T11:18:20.000Z</time>
      </trkpt>
      <trkpt lat="47.34241" lon="-1.35321">
        <ele>128</ele>
        <time>2021-04-22T11:18:22.000Z</time>
      </trkpt>
      <trkpt lat="47.34229" lon="-1.35302">
        <ele>128</ele>
        <time>2021-04-22T11:18:25.000Z</time>
      </trkpt>
      <trkpt lat="47.34221" lon="-1.35288">
        <ele>128</ele>
        <time>2021-04-22T11:18:27.000Z</time>
      </trkpt>
      <trkpt lat="47.34212" lon="-1.35274">
        <ele>128</ele>
        <time>2021-04-22T11:18:29.000Z</time>
      </trkpt>
      <trkpt lat="47.34204" lon="-1.35261">
        <ele>128</ele>
        <time>2021-04-22T11:18:31.000Z</time>
      </trkpt>
      <trkpt lat="47.34196" lon="-1.35247">
        <ele>128</ele>
        <time>2021-04-22T11:18:33.000Z</time>
      </trkpt>
      <trkpt lat="47.34188" lon="-1.35233">
        <ele>128</ele>
        <time>2021-04-22T11:18:35.000Z</time>
      </trkpt>
      <trkpt lat="47.34176" lon="-1.35213">
        <ele>128</ele>
        <time>2021-04-22T11:18:38.000Z</time>
      </trkpt>
      <trkpt lat="47.34168" lon="-1.35199">
        <ele>128</ele>
        <time>2021-04-22T11:18:40.000Z</time>
      </trkpt>
      <trkpt lat="47.34159" lon="-1.35186">
        <ele>128</ele>
        <time>2021-04-22T11:18:42.000Z</time>
      </trkpt>
      <trkpt lat="47.34151" lon="-1.35173">
        <ele>128</ele>
        <time>2021-04-22T11:18:44.000Z</time>
      </trkpt>
      <trkpt lat="47.34143" lon="-1.35159">
        <ele>128</ele>
        <time>2021-04-22T11:18:46.000Z</time>
      </trkpt>
      <trkpt lat="47.34134" lon="-1.35145">
        <ele>128</ele>
        <time>2021-04-22T11:18:48.000Z</time>
      </trkpt>
      <trkpt lat="47.34126" lon="-1.35131">
        <ele>128</ele>
        <time>2021-04-22T11:18:50.000Z</time>
      </trkpt>
      <trkpt lat="47.34118" lon="-1.35117">
        <ele>128</ele>
        <time>2021-04-22T11:18:52.000Z</time>
      </trkpt>
      <trkpt lat="47.3411" lon="-1.35103">
        <ele>128</ele>
        <time>2021-04-22T11:18:54.000Z</time>
      </trkpt>
      <trkpt lat="47.34102" lon="-1.3509">
        <ele>127</ele>
        <time>2021-04-22T11:18:56.000Z</time>
      </trkpt>
      <trkpt lat="47.34094" lon="-1.35077">
        <ele>127</ele>
        <time>2021-04-22T11:18:58.000Z</time>
      </trkpt>
      <trkpt lat="47.34086" lon="-1.35063">
        <ele>127</ele>
        <time>2021-04-22T11:19:00.000Z</time>
      </trkpt>
      <trkpt lat="47.34078" lon="-1.35049">
        <ele>127</ele>
        <time>2021-04-22T11:19:02.000Z</time>
      </trkpt>
      <trkpt lat="47.3407" lon="-1.35036">
        <ele>127</ele>
        <time>2021-04-22T11:19:04.000Z</time>
      </trkpt>
      <trkpt lat="47.34062" lon="-1.35023">
        <ele>127</ele>
        <time>2021-04-22T11:19:06.000Z</time>
      </trkpt>
      <trkpt lat="47.34054" lon="-1.3501">
        <ele>127</ele>
        <time>2021-04-22T11:19:08.000Z</time>
      </trkpt>
      <trkpt lat="47.34046" lon="-1.34996">
        <ele>127</ele>
        <time>2021-04-22T11:19:10.000Z</time>
      </trkpt>
      <trkpt lat="47.34038" lon="-1.34983">
        <ele>127</ele>
        <time>2021-04-22T11:19:12.000Z</time>
      </trkpt>
      <trkpt lat="47.34029" lon="-1.34973">
        <ele>127</ele>
        <time>2021-04-22T11:19:14.000Z</time>
      </trkpt>
      <trkpt lat="47.34021" lon="-1.34965">
        <ele>126</ele>
        <time>2021-04-22T11:19:16.000Z</time>
      </trkpt>
      <trkpt lat="47.34011" lon="-1.34959">
        <ele>126</ele>
        <time>2021-04-22T11:19:18.000Z</time>
      </trkpt>
      <trkpt lat="47.34" lon="-1.34954">
        <ele>127</ele>
        <time>2021-04-22T11:19:20.000Z</time>
      </trkpt>
      <trkpt lat="47.3399" lon="-1.34941">
        <ele>127</ele>
        <time>2021-04-22T11:19:22.000Z</time>
      </trkpt>
      <trkpt lat="47.33983" lon="-1.34924">
        <ele>126</ele>
        <time>2021-04-22T11:19:24.000Z</time>
      </trkpt>
      <trkpt lat="47.33973" lon="-1.34911">
        <ele>126</ele>
        <time>2021-04-22T11:19:26.000Z</time>
      </trkpt>
      <trkpt lat="47.33962" lon="-1.349">
        <ele>126</ele>
        <time>2021-04-22T11:19:28.000Z</time>
      </trkpt>
      <trkpt lat="47.33952" lon="-1.34889">
        <ele>126</ele>
        <time>2021-04-22T11:19:30.000Z</time>
      </trkpt>
      <trkpt lat="47.33941" lon="-1.34879">
        <ele>126</ele>
        <time>2021-04-22T11:19:32.000Z</time>
      </trkpt>
      <trkpt lat="47.3393" lon="-1.34869">
        <ele>126</ele>
        <time>2021-04-22T11:19:34.000Z</time>
      </trkpt>
      <trkpt lat="47.33919" lon="-1.34859">
        <ele>126</ele>
        <time>2021-04-22T11:19:36.000Z</time>
      </trkpt>
      <trkpt lat="47.33909" lon="-1.34848">
        <ele>126</ele>
        <time>2021-04-22T11:19:38.000Z</time>
      </trkpt>
      <trkpt lat="47.33898" lon="-1.34837">
        <ele>127</ele>
        <time>2021-04-22T11:19:40.000Z</time>
      </trkpt>
      <trkpt lat="47.33889" lon="-1.34824">
        <ele>127</ele>
        <time>2021-04-22T11:19:42.000Z</time>
      </trkpt>
      <trkpt lat="47.3388" lon="-1.34812">
        <ele>126</ele>
        <time>2021-04-22T11:19:44.000Z</time>
      </trkpt>
      <trkpt lat="47.33871" lon="-1.348">
        <ele>126</ele>
        <time>2021-04-22T11:19:46.000Z</time>
      </trkpt>
      <trkpt lat="47.33862" lon="-1.34787">
        <ele>126</ele>
        <time>2021-04-22T11:19:48.000Z</time>
      </trkpt>
      <trkpt lat="47.33853" lon="-1.34775">
        <ele>126</ele>
        <time>2021-04-22T11:19:50.000Z</time>
      </trkpt>
      <trkpt lat="47.33843" lon="-1.34761">
        <ele>126</ele>
        <time>2021-04-22T11:19:52.000Z</time>
      </trkpt>
      <trkpt lat="47.33834" lon="-1.34749">
        <ele>126</ele>
        <time>2021-04-22T11:19:54.000Z</time>
      </trkpt>
      <trkpt lat="47.33825" lon="-1.34737">
        <ele>126</ele>
        <time>2021-04-22T11:19:56.000Z</time>
      </trkpt>
      <trkpt lat="47.33816" lon="-1.34723">
        <ele>126</ele>
        <time>2021-04-22T11:19:58.000Z</time>
      </trkpt>
      <trkpt lat="47.33807" lon="-1.34711">
        <ele>126</ele>
        <time>2021-04-22T11:20:00.000Z</time>
      </trkpt>
      <trkpt lat="47.33797" lon="-1.34698">
        <ele>126</ele>
        <time>2021-04-22T11:20:02.000Z</time>
      </trkpt>
      <trkpt lat="47.33788" lon="-1.34686">
        <ele>126</ele>
        <time>2021-04-22T11:20:04.000Z</time>
      </trkpt>
      <trkpt lat="47.33779" lon="-1.34673">
        <ele>125</ele>
        <time>2021-04-22T11:20:06.000Z</time>
      </trkpt>
      <trkpt lat="47.33769" lon="-1.3466">
        <ele>125</ele>
        <time>2021-04-22T11:20:08.000Z</time>
      </trkpt>
      <trkpt lat="47.33761" lon="-1.34647">
        <ele>125</ele>
        <time>2021-04-22T11:20:10.000Z</time>
      </trkpt>
      <trkpt lat="47.33752" lon="-1.34635">
        <ele>125</ele>
        <time>2021-04-22T11:20:12.000Z</time>
      </trkpt>
      <trkpt lat="47.33742" lon="-1.34623">
        <ele>126</ele>
        <time>2021-04-22T11:20:14.000Z</time>
      </trkpt>
      <trkpt lat="47.33733" lon="-1.3461">
        <ele>126</ele>
        <time>2021-04-22T11:20:16.000Z</time>
      </trkpt>
      <trkpt lat="47.33724" lon="-1.34598">
        <ele>126</ele>
        <time>2021-04-22T11:20:18.000Z</time>
      </trkpt>
      <trkpt lat="47.33715" lon="-1.34586">
        <ele>125</ele>
        <time>2021-04-22T11:20:20.000Z</time>
      </trkpt>
      <trkpt lat="47.33706" lon="-1.34573">
        <ele>125</ele>
        <time>2021-04-22T11:20:22.000Z</time>
      </trkpt>
      <trkpt lat="47.33697" lon="-1.34561">
        <ele>125</ele>
        <time>2021-04-22T11:20:24.000Z</time>
      </trkpt>
      <trkpt lat="47.33689" lon="-1.34549">
        <ele>125</ele>
        <time>2021-04-22T11:20:26.000Z</time>
      </trkpt>
      <trkpt lat="47.3368" lon="-1.34536">
        <ele>125</ele>
        <time>2021-04-22T11:20:28.000Z</time>
      </trkpt>
      <trkpt lat="47.3367" lon="-1.34523">
        <ele>125</ele>
        <time>2021-04-22T11:20:30.000Z</time>
      </trkpt>
      <trkpt lat="47.33661" lon="-1.3451">
        <ele>125</ele>
        <time>2021-04-22T11:20:32.000Z</time>
      </trkpt>
      <trkpt lat="47.33652" lon="-1.34497">
        <ele>125</ele>
        <time>2021-04-22T11:20:34.000Z</time>
      </trkpt>
      <trkpt lat="47.33643" lon="-1.34485">
        <ele>125</ele>
        <time>2021-04-22T11:20:36.000Z</time>
      </trkpt>
      <trkpt lat="47.33632" lon="-1.34476">
        <ele>125</ele>
        <time>2021-04-22T11:20:38.000Z</time>
      </trkpt>
      <trkpt lat="47.33621" lon="-1.34467">
        <ele>125</ele>
        <time>2021-04-22T11:20:40.000Z</time>
      </trkpt>
      <trkpt lat="47.33609" lon="-1.34459">
        <ele>125</ele>
        <time>2021-04-22T11:20:42.000Z</time>
      </trkpt>
      <trkpt lat="47.33597" lon="-1.34453">
        <ele>125</ele>
        <time>2021-04-22T11:20:44.000Z</time>
      </trkpt>
      <trkpt lat="47.33585" lon="-1.34447">
        <ele>125</ele>
        <time>2021-04-22T11:20:46.000Z</time>
      </trkpt>
      <trkpt lat="47.33573" lon="-1.34441">
        <ele>125</ele>
        <time>2021-04-22T11:20:48.000Z</time>
      </trkpt>
      <trkpt lat="47.3356" lon="-1.34435">
        <ele>124</ele>
        <time>2021-04-22T11:20:50.000Z</time>
      </trkpt>
      <trkpt lat="47.33547" lon="-1.34429">
        <ele>124</ele>
        <time>2021-04-22T11:20:52.000Z</time>
      </trkpt>
      <trkpt lat="47.33534" lon="-1.34422">
        <ele>124</ele>
        <time>2021-04-22T11:20:54.000Z</time>
      </trkpt>
      <trkpt lat="47.33521" lon="-1.34416">
        <ele>124</ele>
        <time>2021-04-22T11:20:56.000Z</time>
      </trkpt>
      <trkpt lat="47.33508" lon="-1.34409">
        <ele>123</ele>
        <time>2021-04-22T11:20:58.000Z</time>
      </trkpt>
      <trkpt lat="47.33495" lon="-1.34403">
        <ele>123</ele>
        <time>2021-04-22T11:21:00.000Z</time>
      </trkpt>
      <trkpt lat="47.33482" lon="-1.34397">
        <ele>123</ele>
        <time>2021-04-22T11:21:02.000Z</time>
      </trkpt>
      <trkpt lat="47.33469" lon="-1.3439">
        <ele>123</ele>
        <time>2021-04-22T11:21:04.000Z</time>
      </trkpt>
      <trkpt lat="47.33457" lon="-1.34384">
        <ele>123</ele>
        <time>2021-04-22T11:21:06.000Z</time>
      </trkpt>
      <trkpt lat="47.33445" lon="-1.34379">
        <ele>123</ele>
        <time>2021-04-22T11:21:08.000Z</time>
      </trkpt>
      <trkpt lat="47.33432" lon="-1.34373">
        <ele>123</ele>
        <time>2021-04-22T11:21:10.000Z</time>
      </trkpt>
      <trkpt lat="47.33418" lon="-1.34366">
        <ele>122</ele>
        <time>2021-04-22T11:21:12.000Z</time>
      </trkpt>
      <trkpt lat="47.33405" lon="-1.34359">
        <ele>122</ele>
        <time>2021-04-22T11:21:14.000Z</time>
      </trkpt>
      <trkpt lat="47.33392" lon="-1.34352">
        <ele>122</ele>
        <time>2021-04-22T11:21:16.000Z</time>
      </trkpt>
      <trkpt lat="47.33379" lon="-1.34346">
        <ele>122</ele>
        <time>2021-04-22T11:21:18.000Z</time>
      </trkpt>
      <trkpt lat="47.33365" lon="-1.34339">
        <ele>121</ele>
        <time>2021-04-22T11:21:20.000Z</time>
      </trkpt>
      <trkpt lat="47.33352" lon="-1.34333">
        <ele>121</ele>
        <time>2021-04-22T11:21:22.000Z</time>
      </trkpt>
      <trkpt lat="47.33338" lon="-1.34326">
        <ele>121</ele>
        <time>2021-04-22T11:21:24.000Z</time>
      </trkpt>
      <trkpt lat="47.33325" lon="-1.3432">
        <ele>121</ele>
        <time>2021-04-22T11:21:26.000Z</time>
      </trkpt>
      <trkpt lat="47.33311" lon="-1.34315">
        <ele>120</ele>
        <time>2021-04-22T11:21:28.000Z</time>
      </trkpt>
      <trkpt lat="47.33297" lon="-1.34311">
        <ele>120</ele>
        <time>2021-04-22T11:21:30.000Z</time>
      </trkpt>
      <trkpt lat="47.33283" lon="-1.34308">
        <ele>120</ele>
        <time>2021-04-22T11:21:32.000Z</time>
      </trkpt>
      <trkpt lat="47.33269" lon="-1.34306">
        <ele>120</ele>
        <time>2021-04-22T11:21:34.000Z</time>
      </trkpt>
      <trkpt lat="47.33255" lon="-1.34304">
        <ele>120</ele>
        <time>2021-04-22T11:21:36.000Z</time>
      </trkpt>
      <trkpt lat="47.33241" lon="-1.34302">
        <ele>120</ele>
        <time>2021-04-22T11:21:38.000Z</time>
      </trkpt>
      <trkpt lat="47.33228" lon="-1.343">
        <ele>119</ele>
        <time>2021-04-22T11:21:40.000Z</time>
      </trkpt>
      <trkpt lat="47.33213" lon="-1.34298">
        <ele>119</ele>
        <time>2021-04-22T11:21:42.000Z</time>
      </trkpt>
      <trkpt lat="47.33199" lon="-1.34296">
        <ele>118</ele>
        <time>2021-04-22T11:21:44.000Z</time>
      </trkpt>
      <trkpt lat="47.33184" lon="-1.34294">
        <ele>118</ele>
        <time>2021-04-22T11:21:46.000Z</time>
      </trkpt>
      <trkpt lat="47.3317" lon="-1.34291">
        <ele>118</ele>
        <time>2021-04-22T11:21:48.000Z</time>
      </trkpt>
      <trkpt lat="47.33156" lon="-1.34285">
        <ele>117</ele>
        <time>2021-04-22T11:21:50.000Z</time>
      </trkpt>
      <trkpt lat="47.33142" lon="-1.34278">
        <ele>117</ele>
        <time>2021-04-22T11:21:52.000Z</time>
      </trkpt>
      <trkpt lat="47.33129" lon="-1.34269">
        <ele>116</ele>
        <time>2021-04-22T11:21:54.000Z</time>
      </trkpt>
      <trkpt lat="47.33114" lon="-1.3426">
        <ele>116</ele>
        <time>2021-04-22T11:21:56.000Z</time>
      </trkpt>
      <trkpt lat="47.331" lon="-1.3425">
        <ele>115</ele>
        <time>2021-04-22T11:21:58.000Z</time>
      </trkpt>
      <trkpt lat="47.33086" lon="-1.34241">
        <ele>115</ele>
        <time>2021-04-22T11:22:00.000Z</time>
      </trkpt>
      <trkpt lat="47.33072" lon="-1.3423">
        <ele>115</ele>
        <time>2021-04-22T11:22:02.000Z</time>
      </trkpt>
      <trkpt lat="47.33057" lon="-1.3422">
        <ele>114</ele>
        <time>2021-04-22T11:22:04.000Z</time>
      </trkpt>
      <trkpt lat="47.33041" lon="-1.3421">
        <ele>113</ele>
        <time>2021-04-22T11:22:06.000Z</time>
      </trkpt>
      <trkpt lat="47.33026" lon="-1.342">
        <ele>112</ele>
        <time>2021-04-22T11:22:08.000Z</time>
      </trkpt>
      <trkpt lat="47.3301" lon="-1.34189">
        <ele>111</ele>
        <time>2021-04-22T11:22:10.000Z</time>
      </trkpt>
      <trkpt lat="47.32993" lon="-1.34179">
        <ele>111</ele>
        <time>2021-04-22T11:22:12.000Z</time>
      </trkpt>
      <trkpt lat="47.32978" lon="-1.34166">
        <ele>110</ele>
        <time>2021-04-22T11:22:14.000Z</time>
      </trkpt>
      <trkpt lat="47.32965" lon="-1.34149">
        <ele>109</ele>
        <time>2021-04-22T11:22:16.000Z</time>
      </trkpt>
      <trkpt lat="47.32959" lon="-1.34139">
        <ele>109</ele>
        <time>2021-04-22T11:22:17.000Z</time>
      </trkpt>
      <trkpt lat="47.32953" lon="-1.34128">
        <ele>109</ele>
        <time>2021-04-22T11:22:18.000Z</time>
      </trkpt>
      <trkpt lat="47.32948" lon="-1.34116">
        <ele>108</ele>
        <time>2021-04-22T11:22:19.000Z</time>
      </trkpt>
      <trkpt lat="47.32941" lon="-1.34092">
        <ele>108</ele>
        <time>2021-04-22T11:22:21.000Z</time>
      </trkpt>
      <trkpt lat="47.32939" lon="-1.34079">
        <ele>107</ele>
        <time>2021-04-22T11:22:22.000Z</time>
      </trkpt>
      <trkpt lat="47.32938" lon="-1.34066">
        <ele>106</ele>
        <time>2021-04-22T11:22:23.000Z</time>
      </trkpt>
      <trkpt lat="47.32937" lon="-1.34052">
        <ele>105</ele>
        <time>2021-04-22T11:22:24.000Z</time>
      </trkpt>
      <trkpt lat="47.32941" lon="-1.34026">
        <ele>103</ele>
        <time>2021-04-22T11:22:26.000Z</time>
      </trkpt>
      <trkpt lat="47.32944" lon="-1.34013">
        <ele>103</ele>
        <time>2021-04-22T11:22:27.000Z</time>
      </trkpt>
      <trkpt lat="47.32948" lon="-1.34001">
        <ele>103</ele>
        <time>2021-04-22T11:22:28.000Z</time>
      </trkpt>
      <trkpt lat="47.32952" lon="-1.33988">
        <ele>102</ele>
        <time>2021-04-22T11:22:29.000Z</time>
      </trkpt>
      <trkpt lat="47.32956" lon="-1.33976">
        <ele>102</ele>
        <time>2021-04-22T11:22:30.000Z</time>
      </trkpt>
      <trkpt lat="47.32961" lon="-1.33964">
        <ele>101</ele>
        <time>2021-04-22T11:22:31.000Z</time>
      </trkpt>
      <trkpt lat="47.32966" lon="-1.33951">
        <ele>100</ele>
        <time>2021-04-22T11:22:32.000Z</time>
      </trkpt>
      <trkpt lat="47.3297" lon="-1.33939">
        <ele>100</ele>
        <time>2021-04-22T11:22:33.000Z</time>
      </trkpt>
      <trkpt lat="47.32975" lon="-1.33927">
        <ele>100</ele>
        <time>2021-04-22T11:22:34.000Z</time>
      </trkpt>
      <trkpt lat="47.32979" lon="-1.33915">
        <ele>99</ele>
        <time>2021-04-22T11:22:35.000Z</time>
      </trkpt>
      <trkpt lat="47.32984" lon="-1.33903">
        <ele>99</ele>
        <time>2021-04-22T11:22:36.000Z</time>
      </trkpt>
      <trkpt lat="47.32988" lon="-1.33891">
        <ele>98</ele>
        <time>2021-04-22T11:22:37.000Z</time>
      </trkpt>
      <trkpt lat="47.32993" lon="-1.3388">
        <ele>97</ele>
        <time>2021-04-22T11:22:38.000Z</time>
      </trkpt>
      <trkpt lat="47.32997" lon="-1.33868">
        <ele>97</ele>
        <time>2021-04-22T11:22:39.000Z</time>
      </trkpt>
      <trkpt lat="47.33002" lon="-1.33856">
        <ele>97</ele>
        <time>2021-04-22T11:22:40.000Z</time>
      </trkpt>
      <trkpt lat="47.33007" lon="-1.33843">
        <ele>96</ele>
        <time>2021-04-22T11:22:41.000Z</time>
      </trkpt>
      <trkpt lat="47.33011" lon="-1.33831">
        <ele>96</ele>
        <time>2021-04-22T11:22:42.000Z</time>
      </trkpt>
      <trkpt lat="47.33015" lon="-1.33818">
        <ele>96</ele>
        <time>2021-04-22T11:22:43.000Z</time>
      </trkpt>
      <trkpt lat="47.3302" lon="-1.33806">
        <ele>95</ele>
        <time>2021-04-22T11:22:44.000Z</time>
      </trkpt>
      <trkpt lat="47.33025" lon="-1.33795">
        <ele>95</ele>
        <time>2021-04-22T11:22:45.000Z</time>
      </trkpt>
      <trkpt lat="47.33031" lon="-1.33784">
        <ele>95</ele>
        <time>2021-04-22T11:22:46.000Z</time>
      </trkpt>
      <trkpt lat="47.33036" lon="-1.33773">
        <ele>95</ele>
        <time>2021-04-22T11:22:47.000Z</time>
      </trkpt>
      <trkpt lat="47.33042" lon="-1.33762">
        <ele>94</ele>
        <time>2021-04-22T11:22:48.000Z</time>
      </trkpt>
      <trkpt lat="47.33048" lon="-1.33751">
        <ele>94</ele>
        <time>2021-04-22T11:22:49.000Z</time>
      </trkpt>
      <trkpt lat="47.33054" lon="-1.3374">
        <ele>93</ele>
        <time>2021-04-22T11:22:50.000Z</time>
      </trkpt>
      <trkpt lat="47.33059" lon="-1.33729">
        <ele>93</ele>
        <time>2021-04-22T11:22:51.000Z</time>
      </trkpt>
      <trkpt lat="47.33065" lon="-1.33718">
        <ele>92</ele>
        <time>2021-04-22T11:22:52.000Z</time>
      </trkpt>
      <trkpt lat="47.33071" lon="-1.33706">
        <ele>92</ele>
        <time>2021-04-22T11:22:53.000Z</time>
      </trkpt>
      <trkpt lat="47.33077" lon="-1.33693">
        <ele>91</ele>
        <time>2021-04-22T11:22:54.000Z</time>
      </trkpt>
      <trkpt lat="47.33082" lon="-1.33681">
        <ele>91</ele>
        <time>2021-04-22T11:22:55.000Z</time>
      </trkpt>
      <trkpt lat="47.33087" lon="-1.3367">
        <ele>90</ele>
        <time>2021-04-22T11:22:56.000Z</time>
      </trkpt>
      <trkpt lat="47.33091" lon="-1.33657">
        <ele>90</ele>
        <time>2021-04-22T11:22:57.000Z</time>
      </trkpt>
      <trkpt lat="47.33095" lon="-1.33645">
        <ele>89</ele>
        <time>2021-04-22T11:22:58.000Z</time>
      </trkpt>
      <trkpt lat="47.33099" lon="-1.33632">
        <ele>89</ele>
        <time>2021-04-22T11:22:59.000Z</time>
      </trkpt>
      <trkpt lat="47.33102" lon="-1.3362">
        <ele>88</ele>
        <time>2021-04-22T11:23:00.000Z</time>
      </trkpt>
      <trkpt lat="47.33105" lon="-1.33607">
        <ele>88</ele>
        <time>2021-04-22T11:23:01.000Z</time>
      </trkpt>
      <trkpt lat="47.33108" lon="-1.33594">
        <ele>87</ele>
        <time>2021-04-22T11:23:02.000Z</time>
      </trkpt>
      <trkpt lat="47.3312" lon="-1.33514">
        <ele>82</ele>
        <time>2021-04-22T11:23:08.000Z</time>
      </trkpt>
      <trkpt lat="47.33118" lon="-1.335">
        <ele>81</ele>
        <time>2021-04-22T11:23:09.000Z</time>
      </trkpt>
      <trkpt lat="47.33114" lon="-1.33487">
        <ele>80</ele>
        <time>2021-04-22T11:23:10.000Z</time>
      </trkpt>
      <trkpt lat="47.33109" lon="-1.33475">
        <ele>79</ele>
        <time>2021-04-22T11:23:11.000Z</time>
      </trkpt>
      <trkpt lat="47.33103" lon="-1.33463">
        <ele>79</ele>
        <time>2021-04-22T11:23:12.000Z</time>
      </trkpt>
      <trkpt lat="47.33096" lon="-1.33454">
        <ele>79</ele>
        <time>2021-04-22T11:23:13.000Z</time>
      </trkpt>
      <trkpt lat="47.33089" lon="-1.33445">
        <ele>78</ele>
        <time>2021-04-22T11:23:14.000Z</time>
      </trkpt>
      <trkpt lat="47.33081" lon="-1.33437">
        <ele>77</ele>
        <time>2021-04-22T11:23:15.000Z</time>
      </trkpt>
      <trkpt lat="47.33074" lon="-1.33429">
        <ele>77</ele>
        <time>2021-04-22T11:23:16.000Z</time>
      </trkpt>
      <trkpt lat="47.33066" lon="-1.3342">
        <ele>77</ele>
        <time>2021-04-22T11:23:17.000Z</time>
      </trkpt>
      <trkpt lat="47.33058" lon="-1.33412">
        <ele>76</ele>
        <time>2021-04-22T11:23:18.000Z</time>
      </trkpt>
      <trkpt lat="47.33051" lon="-1.33404">
        <ele>76</ele>
        <time>2021-04-22T11:23:19.000Z</time>
      </trkpt>
      <trkpt lat="47.33043" lon="-1.33396">
        <ele>76</ele>
        <time>2021-04-22T11:23:20.000Z</time>
      </trkpt>
      <trkpt lat="47.33035" lon="-1.33387">
        <ele>76</ele>
        <time>2021-04-22T11:23:21.000Z</time>
      </trkpt>
      <trkpt lat="47.33028" lon="-1.33379">
        <ele>75</ele>
        <time>2021-04-22T11:23:22.000Z</time>
      </trkpt>
      <trkpt lat="47.33021" lon="-1.33371">
        <ele>75</ele>
        <time>2021-04-22T11:23:23.000Z</time>
      </trkpt>
      <trkpt lat="47.33013" lon="-1.33362">
        <ele>75</ele>
        <time>2021-04-22T11:23:24.000Z</time>
      </trkpt>
      <trkpt lat="47.33006" lon="-1.33355">
        <ele>75</ele>
        <time>2021-04-22T11:23:25.000Z</time>
      </trkpt>
      <trkpt lat="47.32992" lon="-1.3334">
        <ele>74</ele>
        <time>2021-04-22T11:23:27.000Z</time>
      </trkpt>
      <trkpt lat="47.32979" lon="-1.33325">
        <ele>73</ele>
        <time>2021-04-22T11:23:29.000Z</time>
      </trkpt>
      <trkpt lat="47.32965" lon="-1.33311">
        <ele>73</ele>
        <time>2021-04-22T11:23:31.000Z</time>
      </trkpt>
      <trkpt lat="47.32953" lon="-1.33296">
        <ele>72</ele>
        <time>2021-04-22T11:23:33.000Z</time>
      </trkpt>
      <trkpt lat="47.3294" lon="-1.33281">
        <ele>71</ele>
        <time>2021-04-22T11:23:35.000Z</time>
      </trkpt>
      <trkpt lat="47.32925" lon="-1.33265">
        <ele>69</ele>
        <time>2021-04-22T11:23:37.000Z</time>
      </trkpt>
      <trkpt lat="47.32918" lon="-1.33256">
        <ele>68</ele>
        <time>2021-04-22T11:23:38.000Z</time>
      </trkpt>
      <trkpt lat="47.3291" lon="-1.33247">
        <ele>66</ele>
        <time>2021-04-22T11:23:39.000Z</time>
      </trkpt>
      <trkpt lat="47.32902" lon="-1.33239">
        <ele>65</ele>
        <time>2021-04-22T11:23:40.000Z</time>
      </trkpt>
      <trkpt lat="47.32894" lon="-1.33231">
        <ele>64</ele>
        <time>2021-04-22T11:23:41.000Z</time>
      </trkpt>
      <trkpt lat="47.32886" lon="-1.33224">
        <ele>63</ele>
        <time>2021-04-22T11:23:42.000Z</time>
      </trkpt>
      <trkpt lat="47.32878" lon="-1.33217">
        <ele>61</ele>
        <time>2021-04-22T11:23:43.000Z</time>
      </trkpt>
      <trkpt lat="47.32869" lon="-1.3321">
        <ele>60</ele>
        <time>2021-04-22T11:23:44.000Z</time>
      </trkpt>
      <trkpt lat="47.32861" lon="-1.33203">
        <ele>60</ele>
        <time>2021-04-22T11:23:45.000Z</time>
      </trkpt>
      <trkpt lat="47.32852" lon="-1.33196">
        <ele>59</ele>
        <time>2021-04-22T11:23:46.000Z</time>
      </trkpt>
      <trkpt lat="47.32843" lon="-1.33188">
        <ele>59</ele>
        <time>2021-04-22T11:23:47.000Z</time>
      </trkpt>
      <trkpt lat="47.32835" lon="-1.3318">
        <ele>58</ele>
        <time>2021-04-22T11:23:48.000Z</time>
      </trkpt>
      <trkpt lat="47.32826" lon="-1.33173">
        <ele>58</ele>
        <time>2021-04-22T11:23:49.000Z</time>
      </trkpt>
      <trkpt lat="47.32818" lon="-1.33165">
        <ele>58</ele>
        <time>2021-04-22T11:23:50.000Z</time>
      </trkpt>
      <trkpt lat="47.32807" lon="-1.33159">
        <ele>59</ele>
        <time>2021-04-22T11:23:51.000Z</time>
      </trkpt>
      <trkpt lat="47.32798" lon="-1.33151">
        <ele>60</ele>
        <time>2021-04-22T11:23:52.000Z</time>
      </trkpt>
      <trkpt lat="47.32789" lon="-1.33143">
        <ele>60</ele>
        <time>2021-04-22T11:23:53.000Z</time>
      </trkpt>
      <trkpt lat="47.32781" lon="-1.33135">
        <ele>60</ele>
        <time>2021-04-22T11:23:54.000Z</time>
      </trkpt>
      <trkpt lat="47.32773" lon="-1.33127">
        <ele>59</ele>
        <time>2021-04-22T11:23:55.000Z</time>
      </trkpt>
      <trkpt lat="47.32764" lon="-1.33118">
        <ele>58</ele>
        <time>2021-04-22T11:23:56.000Z</time>
      </trkpt>
      <trkpt lat="47.32755" lon="-1.33108">
        <ele>58</ele>
        <time>2021-04-22T11:23:57.000Z</time>
      </trkpt>
      <trkpt lat="47.32747" lon="-1.33099">
        <ele>58</ele>
        <time>2021-04-22T11:23:58.000Z</time>
      </trkpt>
      <trkpt lat="47.32739" lon="-1.3309">
        <ele>57</ele>
        <time>2021-04-22T11:23:59.000Z</time>
      </trkpt>
      <trkpt lat="47.3273" lon="-1.33081">
        <ele>56</ele>
        <time>2021-04-22T11:24:00.000Z</time>
      </trkpt>
      <trkpt lat="47.32723" lon="-1.33073">
        <ele>56</ele>
        <time>2021-04-22T11:24:01.000Z</time>
      </trkpt>
      <trkpt lat="47.32715" lon="-1.33064">
        <ele>56</ele>
        <time>2021-04-22T11:24:02.000Z</time>
      </trkpt>
      <trkpt lat="47.32707" lon="-1.33056">
        <ele>56</ele>
        <time>2021-04-22T11:24:03.000Z</time>
      </trkpt>
      <trkpt lat="47.32699" lon="-1.33049">
        <ele>55</ele>
        <time>2021-04-22T11:24:04.000Z</time>
      </trkpt>
      <trkpt lat="47.3269" lon="-1.33041">
        <ele>55</ele>
        <time>2021-04-22T11:24:05.000Z</time>
      </trkpt>
      <trkpt lat="47.32682" lon="-1.33033">
        <ele>55</ele>
        <time>2021-04-22T11:24:06.000Z</time>
      </trkpt>
      <trkpt lat="47.32674" lon="-1.33026">
        <ele>55</ele>
        <time>2021-04-22T11:24:07.000Z</time>
      </trkpt>
      <trkpt lat="47.32666" lon="-1.33018">
        <ele>54</ele>
        <time>2021-04-22T11:24:08.000Z</time>
      </trkpt>
      <trkpt lat="47.32658" lon="-1.3301">
        <ele>54</ele>
        <time>2021-04-22T11:24:09.000Z</time>
      </trkpt>
      <trkpt lat="47.32645" lon="-1.32993">
        <ele>54</ele>
        <time>2021-04-22T11:24:11.000Z</time>
      </trkpt>
      <trkpt lat="47.32633" lon="-1.32976">
        <ele>53</ele>
        <time>2021-04-22T11:24:13.000Z</time>
      </trkpt>
      <trkpt lat="47.32625" lon="-1.32959">
        <ele>52</ele>
        <time>2021-04-22T11:24:15.000Z</time>
      </trkpt>
      <trkpt lat="47.32616" lon="-1.3295">
        <ele>52</ele>
        <time>2021-04-22T11:24:17.000Z</time>
      </trkpt>
      <trkpt lat="47.32607" lon="-1.32955">
        <ele>52</ele>
        <time>2021-04-22T11:24:19.000Z</time>
      </trkpt>
      <trkpt lat="47.32601" lon="-1.32966">
        <ele>52</ele>
        <time>2021-04-22T11:24:21.000Z</time>
      </trkpt>
      <trkpt lat="47.32595" lon="-1.32978">
        <ele>51</ele>
        <time>2021-04-22T11:24:23.000Z</time>
      </trkpt>
      <trkpt lat="47.32588" lon="-1.32988">
        <ele>51</ele>
        <time>2021-04-22T11:24:25.000Z</time>
      </trkpt>
      <trkpt lat="47.32581" lon="-1.32997">
        <ele>51</ele>
        <time>2021-04-22T11:24:27.000Z</time>
      </trkpt>
      <trkpt lat="47.32573" lon="-1.33007">
        <ele>52</ele>
        <time>2021-04-22T11:24:29.000Z</time>
      </trkpt>
      <trkpt lat="47.32564" lon="-1.33016">
        <ele>52</ele>
        <time>2021-04-22T11:24:31.000Z</time>
      </trkpt>
      <trkpt lat="47.32556" lon="-1.33025">
        <ele>52</ele>
        <time>2021-04-22T11:24:33.000Z</time>
      </trkpt>
      <trkpt lat="47.32546" lon="-1.33033">
        <ele>52</ele>
        <time>2021-04-22T11:24:35.000Z</time>
      </trkpt>
      <trkpt lat="47.32534" lon="-1.33042">
        <ele>51</ele>
        <time>2021-04-22T11:24:37.000Z</time>
      </trkpt>
      <trkpt lat="47.32522" lon="-1.33054">
        <ele>51</ele>
        <time>2021-04-22T11:24:39.000Z</time>
      </trkpt>
      <trkpt lat="47.32511" lon="-1.33065">
        <ele>51</ele>
        <time>2021-04-22T11:24:41.000Z</time>
      </trkpt>
      <trkpt lat="47.325" lon="-1.33075">
        <ele>51</ele>
        <time>2021-04-22T11:24:43.000Z</time>
      </trkpt>
      <trkpt lat="47.3249" lon="-1.33086">
        <ele>51</ele>
        <time>2021-04-22T11:24:45.000Z</time>
      </trkpt>
      <trkpt lat="47.3248" lon="-1.33097">
        <ele>50</ele>
        <time>2021-04-22T11:24:47.000Z</time>
      </trkpt>
      <trkpt lat="47.3247" lon="-1.33108">
        <ele>50</ele>
        <time>2021-04-22T11:24:49.000Z</time>
      </trkpt>
      <trkpt lat="47.32462" lon="-1.3312">
        <ele>50</ele>
        <time>2021-04-22T11:24:51.000Z</time>
      </trkpt>
      <trkpt lat="47.32453" lon="-1.33132">
        <ele>51</ele>
        <time>2021-04-22T11:24:53.000Z</time>
      </trkpt>
      <trkpt lat="47.32444" lon="-1.3314">
        <ele>51</ele>
        <time>2021-04-22T11:24:55.000Z</time>
      </trkpt>
      <trkpt lat="47.32434" lon="-1.33142">
        <ele>51</ele>
        <time>2021-04-22T11:24:57.000Z</time>
      </trkpt>
      <trkpt lat="47.32421" lon="-1.33142">
        <ele>52</ele>
        <time>2021-04-22T11:25:00.000Z</time>
      </trkpt>
      <trkpt lat="47.32414" lon="-1.33152">
        <ele>51</ele>
        <time>2021-04-22T11:25:02.000Z</time>
      </trkpt>
      <trkpt lat="47.32406" lon="-1.33164">
        <ele>51</ele>
        <time>2021-04-22T11:25:04.000Z</time>
      </trkpt>
      <trkpt lat="47.32397" lon="-1.33175">
        <ele>51</ele>
        <time>2021-04-22T11:25:06.000Z</time>
      </trkpt>
      <trkpt lat="47.32388" lon="-1.33188">
        <ele>51</ele>
        <time>2021-04-22T11:25:08.000Z</time>
      </trkpt>
      <trkpt lat="47.32381" lon="-1.33202">
        <ele>51</ele>
        <time>2021-04-22T11:25:10.000Z</time>
      </trkpt>
      <trkpt lat="47.32373" lon="-1.33216">
        <ele>51</ele>
        <time>2021-04-22T11:25:12.000Z</time>
      </trkpt>
      <trkpt lat="47.32365" lon="-1.33231">
        <ele>51</ele>
        <time>2021-04-22T11:25:14.000Z</time>
      </trkpt>
      <trkpt lat="47.32358" lon="-1.33245">
        <ele>51</ele>
        <time>2021-04-22T11:25:16.000Z</time>
      </trkpt>
      <trkpt lat="47.32351" lon="-1.3326">
        <ele>51</ele>
        <time>2021-04-22T11:25:18.000Z</time>
      </trkpt>
      <trkpt lat="47.32344" lon="-1.33276">
        <ele>51</ele>
        <time>2021-04-22T11:25:20.000Z</time>
      </trkpt>
      <trkpt lat="47.32336" lon="-1.33292">
        <ele>51</ele>
        <time>2021-04-22T11:25:22.000Z</time>
      </trkpt>
      <trkpt lat="47.32329" lon="-1.33308">
        <ele>51</ele>
        <time>2021-04-22T11:25:24.000Z</time>
      </trkpt>
      <trkpt lat="47.32321" lon="-1.33324">
        <ele>51</ele>
        <time>2021-04-22T11:25:26.000Z</time>
      </trkpt>
      <trkpt lat="47.32313" lon="-1.3334">
        <ele>51</ele>
        <time>2021-04-22T11:25:28.000Z</time>
      </trkpt>
      <trkpt lat="47.32306" lon="-1.33356">
        <ele>51</ele>
        <time>2021-04-22T11:25:30.000Z</time>
      </trkpt>
      <trkpt lat="47.32298" lon="-1.33374">
        <ele>51</ele>
        <time>2021-04-22T11:25:32.000Z</time>
      </trkpt>
      <trkpt lat="47.3229" lon="-1.3339">
        <ele>51</ele>
        <time>2021-04-22T11:25:34.000Z</time>
      </trkpt>
      <trkpt lat="47.32283" lon="-1.33407">
        <ele>51</ele>
        <time>2021-04-22T11:25:36.000Z</time>
      </trkpt>
      <trkpt lat="47.32276" lon="-1.33424">
        <ele>51</ele>
        <time>2021-04-22T11:25:38.000Z</time>
      </trkpt>
      <trkpt lat="47.32267" lon="-1.33442">
        <ele>51</ele>
        <time>2021-04-22T11:25:40.000Z</time>
      </trkpt>
      <trkpt lat="47.3226" lon="-1.3346">
        <ele>51</ele>
        <time>2021-04-22T11:25:42.000Z</time>
      </trkpt>
      <trkpt lat="47.32252" lon="-1.33477">
        <ele>51</ele>
        <time>2021-04-22T11:25:44.000Z</time>
      </trkpt>
      <trkpt lat="47.32245" lon="-1.33494">
        <ele>51</ele>
        <time>2021-04-22T11:25:46.000Z</time>
      </trkpt>
      <trkpt lat="47.32237" lon="-1.3351">
        <ele>50</ele>
        <time>2021-04-22T11:25:48.000Z</time>
      </trkpt>
      <trkpt lat="47.3223" lon="-1.33526">
        <ele>50</ele>
        <time>2021-04-22T11:25:50.000Z</time>
      </trkpt>
      <trkpt lat="47.32222" lon="-1.33541">
        <ele>50</ele>
        <time>2021-04-22T11:25:52.000Z</time>
      </trkpt>
      <trkpt lat="47.32216" lon="-1.33556">
        <ele>50</ele>
        <time>2021-04-22T11:25:54.000Z</time>
      </trkpt>
      <trkpt lat="47.3221" lon="-1.33571">
        <ele>49</ele>
        <time>2021-04-22T11:25:56.000Z</time>
      </trkpt>
      <trkpt lat="47.32204" lon="-1.33587">
        <ele>49</ele>
        <time>2021-04-22T11:25:58.000Z</time>
      </trkpt>
      <trkpt lat="47.32197" lon="-1.33603">
        <ele>49</ele>
        <time>2021-04-22T11:26:00.000Z</time>
      </trkpt>
      <trkpt lat="47.32192" lon="-1.33618">
        <ele>49</ele>
        <time>2021-04-22T11:26:02.000Z</time>
      </trkpt>
      <trkpt lat="47.32187" lon="-1.33633">
        <ele>49</ele>
        <time>2021-04-22T11:26:04.000Z</time>
      </trkpt>
      <trkpt lat="47.3218" lon="-1.33649">
        <ele>49</ele>
        <time>2021-04-22T11:26:07.000Z</time>
      </trkpt>
      <trkpt lat="47.32176" lon="-1.33661">
        <ele>48</ele>
        <time>2021-04-22T11:26:09.000Z</time>
      </trkpt>
      <trkpt lat="47.32172" lon="-1.33675">
        <ele>48</ele>
        <time>2021-04-22T11:26:11.000Z</time>
      </trkpt>
      <trkpt lat="47.32166" lon="-1.33692">
        <ele>48</ele>
        <time>2021-04-22T11:26:13.000Z</time>
      </trkpt>
      <trkpt lat="47.32158" lon="-1.33708">
        <ele>48</ele>
        <time>2021-04-22T11:26:15.000Z</time>
      </trkpt>
      <trkpt lat="47.32151" lon="-1.33726">
        <ele>48</ele>
        <time>2021-04-22T11:26:17.000Z</time>
      </trkpt>
      <trkpt lat="47.32143" lon="-1.33742">
        <ele>49</ele>
        <time>2021-04-22T11:26:19.000Z</time>
      </trkpt>
      <trkpt lat="47.32136" lon="-1.3376">
        <ele>49</ele>
        <time>2021-04-22T11:26:21.000Z</time>
      </trkpt>
      <trkpt lat="47.32129" lon="-1.33777">
        <ele>49</ele>
        <time>2021-04-22T11:26:23.000Z</time>
      </trkpt>
      <trkpt lat="47.32122" lon="-1.33793">
        <ele>49</ele>
        <time>2021-04-22T11:26:25.000Z</time>
      </trkpt>
      <trkpt lat="47.32114" lon="-1.33809">
        <ele>50</ele>
        <time>2021-04-22T11:26:27.000Z</time>
      </trkpt>
      <trkpt lat="47.32106" lon="-1.33826">
        <ele>50</ele>
        <time>2021-04-22T11:26:29.000Z</time>
      </trkpt>
      <trkpt lat="47.32098" lon="-1.33843">
        <ele>50</ele>
        <time>2021-04-22T11:26:31.000Z</time>
      </trkpt>
      <trkpt lat="47.32089" lon="-1.33859">
        <ele>50</ele>
        <time>2021-04-22T11:26:33.000Z</time>
      </trkpt>
      <trkpt lat="47.32082" lon="-1.33875">
        <ele>50</ele>
        <time>2021-04-22T11:26:35.000Z</time>
      </trkpt>
      <trkpt lat="47.32074" lon="-1.33891">
        <ele>50</ele>
        <time>2021-04-22T11:26:37.000Z</time>
      </trkpt>
      <trkpt lat="47.32066" lon="-1.33906">
        <ele>51</ele>
        <time>2021-04-22T11:26:39.000Z</time>
      </trkpt>
      <trkpt lat="47.32057" lon="-1.3392">
        <ele>51</ele>
        <time>2021-04-22T11:26:41.000Z</time>
      </trkpt>
      <trkpt lat="47.32048" lon="-1.33934">
        <ele>51</ele>
        <time>2021-04-22T11:26:43.000Z</time>
      </trkpt>
      <trkpt lat="47.3204" lon="-1.3395">
        <ele>52</ele>
        <time>2021-04-22T11:26:45.000Z</time>
      </trkpt>
      <trkpt lat="47.32033" lon="-1.33963">
        <ele>52</ele>
        <time>2021-04-22T11:26:47.000Z</time>
      </trkpt>
      <trkpt lat="47.32026" lon="-1.33974">
        <ele>52</ele>
        <time>2021-04-22T11:26:49.000Z</time>
      </trkpt>
      <trkpt lat="47.32018" lon="-1.33985">
        <ele>52</ele>
        <time>2021-04-22T11:26:51.000Z</time>
      </trkpt>
      <trkpt lat="47.3201" lon="-1.33999">
        <ele>53</ele>
        <time>2021-04-22T11:26:53.000Z</time>
      </trkpt>
      <trkpt lat="47.32001" lon="-1.34013">
        <ele>52</ele>
        <time>2021-04-22T11:26:55.000Z</time>
      </trkpt>
      <trkpt lat="47.31992" lon="-1.34028">
        <ele>53</ele>
        <time>2021-04-22T11:26:57.000Z</time>
      </trkpt>
      <trkpt lat="47.31982" lon="-1.34042">
        <ele>53</ele>
        <time>2021-04-22T11:26:59.000Z</time>
      </trkpt>
      <trkpt lat="47.31973" lon="-1.34056">
        <ele>54</ele>
        <time>2021-04-22T11:27:01.000Z</time>
      </trkpt>
      <trkpt lat="47.31964" lon="-1.3407">
        <ele>53</ele>
        <time>2021-04-22T11:27:03.000Z</time>
      </trkpt>
      <trkpt lat="47.31956" lon="-1.34085">
        <ele>53</ele>
        <time>2021-04-22T11:27:05.000Z</time>
      </trkpt>
      <trkpt lat="47.31947" lon="-1.34099">
        <ele>53</ele>
        <time>2021-04-22T11:27:07.000Z</time>
      </trkpt>
      <trkpt lat="47.31938" lon="-1.34112">
        <ele>53</ele>
        <time>2021-04-22T11:27:09.000Z</time>
      </trkpt>
      <trkpt lat="47.3193" lon="-1.34125">
        <ele>53</ele>
        <time>2021-04-22T11:27:11.000Z</time>
      </trkpt>
      <trkpt lat="47.31922" lon="-1.34138">
        <ele>52</ele>
        <time>2021-04-22T11:27:13.000Z</time>
      </trkpt>
      <trkpt lat="47.31913" lon="-1.34151">
        <ele>53</ele>
        <time>2021-04-22T11:27:15.000Z</time>
      </trkpt>
      <trkpt lat="47.31903" lon="-1.34164">
        <ele>52</ele>
        <time>2021-04-22T11:27:17.000Z</time>
      </trkpt>
      <trkpt lat="47.31894" lon="-1.34178">
        <ele>51</ele>
        <time>2021-04-22T11:27:19.000Z</time>
      </trkpt>
      <trkpt lat="47.31883" lon="-1.34193">
        <ele>51</ele>
        <time>2021-04-22T11:27:21.000Z</time>
      </trkpt>
      <trkpt lat="47.31872" lon="-1.34207">
        <ele>51</ele>
        <time>2021-04-22T11:27:23.000Z</time>
      </trkpt>
      <trkpt lat="47.31862" lon="-1.34222">
        <ele>52</ele>
        <time>2021-04-22T11:27:25.000Z</time>
      </trkpt>
      <trkpt lat="47.31852" lon="-1.34238">
        <ele>52</ele>
        <time>2021-04-22T11:27:27.000Z</time>
      </trkpt>
      <trkpt lat="47.31843" lon="-1.34252">
        <ele>51</ele>
        <time>2021-04-22T11:27:29.000Z</time>
      </trkpt>
      <trkpt lat="47.31834" lon="-1.34268">
        <ele>51</ele>
        <time>2021-04-22T11:27:31.000Z</time>
      </trkpt>
      <trkpt lat="47.31824" lon="-1.34284">
        <ele>51</ele>
        <time>2021-04-22T11:27:33.000Z</time>
      </trkpt>
      <trkpt lat="47.31814" lon="-1.34298">
        <ele>51</ele>
        <time>2021-04-22T11:27:35.000Z</time>
      </trkpt>
      <trkpt lat="47.31805" lon="-1.34312">
        <ele>50</ele>
        <time>2021-04-22T11:27:37.000Z</time>
      </trkpt>
      <trkpt lat="47.31796" lon="-1.34328">
        <ele>50</ele>
        <time>2021-04-22T11:27:39.000Z</time>
      </trkpt>
      <trkpt lat="47.31786" lon="-1.34342">
        <ele>50</ele>
        <time>2021-04-22T11:27:41.000Z</time>
      </trkpt>
      <trkpt lat="47.31776" lon="-1.34357">
        <ele>50</ele>
        <time>2021-04-22T11:27:43.000Z</time>
      </trkpt>
      <trkpt lat="47.31767" lon="-1.34372">
        <ele>50</ele>
        <time>2021-04-22T11:27:45.000Z</time>
      </trkpt>
      <trkpt lat="47.31759" lon="-1.34385">
        <ele>50</ele>
        <time>2021-04-22T11:27:47.000Z</time>
      </trkpt>
      <trkpt lat="47.31752" lon="-1.34397">
        <ele>49</ele>
        <time>2021-04-22T11:27:49.000Z</time>
      </trkpt>
      <trkpt lat="47.31744" lon="-1.34411">
        <ele>48</ele>
        <time>2021-04-22T11:27:51.000Z</time>
      </trkpt>
      <trkpt lat="47.31735" lon="-1.34425">
        <ele>47</ele>
        <time>2021-04-22T11:27:53.000Z</time>
      </trkpt>
      <trkpt lat="47.31726" lon="-1.3444">
        <ele>47</ele>
        <time>2021-04-22T11:27:55.000Z</time>
      </trkpt>
      <trkpt lat="47.31717" lon="-1.34455">
        <ele>48</ele>
        <time>2021-04-22T11:27:57.000Z</time>
      </trkpt>
      <trkpt lat="47.31708" lon="-1.34471">
        <ele>48</ele>
        <time>2021-04-22T11:27:59.000Z</time>
      </trkpt>
      <trkpt lat="47.31699" lon="-1.34486">
        <ele>48</ele>
        <time>2021-04-22T11:28:01.000Z</time>
      </trkpt>
      <trkpt lat="47.31689" lon="-1.34502">
        <ele>48</ele>
        <time>2021-04-22T11:28:03.000Z</time>
      </trkpt>
      <trkpt lat="47.3168" lon="-1.34518">
        <ele>48</ele>
        <time>2021-04-22T11:28:05.000Z</time>
      </trkpt>
      <trkpt lat="47.3167" lon="-1.34533">
        <ele>48</ele>
        <time>2021-04-22T11:28:07.000Z</time>
      </trkpt>
      <trkpt lat="47.31661" lon="-1.34548">
        <ele>48</ele>
        <time>2021-04-22T11:28:09.000Z</time>
      </trkpt>
      <trkpt lat="47.31652" lon="-1.34563">
        <ele>49</ele>
        <time>2021-04-22T11:28:11.000Z</time>
      </trkpt>
      <trkpt lat="47.31643" lon="-1.34578">
        <ele>50</ele>
        <time>2021-04-22T11:28:13.000Z</time>
      </trkpt>
      <trkpt lat="47.31634" lon="-1.3459">
        <ele>50</ele>
        <time>2021-04-22T11:28:15.000Z</time>
      </trkpt>
      <trkpt lat="47.31625" lon="-1.34605">
        <ele>51</ele>
        <time>2021-04-22T11:28:17.000Z</time>
      </trkpt>
      <trkpt lat="47.31615" lon="-1.3462">
        <ele>51</ele>
        <time>2021-04-22T11:28:19.000Z</time>
      </trkpt>
      <trkpt lat="47.31606" lon="-1.34635">
        <ele>51</ele>
        <time>2021-04-22T11:28:21.000Z</time>
      </trkpt>
      <trkpt lat="47.31597" lon="-1.3465">
        <ele>51</ele>
        <time>2021-04-22T11:28:23.000Z</time>
      </trkpt>
      <trkpt lat="47.31587" lon="-1.34665">
        <ele>51</ele>
        <time>2021-04-22T11:28:25.000Z</time>
      </trkpt>
      <trkpt lat="47.31578" lon="-1.34681">
        <ele>51</ele>
        <time>2021-04-22T11:28:27.000Z</time>
      </trkpt>
      <trkpt lat="47.31568" lon="-1.34695">
        <ele>50</ele>
        <time>2021-04-22T11:28:29.000Z</time>
      </trkpt>
      <trkpt lat="47.31558" lon="-1.3471">
        <ele>50</ele>
        <time>2021-04-22T11:28:31.000Z</time>
      </trkpt>
      <trkpt lat="47.31548" lon="-1.34726">
        <ele>50</ele>
        <time>2021-04-22T11:28:33.000Z</time>
      </trkpt>
      <trkpt lat="47.31538" lon="-1.34741">
        <ele>50</ele>
        <time>2021-04-22T11:28:35.000Z</time>
      </trkpt>
      <trkpt lat="47.31527" lon="-1.34757">
        <ele>49</ele>
        <time>2021-04-22T11:28:37.000Z</time>
      </trkpt>
      <trkpt lat="47.31517" lon="-1.34773">
        <ele>49</ele>
        <time>2021-04-22T11:28:39.000Z</time>
      </trkpt>
      <trkpt lat="47.31507" lon="-1.34788">
        <ele>50</ele>
        <time>2021-04-22T11:28:41.000Z</time>
      </trkpt>
      <trkpt lat="47.31497" lon="-1.34804">
        <ele>50</ele>
        <time>2021-04-22T11:28:43.000Z</time>
      </trkpt>
      <trkpt lat="47.31488" lon="-1.34819">
        <ele>50</ele>
        <time>2021-04-22T11:28:45.000Z</time>
      </trkpt>
      <trkpt lat="47.3148" lon="-1.34835">
        <ele>51</ele>
        <time>2021-04-22T11:28:47.000Z</time>
      </trkpt>
      <trkpt lat="47.31471" lon="-1.34849">
        <ele>52</ele>
        <time>2021-04-22T11:28:49.000Z</time>
      </trkpt>
      <trkpt lat="47.31462" lon="-1.34864">
        <ele>53</ele>
        <time>2021-04-22T11:28:51.000Z</time>
      </trkpt>
      <trkpt lat="47.31452" lon="-1.34878">
        <ele>53</ele>
        <time>2021-04-22T11:28:53.000Z</time>
      </trkpt>
      <trkpt lat="47.31443" lon="-1.34893">
        <ele>53</ele>
        <time>2021-04-22T11:28:55.000Z</time>
      </trkpt>
      <trkpt lat="47.31434" lon="-1.34907">
        <ele>52</ele>
        <time>2021-04-22T11:28:57.000Z</time>
      </trkpt>
      <trkpt lat="47.31425" lon="-1.34921">
        <ele>52</ele>
        <time>2021-04-22T11:28:59.000Z</time>
      </trkpt>
      <trkpt lat="47.31416" lon="-1.34935">
        <ele>51</ele>
        <time>2021-04-22T11:29:01.000Z</time>
      </trkpt>
      <trkpt lat="47.31407" lon="-1.3495">
        <ele>52</ele>
        <time>2021-04-22T11:29:03.000Z</time>
      </trkpt>
      <trkpt lat="47.31398" lon="-1.34964">
        <ele>52</ele>
        <time>2021-04-22T11:29:05.000Z</time>
      </trkpt>
      <trkpt lat="47.31389" lon="-1.34978">
        <ele>52</ele>
        <time>2021-04-22T11:29:07.000Z</time>
      </trkpt>
      <trkpt lat="47.31381" lon="-1.34993">
        <ele>52</ele>
        <time>2021-04-22T11:29:09.000Z</time>
      </trkpt>
      <trkpt lat="47.31373" lon="-1.35007">
        <ele>51</ele>
        <time>2021-04-22T11:29:11.000Z</time>
      </trkpt>
      <trkpt lat="47.31364" lon="-1.35021">
        <ele>51</ele>
        <time>2021-04-22T11:29:13.000Z</time>
      </trkpt>
      <trkpt lat="47.31355" lon="-1.35035">
        <ele>51</ele>
        <time>2021-04-22T11:29:15.000Z</time>
      </trkpt>
      <trkpt lat="47.31346" lon="-1.3505">
        <ele>52</ele>
        <time>2021-04-22T11:29:17.000Z</time>
      </trkpt>
      <trkpt lat="47.31338" lon="-1.35063">
        <ele>52</ele>
        <time>2021-04-22T11:29:19.000Z</time>
      </trkpt>
      <trkpt lat="47.31329" lon="-1.35077">
        <ele>52</ele>
        <time>2021-04-22T11:29:21.000Z</time>
      </trkpt>
      <trkpt lat="47.31318" lon="-1.35086">
        <ele>52</ele>
        <time>2021-04-22T11:29:23.000Z</time>
      </trkpt>
      <trkpt lat="47.31305" lon="-1.35092">
        <ele>51</ele>
        <time>2021-04-22T11:29:25.000Z</time>
      </trkpt>
      <trkpt lat="47.31295" lon="-1.35106">
        <ele>51</ele>
        <time>2021-04-22T11:29:27.000Z</time>
      </trkpt>
      <trkpt lat="47.31288" lon="-1.3512">
        <ele>52</ele>
        <time>2021-04-22T11:29:29.000Z</time>
      </trkpt>
      <trkpt lat="47.31283" lon="-1.35135">
        <ele>51</ele>
        <time>2021-04-22T11:29:31.000Z</time>
      </trkpt>
      <trkpt lat="47.31275" lon="-1.3515">
        <ele>51</ele>
        <time>2021-04-22T11:29:33.000Z</time>
      </trkpt>
      <trkpt lat="47.31267" lon="-1.35166">
        <ele>51</ele>
        <time>2021-04-22T11:29:35.000Z</time>
      </trkpt>
      <trkpt lat="47.31258" lon="-1.35181">
        <ele>50</ele>
        <time>2021-04-22T11:29:37.000Z</time>
      </trkpt>
      <trkpt lat="47.3125" lon="-1.35196">
        <ele>50</ele>
        <time>2021-04-22T11:29:39.000Z</time>
      </trkpt>
      <trkpt lat="47.3124" lon="-1.35211">
        <ele>50</ele>
        <time>2021-04-22T11:29:41.000Z</time>
      </trkpt>
      <trkpt lat="47.31231" lon="-1.35225">
        <ele>50</ele>
        <time>2021-04-22T11:29:43.000Z</time>
      </trkpt>
      <trkpt lat="47.31221" lon="-1.35239">
        <ele>51</ele>
        <time>2021-04-22T11:29:45.000Z</time>
      </trkpt>
      <trkpt lat="47.31212" lon="-1.35255">
        <ele>51</ele>
        <time>2021-04-22T11:29:47.000Z</time>
      </trkpt>
      <trkpt lat="47.31203" lon="-1.3527">
        <ele>51</ele>
        <time>2021-04-22T11:29:49.000Z</time>
      </trkpt>
      <trkpt lat="47.31194" lon="-1.35284">
        <ele>51</ele>
        <time>2021-04-22T11:29:51.000Z</time>
      </trkpt>
      <trkpt lat="47.31185" lon="-1.35298">
        <ele>51</ele>
        <time>2021-04-22T11:29:53.000Z</time>
      </trkpt>
      <trkpt lat="47.31176" lon="-1.35312">
        <ele>51</ele>
        <time>2021-04-22T11:29:55.000Z</time>
      </trkpt>
      <trkpt lat="47.31167" lon="-1.35326">
        <ele>51</ele>
        <time>2021-04-22T11:29:57.000Z</time>
      </trkpt>
      <trkpt lat="47.31157" lon="-1.3534">
        <ele>51</ele>
        <time>2021-04-22T11:29:59.000Z</time>
      </trkpt>
      <trkpt lat="47.31148" lon="-1.35355">
        <ele>50</ele>
        <time>2021-04-22T11:30:01.000Z</time>
      </trkpt>
      <trkpt lat="47.3114" lon="-1.35369">
        <ele>51</ele>
        <time>2021-04-22T11:30:03.000Z</time>
      </trkpt>
      <trkpt lat="47.31131" lon="-1.35384">
        <ele>51</ele>
        <time>2021-04-22T11:30:05.000Z</time>
      </trkpt>
      <trkpt lat="47.31122" lon="-1.35398">
        <ele>51</ele>
        <time>2021-04-22T11:30:07.000Z</time>
      </trkpt>
      <trkpt lat="47.31113" lon="-1.35412">
        <ele>52</ele>
        <time>2021-04-22T11:30:09.000Z</time>
      </trkpt>
      <trkpt lat="47.31104" lon="-1.35426">
        <ele>53</ele>
        <time>2021-04-22T11:30:11.000Z</time>
      </trkpt>
      <trkpt lat="47.31094" lon="-1.35439">
        <ele>53</ele>
        <time>2021-04-22T11:30:13.000Z</time>
      </trkpt>
      <trkpt lat="47.31083" lon="-1.35453">
        <ele>53</ele>
        <time>2021-04-22T11:30:15.000Z</time>
      </trkpt>
      <trkpt lat="47.31073" lon="-1.35466">
        <ele>53</ele>
        <time>2021-04-22T11:30:17.000Z</time>
      </trkpt>
      <trkpt lat="47.31063" lon="-1.35478">
        <ele>53</ele>
        <time>2021-04-22T11:30:19.000Z</time>
      </trkpt>
      <trkpt lat="47.31052" lon="-1.35491">
        <ele>53</ele>
        <time>2021-04-22T11:30:21.000Z</time>
      </trkpt>
      <trkpt lat="47.31042" lon="-1.35503">
        <ele>53</ele>
        <time>2021-04-22T11:30:23.000Z</time>
      </trkpt>
      <trkpt lat="47.31032" lon="-1.35515">
        <ele>53</ele>
        <time>2021-04-22T11:30:25.000Z</time>
      </trkpt>
      <trkpt lat="47.31021" lon="-1.35527">
        <ele>52</ele>
        <time>2021-04-22T11:30:27.000Z</time>
      </trkpt>
      <trkpt lat="47.31012" lon="-1.35539">
        <ele>52</ele>
        <time>2021-04-22T11:30:29.000Z</time>
      </trkpt>
      <trkpt lat="47.31001" lon="-1.35551">
        <ele>51</ele>
        <time>2021-04-22T11:30:31.000Z</time>
      </trkpt>
      <trkpt lat="47.3099" lon="-1.35564">
        <ele>52</ele>
        <time>2021-04-22T11:30:33.000Z</time>
      </trkpt>
      <trkpt lat="47.3098" lon="-1.35577">
        <ele>52</ele>
        <time>2021-04-22T11:30:35.000Z</time>
      </trkpt>
      <trkpt lat="47.30969" lon="-1.35588">
        <ele>52</ele>
        <time>2021-04-22T11:30:37.000Z</time>
      </trkpt>
      <trkpt lat="47.30959" lon="-1.356">
        <ele>52</ele>
        <time>2021-04-22T11:30:39.000Z</time>
      </trkpt>
      <trkpt lat="47.30949" lon="-1.35613">
        <ele>51</ele>
        <time>2021-04-22T11:30:41.000Z</time>
      </trkpt>
      <trkpt lat="47.30938" lon="-1.35625">
        <ele>51</ele>
        <time>2021-04-22T11:30:43.000Z</time>
      </trkpt>
      <trkpt lat="47.30928" lon="-1.35636">
        <ele>51</ele>
        <time>2021-04-22T11:30:45.000Z</time>
      </trkpt>
      <trkpt lat="47.30917" lon="-1.35646">
        <ele>51</ele>
        <time>2021-04-22T11:30:47.000Z</time>
      </trkpt>
      <trkpt lat="47.30908" lon="-1.35659">
        <ele>50</ele>
        <time>2021-04-22T11:30:49.000Z</time>
      </trkpt>
      <trkpt lat="47.30898" lon="-1.35671">
        <ele>50</ele>
        <time>2021-04-22T11:30:51.000Z</time>
      </trkpt>
      <trkpt lat="47.30887" lon="-1.35683">
        <ele>49</ele>
        <time>2021-04-22T11:30:53.000Z</time>
      </trkpt>
      <trkpt lat="47.30877" lon="-1.35695">
        <ele>49</ele>
        <time>2021-04-22T11:30:55.000Z</time>
      </trkpt>
      <trkpt lat="47.30866" lon="-1.35706">
        <ele>49</ele>
        <time>2021-04-22T11:30:57.000Z</time>
      </trkpt>
      <trkpt lat="47.30855" lon="-1.35718">
        <ele>49</ele>
        <time>2021-04-22T11:30:59.000Z</time>
      </trkpt>
      <trkpt lat="47.30845" lon="-1.3573">
        <ele>49</ele>
        <time>2021-04-22T11:31:01.000Z</time>
      </trkpt>
      <trkpt lat="47.30835" lon="-1.35742">
        <ele>48</ele>
        <time>2021-04-22T11:31:03.000Z</time>
      </trkpt>
      <trkpt lat="47.30825" lon="-1.35753">
        <ele>48</ele>
        <time>2021-04-22T11:31:05.000Z</time>
      </trkpt>
      <trkpt lat="47.30815" lon="-1.35765">
        <ele>48</ele>
        <time>2021-04-22T11:31:07.000Z</time>
      </trkpt>
      <trkpt lat="47.30805" lon="-1.35777">
        <ele>48</ele>
        <time>2021-04-22T11:31:09.000Z</time>
      </trkpt>
      <trkpt lat="47.30795" lon="-1.3579">
        <ele>48</ele>
        <time>2021-04-22T11:31:11.000Z</time>
      </trkpt>
      <trkpt lat="47.30786" lon="-1.35802">
        <ele>49</ele>
        <time>2021-04-22T11:31:13.000Z</time>
      </trkpt>
      <trkpt lat="47.30776" lon="-1.35815">
        <ele>49</ele>
        <time>2021-04-22T11:31:15.000Z</time>
      </trkpt>
      <trkpt lat="47.30765" lon="-1.35828">
        <ele>48</ele>
        <time>2021-04-22T11:31:17.000Z</time>
      </trkpt>
      <trkpt lat="47.30754" lon="-1.3584">
        <ele>48</ele>
        <time>2021-04-22T11:31:19.000Z</time>
      </trkpt>
      <trkpt lat="47.30744" lon="-1.35852">
        <ele>48</ele>
        <time>2021-04-22T11:31:21.000Z</time>
      </trkpt>
      <trkpt lat="47.30733" lon="-1.35864">
        <ele>49</ele>
        <time>2021-04-22T11:31:23.000Z</time>
      </trkpt>
      <trkpt lat="47.30722" lon="-1.35876">
        <ele>49</ele>
        <time>2021-04-22T11:31:25.000Z</time>
      </trkpt>
      <trkpt lat="47.30712" lon="-1.35888">
        <ele>49</ele>
        <time>2021-04-22T11:31:27.000Z</time>
      </trkpt>
      <trkpt lat="47.30702" lon="-1.35899">
        <ele>49</ele>
        <time>2021-04-22T11:31:29.000Z</time>
      </trkpt>
      <trkpt lat="47.30691" lon="-1.35912">
        <ele>48</ele>
        <time>2021-04-22T11:31:31.000Z</time>
      </trkpt>
      <trkpt lat="47.3068" lon="-1.35925">
        <ele>49</ele>
        <time>2021-04-22T11:31:33.000Z</time>
      </trkpt>
      <trkpt lat="47.3067" lon="-1.35937">
        <ele>49</ele>
        <time>2021-04-22T11:31:35.000Z</time>
      </trkpt>
      <trkpt lat="47.3066" lon="-1.35949">
        <ele>49</ele>
        <time>2021-04-22T11:31:37.000Z</time>
      </trkpt>
      <trkpt lat="47.3065" lon="-1.35961">
        <ele>49</ele>
        <time>2021-04-22T11:31:39.000Z</time>
      </trkpt>
      <trkpt lat="47.3064" lon="-1.35973">
        <ele>49</ele>
        <time>2021-04-22T11:31:41.000Z</time>
      </trkpt>
      <trkpt lat="47.30629" lon="-1.35985">
        <ele>49</ele>
        <time>2021-04-22T11:31:43.000Z</time>
      </trkpt>
      <trkpt lat="47.30619" lon="-1.35997">
        <ele>49</ele>
        <time>2021-04-22T11:31:45.000Z</time>
      </trkpt>
      <trkpt lat="47.30609" lon="-1.36007">
        <ele>49</ele>
        <time>2021-04-22T11:31:47.000Z</time>
      </trkpt>
      <trkpt lat="47.30599" lon="-1.36016">
        <ele>49</ele>
        <time>2021-04-22T11:31:49.000Z</time>
      </trkpt>
      <trkpt lat="47.30588" lon="-1.36025">
        <ele>49</ele>
        <time>2021-04-22T11:31:51.000Z</time>
      </trkpt>
      <trkpt lat="47.30582" lon="-1.3604">
        <ele>49</ele>
        <time>2021-04-22T11:31:54.000Z</time>
      </trkpt>
      <trkpt lat="47.30578" lon="-1.36052">
        <ele>50</ele>
        <time>2021-04-22T11:31:56.000Z</time>
      </trkpt>
      <trkpt lat="47.30569" lon="-1.36063">
        <ele>49</ele>
        <time>2021-04-22T11:31:58.000Z</time>
      </trkpt>
      <trkpt lat="47.30559" lon="-1.36076">
        <ele>49</ele>
        <time>2021-04-22T11:32:00.000Z</time>
      </trkpt>
      <trkpt lat="47.30551" lon="-1.36089">
        <ele>49</ele>
        <time>2021-04-22T11:32:02.000Z</time>
      </trkpt>
      <trkpt lat="47.30542" lon="-1.36103">
        <ele>50</ele>
        <time>2021-04-22T11:32:04.000Z</time>
      </trkpt>
      <trkpt lat="47.30534" lon="-1.36117">
        <ele>51</ele>
        <time>2021-04-22T11:32:06.000Z</time>
      </trkpt>
      <trkpt lat="47.30526" lon="-1.3613">
        <ele>51</ele>
        <time>2021-04-22T11:32:08.000Z</time>
      </trkpt>
      <trkpt lat="47.30518" lon="-1.36145">
        <ele>51</ele>
        <time>2021-04-22T11:32:10.000Z</time>
      </trkpt>
      <trkpt lat="47.3051" lon="-1.36159">
        <ele>51</ele>
        <time>2021-04-22T11:32:12.000Z</time>
      </trkpt>
      <trkpt lat="47.30502" lon="-1.36173">
        <ele>51</ele>
        <time>2021-04-22T11:32:14.000Z</time>
      </trkpt>
      <trkpt lat="47.30493" lon="-1.36189">
        <ele>51</ele>
        <time>2021-04-22T11:32:16.000Z</time>
      </trkpt>
      <trkpt lat="47.30484" lon="-1.36205">
        <ele>50</ele>
        <time>2021-04-22T11:32:18.000Z</time>
      </trkpt>
      <trkpt lat="47.30476" lon="-1.36221">
        <ele>50</ele>
        <time>2021-04-22T11:32:20.000Z</time>
      </trkpt>
      <trkpt lat="47.30468" lon="-1.36236">
        <ele>50</ele>
        <time>2021-04-22T11:32:22.000Z</time>
      </trkpt>
      <trkpt lat="47.3046" lon="-1.36252">
        <ele>50</ele>
        <time>2021-04-22T11:32:24.000Z</time>
      </trkpt>
      <trkpt lat="47.30452" lon="-1.36268">
        <ele>50</ele>
        <time>2021-04-22T11:32:26.000Z</time>
      </trkpt>
      <trkpt lat="47.30445" lon="-1.36284">
        <ele>50</ele>
        <time>2021-04-22T11:32:28.000Z</time>
      </trkpt>
      <trkpt lat="47.30436" lon="-1.36299">
        <ele>49</ele>
        <time>2021-04-22T11:32:30.000Z</time>
      </trkpt>
      <trkpt lat="47.30429" lon="-1.36315">
        <ele>49</ele>
        <time>2021-04-22T11:32:32.000Z</time>
      </trkpt>
      <trkpt lat="47.30421" lon="-1.3633">
        <ele>49</ele>
        <time>2021-04-22T11:32:34.000Z</time>
      </trkpt>
      <trkpt lat="47.30414" lon="-1.36345">
        <ele>49</ele>
        <time>2021-04-22T11:32:36.000Z</time>
      </trkpt>
      <trkpt lat="47.30407" lon="-1.36359">
        <ele>49</ele>
        <time>2021-04-22T11:32:38.000Z</time>
      </trkpt>
      <trkpt lat="47.304" lon="-1.36374">
        <ele>49</ele>
        <time>2021-04-22T11:32:40.000Z</time>
      </trkpt>
      <trkpt lat="47.30392" lon="-1.3639">
        <ele>48</ele>
        <time>2021-04-22T11:32:42.000Z</time>
      </trkpt>
      <trkpt lat="47.30385" lon="-1.36405">
        <ele>48</ele>
        <time>2021-04-22T11:32:44.000Z</time>
      </trkpt>
      <trkpt lat="47.30378" lon="-1.36421">
        <ele>48</ele>
        <time>2021-04-22T11:32:46.000Z</time>
      </trkpt>
      <trkpt lat="47.3037" lon="-1.36435">
        <ele>48</ele>
        <time>2021-04-22T11:32:48.000Z</time>
      </trkpt>
      <trkpt lat="47.30363" lon="-1.36451">
        <ele>48</ele>
        <time>2021-04-22T11:32:50.000Z</time>
      </trkpt>
      <trkpt lat="47.30355" lon="-1.36466">
        <ele>47</ele>
        <time>2021-04-22T11:32:52.000Z</time>
      </trkpt>
      <trkpt lat="47.30348" lon="-1.36481">
        <ele>47</ele>
        <time>2021-04-22T11:32:54.000Z</time>
      </trkpt>
      <trkpt lat="47.3034" lon="-1.36497">
        <ele>47</ele>
        <time>2021-04-22T11:32:56.000Z</time>
      </trkpt>
      <trkpt lat="47.30333" lon="-1.36513">
        <ele>47</ele>
        <time>2021-04-22T11:32:58.000Z</time>
      </trkpt>
      <trkpt lat="47.30325" lon="-1.36528">
        <ele>46</ele>
        <time>2021-04-22T11:33:00.000Z</time>
      </trkpt>
      <trkpt lat="47.30318" lon="-1.36544">
        <ele>46</ele>
        <time>2021-04-22T11:33:02.000Z</time>
      </trkpt>
      <trkpt lat="47.3031" lon="-1.36558">
        <ele>46</ele>
        <time>2021-04-22T11:33:04.000Z</time>
      </trkpt>
      <trkpt lat="47.30303" lon="-1.36574">
        <ele>46</ele>
        <time>2021-04-22T11:33:06.000Z</time>
      </trkpt>
      <trkpt lat="47.30296" lon="-1.36589">
        <ele>46</ele>
        <time>2021-04-22T11:33:08.000Z</time>
      </trkpt>
      <trkpt lat="47.30289" lon="-1.36604">
        <ele>46</ele>
        <time>2021-04-22T11:33:10.000Z</time>
      </trkpt>
      <trkpt lat="47.30281" lon="-1.36619">
        <ele>46</ele>
        <time>2021-04-22T11:33:12.000Z</time>
      </trkpt>
      <trkpt lat="47.30274" lon="-1.36636">
        <ele>45</ele>
        <time>2021-04-22T11:33:14.000Z</time>
      </trkpt>
      <trkpt lat="47.30267" lon="-1.36652">
        <ele>45</ele>
        <time>2021-04-22T11:33:16.000Z</time>
      </trkpt>
      <trkpt lat="47.30259" lon="-1.36667">
        <ele>45</ele>
        <time>2021-04-22T11:33:18.000Z</time>
      </trkpt>
      <trkpt lat="47.30252" lon="-1.36683">
        <ele>46</ele>
        <time>2021-04-22T11:33:20.000Z</time>
      </trkpt>
      <trkpt lat="47.30245" lon="-1.36699">
        <ele>45</ele>
        <time>2021-04-22T11:33:22.000Z</time>
      </trkpt>
      <trkpt lat="47.30237" lon="-1.36714">
        <ele>45</ele>
        <time>2021-04-22T11:33:24.000Z</time>
      </trkpt>
      <trkpt lat="47.30229" lon="-1.36729">
        <ele>46</ele>
        <time>2021-04-22T11:33:26.000Z</time>
      </trkpt>
      <trkpt lat="47.30221" lon="-1.36744">
        <ele>45</ele>
        <time>2021-04-22T11:33:28.000Z</time>
      </trkpt>
      <trkpt lat="47.30214" lon="-1.3676">
        <ele>45</ele>
        <time>2021-04-22T11:33:30.000Z</time>
      </trkpt>
      <trkpt lat="47.30207" lon="-1.36775">
        <ele>45</ele>
        <time>2021-04-22T11:33:32.000Z</time>
      </trkpt>
      <trkpt lat="47.302" lon="-1.36791">
        <ele>46</ele>
        <time>2021-04-22T11:33:34.000Z</time>
      </trkpt>
      <trkpt lat="47.30193" lon="-1.36806">
        <ele>46</ele>
        <time>2021-04-22T11:33:36.000Z</time>
      </trkpt>
      <trkpt lat="47.30187" lon="-1.36821">
        <ele>47</ele>
        <time>2021-04-22T11:33:38.000Z</time>
      </trkpt>
      <trkpt lat="47.3018" lon="-1.36836">
        <ele>47</ele>
        <time>2021-04-22T11:33:40.000Z</time>
      </trkpt>
      <trkpt lat="47.30173" lon="-1.36851">
        <ele>47</ele>
        <time>2021-04-22T11:33:42.000Z</time>
      </trkpt>
      <trkpt lat="47.30165" lon="-1.36865">
        <ele>46</ele>
        <time>2021-04-22T11:33:44.000Z</time>
      </trkpt>
      <trkpt lat="47.30158" lon="-1.3688">
        <ele>46</ele>
        <time>2021-04-22T11:33:46.000Z</time>
      </trkpt>
      <trkpt lat="47.3015" lon="-1.36895">
        <ele>47</ele>
        <time>2021-04-22T11:33:48.000Z</time>
      </trkpt>
      <trkpt lat="47.30142" lon="-1.3691">
        <ele>47</ele>
        <time>2021-04-22T11:33:50.000Z</time>
      </trkpt>
      <trkpt lat="47.30135" lon="-1.36926">
        <ele>47</ele>
        <time>2021-04-22T11:33:52.000Z</time>
      </trkpt>
      <trkpt lat="47.30127" lon="-1.36941">
        <ele>47</ele>
        <time>2021-04-22T11:33:54.000Z</time>
      </trkpt>
      <trkpt lat="47.30121" lon="-1.36956">
        <ele>48</ele>
        <time>2021-04-22T11:33:56.000Z</time>
      </trkpt>
      <trkpt lat="47.30116" lon="-1.36972">
        <ele>48</ele>
        <time>2021-04-22T11:33:58.000Z</time>
      </trkpt>
      <trkpt lat="47.30109" lon="-1.36986">
        <ele>49</ele>
        <time>2021-04-22T11:34:00.000Z</time>
      </trkpt>
      <trkpt lat="47.30102" lon="-1.37001">
        <ele>49</ele>
        <time>2021-04-22T11:34:02.000Z</time>
      </trkpt>
      <trkpt lat="47.30095" lon="-1.37016">
        <ele>50</ele>
        <time>2021-04-22T11:34:04.000Z</time>
      </trkpt>
      <trkpt lat="47.30087" lon="-1.3703">
        <ele>50</ele>
        <time>2021-04-22T11:34:06.000Z</time>
      </trkpt>
      <trkpt lat="47.30079" lon="-1.37045">
        <ele>51</ele>
        <time>2021-04-22T11:34:08.000Z</time>
      </trkpt>
      <trkpt lat="47.3007" lon="-1.37058">
        <ele>51</ele>
        <time>2021-04-22T11:34:10.000Z</time>
      </trkpt>
      <trkpt lat="47.30062" lon="-1.37072">
        <ele>50</ele>
        <time>2021-04-22T11:34:12.000Z</time>
      </trkpt>
      <trkpt lat="47.30053" lon="-1.37086">
        <ele>50</ele>
        <time>2021-04-22T11:34:14.000Z</time>
      </trkpt>
      <trkpt lat="47.30045" lon="-1.371">
        <ele>50</ele>
        <time>2021-04-22T11:34:16.000Z</time>
      </trkpt>
      <trkpt lat="47.30036" lon="-1.37114">
        <ele>50</ele>
        <time>2021-04-22T11:34:18.000Z</time>
      </trkpt>
      <trkpt lat="47.30027" lon="-1.37129">
        <ele>50</ele>
        <time>2021-04-22T11:34:20.000Z</time>
      </trkpt>
      <trkpt lat="47.30019" lon="-1.37142">
        <ele>50</ele>
        <time>2021-04-22T11:34:22.000Z</time>
      </trkpt>
      <trkpt lat="47.3001" lon="-1.37157">
        <ele>50</ele>
        <time>2021-04-22T11:34:24.000Z</time>
      </trkpt>
      <trkpt lat="47.3" lon="-1.3717">
        <ele>50</ele>
        <time>2021-04-22T11:34:26.000Z</time>
      </trkpt>
      <trkpt lat="47.29991" lon="-1.37184">
        <ele>50</ele>
        <time>2021-04-22T11:34:28.000Z</time>
      </trkpt>
      <trkpt lat="47.29982" lon="-1.37198">
        <ele>50</ele>
        <time>2021-04-22T11:34:30.000Z</time>
      </trkpt>
      <trkpt lat="47.29973" lon="-1.37212">
        <ele>50</ele>
        <time>2021-04-22T11:34:32.000Z</time>
      </trkpt>
      <trkpt lat="47.29965" lon="-1.37225">
        <ele>51</ele>
        <time>2021-04-22T11:34:34.000Z</time>
      </trkpt>
      <trkpt lat="47.29955" lon="-1.37238">
        <ele>51</ele>
        <time>2021-04-22T11:34:36.000Z</time>
      </trkpt>
      <trkpt lat="47.29946" lon="-1.37252">
        <ele>51</ele>
        <time>2021-04-22T11:34:38.000Z</time>
      </trkpt>
      <trkpt lat="47.29937" lon="-1.37266">
        <ele>51</ele>
        <time>2021-04-22T11:34:40.000Z</time>
      </trkpt>
      <trkpt lat="47.29928" lon="-1.37281">
        <ele>51</ele>
        <time>2021-04-22T11:34:42.000Z</time>
      </trkpt>
      <trkpt lat="47.29919" lon="-1.37295">
        <ele>51</ele>
        <time>2021-04-22T11:34:44.000Z</time>
      </trkpt>
      <trkpt lat="47.29909" lon="-1.3731">
        <ele>51</ele>
        <time>2021-04-22T11:34:46.000Z</time>
      </trkpt>
      <trkpt lat="47.299" lon="-1.37324">
        <ele>51</ele>
        <time>2021-04-22T11:34:48.000Z</time>
      </trkpt>
      <trkpt lat="47.29891" lon="-1.37338">
        <ele>51</ele>
        <time>2021-04-22T11:34:50.000Z</time>
      </trkpt>
      <trkpt lat="47.29882" lon="-1.37352">
        <ele>51</ele>
        <time>2021-04-22T11:34:52.000Z</time>
      </trkpt>
      <trkpt lat="47.29873" lon="-1.37365">
        <ele>51</ele>
        <time>2021-04-22T11:34:54.000Z</time>
      </trkpt>
      <trkpt lat="47.29865" lon="-1.37379">
        <ele>51</ele>
        <time>2021-04-22T11:34:56.000Z</time>
      </trkpt>
      <trkpt lat="47.29856" lon="-1.37392">
        <ele>51</ele>
        <time>2021-04-22T11:34:58.000Z</time>
      </trkpt>
      <trkpt lat="47.29847" lon="-1.37406">
        <ele>51</ele>
        <time>2021-04-22T11:35:00.000Z</time>
      </trkpt>
      <trkpt lat="47.29838" lon="-1.3742">
        <ele>51</ele>
        <time>2021-04-22T11:35:02.000Z</time>
      </trkpt>
      <trkpt lat="47.29829" lon="-1.37433">
        <ele>52</ele>
        <time>2021-04-22T11:35:04.000Z</time>
      </trkpt>
      <trkpt lat="47.29821" lon="-1.37447">
        <ele>52</ele>
        <time>2021-04-22T11:35:06.000Z</time>
      </trkpt>
      <trkpt lat="47.29813" lon="-1.37461">
        <ele>52</ele>
        <time>2021-04-22T11:35:08.000Z</time>
      </trkpt>
      <trkpt lat="47.29804" lon="-1.37474">
        <ele>51</ele>
        <time>2021-04-22T11:35:10.000Z</time>
      </trkpt>
      <trkpt lat="47.29795" lon="-1.37489">
        <ele>51</ele>
        <time>2021-04-22T11:35:12.000Z</time>
      </trkpt>
      <trkpt lat="47.29787" lon="-1.37505">
        <ele>51</ele>
        <time>2021-04-22T11:35:14.000Z</time>
      </trkpt>
      <trkpt lat="47.29779" lon="-1.3752">
        <ele>51</ele>
        <time>2021-04-22T11:35:16.000Z</time>
      </trkpt>
      <trkpt lat="47.2977" lon="-1.37535">
        <ele>51</ele>
        <time>2021-04-22T11:35:18.000Z</time>
      </trkpt>
      <trkpt lat="47.29762" lon="-1.37551">
        <ele>51</ele>
        <time>2021-04-22T11:35:20.000Z</time>
      </trkpt>
      <trkpt lat="47.29754" lon="-1.37566">
        <ele>51</ele>
        <time>2021-04-22T11:35:22.000Z</time>
      </trkpt>
      <trkpt lat="47.29747" lon="-1.37582">
        <ele>51</ele>
        <time>2021-04-22T11:35:24.000Z</time>
      </trkpt>
      <trkpt lat="47.29739" lon="-1.37597">
        <ele>51</ele>
        <time>2021-04-22T11:35:26.000Z</time>
      </trkpt>
      <trkpt lat="47.29731" lon="-1.37612">
        <ele>51</ele>
        <time>2021-04-22T11:35:28.000Z</time>
      </trkpt>
      <trkpt lat="47.29723" lon="-1.37626">
        <ele>51</ele>
        <time>2021-04-22T11:35:30.000Z</time>
      </trkpt>
      <trkpt lat="47.29715" lon="-1.37641">
        <ele>51</ele>
        <time>2021-04-22T11:35:32.000Z</time>
      </trkpt>
      <trkpt lat="47.29708" lon="-1.37656">
        <ele>51</ele>
        <time>2021-04-22T11:35:34.000Z</time>
      </trkpt>
      <trkpt lat="47.297" lon="-1.37671">
        <ele>50</ele>
        <time>2021-04-22T11:35:36.000Z</time>
      </trkpt>
      <trkpt lat="47.29693" lon="-1.37685">
        <ele>51</ele>
        <time>2021-04-22T11:35:38.000Z</time>
      </trkpt>
      <trkpt lat="47.29685" lon="-1.377">
        <ele>51</ele>
        <time>2021-04-22T11:35:40.000Z</time>
      </trkpt>
      <trkpt lat="47.29678" lon="-1.37715">
        <ele>51</ele>
        <time>2021-04-22T11:35:42.000Z</time>
      </trkpt>
      <trkpt lat="47.29671" lon="-1.3773">
        <ele>51</ele>
        <time>2021-04-22T11:35:44.000Z</time>
      </trkpt>
      <trkpt lat="47.29663" lon="-1.37744">
        <ele>51</ele>
        <time>2021-04-22T11:35:46.000Z</time>
      </trkpt>
      <trkpt lat="47.29656" lon="-1.37758">
        <ele>51</ele>
        <time>2021-04-22T11:35:48.000Z</time>
      </trkpt>
      <trkpt lat="47.29649" lon="-1.37774">
        <ele>51</ele>
        <time>2021-04-22T11:35:50.000Z</time>
      </trkpt>
      <trkpt lat="47.29641" lon="-1.37788">
        <ele>51</ele>
        <time>2021-04-22T11:35:52.000Z</time>
      </trkpt>
      <trkpt lat="47.29633" lon="-1.37801">
        <ele>51</ele>
        <time>2021-04-22T11:35:54.000Z</time>
      </trkpt>
      <trkpt lat="47.29625" lon="-1.37814">
        <ele>51</ele>
        <time>2021-04-22T11:35:56.000Z</time>
      </trkpt>
      <trkpt lat="47.29618" lon="-1.37829">
        <ele>52</ele>
        <time>2021-04-22T11:35:58.000Z</time>
      </trkpt>
      <trkpt lat="47.29611" lon="-1.37843">
        <ele>51</ele>
        <time>2021-04-22T11:36:00.000Z</time>
      </trkpt>
      <trkpt lat="47.29603" lon="-1.3786">
        <ele>51</ele>
        <time>2021-04-22T11:36:02.000Z</time>
      </trkpt>
      <trkpt lat="47.29596" lon="-1.37877">
        <ele>51</ele>
        <time>2021-04-22T11:36:04.000Z</time>
      </trkpt>
      <trkpt lat="47.29589" lon="-1.37893">
        <ele>51</ele>
        <time>2021-04-22T11:36:06.000Z</time>
      </trkpt>
      <trkpt lat="47.29582" lon="-1.37909">
        <ele>51</ele>
        <time>2021-04-22T11:36:08.000Z</time>
      </trkpt>
      <trkpt lat="47.29576" lon="-1.37925">
        <ele>50</ele>
        <time>2021-04-22T11:36:10.000Z</time>
      </trkpt>
      <trkpt lat="47.29569" lon="-1.37941">
        <ele>49</ele>
        <time>2021-04-22T11:36:12.000Z</time>
      </trkpt>
      <trkpt lat="47.29563" lon="-1.37958">
        <ele>49</ele>
        <time>2021-04-22T11:36:14.000Z</time>
      </trkpt>
      <trkpt lat="47.29557" lon="-1.37975">
        <ele>50</ele>
        <time>2021-04-22T11:36:16.000Z</time>
      </trkpt>
      <trkpt lat="47.2955" lon="-1.37992">
        <ele>50</ele>
        <time>2021-04-22T11:36:18.000Z</time>
      </trkpt>
      <trkpt lat="47.29544" lon="-1.38009">
        <ele>49</ele>
        <time>2021-04-22T11:36:20.000Z</time>
      </trkpt>
      <trkpt lat="47.29537" lon="-1.38027">
        <ele>50</ele>
        <time>2021-04-22T11:36:22.000Z</time>
      </trkpt>
      <trkpt lat="47.29531" lon="-1.38044">
        <ele>50</ele>
        <time>2021-04-22T11:36:24.000Z</time>
      </trkpt>
      <trkpt lat="47.29524" lon="-1.38061">
        <ele>51</ele>
        <time>2021-04-22T11:36:26.000Z</time>
      </trkpt>
      <trkpt lat="47.29518" lon="-1.3808">
        <ele>51</ele>
        <time>2021-04-22T11:36:28.000Z</time>
      </trkpt>
      <trkpt lat="47.29513" lon="-1.38098">
        <ele>51</ele>
        <time>2021-04-22T11:36:30.000Z</time>
      </trkpt>
      <trkpt lat="47.29507" lon="-1.38116">
        <ele>51</ele>
        <time>2021-04-22T11:36:32.000Z</time>
      </trkpt>
      <trkpt lat="47.29503" lon="-1.38134">
        <ele>51</ele>
        <time>2021-04-22T11:36:34.000Z</time>
      </trkpt>
      <trkpt lat="47.29498" lon="-1.38152">
        <ele>51</ele>
        <time>2021-04-22T11:36:36.000Z</time>
      </trkpt>
      <trkpt lat="47.29493" lon="-1.38171">
        <ele>51</ele>
        <time>2021-04-22T11:36:38.000Z</time>
      </trkpt>
      <trkpt lat="47.29489" lon="-1.38189">
        <ele>51</ele>
        <time>2021-04-22T11:36:40.000Z</time>
      </trkpt>
      <trkpt lat="47.29485" lon="-1.38206">
        <ele>51</ele>
        <time>2021-04-22T11:36:42.000Z</time>
      </trkpt>
      <trkpt lat="47.29479" lon="-1.38224">
        <ele>51</ele>
        <time>2021-04-22T11:36:44.000Z</time>
      </trkpt>
      <trkpt lat="47.29475" lon="-1.38241">
        <ele>51</ele>
        <time>2021-04-22T11:36:46.000Z</time>
      </trkpt>
      <trkpt lat="47.2947" lon="-1.38258">
        <ele>51</ele>
        <time>2021-04-22T11:36:48.000Z</time>
      </trkpt>
      <trkpt lat="47.29465" lon="-1.38277">
        <ele>51</ele>
        <time>2021-04-22T11:36:50.000Z</time>
      </trkpt>
      <trkpt lat="47.2946" lon="-1.38294">
        <ele>51</ele>
        <time>2021-04-22T11:36:52.000Z</time>
      </trkpt>
      <trkpt lat="47.29455" lon="-1.3831">
        <ele>52</ele>
        <time>2021-04-22T11:36:54.000Z</time>
      </trkpt>
      <trkpt lat="47.29449" lon="-1.38324">
        <ele>53</ele>
        <time>2021-04-22T11:36:56.000Z</time>
      </trkpt>
      <trkpt lat="47.29442" lon="-1.38337">
        <ele>53</ele>
        <time>2021-04-22T11:36:58.000Z</time>
      </trkpt>
      <trkpt lat="47.2944" lon="-1.38358">
        <ele>53</ele>
        <time>2021-04-22T11:37:00.000Z</time>
      </trkpt>
      <trkpt lat="47.29436" lon="-1.3838">
        <ele>53</ele>
        <time>2021-04-22T11:37:02.000Z</time>
      </trkpt>
      <trkpt lat="47.29431" lon="-1.384">
        <ele>53</ele>
        <time>2021-04-22T11:37:04.000Z</time>
      </trkpt>
      <trkpt lat="47.29425" lon="-1.38421">
        <ele>52</ele>
        <time>2021-04-22T11:37:06.000Z</time>
      </trkpt>
      <trkpt lat="47.29419" lon="-1.38441">
        <ele>52</ele>
        <time>2021-04-22T11:37:08.000Z</time>
      </trkpt>
      <trkpt lat="47.29413" lon="-1.38461">
        <ele>51</ele>
        <time>2021-04-22T11:37:10.000Z</time>
      </trkpt>
      <trkpt lat="47.29408" lon="-1.38481">
        <ele>51</ele>
        <time>2021-04-22T11:37:12.000Z</time>
      </trkpt>
      <trkpt lat="47.29402" lon="-1.38499">
        <ele>51</ele>
        <time>2021-04-22T11:37:14.000Z</time>
      </trkpt>
      <trkpt lat="47.29393" lon="-1.38515">
        <ele>50</ele>
        <time>2021-04-22T11:37:16.000Z</time>
      </trkpt>
      <trkpt lat="47.29384" lon="-1.38531">
        <ele>51</ele>
        <time>2021-04-22T11:37:18.000Z</time>
      </trkpt>
      <trkpt lat="47.29377" lon="-1.3855">
        <ele>51</ele>
        <time>2021-04-22T11:37:20.000Z</time>
      </trkpt>
      <trkpt lat="47.2937" lon="-1.3857">
        <ele>51</ele>
        <time>2021-04-22T11:37:22.000Z</time>
      </trkpt>
      <trkpt lat="47.29364" lon="-1.38591">
        <ele>50</ele>
        <time>2021-04-22T11:37:24.000Z</time>
      </trkpt>
      <trkpt lat="47.29358" lon="-1.38612">
        <ele>49</ele>
        <time>2021-04-22T11:37:26.000Z</time>
      </trkpt>
      <trkpt lat="47.29352" lon="-1.38633">
        <ele>50</ele>
        <time>2021-04-22T11:37:28.000Z</time>
      </trkpt>
      <trkpt lat="47.29346" lon="-1.38653">
        <ele>49</ele>
        <time>2021-04-22T11:37:30.000Z</time>
      </trkpt>
      <trkpt lat="47.29339" lon="-1.38672">
        <ele>49</ele>
        <time>2021-04-22T11:37:32.000Z</time>
      </trkpt>
      <trkpt lat="47.29333" lon="-1.3869">
        <ele>49</ele>
        <time>2021-04-22T11:37:34.000Z</time>
      </trkpt>
      <trkpt lat="47.29327" lon="-1.38709">
        <ele>48</ele>
        <time>2021-04-22T11:37:36.000Z</time>
      </trkpt>
      <trkpt lat="47.29324" lon="-1.38729">
        <ele>48</ele>
        <time>2021-04-22T11:37:38.000Z</time>
      </trkpt>
      <trkpt lat="47.2932" lon="-1.38749">
        <ele>49</ele>
        <time>2021-04-22T11:37:40.000Z</time>
      </trkpt>
      <trkpt lat="47.29317" lon="-1.38769">
        <ele>50</ele>
        <time>2021-04-22T11:37:42.000Z</time>
      </trkpt>
      <trkpt lat="47.29312" lon="-1.38788">
        <ele>50</ele>
        <time>2021-04-22T11:37:44.000Z</time>
      </trkpt>
      <trkpt lat="47.29306" lon="-1.38807">
        <ele>50</ele>
        <time>2021-04-22T11:37:46.000Z</time>
      </trkpt>
      <trkpt lat="47.29301" lon="-1.38826">
        <ele>49</ele>
        <time>2021-04-22T11:37:48.000Z</time>
      </trkpt>
      <trkpt lat="47.29296" lon="-1.38845">
        <ele>49</ele>
        <time>2021-04-22T11:37:50.000Z</time>
      </trkpt>
      <trkpt lat="47.29291" lon="-1.38864">
        <ele>49</ele>
        <time>2021-04-22T11:37:52.000Z</time>
      </trkpt>
      <trkpt lat="47.29286" lon="-1.38883">
        <ele>50</ele>
        <time>2021-04-22T11:37:54.000Z</time>
      </trkpt>
      <trkpt lat="47.29281" lon="-1.38902">
        <ele>50</ele>
        <time>2021-04-22T11:37:56.000Z</time>
      </trkpt>
      <trkpt lat="47.29277" lon="-1.3892">
        <ele>50</ele>
        <time>2021-04-22T11:37:58.000Z</time>
      </trkpt>
      <trkpt lat="47.29272" lon="-1.38939">
        <ele>50</ele>
        <time>2021-04-22T11:38:00.000Z</time>
      </trkpt>
      <trkpt lat="47.29267" lon="-1.38957">
        <ele>49</ele>
        <time>2021-04-22T11:38:02.000Z</time>
      </trkpt>
      <trkpt lat="47.29262" lon="-1.38977">
        <ele>50</ele>
        <time>2021-04-22T11:38:04.000Z</time>
      </trkpt>
      <trkpt lat="47.29257" lon="-1.38997">
        <ele>50</ele>
        <time>2021-04-22T11:38:06.000Z</time>
      </trkpt>
      <trkpt lat="47.29252" lon="-1.39016">
        <ele>50</ele>
        <time>2021-04-22T11:38:08.000Z</time>
      </trkpt>
      <trkpt lat="47.29246" lon="-1.39036">
        <ele>51</ele>
        <time>2021-04-22T11:38:10.000Z</time>
      </trkpt>
      <trkpt lat="47.29241" lon="-1.39055">
        <ele>51</ele>
        <time>2021-04-22T11:38:12.000Z</time>
      </trkpt>
      <trkpt lat="47.29236" lon="-1.39074">
        <ele>50</ele>
        <time>2021-04-22T11:38:14.000Z</time>
      </trkpt>
      <trkpt lat="47.29229" lon="-1.39091">
        <ele>50</ele>
        <time>2021-04-22T11:38:16.000Z</time>
      </trkpt>
      <trkpt lat="47.2922" lon="-1.39108">
        <ele>50</ele>
        <time>2021-04-22T11:38:18.000Z</time>
      </trkpt>
      <trkpt lat="47.29209" lon="-1.39124">
        <ele>50</ele>
        <time>2021-04-22T11:38:20.000Z</time>
      </trkpt>
      <trkpt lat="47.29198" lon="-1.39139">
        <ele>50</ele>
        <time>2021-04-22T11:38:22.000Z</time>
      </trkpt>
      <trkpt lat="47.29186" lon="-1.39153">
        <ele>50</ele>
        <time>2021-04-22T11:38:24.000Z</time>
      </trkpt>
      <trkpt lat="47.29175" lon="-1.39166">
        <ele>50</ele>
        <time>2021-04-22T11:38:26.000Z</time>
      </trkpt>
      <trkpt lat="47.29163" lon="-1.3918">
        <ele>50</ele>
        <time>2021-04-22T11:38:28.000Z</time>
      </trkpt>
      <trkpt lat="47.29152" lon="-1.39194">
        <ele>50</ele>
        <time>2021-04-22T11:38:30.000Z</time>
      </trkpt>
      <trkpt lat="47.2914" lon="-1.39209">
        <ele>50</ele>
        <time>2021-04-22T11:38:32.000Z</time>
      </trkpt>
      <trkpt lat="47.29128" lon="-1.39222">
        <ele>50</ele>
        <time>2021-04-22T11:38:34.000Z</time>
      </trkpt>
      <trkpt lat="47.29117" lon="-1.39236">
        <ele>50</ele>
        <time>2021-04-22T11:38:36.000Z</time>
      </trkpt>
      <trkpt lat="47.29106" lon="-1.3925">
        <ele>50</ele>
        <time>2021-04-22T11:38:38.000Z</time>
      </trkpt>
      <trkpt lat="47.29097" lon="-1.39266">
        <ele>50</ele>
        <time>2021-04-22T11:38:40.000Z</time>
      </trkpt>
      <trkpt lat="47.29089" lon="-1.39282">
        <ele>50</ele>
        <time>2021-04-22T11:38:42.000Z</time>
      </trkpt>
      <trkpt lat="47.29079" lon="-1.39297">
        <ele>50</ele>
        <time>2021-04-22T11:38:44.000Z</time>
      </trkpt>
      <trkpt lat="47.29067" lon="-1.39309">
        <ele>50</ele>
        <time>2021-04-22T11:38:46.000Z</time>
      </trkpt>
      <trkpt lat="47.29055" lon="-1.3932">
        <ele>50</ele>
        <time>2021-04-22T11:38:48.000Z</time>
      </trkpt>
      <trkpt lat="47.29045" lon="-1.39332">
        <ele>49</ele>
        <time>2021-04-22T11:38:50.000Z</time>
      </trkpt>
      <trkpt lat="47.29035" lon="-1.39345">
        <ele>49</ele>
        <time>2021-04-22T11:38:52.000Z</time>
      </trkpt>
      <trkpt lat="47.29024" lon="-1.39359">
        <ele>49</ele>
        <time>2021-04-22T11:38:54.000Z</time>
      </trkpt>
      <trkpt lat="47.29014" lon="-1.39373">
        <ele>50</ele>
        <time>2021-04-22T11:38:56.000Z</time>
      </trkpt>
      <trkpt lat="47.29004" lon="-1.39388">
        <ele>50</ele>
        <time>2021-04-22T11:38:58.000Z</time>
      </trkpt>
      <trkpt lat="47.28992" lon="-1.39403">
        <ele>50</ele>
        <time>2021-04-22T11:39:00.000Z</time>
      </trkpt>
      <trkpt lat="47.28982" lon="-1.39418">
        <ele>50</ele>
        <time>2021-04-22T11:39:02.000Z</time>
      </trkpt>
      <trkpt lat="47.28971" lon="-1.39432">
        <ele>50</ele>
        <time>2021-04-22T11:39:04.000Z</time>
      </trkpt>
      <trkpt lat="47.2896" lon="-1.39445">
        <ele>50</ele>
        <time>2021-04-22T11:39:06.000Z</time>
      </trkpt>
      <trkpt lat="47.28949" lon="-1.39458">
        <ele>50</ele>
        <time>2021-04-22T11:39:08.000Z</time>
      </trkpt>
      <trkpt lat="47.28938" lon="-1.39471">
        <ele>50</ele>
        <time>2021-04-22T11:39:10.000Z</time>
      </trkpt>
      <trkpt lat="47.28926" lon="-1.39484">
        <ele>50</ele>
        <time>2021-04-22T11:39:12.000Z</time>
      </trkpt>
      <trkpt lat="47.28914" lon="-1.39498">
        <ele>50</ele>
        <time>2021-04-22T11:39:14.000Z</time>
      </trkpt>
      <trkpt lat="47.28903" lon="-1.39512">
        <ele>50</ele>
        <time>2021-04-22T11:39:16.000Z</time>
      </trkpt>
      <trkpt lat="47.28892" lon="-1.39526">
        <ele>50</ele>
        <time>2021-04-22T11:39:18.000Z</time>
      </trkpt>
      <trkpt lat="47.28881" lon="-1.39539">
        <ele>50</ele>
        <time>2021-04-22T11:39:20.000Z</time>
      </trkpt>
      <trkpt lat="47.28871" lon="-1.39551">
        <ele>50</ele>
        <time>2021-04-22T11:39:22.000Z</time>
      </trkpt>
      <trkpt lat="47.2886" lon="-1.39565">
        <ele>50</ele>
        <time>2021-04-22T11:39:24.000Z</time>
      </trkpt>
      <trkpt lat="47.28849" lon="-1.39578">
        <ele>50</ele>
        <time>2021-04-22T11:39:26.000Z</time>
      </trkpt>
      <trkpt lat="47.28838" lon="-1.3959">
        <ele>50</ele>
        <time>2021-04-22T11:39:28.000Z</time>
      </trkpt>
      <trkpt lat="47.28827" lon="-1.39603">
        <ele>50</ele>
        <time>2021-04-22T11:39:30.000Z</time>
      </trkpt>
      <trkpt lat="47.28816" lon="-1.39616">
        <ele>50</ele>
        <time>2021-04-22T11:39:32.000Z</time>
      </trkpt>
      <trkpt lat="47.28805" lon="-1.39629">
        <ele>50</ele>
        <time>2021-04-22T11:39:34.000Z</time>
      </trkpt>
      <trkpt lat="47.28795" lon="-1.39642">
        <ele>49</ele>
        <time>2021-04-22T11:39:36.000Z</time>
      </trkpt>
      <trkpt lat="47.28784" lon="-1.39655">
        <ele>49</ele>
        <time>2021-04-22T11:39:38.000Z</time>
      </trkpt>
      <trkpt lat="47.28773" lon="-1.39668">
        <ele>50</ele>
        <time>2021-04-22T11:39:40.000Z</time>
      </trkpt>
      <trkpt lat="47.28762" lon="-1.39681">
        <ele>49</ele>
        <time>2021-04-22T11:39:42.000Z</time>
      </trkpt>
      <trkpt lat="47.28752" lon="-1.39694">
        <ele>49</ele>
        <time>2021-04-22T11:39:44.000Z</time>
      </trkpt>
      <trkpt lat="47.28741" lon="-1.39706">
        <ele>49</ele>
        <time>2021-04-22T11:39:46.000Z</time>
      </trkpt>
      <trkpt lat="47.2873" lon="-1.39719">
        <ele>49</ele>
        <time>2021-04-22T11:39:48.000Z</time>
      </trkpt>
      <trkpt lat="47.28719" lon="-1.39733">
        <ele>49</ele>
        <time>2021-04-22T11:39:50.000Z</time>
      </trkpt>
      <trkpt lat="47.28709" lon="-1.39747">
        <ele>49</ele>
        <time>2021-04-22T11:39:52.000Z</time>
      </trkpt>
      <trkpt lat="47.28698" lon="-1.3976">
        <ele>49</ele>
        <time>2021-04-22T11:39:54.000Z</time>
      </trkpt>
      <trkpt lat="47.28686" lon="-1.39773">
        <ele>49</ele>
        <time>2021-04-22T11:39:56.000Z</time>
      </trkpt>
      <trkpt lat="47.28676" lon="-1.39786">
        <ele>49</ele>
        <time>2021-04-22T11:39:58.000Z</time>
      </trkpt>
      <trkpt lat="47.28666" lon="-1.398">
        <ele>49</ele>
        <time>2021-04-22T11:40:00.000Z</time>
      </trkpt>
      <trkpt lat="47.28656" lon="-1.39815">
        <ele>49</ele>
        <time>2021-04-22T11:40:02.000Z</time>
      </trkpt>
      <trkpt lat="47.28646" lon="-1.39831">
        <ele>49</ele>
        <time>2021-04-22T11:40:04.000Z</time>
      </trkpt>
      <trkpt lat="47.28636" lon="-1.39846">
        <ele>49</ele>
        <time>2021-04-22T11:40:06.000Z</time>
      </trkpt>
      <trkpt lat="47.28626" lon="-1.39861">
        <ele>49</ele>
        <time>2021-04-22T11:40:08.000Z</time>
      </trkpt>
      <trkpt lat="47.28616" lon="-1.39875">
        <ele>49</ele>
        <time>2021-04-22T11:40:10.000Z</time>
      </trkpt>
      <trkpt lat="47.28606" lon="-1.3989">
        <ele>49</ele>
        <time>2021-04-22T11:40:12.000Z</time>
      </trkpt>
      <trkpt lat="47.28597" lon="-1.39905">
        <ele>49</ele>
        <time>2021-04-22T11:40:14.000Z</time>
      </trkpt>
      <trkpt lat="47.28588" lon="-1.39921">
        <ele>50</ele>
        <time>2021-04-22T11:40:16.000Z</time>
      </trkpt>
      <trkpt lat="47.28578" lon="-1.39935">
        <ele>51</ele>
        <time>2021-04-22T11:40:18.000Z</time>
      </trkpt>
      <trkpt lat="47.28568" lon="-1.3995">
        <ele>51</ele>
        <time>2021-04-22T11:40:20.000Z</time>
      </trkpt>
      <trkpt lat="47.28558" lon="-1.39964">
        <ele>51</ele>
        <time>2021-04-22T11:40:22.000Z</time>
      </trkpt>
      <trkpt lat="47.28548" lon="-1.39979">
        <ele>51</ele>
        <time>2021-04-22T11:40:24.000Z</time>
      </trkpt>
      <trkpt lat="47.28537" lon="-1.39993">
        <ele>51</ele>
        <time>2021-04-22T11:40:26.000Z</time>
      </trkpt>
      <trkpt lat="47.28527" lon="-1.40008">
        <ele>51</ele>
        <time>2021-04-22T11:40:28.000Z</time>
      </trkpt>
      <trkpt lat="47.28517" lon="-1.40022">
        <ele>51</ele>
        <time>2021-04-22T11:40:30.000Z</time>
      </trkpt>
      <trkpt lat="47.28507" lon="-1.40037">
        <ele>51</ele>
        <time>2021-04-22T11:40:32.000Z</time>
      </trkpt>
      <trkpt lat="47.28498" lon="-1.40052">
        <ele>50</ele>
        <time>2021-04-22T11:40:34.000Z</time>
      </trkpt>
      <trkpt lat="47.28492" lon="-1.40068">
        <ele>51</ele>
        <time>2021-04-22T11:40:36.000Z</time>
      </trkpt>
      <trkpt lat="47.28486" lon="-1.40084">
        <ele>51</ele>
        <time>2021-04-22T11:40:38.000Z</time>
      </trkpt>
      <trkpt lat="47.2848" lon="-1.401">
        <ele>51</ele>
        <time>2021-04-22T11:40:40.000Z</time>
      </trkpt>
      <trkpt lat="47.28474" lon="-1.40117">
        <ele>50</ele>
        <time>2021-04-22T11:40:42.000Z</time>
      </trkpt>
      <trkpt lat="47.28468" lon="-1.40135">
        <ele>50</ele>
        <time>2021-04-22T11:40:44.000Z</time>
      </trkpt>
      <trkpt lat="47.28462" lon="-1.40154">
        <ele>50</ele>
        <time>2021-04-22T11:40:46.000Z</time>
      </trkpt>
      <trkpt lat="47.28454" lon="-1.40172">
        <ele>50</ele>
        <time>2021-04-22T11:40:48.000Z</time>
      </trkpt>
      <trkpt lat="47.28446" lon="-1.4019">
        <ele>49</ele>
        <time>2021-04-22T11:40:50.000Z</time>
      </trkpt>
      <trkpt lat="47.28438" lon="-1.40208">
        <ele>49</ele>
        <time>2021-04-22T11:40:52.000Z</time>
      </trkpt>
      <trkpt lat="47.28432" lon="-1.40225">
        <ele>50</ele>
        <time>2021-04-22T11:40:54.000Z</time>
      </trkpt>
      <trkpt lat="47.28426" lon="-1.40242">
        <ele>50</ele>
        <time>2021-04-22T11:40:56.000Z</time>
      </trkpt>
      <trkpt lat="47.28418" lon="-1.4026">
        <ele>50</ele>
        <time>2021-04-22T11:40:58.000Z</time>
      </trkpt>
      <trkpt lat="47.28411" lon="-1.40278">
        <ele>49</ele>
        <time>2021-04-22T11:41:00.000Z</time>
      </trkpt>
      <trkpt lat="47.28402" lon="-1.40294">
        <ele>49</ele>
        <time>2021-04-22T11:41:02.000Z</time>
      </trkpt>
      <trkpt lat="47.28393" lon="-1.40311">
        <ele>49</ele>
        <time>2021-04-22T11:41:04.000Z</time>
      </trkpt>
      <trkpt lat="47.28382" lon="-1.40327">
        <ele>49</ele>
        <time>2021-04-22T11:41:06.000Z</time>
      </trkpt>
      <trkpt lat="47.28371" lon="-1.40343">
        <ele>50</ele>
        <time>2021-04-22T11:41:08.000Z</time>
      </trkpt>
      <trkpt lat="47.2836" lon="-1.40358">
        <ele>50</ele>
        <time>2021-04-22T11:41:10.000Z</time>
      </trkpt>
      <trkpt lat="47.2835" lon="-1.40372">
        <ele>50</ele>
        <time>2021-04-22T11:41:12.000Z</time>
      </trkpt>
      <trkpt lat="47.28339" lon="-1.40386">
        <ele>50</ele>
        <time>2021-04-22T11:41:14.000Z</time>
      </trkpt>
      <trkpt lat="47.28328" lon="-1.404">
        <ele>50</ele>
        <time>2021-04-22T11:41:16.000Z</time>
      </trkpt>
      <trkpt lat="47.28317" lon="-1.40413">
        <ele>51</ele>
        <time>2021-04-22T11:41:18.000Z</time>
      </trkpt>
      <trkpt lat="47.28306" lon="-1.40426">
        <ele>50</ele>
        <time>2021-04-22T11:41:20.000Z</time>
      </trkpt>
      <trkpt lat="47.28294" lon="-1.40438">
        <ele>50</ele>
        <time>2021-04-22T11:41:22.000Z</time>
      </trkpt>
      <trkpt lat="47.28281" lon="-1.4045">
        <ele>50</ele>
        <time>2021-04-22T11:41:24.000Z</time>
      </trkpt>
      <trkpt lat="47.28269" lon="-1.40462">
        <ele>50</ele>
        <time>2021-04-22T11:41:26.000Z</time>
      </trkpt>
      <trkpt lat="47.28257" lon="-1.40473">
        <ele>51</ele>
        <time>2021-04-22T11:41:28.000Z</time>
      </trkpt>
      <trkpt lat="47.28245" lon="-1.40485">
        <ele>50</ele>
        <time>2021-04-22T11:41:30.000Z</time>
      </trkpt>
      <trkpt lat="47.28234" lon="-1.40496">
        <ele>50</ele>
        <time>2021-04-22T11:41:32.000Z</time>
      </trkpt>
      <trkpt lat="47.28222" lon="-1.40507">
        <ele>50</ele>
        <time>2021-04-22T11:41:34.000Z</time>
      </trkpt>
      <trkpt lat="47.28211" lon="-1.40518">
        <ele>50</ele>
        <time>2021-04-22T11:41:36.000Z</time>
      </trkpt>
      <trkpt lat="47.282" lon="-1.40529">
        <ele>51</ele>
        <time>2021-04-22T11:41:38.000Z</time>
      </trkpt>
      <trkpt lat="47.28188" lon="-1.4054">
        <ele>51</ele>
        <time>2021-04-22T11:41:40.000Z</time>
      </trkpt>
      <trkpt lat="47.28177" lon="-1.4055">
        <ele>51</ele>
        <time>2021-04-22T11:41:42.000Z</time>
      </trkpt>
      <trkpt lat="47.28166" lon="-1.40561">
        <ele>50</ele>
        <time>2021-04-22T11:41:44.000Z</time>
      </trkpt>
      <trkpt lat="47.28155" lon="-1.40572">
        <ele>50</ele>
        <time>2021-04-22T11:41:46.000Z</time>
      </trkpt>
      <trkpt lat="47.28143" lon="-1.40583">
        <ele>50</ele>
        <time>2021-04-22T11:41:48.000Z</time>
      </trkpt>
      <trkpt lat="47.28132" lon="-1.40594">
        <ele>50</ele>
        <time>2021-04-22T11:41:50.000Z</time>
      </trkpt>
      <trkpt lat="47.28121" lon="-1.40604">
        <ele>51</ele>
        <time>2021-04-22T11:41:52.000Z</time>
      </trkpt>
      <trkpt lat="47.28109" lon="-1.40615">
        <ele>50</ele>
        <time>2021-04-22T11:41:54.000Z</time>
      </trkpt>
      <trkpt lat="47.28098" lon="-1.40626">
        <ele>50</ele>
        <time>2021-04-22T11:41:56.000Z</time>
      </trkpt>
      <trkpt lat="47.28087" lon="-1.40636">
        <ele>50</ele>
        <time>2021-04-22T11:41:58.000Z</time>
      </trkpt>
      <trkpt lat="47.28076" lon="-1.40647">
        <ele>50</ele>
        <time>2021-04-22T11:42:00.000Z</time>
      </trkpt>
      <trkpt lat="47.28065" lon="-1.40657">
        <ele>50</ele>
        <time>2021-04-22T11:42:02.000Z</time>
      </trkpt>
      <trkpt lat="47.28053" lon="-1.40669">
        <ele>50</ele>
        <time>2021-04-22T11:42:04.000Z</time>
      </trkpt>
      <trkpt lat="47.28041" lon="-1.40681">
        <ele>50</ele>
        <time>2021-04-22T11:42:06.000Z</time>
      </trkpt>
      <trkpt lat="47.28031" lon="-1.40692">
        <ele>50</ele>
        <time>2021-04-22T11:42:08.000Z</time>
      </trkpt>
      <trkpt lat="47.2802" lon="-1.40704">
        <ele>50</ele>
        <time>2021-04-22T11:42:10.000Z</time>
      </trkpt>
      <trkpt lat="47.28009" lon="-1.40715">
        <ele>50</ele>
        <time>2021-04-22T11:42:12.000Z</time>
      </trkpt>
      <trkpt lat="47.27998" lon="-1.40726">
        <ele>49</ele>
        <time>2021-04-22T11:42:14.000Z</time>
      </trkpt>
      <trkpt lat="47.27986" lon="-1.40737">
        <ele>49</ele>
        <time>2021-04-22T11:42:16.000Z</time>
      </trkpt>
      <trkpt lat="47.27974" lon="-1.40748">
        <ele>49</ele>
        <time>2021-04-22T11:42:18.000Z</time>
      </trkpt>
      <trkpt lat="47.27963" lon="-1.40758">
        <ele>49</ele>
        <time>2021-04-22T11:42:20.000Z</time>
      </trkpt>
      <trkpt lat="47.27952" lon="-1.40768">
        <ele>49</ele>
        <time>2021-04-22T11:42:22.000Z</time>
      </trkpt>
      <trkpt lat="47.2794" lon="-1.40778">
        <ele>49</ele>
        <time>2021-04-22T11:42:24.000Z</time>
      </trkpt>
      <trkpt lat="47.27929" lon="-1.40788">
        <ele>49</ele>
        <time>2021-04-22T11:42:26.000Z</time>
      </trkpt>
      <trkpt lat="47.27917" lon="-1.40799">
        <ele>49</ele>
        <time>2021-04-22T11:42:28.000Z</time>
      </trkpt>
      <trkpt lat="47.27906" lon="-1.4081">
        <ele>49</ele>
        <time>2021-04-22T11:42:30.000Z</time>
      </trkpt>
      <trkpt lat="47.27895" lon="-1.40821">
        <ele>49</ele>
        <time>2021-04-22T11:42:32.000Z</time>
      </trkpt>
      <trkpt lat="47.27885" lon="-1.40834">
        <ele>50</ele>
        <time>2021-04-22T11:42:34.000Z</time>
      </trkpt>
      <trkpt lat="47.27877" lon="-1.4085">
        <ele>50</ele>
        <time>2021-04-22T11:42:36.000Z</time>
      </trkpt>
      <trkpt lat="47.2787" lon="-1.40867">
        <ele>50</ele>
        <time>2021-04-22T11:42:38.000Z</time>
      </trkpt>
      <trkpt lat="47.27863" lon="-1.40883">
        <ele>50</ele>
        <time>2021-04-22T11:42:40.000Z</time>
      </trkpt>
      <trkpt lat="47.27855" lon="-1.40899">
        <ele>51</ele>
        <time>2021-04-22T11:42:42.000Z</time>
      </trkpt>
      <trkpt lat="47.27848" lon="-1.40915">
        <ele>51</ele>
        <time>2021-04-22T11:42:44.000Z</time>
      </trkpt>
      <trkpt lat="47.2784" lon="-1.4093">
        <ele>51</ele>
        <time>2021-04-22T11:42:46.000Z</time>
      </trkpt>
      <trkpt lat="47.27833" lon="-1.40946">
        <ele>52</ele>
        <time>2021-04-22T11:42:48.000Z</time>
      </trkpt>
      <trkpt lat="47.27825" lon="-1.40962">
        <ele>52</ele>
        <time>2021-04-22T11:42:50.000Z</time>
      </trkpt>
      <trkpt lat="47.27817" lon="-1.40978">
        <ele>52</ele>
        <time>2021-04-22T11:42:52.000Z</time>
      </trkpt>
      <trkpt lat="47.27807" lon="-1.40992">
        <ele>52</ele>
        <time>2021-04-22T11:42:54.000Z</time>
      </trkpt>
      <trkpt lat="47.27797" lon="-1.41007">
        <ele>52</ele>
        <time>2021-04-22T11:42:56.000Z</time>
      </trkpt>
      <trkpt lat="47.27788" lon="-1.4102">
        <ele>52</ele>
        <time>2021-04-22T11:42:58.000Z</time>
      </trkpt>
      <trkpt lat="47.2778" lon="-1.41034">
        <ele>51</ele>
        <time>2021-04-22T11:43:00.000Z</time>
      </trkpt>
      <trkpt lat="47.27774" lon="-1.41052">
        <ele>51</ele>
        <time>2021-04-22T11:43:02.000Z</time>
      </trkpt>
      <trkpt lat="47.27766" lon="-1.41068">
        <ele>50</ele>
        <time>2021-04-22T11:43:04.000Z</time>
      </trkpt>
      <trkpt lat="47.27755" lon="-1.41081">
        <ele>50</ele>
        <time>2021-04-22T11:43:06.000Z</time>
      </trkpt>
      <trkpt lat="47.27743" lon="-1.41093">
        <ele>50</ele>
        <time>2021-04-22T11:43:08.000Z</time>
      </trkpt>
      <trkpt lat="47.27731" lon="-1.41104">
        <ele>50</ele>
        <time>2021-04-22T11:43:10.000Z</time>
      </trkpt>
      <trkpt lat="47.2772" lon="-1.41116">
        <ele>50</ele>
        <time>2021-04-22T11:43:12.000Z</time>
      </trkpt>
      <trkpt lat="47.27709" lon="-1.41128">
        <ele>50</ele>
        <time>2021-04-22T11:43:14.000Z</time>
      </trkpt>
      <trkpt lat="47.27698" lon="-1.4114">
        <ele>50</ele>
        <time>2021-04-22T11:43:16.000Z</time>
      </trkpt>
      <trkpt lat="47.27687" lon="-1.41153">
        <ele>50</ele>
        <time>2021-04-22T11:43:18.000Z</time>
      </trkpt>
      <trkpt lat="47.27676" lon="-1.41166">
        <ele>49</ele>
        <time>2021-04-22T11:43:20.000Z</time>
      </trkpt>
      <trkpt lat="47.27665" lon="-1.41178">
        <ele>50</ele>
        <time>2021-04-22T11:43:22.000Z</time>
      </trkpt>
      <trkpt lat="47.27653" lon="-1.41189">
        <ele>50</ele>
        <time>2021-04-22T11:43:24.000Z</time>
      </trkpt>
      <trkpt lat="47.27642" lon="-1.412">
        <ele>50</ele>
        <time>2021-04-22T11:43:26.000Z</time>
      </trkpt>
      <trkpt lat="47.2763" lon="-1.41211">
        <ele>50</ele>
        <time>2021-04-22T11:43:28.000Z</time>
      </trkpt>
      <trkpt lat="47.27619" lon="-1.41223">
        <ele>50</ele>
        <time>2021-04-22T11:43:30.000Z</time>
      </trkpt>
      <trkpt lat="47.27607" lon="-1.41236">
        <ele>50</ele>
        <time>2021-04-22T11:43:32.000Z</time>
      </trkpt>
      <trkpt lat="47.27596" lon="-1.41248">
        <ele>50</ele>
        <time>2021-04-22T11:43:34.000Z</time>
      </trkpt>
      <trkpt lat="47.27585" lon="-1.41261">
        <ele>50</ele>
        <time>2021-04-22T11:43:36.000Z</time>
      </trkpt>
      <trkpt lat="47.27573" lon="-1.41274">
        <ele>50</ele>
        <time>2021-04-22T11:43:38.000Z</time>
      </trkpt>
      <trkpt lat="47.27562" lon="-1.41287">
        <ele>50</ele>
        <time>2021-04-22T11:43:40.000Z</time>
      </trkpt>
      <trkpt lat="47.27551" lon="-1.41301">
        <ele>50</ele>
        <time>2021-04-22T11:43:42.000Z</time>
      </trkpt>
      <trkpt lat="47.2754" lon="-1.41316">
        <ele>50</ele>
        <time>2021-04-22T11:43:44.000Z</time>
      </trkpt>
      <trkpt lat="47.27529" lon="-1.4133">
        <ele>50</ele>
        <time>2021-04-22T11:43:46.000Z</time>
      </trkpt>
      <trkpt lat="47.27519" lon="-1.41345">
        <ele>50</ele>
        <time>2021-04-22T11:43:48.000Z</time>
      </trkpt>
      <trkpt lat="47.27509" lon="-1.4136">
        <ele>51</ele>
        <time>2021-04-22T11:43:50.000Z</time>
      </trkpt>
      <trkpt lat="47.27499" lon="-1.41375">
        <ele>51</ele>
        <time>2021-04-22T11:43:52.000Z</time>
      </trkpt>
      <trkpt lat="47.27489" lon="-1.4139">
        <ele>51</ele>
        <time>2021-04-22T11:43:54.000Z</time>
      </trkpt>
      <trkpt lat="47.27479" lon="-1.41407">
        <ele>51</ele>
        <time>2021-04-22T11:43:56.000Z</time>
      </trkpt>
      <trkpt lat="47.2747" lon="-1.41424">
        <ele>51</ele>
        <time>2021-04-22T11:43:58.000Z</time>
      </trkpt>
      <trkpt lat="47.27461" lon="-1.4144">
        <ele>51</ele>
        <time>2021-04-22T11:44:00.000Z</time>
      </trkpt>
      <trkpt lat="47.27452" lon="-1.41456">
        <ele>52</ele>
        <time>2021-04-22T11:44:02.000Z</time>
      </trkpt>
      <trkpt lat="47.27443" lon="-1.41473">
        <ele>52</ele>
        <time>2021-04-22T11:44:04.000Z</time>
      </trkpt>
      <trkpt lat="47.27434" lon="-1.41489">
        <ele>52</ele>
        <time>2021-04-22T11:44:06.000Z</time>
      </trkpt>
      <trkpt lat="47.27425" lon="-1.41506">
        <ele>52</ele>
        <time>2021-04-22T11:44:08.000Z</time>
      </trkpt>
      <trkpt lat="47.27416" lon="-1.41522">
        <ele>51</ele>
        <time>2021-04-22T11:44:10.000Z</time>
      </trkpt>
      <trkpt lat="47.27406" lon="-1.41538">
        <ele>51</ele>
        <time>2021-04-22T11:44:12.000Z</time>
      </trkpt>
      <trkpt lat="47.27396" lon="-1.41553">
        <ele>51</ele>
        <time>2021-04-22T11:44:14.000Z</time>
      </trkpt>
      <trkpt lat="47.27387" lon="-1.41567">
        <ele>51</ele>
        <time>2021-04-22T11:44:16.000Z</time>
      </trkpt>
      <trkpt lat="47.27377" lon="-1.41582">
        <ele>50</ele>
        <time>2021-04-22T11:44:18.000Z</time>
      </trkpt>
      <trkpt lat="47.27367" lon="-1.41597">
        <ele>51</ele>
        <time>2021-04-22T11:44:20.000Z</time>
      </trkpt>
      <trkpt lat="47.27357" lon="-1.41612">
        <ele>51</ele>
        <time>2021-04-22T11:44:22.000Z</time>
      </trkpt>
      <trkpt lat="47.27347" lon="-1.41627">
        <ele>51</ele>
        <time>2021-04-22T11:44:24.000Z</time>
      </trkpt>
      <trkpt lat="47.27337" lon="-1.41643">
        <ele>51</ele>
        <time>2021-04-22T11:44:26.000Z</time>
      </trkpt>
      <trkpt lat="47.27327" lon="-1.41659">
        <ele>50</ele>
        <time>2021-04-22T11:44:28.000Z</time>
      </trkpt>
      <trkpt lat="47.27318" lon="-1.41675">
        <ele>51</ele>
        <time>2021-04-22T11:44:30.000Z</time>
      </trkpt>
      <trkpt lat="47.27309" lon="-1.41691">
        <ele>51</ele>
        <time>2021-04-22T11:44:32.000Z</time>
      </trkpt>
      <trkpt lat="47.27302" lon="-1.41707">
        <ele>51</ele>
        <time>2021-04-22T11:44:34.000Z</time>
      </trkpt>
      <trkpt lat="47.27294" lon="-1.41724">
        <ele>51</ele>
        <time>2021-04-22T11:44:36.000Z</time>
      </trkpt>
      <trkpt lat="47.27284" lon="-1.4174">
        <ele>50</ele>
        <time>2021-04-22T11:44:38.000Z</time>
      </trkpt>
      <trkpt lat="47.27276" lon="-1.41757">
        <ele>50</ele>
        <time>2021-04-22T11:44:40.000Z</time>
      </trkpt>
      <trkpt lat="47.27267" lon="-1.41774">
        <ele>50</ele>
        <time>2021-04-22T11:44:42.000Z</time>
      </trkpt>
      <trkpt lat="47.27259" lon="-1.41789">
        <ele>50</ele>
        <time>2021-04-22T11:44:44.000Z</time>
      </trkpt>
      <trkpt lat="47.2725" lon="-1.41805">
        <ele>50</ele>
        <time>2021-04-22T11:44:46.000Z</time>
      </trkpt>
      <trkpt lat="47.27242" lon="-1.41821">
        <ele>51</ele>
        <time>2021-04-22T11:44:48.000Z</time>
      </trkpt>
      <trkpt lat="47.27233" lon="-1.41837">
        <ele>51</ele>
        <time>2021-04-22T11:44:50.000Z</time>
      </trkpt>
      <trkpt lat="47.27224" lon="-1.41853">
        <ele>51</ele>
        <time>2021-04-22T11:44:52.000Z</time>
      </trkpt>
      <trkpt lat="47.27215" lon="-1.41869">
        <ele>51</ele>
        <time>2021-04-22T11:44:54.000Z</time>
      </trkpt>
      <trkpt lat="47.27206" lon="-1.41885">
        <ele>51</ele>
        <time>2021-04-22T11:44:56.000Z</time>
      </trkpt>
      <trkpt lat="47.27197" lon="-1.41902">
        <ele>51</ele>
        <time>2021-04-22T11:44:58.000Z</time>
      </trkpt>
      <trkpt lat="47.27188" lon="-1.41918">
        <ele>51</ele>
        <time>2021-04-22T11:45:00.000Z</time>
      </trkpt>
      <trkpt lat="47.27178" lon="-1.41935">
        <ele>51</ele>
        <time>2021-04-22T11:45:02.000Z</time>
      </trkpt>
      <trkpt lat="47.27168" lon="-1.41951">
        <ele>51</ele>
        <time>2021-04-22T11:45:04.000Z</time>
      </trkpt>
      <trkpt lat="47.27159" lon="-1.41969">
        <ele>52</ele>
        <time>2021-04-22T11:45:06.000Z</time>
      </trkpt>
      <trkpt lat="47.27149" lon="-1.41986">
        <ele>52</ele>
        <time>2021-04-22T11:45:08.000Z</time>
      </trkpt>
      <trkpt lat="47.2714" lon="-1.42002">
        <ele>52</ele>
        <time>2021-04-22T11:45:10.000Z</time>
      </trkpt>
      <trkpt lat="47.27131" lon="-1.42019">
        <ele>51</ele>
        <time>2021-04-22T11:45:12.000Z</time>
      </trkpt>
      <trkpt lat="47.2712" lon="-1.42033">
        <ele>51</ele>
        <time>2021-04-22T11:45:14.000Z</time>
      </trkpt>
      <trkpt lat="47.2711" lon="-1.42048">
        <ele>51</ele>
        <time>2021-04-22T11:45:16.000Z</time>
      </trkpt>
      <trkpt lat="47.271" lon="-1.42063">
        <ele>50</ele>
        <time>2021-04-22T11:45:18.000Z</time>
      </trkpt>
      <trkpt lat="47.27089" lon="-1.42079">
        <ele>50</ele>
        <time>2021-04-22T11:45:20.000Z</time>
      </trkpt>
      <trkpt lat="47.2708" lon="-1.42095">
        <ele>50</ele>
        <time>2021-04-22T11:45:22.000Z</time>
      </trkpt>
      <trkpt lat="47.27072" lon="-1.42111">
        <ele>50</ele>
        <time>2021-04-22T11:45:24.000Z</time>
      </trkpt>
      <trkpt lat="47.27063" lon="-1.42127">
        <ele>50</ele>
        <time>2021-04-22T11:45:26.000Z</time>
      </trkpt>
      <trkpt lat="47.27054" lon="-1.42144">
        <ele>50</ele>
        <time>2021-04-22T11:45:28.000Z</time>
      </trkpt>
      <trkpt lat="47.27045" lon="-1.4216">
        <ele>50</ele>
        <time>2021-04-22T11:45:30.000Z</time>
      </trkpt>
      <trkpt lat="47.27037" lon="-1.42176">
        <ele>50</ele>
        <time>2021-04-22T11:45:32.000Z</time>
      </trkpt>
      <trkpt lat="47.27029" lon="-1.42191">
        <ele>50</ele>
        <time>2021-04-22T11:45:34.000Z</time>
      </trkpt>
      <trkpt lat="47.2702" lon="-1.42206">
        <ele>50</ele>
        <time>2021-04-22T11:45:36.000Z</time>
      </trkpt>
      <trkpt lat="47.27011" lon="-1.4222">
        <ele>50</ele>
        <time>2021-04-22T11:45:38.000Z</time>
      </trkpt>
      <trkpt lat="47.27002" lon="-1.42236">
        <ele>50</ele>
        <time>2021-04-22T11:45:40.000Z</time>
      </trkpt>
      <trkpt lat="47.26993" lon="-1.42252">
        <ele>50</ele>
        <time>2021-04-22T11:45:42.000Z</time>
      </trkpt>
      <trkpt lat="47.26985" lon="-1.42268">
        <ele>50</ele>
        <time>2021-04-22T11:45:44.000Z</time>
      </trkpt>
      <trkpt lat="47.26976" lon="-1.42284">
        <ele>49</ele>
        <time>2021-04-22T11:45:46.000Z</time>
      </trkpt>
      <trkpt lat="47.26967" lon="-1.42301">
        <ele>49</ele>
        <time>2021-04-22T11:45:48.000Z</time>
      </trkpt>
      <trkpt lat="47.26959" lon="-1.42318">
        <ele>49</ele>
        <time>2021-04-22T11:45:50.000Z</time>
      </trkpt>
      <trkpt lat="47.26951" lon="-1.42335">
        <ele>49</ele>
        <time>2021-04-22T11:45:52.000Z</time>
      </trkpt>
      <trkpt lat="47.26943" lon="-1.42352">
        <ele>49</ele>
        <time>2021-04-22T11:45:54.000Z</time>
      </trkpt>
      <trkpt lat="47.26934" lon="-1.42369">
        <ele>49</ele>
        <time>2021-04-22T11:45:56.000Z</time>
      </trkpt>
      <trkpt lat="47.26926" lon="-1.42386">
        <ele>49</ele>
        <time>2021-04-22T11:45:58.000Z</time>
      </trkpt>
      <trkpt lat="47.26918" lon="-1.42403">
        <ele>49</ele>
        <time>2021-04-22T11:46:00.000Z</time>
      </trkpt>
      <trkpt lat="47.26909" lon="-1.42419">
        <ele>49</ele>
        <time>2021-04-22T11:46:02.000Z</time>
      </trkpt>
      <trkpt lat="47.26899" lon="-1.42436">
        <ele>50</ele>
        <time>2021-04-22T11:46:04.000Z</time>
      </trkpt>
      <trkpt lat="47.2689" lon="-1.42452">
        <ele>50</ele>
        <time>2021-04-22T11:46:06.000Z</time>
      </trkpt>
      <trkpt lat="47.26881" lon="-1.42469">
        <ele>50</ele>
        <time>2021-04-22T11:46:08.000Z</time>
      </trkpt>
      <trkpt lat="47.26871" lon="-1.42486">
        <ele>50</ele>
        <time>2021-04-22T11:46:10.000Z</time>
      </trkpt>
      <trkpt lat="47.26862" lon="-1.42502">
        <ele>50</ele>
        <time>2021-04-22T11:46:12.000Z</time>
      </trkpt>
      <trkpt lat="47.26853" lon="-1.42519">
        <ele>50</ele>
        <time>2021-04-22T11:46:14.000Z</time>
      </trkpt>
      <trkpt lat="47.26845" lon="-1.42536">
        <ele>50</ele>
        <time>2021-04-22T11:46:16.000Z</time>
      </trkpt>
      <trkpt lat="47.26836" lon="-1.42553">
        <ele>50</ele>
        <time>2021-04-22T11:46:18.000Z</time>
      </trkpt>
      <trkpt lat="47.26827" lon="-1.4257">
        <ele>50</ele>
        <time>2021-04-22T11:46:20.000Z</time>
      </trkpt>
      <trkpt lat="47.26819" lon="-1.42587">
        <ele>49</ele>
        <time>2021-04-22T11:46:22.000Z</time>
      </trkpt>
      <trkpt lat="47.26811" lon="-1.42605">
        <ele>50</ele>
        <time>2021-04-22T11:46:24.000Z</time>
      </trkpt>
      <trkpt lat="47.26804" lon="-1.42624">
        <ele>50</ele>
        <time>2021-04-22T11:46:26.000Z</time>
      </trkpt>
      <trkpt lat="47.26797" lon="-1.42642">
        <ele>49</ele>
        <time>2021-04-22T11:46:28.000Z</time>
      </trkpt>
      <trkpt lat="47.2679" lon="-1.42661">
        <ele>49</ele>
        <time>2021-04-22T11:46:30.000Z</time>
      </trkpt>
      <trkpt lat="47.26783" lon="-1.4268">
        <ele>48</ele>
        <time>2021-04-22T11:46:32.000Z</time>
      </trkpt>
      <trkpt lat="47.26777" lon="-1.42698">
        <ele>48</ele>
        <time>2021-04-22T11:46:34.000Z</time>
      </trkpt>
      <trkpt lat="47.2677" lon="-1.42715">
        <ele>48</ele>
        <time>2021-04-22T11:46:36.000Z</time>
      </trkpt>
      <trkpt lat="47.26762" lon="-1.42732">
        <ele>48</ele>
        <time>2021-04-22T11:46:38.000Z</time>
      </trkpt>
      <trkpt lat="47.26754" lon="-1.42747">
        <ele>48</ele>
        <time>2021-04-22T11:46:40.000Z</time>
      </trkpt>
      <trkpt lat="47.26745" lon="-1.42764">
        <ele>49</ele>
        <time>2021-04-22T11:46:42.000Z</time>
      </trkpt>
      <trkpt lat="47.26738" lon="-1.42783">
        <ele>49</ele>
        <time>2021-04-22T11:46:44.000Z</time>
      </trkpt>
      <trkpt lat="47.26734" lon="-1.42801">
        <ele>49</ele>
        <time>2021-04-22T11:46:46.000Z</time>
      </trkpt>
      <trkpt lat="47.26729" lon="-1.42818">
        <ele>50</ele>
        <time>2021-04-22T11:46:48.000Z</time>
      </trkpt>
      <trkpt lat="47.26725" lon="-1.42835">
        <ele>49</ele>
        <time>2021-04-22T11:46:50.000Z</time>
      </trkpt>
      <trkpt lat="47.26717" lon="-1.42854">
        <ele>50</ele>
        <time>2021-04-22T11:46:52.000Z</time>
      </trkpt>
      <trkpt lat="47.26709" lon="-1.42872">
        <ele>49</ele>
        <time>2021-04-22T11:46:54.000Z</time>
      </trkpt>
      <trkpt lat="47.26701" lon="-1.4289">
        <ele>49</ele>
        <time>2021-04-22T11:46:56.000Z</time>
      </trkpt>
      <trkpt lat="47.26692" lon="-1.42908">
        <ele>49</ele>
        <time>2021-04-22T11:46:58.000Z</time>
      </trkpt>
      <trkpt lat="47.26682" lon="-1.42925">
        <ele>49</ele>
        <time>2021-04-22T11:47:00.000Z</time>
      </trkpt>
      <trkpt lat="47.26674" lon="-1.42943">
        <ele>49</ele>
        <time>2021-04-22T11:47:02.000Z</time>
      </trkpt>
      <trkpt lat="47.26665" lon="-1.42958">
        <ele>49</ele>
        <time>2021-04-22T11:47:04.000Z</time>
      </trkpt>
      <trkpt lat="47.26656" lon="-1.42975">
        <ele>49</ele>
        <time>2021-04-22T11:47:06.000Z</time>
      </trkpt>
      <trkpt lat="47.26647" lon="-1.42992">
        <ele>49</ele>
        <time>2021-04-22T11:47:08.000Z</time>
      </trkpt>
      <trkpt lat="47.26639" lon="-1.43009">
        <ele>49</ele>
        <time>2021-04-22T11:47:10.000Z</time>
      </trkpt>
      <trkpt lat="47.26631" lon="-1.43027">
        <ele>49</ele>
        <time>2021-04-22T11:47:12.000Z</time>
      </trkpt>
      <trkpt lat="47.26622" lon="-1.43044">
        <ele>48</ele>
        <time>2021-04-22T11:47:14.000Z</time>
      </trkpt>
      <trkpt lat="47.26614" lon="-1.43061">
        <ele>48</ele>
        <time>2021-04-22T11:47:16.000Z</time>
      </trkpt>
      <trkpt lat="47.26605" lon="-1.43077">
        <ele>48</ele>
        <time>2021-04-22T11:47:18.000Z</time>
      </trkpt>
      <trkpt lat="47.26596" lon="-1.43093">
        <ele>48</ele>
        <time>2021-04-22T11:47:20.000Z</time>
      </trkpt>
      <trkpt lat="47.26587" lon="-1.43109">
        <ele>49</ele>
        <time>2021-04-22T11:47:22.000Z</time>
      </trkpt>
      <trkpt lat="47.26577" lon="-1.43125">
        <ele>49</ele>
        <time>2021-04-22T11:47:24.000Z</time>
      </trkpt>
      <trkpt lat="47.26568" lon="-1.43141">
        <ele>49</ele>
        <time>2021-04-22T11:47:26.000Z</time>
      </trkpt>
      <trkpt lat="47.26558" lon="-1.43155">
        <ele>49</ele>
        <time>2021-04-22T11:47:28.000Z</time>
      </trkpt>
      <trkpt lat="47.26548" lon="-1.4317">
        <ele>49</ele>
        <time>2021-04-22T11:47:30.000Z</time>
      </trkpt>
      <trkpt lat="47.26538" lon="-1.43184">
        <ele>49</ele>
        <time>2021-04-22T11:47:32.000Z</time>
      </trkpt>
      <trkpt lat="47.26528" lon="-1.43199">
        <ele>49</ele>
        <time>2021-04-22T11:47:34.000Z</time>
      </trkpt>
      <trkpt lat="47.26518" lon="-1.43212">
        <ele>49</ele>
        <time>2021-04-22T11:47:36.000Z</time>
      </trkpt>
      <trkpt lat="47.26508" lon="-1.43227">
        <ele>49</ele>
        <time>2021-04-22T11:47:38.000Z</time>
      </trkpt>
      <trkpt lat="47.26498" lon="-1.4324">
        <ele>49</ele>
        <time>2021-04-22T11:47:40.000Z</time>
      </trkpt>
      <trkpt lat="47.26489" lon="-1.43253">
        <ele>50</ele>
        <time>2021-04-22T11:47:42.000Z</time>
      </trkpt>
      <trkpt lat="47.2648" lon="-1.43268">
        <ele>50</ele>
        <time>2021-04-22T11:47:44.000Z</time>
      </trkpt>
      <trkpt lat="47.2647" lon="-1.43282">
        <ele>50</ele>
        <time>2021-04-22T11:47:46.000Z</time>
      </trkpt>
      <trkpt lat="47.26462" lon="-1.43296">
        <ele>50</ele>
        <time>2021-04-22T11:47:48.000Z</time>
      </trkpt>
      <trkpt lat="47.26452" lon="-1.43311">
        <ele>49</ele>
        <time>2021-04-22T11:47:50.000Z</time>
      </trkpt>
      <trkpt lat="47.26443" lon="-1.43326">
        <ele>49</ele>
        <time>2021-04-22T11:47:52.000Z</time>
      </trkpt>
      <trkpt lat="47.26432" lon="-1.4334">
        <ele>48</ele>
        <time>2021-04-22T11:47:54.000Z</time>
      </trkpt>
      <trkpt lat="47.26421" lon="-1.43354">
        <ele>48</ele>
        <time>2021-04-22T11:47:56.000Z</time>
      </trkpt>
      <trkpt lat="47.2641" lon="-1.43366">
        <ele>48</ele>
        <time>2021-04-22T11:47:58.000Z</time>
      </trkpt>
      <trkpt lat="47.26399" lon="-1.43378">
        <ele>48</ele>
        <time>2021-04-22T11:48:00.000Z</time>
      </trkpt>
      <trkpt lat="47.26388" lon="-1.4339">
        <ele>48</ele>
        <time>2021-04-22T11:48:02.000Z</time>
      </trkpt>
      <trkpt lat="47.26376" lon="-1.43402">
        <ele>48</ele>
        <time>2021-04-22T11:48:04.000Z</time>
      </trkpt>
      <trkpt lat="47.26365" lon="-1.43414">
        <ele>48</ele>
        <time>2021-04-22T11:48:06.000Z</time>
      </trkpt>
      <trkpt lat="47.26354" lon="-1.43427">
        <ele>48</ele>
        <time>2021-04-22T11:48:08.000Z</time>
      </trkpt>
      <trkpt lat="47.26343" lon="-1.43438">
        <ele>48</ele>
        <time>2021-04-22T11:48:10.000Z</time>
      </trkpt>
      <trkpt lat="47.26333" lon="-1.4345">
        <ele>48</ele>
        <time>2021-04-22T11:48:12.000Z</time>
      </trkpt>
      <trkpt lat="47.26322" lon="-1.43461">
        <ele>48</ele>
        <time>2021-04-22T11:48:14.000Z</time>
      </trkpt>
      <trkpt lat="47.26311" lon="-1.43472">
        <ele>49</ele>
        <time>2021-04-22T11:48:16.000Z</time>
      </trkpt>
      <trkpt lat="47.26301" lon="-1.43483">
        <ele>49</ele>
        <time>2021-04-22T11:48:18.000Z</time>
      </trkpt>
      <trkpt lat="47.2629" lon="-1.43491">
        <ele>49</ele>
        <time>2021-04-22T11:48:20.000Z</time>
      </trkpt>
      <trkpt lat="47.26278" lon="-1.43492">
        <ele>49</ele>
        <time>2021-04-22T11:48:22.000Z</time>
      </trkpt>
      <trkpt lat="47.26265" lon="-1.43496">
        <ele>49</ele>
        <time>2021-04-22T11:48:24.000Z</time>
      </trkpt>
      <trkpt lat="47.26252" lon="-1.43506">
        <ele>48</ele>
        <time>2021-04-22T11:48:26.000Z</time>
      </trkpt>
      <trkpt lat="47.26241" lon="-1.43517">
        <ele>49</ele>
        <time>2021-04-22T11:48:28.000Z</time>
      </trkpt>
      <trkpt lat="47.2623" lon="-1.43529">
        <ele>49</ele>
        <time>2021-04-22T11:48:30.000Z</time>
      </trkpt>
      <trkpt lat="47.26221" lon="-1.43542">
        <ele>49</ele>
        <time>2021-04-22T11:48:32.000Z</time>
      </trkpt>
      <trkpt lat="47.26219" lon="-1.43561">
        <ele>49</ele>
        <time>2021-04-22T11:48:34.000Z</time>
      </trkpt>
      <trkpt lat="47.26217" lon="-1.43578">
        <ele>49</ele>
        <time>2021-04-22T11:48:36.000Z</time>
      </trkpt>
      <trkpt lat="47.2621" lon="-1.43592">
        <ele>49</ele>
        <time>2021-04-22T11:48:38.000Z</time>
      </trkpt>
      <trkpt lat="47.26202" lon="-1.43607">
        <ele>49</ele>
        <time>2021-04-22T11:48:40.000Z</time>
      </trkpt>
      <trkpt lat="47.26193" lon="-1.43623">
        <ele>48</ele>
        <time>2021-04-22T11:48:42.000Z</time>
      </trkpt>
      <trkpt lat="47.26184" lon="-1.43639">
        <ele>48</ele>
        <time>2021-04-22T11:48:44.000Z</time>
      </trkpt>
      <trkpt lat="47.26173" lon="-1.43655">
        <ele>48</ele>
        <time>2021-04-22T11:48:46.000Z</time>
      </trkpt>
      <trkpt lat="47.26162" lon="-1.43672">
        <ele>47</ele>
        <time>2021-04-22T11:48:48.000Z</time>
      </trkpt>
      <trkpt lat="47.26151" lon="-1.43688">
        <ele>46</ele>
        <time>2021-04-22T11:48:50.000Z</time>
      </trkpt>
      <trkpt lat="47.2614" lon="-1.43703">
        <ele>47</ele>
        <time>2021-04-22T11:48:52.000Z</time>
      </trkpt>
      <trkpt lat="47.2613" lon="-1.43718">
        <ele>47</ele>
        <time>2021-04-22T11:48:54.000Z</time>
      </trkpt>
      <trkpt lat="47.26121" lon="-1.43733">
        <ele>46</ele>
        <time>2021-04-22T11:48:56.000Z</time>
      </trkpt>
      <trkpt lat="47.2611" lon="-1.43748">
        <ele>46</ele>
        <time>2021-04-22T11:48:58.000Z</time>
      </trkpt>
      <trkpt lat="47.26098" lon="-1.4376">
        <ele>47</ele>
        <time>2021-04-22T11:49:00.000Z</time>
      </trkpt>
      <trkpt lat="47.26088" lon="-1.43775">
        <ele>47</ele>
        <time>2021-04-22T11:49:02.000Z</time>
      </trkpt>
      <trkpt lat="47.26076" lon="-1.43789">
        <ele>47</ele>
        <time>2021-04-22T11:49:04.000Z</time>
      </trkpt>
      <trkpt lat="47.26065" lon="-1.43805">
        <ele>46</ele>
        <time>2021-04-22T11:49:06.000Z</time>
      </trkpt>
      <trkpt lat="47.26056" lon="-1.43823">
        <ele>46</ele>
        <time>2021-04-22T11:49:08.000Z</time>
      </trkpt>
      <trkpt lat="47.26049" lon="-1.43842">
        <ele>47</ele>
        <time>2021-04-22T11:49:10.000Z</time>
      </trkpt>
      <trkpt lat="47.26042" lon="-1.43859">
        <ele>47</ele>
        <time>2021-04-22T11:49:12.000Z</time>
      </trkpt>
      <trkpt lat="47.2603" lon="-1.43872">
        <ele>47</ele>
        <time>2021-04-22T11:49:14.000Z</time>
      </trkpt>
      <trkpt lat="47.26016" lon="-1.43885">
        <ele>47</ele>
        <time>2021-04-22T11:49:16.000Z</time>
      </trkpt>
      <trkpt lat="47.26003" lon="-1.43898">
        <ele>47</ele>
        <time>2021-04-22T11:49:18.000Z</time>
      </trkpt>
      <trkpt lat="47.25991" lon="-1.43911">
        <ele>47</ele>
        <time>2021-04-22T11:49:20.000Z</time>
      </trkpt>
      <trkpt lat="47.25979" lon="-1.43925">
        <ele>47</ele>
        <time>2021-04-22T11:49:22.000Z</time>
      </trkpt>
      <trkpt lat="47.25966" lon="-1.43938">
        <ele>47</ele>
        <time>2021-04-22T11:49:24.000Z</time>
      </trkpt>
      <trkpt lat="47.25954" lon="-1.43952">
        <ele>47</ele>
        <time>2021-04-22T11:49:26.000Z</time>
      </trkpt>
      <trkpt lat="47.25942" lon="-1.43965">
        <ele>47</ele>
        <time>2021-04-22T11:49:28.000Z</time>
      </trkpt>
      <trkpt lat="47.25931" lon="-1.4398">
        <ele>47</ele>
        <time>2021-04-22T11:49:30.000Z</time>
      </trkpt>
      <trkpt lat="47.25918" lon="-1.43993">
        <ele>47</ele>
        <time>2021-04-22T11:49:32.000Z</time>
      </trkpt>
      <trkpt lat="47.25905" lon="-1.44007">
        <ele>47</ele>
        <time>2021-04-22T11:49:34.000Z</time>
      </trkpt>
      <trkpt lat="47.25894" lon="-1.44021">
        <ele>46</ele>
        <time>2021-04-22T11:49:36.000Z</time>
      </trkpt>
      <trkpt lat="47.25883" lon="-1.44037">
        <ele>46</ele>
        <time>2021-04-22T11:49:38.000Z</time>
      </trkpt>
      <trkpt lat="47.25875" lon="-1.44054">
        <ele>45</ele>
        <time>2021-04-22T11:49:40.000Z</time>
      </trkpt>
      <trkpt lat="47.25869" lon="-1.44073">
        <ele>46</ele>
        <time>2021-04-22T11:49:42.000Z</time>
      </trkpt>
      <trkpt lat="47.25861" lon="-1.4409">
        <ele>46</ele>
        <time>2021-04-22T11:49:44.000Z</time>
      </trkpt>
      <trkpt lat="47.2585" lon="-1.44104">
        <ele>46</ele>
        <time>2021-04-22T11:49:46.000Z</time>
      </trkpt>
      <trkpt lat="47.25839" lon="-1.44117">
        <ele>46</ele>
        <time>2021-04-22T11:49:48.000Z</time>
      </trkpt>
      <trkpt lat="47.25827" lon="-1.4413">
        <ele>46</ele>
        <time>2021-04-22T11:49:50.000Z</time>
      </trkpt>
      <trkpt lat="47.25815" lon="-1.44143">
        <ele>46</ele>
        <time>2021-04-22T11:49:52.000Z</time>
      </trkpt>
      <trkpt lat="47.25804" lon="-1.44156">
        <ele>47</ele>
        <time>2021-04-22T11:49:54.000Z</time>
      </trkpt>
      <trkpt lat="47.25793" lon="-1.44169">
        <ele>47</ele>
        <time>2021-04-22T11:49:56.000Z</time>
      </trkpt>
      <trkpt lat="47.25782" lon="-1.44181">
        <ele>47</ele>
        <time>2021-04-22T11:49:58.000Z</time>
      </trkpt>
      <trkpt lat="47.2577" lon="-1.44195">
        <ele>47</ele>
        <time>2021-04-22T11:50:00.000Z</time>
      </trkpt>
      <trkpt lat="47.25759" lon="-1.44208">
        <ele>47</ele>
        <time>2021-04-22T11:50:02.000Z</time>
      </trkpt>
      <trkpt lat="47.25748" lon="-1.44222">
        <ele>47</ele>
        <time>2021-04-22T11:50:04.000Z</time>
      </trkpt>
      <trkpt lat="47.25738" lon="-1.44236">
        <ele>47</ele>
        <time>2021-04-22T11:50:06.000Z</time>
      </trkpt>
      <trkpt lat="47.25728" lon="-1.44251">
        <ele>47</ele>
        <time>2021-04-22T11:50:08.000Z</time>
      </trkpt>
      <trkpt lat="47.25716" lon="-1.44263">
        <ele>47</ele>
        <time>2021-04-22T11:50:10.000Z</time>
      </trkpt>
      <trkpt lat="47.25705" lon="-1.44276">
        <ele>47</ele>
        <time>2021-04-22T11:50:12.000Z</time>
      </trkpt>
      <trkpt lat="47.25694" lon="-1.4429">
        <ele>47</ele>
        <time>2021-04-22T11:50:14.000Z</time>
      </trkpt>
      <trkpt lat="47.25683" lon="-1.44303">
        <ele>47</ele>
        <time>2021-04-22T11:50:16.000Z</time>
      </trkpt>
      <trkpt lat="47.25673" lon="-1.44317">
        <ele>47</ele>
        <time>2021-04-22T11:50:18.000Z</time>
      </trkpt>
      <trkpt lat="47.25662" lon="-1.4433">
        <ele>47</ele>
        <time>2021-04-22T11:50:20.000Z</time>
      </trkpt>
      <trkpt lat="47.25651" lon="-1.44342">
        <ele>47</ele>
        <time>2021-04-22T11:50:22.000Z</time>
      </trkpt>
      <trkpt lat="47.25639" lon="-1.44354">
        <ele>48</ele>
        <time>2021-04-22T11:50:24.000Z</time>
      </trkpt>
      <trkpt lat="47.25628" lon="-1.44367">
        <ele>48</ele>
        <time>2021-04-22T11:50:26.000Z</time>
      </trkpt>
      <trkpt lat="47.25617" lon="-1.44379">
        <ele>48</ele>
        <time>2021-04-22T11:50:28.000Z</time>
      </trkpt>
      <trkpt lat="47.25606" lon="-1.44392">
        <ele>47</ele>
        <time>2021-04-22T11:50:30.000Z</time>
      </trkpt>
      <trkpt lat="47.25595" lon="-1.44405">
        <ele>48</ele>
        <time>2021-04-22T11:50:32.000Z</time>
      </trkpt>
      <trkpt lat="47.25584" lon="-1.44418">
        <ele>48</ele>
        <time>2021-04-22T11:50:34.000Z</time>
      </trkpt>
      <trkpt lat="47.25573" lon="-1.44432">
        <ele>48</ele>
        <time>2021-04-22T11:50:36.000Z</time>
      </trkpt>
      <trkpt lat="47.25562" lon="-1.44446">
        <ele>48</ele>
        <time>2021-04-22T11:50:38.000Z</time>
      </trkpt>
      <trkpt lat="47.25552" lon="-1.4446">
        <ele>48</ele>
        <time>2021-04-22T11:50:40.000Z</time>
      </trkpt>
      <trkpt lat="47.25542" lon="-1.44475">
        <ele>48</ele>
        <time>2021-04-22T11:50:42.000Z</time>
      </trkpt>
      <trkpt lat="47.25533" lon="-1.4449">
        <ele>49</ele>
        <time>2021-04-22T11:50:44.000Z</time>
      </trkpt>
      <trkpt lat="47.25523" lon="-1.44504">
        <ele>49</ele>
        <time>2021-04-22T11:50:46.000Z</time>
      </trkpt>
      <trkpt lat="47.25513" lon="-1.44518">
        <ele>49</ele>
        <time>2021-04-22T11:50:48.000Z</time>
      </trkpt>
      <trkpt lat="47.25503" lon="-1.44532">
        <ele>48</ele>
        <time>2021-04-22T11:50:50.000Z</time>
      </trkpt>
      <trkpt lat="47.25492" lon="-1.44547">
        <ele>49</ele>
        <time>2021-04-22T11:50:52.000Z</time>
      </trkpt>
      <trkpt lat="47.25482" lon="-1.44562">
        <ele>49</ele>
        <time>2021-04-22T11:50:54.000Z</time>
      </trkpt>
      <trkpt lat="47.25472" lon="-1.44577">
        <ele>48</ele>
        <time>2021-04-22T11:50:56.000Z</time>
      </trkpt>
      <trkpt lat="47.25463" lon="-1.44593">
        <ele>48</ele>
        <time>2021-04-22T11:50:58.000Z</time>
      </trkpt>
      <trkpt lat="47.25452" lon="-1.44608">
        <ele>48</ele>
        <time>2021-04-22T11:51:00.000Z</time>
      </trkpt>
      <trkpt lat="47.25442" lon="-1.44622">
        <ele>48</ele>
        <time>2021-04-22T11:51:02.000Z</time>
      </trkpt>
      <trkpt lat="47.25432" lon="-1.44636">
        <ele>48</ele>
        <time>2021-04-22T11:51:04.000Z</time>
      </trkpt>
      <trkpt lat="47.25422" lon="-1.44651">
        <ele>49</ele>
        <time>2021-04-22T11:51:06.000Z</time>
      </trkpt>
      <trkpt lat="47.25411" lon="-1.44665">
        <ele>48</ele>
        <time>2021-04-22T11:51:08.000Z</time>
      </trkpt>
      <trkpt lat="47.254" lon="-1.44679">
        <ele>48</ele>
        <time>2021-04-22T11:51:10.000Z</time>
      </trkpt>
      <trkpt lat="47.25389" lon="-1.44692">
        <ele>47</ele>
        <time>2021-04-22T11:51:12.000Z</time>
      </trkpt>
      <trkpt lat="47.25378" lon="-1.44706">
        <ele>47</ele>
        <time>2021-04-22T11:51:14.000Z</time>
      </trkpt>
      <trkpt lat="47.25367" lon="-1.4472">
        <ele>47</ele>
        <time>2021-04-22T11:51:16.000Z</time>
      </trkpt>
      <trkpt lat="47.25355" lon="-1.44732">
        <ele>47</ele>
        <time>2021-04-22T11:51:18.000Z</time>
      </trkpt>
      <trkpt lat="47.25343" lon="-1.44743">
        <ele>47</ele>
        <time>2021-04-22T11:51:20.000Z</time>
      </trkpt>
      <trkpt lat="47.2533" lon="-1.44755">
        <ele>47</ele>
        <time>2021-04-22T11:51:22.000Z</time>
      </trkpt>
      <trkpt lat="47.25319" lon="-1.44766">
        <ele>47</ele>
        <time>2021-04-22T11:51:24.000Z</time>
      </trkpt>
      <trkpt lat="47.25307" lon="-1.44778">
        <ele>47</ele>
        <time>2021-04-22T11:51:26.000Z</time>
      </trkpt>
      <trkpt lat="47.25297" lon="-1.44793">
        <ele>47</ele>
        <time>2021-04-22T11:51:28.000Z</time>
      </trkpt>
      <trkpt lat="47.25285" lon="-1.44805">
        <ele>47</ele>
        <time>2021-04-22T11:51:30.000Z</time>
      </trkpt>
      <trkpt lat="47.25273" lon="-1.44818">
        <ele>48</ele>
        <time>2021-04-22T11:51:32.000Z</time>
      </trkpt>
      <trkpt lat="47.25256" lon="-1.44839">
        <ele>48</ele>
        <time>2021-04-22T11:51:35.000Z</time>
      </trkpt>
      <trkpt lat="47.25244" lon="-1.44852">
        <ele>48</ele>
        <time>2021-04-22T11:51:37.000Z</time>
      </trkpt>
      <trkpt lat="47.25232" lon="-1.44863">
        <ele>48</ele>
        <time>2021-04-22T11:51:39.000Z</time>
      </trkpt>
      <trkpt lat="47.2522" lon="-1.44875">
        <ele>47</ele>
        <time>2021-04-22T11:51:41.000Z</time>
      </trkpt>
      <trkpt lat="47.25208" lon="-1.44885">
        <ele>46</ele>
        <time>2021-04-22T11:51:43.000Z</time>
      </trkpt>
      <trkpt lat="47.25195" lon="-1.44896">
        <ele>46</ele>
        <time>2021-04-22T11:51:45.000Z</time>
      </trkpt>
      <trkpt lat="47.25182" lon="-1.44908">
        <ele>46</ele>
        <time>2021-04-22T11:51:47.000Z</time>
      </trkpt>
      <trkpt lat="47.25169" lon="-1.44919">
        <ele>45</ele>
        <time>2021-04-22T11:51:49.000Z</time>
      </trkpt>
      <trkpt lat="47.25156" lon="-1.44931">
        <ele>45</ele>
        <time>2021-04-22T11:51:51.000Z</time>
      </trkpt>
      <trkpt lat="47.25144" lon="-1.44942">
        <ele>45</ele>
        <time>2021-04-22T11:51:53.000Z</time>
      </trkpt>
      <trkpt lat="47.25131" lon="-1.44954">
        <ele>45</ele>
        <time>2021-04-22T11:51:55.000Z</time>
      </trkpt>
      <trkpt lat="47.25118" lon="-1.44966">
        <ele>45</ele>
        <time>2021-04-22T11:51:57.000Z</time>
      </trkpt>
      <trkpt lat="47.25106" lon="-1.44978">
        <ele>44</ele>
        <time>2021-04-22T11:51:59.000Z</time>
      </trkpt>
      <trkpt lat="47.25092" lon="-1.44989">
        <ele>44</ele>
        <time>2021-04-22T11:52:01.000Z</time>
      </trkpt>
      <trkpt lat="47.2508" lon="-1.45">
        <ele>44</ele>
        <time>2021-04-22T11:52:03.000Z</time>
      </trkpt>
      <trkpt lat="47.25067" lon="-1.45011">
        <ele>45</ele>
        <time>2021-04-22T11:52:05.000Z</time>
      </trkpt>
      <trkpt lat="47.25054" lon="-1.45021">
        <ele>45</ele>
        <time>2021-04-22T11:52:07.000Z</time>
      </trkpt>
      <trkpt lat="47.25041" lon="-1.45031">
        <ele>45</ele>
        <time>2021-04-22T11:52:09.000Z</time>
      </trkpt>
      <trkpt lat="47.25028" lon="-1.45041">
        <ele>45</ele>
        <time>2021-04-22T11:52:11.000Z</time>
      </trkpt>
      <trkpt lat="47.25015" lon="-1.45051">
        <ele>46</ele>
        <time>2021-04-22T11:52:13.000Z</time>
      </trkpt>
      <trkpt lat="47.25003" lon="-1.45063">
        <ele>46</ele>
        <time>2021-04-22T11:52:15.000Z</time>
      </trkpt>
      <trkpt lat="47.24992" lon="-1.45077">
        <ele>45</ele>
        <time>2021-04-22T11:52:17.000Z</time>
      </trkpt>
      <trkpt lat="47.24981" lon="-1.45091">
        <ele>46</ele>
        <time>2021-04-22T11:52:19.000Z</time>
      </trkpt>
      <trkpt lat="47.24969" lon="-1.45103">
        <ele>45</ele>
        <time>2021-04-22T11:52:21.000Z</time>
      </trkpt>
      <trkpt lat="47.24958" lon="-1.45116">
        <ele>45</ele>
        <time>2021-04-22T11:52:23.000Z</time>
      </trkpt>
      <trkpt lat="47.24947" lon="-1.45129">
        <ele>45</ele>
        <time>2021-04-22T11:52:25.000Z</time>
      </trkpt>
      <trkpt lat="47.24935" lon="-1.4514">
        <ele>44</ele>
        <time>2021-04-22T11:52:27.000Z</time>
      </trkpt>
      <trkpt lat="47.24924" lon="-1.45151">
        <ele>44</ele>
        <time>2021-04-22T11:52:29.000Z</time>
      </trkpt>
      <trkpt lat="47.24913" lon="-1.45163">
        <ele>44</ele>
        <time>2021-04-22T11:52:31.000Z</time>
      </trkpt>
      <trkpt lat="47.24904" lon="-1.45174">
        <ele>45</ele>
        <time>2021-04-22T11:52:33.000Z</time>
      </trkpt>
      <trkpt lat="47.24897" lon="-1.45184">
        <ele>45</ele>
        <time>2021-04-22T11:52:35.000Z</time>
      </trkpt>
      <trkpt lat="47.24891" lon="-1.45194">
        <ele>45</ele>
        <time>2021-04-22T11:52:37.000Z</time>
      </trkpt>
      <trkpt lat="47.24884" lon="-1.45205">
        <ele>44</ele>
        <time>2021-04-22T11:52:39.000Z</time>
      </trkpt>
      <trkpt lat="47.24875" lon="-1.45216">
        <ele>45</ele>
        <time>2021-04-22T11:52:41.000Z</time>
      </trkpt>
      <trkpt lat="47.24865" lon="-1.4523">
        <ele>44</ele>
        <time>2021-04-22T11:52:43.000Z</time>
      </trkpt>
      <trkpt lat="47.24855" lon="-1.45245">
        <ele>44</ele>
        <time>2021-04-22T11:52:45.000Z</time>
      </trkpt>
      <trkpt lat="47.24845" lon="-1.45261">
        <ele>44</ele>
        <time>2021-04-22T11:52:47.000Z</time>
      </trkpt>
      <trkpt lat="47.24836" lon="-1.45277">
        <ele>43</ele>
        <time>2021-04-22T11:52:49.000Z</time>
      </trkpt>
      <trkpt lat="47.24825" lon="-1.453">
        <ele>44</ele>
        <time>2021-04-22T11:52:52.000Z</time>
      </trkpt>
      <trkpt lat="47.24817" lon="-1.45315">
        <ele>44</ele>
        <time>2021-04-22T11:52:54.000Z</time>
      </trkpt>
      <trkpt lat="47.24805" lon="-1.45341">
        <ele>45</ele>
        <time>2021-04-22T11:52:57.000Z</time>
      </trkpt>
      <trkpt lat="47.24793" lon="-1.45369">
        <ele>46</ele>
        <time>2021-04-22T11:53:00.000Z</time>
      </trkpt>
      <trkpt lat="47.24785" lon="-1.45388">
        <ele>47</ele>
        <time>2021-04-22T11:53:02.000Z</time>
      </trkpt>
      <trkpt lat="47.24777" lon="-1.45406">
        <ele>48</ele>
        <time>2021-04-22T11:53:04.000Z</time>
      </trkpt>
      <trkpt lat="47.2477" lon="-1.45424">
        <ele>48</ele>
        <time>2021-04-22T11:53:06.000Z</time>
      </trkpt>
      <trkpt lat="47.24762" lon="-1.45442">
        <ele>48</ele>
        <time>2021-04-22T11:53:08.000Z</time>
      </trkpt>
      <trkpt lat="47.24755" lon="-1.4546">
        <ele>48</ele>
        <time>2021-04-22T11:53:10.000Z</time>
      </trkpt>
      <trkpt lat="47.24748" lon="-1.45478">
        <ele>48</ele>
        <time>2021-04-22T11:53:12.000Z</time>
      </trkpt>
      <trkpt lat="47.2474" lon="-1.45495">
        <ele>48</ele>
        <time>2021-04-22T11:53:14.000Z</time>
      </trkpt>
      <trkpt lat="47.24732" lon="-1.45513">
        <ele>48</ele>
        <time>2021-04-22T11:53:16.000Z</time>
      </trkpt>
      <trkpt lat="47.24726" lon="-1.45531">
        <ele>48</ele>
        <time>2021-04-22T11:53:18.000Z</time>
      </trkpt>
      <trkpt lat="47.24715" lon="-1.45558">
        <ele>48</ele>
        <time>2021-04-22T11:53:21.000Z</time>
      </trkpt>
      <trkpt lat="47.2471" lon="-1.45575">
        <ele>48</ele>
        <time>2021-04-22T11:53:23.000Z</time>
      </trkpt>
      <trkpt lat="47.24705" lon="-1.45594">
        <ele>48</ele>
        <time>2021-04-22T11:53:25.000Z</time>
      </trkpt>
      <trkpt lat="47.247" lon="-1.45613">
        <ele>48</ele>
        <time>2021-04-22T11:53:27.000Z</time>
      </trkpt>
      <trkpt lat="47.24693" lon="-1.45633">
        <ele>48</ele>
        <time>2021-04-22T11:53:29.000Z</time>
      </trkpt>
      <trkpt lat="47.24687" lon="-1.45651">
        <ele>48</ele>
        <time>2021-04-22T11:53:31.000Z</time>
      </trkpt>
      <trkpt lat="47.24681" lon="-1.45669">
        <ele>48</ele>
        <time>2021-04-22T11:53:33.000Z</time>
      </trkpt>
      <trkpt lat="47.24677" lon="-1.45687">
        <ele>48</ele>
        <time>2021-04-22T11:53:35.000Z</time>
      </trkpt>
      <trkpt lat="47.24673" lon="-1.45707">
        <ele>49</ele>
        <time>2021-04-22T11:53:37.000Z</time>
      </trkpt>
      <trkpt lat="47.24668" lon="-1.45727">
        <ele>49</ele>
        <time>2021-04-22T11:53:39.000Z</time>
      </trkpt>
      <trkpt lat="47.24663" lon="-1.45745">
        <ele>49</ele>
        <time>2021-04-22T11:53:41.000Z</time>
      </trkpt>
      <trkpt lat="47.2466" lon="-1.45764">
        <ele>48</ele>
        <time>2021-04-22T11:53:43.000Z</time>
      </trkpt>
      <trkpt lat="47.24654" lon="-1.45782">
        <ele>48</ele>
        <time>2021-04-22T11:53:45.000Z</time>
      </trkpt>
      <trkpt lat="47.24645" lon="-1.45809">
        <ele>48</ele>
        <time>2021-04-22T11:53:48.000Z</time>
      </trkpt>
      <trkpt lat="47.24639" lon="-1.45828">
        <ele>49</ele>
        <time>2021-04-22T11:53:50.000Z</time>
      </trkpt>
      <trkpt lat="47.24634" lon="-1.45848">
        <ele>49</ele>
        <time>2021-04-22T11:53:52.000Z</time>
      </trkpt>
      <trkpt lat="47.24629" lon="-1.45869">
        <ele>49</ele>
        <time>2021-04-22T11:53:54.000Z</time>
      </trkpt>
      <trkpt lat="47.24622" lon="-1.459">
        <ele>48</ele>
        <time>2021-04-22T11:53:57.000Z</time>
      </trkpt>
      <trkpt lat="47.24617" lon="-1.45921">
        <ele>47</ele>
        <time>2021-04-22T11:53:59.000Z</time>
      </trkpt>
      <trkpt lat="47.24609" lon="-1.4594">
        <ele>46</ele>
        <time>2021-04-22T11:54:01.000Z</time>
      </trkpt>
      <trkpt lat="47.246" lon="-1.45957">
        <ele>45</ele>
        <time>2021-04-22T11:54:03.000Z</time>
      </trkpt>
      <trkpt lat="47.24592" lon="-1.45976">
        <ele>46</ele>
        <time>2021-04-22T11:54:05.000Z</time>
      </trkpt>
      <trkpt lat="47.24584" lon="-1.45994">
        <ele>46</ele>
        <time>2021-04-22T11:54:07.000Z</time>
      </trkpt>
      <trkpt lat="47.24576" lon="-1.46012">
        <ele>46</ele>
        <time>2021-04-22T11:54:09.000Z</time>
      </trkpt>
      <trkpt lat="47.24566" lon="-1.4603">
        <ele>46</ele>
        <time>2021-04-22T11:54:11.000Z</time>
      </trkpt>
      <trkpt lat="47.24556" lon="-1.46046">
        <ele>46</ele>
        <time>2021-04-22T11:54:13.000Z</time>
      </trkpt>
      <trkpt lat="47.24547" lon="-1.46064">
        <ele>45</ele>
        <time>2021-04-22T11:54:15.000Z</time>
      </trkpt>
      <trkpt lat="47.24539" lon="-1.4608">
        <ele>46</ele>
        <time>2021-04-22T11:54:17.000Z</time>
      </trkpt>
      <trkpt lat="47.24531" lon="-1.46096">
        <ele>46</ele>
        <time>2021-04-22T11:54:19.000Z</time>
      </trkpt>
      <trkpt lat="47.24519" lon="-1.4611">
        <ele>47</ele>
        <time>2021-04-22T11:54:21.000Z</time>
      </trkpt>
      <trkpt lat="47.24507" lon="-1.46123">
        <ele>47</ele>
        <time>2021-04-22T11:54:23.000Z</time>
      </trkpt>
      <trkpt lat="47.24495" lon="-1.46138">
        <ele>48</ele>
        <time>2021-04-22T11:54:25.000Z</time>
      </trkpt>
      <trkpt lat="47.24484" lon="-1.46152">
        <ele>48</ele>
        <time>2021-04-22T11:54:27.000Z</time>
      </trkpt>
      <trkpt lat="47.24475" lon="-1.46166">
        <ele>48</ele>
        <time>2021-04-22T11:54:29.000Z</time>
      </trkpt>
      <trkpt lat="47.24465" lon="-1.46179">
        <ele>49</ele>
        <time>2021-04-22T11:54:31.000Z</time>
      </trkpt>
      <trkpt lat="47.24455" lon="-1.46193">
        <ele>49</ele>
        <time>2021-04-22T11:54:33.000Z</time>
      </trkpt>
      <trkpt lat="47.24442" lon="-1.46206">
        <ele>49</ele>
        <time>2021-04-22T11:54:35.000Z</time>
      </trkpt>
      <trkpt lat="47.24431" lon="-1.4622">
        <ele>49</ele>
        <time>2021-04-22T11:54:37.000Z</time>
      </trkpt>
      <trkpt lat="47.24421" lon="-1.46233">
        <ele>50</ele>
        <time>2021-04-22T11:54:39.000Z</time>
      </trkpt>
      <trkpt lat="47.24411" lon="-1.46247">
        <ele>50</ele>
        <time>2021-04-22T11:54:41.000Z</time>
      </trkpt>
      <trkpt lat="47.24401" lon="-1.4626">
        <ele>50</ele>
        <time>2021-04-22T11:54:43.000Z</time>
      </trkpt>
      <trkpt lat="47.24391" lon="-1.46274">
        <ele>50</ele>
        <time>2021-04-22T11:54:45.000Z</time>
      </trkpt>
      <trkpt lat="47.24381" lon="-1.46289">
        <ele>51</ele>
        <time>2021-04-22T11:54:47.000Z</time>
      </trkpt>
      <trkpt lat="47.24372" lon="-1.46304">
        <ele>52</ele>
        <time>2021-04-22T11:54:49.000Z</time>
      </trkpt>
      <trkpt lat="47.24358" lon="-1.46326">
        <ele>50</ele>
        <time>2021-04-22T11:54:52.000Z</time>
      </trkpt>
      <trkpt lat="47.2435" lon="-1.46341">
        <ele>50</ele>
        <time>2021-04-22T11:54:54.000Z</time>
      </trkpt>
      <trkpt lat="47.24343" lon="-1.46356">
        <ele>49</ele>
        <time>2021-04-22T11:54:56.000Z</time>
      </trkpt>
      <trkpt lat="47.24334" lon="-1.46372">
        <ele>49</ele>
        <time>2021-04-22T11:54:58.000Z</time>
      </trkpt>
      <trkpt lat="47.24325" lon="-1.46388">
        <ele>48</ele>
        <time>2021-04-22T11:55:00.000Z</time>
      </trkpt>
      <trkpt lat="47.2431" lon="-1.46411">
        <ele>48</ele>
        <time>2021-04-22T11:55:03.000Z</time>
      </trkpt>
      <trkpt lat="47.24295" lon="-1.46435">
        <ele>47</ele>
        <time>2021-04-22T11:55:06.000Z</time>
      </trkpt>
      <trkpt lat="47.24285" lon="-1.46449">
        <ele>48</ele>
        <time>2021-04-22T11:55:08.000Z</time>
      </trkpt>
      <trkpt lat="47.24273" lon="-1.46463">
        <ele>48</ele>
        <time>2021-04-22T11:55:10.000Z</time>
      </trkpt>
      <trkpt lat="47.24261" lon="-1.46477">
        <ele>48</ele>
        <time>2021-04-22T11:55:12.000Z</time>
      </trkpt>
      <trkpt lat="47.2425" lon="-1.46491">
        <ele>49</ele>
        <time>2021-04-22T11:55:14.000Z</time>
      </trkpt>
      <trkpt lat="47.24238" lon="-1.46504">
        <ele>49</ele>
        <time>2021-04-22T11:55:16.000Z</time>
      </trkpt>
      <trkpt lat="47.24228" lon="-1.46517">
        <ele>50</ele>
        <time>2021-04-22T11:55:18.000Z</time>
      </trkpt>
      <trkpt lat="47.24217" lon="-1.46531">
        <ele>51</ele>
        <time>2021-04-22T11:55:20.000Z</time>
      </trkpt>
      <trkpt lat="47.24207" lon="-1.46545">
        <ele>51</ele>
        <time>2021-04-22T11:55:22.000Z</time>
      </trkpt>
      <trkpt lat="47.24198" lon="-1.46558">
        <ele>51</ele>
        <time>2021-04-22T11:55:24.000Z</time>
      </trkpt>
      <trkpt lat="47.24188" lon="-1.4657">
        <ele>51</ele>
        <time>2021-04-22T11:55:26.000Z</time>
      </trkpt>
      <trkpt lat="47.24178" lon="-1.46583">
        <ele>51</ele>
        <time>2021-04-22T11:55:28.000Z</time>
      </trkpt>
      <trkpt lat="47.24168" lon="-1.46596">
        <ele>52</ele>
        <time>2021-04-22T11:55:30.000Z</time>
      </trkpt>
      <trkpt lat="47.24159" lon="-1.46609">
        <ele>51</ele>
        <time>2021-04-22T11:55:32.000Z</time>
      </trkpt>
      <trkpt lat="47.24149" lon="-1.4662">
        <ele>52</ele>
        <time>2021-04-22T11:55:34.000Z</time>
      </trkpt>
      <trkpt lat="47.2414" lon="-1.46634">
        <ele>51</ele>
        <time>2021-04-22T11:55:36.000Z</time>
      </trkpt>
      <trkpt lat="47.24131" lon="-1.46646">
        <ele>52</ele>
        <time>2021-04-22T11:55:38.000Z</time>
      </trkpt>
      <trkpt lat="47.24121" lon="-1.4666">
        <ele>52</ele>
        <time>2021-04-22T11:55:40.000Z</time>
      </trkpt>
      <trkpt lat="47.24111" lon="-1.46675">
        <ele>51</ele>
        <time>2021-04-22T11:55:42.000Z</time>
      </trkpt>
      <trkpt lat="47.241" lon="-1.4669">
        <ele>51</ele>
        <time>2021-04-22T11:55:44.000Z</time>
      </trkpt>
      <trkpt lat="47.2409" lon="-1.46706">
        <ele>51</ele>
        <time>2021-04-22T11:55:46.000Z</time>
      </trkpt>
      <trkpt lat="47.24083" lon="-1.46724">
        <ele>51</ele>
        <time>2021-04-22T11:55:48.000Z</time>
      </trkpt>
      <trkpt lat="47.24072" lon="-1.46739">
        <ele>51</ele>
        <time>2021-04-22T11:55:50.000Z</time>
      </trkpt>
      <trkpt lat="47.24058" lon="-1.46748">
        <ele>51</ele>
        <time>2021-04-22T11:55:52.000Z</time>
      </trkpt>
      <trkpt lat="47.24045" lon="-1.46761">
        <ele>50</ele>
        <time>2021-04-22T11:55:54.000Z</time>
      </trkpt>
      <trkpt lat="47.24032" lon="-1.46774">
        <ele>50</ele>
        <time>2021-04-22T11:55:56.000Z</time>
      </trkpt>
      <trkpt lat="47.2402" lon="-1.46787">
        <ele>50</ele>
        <time>2021-04-22T11:55:58.000Z</time>
      </trkpt>
      <trkpt lat="47.24008" lon="-1.46802">
        <ele>50</ele>
        <time>2021-04-22T11:56:00.000Z</time>
      </trkpt>
      <trkpt lat="47.23995" lon="-1.46816">
        <ele>50</ele>
        <time>2021-04-22T11:56:02.000Z</time>
      </trkpt>
      <trkpt lat="47.23983" lon="-1.46828">
        <ele>50</ele>
        <time>2021-04-22T11:56:04.000Z</time>
      </trkpt>
      <trkpt lat="47.23971" lon="-1.4684">
        <ele>50</ele>
        <time>2021-04-22T11:56:06.000Z</time>
      </trkpt>
      <trkpt lat="47.23959" lon="-1.46852">
        <ele>50</ele>
        <time>2021-04-22T11:56:08.000Z</time>
      </trkpt>
      <trkpt lat="47.23947" lon="-1.46863">
        <ele>50</ele>
        <time>2021-04-22T11:56:10.000Z</time>
      </trkpt>
      <trkpt lat="47.23934" lon="-1.46874">
        <ele>50</ele>
        <time>2021-04-22T11:56:12.000Z</time>
      </trkpt>
      <trkpt lat="47.23921" lon="-1.46887">
        <ele>49</ele>
        <time>2021-04-22T11:56:14.000Z</time>
      </trkpt>
      <trkpt lat="47.23909" lon="-1.46902">
        <ele>50</ele>
        <time>2021-04-22T11:56:16.000Z</time>
      </trkpt>
      <trkpt lat="47.23898" lon="-1.46916">
        <ele>49</ele>
        <time>2021-04-22T11:56:18.000Z</time>
      </trkpt>
      <trkpt lat="47.23887" lon="-1.46931">
        <ele>49</ele>
        <time>2021-04-22T11:56:20.000Z</time>
      </trkpt>
      <trkpt lat="47.23876" lon="-1.46946">
        <ele>49</ele>
        <time>2021-04-22T11:56:22.000Z</time>
      </trkpt>
      <trkpt lat="47.23865" lon="-1.46961">
        <ele>49</ele>
        <time>2021-04-22T11:56:24.000Z</time>
      </trkpt>
      <trkpt lat="47.23852" lon="-1.46978">
        <ele>49</ele>
        <time>2021-04-22T11:56:26.000Z</time>
      </trkpt>
      <trkpt lat="47.23841" lon="-1.46995">
        <ele>49</ele>
        <time>2021-04-22T11:56:28.000Z</time>
      </trkpt>
      <trkpt lat="47.23828" lon="-1.47012">
        <ele>49</ele>
        <time>2021-04-22T11:56:30.000Z</time>
      </trkpt>
      <trkpt lat="47.23817" lon="-1.47029">
        <ele>49</ele>
        <time>2021-04-22T11:56:32.000Z</time>
      </trkpt>
      <trkpt lat="47.23805" lon="-1.47045">
        <ele>49</ele>
        <time>2021-04-22T11:56:34.000Z</time>
      </trkpt>
      <trkpt lat="47.23794" lon="-1.47063">
        <ele>49</ele>
        <time>2021-04-22T11:56:36.000Z</time>
      </trkpt>
      <trkpt lat="47.23782" lon="-1.4708">
        <ele>49</ele>
        <time>2021-04-22T11:56:38.000Z</time>
      </trkpt>
      <trkpt lat="47.23769" lon="-1.47098">
        <ele>49</ele>
        <time>2021-04-22T11:56:40.000Z</time>
      </trkpt>
      <trkpt lat="47.23757" lon="-1.47114">
        <ele>49</ele>
        <time>2021-04-22T11:56:42.000Z</time>
      </trkpt>
      <trkpt lat="47.23744" lon="-1.4713">
        <ele>49</ele>
        <time>2021-04-22T11:56:44.000Z</time>
      </trkpt>
      <trkpt lat="47.2373" lon="-1.47144">
        <ele>49</ele>
        <time>2021-04-22T11:56:46.000Z</time>
      </trkpt>
      <trkpt lat="47.23718" lon="-1.4716">
        <ele>49</ele>
        <time>2021-04-22T11:56:48.000Z</time>
      </trkpt>
      <trkpt lat="47.23707" lon="-1.47177">
        <ele>49</ele>
        <time>2021-04-22T11:56:50.000Z</time>
      </trkpt>
      <trkpt lat="47.23695" lon="-1.47193">
        <ele>49</ele>
        <time>2021-04-22T11:56:52.000Z</time>
      </trkpt>
      <trkpt lat="47.23684" lon="-1.47211">
        <ele>49</ele>
        <time>2021-04-22T11:56:54.000Z</time>
      </trkpt>
      <trkpt lat="47.23676" lon="-1.47224">
        <ele>50</ele>
        <time>2021-04-22T11:56:56.000Z</time>
      </trkpt>
      <trkpt lat="47.23666" lon="-1.47235">
        <ele>50</ele>
        <time>2021-04-22T11:56:59.000Z</time>
      </trkpt>
      <trkpt lat="47.23658" lon="-1.47246">
        <ele>50</ele>
        <time>2021-04-22T11:57:06.000Z</time>
      </trkpt>
      <trkpt lat="47.23649" lon="-1.47254">
        <ele>50</ele>
        <time>2021-04-22T11:57:09.000Z</time>
      </trkpt>
      <trkpt lat="47.2364" lon="-1.47262">
        <ele>49</ele>
        <time>2021-04-22T11:57:11.000Z</time>
      </trkpt>
      <trkpt lat="47.23632" lon="-1.47275">
        <ele>49</ele>
        <time>2021-04-22T11:57:13.000Z</time>
      </trkpt>
      <trkpt lat="47.23619" lon="-1.47291">
        <ele>49</ele>
        <time>2021-04-22T11:57:15.000Z</time>
      </trkpt>
      <trkpt lat="47.23606" lon="-1.47304">
        <ele>49</ele>
        <time>2021-04-22T11:57:17.000Z</time>
      </trkpt>
      <trkpt lat="47.23592" lon="-1.47317">
        <ele>49</ele>
        <time>2021-04-22T11:57:19.000Z</time>
      </trkpt>
      <trkpt lat="47.23578" lon="-1.4733">
        <ele>50</ele>
        <time>2021-04-22T11:57:21.000Z</time>
      </trkpt>
      <trkpt lat="47.23565" lon="-1.47341">
        <ele>49</ele>
        <time>2021-04-22T11:57:23.000Z</time>
      </trkpt>
      <trkpt lat="47.23552" lon="-1.47352">
        <ele>49</ele>
        <time>2021-04-22T11:57:25.000Z</time>
      </trkpt>
      <trkpt lat="47.23538" lon="-1.47363">
        <ele>49</ele>
        <time>2021-04-22T11:57:27.000Z</time>
      </trkpt>
      <trkpt lat="47.23525" lon="-1.47374">
        <ele>49</ele>
        <time>2021-04-22T11:57:29.000Z</time>
      </trkpt>
      <trkpt lat="47.23513" lon="-1.47384">
        <ele>49</ele>
        <time>2021-04-22T11:57:31.000Z</time>
      </trkpt>
      <trkpt lat="47.23501" lon="-1.47395">
        <ele>49</ele>
        <time>2021-04-22T11:57:33.000Z</time>
      </trkpt>
      <trkpt lat="47.23488" lon="-1.47402">
        <ele>48</ele>
        <time>2021-04-22T11:57:35.000Z</time>
      </trkpt>
      <trkpt lat="47.23474" lon="-1.47408">
        <ele>48</ele>
        <time>2021-04-22T11:57:37.000Z</time>
      </trkpt>
      <trkpt lat="47.2346" lon="-1.47414">
        <ele>49</ele>
        <time>2021-04-22T11:57:39.000Z</time>
      </trkpt>
      <trkpt lat="47.23447" lon="-1.47418">
        <ele>49</ele>
        <time>2021-04-22T11:57:41.000Z</time>
      </trkpt>
      <trkpt lat="47.23434" lon="-1.47422">
        <ele>49</ele>
        <time>2021-04-22T11:57:43.000Z</time>
      </trkpt>
      <trkpt lat="47.23421" lon="-1.47432">
        <ele>49</ele>
        <time>2021-04-22T11:57:45.000Z</time>
      </trkpt>
      <trkpt lat="47.2341" lon="-1.47442">
        <ele>49</ele>
        <time>2021-04-22T11:57:47.000Z</time>
      </trkpt>
      <trkpt lat="47.23397" lon="-1.47451">
        <ele>49</ele>
        <time>2021-04-22T11:57:49.000Z</time>
      </trkpt>
      <trkpt lat="47.23384" lon="-1.47459">
        <ele>49</ele>
        <time>2021-04-22T11:57:51.000Z</time>
      </trkpt>
      <trkpt lat="47.23371" lon="-1.47465">
        <ele>49</ele>
        <time>2021-04-22T11:57:53.000Z</time>
      </trkpt>
      <trkpt lat="47.23357" lon="-1.47468">
        <ele>49</ele>
        <time>2021-04-22T11:57:55.000Z</time>
      </trkpt>
      <trkpt lat="47.23344" lon="-1.47473">
        <ele>49</ele>
        <time>2021-04-22T11:57:57.000Z</time>
      </trkpt>
      <trkpt lat="47.2333" lon="-1.47483">
        <ele>49</ele>
        <time>2021-04-22T11:57:59.000Z</time>
      </trkpt>
      <trkpt lat="47.23318" lon="-1.47495">
        <ele>50</ele>
        <time>2021-04-22T11:58:01.000Z</time>
      </trkpt>
      <trkpt lat="47.23305" lon="-1.47504">
        <ele>51</ele>
        <time>2021-04-22T11:58:03.000Z</time>
      </trkpt>
      <trkpt lat="47.2329" lon="-1.47514">
        <ele>52</ele>
        <time>2021-04-22T11:58:05.000Z</time>
      </trkpt>
      <trkpt lat="47.23276" lon="-1.47522">
        <ele>52</ele>
        <time>2021-04-22T11:58:07.000Z</time>
      </trkpt>
      <trkpt lat="47.23265" lon="-1.47536">
        <ele>51</ele>
        <time>2021-04-22T11:58:09.000Z</time>
      </trkpt>
      <trkpt lat="47.23255" lon="-1.47553">
        <ele>50</ele>
        <time>2021-04-22T11:58:11.000Z</time>
      </trkpt>
      <trkpt lat="47.23245" lon="-1.47571">
        <ele>51</ele>
        <time>2021-04-22T11:58:13.000Z</time>
      </trkpt>
      <trkpt lat="47.23235" lon="-1.47588">
        <ele>51</ele>
        <time>2021-04-22T11:58:15.000Z</time>
      </trkpt>
      <trkpt lat="47.23226" lon="-1.47604">
        <ele>51</ele>
        <time>2021-04-22T11:58:17.000Z</time>
      </trkpt>
      <trkpt lat="47.23218" lon="-1.47623">
        <ele>52</ele>
        <time>2021-04-22T11:58:19.000Z</time>
      </trkpt>
      <trkpt lat="47.23211" lon="-1.47642">
        <ele>52</ele>
        <time>2021-04-22T11:58:21.000Z</time>
      </trkpt>
      <trkpt lat="47.23202" lon="-1.4766">
        <ele>52</ele>
        <time>2021-04-22T11:58:23.000Z</time>
      </trkpt>
      <trkpt lat="47.23196" lon="-1.47677">
        <ele>52</ele>
        <time>2021-04-22T11:58:25.000Z</time>
      </trkpt>
      <trkpt lat="47.23189" lon="-1.47695">
        <ele>52</ele>
        <time>2021-04-22T11:58:27.000Z</time>
      </trkpt>
      <trkpt lat="47.23181" lon="-1.47713">
        <ele>53</ele>
        <time>2021-04-22T11:58:29.000Z</time>
      </trkpt>
      <trkpt lat="47.23172" lon="-1.47732">
        <ele>52</ele>
        <time>2021-04-22T11:58:31.000Z</time>
      </trkpt>
      <trkpt lat="47.23164" lon="-1.47751">
        <ele>51</ele>
        <time>2021-04-22T11:58:33.000Z</time>
      </trkpt>
      <trkpt lat="47.23156" lon="-1.4777">
        <ele>51</ele>
        <time>2021-04-22T11:58:35.000Z</time>
      </trkpt>
      <trkpt lat="47.2315" lon="-1.47788">
        <ele>51</ele>
        <time>2021-04-22T11:58:37.000Z</time>
      </trkpt>
      <trkpt lat="47.23144" lon="-1.47806">
        <ele>50</ele>
        <time>2021-04-22T11:58:39.000Z</time>
      </trkpt>
      <trkpt lat="47.23137" lon="-1.47823">
        <ele>50</ele>
        <time>2021-04-22T11:58:41.000Z</time>
      </trkpt>
      <trkpt lat="47.2313" lon="-1.4784">
        <ele>50</ele>
        <time>2021-04-22T11:58:43.000Z</time>
      </trkpt>
      <trkpt lat="47.23121" lon="-1.47857">
        <ele>50</ele>
        <time>2021-04-22T11:58:45.000Z</time>
      </trkpt>
      <trkpt lat="47.2311" lon="-1.47872">
        <ele>50</ele>
        <time>2021-04-22T11:58:47.000Z</time>
      </trkpt>
      <trkpt lat="47.231" lon="-1.47888">
        <ele>51</ele>
        <time>2021-04-22T11:58:49.000Z</time>
      </trkpt>
      <trkpt lat="47.23089" lon="-1.47902">
        <ele>52</ele>
        <time>2021-04-22T11:58:51.000Z</time>
      </trkpt>
      <trkpt lat="47.23078" lon="-1.47917">
        <ele>52</ele>
        <time>2021-04-22T11:58:53.000Z</time>
      </trkpt>
      <trkpt lat="47.23067" lon="-1.47931">
        <ele>53</ele>
        <time>2021-04-22T11:58:55.000Z</time>
      </trkpt>
      <trkpt lat="47.23056" lon="-1.47946">
        <ele>53</ele>
        <time>2021-04-22T11:58:57.000Z</time>
      </trkpt>
      <trkpt lat="47.23046" lon="-1.47959">
        <ele>54</ele>
        <time>2021-04-22T11:58:59.000Z</time>
      </trkpt>
      <trkpt lat="47.23035" lon="-1.47974">
        <ele>54</ele>
        <time>2021-04-22T11:59:01.000Z</time>
      </trkpt>
      <trkpt lat="47.23024" lon="-1.47989">
        <ele>54</ele>
        <time>2021-04-22T11:59:03.000Z</time>
      </trkpt>
      <trkpt lat="47.23015" lon="-1.48004">
        <ele>55</ele>
        <time>2021-04-22T11:59:05.000Z</time>
      </trkpt>
      <trkpt lat="47.23005" lon="-1.4802">
        <ele>55</ele>
        <time>2021-04-22T11:59:07.000Z</time>
      </trkpt>
      <trkpt lat="47.22996" lon="-1.48037">
        <ele>55</ele>
        <time>2021-04-22T11:59:09.000Z</time>
      </trkpt>
      <trkpt lat="47.22988" lon="-1.48052">
        <ele>55</ele>
        <time>2021-04-22T11:59:11.000Z</time>
      </trkpt>
      <trkpt lat="47.2298" lon="-1.48065">
        <ele>55</ele>
        <time>2021-04-22T11:59:13.000Z</time>
      </trkpt>
      <trkpt lat="47.22971" lon="-1.48078">
        <ele>54</ele>
        <time>2021-04-22T11:59:16.000Z</time>
      </trkpt>
      <trkpt lat="47.22961" lon="-1.48092">
        <ele>53</ele>
        <time>2021-04-22T11:59:19.000Z</time>
      </trkpt>
      <trkpt lat="47.22953" lon="-1.48104">
        <ele>53</ele>
        <time>2021-04-22T11:59:21.000Z</time>
      </trkpt>
      <trkpt lat="47.22941" lon="-1.4811">
        <ele>53</ele>
        <time>2021-04-22T11:59:23.000Z</time>
      </trkpt>
      <trkpt lat="47.22928" lon="-1.48112">
        <ele>52</ele>
        <time>2021-04-22T11:59:25.000Z</time>
      </trkpt>
      <trkpt lat="47.22915" lon="-1.48117">
        <ele>52</ele>
        <time>2021-04-22T11:59:27.000Z</time>
      </trkpt>
      <trkpt lat="47.22903" lon="-1.48127">
        <ele>52</ele>
        <time>2021-04-22T11:59:29.000Z</time>
      </trkpt>
      <trkpt lat="47.22894" lon="-1.4814">
        <ele>52</ele>
        <time>2021-04-22T11:59:31.000Z</time>
      </trkpt>
      <trkpt lat="47.22884" lon="-1.48154">
        <ele>52</ele>
        <time>2021-04-22T11:59:33.000Z</time>
      </trkpt>
      <trkpt lat="47.22876" lon="-1.48169">
        <ele>52</ele>
        <time>2021-04-22T11:59:35.000Z</time>
      </trkpt>
      <trkpt lat="47.22867" lon="-1.48183">
        <ele>52</ele>
        <time>2021-04-22T11:59:37.000Z</time>
      </trkpt>
      <trkpt lat="47.22858" lon="-1.48197">
        <ele>52</ele>
        <time>2021-04-22T11:59:39.000Z</time>
      </trkpt>
      <trkpt lat="47.22848" lon="-1.48211">
        <ele>52</ele>
        <time>2021-04-22T11:59:41.000Z</time>
      </trkpt>
      <trkpt lat="47.22839" lon="-1.48228">
        <ele>52</ele>
        <time>2021-04-22T11:59:43.000Z</time>
      </trkpt>
      <trkpt lat="47.22829" lon="-1.48242">
        <ele>52</ele>
        <time>2021-04-22T11:59:45.000Z</time>
      </trkpt>
      <trkpt lat="47.22819" lon="-1.48257">
        <ele>52</ele>
        <time>2021-04-22T11:59:47.000Z</time>
      </trkpt>
      <trkpt lat="47.22809" lon="-1.48273">
        <ele>51</ele>
        <time>2021-04-22T11:59:49.000Z</time>
      </trkpt>
      <trkpt lat="47.22799" lon="-1.48288">
        <ele>51</ele>
        <time>2021-04-22T11:59:51.000Z</time>
      </trkpt>
      <trkpt lat="47.22789" lon="-1.48303">
        <ele>51</ele>
        <time>2021-04-22T11:59:53.000Z</time>
      </trkpt>
      <trkpt lat="47.22779" lon="-1.48319">
        <ele>51</ele>
        <time>2021-04-22T11:59:55.000Z</time>
      </trkpt>
      <trkpt lat="47.22769" lon="-1.48334">
        <ele>51</ele>
        <time>2021-04-22T11:59:57.000Z</time>
      </trkpt>
      <trkpt lat="47.22758" lon="-1.48349">
        <ele>52</ele>
        <time>2021-04-22T11:59:59.000Z</time>
      </trkpt>
      <trkpt lat="47.22748" lon="-1.48363">
        <ele>52</ele>
        <time>2021-04-22T12:00:01.000Z</time>
      </trkpt>
      <trkpt lat="47.22738" lon="-1.48377">
        <ele>53</ele>
        <time>2021-04-22T12:00:03.000Z</time>
      </trkpt>
      <trkpt lat="47.22728" lon="-1.4839">
        <ele>53</ele>
        <time>2021-04-22T12:00:05.000Z</time>
      </trkpt>
      <trkpt lat="47.22718" lon="-1.48403">
        <ele>53</ele>
        <time>2021-04-22T12:00:07.000Z</time>
      </trkpt>
      <trkpt lat="47.22709" lon="-1.48418">
        <ele>53</ele>
        <time>2021-04-22T12:00:09.000Z</time>
      </trkpt>
      <trkpt lat="47.22702" lon="-1.48437">
        <ele>52</ele>
        <time>2021-04-22T12:00:11.000Z</time>
      </trkpt>
      <trkpt lat="47.22696" lon="-1.48455">
        <ele>52</ele>
        <time>2021-04-22T12:00:13.000Z</time>
      </trkpt>
      <trkpt lat="47.22689" lon="-1.48473">
        <ele>53</ele>
        <time>2021-04-22T12:00:15.000Z</time>
      </trkpt>
      <trkpt lat="47.22683" lon="-1.4849">
        <ele>54</ele>
        <time>2021-04-22T12:00:17.000Z</time>
      </trkpt>
      <trkpt lat="47.22675" lon="-1.48508">
        <ele>54</ele>
        <time>2021-04-22T12:00:19.000Z</time>
      </trkpt>
      <trkpt lat="47.2267" lon="-1.48526">
        <ele>54</ele>
        <time>2021-04-22T12:00:21.000Z</time>
      </trkpt>
      <trkpt lat="47.22664" lon="-1.48546">
        <ele>53</ele>
        <time>2021-04-22T12:00:23.000Z</time>
      </trkpt>
      <trkpt lat="47.22658" lon="-1.48566">
        <ele>53</ele>
        <time>2021-04-22T12:00:25.000Z</time>
      </trkpt>
      <trkpt lat="47.22649" lon="-1.48584">
        <ele>52</ele>
        <time>2021-04-22T12:00:27.000Z</time>
      </trkpt>
      <trkpt lat="47.22642" lon="-1.48602">
        <ele>52</ele>
        <time>2021-04-22T12:00:29.000Z</time>
      </trkpt>
      <trkpt lat="47.22636" lon="-1.48619">
        <ele>52</ele>
        <time>2021-04-22T12:00:31.000Z</time>
      </trkpt>
      <trkpt lat="47.2263" lon="-1.48638">
        <ele>51</ele>
        <time>2021-04-22T12:00:33.000Z</time>
      </trkpt>
      <trkpt lat="47.22623" lon="-1.48655">
        <ele>51</ele>
        <time>2021-04-22T12:00:35.000Z</time>
      </trkpt>
      <trkpt lat="47.22617" lon="-1.48673">
        <ele>51</ele>
        <time>2021-04-22T12:00:37.000Z</time>
      </trkpt>
      <trkpt lat="47.22611" lon="-1.48692">
        <ele>50</ele>
        <time>2021-04-22T12:00:39.000Z</time>
      </trkpt>
      <trkpt lat="47.22604" lon="-1.48712">
        <ele>50</ele>
        <time>2021-04-22T12:00:41.000Z</time>
      </trkpt>
      <trkpt lat="47.22599" lon="-1.48731">
        <ele>49</ele>
        <time>2021-04-22T12:00:43.000Z</time>
      </trkpt>
      <trkpt lat="47.22595" lon="-1.4875">
        <ele>50</ele>
        <time>2021-04-22T12:00:45.000Z</time>
      </trkpt>
      <trkpt lat="47.22589" lon="-1.4877">
        <ele>50</ele>
        <time>2021-04-22T12:00:47.000Z</time>
      </trkpt>
      <trkpt lat="47.22583" lon="-1.48789">
        <ele>50</ele>
        <time>2021-04-22T12:00:49.000Z</time>
      </trkpt>
      <trkpt lat="47.22577" lon="-1.48807">
        <ele>50</ele>
        <time>2021-04-22T12:00:51.000Z</time>
      </trkpt>
      <trkpt lat="47.22571" lon="-1.48825">
        <ele>50</ele>
        <time>2021-04-22T12:00:53.000Z</time>
      </trkpt>
      <trkpt lat="47.22566" lon="-1.48843">
        <ele>51</ele>
        <time>2021-04-22T12:00:55.000Z</time>
      </trkpt>
      <trkpt lat="47.22562" lon="-1.48859">
        <ele>51</ele>
        <time>2021-04-22T12:00:57.000Z</time>
      </trkpt>
      <trkpt lat="47.22558" lon="-1.48876">
        <ele>51</ele>
        <time>2021-04-22T12:00:59.000Z</time>
      </trkpt>
      <trkpt lat="47.22553" lon="-1.48894">
        <ele>51</ele>
        <time>2021-04-22T12:01:01.000Z</time>
      </trkpt>
      <trkpt lat="47.22548" lon="-1.48911">
        <ele>50</ele>
        <time>2021-04-22T12:01:03.000Z</time>
      </trkpt>
      <trkpt lat="47.22542" lon="-1.48932">
        <ele>49</ele>
        <time>2021-04-22T12:01:05.000Z</time>
      </trkpt>
      <trkpt lat="47.22534" lon="-1.48952">
        <ele>49</ele>
        <time>2021-04-22T12:01:07.000Z</time>
      </trkpt>
      <trkpt lat="47.22527" lon="-1.48969">
        <ele>49</ele>
        <time>2021-04-22T12:01:09.000Z</time>
      </trkpt>
      <trkpt lat="47.2252" lon="-1.48989">
        <ele>48</ele>
        <time>2021-04-22T12:01:11.000Z</time>
      </trkpt>
      <trkpt lat="47.22516" lon="-1.49009">
        <ele>48</ele>
        <time>2021-04-22T12:01:13.000Z</time>
      </trkpt>
      <trkpt lat="47.22512" lon="-1.49028">
        <ele>48</ele>
        <time>2021-04-22T12:01:15.000Z</time>
      </trkpt>
      <trkpt lat="47.22506" lon="-1.49046">
        <ele>49</ele>
        <time>2021-04-22T12:01:17.000Z</time>
      </trkpt>
      <trkpt lat="47.22501" lon="-1.49064">
        <ele>49</ele>
        <time>2021-04-22T12:01:19.000Z</time>
      </trkpt>
      <trkpt lat="47.22495" lon="-1.49083">
        <ele>49</ele>
        <time>2021-04-22T12:01:21.000Z</time>
      </trkpt>
      <trkpt lat="47.22489" lon="-1.49101">
        <ele>50</ele>
        <time>2021-04-22T12:01:23.000Z</time>
      </trkpt>
      <trkpt lat="47.22484" lon="-1.4912">
        <ele>50</ele>
        <time>2021-04-22T12:01:25.000Z</time>
      </trkpt>
      <trkpt lat="47.22477" lon="-1.49139">
        <ele>50</ele>
        <time>2021-04-22T12:01:27.000Z</time>
      </trkpt>
      <trkpt lat="47.22471" lon="-1.49158">
        <ele>49</ele>
        <time>2021-04-22T12:01:29.000Z</time>
      </trkpt>
      <trkpt lat="47.22463" lon="-1.49177">
        <ele>48</ele>
        <time>2021-04-22T12:01:31.000Z</time>
      </trkpt>
      <trkpt lat="47.22455" lon="-1.49197">
        <ele>48</ele>
        <time>2021-04-22T12:01:33.000Z</time>
      </trkpt>
      <trkpt lat="47.22448" lon="-1.49217">
        <ele>47</ele>
        <time>2021-04-22T12:01:35.000Z</time>
      </trkpt>
      <trkpt lat="47.22441" lon="-1.49236">
        <ele>47</ele>
        <time>2021-04-22T12:01:37.000Z</time>
      </trkpt>
      <trkpt lat="47.22435" lon="-1.49253">
        <ele>47</ele>
        <time>2021-04-22T12:01:39.000Z</time>
      </trkpt>
      <trkpt lat="47.22428" lon="-1.4927">
        <ele>46</ele>
        <time>2021-04-22T12:01:41.000Z</time>
      </trkpt>
      <trkpt lat="47.2242" lon="-1.49289">
        <ele>46</ele>
        <time>2021-04-22T12:01:43.000Z</time>
      </trkpt>
      <trkpt lat="47.22414" lon="-1.49307">
        <ele>46</ele>
        <time>2021-04-22T12:01:45.000Z</time>
      </trkpt>
      <trkpt lat="47.22407" lon="-1.49326">
        <ele>45</ele>
        <time>2021-04-22T12:01:47.000Z</time>
      </trkpt>
      <trkpt lat="47.224" lon="-1.49342">
        <ele>46</ele>
        <time>2021-04-22T12:01:49.000Z</time>
      </trkpt>
      <trkpt lat="47.22393" lon="-1.4936">
        <ele>46</ele>
        <time>2021-04-22T12:01:51.000Z</time>
      </trkpt>
      <trkpt lat="47.22386" lon="-1.49376">
        <ele>46</ele>
        <time>2021-04-22T12:01:53.000Z</time>
      </trkpt>
      <trkpt lat="47.22379" lon="-1.49393">
        <ele>46</ele>
        <time>2021-04-22T12:01:55.000Z</time>
      </trkpt>
      <trkpt lat="47.22373" lon="-1.4941">
        <ele>46</ele>
        <time>2021-04-22T12:01:57.000Z</time>
      </trkpt>
      <trkpt lat="47.22366" lon="-1.49426">
        <ele>46</ele>
        <time>2021-04-22T12:01:59.000Z</time>
      </trkpt>
      <trkpt lat="47.22359" lon="-1.49442">
        <ele>46</ele>
        <time>2021-04-22T12:02:01.000Z</time>
      </trkpt>
      <trkpt lat="47.22355" lon="-1.49459">
        <ele>46</ele>
        <time>2021-04-22T12:02:03.000Z</time>
      </trkpt>
      <trkpt lat="47.22349" lon="-1.49478">
        <ele>46</ele>
        <time>2021-04-22T12:02:05.000Z</time>
      </trkpt>
      <trkpt lat="47.22343" lon="-1.49497">
        <ele>46</ele>
        <time>2021-04-22T12:02:07.000Z</time>
      </trkpt>
      <trkpt lat="47.22337" lon="-1.49516">
        <ele>46</ele>
        <time>2021-04-22T12:02:09.000Z</time>
      </trkpt>
      <trkpt lat="47.2233" lon="-1.49535">
        <ele>46</ele>
        <time>2021-04-22T12:02:11.000Z</time>
      </trkpt>
      <trkpt lat="47.22323" lon="-1.49552">
        <ele>48</ele>
        <time>2021-04-22T12:02:13.000Z</time>
      </trkpt>
      <trkpt lat="47.22316" lon="-1.4957">
        <ele>47</ele>
        <time>2021-04-22T12:02:15.000Z</time>
      </trkpt>
      <trkpt lat="47.22309" lon="-1.49589">
        <ele>48</ele>
        <time>2021-04-22T12:02:17.000Z</time>
      </trkpt>
      <trkpt lat="47.22302" lon="-1.49608">
        <ele>48</ele>
        <time>2021-04-22T12:02:19.000Z</time>
      </trkpt>
      <trkpt lat="47.22297" lon="-1.49627">
        <ele>48</ele>
        <time>2021-04-22T12:02:21.000Z</time>
      </trkpt>
      <trkpt lat="47.22293" lon="-1.49647">
        <ele>47</ele>
        <time>2021-04-22T12:02:23.000Z</time>
      </trkpt>
      <trkpt lat="47.22288" lon="-1.49666">
        <ele>47</ele>
        <time>2021-04-22T12:02:25.000Z</time>
      </trkpt>
      <trkpt lat="47.22282" lon="-1.49686">
        <ele>46</ele>
        <time>2021-04-22T12:02:27.000Z</time>
      </trkpt>
      <trkpt lat="47.22274" lon="-1.49706">
        <ele>46</ele>
        <time>2021-04-22T12:02:29.000Z</time>
      </trkpt>
      <trkpt lat="47.22267" lon="-1.49726">
        <ele>46</ele>
        <time>2021-04-22T12:02:31.000Z</time>
      </trkpt>
      <trkpt lat="47.22261" lon="-1.49746">
        <ele>46</ele>
        <time>2021-04-22T12:02:33.000Z</time>
      </trkpt>
      <trkpt lat="47.22257" lon="-1.49768">
        <ele>47</ele>
        <time>2021-04-22T12:02:35.000Z</time>
      </trkpt>
      <trkpt lat="47.22255" lon="-1.49788">
        <ele>47</ele>
        <time>2021-04-22T12:02:37.000Z</time>
      </trkpt>
      <trkpt lat="47.22252" lon="-1.49808">
        <ele>47</ele>
        <time>2021-04-22T12:02:39.000Z</time>
      </trkpt>
      <trkpt lat="47.22248" lon="-1.49827">
        <ele>48</ele>
        <time>2021-04-22T12:02:41.000Z</time>
      </trkpt>
      <trkpt lat="47.22244" lon="-1.49846">
        <ele>47</ele>
        <time>2021-04-22T12:02:43.000Z</time>
      </trkpt>
      <trkpt lat="47.2224" lon="-1.49865">
        <ele>47</ele>
        <time>2021-04-22T12:02:45.000Z</time>
      </trkpt>
      <trkpt lat="47.22235" lon="-1.49884">
        <ele>47</ele>
        <time>2021-04-22T12:02:47.000Z</time>
      </trkpt>
      <trkpt lat="47.2223" lon="-1.49902">
        <ele>46</ele>
        <time>2021-04-22T12:02:49.000Z</time>
      </trkpt>
      <trkpt lat="47.22224" lon="-1.4992">
        <ele>46</ele>
        <time>2021-04-22T12:02:51.000Z</time>
      </trkpt>
      <trkpt lat="47.22222" lon="-1.49939">
        <ele>45</ele>
        <time>2021-04-22T12:02:53.000Z</time>
      </trkpt>
      <trkpt lat="47.22219" lon="-1.49961">
        <ele>44</ele>
        <time>2021-04-22T12:02:55.000Z</time>
      </trkpt>
      <trkpt lat="47.22214" lon="-1.49981">
        <ele>44</ele>
        <time>2021-04-22T12:02:57.000Z</time>
      </trkpt>
      <trkpt lat="47.22208" lon="-1.50002">
        <ele>43</ele>
        <time>2021-04-22T12:02:59.000Z</time>
      </trkpt>
      <trkpt lat="47.22205" lon="-1.50015">
        <ele>43</ele>
        <time>2021-04-22T12:03:00.000Z</time>
      </trkpt>
      <trkpt lat="47.22199" lon="-1.50039">
        <ele>42</ele>
        <time>2021-04-22T12:03:02.000Z</time>
      </trkpt>
      <trkpt lat="47.22193" lon="-1.50061">
        <ele>41</ele>
        <time>2021-04-22T12:03:04.000Z</time>
      </trkpt>
      <trkpt lat="47.22188" lon="-1.50083">
        <ele>42</ele>
        <time>2021-04-22T12:03:06.000Z</time>
      </trkpt>
      <trkpt lat="47.22182" lon="-1.50104">
        <ele>41</ele>
        <time>2021-04-22T12:03:08.000Z</time>
      </trkpt>
      <trkpt lat="47.22174" lon="-1.50124">
        <ele>41</ele>
        <time>2021-04-22T12:03:10.000Z</time>
      </trkpt>
      <trkpt lat="47.22166" lon="-1.50145">
        <ele>42</ele>
        <time>2021-04-22T12:03:12.000Z</time>
      </trkpt>
      <trkpt lat="47.2216" lon="-1.50167">
        <ele>43</ele>
        <time>2021-04-22T12:03:14.000Z</time>
      </trkpt>
      <trkpt lat="47.22154" lon="-1.50189">
        <ele>43</ele>
        <time>2021-04-22T12:03:16.000Z</time>
      </trkpt>
      <trkpt lat="47.22151" lon="-1.5021">
        <ele>43</ele>
        <time>2021-04-22T12:03:18.000Z</time>
      </trkpt>
      <trkpt lat="47.22145" lon="-1.5023">
        <ele>43</ele>
        <time>2021-04-22T12:03:20.000Z</time>
      </trkpt>
      <trkpt lat="47.2214" lon="-1.50249">
        <ele>42</ele>
        <time>2021-04-22T12:03:22.000Z</time>
      </trkpt>
      <trkpt lat="47.22133" lon="-1.50267">
        <ele>42</ele>
        <time>2021-04-22T12:03:24.000Z</time>
      </trkpt>
      <trkpt lat="47.22125" lon="-1.50285">
        <ele>43</ele>
        <time>2021-04-22T12:03:26.000Z</time>
      </trkpt>
      <trkpt lat="47.22115" lon="-1.50301">
        <ele>43</ele>
        <time>2021-04-22T12:03:28.000Z</time>
      </trkpt>
      <trkpt lat="47.22107" lon="-1.50318">
        <ele>43</ele>
        <time>2021-04-22T12:03:30.000Z</time>
      </trkpt>
      <trkpt lat="47.22099" lon="-1.50334">
        <ele>42</ele>
        <time>2021-04-22T12:03:32.000Z</time>
      </trkpt>
      <trkpt lat="47.22093" lon="-1.50353">
        <ele>43</ele>
        <time>2021-04-22T12:03:34.000Z</time>
      </trkpt>
      <trkpt lat="47.22089" lon="-1.50373">
        <ele>43</ele>
        <time>2021-04-22T12:03:36.000Z</time>
      </trkpt>
      <trkpt lat="47.22085" lon="-1.50393">
        <ele>43</ele>
        <time>2021-04-22T12:03:38.000Z</time>
      </trkpt>
      <trkpt lat="47.22079" lon="-1.5041">
        <ele>44</ele>
        <time>2021-04-22T12:03:40.000Z</time>
      </trkpt>
      <trkpt lat="47.22075" lon="-1.5043">
        <ele>43</ele>
        <time>2021-04-22T12:03:42.000Z</time>
      </trkpt>
      <trkpt lat="47.22071" lon="-1.50451">
        <ele>43</ele>
        <time>2021-04-22T12:03:44.000Z</time>
      </trkpt>
      <trkpt lat="47.22068" lon="-1.50472">
        <ele>43</ele>
        <time>2021-04-22T12:03:46.000Z</time>
      </trkpt>
      <trkpt lat="47.22067" lon="-1.50492">
        <ele>42</ele>
        <time>2021-04-22T12:03:48.000Z</time>
      </trkpt>
      <trkpt lat="47.22066" lon="-1.50512">
        <ele>42</ele>
        <time>2021-04-22T12:03:50.000Z</time>
      </trkpt>
      <trkpt lat="47.22066" lon="-1.50531">
        <ele>41</ele>
        <time>2021-04-22T12:03:52.000Z</time>
      </trkpt>
      <trkpt lat="47.22064" lon="-1.50553">
        <ele>41</ele>
        <time>2021-04-22T12:03:54.000Z</time>
      </trkpt>
      <trkpt lat="47.22064" lon="-1.50574">
        <ele>41</ele>
        <time>2021-04-22T12:03:56.000Z</time>
      </trkpt>
      <trkpt lat="47.22063" lon="-1.50593">
        <ele>40</ele>
        <time>2021-04-22T12:03:58.000Z</time>
      </trkpt>
      <trkpt lat="47.22062" lon="-1.50612">
        <ele>40</ele>
        <time>2021-04-22T12:04:00.000Z</time>
      </trkpt>
      <trkpt lat="47.22061" lon="-1.50631">
        <ele>40</ele>
        <time>2021-04-22T12:04:02.000Z</time>
      </trkpt>
      <trkpt lat="47.22057" lon="-1.50652">
        <ele>43</ele>
        <time>2021-04-22T12:04:04.000Z</time>
      </trkpt>
      <trkpt lat="47.22056" lon="-1.50671">
        <ele>43</ele>
        <time>2021-04-22T12:04:06.000Z</time>
      </trkpt>
      <trkpt lat="47.22055" lon="-1.50689">
        <ele>43</ele>
        <time>2021-04-22T12:04:08.000Z</time>
      </trkpt>
      <trkpt lat="47.22054" lon="-1.50708">
        <ele>44</ele>
        <time>2021-04-22T12:04:10.000Z</time>
      </trkpt>
      <trkpt lat="47.22052" lon="-1.50728">
        <ele>44</ele>
        <time>2021-04-22T12:04:12.000Z</time>
      </trkpt>
      <trkpt lat="47.2205" lon="-1.50747">
        <ele>44</ele>
        <time>2021-04-22T12:04:14.000Z</time>
      </trkpt>
      <trkpt lat="47.22048" lon="-1.50765">
        <ele>43</ele>
        <time>2021-04-22T12:04:16.000Z</time>
      </trkpt>
      <trkpt lat="47.22044" lon="-1.50783">
        <ele>42</ele>
        <time>2021-04-22T12:04:18.000Z</time>
      </trkpt>
      <trkpt lat="47.22037" lon="-1.50801">
        <ele>42</ele>
        <time>2021-04-22T12:04:20.000Z</time>
      </trkpt>
      <trkpt lat="47.22031" lon="-1.5082">
        <ele>43</ele>
        <time>2021-04-22T12:04:22.000Z</time>
      </trkpt>
      <trkpt lat="47.22024" lon="-1.50839">
        <ele>43</ele>
        <time>2021-04-22T12:04:24.000Z</time>
      </trkpt>
      <trkpt lat="47.22015" lon="-1.50859">
        <ele>43</ele>
        <time>2021-04-22T12:04:26.000Z</time>
      </trkpt>
      <trkpt lat="47.22007" lon="-1.50881">
        <ele>43</ele>
        <time>2021-04-22T12:04:28.000Z</time>
      </trkpt>
      <trkpt lat="47.22001" lon="-1.50903">
        <ele>43</ele>
        <time>2021-04-22T12:04:30.000Z</time>
      </trkpt>
      <trkpt lat="47.21995" lon="-1.50922">
        <ele>42</ele>
        <time>2021-04-22T12:04:32.000Z</time>
      </trkpt>
      <trkpt lat="47.21988" lon="-1.50941">
        <ele>42</ele>
        <time>2021-04-22T12:04:34.000Z</time>
      </trkpt>
      <trkpt lat="47.21982" lon="-1.5096">
        <ele>43</ele>
        <time>2021-04-22T12:04:36.000Z</time>
      </trkpt>
      <trkpt lat="47.21977" lon="-1.50979">
        <ele>43</ele>
        <time>2021-04-22T12:04:38.000Z</time>
      </trkpt>
      <trkpt lat="47.21971" lon="-1.50997">
        <ele>43</ele>
        <time>2021-04-22T12:04:40.000Z</time>
      </trkpt>
      <trkpt lat="47.21965" lon="-1.51015">
        <ele>44</ele>
        <time>2021-04-22T12:04:42.000Z</time>
      </trkpt>
      <trkpt lat="47.21959" lon="-1.51033">
        <ele>45</ele>
        <time>2021-04-22T12:04:44.000Z</time>
      </trkpt>
      <trkpt lat="47.21954" lon="-1.5105">
        <ele>46</ele>
        <time>2021-04-22T12:04:46.000Z</time>
      </trkpt>
      <trkpt lat="47.21947" lon="-1.51061">
        <ele>47</ele>
        <time>2021-04-22T12:04:48.000Z</time>
      </trkpt>
      <trkpt lat="47.21937" lon="-1.51073">
        <ele>46</ele>
        <time>2021-04-22T12:04:50.000Z</time>
      </trkpt>
      <trkpt lat="47.21929" lon="-1.51092">
        <ele>47</ele>
        <time>2021-04-22T12:04:52.000Z</time>
      </trkpt>
      <trkpt lat="47.21923" lon="-1.51113">
        <ele>47</ele>
        <time>2021-04-22T12:04:54.000Z</time>
      </trkpt>
      <trkpt lat="47.21917" lon="-1.51132">
        <ele>48</ele>
        <time>2021-04-22T12:04:56.000Z</time>
      </trkpt>
      <trkpt lat="47.21911" lon="-1.51151">
        <ele>49</ele>
        <time>2021-04-22T12:04:58.000Z</time>
      </trkpt>
      <trkpt lat="47.21905" lon="-1.5117">
        <ele>49</ele>
        <time>2021-04-22T12:05:00.000Z</time>
      </trkpt>
      <trkpt lat="47.21899" lon="-1.51189">
        <ele>50</ele>
        <time>2021-04-22T12:05:02.000Z</time>
      </trkpt>
      <trkpt lat="47.21893" lon="-1.51208">
        <ele>50</ele>
        <time>2021-04-22T12:05:04.000Z</time>
      </trkpt>
      <trkpt lat="47.21887" lon="-1.51227">
        <ele>50</ele>
        <time>2021-04-22T12:05:06.000Z</time>
      </trkpt>
      <trkpt lat="47.21881" lon="-1.51246">
        <ele>50</ele>
        <time>2021-04-22T12:05:08.000Z</time>
      </trkpt>
      <trkpt lat="47.21875" lon="-1.51265">
        <ele>50</ele>
        <time>2021-04-22T12:05:10.000Z</time>
      </trkpt>
      <trkpt lat="47.21869" lon="-1.51284">
        <ele>50</ele>
        <time>2021-04-22T12:05:12.000Z</time>
      </trkpt>
      <trkpt lat="47.21864" lon="-1.51303">
        <ele>51</ele>
        <time>2021-04-22T12:05:14.000Z</time>
      </trkpt>
      <trkpt lat="47.21859" lon="-1.51321">
        <ele>51</ele>
        <time>2021-04-22T12:05:16.000Z</time>
      </trkpt>
      <trkpt lat="47.21854" lon="-1.51339">
        <ele>51</ele>
        <time>2021-04-22T12:05:18.000Z</time>
      </trkpt>
      <trkpt lat="47.21847" lon="-1.51358">
        <ele>52</ele>
        <time>2021-04-22T12:05:20.000Z</time>
      </trkpt>
      <trkpt lat="47.21842" lon="-1.51378">
        <ele>52</ele>
        <time>2021-04-22T12:05:22.000Z</time>
      </trkpt>
      <trkpt lat="47.21838" lon="-1.51397">
        <ele>52</ele>
        <time>2021-04-22T12:05:24.000Z</time>
      </trkpt>
      <trkpt lat="47.21834" lon="-1.51416">
        <ele>53</ele>
        <time>2021-04-22T12:05:26.000Z</time>
      </trkpt>
      <trkpt lat="47.21829" lon="-1.51435">
        <ele>52</ele>
        <time>2021-04-22T12:05:28.000Z</time>
      </trkpt>
      <trkpt lat="47.21825" lon="-1.51454">
        <ele>52</ele>
        <time>2021-04-22T12:05:30.000Z</time>
      </trkpt>
      <trkpt lat="47.2182" lon="-1.51473">
        <ele>51</ele>
        <time>2021-04-22T12:05:32.000Z</time>
      </trkpt>
      <trkpt lat="47.21815" lon="-1.51492">
        <ele>51</ele>
        <time>2021-04-22T12:05:34.000Z</time>
      </trkpt>
      <trkpt lat="47.21809" lon="-1.51508">
        <ele>51</ele>
        <time>2021-04-22T12:05:36.000Z</time>
      </trkpt>
      <trkpt lat="47.21802" lon="-1.51523">
        <ele>51</ele>
        <time>2021-04-22T12:05:38.000Z</time>
      </trkpt>
      <trkpt lat="47.21797" lon="-1.51536">
        <ele>51</ele>
        <time>2021-04-22T12:05:40.000Z</time>
      </trkpt>
      <trkpt lat="47.2179" lon="-1.51549">
        <ele>51</ele>
        <time>2021-04-22T12:05:42.000Z</time>
      </trkpt>
      <trkpt lat="47.21784" lon="-1.51564">
        <ele>51</ele>
        <time>2021-04-22T12:05:44.000Z</time>
      </trkpt>
      <trkpt lat="47.21775" lon="-1.51581">
        <ele>50</ele>
        <time>2021-04-22T12:05:46.000Z</time>
      </trkpt>
      <trkpt lat="47.21765" lon="-1.51597">
        <ele>50</ele>
        <time>2021-04-22T12:05:48.000Z</time>
      </trkpt>
      <trkpt lat="47.21755" lon="-1.51613">
        <ele>51</ele>
        <time>2021-04-22T12:05:50.000Z</time>
      </trkpt>
      <trkpt lat="47.21746" lon="-1.51629">
        <ele>51</ele>
        <time>2021-04-22T12:05:52.000Z</time>
      </trkpt>
      <trkpt lat="47.21738" lon="-1.51647">
        <ele>51</ele>
        <time>2021-04-22T12:05:54.000Z</time>
      </trkpt>
      <trkpt lat="47.2173" lon="-1.51665">
        <ele>50</ele>
        <time>2021-04-22T12:05:56.000Z</time>
      </trkpt>
      <trkpt lat="47.21722" lon="-1.51683">
        <ele>50</ele>
        <time>2021-04-22T12:05:58.000Z</time>
      </trkpt>
      <trkpt lat="47.21714" lon="-1.517">
        <ele>50</ele>
        <time>2021-04-22T12:06:00.000Z</time>
      </trkpt>
      <trkpt lat="47.21706" lon="-1.51718">
        <ele>50</ele>
        <time>2021-04-22T12:06:02.000Z</time>
      </trkpt>
      <trkpt lat="47.21698" lon="-1.51736">
        <ele>50</ele>
        <time>2021-04-22T12:06:04.000Z</time>
      </trkpt>
      <trkpt lat="47.21691" lon="-1.51755">
        <ele>50</ele>
        <time>2021-04-22T12:06:06.000Z</time>
      </trkpt>
      <trkpt lat="47.21683" lon="-1.51773">
        <ele>50</ele>
        <time>2021-04-22T12:06:08.000Z</time>
      </trkpt>
      <trkpt lat="47.21675" lon="-1.5179">
        <ele>50</ele>
        <time>2021-04-22T12:06:10.000Z</time>
      </trkpt>
      <trkpt lat="47.21668" lon="-1.51807">
        <ele>49</ele>
        <time>2021-04-22T12:06:12.000Z</time>
      </trkpt>
      <trkpt lat="47.2166" lon="-1.51824">
        <ele>49</ele>
        <time>2021-04-22T12:06:14.000Z</time>
      </trkpt>
      <trkpt lat="47.21654" lon="-1.51842">
        <ele>50</ele>
        <time>2021-04-22T12:06:16.000Z</time>
      </trkpt>
      <trkpt lat="47.21649" lon="-1.5186">
        <ele>50</ele>
        <time>2021-04-22T12:06:18.000Z</time>
      </trkpt>
      <trkpt lat="47.21646" lon="-1.51879">
        <ele>51</ele>
        <time>2021-04-22T12:06:20.000Z</time>
      </trkpt>
      <trkpt lat="47.21639" lon="-1.51895">
        <ele>50</ele>
        <time>2021-04-22T12:06:22.000Z</time>
      </trkpt>
      <trkpt lat="47.21631" lon="-1.51912">
        <ele>50</ele>
        <time>2021-04-22T12:06:24.000Z</time>
      </trkpt>
      <trkpt lat="47.21627" lon="-1.51929">
        <ele>50</ele>
        <time>2021-04-22T12:06:26.000Z</time>
      </trkpt>
      <trkpt lat="47.21623" lon="-1.51948">
        <ele>49</ele>
        <time>2021-04-22T12:06:28.000Z</time>
      </trkpt>
      <trkpt lat="47.21619" lon="-1.51967">
        <ele>49</ele>
        <time>2021-04-22T12:06:30.000Z</time>
      </trkpt>
      <trkpt lat="47.21611" lon="-1.5198">
        <ele>50</ele>
        <time>2021-04-22T12:06:32.000Z</time>
      </trkpt>
      <trkpt lat="47.21606" lon="-1.51996">
        <ele>50</ele>
        <time>2021-04-22T12:06:34.000Z</time>
      </trkpt>
      <trkpt lat="47.21601" lon="-1.52013">
        <ele>50</ele>
        <time>2021-04-22T12:06:36.000Z</time>
      </trkpt>
      <trkpt lat="47.21596" lon="-1.52033">
        <ele>50</ele>
        <time>2021-04-22T12:06:38.000Z</time>
      </trkpt>
      <trkpt lat="47.21589" lon="-1.52052">
        <ele>49</ele>
        <time>2021-04-22T12:06:40.000Z</time>
      </trkpt>
      <trkpt lat="47.21583" lon="-1.5207">
        <ele>49</ele>
        <time>2021-04-22T12:06:42.000Z</time>
      </trkpt>
      <trkpt lat="47.21577" lon="-1.52089">
        <ele>49</ele>
        <time>2021-04-22T12:06:44.000Z</time>
      </trkpt>
      <trkpt lat="47.21571" lon="-1.52107">
        <ele>49</ele>
        <time>2021-04-22T12:06:46.000Z</time>
      </trkpt>
      <trkpt lat="47.21565" lon="-1.52125">
        <ele>49</ele>
        <time>2021-04-22T12:06:48.000Z</time>
      </trkpt>
      <trkpt lat="47.21559" lon="-1.52144">
        <ele>49</ele>
        <time>2021-04-22T12:06:50.000Z</time>
      </trkpt>
      <trkpt lat="47.21553" lon="-1.52163">
        <ele>49</ele>
        <time>2021-04-22T12:06:52.000Z</time>
      </trkpt>
      <trkpt lat="47.21546" lon="-1.52181">
        <ele>49</ele>
        <time>2021-04-22T12:06:54.000Z</time>
      </trkpt>
      <trkpt lat="47.21539" lon="-1.52199">
        <ele>49</ele>
        <time>2021-04-22T12:06:56.000Z</time>
      </trkpt>
      <trkpt lat="47.21533" lon="-1.52219">
        <ele>49</ele>
        <time>2021-04-22T12:06:58.000Z</time>
      </trkpt>
      <trkpt lat="47.21528" lon="-1.5224">
        <ele>49</ele>
        <time>2021-04-22T12:07:00.000Z</time>
      </trkpt>
      <trkpt lat="47.21522" lon="-1.5226">
        <ele>49</ele>
        <time>2021-04-22T12:07:02.000Z</time>
      </trkpt>
      <trkpt lat="47.21515" lon="-1.5228">
        <ele>49</ele>
        <time>2021-04-22T12:07:04.000Z</time>
      </trkpt>
      <trkpt lat="47.21508" lon="-1.523">
        <ele>49</ele>
        <time>2021-04-22T12:07:06.000Z</time>
      </trkpt>
      <trkpt lat="47.21501" lon="-1.5232">
        <ele>48</ele>
        <time>2021-04-22T12:07:08.000Z</time>
      </trkpt>
      <trkpt lat="47.21495" lon="-1.5234">
        <ele>49</ele>
        <time>2021-04-22T12:07:10.000Z</time>
      </trkpt>
      <trkpt lat="47.21489" lon="-1.52361">
        <ele>49</ele>
        <time>2021-04-22T12:07:12.000Z</time>
      </trkpt>
      <trkpt lat="47.21482" lon="-1.52381">
        <ele>49</ele>
        <time>2021-04-22T12:07:14.000Z</time>
      </trkpt>
      <trkpt lat="47.21476" lon="-1.52402">
        <ele>49</ele>
        <time>2021-04-22T12:07:16.000Z</time>
      </trkpt>
      <trkpt lat="47.21469" lon="-1.52423">
        <ele>49</ele>
        <time>2021-04-22T12:07:18.000Z</time>
      </trkpt>
      <trkpt lat="47.21463" lon="-1.52443">
        <ele>49</ele>
        <time>2021-04-22T12:07:20.000Z</time>
      </trkpt>
      <trkpt lat="47.21456" lon="-1.52463">
        <ele>48</ele>
        <time>2021-04-22T12:07:22.000Z</time>
      </trkpt>
      <trkpt lat="47.2145" lon="-1.52483">
        <ele>49</ele>
        <time>2021-04-22T12:07:24.000Z</time>
      </trkpt>
      <trkpt lat="47.21443" lon="-1.52504">
        <ele>49</ele>
        <time>2021-04-22T12:07:26.000Z</time>
      </trkpt>
      <trkpt lat="47.21436" lon="-1.52525">
        <ele>49</ele>
        <time>2021-04-22T12:07:28.000Z</time>
      </trkpt>
      <trkpt lat="47.2143" lon="-1.52546">
        <ele>49</ele>
        <time>2021-04-22T12:07:30.000Z</time>
      </trkpt>
      <trkpt lat="47.21424" lon="-1.52565">
        <ele>49</ele>
        <time>2021-04-22T12:07:32.000Z</time>
      </trkpt>
      <trkpt lat="47.21417" lon="-1.52585">
        <ele>49</ele>
        <time>2021-04-22T12:07:34.000Z</time>
      </trkpt>
      <trkpt lat="47.2141" lon="-1.52605">
        <ele>50</ele>
        <time>2021-04-22T12:07:36.000Z</time>
      </trkpt>
      <trkpt lat="47.21404" lon="-1.52625">
        <ele>50</ele>
        <time>2021-04-22T12:07:38.000Z</time>
      </trkpt>
      <trkpt lat="47.21398" lon="-1.52646">
        <ele>50</ele>
        <time>2021-04-22T12:07:40.000Z</time>
      </trkpt>
      <trkpt lat="47.21394" lon="-1.52668">
        <ele>51</ele>
        <time>2021-04-22T12:07:42.000Z</time>
      </trkpt>
      <trkpt lat="47.21388" lon="-1.52689">
        <ele>51</ele>
        <time>2021-04-22T12:07:44.000Z</time>
      </trkpt>
      <trkpt lat="47.21382" lon="-1.52711">
        <ele>50</ele>
        <time>2021-04-22T12:07:46.000Z</time>
      </trkpt>
      <trkpt lat="47.21377" lon="-1.52731">
        <ele>50</ele>
        <time>2021-04-22T12:07:48.000Z</time>
      </trkpt>
      <trkpt lat="47.21373" lon="-1.52754">
        <ele>50</ele>
        <time>2021-04-22T12:07:50.000Z</time>
      </trkpt>
      <trkpt lat="47.2137" lon="-1.52776">
        <ele>49</ele>
        <time>2021-04-22T12:07:52.000Z</time>
      </trkpt>
      <trkpt lat="47.21368" lon="-1.52798">
        <ele>50</ele>
        <time>2021-04-22T12:07:54.000Z</time>
      </trkpt>
      <trkpt lat="47.21365" lon="-1.52817">
        <ele>50</ele>
        <time>2021-04-22T12:07:56.000Z</time>
      </trkpt>
      <trkpt lat="47.21361" lon="-1.52836">
        <ele>50</ele>
        <time>2021-04-22T12:07:58.000Z</time>
      </trkpt>
      <trkpt lat="47.21356" lon="-1.52856">
        <ele>49</ele>
        <time>2021-04-22T12:08:00.000Z</time>
      </trkpt>
      <trkpt lat="47.21352" lon="-1.52877">
        <ele>48</ele>
        <time>2021-04-22T12:08:02.000Z</time>
      </trkpt>
      <trkpt lat="47.21348" lon="-1.52898">
        <ele>48</ele>
        <time>2021-04-22T12:08:04.000Z</time>
      </trkpt>
      <trkpt lat="47.21344" lon="-1.52919">
        <ele>47</ele>
        <time>2021-04-22T12:08:06.000Z</time>
      </trkpt>
      <trkpt lat="47.21341" lon="-1.5294">
        <ele>47</ele>
        <time>2021-04-22T12:08:08.000Z</time>
      </trkpt>
      <trkpt lat="47.21338" lon="-1.52962">
        <ele>47</ele>
        <time>2021-04-22T12:08:10.000Z</time>
      </trkpt>
      <trkpt lat="47.21336" lon="-1.52984">
        <ele>47</ele>
        <time>2021-04-22T12:08:12.000Z</time>
      </trkpt>
      <trkpt lat="47.21335" lon="-1.53005">
        <ele>47</ele>
        <time>2021-04-22T12:08:14.000Z</time>
      </trkpt>
      <trkpt lat="47.21334" lon="-1.53026">
        <ele>47</ele>
        <time>2021-04-22T12:08:16.000Z</time>
      </trkpt>
      <trkpt lat="47.21332" lon="-1.53048">
        <ele>47</ele>
        <time>2021-04-22T12:08:18.000Z</time>
      </trkpt>
      <trkpt lat="47.2133" lon="-1.5307">
        <ele>47</ele>
        <time>2021-04-22T12:08:20.000Z</time>
      </trkpt>
      <trkpt lat="47.21329" lon="-1.5309">
        <ele>48</ele>
        <time>2021-04-22T12:08:22.000Z</time>
      </trkpt>
      <trkpt lat="47.21327" lon="-1.5311">
        <ele>49</ele>
        <time>2021-04-22T12:08:24.000Z</time>
      </trkpt>
      <trkpt lat="47.21324" lon="-1.53131">
        <ele>49</ele>
        <time>2021-04-22T12:08:26.000Z</time>
      </trkpt>
      <trkpt lat="47.2132" lon="-1.53152">
        <ele>49</ele>
        <time>2021-04-22T12:08:28.000Z</time>
      </trkpt>
      <trkpt lat="47.21317" lon="-1.53174">
        <ele>49</ele>
        <time>2021-04-22T12:08:30.000Z</time>
      </trkpt>
      <trkpt lat="47.21315" lon="-1.53196">
        <ele>49</ele>
        <time>2021-04-22T12:08:32.000Z</time>
      </trkpt>
      <trkpt lat="47.21313" lon="-1.53218">
        <ele>49</ele>
        <time>2021-04-22T12:08:34.000Z</time>
      </trkpt>
      <trkpt lat="47.21313" lon="-1.5324">
        <ele>50</ele>
        <time>2021-04-22T12:08:36.000Z</time>
      </trkpt>
      <trkpt lat="47.21313" lon="-1.53261">
        <ele>50</ele>
        <time>2021-04-22T12:08:38.000Z</time>
      </trkpt>
      <trkpt lat="47.21313" lon="-1.53283">
        <ele>51</ele>
        <time>2021-04-22T12:08:40.000Z</time>
      </trkpt>
      <trkpt lat="47.2131" lon="-1.53305">
        <ele>52</ele>
        <time>2021-04-22T12:08:42.000Z</time>
      </trkpt>
      <trkpt lat="47.21308" lon="-1.53326">
        <ele>51</ele>
        <time>2021-04-22T12:08:44.000Z</time>
      </trkpt>
      <trkpt lat="47.21305" lon="-1.53346">
        <ele>51</ele>
        <time>2021-04-22T12:08:46.000Z</time>
      </trkpt>
      <trkpt lat="47.21301" lon="-1.53367">
        <ele>50</ele>
        <time>2021-04-22T12:08:48.000Z</time>
      </trkpt>
      <trkpt lat="47.21297" lon="-1.53387">
        <ele>50</ele>
        <time>2021-04-22T12:08:50.000Z</time>
      </trkpt>
      <trkpt lat="47.21295" lon="-1.53408">
        <ele>50</ele>
        <time>2021-04-22T12:08:52.000Z</time>
      </trkpt>
      <trkpt lat="47.21293" lon="-1.53429">
        <ele>49</ele>
        <time>2021-04-22T12:08:54.000Z</time>
      </trkpt>
      <trkpt lat="47.21292" lon="-1.5345">
        <ele>49</ele>
        <time>2021-04-22T12:08:56.000Z</time>
      </trkpt>
      <trkpt lat="47.21297" lon="-1.5347">
        <ele>49</ele>
        <time>2021-04-22T12:08:58.000Z</time>
      </trkpt>
      <trkpt lat="47.21302" lon="-1.53489">
        <ele>49</ele>
        <time>2021-04-22T12:09:00.000Z</time>
      </trkpt>
      <trkpt lat="47.21302" lon="-1.5351">
        <ele>49</ele>
        <time>2021-04-22T12:09:02.000Z</time>
      </trkpt>
      <trkpt lat="47.21303" lon="-1.5353">
        <ele>49</ele>
        <time>2021-04-22T12:09:04.000Z</time>
      </trkpt>
      <trkpt lat="47.21303" lon="-1.53549">
        <ele>49</ele>
        <time>2021-04-22T12:09:06.000Z</time>
      </trkpt>
      <trkpt lat="47.21304" lon="-1.53569">
        <ele>49</ele>
        <time>2021-04-22T12:09:08.000Z</time>
      </trkpt>
      <trkpt lat="47.21304" lon="-1.53589">
        <ele>49</ele>
        <time>2021-04-22T12:09:10.000Z</time>
      </trkpt>
      <trkpt lat="47.21305" lon="-1.53608">
        <ele>49</ele>
        <time>2021-04-22T12:09:12.000Z</time>
      </trkpt>
      <trkpt lat="47.21304" lon="-1.53625">
        <ele>49</ele>
        <time>2021-04-22T12:09:14.000Z</time>
      </trkpt>
      <trkpt lat="47.21296" lon="-1.53633">
        <ele>50</ele>
        <time>2021-04-22T12:09:16.000Z</time>
      </trkpt>
      <trkpt lat="47.21296" lon="-1.53651">
        <ele>51</ele>
        <time>2021-04-22T12:09:22.000Z</time>
      </trkpt>
      <trkpt lat="47.21296" lon="-1.5367">
        <ele>52</ele>
        <time>2021-04-22T12:09:25.000Z</time>
      </trkpt>
      <trkpt lat="47.213" lon="-1.53685">
        <ele>52</ele>
        <time>2021-04-22T12:09:27.000Z</time>
      </trkpt>
      <trkpt lat="47.21305" lon="-1.53704">
        <ele>52</ele>
        <time>2021-04-22T12:09:29.000Z</time>
      </trkpt>
      <trkpt lat="47.2131" lon="-1.53724">
        <ele>52</ele>
        <time>2021-04-22T12:09:31.000Z</time>
      </trkpt>
      <trkpt lat="47.21315" lon="-1.53745">
        <ele>53</ele>
        <time>2021-04-22T12:09:33.000Z</time>
      </trkpt>
      <trkpt lat="47.21319" lon="-1.53766">
        <ele>53</ele>
        <time>2021-04-22T12:09:35.000Z</time>
      </trkpt>
      <trkpt lat="47.21322" lon="-1.53787">
        <ele>53</ele>
        <time>2021-04-22T12:09:37.000Z</time>
      </trkpt>
      <trkpt lat="47.21325" lon="-1.53806">
        <ele>53</ele>
        <time>2021-04-22T12:09:39.000Z</time>
      </trkpt>
      <trkpt lat="47.21328" lon="-1.53826">
        <ele>52</ele>
        <time>2021-04-22T12:09:41.000Z</time>
      </trkpt>
      <trkpt lat="47.21331" lon="-1.53844">
        <ele>52</ele>
        <time>2021-04-22T12:09:43.000Z</time>
      </trkpt>
      <trkpt lat="47.21335" lon="-1.53863">
        <ele>52</ele>
        <time>2021-04-22T12:09:45.000Z</time>
      </trkpt>
      <trkpt lat="47.21338" lon="-1.53881">
        <ele>53</ele>
        <time>2021-04-22T12:09:47.000Z</time>
      </trkpt>
      <trkpt lat="47.21342" lon="-1.53899">
        <ele>53</ele>
        <time>2021-04-22T12:09:49.000Z</time>
      </trkpt>
      <trkpt lat="47.21348" lon="-1.53913">
        <ele>54</ele>
        <time>2021-04-22T12:09:51.000Z</time>
      </trkpt>
      <trkpt lat="47.21358" lon="-1.53926">
        <ele>54</ele>
        <time>2021-04-22T12:09:53.000Z</time>
      </trkpt>
      <trkpt lat="47.2137" lon="-1.53934">
        <ele>54</ele>
        <time>2021-04-22T12:09:55.000Z</time>
      </trkpt>
      <trkpt lat="47.21382" lon="-1.5394">
        <ele>53</ele>
        <time>2021-04-22T12:09:57.000Z</time>
      </trkpt>
      <trkpt lat="47.2139" lon="-1.53953">
        <ele>53</ele>
        <time>2021-04-22T12:09:59.000Z</time>
      </trkpt>
      <trkpt lat="47.2139" lon="-1.53972">
        <ele>53</ele>
        <time>2021-04-22T12:10:01.000Z</time>
      </trkpt>
      <trkpt lat="47.21386" lon="-1.53991">
        <ele>53</ele>
        <time>2021-04-22T12:10:03.000Z</time>
      </trkpt>
      <trkpt lat="47.2139" lon="-1.54009">
        <ele>52</ele>
        <time>2021-04-22T12:10:05.000Z</time>
      </trkpt>
      <trkpt lat="47.21401" lon="-1.54022">
        <ele>51</ele>
        <time>2021-04-22T12:10:07.000Z</time>
      </trkpt>
      <trkpt lat="47.2141" lon="-1.54037">
        <ele>51</ele>
        <time>2021-04-22T12:10:09.000Z</time>
      </trkpt>
      <trkpt lat="47.21421" lon="-1.54051">
        <ele>51</ele>
        <time>2021-04-22T12:10:11.000Z</time>
      </trkpt>
      <trkpt lat="47.2143" lon="-1.54066">
        <ele>50</ele>
        <time>2021-04-22T12:10:13.000Z</time>
      </trkpt>
      <trkpt lat="47.2144" lon="-1.54081">
        <ele>49</ele>
        <time>2021-04-22T12:10:15.000Z</time>
      </trkpt>
      <trkpt lat="47.2145" lon="-1.54096">
        <ele>49</ele>
        <time>2021-04-22T12:10:17.000Z</time>
      </trkpt>
      <trkpt lat="47.2146" lon="-1.54111">
        <ele>48</ele>
        <time>2021-04-22T12:10:19.000Z</time>
      </trkpt>
      <trkpt lat="47.2147" lon="-1.54126">
        <ele>48</ele>
        <time>2021-04-22T12:10:21.000Z</time>
      </trkpt>
      <trkpt lat="47.21479" lon="-1.54141">
        <ele>48</ele>
        <time>2021-04-22T12:10:23.000Z</time>
      </trkpt>
      <trkpt lat="47.21489" lon="-1.54155">
        <ele>48</ele>
        <time>2021-04-22T12:10:25.000Z</time>
      </trkpt>
      <trkpt lat="47.215" lon="-1.54169">
        <ele>47</ele>
        <time>2021-04-22T12:10:27.000Z</time>
      </trkpt>
      <trkpt lat="47.21509" lon="-1.54184">
        <ele>48</ele>
        <time>2021-04-22T12:10:29.000Z</time>
      </trkpt>
      <trkpt lat="47.21518" lon="-1.542">
        <ele>48</ele>
        <time>2021-04-22T12:10:31.000Z</time>
      </trkpt>
      <trkpt lat="47.21527" lon="-1.54214">
        <ele>48</ele>
        <time>2021-04-22T12:10:33.000Z</time>
      </trkpt>
      <trkpt lat="47.21535" lon="-1.54229">
        <ele>48</ele>
        <time>2021-04-22T12:10:35.000Z</time>
      </trkpt>
      <trkpt lat="47.21543" lon="-1.54239">
        <ele>47</ele>
        <time>2021-04-22T12:10:37.000Z</time>
      </trkpt>
      <trkpt lat="47.21553" lon="-1.54248">
        <ele>48</ele>
        <time>2021-04-22T12:10:40.000Z</time>
      </trkpt>
      <trkpt lat="47.21564" lon="-1.54248">
        <ele>48</ele>
        <time>2021-04-22T12:10:43.000Z</time>
      </trkpt>
      <trkpt lat="47.21573" lon="-1.54257">
        <ele>49</ele>
        <time>2021-04-22T12:10:45.000Z</time>
      </trkpt>
      <trkpt lat="47.21577" lon="-1.54272">
        <ele>50</ele>
        <time>2021-04-22T12:10:47.000Z</time>
      </trkpt>
      <trkpt lat="47.21578" lon="-1.54288">
        <ele>48</ele>
        <time>2021-04-22T12:10:49.000Z</time>
      </trkpt>
      <trkpt lat="47.21584" lon="-1.54306">
        <ele>49</ele>
        <time>2021-04-22T12:10:51.000Z</time>
      </trkpt>
      <trkpt lat="47.21591" lon="-1.54323">
        <ele>49</ele>
        <time>2021-04-22T12:10:53.000Z</time>
      </trkpt>
      <trkpt lat="47.21601" lon="-1.54339">
        <ele>49</ele>
        <time>2021-04-22T12:10:55.000Z</time>
      </trkpt>
      <trkpt lat="47.21609" lon="-1.54359">
        <ele>50</ele>
        <time>2021-04-22T12:10:57.000Z</time>
      </trkpt>
      <trkpt lat="47.21615" lon="-1.54378">
        <ele>51</ele>
        <time>2021-04-22T12:10:59.000Z</time>
      </trkpt>
      <trkpt lat="47.2162" lon="-1.54397">
        <ele>52</ele>
        <time>2021-04-22T12:11:01.000Z</time>
      </trkpt>
      <trkpt lat="47.21618" lon="-1.54414">
        <ele>53</ele>
        <time>2021-04-22T12:11:03.000Z</time>
      </trkpt>
      <trkpt lat="47.21614" lon="-1.54433">
        <ele>53</ele>
        <time>2021-04-22T12:11:05.000Z</time>
      </trkpt>
      <trkpt lat="47.21613" lon="-1.54454">
        <ele>54</ele>
        <time>2021-04-22T12:11:07.000Z</time>
      </trkpt>
      <trkpt lat="47.21609" lon="-1.54474">
        <ele>54</ele>
        <time>2021-04-22T12:11:09.000Z</time>
      </trkpt>
      <trkpt lat="47.21606" lon="-1.54495">
        <ele>54</ele>
        <time>2021-04-22T12:11:11.000Z</time>
      </trkpt>
      <trkpt lat="47.21601" lon="-1.54514">
        <ele>54</ele>
        <time>2021-04-22T12:11:13.000Z</time>
      </trkpt>
      <trkpt lat="47.21595" lon="-1.54532">
        <ele>54</ele>
        <time>2021-04-22T12:11:15.000Z</time>
      </trkpt>
      <trkpt lat="47.2159" lon="-1.54549">
        <ele>54</ele>
        <time>2021-04-22T12:11:17.000Z</time>
      </trkpt>
      <trkpt lat="47.21584" lon="-1.54566">
        <ele>54</ele>
        <time>2021-04-22T12:11:19.000Z</time>
      </trkpt>
      <trkpt lat="47.21577" lon="-1.54584">
        <ele>54</ele>
        <time>2021-04-22T12:11:21.000Z</time>
      </trkpt>
      <trkpt lat="47.2157" lon="-1.54603">
        <ele>53</ele>
        <time>2021-04-22T12:11:23.000Z</time>
      </trkpt>
      <trkpt lat="47.21563" lon="-1.54624">
        <ele>53</ele>
        <time>2021-04-22T12:11:25.000Z</time>
      </trkpt>
      <trkpt lat="47.21556" lon="-1.54643">
        <ele>54</ele>
        <time>2021-04-22T12:11:27.000Z</time>
      </trkpt>
      <trkpt lat="47.21548" lon="-1.54659">
        <ele>54</ele>
        <time>2021-04-22T12:11:29.000Z</time>
      </trkpt>
      <trkpt lat="47.21542" lon="-1.54674">
        <ele>54</ele>
        <time>2021-04-22T12:11:31.000Z</time>
      </trkpt>
      <trkpt lat="47.21538" lon="-1.54695">
        <ele>54</ele>
        <time>2021-04-22T12:11:33.000Z</time>
      </trkpt>
      <trkpt lat="47.21532" lon="-1.54715">
        <ele>54</ele>
        <time>2021-04-22T12:11:35.000Z</time>
      </trkpt>
      <trkpt lat="47.21524" lon="-1.54735">
        <ele>55</ele>
        <time>2021-04-22T12:11:37.000Z</time>
      </trkpt>
      <trkpt lat="47.21516" lon="-1.54754">
        <ele>55</ele>
        <time>2021-04-22T12:11:39.000Z</time>
      </trkpt>
      <trkpt lat="47.21509" lon="-1.54774">
        <ele>55</ele>
        <time>2021-04-22T12:11:41.000Z</time>
      </trkpt>
      <trkpt lat="47.21501" lon="-1.54792">
        <ele>54</ele>
        <time>2021-04-22T12:11:43.000Z</time>
      </trkpt>
      <trkpt lat="47.21492" lon="-1.54809">
        <ele>54</ele>
        <time>2021-04-22T12:11:45.000Z</time>
      </trkpt>
      <trkpt lat="47.21484" lon="-1.54827">
        <ele>54</ele>
        <time>2021-04-22T12:11:47.000Z</time>
      </trkpt>
      <trkpt lat="47.21476" lon="-1.54844">
        <ele>54</ele>
        <time>2021-04-22T12:11:49.000Z</time>
      </trkpt>
      <trkpt lat="47.21467" lon="-1.54861">
        <ele>54</ele>
        <time>2021-04-22T12:11:51.000Z</time>
      </trkpt>
      <trkpt lat="47.21459" lon="-1.54878">
        <ele>54</ele>
        <time>2021-04-22T12:11:53.000Z</time>
      </trkpt>
      <trkpt lat="47.21451" lon="-1.54895">
        <ele>55</ele>
        <time>2021-04-22T12:11:55.000Z</time>
      </trkpt>
      <trkpt lat="47.21443" lon="-1.54913">
        <ele>55</ele>
        <time>2021-04-22T12:11:57.000Z</time>
      </trkpt>
      <trkpt lat="47.21434" lon="-1.5493">
        <ele>54</ele>
        <time>2021-04-22T12:11:59.000Z</time>
      </trkpt>
      <trkpt lat="47.21426" lon="-1.54947">
        <ele>53</ele>
        <time>2021-04-22T12:12:01.000Z</time>
      </trkpt>
      <trkpt lat="47.21417" lon="-1.54966">
        <ele>54</ele>
        <time>2021-04-22T12:12:03.000Z</time>
      </trkpt>
      <trkpt lat="47.21409" lon="-1.54984">
        <ele>55</ele>
        <time>2021-04-22T12:12:05.000Z</time>
      </trkpt>
      <trkpt lat="47.21402" lon="-1.55003">
        <ele>55</ele>
        <time>2021-04-22T12:12:07.000Z</time>
      </trkpt>
      <trkpt lat="47.21395" lon="-1.55019">
        <ele>55</ele>
        <time>2021-04-22T12:12:09.000Z</time>
      </trkpt>
      <trkpt lat="47.21388" lon="-1.55036">
        <ele>55</ele>
        <time>2021-04-22T12:12:11.000Z</time>
      </trkpt>
      <trkpt lat="47.21381" lon="-1.55053">
        <ele>54</ele>
        <time>2021-04-22T12:12:13.000Z</time>
      </trkpt>
      <trkpt lat="47.21373" lon="-1.55071">
        <ele>53</ele>
        <time>2021-04-22T12:12:15.000Z</time>
      </trkpt>
      <trkpt lat="47.21366" lon="-1.55088">
        <ele>52</ele>
        <time>2021-04-22T12:12:17.000Z</time>
      </trkpt>
      <trkpt lat="47.2136" lon="-1.55107">
        <ele>52</ele>
        <time>2021-04-22T12:12:19.000Z</time>
      </trkpt>
      <trkpt lat="47.21353" lon="-1.55124">
        <ele>51</ele>
        <time>2021-04-22T12:12:21.000Z</time>
      </trkpt>
      <trkpt lat="47.21345" lon="-1.55142">
        <ele>51</ele>
        <time>2021-04-22T12:12:23.000Z</time>
      </trkpt>
      <trkpt lat="47.21338" lon="-1.5516">
        <ele>50</ele>
        <time>2021-04-22T12:12:25.000Z</time>
      </trkpt>
      <trkpt lat="47.21331" lon="-1.55179">
        <ele>50</ele>
        <time>2021-04-22T12:12:27.000Z</time>
      </trkpt>
      <trkpt lat="47.21324" lon="-1.55196">
        <ele>49</ele>
        <time>2021-04-22T12:12:29.000Z</time>
      </trkpt>
      <trkpt lat="47.21317" lon="-1.55214">
        <ele>49</ele>
        <time>2021-04-22T12:12:31.000Z</time>
      </trkpt>
      <trkpt lat="47.2131" lon="-1.55231">
        <ele>50</ele>
        <time>2021-04-22T12:12:33.000Z</time>
      </trkpt>
      <trkpt lat="47.21303" lon="-1.55248">
        <ele>51</ele>
        <time>2021-04-22T12:12:35.000Z</time>
      </trkpt>
      <trkpt lat="47.21296" lon="-1.55266">
        <ele>52</ele>
        <time>2021-04-22T12:12:37.000Z</time>
      </trkpt>
      <trkpt lat="47.21289" lon="-1.55283">
        <ele>52</ele>
        <time>2021-04-22T12:12:39.000Z</time>
      </trkpt>
      <trkpt lat="47.21281" lon="-1.55295">
        <ele>53</ele>
        <time>2021-04-22T12:12:41.000Z</time>
      </trkpt>
      <trkpt lat="47.21267" lon="-1.55297">
        <ele>53</ele>
        <time>2021-04-22T12:12:43.000Z</time>
      </trkpt>
      <trkpt lat="47.21259" lon="-1.55309">
        <ele>53</ele>
        <time>2021-04-22T12:12:45.000Z</time>
      </trkpt>
      <trkpt lat="47.21261" lon="-1.55326">
        <ele>53</ele>
        <time>2021-04-22T12:12:47.000Z</time>
      </trkpt>
      <trkpt lat="47.21268" lon="-1.55341">
        <ele>53</ele>
        <time>2021-04-22T12:12:49.000Z</time>
      </trkpt>
      <trkpt lat="47.21275" lon="-1.55351">
        <ele>53</ele>
        <time>2021-04-22T12:12:51.000Z</time>
      </trkpt>
      <trkpt lat="47.21283" lon="-1.55362">
        <ele>54</ele>
        <time>2021-04-22T12:12:53.000Z</time>
      </trkpt>
      <trkpt lat="47.21286" lon="-1.55379">
        <ele>53</ele>
        <time>2021-04-22T12:12:55.000Z</time>
      </trkpt>
      <trkpt lat="47.2128" lon="-1.55392">
        <ele>54</ele>
        <time>2021-04-22T12:12:57.000Z</time>
      </trkpt>
      <trkpt lat="47.21272" lon="-1.55402">
        <ele>53</ele>
        <time>2021-04-22T12:13:01.000Z</time>
      </trkpt>
      <trkpt lat="47.21267" lon="-1.55414">
        <ele>53</ele>
        <time>2021-04-22T12:13:04.000Z</time>
      </trkpt>
      <trkpt lat="47.21258" lon="-1.55425">
        <ele>53</ele>
        <time>2021-04-22T12:13:06.000Z</time>
      </trkpt>
      <trkpt lat="47.21248" lon="-1.55442">
        <ele>53</ele>
        <time>2021-04-22T12:13:08.000Z</time>
      </trkpt>
      <trkpt lat="47.21235" lon="-1.55459">
        <ele>52</ele>
        <time>2021-04-22T12:13:10.000Z</time>
      </trkpt>
      <trkpt lat="47.21225" lon="-1.5548">
        <ele>52</ele>
        <time>2021-04-22T12:13:12.000Z</time>
      </trkpt>
      <trkpt lat="47.21221" lon="-1.55492">
        <ele>52</ele>
        <time>2021-04-22T12:13:13.000Z</time>
      </trkpt>
      <trkpt lat="47.21217" lon="-1.55505">
        <ele>52</ele>
        <time>2021-04-22T12:13:14.000Z</time>
      </trkpt>
      <trkpt lat="47.21214" lon="-1.55518">
        <ele>52</ele>
        <time>2021-04-22T12:13:15.000Z</time>
      </trkpt>
      <trkpt lat="47.21211" lon="-1.55531">
        <ele>52</ele>
        <time>2021-04-22T12:13:16.000Z</time>
      </trkpt>
      <trkpt lat="47.21207" lon="-1.55544">
        <ele>52</ele>
        <time>2021-04-22T12:13:17.000Z</time>
      </trkpt>
      <trkpt lat="47.21203" lon="-1.55556">
        <ele>52</ele>
        <time>2021-04-22T12:13:18.000Z</time>
      </trkpt>
      <trkpt lat="47.21199" lon="-1.55568">
        <ele>52</ele>
        <time>2021-04-22T12:13:19.000Z</time>
      </trkpt>
      <trkpt lat="47.21192" lon="-1.55591">
        <ele>52</ele>
        <time>2021-04-22T12:13:21.000Z</time>
      </trkpt>
      <trkpt lat="47.21184" lon="-1.55613">
        <ele>52</ele>
        <time>2021-04-22T12:13:23.000Z</time>
      </trkpt>
      <trkpt lat="47.21176" lon="-1.55635">
        <ele>52</ele>
        <time>2021-04-22T12:13:25.000Z</time>
      </trkpt>
      <trkpt lat="47.21171" lon="-1.55658">
        <ele>52</ele>
        <time>2021-04-22T12:13:27.000Z</time>
      </trkpt>
      <trkpt lat="47.2116" lon="-1.55673">
        <ele>52</ele>
        <time>2021-04-22T12:13:29.000Z</time>
      </trkpt>
      <trkpt lat="47.21145" lon="-1.55668">
        <ele>52</ele>
        <time>2021-04-22T12:13:31.000Z</time>
      </trkpt>
      <trkpt lat="47.2113" lon="-1.55655">
        <ele>54</ele>
        <time>2021-04-22T12:13:33.000Z</time>
      </trkpt>
      <trkpt lat="47.21116" lon="-1.55642">
        <ele>54</ele>
        <time>2021-04-22T12:13:35.000Z</time>
      </trkpt>
      <trkpt lat="47.21101" lon="-1.55629">
        <ele>54</ele>
        <time>2021-04-22T12:13:37.000Z</time>
      </trkpt>
      <trkpt lat="47.21093" lon="-1.55622">
        <ele>55</ele>
        <time>2021-04-22T12:13:38.000Z</time>
      </trkpt>
      <trkpt lat="47.21077" lon="-1.55613">
        <ele>55</ele>
        <time>2021-04-22T12:13:40.000Z</time>
      </trkpt>
      <trkpt lat="47.21068" lon="-1.55607">
        <ele>56</ele>
        <time>2021-04-22T12:13:41.000Z</time>
      </trkpt>
      <trkpt lat="47.2106" lon="-1.55601">
        <ele>56</ele>
        <time>2021-04-22T12:13:42.000Z</time>
      </trkpt>
      <trkpt lat="47.21045" lon="-1.5559">
        <ele>56</ele>
        <time>2021-04-22T12:13:44.000Z</time>
      </trkpt>
      <trkpt lat="47.2103" lon="-1.55585">
        <ele>56</ele>
        <time>2021-04-22T12:13:46.000Z</time>
      </trkpt>
      <trkpt lat="47.21016" lon="-1.55582">
        <ele>55</ele>
        <time>2021-04-22T12:13:48.000Z</time>
      </trkpt>
      <trkpt lat="47.21003" lon="-1.55579">
        <ele>55</ele>
        <time>2021-04-22T12:13:50.000Z</time>
      </trkpt>
      <trkpt lat="47.20991" lon="-1.55576">
        <ele>54</ele>
        <time>2021-04-22T12:13:52.000Z</time>
      </trkpt>
      <trkpt lat="47.20981" lon="-1.55574">
        <ele>53</ele>
        <time>2021-04-22T12:13:54.000Z</time>
      </trkpt>
      <trkpt lat="47.20971" lon="-1.55572">
        <ele>53</ele>
        <time>2021-04-22T12:13:56.000Z</time>
      </trkpt>
      <trkpt lat="47.20961" lon="-1.5557">
        <ele>52</ele>
        <time>2021-04-22T12:13:59.000Z</time>
      </trkpt>
      <trkpt lat="47.20952" lon="-1.55568">
        <ele>52</ele>
        <time>2021-04-22T12:14:05.000Z</time>
      </trkpt>
      <trkpt lat="47.20943" lon="-1.5557">
        <ele>51</ele>
        <time>2021-04-22T12:14:08.000Z</time>
      </trkpt>
      <trkpt lat="47.20933" lon="-1.55566">
        <ele>52</ele>
        <time>2021-04-22T12:14:10.000Z</time>
      </trkpt>
      <trkpt lat="47.20921" lon="-1.55562">
        <ele>52</ele>
        <time>2021-04-22T12:14:12.000Z</time>
      </trkpt>
      <trkpt lat="47.20907" lon="-1.55558">
        <ele>52</ele>
        <time>2021-04-22T12:14:14.000Z</time>
      </trkpt>
      <trkpt lat="47.20892" lon="-1.55554">
        <ele>53</ele>
        <time>2021-04-22T12:14:16.000Z</time>
      </trkpt>
      <trkpt lat="47.20877" lon="-1.5555">
        <ele>54</ele>
        <time>2021-04-22T12:14:18.000Z</time>
      </trkpt>
      <trkpt lat="47.20863" lon="-1.55546">
        <ele>54</ele>
        <time>2021-04-22T12:14:20.000Z</time>
      </trkpt>
      <trkpt lat="47.20848" lon="-1.55542">
        <ele>55</ele>
        <time>2021-04-22T12:14:22.000Z</time>
      </trkpt>
      <trkpt lat="47.20835" lon="-1.55539">
        <ele>55</ele>
        <time>2021-04-22T12:14:24.000Z</time>
      </trkpt>
      <trkpt lat="47.20822" lon="-1.55536">
        <ele>55</ele>
        <time>2021-04-22T12:14:26.000Z</time>
      </trkpt>
      <trkpt lat="47.20809" lon="-1.55533">
        <ele>55</ele>
        <time>2021-04-22T12:14:28.000Z</time>
      </trkpt>
      <trkpt lat="47.20796" lon="-1.5553">
        <ele>55</ele>
        <time>2021-04-22T12:14:30.000Z</time>
      </trkpt>
      <trkpt lat="47.20783" lon="-1.55527">
        <ele>54</ele>
        <time>2021-04-22T12:14:32.000Z</time>
      </trkpt>
      <trkpt lat="47.20768" lon="-1.55525">
        <ele>54</ele>
        <time>2021-04-22T12:14:34.000Z</time>
      </trkpt>
      <trkpt lat="47.20754" lon="-1.55522">
        <ele>53</ele>
        <time>2021-04-22T12:14:36.000Z</time>
      </trkpt>
      <trkpt lat="47.20738" lon="-1.55517">
        <ele>52</ele>
        <time>2021-04-22T12:14:38.000Z</time>
      </trkpt>
      <trkpt lat="47.20723" lon="-1.5551">
        <ele>52</ele>
        <time>2021-04-22T12:14:40.000Z</time>
      </trkpt>
      <trkpt lat="47.20706" lon="-1.55507">
        <ele>53</ele>
        <time>2021-04-22T12:14:42.000Z</time>
      </trkpt>
      <trkpt lat="47.20691" lon="-1.55505">
        <ele>53</ele>
        <time>2021-04-22T12:14:44.000Z</time>
      </trkpt>
      <trkpt lat="47.20676" lon="-1.55503">
        <ele>52</ele>
        <time>2021-04-22T12:14:46.000Z</time>
      </trkpt>
      <trkpt lat="47.20659" lon="-1.55499">
        <ele>51</ele>
        <time>2021-04-22T12:14:48.000Z</time>
      </trkpt>
      <trkpt lat="47.20643" lon="-1.55495">
        <ele>51</ele>
        <time>2021-04-22T12:14:50.000Z</time>
      </trkpt>
      <trkpt lat="47.20626" lon="-1.55492">
        <ele>52</ele>
        <time>2021-04-22T12:14:52.000Z</time>
      </trkpt>
      <trkpt lat="47.2061" lon="-1.55489">
        <ele>52</ele>
        <time>2021-04-22T12:14:54.000Z</time>
      </trkpt>
      <trkpt lat="47.20595" lon="-1.55485">
        <ele>53</ele>
        <time>2021-04-22T12:14:56.000Z</time>
      </trkpt>
      <trkpt lat="47.20581" lon="-1.55482">
        <ele>53</ele>
        <time>2021-04-22T12:14:58.000Z</time>
      </trkpt>
      <trkpt lat="47.20569" lon="-1.55483">
        <ele>53</ele>
        <time>2021-04-22T12:15:00.000Z</time>
      </trkpt>
      <trkpt lat="47.20557" lon="-1.5549">
        <ele>52</ele>
        <time>2021-04-22T12:15:02.000Z</time>
      </trkpt>
      <trkpt lat="47.20545" lon="-1.55502">
        <ele>51</ele>
        <time>2021-04-22T12:15:04.000Z</time>
      </trkpt>
      <trkpt lat="47.20531" lon="-1.55507">
        <ele>50</ele>
        <time>2021-04-22T12:15:06.000Z</time>
      </trkpt>
      <trkpt lat="47.20516" lon="-1.55498">
        <ele>50</ele>
        <time>2021-04-22T12:15:08.000Z</time>
      </trkpt>
      <trkpt lat="47.20506" lon="-1.55482">
        <ele>50</ele>
        <time>2021-04-22T12:15:10.000Z</time>
      </trkpt>
      <trkpt lat="47.20503" lon="-1.55463">
        <ele>51</ele>
        <time>2021-04-22T12:15:12.000Z</time>
      </trkpt>
      <trkpt lat="47.20507" lon="-1.55442">
        <ele>50</ele>
        <time>2021-04-22T12:15:14.000Z</time>
      </trkpt>
      <trkpt lat="47.2051" lon="-1.55421">
        <ele>51</ele>
        <time>2021-04-22T12:15:16.000Z</time>
      </trkpt>
      <trkpt lat="47.20504" lon="-1.55403">
        <ele>52</ele>
        <time>2021-04-22T12:15:18.000Z</time>
      </trkpt>
      <trkpt lat="47.20497" lon="-1.55386">
        <ele>53</ele>
        <time>2021-04-22T12:15:20.000Z</time>
      </trkpt>
      <trkpt lat="47.2049" lon="-1.55375">
        <ele>53</ele>
        <time>2021-04-22T12:15:22.000Z</time>
      </trkpt>
      <trkpt lat="47.20484" lon="-1.55365">
        <ele>53</ele>
        <time>2021-04-22T12:15:25.000Z</time>
      </trkpt>
      <trkpt lat="47.20476" lon="-1.55357">
        <ele>50</ele>
        <time>2021-04-22T12:15:31.000Z</time>
      </trkpt>
      <trkpt lat="47.20468" lon="-1.55342">
        <ele>49</ele>
        <time>2021-04-22T12:15:39.000Z</time>
      </trkpt>
      <trkpt lat="47.2046" lon="-1.55325">
        <ele>50</ele>
        <time>2021-04-22T12:15:41.000Z</time>
      </trkpt>
      <trkpt lat="47.20453" lon="-1.55308">
        <ele>51</ele>
        <time>2021-04-22T12:15:43.000Z</time>
      </trkpt>
      <trkpt lat="47.20446" lon="-1.55292">
        <ele>51</ele>
        <time>2021-04-22T12:15:45.000Z</time>
      </trkpt>
      <trkpt lat="47.20437" lon="-1.55276">
        <ele>50</ele>
        <time>2021-04-22T12:15:47.000Z</time>
      </trkpt>
      <trkpt lat="47.2043" lon="-1.55259">
        <ele>49</ele>
        <time>2021-04-22T12:15:49.000Z</time>
      </trkpt>
      <trkpt lat="47.20422" lon="-1.55244">
        <ele>48</ele>
        <time>2021-04-22T12:15:51.000Z</time>
      </trkpt>
      <trkpt lat="47.20414" lon="-1.55229">
        <ele>48</ele>
        <time>2021-04-22T12:15:53.000Z</time>
      </trkpt>
      <trkpt lat="47.20406" lon="-1.55214">
        <ele>49</ele>
        <time>2021-04-22T12:15:55.000Z</time>
      </trkpt>
      <trkpt lat="47.20397" lon="-1.55198">
        <ele>50</ele>
        <time>2021-04-22T12:15:57.000Z</time>
      </trkpt>
      <trkpt lat="47.20387" lon="-1.55188">
        <ele>50</ele>
        <time>2021-04-22T12:15:59.000Z</time>
      </trkpt>
      <trkpt lat="47.20376" lon="-1.55194">
        <ele>51</ele>
        <time>2021-04-22T12:16:01.000Z</time>
      </trkpt>
      <trkpt lat="47.20366" lon="-1.55207">
        <ele>51</ele>
        <time>2021-04-22T12:16:03.000Z</time>
      </trkpt>
      <trkpt lat="47.20353" lon="-1.55218">
        <ele>52</ele>
        <time>2021-04-22T12:16:05.000Z</time>
      </trkpt>
      <trkpt lat="47.20341" lon="-1.55232">
        <ele>52</ele>
        <time>2021-04-22T12:16:07.000Z</time>
      </trkpt>
      <trkpt lat="47.2033" lon="-1.55246">
        <ele>52</ele>
        <time>2021-04-22T12:16:09.000Z</time>
      </trkpt>
      <trkpt lat="47.20317" lon="-1.55258">
        <ele>53</ele>
        <time>2021-04-22T12:16:11.000Z</time>
      </trkpt>
      <trkpt lat="47.20306" lon="-1.55274">
        <ele>54</ele>
        <time>2021-04-22T12:16:13.000Z</time>
      </trkpt>
      <trkpt lat="47.20295" lon="-1.55287">
        <ele>54</ele>
        <time>2021-04-22T12:16:15.000Z</time>
      </trkpt>
      <trkpt lat="47.20285" lon="-1.55302">
        <ele>55</ele>
        <time>2021-04-22T12:16:17.000Z</time>
      </trkpt>
      <trkpt lat="47.20275" lon="-1.55315">
        <ele>55</ele>
        <time>2021-04-22T12:16:19.000Z</time>
      </trkpt>
      <trkpt lat="47.20264" lon="-1.5533">
        <ele>54</ele>
        <time>2021-04-22T12:16:21.000Z</time>
      </trkpt>
      <trkpt lat="47.20253" lon="-1.55344">
        <ele>55</ele>
        <time>2021-04-22T12:16:23.000Z</time>
      </trkpt>
      <trkpt lat="47.20243" lon="-1.55359">
        <ele>54</ele>
        <time>2021-04-22T12:16:25.000Z</time>
      </trkpt>
      <trkpt lat="47.20232" lon="-1.55372">
        <ele>55</ele>
        <time>2021-04-22T12:16:27.000Z</time>
      </trkpt>
      <trkpt lat="47.20221" lon="-1.55386">
        <ele>55</ele>
        <time>2021-04-22T12:16:29.000Z</time>
      </trkpt>
      <trkpt lat="47.2021" lon="-1.554">
        <ele>54</ele>
        <time>2021-04-22T12:16:31.000Z</time>
      </trkpt>
      <trkpt lat="47.20201" lon="-1.55415">
        <ele>55</ele>
        <time>2021-04-22T12:16:33.000Z</time>
      </trkpt>
      <trkpt lat="47.20191" lon="-1.55429">
        <ele>55</ele>
        <time>2021-04-22T12:16:35.000Z</time>
      </trkpt>
      <trkpt lat="47.20181" lon="-1.55444">
        <ele>54</ele>
        <time>2021-04-22T12:16:37.000Z</time>
      </trkpt>
      <trkpt lat="47.20168" lon="-1.55458">
        <ele>54</ele>
        <time>2021-04-22T12:16:39.000Z</time>
      </trkpt>
      <trkpt lat="47.20156" lon="-1.55469">
        <ele>53</ele>
        <time>2021-04-22T12:16:41.000Z</time>
      </trkpt>
      <trkpt lat="47.20144" lon="-1.55481">
        <ele>53</ele>
        <time>2021-04-22T12:16:43.000Z</time>
      </trkpt>
      <trkpt lat="47.20136" lon="-1.55491">
        <ele>53</ele>
        <time>2021-04-22T12:16:45.000Z</time>
      </trkpt>
      <trkpt lat="47.20129" lon="-1.55501">
        <ele>54</ele>
        <time>2021-04-22T12:16:47.000Z</time>
      </trkpt>
      <trkpt lat="47.2012" lon="-1.55514">
        <ele>54</ele>
        <time>2021-04-22T12:16:49.000Z</time>
      </trkpt>
      <trkpt lat="47.20109" lon="-1.5553">
        <ele>55</ele>
        <time>2021-04-22T12:16:51.000Z</time>
      </trkpt>
      <trkpt lat="47.20095" lon="-1.55548">
        <ele>55</ele>
        <time>2021-04-22T12:16:53.000Z</time>
      </trkpt>
      <trkpt lat="47.20087" lon="-1.55557">
        <ele>54</ele>
        <time>2021-04-22T12:16:54.000Z</time>
      </trkpt>
      <trkpt lat="47.2008" lon="-1.55566">
        <ele>55</ele>
        <time>2021-04-22T12:16:55.000Z</time>
      </trkpt>
      <trkpt lat="47.20073" lon="-1.55575">
        <ele>55</ele>
        <time>2021-04-22T12:16:56.000Z</time>
      </trkpt>
      <trkpt lat="47.20065" lon="-1.55584">
        <ele>56</ele>
        <time>2021-04-22T12:16:57.000Z</time>
      </trkpt>
      <trkpt lat="47.20059" lon="-1.55594">
        <ele>55</ele>
        <time>2021-04-22T12:16:58.000Z</time>
      </trkpt>
      <trkpt lat="47.20052" lon="-1.55603">
        <ele>56</ele>
        <time>2021-04-22T12:16:59.000Z</time>
      </trkpt>
      <trkpt lat="47.20045" lon="-1.55612">
        <ele>56</ele>
        <time>2021-04-22T12:17:00.000Z</time>
      </trkpt>
      <trkpt lat="47.20031" lon="-1.55627">
        <ele>57</ele>
        <time>2021-04-22T12:17:02.000Z</time>
      </trkpt>
      <trkpt lat="47.20014" lon="-1.55637">
        <ele>57</ele>
        <time>2021-04-22T12:17:04.000Z</time>
      </trkpt>
      <trkpt lat="47.20005" lon="-1.55637">
        <ele>57</ele>
        <time>2021-04-22T12:17:05.000Z</time>
      </trkpt>
      <trkpt lat="47.19995" lon="-1.55637">
        <ele>57</ele>
        <time>2021-04-22T12:17:06.000Z</time>
      </trkpt>
      <trkpt lat="47.19979" lon="-1.55648">
        <ele>56</ele>
        <time>2021-04-22T12:17:08.000Z</time>
      </trkpt>
      <trkpt lat="47.1997" lon="-1.55654">
        <ele>56</ele>
        <time>2021-04-22T12:17:09.000Z</time>
      </trkpt>
      <trkpt lat="47.19955" lon="-1.55668">
        <ele>55</ele>
        <time>2021-04-22T12:17:11.000Z</time>
      </trkpt>
      <trkpt lat="47.19943" lon="-1.55685">
        <ele>54</ele>
        <time>2021-04-22T12:17:13.000Z</time>
      </trkpt>
      <trkpt lat="47.19936" lon="-1.55708">
        <ele>55</ele>
        <time>2021-04-22T12:17:15.000Z</time>
      </trkpt>
      <trkpt lat="47.19932" lon="-1.55732">
        <ele>54</ele>
        <time>2021-04-22T12:17:17.000Z</time>
      </trkpt>
      <trkpt lat="47.19932" lon="-1.55756">
        <ele>54</ele>
        <time>2021-04-22T12:17:19.000Z</time>
      </trkpt>
      <trkpt lat="47.19932" lon="-1.55779">
        <ele>54</ele>
        <time>2021-04-22T12:17:21.000Z</time>
      </trkpt>
      <trkpt lat="47.19932" lon="-1.55803">
        <ele>54</ele>
        <time>2021-04-22T12:17:23.000Z</time>
      </trkpt>
      <trkpt lat="47.19932" lon="-1.55826">
        <ele>54</ele>
        <time>2021-04-22T12:17:25.000Z</time>
      </trkpt>
      <trkpt lat="47.19933" lon="-1.55848">
        <ele>53</ele>
        <time>2021-04-22T12:17:27.000Z</time>
      </trkpt>
      <trkpt lat="47.19933" lon="-1.5587">
        <ele>53</ele>
        <time>2021-04-22T12:17:29.000Z</time>
      </trkpt>
      <trkpt lat="47.19933" lon="-1.55892">
        <ele>53</ele>
        <time>2021-04-22T12:17:31.000Z</time>
      </trkpt>
      <trkpt lat="47.19933" lon="-1.55914">
        <ele>54</ele>
        <time>2021-04-22T12:17:33.000Z</time>
      </trkpt>
      <trkpt lat="47.19933" lon="-1.55936">
        <ele>54</ele>
        <time>2021-04-22T12:17:35.000Z</time>
      </trkpt>
      <trkpt lat="47.19933" lon="-1.55958">
        <ele>54</ele>
        <time>2021-04-22T12:17:37.000Z</time>
      </trkpt>
      <trkpt lat="47.19933" lon="-1.5598">
        <ele>53</ele>
        <time>2021-04-22T12:17:39.000Z</time>
      </trkpt>
      <trkpt lat="47.19933" lon="-1.56002">
        <ele>53</ele>
        <time>2021-04-22T12:17:41.000Z</time>
      </trkpt>
      <trkpt lat="47.19933" lon="-1.56022">
        <ele>53</ele>
        <time>2021-04-22T12:17:43.000Z</time>
      </trkpt>
      <trkpt lat="47.19934" lon="-1.56043">
        <ele>53</ele>
        <time>2021-04-22T12:17:45.000Z</time>
      </trkpt>
      <trkpt lat="47.19935" lon="-1.56063">
        <ele>53</ele>
        <time>2021-04-22T12:17:47.000Z</time>
      </trkpt>
      <trkpt lat="47.1994" lon="-1.56081">
        <ele>52</ele>
        <time>2021-04-22T12:17:49.000Z</time>
      </trkpt>
      <trkpt lat="47.19947" lon="-1.56098">
        <ele>52</ele>
        <time>2021-04-22T12:17:51.000Z</time>
      </trkpt>
      <trkpt lat="47.19954" lon="-1.56114">
        <ele>53</ele>
        <time>2021-04-22T12:17:53.000Z</time>
      </trkpt>
      <trkpt lat="47.19957" lon="-1.56128">
        <ele>53</ele>
        <time>2021-04-22T12:17:55.000Z</time>
      </trkpt>
      <trkpt lat="47.19964" lon="-1.5614">
        <ele>53</ele>
        <time>2021-04-22T12:17:58.000Z</time>
      </trkpt>
      <trkpt lat="47.1997" lon="-1.56154">
        <ele>53</ele>
        <time>2021-04-22T12:18:01.000Z</time>
      </trkpt>
      <trkpt lat="47.1996" lon="-1.56168">
        <ele>53</ele>
        <time>2021-04-22T12:18:04.000Z</time>
      </trkpt>
      <trkpt lat="47.19948" lon="-1.56169">
        <ele>54</ele>
        <time>2021-04-22T12:18:06.000Z</time>
      </trkpt>
      <trkpt lat="47.19934" lon="-1.56172">
        <ele>54</ele>
        <time>2021-04-22T12:18:08.000Z</time>
      </trkpt>
      <trkpt lat="47.1992" lon="-1.56175">
        <ele>55</ele>
        <time>2021-04-22T12:18:10.000Z</time>
      </trkpt>
      <trkpt lat="47.19906" lon="-1.56176">
        <ele>55</ele>
        <time>2021-04-22T12:18:12.000Z</time>
      </trkpt>
      <trkpt lat="47.19894" lon="-1.56179">
        <ele>56</ele>
        <time>2021-04-22T12:18:14.000Z</time>
      </trkpt>
      <trkpt lat="47.19882" lon="-1.56181">
        <ele>57</ele>
        <time>2021-04-22T12:18:16.000Z</time>
      </trkpt>
      <trkpt lat="47.19871" lon="-1.56183">
        <ele>58</ele>
        <time>2021-04-22T12:18:18.000Z</time>
      </trkpt>
      <trkpt lat="47.19859" lon="-1.56185">
        <ele>58</ele>
        <time>2021-04-22T12:18:20.000Z</time>
      </trkpt>
      <trkpt lat="47.19848" lon="-1.56187">
        <ele>58</ele>
        <time>2021-04-22T12:18:22.000Z</time>
      </trkpt>
      <trkpt lat="47.19836" lon="-1.56189">
        <ele>58</ele>
        <time>2021-04-22T12:18:24.000Z</time>
      </trkpt>
      <trkpt lat="47.19825" lon="-1.56191">
        <ele>58</ele>
        <time>2021-04-22T12:18:26.000Z</time>
      </trkpt>
      <trkpt lat="47.19813" lon="-1.56193">
        <ele>58</ele>
        <time>2021-04-22T12:18:28.000Z</time>
      </trkpt>
      <trkpt lat="47.19801" lon="-1.56196">
        <ele>59</ele>
        <time>2021-04-22T12:18:30.000Z</time>
      </trkpt>
      <trkpt lat="47.19788" lon="-1.56199">
        <ele>58</ele>
        <time>2021-04-22T12:18:32.000Z</time>
      </trkpt>
      <trkpt lat="47.19775" lon="-1.56201">
        <ele>58</ele>
        <time>2021-04-22T12:18:34.000Z</time>
      </trkpt>
      <trkpt lat="47.19762" lon="-1.56204">
        <ele>57</ele>
        <time>2021-04-22T12:18:36.000Z</time>
      </trkpt>
      <trkpt lat="47.19748" lon="-1.56206">
        <ele>57</ele>
        <time>2021-04-22T12:18:38.000Z</time>
      </trkpt>
      <trkpt lat="47.19734" lon="-1.56208">
        <ele>56</ele>
        <time>2021-04-22T12:18:40.000Z</time>
      </trkpt>
      <trkpt lat="47.19717" lon="-1.56211">
        <ele>55</ele>
        <time>2021-04-22T12:18:42.000Z</time>
      </trkpt>
      <trkpt lat="47.197" lon="-1.56215">
        <ele>55</ele>
        <time>2021-04-22T12:18:44.000Z</time>
      </trkpt>
      <trkpt lat="47.19691" lon="-1.56216">
        <ele>54</ele>
        <time>2021-04-22T12:18:45.000Z</time>
      </trkpt>
      <trkpt lat="47.19682" lon="-1.56218">
        <ele>53</ele>
        <time>2021-04-22T12:18:46.000Z</time>
      </trkpt>
      <trkpt lat="47.19673" lon="-1.56221">
        <ele>53</ele>
        <time>2021-04-22T12:18:47.000Z</time>
      </trkpt>
      <trkpt lat="47.19663" lon="-1.56224">
        <ele>52</ele>
        <time>2021-04-22T12:18:48.000Z</time>
      </trkpt>
      <trkpt lat="47.19654" lon="-1.56227">
        <ele>52</ele>
        <time>2021-04-22T12:18:49.000Z</time>
      </trkpt>
      <trkpt lat="47.19645" lon="-1.56231">
        <ele>51</ele>
        <time>2021-04-22T12:18:50.000Z</time>
      </trkpt>
      <trkpt lat="47.19639" lon="-1.5624">
        <ele>51</ele>
        <time>2021-04-22T12:18:51.000Z</time>
      </trkpt>
      <trkpt lat="47.19635" lon="-1.56265">
        <ele>51</ele>
        <time>2021-04-22T12:18:53.000Z</time>
      </trkpt>
      <trkpt lat="47.19635" lon="-1.56289">
        <ele>52</ele>
        <time>2021-04-22T12:18:55.000Z</time>
      </trkpt>
      <trkpt lat="47.19634" lon="-1.56313">
        <ele>52</ele>
        <time>2021-04-22T12:18:57.000Z</time>
      </trkpt>
      <trkpt lat="47.19632" lon="-1.56336">
        <ele>52</ele>
        <time>2021-04-22T12:18:59.000Z</time>
      </trkpt>
      <trkpt lat="47.19632" lon="-1.56359">
        <ele>52</ele>
        <time>2021-04-22T12:19:01.000Z</time>
      </trkpt>
      <trkpt lat="47.19632" lon="-1.56381">
        <ele>52</ele>
        <time>2021-04-22T12:19:03.000Z</time>
      </trkpt>
      <trkpt lat="47.19632" lon="-1.56404">
        <ele>51</ele>
        <time>2021-04-22T12:19:05.000Z</time>
      </trkpt>
      <trkpt lat="47.19633" lon="-1.56426">
        <ele>52</ele>
        <time>2021-04-22T12:19:07.000Z</time>
      </trkpt>
      <trkpt lat="47.19634" lon="-1.56448">
        <ele>52</ele>
        <time>2021-04-22T12:19:09.000Z</time>
      </trkpt>
      <trkpt lat="47.19635" lon="-1.5647">
        <ele>52</ele>
        <time>2021-04-22T12:19:11.000Z</time>
      </trkpt>
      <trkpt lat="47.19636" lon="-1.56491">
        <ele>52</ele>
        <time>2021-04-22T12:19:13.000Z</time>
      </trkpt>
      <trkpt lat="47.19636" lon="-1.56514">
        <ele>52</ele>
        <time>2021-04-22T12:19:15.000Z</time>
      </trkpt>
      <trkpt lat="47.19635" lon="-1.56536">
        <ele>53</ele>
        <time>2021-04-22T12:19:17.000Z</time>
      </trkpt>
      <trkpt lat="47.19635" lon="-1.56558">
        <ele>53</ele>
        <time>2021-04-22T12:19:19.000Z</time>
      </trkpt>
      <trkpt lat="47.19634" lon="-1.5658">
        <ele>52</ele>
        <time>2021-04-22T12:19:21.000Z</time>
      </trkpt>
      <trkpt lat="47.19634" lon="-1.56603">
        <ele>52</ele>
        <time>2021-04-22T12:19:23.000Z</time>
      </trkpt>
      <trkpt lat="47.19633" lon="-1.56626">
        <ele>53</ele>
        <time>2021-04-22T12:19:25.000Z</time>
      </trkpt>
      <trkpt lat="47.19631" lon="-1.56648">
        <ele>53</ele>
        <time>2021-04-22T12:19:27.000Z</time>
      </trkpt>
      <trkpt lat="47.1963" lon="-1.5667">
        <ele>52</ele>
        <time>2021-04-22T12:19:29.000Z</time>
      </trkpt>
      <trkpt lat="47.19629" lon="-1.56692">
        <ele>53</ele>
        <time>2021-04-22T12:19:31.000Z</time>
      </trkpt>
      <trkpt lat="47.19628" lon="-1.56713">
        <ele>51</ele>
        <time>2021-04-22T12:19:33.000Z</time>
      </trkpt>
      <trkpt lat="47.19626" lon="-1.56735">
        <ele>50</ele>
        <time>2021-04-22T12:19:35.000Z</time>
      </trkpt>
      <trkpt lat="47.19624" lon="-1.56756">
        <ele>49</ele>
        <time>2021-04-22T12:19:37.000Z</time>
      </trkpt>
      <trkpt lat="47.19623" lon="-1.56779">
        <ele>50</ele>
        <time>2021-04-22T12:19:39.000Z</time>
      </trkpt>
      <trkpt lat="47.19622" lon="-1.56801">
        <ele>49</ele>
        <time>2021-04-22T12:19:41.000Z</time>
      </trkpt>
      <trkpt lat="47.1962" lon="-1.56824">
        <ele>49</ele>
        <time>2021-04-22T12:19:43.000Z</time>
      </trkpt>
      <trkpt lat="47.19619" lon="-1.56846">
        <ele>49</ele>
        <time>2021-04-22T12:19:45.000Z</time>
      </trkpt>
      <trkpt lat="47.19618" lon="-1.56868">
        <ele>50</ele>
        <time>2021-04-22T12:19:47.000Z</time>
      </trkpt>
      <trkpt lat="47.19616" lon="-1.56889">
        <ele>50</ele>
        <time>2021-04-22T12:19:49.000Z</time>
      </trkpt>
      <trkpt lat="47.19615" lon="-1.5691">
        <ele>50</ele>
        <time>2021-04-22T12:19:51.000Z</time>
      </trkpt>
      <trkpt lat="47.19614" lon="-1.56931">
        <ele>50</ele>
        <time>2021-04-22T12:19:53.000Z</time>
      </trkpt>
      <trkpt lat="47.19613" lon="-1.56953">
        <ele>50</ele>
        <time>2021-04-22T12:19:55.000Z</time>
      </trkpt>
      <trkpt lat="47.19611" lon="-1.56975">
        <ele>49</ele>
        <time>2021-04-22T12:19:57.000Z</time>
      </trkpt>
      <trkpt lat="47.19609" lon="-1.56996">
        <ele>48</ele>
        <time>2021-04-22T12:19:59.000Z</time>
      </trkpt>
      <trkpt lat="47.19608" lon="-1.57017">
        <ele>48</ele>
        <time>2021-04-22T12:20:01.000Z</time>
      </trkpt>
      <trkpt lat="47.19606" lon="-1.57038">
        <ele>48</ele>
        <time>2021-04-22T12:20:03.000Z</time>
      </trkpt>
      <trkpt lat="47.19605" lon="-1.57058">
        <ele>48</ele>
        <time>2021-04-22T12:20:05.000Z</time>
      </trkpt>
      <trkpt lat="47.19604" lon="-1.57078">
        <ele>49</ele>
        <time>2021-04-22T12:20:07.000Z</time>
      </trkpt>
      <trkpt lat="47.19603" lon="-1.57097">
        <ele>49</ele>
        <time>2021-04-22T12:20:09.000Z</time>
      </trkpt>
      <trkpt lat="47.19602" lon="-1.57115">
        <ele>48</ele>
        <time>2021-04-22T12:20:11.000Z</time>
      </trkpt>
      <trkpt lat="47.19593" lon="-1.57128">
        <ele>48</ele>
        <time>2021-04-22T12:20:13.000Z</time>
      </trkpt>
      <trkpt lat="47.19579" lon="-1.57126">
        <ele>48</ele>
        <time>2021-04-22T12:20:15.000Z</time>
      </trkpt>
      <trkpt lat="47.19566" lon="-1.57123">
        <ele>48</ele>
        <time>2021-04-22T12:20:17.000Z</time>
      </trkpt>
      <trkpt lat="47.19552" lon="-1.57122">
        <ele>49</ele>
        <time>2021-04-22T12:20:19.000Z</time>
      </trkpt>
      <trkpt lat="47.19539" lon="-1.5712">
        <ele>50</ele>
        <time>2021-04-22T12:20:21.000Z</time>
      </trkpt>
      <trkpt lat="47.19526" lon="-1.57117">
        <ele>51</ele>
        <time>2021-04-22T12:20:23.000Z</time>
      </trkpt>
      <trkpt lat="47.19513" lon="-1.57113">
        <ele>52</ele>
        <time>2021-04-22T12:20:25.000Z</time>
      </trkpt>
      <trkpt lat="47.19501" lon="-1.57109">
        <ele>52</ele>
        <time>2021-04-22T12:20:27.000Z</time>
      </trkpt>
      <trkpt lat="47.1949" lon="-1.57105">
        <ele>52</ele>
        <time>2021-04-22T12:20:29.000Z</time>
      </trkpt>
      <trkpt lat="47.19479" lon="-1.57105">
        <ele>52</ele>
        <time>2021-04-22T12:20:31.000Z</time>
      </trkpt>
      <trkpt lat="47.19469" lon="-1.57108">
        <ele>52</ele>
        <time>2021-04-22T12:20:39.000Z</time>
      </trkpt>
      <trkpt lat="47.19455" lon="-1.57108">
        <ele>52</ele>
        <time>2021-04-22T12:20:42.000Z</time>
      </trkpt>
      <trkpt lat="47.19443" lon="-1.571">
        <ele>52</ele>
        <time>2021-04-22T12:20:44.000Z</time>
      </trkpt>
      <trkpt lat="47.1943" lon="-1.57093">
        <ele>51</ele>
        <time>2021-04-22T12:20:46.000Z</time>
      </trkpt>
      <trkpt lat="47.19417" lon="-1.5709">
        <ele>52</ele>
        <time>2021-04-22T12:20:48.000Z</time>
      </trkpt>
      <trkpt lat="47.19405" lon="-1.57088">
        <ele>52</ele>
        <time>2021-04-22T12:20:50.000Z</time>
      </trkpt>
      <trkpt lat="47.19391" lon="-1.57085">
        <ele>52</ele>
        <time>2021-04-22T12:20:52.000Z</time>
      </trkpt>
      <trkpt lat="47.19378" lon="-1.57082">
        <ele>52</ele>
        <time>2021-04-22T12:20:54.000Z</time>
      </trkpt>
      <trkpt lat="47.19364" lon="-1.57078">
        <ele>52</ele>
        <time>2021-04-22T12:20:56.000Z</time>
      </trkpt>
      <trkpt lat="47.19352" lon="-1.57077">
        <ele>52</ele>
        <time>2021-04-22T12:20:58.000Z</time>
      </trkpt>
      <trkpt lat="47.1934" lon="-1.5708">
        <ele>52</ele>
        <time>2021-04-22T12:21:00.000Z</time>
      </trkpt>
      <trkpt lat="47.19327" lon="-1.57083">
        <ele>53</ele>
        <time>2021-04-22T12:21:02.000Z</time>
      </trkpt>
      <trkpt lat="47.19314" lon="-1.57075">
        <ele>54</ele>
        <time>2021-04-22T12:21:04.000Z</time>
      </trkpt>
      <trkpt lat="47.19303" lon="-1.57067">
        <ele>54</ele>
        <time>2021-04-22T12:21:06.000Z</time>
      </trkpt>
      <trkpt lat="47.19292" lon="-1.57062">
        <ele>53</ele>
        <time>2021-04-22T12:21:08.000Z</time>
      </trkpt>
      <trkpt lat="47.19279" lon="-1.57061">
        <ele>53</ele>
        <time>2021-04-22T12:21:10.000Z</time>
      </trkpt>
      <trkpt lat="47.19266" lon="-1.57063">
        <ele>52</ele>
        <time>2021-04-22T12:21:12.000Z</time>
      </trkpt>
      <trkpt lat="47.19252" lon="-1.57055">
        <ele>52</ele>
        <time>2021-04-22T12:21:14.000Z</time>
      </trkpt>
      <trkpt lat="47.19238" lon="-1.57047">
        <ele>51</ele>
        <time>2021-04-22T12:21:16.000Z</time>
      </trkpt>
      <trkpt lat="47.19223" lon="-1.57043">
        <ele>50</ele>
        <time>2021-04-22T12:21:18.000Z</time>
      </trkpt>
      <trkpt lat="47.19209" lon="-1.57039">
        <ele>50</ele>
        <time>2021-04-22T12:21:20.000Z</time>
      </trkpt>
      <trkpt lat="47.19195" lon="-1.57035">
        <ele>50</ele>
        <time>2021-04-22T12:21:22.000Z</time>
      </trkpt>
      <trkpt lat="47.19181" lon="-1.57032">
        <ele>51</ele>
        <time>2021-04-22T12:21:24.000Z</time>
      </trkpt>
      <trkpt lat="47.19169" lon="-1.57028">
        <ele>52</ele>
        <time>2021-04-22T12:21:26.000Z</time>
      </trkpt>
      <trkpt lat="47.19157" lon="-1.57025">
        <ele>52</ele>
        <time>2021-04-22T12:21:28.000Z</time>
      </trkpt>
      <trkpt lat="47.19145" lon="-1.57022">
        <ele>52</ele>
        <time>2021-04-22T12:21:30.000Z</time>
      </trkpt>
      <trkpt lat="47.19133" lon="-1.57023">
        <ele>51</ele>
        <time>2021-04-22T12:21:32.000Z</time>
      </trkpt>
      <trkpt lat="47.19126" lon="-1.57037">
        <ele>52</ele>
        <time>2021-04-22T12:21:34.000Z</time>
      </trkpt>
      <trkpt lat="47.19121" lon="-1.57057">
        <ele>52</ele>
        <time>2021-04-22T12:21:36.000Z</time>
      </trkpt>
      <trkpt lat="47.19115" lon="-1.57078">
        <ele>52</ele>
        <time>2021-04-22T12:21:38.000Z</time>
      </trkpt>
      <trkpt lat="47.19109" lon="-1.57098">
        <ele>52</ele>
        <time>2021-04-22T12:21:40.000Z</time>
      </trkpt>
      <trkpt lat="47.19103" lon="-1.57117">
        <ele>52</ele>
        <time>2021-04-22T12:21:42.000Z</time>
      </trkpt>
      <trkpt lat="47.19094" lon="-1.57134">
        <ele>51</ele>
        <time>2021-04-22T12:21:44.000Z</time>
      </trkpt>
      <trkpt lat="47.19087" lon="-1.57153">
        <ele>51</ele>
        <time>2021-04-22T12:21:46.000Z</time>
      </trkpt>
      <trkpt lat="47.19079" lon="-1.57173">
        <ele>50</ele>
        <time>2021-04-22T12:21:48.000Z</time>
      </trkpt>
      <trkpt lat="47.19072" lon="-1.57191">
        <ele>50</ele>
        <time>2021-04-22T12:21:50.000Z</time>
      </trkpt>
      <trkpt lat="47.19065" lon="-1.57209">
        <ele>49</ele>
        <time>2021-04-22T12:21:52.000Z</time>
      </trkpt>
      <trkpt lat="47.19054" lon="-1.57222">
        <ele>50</ele>
        <time>2021-04-22T12:21:54.000Z</time>
      </trkpt>
      <trkpt lat="47.19041" lon="-1.5723">
        <ele>51</ele>
        <time>2021-04-22T12:21:56.000Z</time>
      </trkpt>
      <trkpt lat="47.19028" lon="-1.57238">
        <ele>51</ele>
        <time>2021-04-22T12:21:58.000Z</time>
      </trkpt>
      <trkpt lat="47.19016" lon="-1.57246">
        <ele>52</ele>
        <time>2021-04-22T12:22:00.000Z</time>
      </trkpt>
      <trkpt lat="47.19004" lon="-1.57255">
        <ele>53</ele>
        <time>2021-04-22T12:22:02.000Z</time>
      </trkpt>
      <trkpt lat="47.18992" lon="-1.57262">
        <ele>53</ele>
        <time>2021-04-22T12:22:04.000Z</time>
      </trkpt>
      <trkpt lat="47.1898" lon="-1.57265">
        <ele>53</ele>
        <time>2021-04-22T12:22:06.000Z</time>
      </trkpt>
      <trkpt lat="47.18968" lon="-1.57266">
        <ele>53</ele>
        <time>2021-04-22T12:22:08.000Z</time>
      </trkpt>
      <trkpt lat="47.18955" lon="-1.57267">
        <ele>53</ele>
        <time>2021-04-22T12:22:10.000Z</time>
      </trkpt>
      <trkpt lat="47.18942" lon="-1.57268">
        <ele>53</ele>
        <time>2021-04-22T12:22:12.000Z</time>
      </trkpt>
      <trkpt lat="47.1893" lon="-1.57269">
        <ele>54</ele>
        <time>2021-04-22T12:22:14.000Z</time>
      </trkpt>
      <trkpt lat="47.18918" lon="-1.57272">
        <ele>53</ele>
        <time>2021-04-22T12:22:16.000Z</time>
      </trkpt>
      <trkpt lat="47.18907" lon="-1.57274">
        <ele>53</ele>
        <time>2021-04-22T12:22:18.000Z</time>
      </trkpt>
      <trkpt lat="47.18895" lon="-1.57275">
        <ele>53</ele>
        <time>2021-04-22T12:22:20.000Z</time>
      </trkpt>
      <trkpt lat="47.18883" lon="-1.57277">
        <ele>53</ele>
        <time>2021-04-22T12:22:22.000Z</time>
      </trkpt>
      <trkpt lat="47.18872" lon="-1.57278">
        <ele>53</ele>
        <time>2021-04-22T12:22:24.000Z</time>
      </trkpt>
      <trkpt lat="47.18861" lon="-1.57284">
        <ele>53</ele>
        <time>2021-04-22T12:22:26.000Z</time>
      </trkpt>
      <trkpt lat="47.18851" lon="-1.57292">
        <ele>54</ele>
        <time>2021-04-22T12:22:28.000Z</time>
      </trkpt>
      <trkpt lat="47.18843" lon="-1.57305">
        <ele>53</ele>
        <time>2021-04-22T12:22:30.000Z</time>
      </trkpt>
      <trkpt lat="47.18836" lon="-1.57321">
        <ele>53</ele>
        <time>2021-04-22T12:22:32.000Z</time>
      </trkpt>
      <trkpt lat="47.18831" lon="-1.57339">
        <ele>53</ele>
        <time>2021-04-22T12:22:34.000Z</time>
      </trkpt>
      <trkpt lat="47.18825" lon="-1.57359">
        <ele>52</ele>
        <time>2021-04-22T12:22:36.000Z</time>
      </trkpt>
      <trkpt lat="47.18818" lon="-1.57378">
        <ele>52</ele>
        <time>2021-04-22T12:22:38.000Z</time>
      </trkpt>
      <trkpt lat="47.18809" lon="-1.57395">
        <ele>52</ele>
        <time>2021-04-22T12:22:40.000Z</time>
      </trkpt>
      <trkpt lat="47.18795" lon="-1.57409">
        <ele>52</ele>
        <time>2021-04-22T12:22:42.000Z</time>
      </trkpt>
      <trkpt lat="47.18779" lon="-1.57417">
        <ele>52</ele>
        <time>2021-04-22T12:22:44.000Z</time>
      </trkpt>
      <trkpt lat="47.18762" lon="-1.57426">
        <ele>51</ele>
        <time>2021-04-22T12:22:46.000Z</time>
      </trkpt>
      <trkpt lat="47.18746" lon="-1.57435">
        <ele>52</ele>
        <time>2021-04-22T12:22:48.000Z</time>
      </trkpt>
      <trkpt lat="47.18731" lon="-1.57444">
        <ele>51</ele>
        <time>2021-04-22T12:22:50.000Z</time>
      </trkpt>
      <trkpt lat="47.18716" lon="-1.57451">
        <ele>52</ele>
        <time>2021-04-22T12:22:52.000Z</time>
      </trkpt>
      <trkpt lat="47.18702" lon="-1.57458">
        <ele>52</ele>
        <time>2021-04-22T12:22:54.000Z</time>
      </trkpt>
      <trkpt lat="47.18689" lon="-1.57465">
        <ele>52</ele>
        <time>2021-04-22T12:22:56.000Z</time>
      </trkpt>
      <trkpt lat="47.18677" lon="-1.57473">
        <ele>53</ele>
        <time>2021-04-22T12:22:58.000Z</time>
      </trkpt>
      <trkpt lat="47.18666" lon="-1.57485">
        <ele>53</ele>
        <time>2021-04-22T12:23:00.000Z</time>
      </trkpt>
      <trkpt lat="47.18656" lon="-1.57498">
        <ele>54</ele>
        <time>2021-04-22T12:23:02.000Z</time>
      </trkpt>
      <trkpt lat="47.18648" lon="-1.57512">
        <ele>54</ele>
        <time>2021-04-22T12:23:04.000Z</time>
      </trkpt>
      <trkpt lat="47.18641" lon="-1.57529">
        <ele>55</ele>
        <time>2021-04-22T12:23:06.000Z</time>
      </trkpt>
      <trkpt lat="47.18636" lon="-1.57545">
        <ele>55</ele>
        <time>2021-04-22T12:23:08.000Z</time>
      </trkpt>
      <trkpt lat="47.18632" lon="-1.57564">
        <ele>56</ele>
        <time>2021-04-22T12:23:10.000Z</time>
      </trkpt>
      <trkpt lat="47.18628" lon="-1.57582">
        <ele>56</ele>
        <time>2021-04-22T12:23:12.000Z</time>
      </trkpt>
      <trkpt lat="47.18626" lon="-1.576">
        <ele>56</ele>
        <time>2021-04-22T12:23:14.000Z</time>
      </trkpt>
      <trkpt lat="47.18627" lon="-1.57619">
        <ele>56</ele>
        <time>2021-04-22T12:23:16.000Z</time>
      </trkpt>
      <trkpt lat="47.18628" lon="-1.57638">
        <ele>57</ele>
        <time>2021-04-22T12:23:18.000Z</time>
      </trkpt>
      <trkpt lat="47.18629" lon="-1.57658">
        <ele>57</ele>
        <time>2021-04-22T12:23:20.000Z</time>
      </trkpt>
      <trkpt lat="47.1863" lon="-1.57676">
        <ele>57</ele>
        <time>2021-04-22T12:23:22.000Z</time>
      </trkpt>
      <trkpt lat="47.18632" lon="-1.57695">
        <ele>57</ele>
        <time>2021-04-22T12:23:24.000Z</time>
      </trkpt>
      <trkpt lat="47.18633" lon="-1.57713">
        <ele>57</ele>
        <time>2021-04-22T12:23:26.000Z</time>
      </trkpt>
      <trkpt lat="47.18635" lon="-1.57732">
        <ele>57</ele>
        <time>2021-04-22T12:23:28.000Z</time>
      </trkpt>
      <trkpt lat="47.18636" lon="-1.57749">
        <ele>57</ele>
        <time>2021-04-22T12:23:30.000Z</time>
      </trkpt>
      <trkpt lat="47.18637" lon="-1.57767">
        <ele>57</ele>
        <time>2021-04-22T12:23:32.000Z</time>
      </trkpt>
      <trkpt lat="47.18638" lon="-1.57785">
        <ele>57</ele>
        <time>2021-04-22T12:23:34.000Z</time>
      </trkpt>
      <trkpt lat="47.18639" lon="-1.57803">
        <ele>57</ele>
        <time>2021-04-22T12:23:36.000Z</time>
      </trkpt>
      <trkpt lat="47.18641" lon="-1.57822">
        <ele>57</ele>
        <time>2021-04-22T12:23:38.000Z</time>
      </trkpt>
      <trkpt lat="47.18641" lon="-1.5784">
        <ele>57</ele>
        <time>2021-04-22T12:23:40.000Z</time>
      </trkpt>
      <trkpt lat="47.1864" lon="-1.57859">
        <ele>57</ele>
        <time>2021-04-22T12:23:42.000Z</time>
      </trkpt>
      <trkpt lat="47.18639" lon="-1.57876">
        <ele>57</ele>
        <time>2021-04-22T12:23:44.000Z</time>
      </trkpt>
      <trkpt lat="47.18637" lon="-1.57894">
        <ele>57</ele>
        <time>2021-04-22T12:23:46.000Z</time>
      </trkpt>
      <trkpt lat="47.18634" lon="-1.57913">
        <ele>57</ele>
        <time>2021-04-22T12:23:48.000Z</time>
      </trkpt>
      <trkpt lat="47.18631" lon="-1.57931">
        <ele>57</ele>
        <time>2021-04-22T12:23:50.000Z</time>
      </trkpt>
      <trkpt lat="47.18629" lon="-1.57949">
        <ele>57</ele>
        <time>2021-04-22T12:23:52.000Z</time>
      </trkpt>
      <trkpt lat="47.18626" lon="-1.57968">
        <ele>57</ele>
        <time>2021-04-22T12:23:54.000Z</time>
      </trkpt>
      <trkpt lat="47.18623" lon="-1.57986">
        <ele>57</ele>
        <time>2021-04-22T12:23:56.000Z</time>
      </trkpt>
      <trkpt lat="47.1862" lon="-1.58004">
        <ele>57</ele>
        <time>2021-04-22T12:23:58.000Z</time>
      </trkpt>
      <trkpt lat="47.18618" lon="-1.58021">
        <ele>57</ele>
        <time>2021-04-22T12:24:00.000Z</time>
      </trkpt>
      <trkpt lat="47.18614" lon="-1.58039">
        <ele>57</ele>
        <time>2021-04-22T12:24:02.000Z</time>
      </trkpt>
      <trkpt lat="47.18611" lon="-1.58056">
        <ele>58</ele>
        <time>2021-04-22T12:24:04.000Z</time>
      </trkpt>
      <trkpt lat="47.1861" lon="-1.58073">
        <ele>58</ele>
        <time>2021-04-22T12:24:06.000Z</time>
      </trkpt>
      <trkpt lat="47.18602" lon="-1.58085">
        <ele>60</ele>
        <time>2021-04-22T12:24:08.000Z</time>
      </trkpt>
      <trkpt lat="47.18591" lon="-1.5808">
        <ele>59</ele>
        <time>2021-04-22T12:24:10.000Z</time>
      </trkpt>
      <trkpt lat="47.18581" lon="-1.58075">
        <ele>59</ele>
        <time>2021-04-22T12:24:12.000Z</time>
      </trkpt>
      <trkpt lat="47.18569" lon="-1.58071">
        <ele>59</ele>
        <time>2021-04-22T12:24:14.000Z</time>
      </trkpt>
      <trkpt lat="47.18556" lon="-1.58068">
        <ele>59</ele>
        <time>2021-04-22T12:24:16.000Z</time>
      </trkpt>
      <trkpt lat="47.18543" lon="-1.58063">
        <ele>59</ele>
        <time>2021-04-22T12:24:18.000Z</time>
      </trkpt>
      <trkpt lat="47.18531" lon="-1.58059">
        <ele>60</ele>
        <time>2021-04-22T12:24:20.000Z</time>
      </trkpt>
      <trkpt lat="47.18519" lon="-1.58054">
        <ele>60</ele>
        <time>2021-04-22T12:24:22.000Z</time>
      </trkpt>
      <trkpt lat="47.18507" lon="-1.5805">
        <ele>60</ele>
        <time>2021-04-22T12:24:24.000Z</time>
      </trkpt>
      <trkpt lat="47.18495" lon="-1.58047">
        <ele>60</ele>
        <time>2021-04-22T12:24:26.000Z</time>
      </trkpt>
      <trkpt lat="47.18483" lon="-1.58042">
        <ele>60</ele>
        <time>2021-04-22T12:24:28.000Z</time>
      </trkpt>
      <trkpt lat="47.18471" lon="-1.58039">
        <ele>61</ele>
        <time>2021-04-22T12:24:30.000Z</time>
      </trkpt>
      <trkpt lat="47.18458" lon="-1.58034">
        <ele>61</ele>
        <time>2021-04-22T12:24:32.000Z</time>
      </trkpt>
      <trkpt lat="47.18446" lon="-1.58029">
        <ele>60</ele>
        <time>2021-04-22T12:24:34.000Z</time>
      </trkpt>
      <trkpt lat="47.18434" lon="-1.58025">
        <ele>60</ele>
        <time>2021-04-22T12:24:36.000Z</time>
      </trkpt>
      <trkpt lat="47.18422" lon="-1.58021">
        <ele>61</ele>
        <time>2021-04-22T12:24:38.000Z</time>
      </trkpt>
      <trkpt lat="47.18411" lon="-1.58017">
        <ele>61</ele>
        <time>2021-04-22T12:24:40.000Z</time>
      </trkpt>
      <trkpt lat="47.18399" lon="-1.58013">
        <ele>62</ele>
        <time>2021-04-22T12:24:42.000Z</time>
      </trkpt>
      <trkpt lat="47.18386" lon="-1.58008">
        <ele>62</ele>
        <time>2021-04-22T12:24:44.000Z</time>
      </trkpt>
      <trkpt lat="47.18374" lon="-1.58005">
        <ele>63</ele>
        <time>2021-04-22T12:24:46.000Z</time>
      </trkpt>
      <trkpt lat="47.18361" lon="-1.58003">
        <ele>63</ele>
        <time>2021-04-22T12:24:48.000Z</time>
      </trkpt>
      <trkpt lat="47.18349" lon="-1.58001">
        <ele>64</ele>
        <time>2021-04-22T12:24:50.000Z</time>
      </trkpt>
      <trkpt lat="47.18337" lon="-1.57999">
        <ele>64</ele>
        <time>2021-04-22T12:24:52.000Z</time>
      </trkpt>
      <trkpt lat="47.18325" lon="-1.57998">
        <ele>64</ele>
        <time>2021-04-22T12:24:54.000Z</time>
      </trkpt>
      <trkpt lat="47.18313" lon="-1.57996">
        <ele>65</ele>
        <time>2021-04-22T12:24:56.000Z</time>
      </trkpt>
      <trkpt lat="47.183" lon="-1.57995">
        <ele>65</ele>
        <time>2021-04-22T12:24:58.000Z</time>
      </trkpt>
      <trkpt lat="47.18289" lon="-1.57995">
        <ele>65</ele>
        <time>2021-04-22T12:25:00.000Z</time>
      </trkpt>
      <trkpt lat="47.18277" lon="-1.57993">
        <ele>65</ele>
        <time>2021-04-22T12:25:02.000Z</time>
      </trkpt>
      <trkpt lat="47.18266" lon="-1.57991">
        <ele>66</ele>
        <time>2021-04-22T12:25:04.000Z</time>
      </trkpt>
      <trkpt lat="47.18254" lon="-1.57989">
        <ele>66</ele>
        <time>2021-04-22T12:25:06.000Z</time>
      </trkpt>
      <trkpt lat="47.18243" lon="-1.57988">
        <ele>66</ele>
        <time>2021-04-22T12:25:08.000Z</time>
      </trkpt>
      <trkpt lat="47.18232" lon="-1.57987">
        <ele>66</ele>
        <time>2021-04-22T12:25:10.000Z</time>
      </trkpt>
      <trkpt lat="47.18224" lon="-1.57993">
        <ele>65</ele>
        <time>2021-04-22T12:25:12.000Z</time>
      </trkpt>
      <trkpt lat="47.1822" lon="-1.58008">
        <ele>65</ele>
        <time>2021-04-22T12:25:14.000Z</time>
      </trkpt>
      <trkpt lat="47.18221" lon="-1.58024">
        <ele>64</ele>
        <time>2021-04-22T12:25:16.000Z</time>
      </trkpt>
      <trkpt lat="47.18222" lon="-1.5804">
        <ele>64</ele>
        <time>2021-04-22T12:25:18.000Z</time>
      </trkpt>
      <trkpt lat="47.18223" lon="-1.58058">
        <ele>64</ele>
        <time>2021-04-22T12:25:20.000Z</time>
      </trkpt>
      <trkpt lat="47.18224" lon="-1.58076">
        <ele>64</ele>
        <time>2021-04-22T12:25:22.000Z</time>
      </trkpt>
      <trkpt lat="47.18225" lon="-1.58095">
        <ele>64</ele>
        <time>2021-04-22T12:25:24.000Z</time>
      </trkpt>
      <trkpt lat="47.18227" lon="-1.58115">
        <ele>64</ele>
        <time>2021-04-22T12:25:26.000Z</time>
      </trkpt>
      <trkpt lat="47.18228" lon="-1.58135">
        <ele>64</ele>
        <time>2021-04-22T12:25:28.000Z</time>
      </trkpt>
      <trkpt lat="47.18229" lon="-1.58156">
        <ele>63</ele>
        <time>2021-04-22T12:25:30.000Z</time>
      </trkpt>
      <trkpt lat="47.18229" lon="-1.58177">
        <ele>63</ele>
        <time>2021-04-22T12:25:32.000Z</time>
      </trkpt>
      <trkpt lat="47.18226" lon="-1.58198">
        <ele>63</ele>
        <time>2021-04-22T12:25:34.000Z</time>
      </trkpt>
      <trkpt lat="47.18221" lon="-1.58218">
        <ele>64</ele>
        <time>2021-04-22T12:25:36.000Z</time>
      </trkpt>
      <trkpt lat="47.18213" lon="-1.58236">
        <ele>65</ele>
        <time>2021-04-22T12:25:38.000Z</time>
      </trkpt>
      <trkpt lat="47.18205" lon="-1.58252">
        <ele>65</ele>
        <time>2021-04-22T12:25:40.000Z</time>
      </trkpt>
      <trkpt lat="47.18197" lon="-1.58269">
        <ele>65</ele>
        <time>2021-04-22T12:25:42.000Z</time>
      </trkpt>
      <trkpt lat="47.18188" lon="-1.58286">
        <ele>66</ele>
        <time>2021-04-22T12:25:44.000Z</time>
      </trkpt>
      <trkpt lat="47.1818" lon="-1.58302">
        <ele>66</ele>
        <time>2021-04-22T12:25:46.000Z</time>
      </trkpt>
      <trkpt lat="47.18172" lon="-1.58321">
        <ele>66</ele>
        <time>2021-04-22T12:25:48.000Z</time>
      </trkpt>
      <trkpt lat="47.18164" lon="-1.5834">
        <ele>67</ele>
        <time>2021-04-22T12:25:50.000Z</time>
      </trkpt>
      <trkpt lat="47.18157" lon="-1.58359">
        <ele>67</ele>
        <time>2021-04-22T12:25:52.000Z</time>
      </trkpt>
      <trkpt lat="47.18151" lon="-1.58377">
        <ele>67</ele>
        <time>2021-04-22T12:25:54.000Z</time>
      </trkpt>
      <trkpt lat="47.18145" lon="-1.58395">
        <ele>67</ele>
        <time>2021-04-22T12:25:56.000Z</time>
      </trkpt>
      <trkpt lat="47.18139" lon="-1.58412">
        <ele>68</ele>
        <time>2021-04-22T12:25:58.000Z</time>
      </trkpt>
      <trkpt lat="47.18136" lon="-1.58429">
        <ele>68</ele>
        <time>2021-04-22T12:26:00.000Z</time>
      </trkpt>
      <trkpt lat="47.18128" lon="-1.58441">
        <ele>68</ele>
        <time>2021-04-22T12:26:02.000Z</time>
      </trkpt>
      <trkpt lat="47.1812" lon="-1.58455">
        <ele>68</ele>
        <time>2021-04-22T12:26:04.000Z</time>
      </trkpt>
      <trkpt lat="47.18117" lon="-1.58475">
        <ele>68</ele>
        <time>2021-04-22T12:26:06.000Z</time>
      </trkpt>
      <trkpt lat="47.18116" lon="-1.58496">
        <ele>67</ele>
        <time>2021-04-22T12:26:08.000Z</time>
      </trkpt>
      <trkpt lat="47.18114" lon="-1.58518">
        <ele>67</ele>
        <time>2021-04-22T12:26:10.000Z</time>
      </trkpt>
      <trkpt lat="47.18113" lon="-1.58539">
        <ele>67</ele>
        <time>2021-04-22T12:26:12.000Z</time>
      </trkpt>
      <trkpt lat="47.18112" lon="-1.58561">
        <ele>67</ele>
        <time>2021-04-22T12:26:14.000Z</time>
      </trkpt>
      <trkpt lat="47.18107" lon="-1.58581">
        <ele>67</ele>
        <time>2021-04-22T12:26:16.000Z</time>
      </trkpt>
      <trkpt lat="47.18101" lon="-1.58601">
        <ele>67</ele>
        <time>2021-04-22T12:26:18.000Z</time>
      </trkpt>
      <trkpt lat="47.18095" lon="-1.5862">
        <ele>67</ele>
        <time>2021-04-22T12:26:20.000Z</time>
      </trkpt>
      <trkpt lat="47.18088" lon="-1.58639">
        <ele>68</ele>
        <time>2021-04-22T12:26:22.000Z</time>
      </trkpt>
      <trkpt lat="47.18082" lon="-1.58657">
        <ele>68</ele>
        <time>2021-04-22T12:26:24.000Z</time>
      </trkpt>
      <trkpt lat="47.18076" lon="-1.58675">
        <ele>68</ele>
        <time>2021-04-22T12:26:26.000Z</time>
      </trkpt>
      <trkpt lat="47.18071" lon="-1.58691">
        <ele>68</ele>
        <time>2021-04-22T12:26:28.000Z</time>
      </trkpt>
      <trkpt lat="47.18077" lon="-1.58705">
        <ele>69</ele>
        <time>2021-04-22T12:26:30.000Z</time>
      </trkpt>
      <trkpt lat="47.18088" lon="-1.5871">
        <ele>69</ele>
        <time>2021-04-22T12:26:32.000Z</time>
      </trkpt>
      <trkpt lat="47.181" lon="-1.58717">
        <ele>69</ele>
        <time>2021-04-22T12:26:34.000Z</time>
      </trkpt>
      <trkpt lat="47.18113" lon="-1.58722">
        <ele>69</ele>
        <time>2021-04-22T12:26:36.000Z</time>
      </trkpt>
      <trkpt lat="47.18126" lon="-1.58726">
        <ele>69</ele>
        <time>2021-04-22T12:26:38.000Z</time>
      </trkpt>
      <trkpt lat="47.18138" lon="-1.58731">
        <ele>69</ele>
        <time>2021-04-22T12:26:40.000Z</time>
      </trkpt>
      <trkpt lat="47.1815" lon="-1.5874">
        <ele>69</ele>
        <time>2021-04-22T12:26:42.000Z</time>
      </trkpt>
      <trkpt lat="47.18161" lon="-1.58748">
        <ele>69</ele>
        <time>2021-04-22T12:26:44.000Z</time>
      </trkpt>
      <trkpt lat="47.18174" lon="-1.58753">
        <ele>69</ele>
        <time>2021-04-22T12:26:46.000Z</time>
      </trkpt>
      <trkpt lat="47.18185" lon="-1.58757">
        <ele>69</ele>
        <time>2021-04-22T12:26:48.000Z</time>
      </trkpt>
      <trkpt lat="47.18195" lon="-1.5876">
        <ele>69</ele>
        <time>2021-04-22T12:26:50.000Z</time>
      </trkpt>
      <trkpt lat="47.18205" lon="-1.58765">
        <ele>68</ele>
        <time>2021-04-22T12:26:53.000Z</time>
      </trkpt>
      <trkpt lat="47.18216" lon="-1.58762">
        <ele>68</ele>
        <time>2021-04-22T12:26:55.000Z</time>
      </trkpt>
      <trkpt lat="47.18226" lon="-1.5876">
        <ele>67</ele>
        <time>2021-04-22T12:26:57.000Z</time>
      </trkpt>
      <trkpt lat="47.18237" lon="-1.58758">
        <ele>67</ele>
        <time>2021-04-22T12:26:59.000Z</time>
      </trkpt>
      <trkpt lat="47.18246" lon="-1.5877">
        <ele>67</ele>
        <time>2021-04-22T12:27:01.000Z</time>
      </trkpt>
      <trkpt lat="47.1825" lon="-1.58789">
        <ele>67</ele>
        <time>2021-04-22T12:27:03.000Z</time>
      </trkpt>
      <trkpt lat="47.18255" lon="-1.58807">
        <ele>67</ele>
        <time>2021-04-22T12:27:05.000Z</time>
      </trkpt>
      <trkpt lat="47.18262" lon="-1.58823">
        <ele>68</ele>
        <time>2021-04-22T12:27:07.000Z</time>
      </trkpt>
      <trkpt lat="47.18269" lon="-1.58838">
        <ele>67</ele>
        <time>2021-04-22T12:27:09.000Z</time>
      </trkpt>
      <trkpt lat="47.18274" lon="-1.58854">
        <ele>67</ele>
        <time>2021-04-22T12:27:11.000Z</time>
      </trkpt>
      <trkpt lat="47.18278" lon="-1.58868">
        <ele>67</ele>
        <time>2021-04-22T12:27:13.000Z</time>
      </trkpt>
      <trkpt lat="47.18282" lon="-1.5888">
        <ele>66</ele>
        <time>2021-04-22T12:27:15.000Z</time>
      </trkpt>
      <trkpt lat="47.18291" lon="-1.5889">
        <ele>66</ele>
        <time>2021-04-22T12:27:18.000Z</time>
      </trkpt>
      <trkpt lat="47.183" lon="-1.5889">
        <ele>66</ele>
        <time>2021-04-22T12:27:20.000Z</time>
      </trkpt>
      <trkpt lat="47.18312" lon="-1.58887">
        <ele>66</ele>
        <time>2021-04-22T12:27:23.000Z</time>
      </trkpt>
      <trkpt lat="47.18313" lon="-1.58901">
        <ele>66</ele>
        <time>2021-04-22T12:28:23.000Z</time>
      </trkpt>
      <trkpt lat="47.18317" lon="-1.58886">
        <ele>59</ele>
        <time>2021-04-22T13:07:55.300Z</time>
      </trkpt>
      <trkpt lat="47.18315" lon="-1.58901">
        <ele>56</ele>
        <time>2021-04-22T13:08:04.000Z</time>
      </trkpt>
      <trkpt lat="47.18321" lon="-1.58916">
        <ele>68</ele>
        <time>2021-04-22T13:14:24.000Z</time>
      </trkpt>
      <trkpt lat="47.18322" lon="-1.58929">
        <ele>68</ele>
        <time>2021-04-22T13:14:26.000Z</time>
      </trkpt>
      <trkpt lat="47.18328" lon="-1.58946">
        <ele>69</ele>
        <time>2021-04-22T13:14:29.000Z</time>
      </trkpt>
      <trkpt lat="47.18335" lon="-1.58954">
        <ele>69</ele>
        <time>2021-04-22T13:14:31.000Z</time>
      </trkpt>
      <trkpt lat="47.18343" lon="-1.58963">
        <ele>70</ele>
        <time>2021-04-22T13:14:33.000Z</time>
      </trkpt>
      <trkpt lat="47.1835" lon="-1.58972">
        <ele>70</ele>
        <time>2021-04-22T13:14:35.000Z</time>
      </trkpt>
      <trkpt lat="47.18356" lon="-1.58983">
        <ele>69</ele>
        <time>2021-04-22T13:14:37.000Z</time>
      </trkpt>
      <trkpt lat="47.18354" lon="-1.59">
        <ele>69</ele>
        <time>2021-04-22T13:14:40.000Z</time>
      </trkpt>
      <trkpt lat="47.18345" lon="-1.59012">
        <ele>69</ele>
        <time>2021-04-22T13:14:42.000Z</time>
      </trkpt>
      <trkpt lat="47.18337" lon="-1.59026">
        <ele>68</ele>
        <time>2021-04-22T13:14:44.000Z</time>
      </trkpt>
      <trkpt lat="47.1833" lon="-1.59043">
        <ele>68</ele>
        <time>2021-04-22T13:14:46.000Z</time>
      </trkpt>
      <trkpt lat="47.18323" lon="-1.5906">
        <ele>67</ele>
        <time>2021-04-22T13:14:48.000Z</time>
      </trkpt>
      <trkpt lat="47.18317" lon="-1.59078">
        <ele>67</ele>
        <time>2021-04-22T13:14:50.000Z</time>
      </trkpt>
      <trkpt lat="47.18311" lon="-1.59096">
        <ele>67</ele>
        <time>2021-04-22T13:14:52.000Z</time>
      </trkpt>
      <trkpt lat="47.18304" lon="-1.59115">
        <ele>67</ele>
        <time>2021-04-22T13:14:54.000Z</time>
      </trkpt>
      <trkpt lat="47.18297" lon="-1.59133">
        <ele>67</ele>
        <time>2021-04-22T13:14:56.000Z</time>
      </trkpt>
      <trkpt lat="47.18291" lon="-1.59151">
        <ele>67</ele>
        <time>2021-04-22T13:14:58.000Z</time>
      </trkpt>
      <trkpt lat="47.18286" lon="-1.59168">
        <ele>68</ele>
        <time>2021-04-22T13:15:00.000Z</time>
      </trkpt>
      <trkpt lat="47.18281" lon="-1.59184">
        <ele>68</ele>
        <time>2021-04-22T13:15:02.000Z</time>
      </trkpt>
      <trkpt lat="47.18278" lon="-1.59201">
        <ele>68</ele>
        <time>2021-04-22T13:15:04.000Z</time>
      </trkpt>
      <trkpt lat="47.18271" lon="-1.59215">
        <ele>67</ele>
        <time>2021-04-22T13:15:06.000Z</time>
      </trkpt>
      <trkpt lat="47.18259" lon="-1.59225">
        <ele>67</ele>
        <time>2021-04-22T13:15:08.000Z</time>
      </trkpt>
      <trkpt lat="47.18248" lon="-1.59235">
        <ele>68</ele>
        <time>2021-04-22T13:15:10.000Z</time>
      </trkpt>
      <trkpt lat="47.18238" lon="-1.59247">
        <ele>68</ele>
        <time>2021-04-22T13:15:12.000Z</time>
      </trkpt>
      <trkpt lat="47.18227" lon="-1.59258">
        <ele>68</ele>
        <time>2021-04-22T13:15:14.000Z</time>
      </trkpt>
      <trkpt lat="47.18216" lon="-1.59269">
        <ele>69</ele>
        <time>2021-04-22T13:15:16.000Z</time>
      </trkpt>
      <trkpt lat="47.18205" lon="-1.5928">
        <ele>69</ele>
        <time>2021-04-22T13:15:18.000Z</time>
      </trkpt>
      <trkpt lat="47.18194" lon="-1.59292">
        <ele>69</ele>
        <time>2021-04-22T13:15:20.000Z</time>
      </trkpt>
      <trkpt lat="47.18183" lon="-1.59302">
        <ele>69</ele>
        <time>2021-04-22T13:15:22.000Z</time>
      </trkpt>
      <trkpt lat="47.18172" lon="-1.59314">
        <ele>70</ele>
        <time>2021-04-22T13:15:24.000Z</time>
      </trkpt>
      <trkpt lat="47.18161" lon="-1.59324">
        <ele>70</ele>
        <time>2021-04-22T13:15:26.000Z</time>
      </trkpt>
      <trkpt lat="47.1815" lon="-1.59335">
        <ele>70</ele>
        <time>2021-04-22T13:15:28.000Z</time>
      </trkpt>
      <trkpt lat="47.18139" lon="-1.59346">
        <ele>70</ele>
        <time>2021-04-22T13:15:30.000Z</time>
      </trkpt>
      <trkpt lat="47.18128" lon="-1.59357">
        <ele>70</ele>
        <time>2021-04-22T13:15:32.000Z</time>
      </trkpt>
      <trkpt lat="47.18117" lon="-1.59368">
        <ele>70</ele>
        <time>2021-04-22T13:15:34.000Z</time>
      </trkpt>
      <trkpt lat="47.18106" lon="-1.59379">
        <ele>70</ele>
        <time>2021-04-22T13:15:36.000Z</time>
      </trkpt>
      <trkpt lat="47.18095" lon="-1.5939">
        <ele>69</ele>
        <time>2021-04-22T13:15:38.000Z</time>
      </trkpt>
      <trkpt lat="47.18084" lon="-1.59401">
        <ele>70</ele>
        <time>2021-04-22T13:15:40.000Z</time>
      </trkpt>
      <trkpt lat="47.18074" lon="-1.59412">
        <ele>70</ele>
        <time>2021-04-22T13:15:42.000Z</time>
      </trkpt>
      <trkpt lat="47.18065" lon="-1.59427">
        <ele>70</ele>
        <time>2021-04-22T13:15:44.000Z</time>
      </trkpt>
      <trkpt lat="47.18055" lon="-1.59438">
        <ele>69</ele>
        <time>2021-04-22T13:15:46.000Z</time>
      </trkpt>
      <trkpt lat="47.18046" lon="-1.59452">
        <ele>70</ele>
        <time>2021-04-22T13:15:48.000Z</time>
      </trkpt>
      <trkpt lat="47.18039" lon="-1.59468">
        <ele>70</ele>
        <time>2021-04-22T13:15:50.000Z</time>
      </trkpt>
      <trkpt lat="47.18034" lon="-1.59486">
        <ele>69</ele>
        <time>2021-04-22T13:15:52.000Z</time>
      </trkpt>
      <trkpt lat="47.18029" lon="-1.59504">
        <ele>69</ele>
        <time>2021-04-22T13:15:54.000Z</time>
      </trkpt>
      <trkpt lat="47.18025" lon="-1.59522">
        <ele>69</ele>
        <time>2021-04-22T13:15:56.000Z</time>
      </trkpt>
      <trkpt lat="47.18021" lon="-1.59542">
        <ele>69</ele>
        <time>2021-04-22T13:15:58.000Z</time>
      </trkpt>
      <trkpt lat="47.18016" lon="-1.5956">
        <ele>69</ele>
        <time>2021-04-22T13:16:00.000Z</time>
      </trkpt>
      <trkpt lat="47.18012" lon="-1.59578">
        <ele>69</ele>
        <time>2021-04-22T13:16:02.000Z</time>
      </trkpt>
      <trkpt lat="47.18007" lon="-1.59596">
        <ele>69</ele>
        <time>2021-04-22T13:16:04.000Z</time>
      </trkpt>
      <trkpt lat="47.18002" lon="-1.59615">
        <ele>69</ele>
        <time>2021-04-22T13:16:06.000Z</time>
      </trkpt>
      <trkpt lat="47.17997" lon="-1.59634">
        <ele>68</ele>
        <time>2021-04-22T13:16:08.000Z</time>
      </trkpt>
      <trkpt lat="47.17991" lon="-1.59653">
        <ele>67</ele>
        <time>2021-04-22T13:16:10.000Z</time>
      </trkpt>
      <trkpt lat="47.17987" lon="-1.59673">
        <ele>67</ele>
        <time>2021-04-22T13:16:12.000Z</time>
      </trkpt>
      <trkpt lat="47.17982" lon="-1.59694">
        <ele>67</ele>
        <time>2021-04-22T13:16:14.000Z</time>
      </trkpt>
      <trkpt lat="47.17976" lon="-1.59715">
        <ele>66</ele>
        <time>2021-04-22T13:16:16.000Z</time>
      </trkpt>
      <trkpt lat="47.17969" lon="-1.59736">
        <ele>66</ele>
        <time>2021-04-22T13:16:18.000Z</time>
      </trkpt>
      <trkpt lat="47.17962" lon="-1.59758">
        <ele>65</ele>
        <time>2021-04-22T13:16:20.000Z</time>
      </trkpt>
      <trkpt lat="47.17956" lon="-1.59782">
        <ele>64</ele>
        <time>2021-04-22T13:16:22.000Z</time>
      </trkpt>
      <trkpt lat="47.17953" lon="-1.59795">
        <ele>63</ele>
        <time>2021-04-22T13:16:23.000Z</time>
      </trkpt>
      <trkpt lat="47.17951" lon="-1.59809">
        <ele>63</ele>
        <time>2021-04-22T13:16:24.000Z</time>
      </trkpt>
      <trkpt lat="47.17949" lon="-1.59823">
        <ele>62</ele>
        <time>2021-04-22T13:16:25.000Z</time>
      </trkpt>
      <trkpt lat="47.17947" lon="-1.59837">
        <ele>62</ele>
        <time>2021-04-22T13:16:26.000Z</time>
      </trkpt>
      <trkpt lat="47.17944" lon="-1.59852">
        <ele>61</ele>
        <time>2021-04-22T13:16:27.000Z</time>
      </trkpt>
      <trkpt lat="47.17942" lon="-1.59866">
        <ele>60</ele>
        <time>2021-04-22T13:16:28.000Z</time>
      </trkpt>
      <trkpt lat="47.17939" lon="-1.59881">
        <ele>60</ele>
        <time>2021-04-22T13:16:29.000Z</time>
      </trkpt>
      <trkpt lat="47.17934" lon="-1.59896">
        <ele>59</ele>
        <time>2021-04-22T13:16:30.000Z</time>
      </trkpt>
      <trkpt lat="47.1793" lon="-1.5991">
        <ele>59</ele>
        <time>2021-04-22T13:16:31.000Z</time>
      </trkpt>
      <trkpt lat="47.17926" lon="-1.59924">
        <ele>58</ele>
        <time>2021-04-22T13:16:32.000Z</time>
      </trkpt>
      <trkpt lat="47.17921" lon="-1.59937">
        <ele>57</ele>
        <time>2021-04-22T13:16:33.000Z</time>
      </trkpt>
      <trkpt lat="47.17913" lon="-1.59944">
        <ele>55</ele>
        <time>2021-04-22T13:16:34.000Z</time>
      </trkpt>
      <trkpt lat="47.17904" lon="-1.59945">
        <ele>56</ele>
        <time>2021-04-22T13:16:35.000Z</time>
      </trkpt>
      <trkpt lat="47.17894" lon="-1.59947">
        <ele>56</ele>
        <time>2021-04-22T13:16:36.000Z</time>
      </trkpt>
      <trkpt lat="47.17881" lon="-1.59961">
        <ele>56</ele>
        <time>2021-04-22T13:16:38.000Z</time>
      </trkpt>
      <trkpt lat="47.17869" lon="-1.59981">
        <ele>56</ele>
        <time>2021-04-22T13:16:40.000Z</time>
      </trkpt>
      <trkpt lat="47.17863" lon="-1.5999">
        <ele>57</ele>
        <time>2021-04-22T13:16:41.000Z</time>
      </trkpt>
      <trkpt lat="47.17852" lon="-1.6001">
        <ele>57</ele>
        <time>2021-04-22T13:16:43.000Z</time>
      </trkpt>
      <trkpt lat="47.17841" lon="-1.60028">
        <ele>58</ele>
        <time>2021-04-22T13:16:45.000Z</time>
      </trkpt>
      <trkpt lat="47.17831" lon="-1.60046">
        <ele>59</ele>
        <time>2021-04-22T13:16:47.000Z</time>
      </trkpt>
      <trkpt lat="47.17821" lon="-1.60064">
        <ele>59</ele>
        <time>2021-04-22T13:16:49.000Z</time>
      </trkpt>
      <trkpt lat="47.17811" lon="-1.60081">
        <ele>60</ele>
        <time>2021-04-22T13:16:51.000Z</time>
      </trkpt>
      <trkpt lat="47.17802" lon="-1.60098">
        <ele>61</ele>
        <time>2021-04-22T13:16:53.000Z</time>
      </trkpt>
      <trkpt lat="47.17792" lon="-1.60115">
        <ele>62</ele>
        <time>2021-04-22T13:16:55.000Z</time>
      </trkpt>
      <trkpt lat="47.17782" lon="-1.60131">
        <ele>62</ele>
        <time>2021-04-22T13:16:57.000Z</time>
      </trkpt>
      <trkpt lat="47.17773" lon="-1.60147">
        <ele>63</ele>
        <time>2021-04-22T13:16:59.000Z</time>
      </trkpt>
      <trkpt lat="47.17764" lon="-1.60164">
        <ele>64</ele>
        <time>2021-04-22T13:17:01.000Z</time>
      </trkpt>
      <trkpt lat="47.17757" lon="-1.60183">
        <ele>64</ele>
        <time>2021-04-22T13:17:03.000Z</time>
      </trkpt>
      <trkpt lat="47.17751" lon="-1.60202">
        <ele>65</ele>
        <time>2021-04-22T13:17:05.000Z</time>
      </trkpt>
      <trkpt lat="47.17747" lon="-1.60221">
        <ele>65</ele>
        <time>2021-04-22T13:17:07.000Z</time>
      </trkpt>
      <trkpt lat="47.17743" lon="-1.60238">
        <ele>65</ele>
        <time>2021-04-22T13:17:09.000Z</time>
      </trkpt>
      <trkpt lat="47.17738" lon="-1.60256">
        <ele>66</ele>
        <time>2021-04-22T13:17:11.000Z</time>
      </trkpt>
      <trkpt lat="47.17732" lon="-1.60271">
        <ele>66</ele>
        <time>2021-04-22T13:17:13.000Z</time>
      </trkpt>
      <trkpt lat="47.17723" lon="-1.60285">
        <ele>66</ele>
        <time>2021-04-22T13:17:15.000Z</time>
      </trkpt>
      <trkpt lat="47.17715" lon="-1.60297">
        <ele>67</ele>
        <time>2021-04-22T13:17:17.000Z</time>
      </trkpt>
      <trkpt lat="47.17707" lon="-1.60308">
        <ele>67</ele>
        <time>2021-04-22T13:17:19.000Z</time>
      </trkpt>
      <trkpt lat="47.177" lon="-1.60317">
        <ele>67</ele>
        <time>2021-04-22T13:17:21.000Z</time>
      </trkpt>
      <trkpt lat="47.17694" lon="-1.60326">
        <ele>68</ele>
        <time>2021-04-22T13:17:23.000Z</time>
      </trkpt>
      <trkpt lat="47.17686" lon="-1.60337">
        <ele>67</ele>
        <time>2021-04-22T13:17:26.000Z</time>
      </trkpt>
      <trkpt lat="47.17678" lon="-1.60347">
        <ele>67</ele>
        <time>2021-04-22T13:17:34.000Z</time>
      </trkpt>
      <trkpt lat="47.17668" lon="-1.60361">
        <ele>67</ele>
        <time>2021-04-22T13:17:37.000Z</time>
      </trkpt>
      <trkpt lat="47.17659" lon="-1.60374">
        <ele>67</ele>
        <time>2021-04-22T13:17:39.000Z</time>
      </trkpt>
      <trkpt lat="47.17649" lon="-1.60389">
        <ele>66</ele>
        <time>2021-04-22T13:17:41.000Z</time>
      </trkpt>
      <trkpt lat="47.17638" lon="-1.60407">
        <ele>65</ele>
        <time>2021-04-22T13:17:43.000Z</time>
      </trkpt>
      <trkpt lat="47.17627" lon="-1.60425">
        <ele>65</ele>
        <time>2021-04-22T13:17:45.000Z</time>
      </trkpt>
      <trkpt lat="47.17616" lon="-1.60443">
        <ele>65</ele>
        <time>2021-04-22T13:17:47.000Z</time>
      </trkpt>
      <trkpt lat="47.17605" lon="-1.6046">
        <ele>64</ele>
        <time>2021-04-22T13:17:49.000Z</time>
      </trkpt>
      <trkpt lat="47.17594" lon="-1.60478">
        <ele>64</ele>
        <time>2021-04-22T13:17:51.000Z</time>
      </trkpt>
      <trkpt lat="47.17583" lon="-1.60496">
        <ele>64</ele>
        <time>2021-04-22T13:17:53.000Z</time>
      </trkpt>
      <trkpt lat="47.17572" lon="-1.60513">
        <ele>64</ele>
        <time>2021-04-22T13:17:55.000Z</time>
      </trkpt>
      <trkpt lat="47.17561" lon="-1.60531">
        <ele>64</ele>
        <time>2021-04-22T13:17:57.000Z</time>
      </trkpt>
      <trkpt lat="47.1755" lon="-1.60549">
        <ele>64</ele>
        <time>2021-04-22T13:17:59.000Z</time>
      </trkpt>
      <trkpt lat="47.17539" lon="-1.60566">
        <ele>64</ele>
        <time>2021-04-22T13:18:01.000Z</time>
      </trkpt>
      <trkpt lat="47.17529" lon="-1.60583">
        <ele>64</ele>
        <time>2021-04-22T13:18:03.000Z</time>
      </trkpt>
      <trkpt lat="47.17519" lon="-1.606">
        <ele>64</ele>
        <time>2021-04-22T13:18:05.000Z</time>
      </trkpt>
      <trkpt lat="47.17508" lon="-1.60617">
        <ele>63</ele>
        <time>2021-04-22T13:18:07.000Z</time>
      </trkpt>
      <trkpt lat="47.17497" lon="-1.60635">
        <ele>63</ele>
        <time>2021-04-22T13:18:09.000Z</time>
      </trkpt>
      <trkpt lat="47.17486" lon="-1.60652">
        <ele>63</ele>
        <time>2021-04-22T13:18:11.000Z</time>
      </trkpt>
      <trkpt lat="47.17475" lon="-1.60671">
        <ele>63</ele>
        <time>2021-04-22T13:18:13.000Z</time>
      </trkpt>
      <trkpt lat="47.17464" lon="-1.60689">
        <ele>62</ele>
        <time>2021-04-22T13:18:15.000Z</time>
      </trkpt>
      <trkpt lat="47.17453" lon="-1.60707">
        <ele>62</ele>
        <time>2021-04-22T13:18:17.000Z</time>
      </trkpt>
      <trkpt lat="47.17442" lon="-1.60727">
        <ele>61</ele>
        <time>2021-04-22T13:18:19.000Z</time>
      </trkpt>
      <trkpt lat="47.17431" lon="-1.60746">
        <ele>61</ele>
        <time>2021-04-22T13:18:21.000Z</time>
      </trkpt>
      <trkpt lat="47.17421" lon="-1.60768">
        <ele>60</ele>
        <time>2021-04-22T13:18:23.000Z</time>
      </trkpt>
      <trkpt lat="47.17413" lon="-1.60791">
        <ele>60</ele>
        <time>2021-04-22T13:18:25.000Z</time>
      </trkpt>
      <trkpt lat="47.17409" lon="-1.60803">
        <ele>59</ele>
        <time>2021-04-22T13:18:26.000Z</time>
      </trkpt>
      <trkpt lat="47.17403" lon="-1.60828">
        <ele>58</ele>
        <time>2021-04-22T13:18:28.000Z</time>
      </trkpt>
      <trkpt lat="47.17401" lon="-1.60841">
        <ele>58</ele>
        <time>2021-04-22T13:18:29.000Z</time>
      </trkpt>
      <trkpt lat="47.17399" lon="-1.60854">
        <ele>58</ele>
        <time>2021-04-22T13:18:30.000Z</time>
      </trkpt>
      <trkpt lat="47.17397" lon="-1.60868">
        <ele>58</ele>
        <time>2021-04-22T13:18:31.000Z</time>
      </trkpt>
      <trkpt lat="47.17396" lon="-1.60894">
        <ele>57</ele>
        <time>2021-04-22T13:18:33.000Z</time>
      </trkpt>
      <trkpt lat="47.17396" lon="-1.60908">
        <ele>56</ele>
        <time>2021-04-22T13:18:34.000Z</time>
      </trkpt>
      <trkpt lat="47.17397" lon="-1.60921">
        <ele>56</ele>
        <time>2021-04-22T13:18:35.000Z</time>
      </trkpt>
      <trkpt lat="47.17398" lon="-1.60935">
        <ele>56</ele>
        <time>2021-04-22T13:18:36.000Z</time>
      </trkpt>
      <trkpt lat="47.17401" lon="-1.60948">
        <ele>56</ele>
        <time>2021-04-22T13:18:37.000Z</time>
      </trkpt>
      <trkpt lat="47.17405" lon="-1.60961">
        <ele>56</ele>
        <time>2021-04-22T13:18:38.000Z</time>
      </trkpt>
      <trkpt lat="47.17409" lon="-1.60974">
        <ele>56</ele>
        <time>2021-04-22T13:18:39.000Z</time>
      </trkpt>
      <trkpt lat="47.17414" lon="-1.60985">
        <ele>56</ele>
        <time>2021-04-22T13:18:40.000Z</time>
      </trkpt>
      <trkpt lat="47.1742" lon="-1.61008">
        <ele>56</ele>
        <time>2021-04-22T13:18:42.000Z</time>
      </trkpt>
      <trkpt lat="47.17423" lon="-1.61033">
        <ele>57</ele>
        <time>2021-04-22T13:18:44.000Z</time>
      </trkpt>
      <trkpt lat="47.17428" lon="-1.61055">
        <ele>58</ele>
        <time>2021-04-22T13:18:46.000Z</time>
      </trkpt>
      <trkpt lat="47.17437" lon="-1.61076">
        <ele>58</ele>
        <time>2021-04-22T13:18:48.000Z</time>
      </trkpt>
      <trkpt lat="47.17446" lon="-1.61097">
        <ele>59</ele>
        <time>2021-04-22T13:18:50.000Z</time>
      </trkpt>
      <trkpt lat="47.17455" lon="-1.61117">
        <ele>60</ele>
        <time>2021-04-22T13:18:52.000Z</time>
      </trkpt>
      <trkpt lat="47.17463" lon="-1.61139">
        <ele>60</ele>
        <time>2021-04-22T13:18:54.000Z</time>
      </trkpt>
      <trkpt lat="47.17472" lon="-1.6116">
        <ele>60</ele>
        <time>2021-04-22T13:18:56.000Z</time>
      </trkpt>
      <trkpt lat="47.1748" lon="-1.61181">
        <ele>60</ele>
        <time>2021-04-22T13:18:58.000Z</time>
      </trkpt>
      <trkpt lat="47.17487" lon="-1.61202">
        <ele>60</ele>
        <time>2021-04-22T13:19:00.000Z</time>
      </trkpt>
      <trkpt lat="47.17495" lon="-1.61221">
        <ele>60</ele>
        <time>2021-04-22T13:19:02.000Z</time>
      </trkpt>
      <trkpt lat="47.17503" lon="-1.61239">
        <ele>61</ele>
        <time>2021-04-22T13:19:04.000Z</time>
      </trkpt>
      <trkpt lat="47.17513" lon="-1.61257">
        <ele>61</ele>
        <time>2021-04-22T13:19:06.000Z</time>
      </trkpt>
      <trkpt lat="47.17524" lon="-1.61274">
        <ele>61</ele>
        <time>2021-04-22T13:19:08.000Z</time>
      </trkpt>
      <trkpt lat="47.17537" lon="-1.61287">
        <ele>61</ele>
        <time>2021-04-22T13:19:10.000Z</time>
      </trkpt>
      <trkpt lat="47.17552" lon="-1.61296">
        <ele>61</ele>
        <time>2021-04-22T13:19:12.000Z</time>
      </trkpt>
      <trkpt lat="47.17561" lon="-1.61315">
        <ele>61</ele>
        <time>2021-04-22T13:19:14.000Z</time>
      </trkpt>
      <trkpt lat="47.1756" lon="-1.6134">
        <ele>60</ele>
        <time>2021-04-22T13:19:16.000Z</time>
      </trkpt>
      <trkpt lat="47.17548" lon="-1.61356">
        <ele>60</ele>
        <time>2021-04-22T13:19:18.000Z</time>
      </trkpt>
      <trkpt lat="47.17534" lon="-1.61369">
        <ele>59</ele>
        <time>2021-04-22T13:19:20.000Z</time>
      </trkpt>
      <trkpt lat="47.17525" lon="-1.61388">
        <ele>59</ele>
        <time>2021-04-22T13:19:22.000Z</time>
      </trkpt>
      <trkpt lat="47.1752" lon="-1.6141">
        <ele>60</ele>
        <time>2021-04-22T13:19:24.000Z</time>
      </trkpt>
      <trkpt lat="47.17517" lon="-1.61432">
        <ele>61</ele>
        <time>2021-04-22T13:19:26.000Z</time>
      </trkpt>
      <trkpt lat="47.17513" lon="-1.61451">
        <ele>62</ele>
        <time>2021-04-22T13:19:28.000Z</time>
      </trkpt>
      <trkpt lat="47.17502" lon="-1.61464">
        <ele>62</ele>
        <time>2021-04-22T13:19:30.000Z</time>
      </trkpt>
      <trkpt lat="47.1749" lon="-1.61469">
        <ele>62</ele>
        <time>2021-04-22T13:19:32.000Z</time>
      </trkpt>
      <trkpt lat="47.17478" lon="-1.61474">
        <ele>63</ele>
        <time>2021-04-22T13:19:34.000Z</time>
      </trkpt>
      <trkpt lat="47.17466" lon="-1.61479">
        <ele>64</ele>
        <time>2021-04-22T13:19:36.000Z</time>
      </trkpt>
      <trkpt lat="47.17454" lon="-1.61486">
        <ele>65</ele>
        <time>2021-04-22T13:19:38.000Z</time>
      </trkpt>
      <trkpt lat="47.17443" lon="-1.61491">
        <ele>65</ele>
        <time>2021-04-22T13:19:40.000Z</time>
      </trkpt>
      <trkpt lat="47.17431" lon="-1.61498">
        <ele>66</ele>
        <time>2021-04-22T13:19:42.000Z</time>
      </trkpt>
      <trkpt lat="47.1742" lon="-1.61506">
        <ele>66</ele>
        <time>2021-04-22T13:19:44.000Z</time>
      </trkpt>
      <trkpt lat="47.1741" lon="-1.61513">
        <ele>67</ele>
        <time>2021-04-22T13:19:46.000Z</time>
      </trkpt>
      <trkpt lat="47.17399" lon="-1.61521">
        <ele>67</ele>
        <time>2021-04-22T13:19:48.000Z</time>
      </trkpt>
      <trkpt lat="47.17389" lon="-1.61529">
        <ele>68</ele>
        <time>2021-04-22T13:19:50.000Z</time>
      </trkpt>
      <trkpt lat="47.17379" lon="-1.61538">
        <ele>68</ele>
        <time>2021-04-22T13:19:52.000Z</time>
      </trkpt>
      <trkpt lat="47.17369" lon="-1.61549">
        <ele>70</ele>
        <time>2021-04-22T13:19:54.000Z</time>
      </trkpt>
      <trkpt lat="47.17359" lon="-1.61559">
        <ele>70</ele>
        <time>2021-04-22T13:19:56.000Z</time>
      </trkpt>
      <trkpt lat="47.1735" lon="-1.6157">
        <ele>71</ele>
        <time>2021-04-22T13:19:58.000Z</time>
      </trkpt>
      <trkpt lat="47.17341" lon="-1.61582">
        <ele>71</ele>
        <time>2021-04-22T13:20:00.000Z</time>
      </trkpt>
      <trkpt lat="47.17333" lon="-1.61592">
        <ele>71</ele>
        <time>2021-04-22T13:20:02.000Z</time>
      </trkpt>
      <trkpt lat="47.17324" lon="-1.61603">
        <ele>71</ele>
        <time>2021-04-22T13:20:04.000Z</time>
      </trkpt>
      <trkpt lat="47.17315" lon="-1.61615">
        <ele>71</ele>
        <time>2021-04-22T13:20:06.000Z</time>
      </trkpt>
      <trkpt lat="47.17307" lon="-1.61627">
        <ele>70</ele>
        <time>2021-04-22T13:20:08.000Z</time>
      </trkpt>
      <trkpt lat="47.17298" lon="-1.61641">
        <ele>71</ele>
        <time>2021-04-22T13:20:10.000Z</time>
      </trkpt>
      <trkpt lat="47.1729" lon="-1.61656">
        <ele>71</ele>
        <time>2021-04-22T13:20:12.000Z</time>
      </trkpt>
      <trkpt lat="47.17282" lon="-1.6167">
        <ele>71</ele>
        <time>2021-04-22T13:20:14.000Z</time>
      </trkpt>
      <trkpt lat="47.17274" lon="-1.61686">
        <ele>70</ele>
        <time>2021-04-22T13:20:16.000Z</time>
      </trkpt>
      <trkpt lat="47.17266" lon="-1.61702">
        <ele>70</ele>
        <time>2021-04-22T13:20:18.000Z</time>
      </trkpt>
      <trkpt lat="47.17258" lon="-1.61718">
        <ele>70</ele>
        <time>2021-04-22T13:20:20.000Z</time>
      </trkpt>
      <trkpt lat="47.17251" lon="-1.61734">
        <ele>69</ele>
        <time>2021-04-22T13:20:22.000Z</time>
      </trkpt>
      <trkpt lat="47.17245" lon="-1.61751">
        <ele>69</ele>
        <time>2021-04-22T13:20:24.000Z</time>
      </trkpt>
      <trkpt lat="47.17242" lon="-1.6177">
        <ele>68</ele>
        <time>2021-04-22T13:20:26.000Z</time>
      </trkpt>
      <trkpt lat="47.17234" lon="-1.61785">
        <ele>68</ele>
        <time>2021-04-22T13:20:28.000Z</time>
      </trkpt>
      <trkpt lat="47.17222" lon="-1.61796">
        <ele>68</ele>
        <time>2021-04-22T13:20:30.000Z</time>
      </trkpt>
      <trkpt lat="47.17211" lon="-1.61807">
        <ele>67</ele>
        <time>2021-04-22T13:20:32.000Z</time>
      </trkpt>
      <trkpt lat="47.17199" lon="-1.61816">
        <ele>67</ele>
        <time>2021-04-22T13:20:34.000Z</time>
      </trkpt>
      <trkpt lat="47.17188" lon="-1.61826">
        <ele>68</ele>
        <time>2021-04-22T13:20:36.000Z</time>
      </trkpt>
      <trkpt lat="47.17176" lon="-1.61837">
        <ele>69</ele>
        <time>2021-04-22T13:20:38.000Z</time>
      </trkpt>
      <trkpt lat="47.17165" lon="-1.61848">
        <ele>68</ele>
        <time>2021-04-22T13:20:40.000Z</time>
      </trkpt>
      <trkpt lat="47.17153" lon="-1.61858">
        <ele>68</ele>
        <time>2021-04-22T13:20:42.000Z</time>
      </trkpt>
      <trkpt lat="47.17142" lon="-1.61869">
        <ele>68</ele>
        <time>2021-04-22T13:20:44.000Z</time>
      </trkpt>
      <trkpt lat="47.17131" lon="-1.61879">
        <ele>68</ele>
        <time>2021-04-22T13:20:46.000Z</time>
      </trkpt>
      <trkpt lat="47.17119" lon="-1.6189">
        <ele>68</ele>
        <time>2021-04-22T13:20:48.000Z</time>
      </trkpt>
      <trkpt lat="47.17108" lon="-1.61901">
        <ele>68</ele>
        <time>2021-04-22T13:20:50.000Z</time>
      </trkpt>
      <trkpt lat="47.17097" lon="-1.61912">
        <ele>68</ele>
        <time>2021-04-22T13:20:52.000Z</time>
      </trkpt>
      <trkpt lat="47.17087" lon="-1.61923">
        <ele>68</ele>
        <time>2021-04-22T13:20:54.000Z</time>
      </trkpt>
      <trkpt lat="47.17077" lon="-1.61933">
        <ele>68</ele>
        <time>2021-04-22T13:20:56.000Z</time>
      </trkpt>
      <trkpt lat="47.17067" lon="-1.61944">
        <ele>68</ele>
        <time>2021-04-22T13:20:58.000Z</time>
      </trkpt>
      <trkpt lat="47.17056" lon="-1.61957">
        <ele>68</ele>
        <time>2021-04-22T13:21:00.000Z</time>
      </trkpt>
      <trkpt lat="47.17046" lon="-1.6197">
        <ele>68</ele>
        <time>2021-04-22T13:21:02.000Z</time>
      </trkpt>
      <trkpt lat="47.17037" lon="-1.61983">
        <ele>68</ele>
        <time>2021-04-22T13:21:04.000Z</time>
      </trkpt>
      <trkpt lat="47.17028" lon="-1.61998">
        <ele>68</ele>
        <time>2021-04-22T13:21:06.000Z</time>
      </trkpt>
      <trkpt lat="47.17018" lon="-1.62012">
        <ele>68</ele>
        <time>2021-04-22T13:21:08.000Z</time>
      </trkpt>
      <trkpt lat="47.17008" lon="-1.62027">
        <ele>68</ele>
        <time>2021-04-22T13:21:10.000Z</time>
      </trkpt>
      <trkpt lat="47.16999" lon="-1.62043">
        <ele>68</ele>
        <time>2021-04-22T13:21:12.000Z</time>
      </trkpt>
      <trkpt lat="47.1699" lon="-1.62059">
        <ele>69</ele>
        <time>2021-04-22T13:21:14.000Z</time>
      </trkpt>
      <trkpt lat="47.1698" lon="-1.62075">
        <ele>69</ele>
        <time>2021-04-22T13:21:16.000Z</time>
      </trkpt>
      <trkpt lat="47.16971" lon="-1.62092">
        <ele>69</ele>
        <time>2021-04-22T13:21:18.000Z</time>
      </trkpt>
      <trkpt lat="47.16962" lon="-1.62107">
        <ele>68</ele>
        <time>2021-04-22T13:21:20.000Z</time>
      </trkpt>
      <trkpt lat="47.16954" lon="-1.62125">
        <ele>69</ele>
        <time>2021-04-22T13:21:22.000Z</time>
      </trkpt>
      <trkpt lat="47.16944" lon="-1.62143">
        <ele>68</ele>
        <time>2021-04-22T13:21:24.000Z</time>
      </trkpt>
      <trkpt lat="47.16936" lon="-1.6216">
        <ele>69</ele>
        <time>2021-04-22T13:21:26.000Z</time>
      </trkpt>
      <trkpt lat="47.16928" lon="-1.62178">
        <ele>69</ele>
        <time>2021-04-22T13:21:28.000Z</time>
      </trkpt>
      <trkpt lat="47.16919" lon="-1.62195">
        <ele>69</ele>
        <time>2021-04-22T13:21:30.000Z</time>
      </trkpt>
      <trkpt lat="47.16908" lon="-1.6221">
        <ele>69</ele>
        <time>2021-04-22T13:21:32.000Z</time>
      </trkpt>
      <trkpt lat="47.16897" lon="-1.62223">
        <ele>69</ele>
        <time>2021-04-22T13:21:34.000Z</time>
      </trkpt>
      <trkpt lat="47.16886" lon="-1.62239">
        <ele>69</ele>
        <time>2021-04-22T13:21:36.000Z</time>
      </trkpt>
      <trkpt lat="47.16874" lon="-1.62255">
        <ele>69</ele>
        <time>2021-04-22T13:21:38.000Z</time>
      </trkpt>
      <trkpt lat="47.16862" lon="-1.6227">
        <ele>69</ele>
        <time>2021-04-22T13:21:40.000Z</time>
      </trkpt>
      <trkpt lat="47.16851" lon="-1.62284">
        <ele>69</ele>
        <time>2021-04-22T13:21:42.000Z</time>
      </trkpt>
      <trkpt lat="47.1684" lon="-1.62298">
        <ele>70</ele>
        <time>2021-04-22T13:21:44.000Z</time>
      </trkpt>
      <trkpt lat="47.16827" lon="-1.62311">
        <ele>70</ele>
        <time>2021-04-22T13:21:46.000Z</time>
      </trkpt>
      <trkpt lat="47.16815" lon="-1.62321">
        <ele>70</ele>
        <time>2021-04-22T13:21:48.000Z</time>
      </trkpt>
      <trkpt lat="47.16801" lon="-1.6233">
        <ele>70</ele>
        <time>2021-04-22T13:21:50.000Z</time>
      </trkpt>
      <trkpt lat="47.16788" lon="-1.62337">
        <ele>69</ele>
        <time>2021-04-22T13:21:52.000Z</time>
      </trkpt>
      <trkpt lat="47.16774" lon="-1.62344">
        <ele>69</ele>
        <time>2021-04-22T13:21:54.000Z</time>
      </trkpt>
      <trkpt lat="47.16761" lon="-1.62353">
        <ele>68</ele>
        <time>2021-04-22T13:21:56.000Z</time>
      </trkpt>
      <trkpt lat="47.16749" lon="-1.62363">
        <ele>68</ele>
        <time>2021-04-22T13:21:58.000Z</time>
      </trkpt>
      <trkpt lat="47.16739" lon="-1.62377">
        <ele>68</ele>
        <time>2021-04-22T13:22:00.000Z</time>
      </trkpt>
      <trkpt lat="47.16732" lon="-1.62395">
        <ele>68</ele>
        <time>2021-04-22T13:22:02.000Z</time>
      </trkpt>
      <trkpt lat="47.16729" lon="-1.62415">
        <ele>68</ele>
        <time>2021-04-22T13:22:04.000Z</time>
      </trkpt>
      <trkpt lat="47.16726" lon="-1.62433">
        <ele>68</ele>
        <time>2021-04-22T13:22:06.000Z</time>
      </trkpt>
      <trkpt lat="47.16722" lon="-1.62451">
        <ele>68</ele>
        <time>2021-04-22T13:22:08.000Z</time>
      </trkpt>
      <trkpt lat="47.16718" lon="-1.62468">
        <ele>67</ele>
        <time>2021-04-22T13:22:10.000Z</time>
      </trkpt>
      <trkpt lat="47.16715" lon="-1.62486">
        <ele>67</ele>
        <time>2021-04-22T13:22:12.000Z</time>
      </trkpt>
      <trkpt lat="47.16725" lon="-1.62498">
        <ele>67</ele>
        <time>2021-04-22T13:22:14.000Z</time>
      </trkpt>
      <trkpt lat="47.16737" lon="-1.62504">
        <ele>68</ele>
        <time>2021-04-22T13:22:16.000Z</time>
      </trkpt>
      <trkpt lat="47.1675" lon="-1.6251">
        <ele>68</ele>
        <time>2021-04-22T13:22:18.000Z</time>
      </trkpt>
      <trkpt lat="47.16762" lon="-1.62517">
        <ele>68</ele>
        <time>2021-04-22T13:22:20.000Z</time>
      </trkpt>
      <trkpt lat="47.16774" lon="-1.62524">
        <ele>69</ele>
        <time>2021-04-22T13:22:22.000Z</time>
      </trkpt>
      <trkpt lat="47.16785" lon="-1.62531">
        <ele>69</ele>
        <time>2021-04-22T13:22:24.000Z</time>
      </trkpt>
      <trkpt lat="47.16796" lon="-1.62538">
        <ele>69</ele>
        <time>2021-04-22T13:22:26.000Z</time>
      </trkpt>
      <trkpt lat="47.16806" lon="-1.62546">
        <ele>69</ele>
        <time>2021-04-22T13:22:28.000Z</time>
      </trkpt>
      <trkpt lat="47.16816" lon="-1.62554">
        <ele>69</ele>
        <time>2021-04-22T13:22:30.000Z</time>
      </trkpt>
      <trkpt lat="47.16825" lon="-1.62564">
        <ele>70</ele>
        <time>2021-04-22T13:22:32.000Z</time>
      </trkpt>
      <trkpt lat="47.16831" lon="-1.62579">
        <ele>70</ele>
        <time>2021-04-22T13:22:34.000Z</time>
      </trkpt>
      <trkpt lat="47.16826" lon="-1.62596">
        <ele>70</ele>
        <time>2021-04-22T13:22:36.000Z</time>
      </trkpt>
      <trkpt lat="47.16816" lon="-1.6261">
        <ele>70</ele>
        <time>2021-04-22T13:22:38.000Z</time>
      </trkpt>
      <trkpt lat="47.16809" lon="-1.62623">
        <ele>70</ele>
        <time>2021-04-22T13:22:40.000Z</time>
      </trkpt>
      <trkpt lat="47.16801" lon="-1.62636">
        <ele>70</ele>
        <time>2021-04-22T13:22:42.000Z</time>
      </trkpt>
      <trkpt lat="47.16794" lon="-1.62647">
        <ele>70</ele>
        <time>2021-04-22T13:22:44.000Z</time>
      </trkpt>
      <trkpt lat="47.16786" lon="-1.62662">
        <ele>70</ele>
        <time>2021-04-22T13:22:47.000Z</time>
      </trkpt>
      <trkpt lat="47.16777" lon="-1.62656">
        <ele>71</ele>
        <time>2021-04-22T13:22:51.000Z</time>
      </trkpt>
    </trkseg>
  </trk>
</gpx>